<?xml version='1.0' encoding='UTF-8'?><gpx version="1.1" creator="JPX - https://github.com/jenetics/jpx" xmlns="http://www.topografix.com/GPX/1/1"><trk><trkseg><trkpt lat="41.1490486" lon="14.2266493"><ele>46.0</ele><time>2026-04-06T05:15:38.074Z</time></trkpt><trkpt lat="41.1490302" lon="14.226563"><ele>46.0</ele><time>2026-04-06T05:15:47.079Z</time></trkpt><trkpt lat="41.148965" lon="14.2265762"><ele>46.0</ele><time>2026-04-06T05:15:52.063Z</time></trkpt><trkpt lat="41.1490489" lon="14.2266412"><ele>46.0</ele><time>2026-04-06T05:16:15.07Z</time></trkpt><trkpt lat="41.1491018" lon="14.2267249"><ele>46.0</ele><time>2026-04-06T05:16:17.162Z</time></trkpt><trkpt lat="41.1491513" lon="14.2268731"><ele>46.0</ele><time>2026-04-06T05:16:19.053Z</time></trkpt><trkpt lat="41.1491751" lon="14.2269651"><ele>46.0</ele><time>2026-04-06T05:16:20.055Z</time></trkpt><trkpt lat="41.1491992" lon="14.2270529"><ele>46.0</ele><time>2026-04-06T05:16:21.063Z</time></trkpt><trkpt lat="41.149222" lon="14.2271353"><ele>46.0</ele><time>2026-04-06T05:16:22.045Z</time></trkpt><trkpt lat="41.1492478" lon="14.2272213"><ele>46.0</ele><time>2026-04-06T05:16:23.055Z</time></trkpt><trkpt lat="41.1492736" lon="14.2273052"><ele>46.0</ele><time>2026-04-06T05:16:24.045Z</time></trkpt><trkpt lat="41.149306" lon="14.2274557"><ele>46.0</ele><time>2026-04-06T05:16:27.05Z</time></trkpt><trkpt lat="41.1492526" lon="14.2273165"><ele>46.0</ele><time>2026-04-06T05:16:28.056Z</time></trkpt><trkpt lat="41.1491278" lon="14.2264926"><ele>45.8</ele><time>2026-04-06T05:17:14.083Z</time></trkpt><trkpt lat="41.1491989" lon="14.2264045"><ele>45.599999999999994</ele><time>2026-04-06T05:17:16.067Z</time></trkpt><trkpt lat="41.1492663" lon="14.2263533"><ele>45.4</ele><time>2026-04-06T05:17:19.068Z</time></trkpt><trkpt lat="41.1492172" lon="14.2261851"><ele>45.2</ele><time>2026-04-06T05:18:22.072Z</time></trkpt><trkpt lat="41.1491565" lon="14.2262486"><ele>45.0</ele><time>2026-04-06T05:18:31.055Z</time></trkpt><trkpt lat="41.1490951" lon="14.2263313"><ele>45.0</ele><time>2026-04-06T05:18:33.049Z</time></trkpt><trkpt lat="41.1489898" lon="14.2264338"><ele>45.0</ele><time>2026-04-06T05:18:35.063Z</time></trkpt><trkpt lat="41.1489154" lon="14.2265058"><ele>45.0</ele><time>2026-04-06T05:18:36.048Z</time></trkpt><trkpt lat="41.1488363" lon="14.2265877"><ele>45.0</ele><time>2026-04-06T05:18:37.045Z</time></trkpt><trkpt lat="41.1486604" lon="14.2267685"><ele>45.0</ele><time>2026-04-06T05:18:40.055Z</time></trkpt><trkpt lat="41.1482954" lon="14.2272377"><ele>45.0</ele><time>2026-04-06T05:18:42.055Z</time></trkpt><trkpt lat="41.1482114" lon="14.2273177"><ele>45.0</ele><time>2026-04-06T05:18:43.058Z</time></trkpt><trkpt lat="41.1482344" lon="14.2272252"><ele>45.0</ele><time>2026-04-06T05:18:51.068Z</time></trkpt><trkpt lat="41.1482791" lon="14.2271332"><ele>45.0</ele><time>2026-04-06T05:18:55.048Z</time></trkpt><trkpt lat="41.1483272" lon="14.2270498"><ele>45.0</ele><time>2026-04-06T05:18:57.066Z</time></trkpt><trkpt lat="41.1483741" lon="14.2269736"><ele>45.0</ele><time>2026-04-06T05:18:59.04Z</time></trkpt><trkpt lat="41.1484366" lon="14.2269183"><ele>45.0</ele><time>2026-04-06T05:19:01.036Z</time></trkpt><trkpt lat="41.1485149" lon="14.2268322"><ele>45.0</ele><time>2026-04-06T05:19:03.029Z</time></trkpt><trkpt lat="41.1485763" lon="14.2267662"><ele>45.0</ele><time>2026-04-06T05:19:04.04Z</time></trkpt><trkpt lat="41.1486702" lon="14.2266502"><ele>45.0</ele><time>2026-04-06T05:19:05.037Z</time></trkpt><trkpt lat="41.1487261" lon="14.2265411"><ele>45.0</ele><time>2026-04-06T05:19:06.03Z</time></trkpt><trkpt lat="41.1488076" lon="14.2263569"><ele>44.75</ele><time>2026-04-06T05:19:07.05Z</time></trkpt><trkpt lat="41.1488188" lon="14.226267"><ele>44.5</ele><time>2026-04-06T05:19:08.038Z</time></trkpt><trkpt lat="41.1488732" lon="14.2261254"><ele>44.25</ele><time>2026-04-06T05:19:09.044Z</time></trkpt><trkpt lat="41.148936" lon="14.2258996"><ele>44.0</ele><time>2026-04-06T05:19:10.037Z</time></trkpt><trkpt lat="41.1490153" lon="14.2256819"><ele>44.33333333333333</ele><time>2026-04-06T05:19:11.037Z</time></trkpt><trkpt lat="41.1491314" lon="14.2254511"><ele>44.666666666666664</ele><time>2026-04-06T05:19:12.029Z</time></trkpt><trkpt lat="41.1492112" lon="14.2252617"><ele>45.0</ele><time>2026-04-06T05:19:13.061Z</time></trkpt><trkpt lat="41.1492731" lon="14.2250913"><ele>45.0</ele><time>2026-04-06T05:19:14.031Z</time></trkpt><trkpt lat="41.1493541" lon="14.224924"><ele>45.0</ele><time>2026-04-06T05:19:15.044Z</time></trkpt><trkpt lat="41.1493881" lon="14.2248045"><ele>45.0</ele><time>2026-04-06T05:19:16.044Z</time></trkpt><trkpt lat="41.149387" lon="14.224685"><ele>45.0</ele><time>2026-04-06T05:19:17.042Z</time></trkpt><trkpt lat="41.1494867" lon="14.224601"><ele>45.0</ele><time>2026-04-06T05:19:28.052Z</time></trkpt><trkpt lat="41.149365" lon="14.2244773"><ele>45.0</ele><time>2026-04-06T05:19:37.026Z</time></trkpt><trkpt lat="41.1492803" lon="14.2244325"><ele>45.0</ele><time>2026-04-06T05:19:39.043Z</time></trkpt><trkpt lat="41.1492515" lon="14.2243566"><ele>45.0</ele><time>2026-04-06T05:19:41.067Z</time></trkpt><trkpt lat="41.1492702" lon="14.2242423"><ele>45.0</ele><time>2026-04-06T05:19:43.058Z</time></trkpt><trkpt lat="41.1492619" lon="14.2241525"><ele>45.0</ele><time>2026-04-06T05:19:45.054Z</time></trkpt><trkpt lat="41.1492685" lon="14.2240614"><ele>45.0</ele><time>2026-04-06T05:19:46.056Z</time></trkpt><trkpt lat="41.1492917" lon="14.2239354"><ele>45.0</ele><time>2026-04-06T05:19:48.06Z</time></trkpt><trkpt lat="41.1492057" lon="14.223953"><ele>45.0</ele><time>2026-04-06T05:19:55.064Z</time></trkpt><trkpt lat="41.1492285" lon="14.2240546"><ele>45.0</ele><time>2026-04-06T05:20:00.076Z</time></trkpt><trkpt lat="41.1492822" lon="14.2241009"><ele>45.0</ele><time>2026-04-06T05:20:02.051Z</time></trkpt><trkpt lat="41.1493124" lon="14.2242"><ele>45.0</ele><time>2026-04-06T05:20:03.041Z</time></trkpt><trkpt lat="41.1493464" lon="14.2243395"><ele>45.0</ele><time>2026-04-06T05:20:04.063Z</time></trkpt><trkpt lat="41.1494653" lon="14.2245094"><ele>45.0</ele><time>2026-04-06T05:20:06.035Z</time></trkpt><trkpt lat="41.1494981" lon="14.2246108"><ele>45.0</ele><time>2026-04-06T05:20:07.073Z</time></trkpt><trkpt lat="41.1495634" lon="14.2247218"><ele>45.0</ele><time>2026-04-06T05:20:09.224Z</time></trkpt><trkpt lat="41.1496241" lon="14.2249273"><ele>45.0</ele><time>2026-04-06T05:20:11.04Z</time></trkpt><trkpt lat="41.1496194" lon="14.2255892"><ele>45.0</ele><time>2026-04-06T05:20:14.232Z</time></trkpt><trkpt lat="41.1494746" lon="14.2261375"><ele>45.0</ele><time>2026-04-06T05:20:36.074Z</time></trkpt><trkpt lat="41.1493842" lon="14.2262917"><ele>45.0</ele><time>2026-04-06T05:20:41.049Z</time></trkpt><trkpt lat="41.1493338" lon="14.2263759"><ele>45.0</ele><time>2026-04-06T05:20:43.072Z</time></trkpt><trkpt lat="41.1492882" lon="14.2264674"><ele>45.0</ele><time>2026-04-06T05:20:44.056Z</time></trkpt><trkpt lat="41.1492509" lon="14.2265747"><ele>45.0</ele><time>2026-04-06T05:20:46.064Z</time></trkpt><trkpt lat="41.1492154" lon="14.2266484"><ele>45.0</ele><time>2026-04-06T05:20:47.072Z</time></trkpt><trkpt lat="41.1491547" lon="14.2267201"><ele>45.0</ele><time>2026-04-06T05:20:51.112Z</time></trkpt><trkpt lat="41.1490641" lon="14.2267714"><ele>45.0</ele><time>2026-04-06T05:20:53.087Z</time></trkpt><trkpt lat="41.1489882" lon="14.2268158"><ele>45.0</ele><time>2026-04-06T05:20:55.098Z</time></trkpt><trkpt lat="41.1489221" lon="14.2268587"><ele>45.0</ele><time>2026-04-06T05:20:58.072Z</time></trkpt><trkpt lat="41.1488697" lon="14.2269229"><ele>45.0</ele><time>2026-04-06T05:21:05.094Z</time></trkpt><trkpt lat="41.1488404" lon="14.2270116"><ele>45.0</ele><time>2026-04-06T05:21:11.048Z</time></trkpt><trkpt lat="41.1488851" lon="14.227092"><ele>45.0</ele><time>2026-04-06T05:21:16.069Z</time></trkpt><trkpt lat="41.1489267" lon="14.2271566"><ele>45.0</ele><time>2026-04-06T05:21:21.063Z</time></trkpt><trkpt lat="41.1489715" lon="14.2272338"><ele>45.0</ele><time>2026-04-06T05:21:25.081Z</time></trkpt><trkpt lat="41.1490229" lon="14.2273102"><ele>45.0</ele><time>2026-04-06T05:21:30.025Z</time></trkpt><trkpt lat="41.1490944" lon="14.2273505"><ele>45.0</ele><time>2026-04-06T05:21:34.052Z</time></trkpt><trkpt lat="41.1491699" lon="14.2273907"><ele>45.0</ele><time>2026-04-06T05:21:37.042Z</time></trkpt><trkpt lat="41.1492327" lon="14.2273782"><ele>45.0</ele><time>2026-04-06T05:21:39.084Z</time></trkpt><trkpt lat="41.1493186" lon="14.2273677"><ele>45.0</ele><time>2026-04-06T05:21:42.069Z</time></trkpt><trkpt lat="41.1493896" lon="14.2273729"><ele>45.285714285714285</ele><time>2026-04-06T05:21:45.08Z</time></trkpt><trkpt lat="41.1494567" lon="14.2274133"><ele>45.57142857142858</ele><time>2026-04-06T05:21:48.114Z</time></trkpt><trkpt lat="41.1495175" lon="14.2274638"><ele>45.85714285714286</ele><time>2026-04-06T05:21:51.132Z</time></trkpt><trkpt lat="41.1495796" lon="14.227515"><ele>46.14285714285714</ele><time>2026-04-06T05:21:55.075Z</time></trkpt><trkpt lat="41.1496514" lon="14.227541"><ele>46.42857142857143</ele><time>2026-04-06T05:21:59.095Z</time></trkpt><trkpt lat="41.1497151" lon="14.2275694"><ele>46.714285714285715</ele><time>2026-04-06T05:22:02.958Z</time></trkpt><trkpt lat="41.1497796" lon="14.2276107"><ele>47.0</ele><time>2026-04-06T05:22:07.101Z</time></trkpt><trkpt lat="41.1498467" lon="14.2276369"><ele>47.14285714285714</ele><time>2026-04-06T05:22:11.863Z</time></trkpt><trkpt lat="41.1499102" lon="14.2276761"><ele>47.285714285714285</ele><time>2026-04-06T05:22:17.779Z</time></trkpt><trkpt lat="41.1499732" lon="14.2277152"><ele>47.42857142857143</ele><time>2026-04-06T05:22:23.081Z</time></trkpt><trkpt lat="41.1500376" lon="14.2277503"><ele>47.57142857142857</ele><time>2026-04-06T05:22:26.086Z</time></trkpt><trkpt lat="41.1501103" lon="14.2277769"><ele>47.714285714285715</ele><time>2026-04-06T05:22:29.115Z</time></trkpt><trkpt lat="41.1501815" lon="14.2278052"><ele>47.857142857142854</ele><time>2026-04-06T05:22:32.083Z</time></trkpt><trkpt lat="41.1502516" lon="14.2278687"><ele>48.0</ele><time>2026-04-06T05:22:35.086Z</time></trkpt><trkpt lat="41.1503239" lon="14.2279366"><ele>48.0</ele><time>2026-04-06T05:22:38.074Z</time></trkpt><trkpt lat="41.1503986" lon="14.2279835"><ele>48.0</ele><time>2026-04-06T05:22:41.076Z</time></trkpt><trkpt lat="41.1504641" lon="14.2280171"><ele>48.0</ele><time>2026-04-06T05:22:44.086Z</time></trkpt><trkpt lat="41.1505342" lon="14.2280374"><ele>48.0</ele><time>2026-04-06T05:22:47.017Z</time></trkpt><trkpt lat="41.1506167" lon="14.2280684"><ele>48.0</ele><time>2026-04-06T05:22:50.118Z</time></trkpt><trkpt lat="41.1506944" lon="14.228111"><ele>48.0</ele><time>2026-04-06T05:22:53.088Z</time></trkpt><trkpt lat="41.1507699" lon="14.2281465"><ele>48.285714285714285</ele><time>2026-04-06T05:22:56.118Z</time></trkpt><trkpt lat="41.1508367" lon="14.228184"><ele>48.57142857142857</ele><time>2026-04-06T05:22:59.089Z</time></trkpt><trkpt lat="41.1509058" lon="14.2282115"><ele>48.85714285714286</ele><time>2026-04-06T05:23:02.159Z</time></trkpt><trkpt lat="41.1509705" lon="14.228237"><ele>49.14285714285714</ele><time>2026-04-06T05:23:05.094Z</time></trkpt><trkpt lat="41.1510347" lon="14.2282728"><ele>49.42857142857143</ele><time>2026-04-06T05:23:08.101Z</time></trkpt><trkpt lat="41.1510936" lon="14.2283309"><ele>49.714285714285715</ele><time>2026-04-06T05:23:12.062Z</time></trkpt><trkpt lat="41.1511692" lon="14.2283596"><ele>50.0</ele><time>2026-04-06T05:23:18.102Z</time></trkpt><trkpt lat="41.15124" lon="14.2283715"><ele>50.00000000000001</ele><time>2026-04-06T05:23:22.04Z</time></trkpt><trkpt lat="41.1513092" lon="14.2283775"><ele>50.0</ele><time>2026-04-06T05:23:26.021Z</time></trkpt><trkpt lat="41.1513782" lon="14.2283928"><ele>50.0</ele><time>2026-04-06T05:23:31.017Z</time></trkpt><trkpt lat="41.1514375" lon="14.2284304"><ele>50.0</ele><time>2026-04-06T05:23:38.108Z</time></trkpt><trkpt lat="41.1514983" lon="14.2284699"><ele>50.0</ele><time>2026-04-06T05:23:43.128Z</time></trkpt><trkpt lat="41.1515594" lon="14.228518"><ele>50.00000000000001</ele><time>2026-04-06T05:23:48.11Z</time></trkpt><trkpt lat="41.1516303" lon="14.2285355"><ele>50.0</ele><time>2026-04-06T05:23:55.103Z</time></trkpt><trkpt lat="41.1517025" lon="14.2285656"><ele>50.00000000000001</ele><time>2026-04-06T05:24:01.081Z</time></trkpt><trkpt lat="41.1517682" lon="14.228598"><ele>50.0</ele><time>2026-04-06T05:24:04.082Z</time></trkpt><trkpt lat="41.1518381" lon="14.2286347"><ele>50.0</ele><time>2026-04-06T05:24:07.022Z</time></trkpt><trkpt lat="41.1519054" lon="14.2287021"><ele>50.0</ele><time>2026-04-06T05:24:10.093Z</time></trkpt><trkpt lat="41.1519565" lon="14.2287547"><ele>50.00000000000001</ele><time>2026-04-06T05:24:12.087Z</time></trkpt><trkpt lat="41.152013" lon="14.228793"><ele>50.0</ele><time>2026-04-06T05:24:14.078Z</time></trkpt><trkpt lat="41.1521099" lon="14.2288408"><ele>50.00000000000001</ele><time>2026-04-06T05:24:17.095Z</time></trkpt><trkpt lat="41.1521938" lon="14.228873"><ele>50.0</ele><time>2026-04-06T05:24:20.086Z</time></trkpt><trkpt lat="41.1522739" lon="14.2288994"><ele>50.0</ele><time>2026-04-06T05:24:23.019Z</time></trkpt><trkpt lat="41.1523626" lon="14.2289365"><ele>50.0</ele><time>2026-04-06T05:24:26.083Z</time></trkpt><trkpt lat="41.1524327" lon="14.2289892"><ele>50.00000000000001</ele><time>2026-04-06T05:24:29.073Z</time></trkpt><trkpt lat="41.1525071" lon="14.2290349"><ele>50.0</ele><time>2026-04-06T05:24:32.081Z</time></trkpt><trkpt lat="41.152585" lon="14.2290606"><ele>49.833333333333336</ele><time>2026-04-06T05:24:35.045Z</time></trkpt><trkpt lat="41.1526715" lon="14.2290852"><ele>49.66666666666667</ele><time>2026-04-06T05:24:38.109Z</time></trkpt><trkpt lat="41.1526346" lon="14.2290043"><ele>49.5</ele><time>2026-04-06T05:24:46.019Z</time></trkpt><trkpt lat="41.1527448" lon="14.2290698"><ele>49.33333333333333</ele><time>2026-04-06T05:24:47.102Z</time></trkpt><trkpt lat="41.1528102" lon="14.2291101"><ele>49.166666666666664</ele><time>2026-04-06T05:24:48.072Z</time></trkpt><trkpt lat="41.1528711" lon="14.2291358"><ele>49.0</ele><time>2026-04-06T05:24:51.093Z</time></trkpt><trkpt lat="41.1529444" lon="14.2291572"><ele>48.99999999999999</ele><time>2026-04-06T05:24:56.109Z</time></trkpt><trkpt lat="41.1530036" lon="14.2292108"><ele>49.0</ele><time>2026-04-06T05:25:01.095Z</time></trkpt><trkpt lat="41.1531484" lon="14.229305"><ele>49.0</ele><time>2026-04-06T05:25:18.063Z</time></trkpt><trkpt lat="41.1532095" lon="14.2293513"><ele>49.0</ele><time>2026-04-06T05:25:20.068Z</time></trkpt><trkpt lat="41.1532708" lon="14.2293775"><ele>48.99999999999999</ele><time>2026-04-06T05:25:22.079Z</time></trkpt><trkpt lat="41.1533422" lon="14.2293847"><ele>49.0</ele><time>2026-04-06T05:25:25.089Z</time></trkpt><trkpt lat="41.1534231" lon="14.2294024"><ele>49.49999999999999</ele><time>2026-04-06T05:25:28.127Z</time></trkpt><trkpt lat="41.153499" lon="14.2294436"><ele>50.0</ele><time>2026-04-06T05:25:31.076Z</time></trkpt><trkpt lat="41.1535703" lon="14.229489"><ele>50.5</ele><time>2026-04-06T05:25:34.093Z</time></trkpt><trkpt lat="41.153643" lon="14.2295345"><ele>51.0</ele><time>2026-04-06T05:25:37.094Z</time></trkpt><trkpt lat="41.1537113" lon="14.2295867"><ele>51.49999999999999</ele><time>2026-04-06T05:25:40.08Z</time></trkpt><trkpt lat="41.1537783" lon="14.2296371"><ele>52.0</ele><time>2026-04-06T05:25:43.077Z</time></trkpt><trkpt lat="41.153856" lon="14.2296842"><ele>51.99999999999999</ele><time>2026-04-06T05:25:46.114Z</time></trkpt><trkpt lat="41.1539351" lon="14.2297199"><ele>52.0</ele><time>2026-04-06T05:25:49.108Z</time></trkpt><trkpt lat="41.1540112" lon="14.2297564"><ele>52.0</ele><time>2026-04-06T05:25:52.097Z</time></trkpt><trkpt lat="41.1540868" lon="14.2297893"><ele>52.0</ele><time>2026-04-06T05:25:54.06Z</time></trkpt><trkpt lat="41.1541666" lon="14.2298271"><ele>51.99999999999999</ele><time>2026-04-06T05:25:57.003Z</time></trkpt><trkpt lat="41.154253" lon="14.2298741"><ele>52.0</ele><time>2026-04-06T05:26:00.112Z</time></trkpt><trkpt lat="41.1543284" lon="14.2298961"><ele>52.0</ele><time>2026-04-06T05:26:03.123Z</time></trkpt><trkpt lat="41.1544055" lon="14.2299089"><ele>52.0</ele><time>2026-04-06T05:26:08.002Z</time></trkpt><trkpt lat="41.1544783" lon="14.2299389"><ele>52.0</ele><time>2026-04-06T05:26:12.942Z</time></trkpt><trkpt lat="41.1545419" lon="14.2299634"><ele>52.0</ele><time>2026-04-06T05:26:16.898Z</time></trkpt><trkpt lat="41.1546055" lon="14.2300071"><ele>52.0</ele><time>2026-04-06T05:26:23.107Z</time></trkpt><trkpt lat="41.1546755" lon="14.2300047"><ele>52.0</ele><time>2026-04-06T05:26:29.118Z</time></trkpt><trkpt lat="41.1547528" lon="14.2300146"><ele>52.0</ele><time>2026-04-06T05:26:34.103Z</time></trkpt><trkpt lat="41.1548196" lon="14.2300438"><ele>52.14285714285714</ele><time>2026-04-06T05:26:39.082Z</time></trkpt><trkpt lat="41.1548841" lon="14.2300793"><ele>52.28571428571429</ele><time>2026-04-06T05:26:45.157Z</time></trkpt><trkpt lat="41.1549582" lon="14.2301085"><ele>52.42857142857143</ele><time>2026-04-06T05:26:51.106Z</time></trkpt><trkpt lat="41.1550199" lon="14.2301374"><ele>52.57142857142857</ele><time>2026-04-06T05:26:55.104Z</time></trkpt><trkpt lat="41.1550863" lon="14.2301871"><ele>52.71428571428571</ele><time>2026-04-06T05:27:00.101Z</time></trkpt><trkpt lat="41.1551561" lon="14.2302245"><ele>52.85714285714286</ele><time>2026-04-06T05:27:05.067Z</time></trkpt><trkpt lat="41.1552262" lon="14.230185"><ele>53.0</ele><time>2026-04-06T05:27:10.098Z</time></trkpt><trkpt lat="41.1552892" lon="14.2301696"><ele>53.0</ele><time>2026-04-06T05:27:15.087Z</time></trkpt><trkpt lat="41.1553347" lon="14.2302359"><ele>53.0</ele><time>2026-04-06T05:27:20.092Z</time></trkpt><trkpt lat="41.155385" lon="14.2302968"><ele>53.0</ele><time>2026-04-06T05:27:25.069Z</time></trkpt><trkpt lat="41.1554348" lon="14.2303616"><ele>53.0</ele><time>2026-04-06T05:27:29.002Z</time></trkpt><trkpt lat="41.1554898" lon="14.2304201"><ele>53.0</ele><time>2026-04-06T05:27:33.083Z</time></trkpt><trkpt lat="41.1555503" lon="14.230455"><ele>53.0</ele><time>2026-04-06T05:27:39.079Z</time></trkpt><trkpt lat="41.1556221" lon="14.2304881"><ele>53.0</ele><time>2026-04-06T05:27:45.102Z</time></trkpt><trkpt lat="41.1556872" lon="14.230509"><ele>53.16666666666667</ele><time>2026-04-06T05:27:51.099Z</time></trkpt><trkpt lat="41.1557481" lon="14.2305697"><ele>53.333333333333336</ele><time>2026-04-06T05:27:56.084Z</time></trkpt><trkpt lat="41.155803" lon="14.2306172"><ele>53.5</ele><time>2026-04-06T05:28:00.094Z</time></trkpt><trkpt lat="41.155871" lon="14.2306673"><ele>53.66666666666667</ele><time>2026-04-06T05:28:05.085Z</time></trkpt><trkpt lat="41.1559275" lon="14.2307141"><ele>53.833333333333336</ele><time>2026-04-06T05:28:08.045Z</time></trkpt><trkpt lat="41.1560076" lon="14.2307604"><ele>54.0</ele><time>2026-04-06T05:28:11.105Z</time></trkpt><trkpt lat="41.1560932" lon="14.2308018"><ele>54.166666666666664</ele><time>2026-04-06T05:28:14.103Z</time></trkpt><trkpt lat="41.1561726" lon="14.2308336"><ele>54.33333333333333</ele><time>2026-04-06T05:28:17.083Z</time></trkpt><trkpt lat="41.1562326" lon="14.2309147"><ele>54.5</ele><time>2026-04-06T05:28:20.063Z</time></trkpt><trkpt lat="41.1562806" lon="14.2309989"><ele>54.666666666666664</ele><time>2026-04-06T05:28:22.875Z</time></trkpt><trkpt lat="41.1563069" lon="14.2310784"><ele>54.83333333333333</ele><time>2026-04-06T05:28:25.075Z</time></trkpt><trkpt lat="41.1563157" lon="14.2311792"><ele>55.0</ele><time>2026-04-06T05:28:28.079Z</time></trkpt><trkpt lat="41.1563201" lon="14.2312729"><ele>54.99999999999999</ele><time>2026-04-06T05:28:31.118Z</time></trkpt><trkpt lat="41.1563834" lon="14.2313009"><ele>55.0</ele><time>2026-04-06T05:28:37.106Z</time></trkpt><trkpt lat="41.1564564" lon="14.2313186"><ele>55.0</ele><time>2026-04-06T05:29:05.111Z</time></trkpt><trkpt lat="41.1563947" lon="14.2312937"><ele>55.0</ele><time>2026-04-06T05:29:20.081Z</time></trkpt><trkpt lat="41.1564532" lon="14.2313287"><ele>55.0</ele><time>2026-04-06T05:29:26.064Z</time></trkpt><trkpt lat="41.1565217" lon="14.2313122"><ele>54.99999999999999</ele><time>2026-04-06T05:29:44.104Z</time></trkpt><trkpt lat="41.1565689" lon="14.2312481"><ele>55.0</ele><time>2026-04-06T05:29:54.091Z</time></trkpt><trkpt lat="41.1566272" lon="14.2312889"><ele>55.42857142857142</ele><time>2026-04-06T05:30:10.11Z</time></trkpt><trkpt lat="41.1566831" lon="14.231366"><ele>55.85714285714286</ele><time>2026-04-06T05:30:14.121Z</time></trkpt><trkpt lat="41.1567423" lon="14.2313948"><ele>56.28571428571429</ele><time>2026-04-06T05:30:20.085Z</time></trkpt><trkpt lat="41.1567848" lon="14.2313289"><ele>56.714285714285715</ele><time>2026-04-06T05:31:42.107Z</time></trkpt><trkpt lat="41.1568537" lon="14.2313262"><ele>57.142857142857146</ele><time>2026-04-06T05:31:48.125Z</time></trkpt><trkpt lat="41.1569158" lon="14.2312892"><ele>57.57142857142858</ele><time>2026-04-06T05:31:54.006Z</time></trkpt><trkpt lat="41.1569804" lon="14.2312795"><ele>58.00000000000001</ele><time>2026-04-06T05:32:00.054Z</time></trkpt><trkpt lat="41.1570506" lon="14.2312913"><ele>58.00000000000001</ele><time>2026-04-06T05:32:03.08Z</time></trkpt><trkpt lat="41.1571216" lon="14.2313301"><ele>58.0</ele><time>2026-04-06T05:32:06.142Z</time></trkpt><trkpt lat="41.1571843" lon="14.2313951"><ele>58.00000000000001</ele><time>2026-04-06T05:32:09.089Z</time></trkpt><trkpt lat="41.1572469" lon="14.2314385"><ele>58.00000000000001</ele><time>2026-04-06T05:32:12.039Z</time></trkpt><trkpt lat="41.1573195" lon="14.2314719"><ele>58.0</ele><time>2026-04-06T05:32:15.088Z</time></trkpt><trkpt lat="41.157384" lon="14.231511"><ele>58.00000000000001</ele><time>2026-04-06T05:32:18.004Z</time></trkpt><trkpt lat="41.1574471" lon="14.2315521"><ele>58.00000000000001</ele><time>2026-04-06T05:32:21.094Z</time></trkpt><trkpt lat="41.1575083" lon="14.231576"><ele>58.28571428571429</ele><time>2026-04-06T05:32:24.121Z</time></trkpt><trkpt lat="41.1575854" lon="14.2316234"><ele>58.57142857142857</ele><time>2026-04-06T05:32:28.102Z</time></trkpt><trkpt lat="41.1576508" lon="14.2316556"><ele>58.85714285714286</ele><time>2026-04-06T05:32:31.089Z</time></trkpt><trkpt lat="41.1577112" lon="14.2316813"><ele>59.142857142857146</ele><time>2026-04-06T05:32:34.039Z</time></trkpt><trkpt lat="41.1577822" lon="14.231673"><ele>59.42857142857143</ele><time>2026-04-06T05:32:37.076Z</time></trkpt><trkpt lat="41.1578499" lon="14.2316529"><ele>59.714285714285715</ele><time>2026-04-06T05:32:40.123Z</time></trkpt><trkpt lat="41.1579128" lon="14.2316008"><ele>60.0</ele><time>2026-04-06T05:32:44.076Z</time></trkpt><trkpt lat="41.1579934" lon="14.2316005"><ele>60.0</ele><time>2026-04-06T05:32:48.098Z</time></trkpt><trkpt lat="41.1580707" lon="14.2316147"><ele>60.0</ele><time>2026-04-06T05:32:52.105Z</time></trkpt><trkpt lat="41.1581441" lon="14.2316252"><ele>60.0</ele><time>2026-04-06T05:32:56.041Z</time></trkpt><trkpt lat="41.1582202" lon="14.2316103"><ele>60.0</ele><time>2026-04-06T05:32:58.047Z</time></trkpt><trkpt lat="41.1582954" lon="14.2315797"><ele>60.0</ele><time>2026-04-06T05:33:01.047Z</time></trkpt><trkpt lat="41.15836" lon="14.2315871"><ele>60.0</ele><time>2026-04-06T05:33:04.039Z</time></trkpt><trkpt lat="41.1584306" lon="14.2316022"><ele>60.0</ele><time>2026-04-06T05:33:06.057Z</time></trkpt><trkpt lat="41.1585811" lon="14.2316094"><ele>60.5</ele><time>2026-04-06T05:33:08.053Z</time></trkpt><trkpt lat="41.1586534" lon="14.231627"><ele>61.0</ele><time>2026-04-06T05:33:09.053Z</time></trkpt><trkpt lat="41.1587328" lon="14.2316402"><ele>61.5</ele><time>2026-04-06T05:33:12.056Z</time></trkpt><trkpt lat="41.1587966" lon="14.231645"><ele>62.0</ele><time>2026-04-06T05:33:14.061Z</time></trkpt><trkpt lat="41.1588992" lon="14.2316677"><ele>62.5</ele><time>2026-04-06T05:33:18.058Z</time></trkpt><trkpt lat="41.1589655" lon="14.2316545"><ele>63.0</ele><time>2026-04-06T05:33:20.064Z</time></trkpt><trkpt lat="41.1590391" lon="14.2316595"><ele>63.5</ele><time>2026-04-06T05:33:23.074Z</time></trkpt><trkpt lat="41.159121" lon="14.2316688"><ele>64.0</ele><time>2026-04-06T05:33:26.057Z</time></trkpt><trkpt lat="41.1592004" lon="14.2316657"><ele>64.5</ele><time>2026-04-06T05:33:29.065Z</time></trkpt><trkpt lat="41.1592699" lon="14.231681"><ele>65.0</ele><time>2026-04-06T05:33:32.056Z</time></trkpt><trkpt lat="41.1593449" lon="14.2316919"><ele>65.5</ele><time>2026-04-06T05:33:35.046Z</time></trkpt><trkpt lat="41.1594167" lon="14.2317118"><ele>66.0</ele><time>2026-04-06T05:33:38.061Z</time></trkpt><trkpt lat="41.1594877" lon="14.2317222"><ele>66.0</ele><time>2026-04-06T05:33:41.054Z</time></trkpt><trkpt lat="41.1595668" lon="14.2317329"><ele>66.0</ele><time>2026-04-06T05:33:44.059Z</time></trkpt><trkpt lat="41.1596418" lon="14.2317314"><ele>66.0</ele><time>2026-04-06T05:33:47.059Z</time></trkpt><trkpt lat="41.1597215" lon="14.2317383"><ele>66.0</ele><time>2026-04-06T05:33:50.049Z</time></trkpt><trkpt lat="41.1597871" lon="14.2317466"><ele>66.0</ele><time>2026-04-06T05:33:53.056Z</time></trkpt><trkpt lat="41.1598692" lon="14.2317476"><ele>66.0</ele><time>2026-04-06T05:33:56.059Z</time></trkpt><trkpt lat="41.1599435" lon="14.2317578"><ele>66.0</ele><time>2026-04-06T05:33:59.068Z</time></trkpt><trkpt lat="41.1600126" lon="14.2317664"><ele>66.0</ele><time>2026-04-06T05:34:02.05Z</time></trkpt><trkpt lat="41.1600777" lon="14.2317736"><ele>66.0</ele><time>2026-04-06T05:34:05.054Z</time></trkpt><trkpt lat="41.1601424" lon="14.2317834"><ele>66.0</ele><time>2026-04-06T05:34:08.062Z</time></trkpt><trkpt lat="41.1602159" lon="14.2317816"><ele>66.0</ele><time>2026-04-06T05:34:12.078Z</time></trkpt><trkpt lat="41.160304" lon="14.2317756"><ele>66.0</ele><time>2026-04-06T05:34:16.095Z</time></trkpt><trkpt lat="41.1603759" lon="14.2317854"><ele>66.0</ele><time>2026-04-06T05:34:19.075Z</time></trkpt><trkpt lat="41.1604409" lon="14.2317605"><ele>66.0</ele><time>2026-04-06T05:34:25.07Z</time></trkpt><trkpt lat="41.160509" lon="14.2317287"><ele>66.0</ele><time>2026-04-06T05:34:31.073Z</time></trkpt><trkpt lat="41.1605743" lon="14.2317459"><ele>66.0</ele><time>2026-04-06T05:34:36.055Z</time></trkpt><trkpt lat="41.1606372" lon="14.2317826"><ele>66.0</ele><time>2026-04-06T05:34:40.065Z</time></trkpt><trkpt lat="41.1607099" lon="14.2317708"><ele>66.0</ele><time>2026-04-06T05:34:45.066Z</time></trkpt><trkpt lat="41.1607739" lon="14.2318261"><ele>66.0</ele><time>2026-04-06T05:34:55.061Z</time></trkpt><trkpt lat="41.1608535" lon="14.2318387"><ele>66.0</ele><time>2026-04-06T05:35:00.045Z</time></trkpt><trkpt lat="41.1609148" lon="14.2317956"><ele>66.6</ele><time>2026-04-06T05:35:05.064Z</time></trkpt><trkpt lat="41.1611099" lon="14.2317308"><ele>67.19999999999999</ele><time>2026-04-06T05:35:18.061Z</time></trkpt><trkpt lat="41.1611763" lon="14.2317422"><ele>67.80000000000001</ele><time>2026-04-06T05:35:31.035Z</time></trkpt><trkpt lat="41.1612508" lon="14.2317715"><ele>68.4</ele><time>2026-04-06T05:35:34.99Z</time></trkpt><trkpt lat="41.1613114" lon="14.2318421"><ele>69.0</ele><time>2026-04-06T05:35:38.063Z</time></trkpt><trkpt lat="41.1613716" lon="14.2318688"><ele>69.0</ele><time>2026-04-06T05:35:42.077Z</time></trkpt><trkpt lat="41.1614395" lon="14.2318797"><ele>69.0</ele><time>2026-04-06T05:35:47.054Z</time></trkpt><trkpt lat="41.1615018" lon="14.2318378"><ele>69.0</ele><time>2026-04-06T05:35:53.099Z</time></trkpt><trkpt lat="41.1616047" lon="14.2318249"><ele>69.0</ele><time>2026-04-06T05:36:18.074Z</time></trkpt><trkpt lat="41.1616611" lon="14.2318811"><ele>69.0</ele><time>2026-04-06T05:36:25.083Z</time></trkpt><trkpt lat="41.1617318" lon="14.2318925"><ele>69.0</ele><time>2026-04-06T05:36:31.978Z</time></trkpt><trkpt lat="41.1617853" lon="14.2319498"><ele>69.83333333333333</ele><time>2026-04-06T05:36:35.07Z</time></trkpt><trkpt lat="41.1618452" lon="14.2319832"><ele>70.66666666666667</ele><time>2026-04-06T05:36:38.067Z</time></trkpt><trkpt lat="41.1619081" lon="14.2320437"><ele>71.5</ele><time>2026-04-06T05:36:42.072Z</time></trkpt><trkpt lat="41.1619715" lon="14.2321118"><ele>72.33333333333334</ele><time>2026-04-06T05:36:46.076Z</time></trkpt><trkpt lat="41.1620482" lon="14.2321411"><ele>73.16666666666667</ele><time>2026-04-06T05:36:51.065Z</time></trkpt><trkpt lat="41.1621223" lon="14.2321781"><ele>74.0</ele><time>2026-04-06T05:36:55.084Z</time></trkpt><trkpt lat="41.1621929" lon="14.232207"><ele>74.0</ele><time>2026-04-06T05:36:59.084Z</time></trkpt><trkpt lat="41.1622538" lon="14.2322407"><ele>74.0</ele><time>2026-04-06T05:37:02.074Z</time></trkpt><trkpt lat="41.1623131" lon="14.2322879"><ele>74.0</ele><time>2026-04-06T05:37:05.128Z</time></trkpt><trkpt lat="41.1623615" lon="14.2323518"><ele>74.0</ele><time>2026-04-06T05:37:08.088Z</time></trkpt><trkpt lat="41.1624135" lon="14.2324089"><ele>74.0</ele><time>2026-04-06T05:37:11.077Z</time></trkpt><trkpt lat="41.1624657" lon="14.2324686"><ele>74.0</ele><time>2026-04-06T05:37:14.055Z</time></trkpt><trkpt lat="41.1625285" lon="14.2325116"><ele>74.0</ele><time>2026-04-06T05:37:17.078Z</time></trkpt><trkpt lat="41.1625943" lon="14.2325329"><ele>74.57142857142857</ele><time>2026-04-06T05:37:20.091Z</time></trkpt><trkpt lat="41.1626634" lon="14.232555"><ele>75.14285714285714</ele><time>2026-04-06T05:37:24.075Z</time></trkpt><trkpt lat="41.1627231" lon="14.2325954"><ele>75.71428571428572</ele><time>2026-04-06T05:37:29.083Z</time></trkpt><trkpt lat="41.1627503" lon="14.2326714"><ele>76.28571428571428</ele><time>2026-04-06T05:37:37.99Z</time></trkpt><trkpt lat="41.1628161" lon="14.2327202"><ele>76.85714285714285</ele><time>2026-04-06T05:37:42.036Z</time></trkpt><trkpt lat="41.1628801" lon="14.2327823"><ele>77.42857142857143</ele><time>2026-04-06T05:37:47.068Z</time></trkpt><trkpt lat="41.162938" lon="14.2328259"><ele>78.0</ele><time>2026-04-06T05:37:51.129Z</time></trkpt><trkpt lat="41.1630071" lon="14.2328472"><ele>78.0</ele><time>2026-04-06T05:37:55.091Z</time></trkpt><trkpt lat="41.1630942" lon="14.232845"><ele>78.0</ele><time>2026-04-06T05:37:59.094Z</time></trkpt><trkpt lat="41.1631733" lon="14.2328385"><ele>78.0</ele><time>2026-04-06T05:38:03.092Z</time></trkpt><trkpt lat="41.1632405" lon="14.2328726"><ele>78.0</ele><time>2026-04-06T05:38:08.091Z</time></trkpt><trkpt lat="41.1632659" lon="14.2329532"><ele>78.0</ele><time>2026-04-06T05:38:14.091Z</time></trkpt><trkpt lat="41.1632668" lon="14.2330381"><ele>78.0</ele><time>2026-04-06T05:38:22.094Z</time></trkpt><trkpt lat="41.1632759" lon="14.233125"><ele>78.0</ele><time>2026-04-06T05:38:27.059Z</time></trkpt><trkpt lat="41.1632582" lon="14.2332113"><ele>78.14285714285715</ele><time>2026-04-06T05:38:32.035Z</time></trkpt><trkpt lat="41.1632217" lon="14.2333005"><ele>78.28571428571428</ele><time>2026-04-06T05:38:36.01Z</time></trkpt><trkpt lat="41.1631936" lon="14.233395"><ele>78.42857142857143</ele><time>2026-04-06T05:38:40.073Z</time></trkpt><trkpt lat="41.1632194" lon="14.2334722"><ele>78.57142857142858</ele><time>2026-04-06T05:38:42.912Z</time></trkpt><trkpt lat="41.1632784" lon="14.2335078"><ele>78.71428571428572</ele><time>2026-04-06T05:38:47.088Z</time></trkpt><trkpt lat="41.1633534" lon="14.2335156"><ele>78.85714285714286</ele><time>2026-04-06T05:38:52.989Z</time></trkpt><trkpt lat="41.1634244" lon="14.2335556"><ele>79.0</ele><time>2026-04-06T05:38:57.086Z</time></trkpt><trkpt lat="41.1634867" lon="14.2335793"><ele>79.4</ele><time>2026-04-06T05:39:00.017Z</time></trkpt><trkpt lat="41.1635491" lon="14.2336045"><ele>79.80000000000001</ele><time>2026-04-06T05:39:03.088Z</time></trkpt><trkpt lat="41.1634247" lon="14.2337152"><ele>80.19999999999999</ele><time>2026-04-06T05:39:04.091Z</time></trkpt><trkpt lat="41.1633386" lon="14.2337786"><ele>80.6</ele><time>2026-04-06T05:39:05.073Z</time></trkpt><trkpt lat="41.1634125" lon="14.2337806"><ele>81.0</ele><time>2026-04-06T05:39:09.117Z</time></trkpt><trkpt lat="41.163484" lon="14.2337578"><ele>81.0</ele><time>2026-04-06T05:39:13.08Z</time></trkpt><trkpt lat="41.1635629" lon="14.2337274"><ele>81.0</ele><time>2026-04-06T05:39:17.087Z</time></trkpt><trkpt lat="41.1636347" lon="14.2336901"><ele>81.0</ele><time>2026-04-06T05:39:20.168Z</time></trkpt><trkpt lat="41.1637064" lon="14.2336629"><ele>81.0</ele><time>2026-04-06T05:39:23.35Z</time></trkpt><trkpt lat="41.1637881" lon="14.2336199"><ele>81.0</ele><time>2026-04-06T05:39:26.627Z</time></trkpt><trkpt lat="41.1638742" lon="14.2335746"><ele>81.0</ele><time>2026-04-06T05:39:29.868Z</time></trkpt><trkpt lat="41.1639311" lon="14.2335308"><ele>81.0</ele><time>2026-04-06T05:39:32.033Z</time></trkpt><trkpt lat="41.1640096" lon="14.2334796"><ele>81.0</ele><time>2026-04-06T05:39:35.117Z</time></trkpt><trkpt lat="41.1640858" lon="14.2334454"><ele>81.0</ele><time>2026-04-06T05:39:38.135Z</time></trkpt><trkpt lat="41.1641563" lon="14.2334174"><ele>81.0</ele><time>2026-04-06T05:39:41.05Z</time></trkpt><trkpt lat="41.1642348" lon="14.2333965"><ele>81.0</ele><time>2026-04-06T05:39:44.101Z</time></trkpt><trkpt lat="41.1643022" lon="14.2333721"><ele>81.0</ele><time>2026-04-06T05:39:47.085Z</time></trkpt><trkpt lat="41.1643753" lon="14.2333495"><ele>80.85714285714286</ele><time>2026-04-06T05:39:50.127Z</time></trkpt><trkpt lat="41.164444" lon="14.2333217"><ele>80.71428571428571</ele><time>2026-04-06T05:39:53.036Z</time></trkpt><trkpt lat="41.1645201" lon="14.2333062"><ele>80.57142857142857</ele><time>2026-04-06T05:39:56.077Z</time></trkpt><trkpt lat="41.1645968" lon="14.2332799"><ele>80.42857142857143</ele><time>2026-04-06T05:39:59.135Z</time></trkpt><trkpt lat="41.1646627" lon="14.2332579"><ele>80.28571428571429</ele><time>2026-04-06T05:40:02.019Z</time></trkpt><trkpt lat="41.1647314" lon="14.2332463"><ele>80.14285714285714</ele><time>2026-04-06T05:40:05.096Z</time></trkpt><trkpt lat="41.1648015" lon="14.2332253"><ele>80.0</ele><time>2026-04-06T05:40:08.084Z</time></trkpt><trkpt lat="41.1648717" lon="14.2332021"><ele>81.0</ele><time>2026-04-06T05:40:10.979Z</time></trkpt><trkpt lat="41.1649441" lon="14.2331699"><ele>82.0</ele><time>2026-04-06T05:40:14.104Z</time></trkpt><trkpt lat="41.165006" lon="14.2331397"><ele>83.0</ele><time>2026-04-06T05:40:17.059Z</time></trkpt><trkpt lat="41.1650674" lon="14.2331126"><ele>84.0</ele><time>2026-04-06T05:40:20.097Z</time></trkpt><trkpt lat="41.1651287" lon="14.2330924"><ele>85.0</ele><time>2026-04-06T05:40:23.075Z</time></trkpt><trkpt lat="41.1652118" lon="14.2330586"><ele>86.0</ele><time>2026-04-06T05:40:27.062Z</time></trkpt><trkpt lat="41.1652728" lon="14.2330337"><ele>87.0</ele><time>2026-04-06T05:40:30.071Z</time></trkpt><trkpt lat="41.1653276" lon="14.2329916"><ele>87.0</ele><time>2026-04-06T05:40:33.068Z</time></trkpt><trkpt lat="41.1653879" lon="14.2329602"><ele>87.0</ele><time>2026-04-06T05:40:36.096Z</time></trkpt><trkpt lat="41.1654593" lon="14.2329179"><ele>87.0</ele><time>2026-04-06T05:40:40.064Z</time></trkpt><trkpt lat="41.1654948" lon="14.2328339"><ele>87.0</ele><time>2026-04-06T05:40:44.133Z</time></trkpt><trkpt lat="41.1655404" lon="14.2327567"><ele>87.0</ele><time>2026-04-06T05:40:48.113Z</time></trkpt><trkpt lat="41.1655943" lon="14.2327084"><ele>87.0</ele><time>2026-04-06T05:40:51Z</time></trkpt><trkpt lat="41.1656606" lon="14.2326679"><ele>87.0</ele><time>2026-04-06T05:40:54.101Z</time></trkpt><trkpt lat="41.1657173" lon="14.2326171"><ele>88.28571428571428</ele><time>2026-04-06T05:40:57.096Z</time></trkpt><trkpt lat="41.165767" lon="14.2325631"><ele>89.57142857142857</ele><time>2026-04-06T05:41:00.076Z</time></trkpt><trkpt lat="41.1658094" lon="14.2324984"><ele>90.85714285714286</ele><time>2026-04-06T05:41:03.095Z</time></trkpt><trkpt lat="41.1658543" lon="14.2324278"><ele>92.14285714285714</ele><time>2026-04-06T05:41:06.113Z</time></trkpt><trkpt lat="41.1659078" lon="14.2323372"><ele>93.42857142857143</ele><time>2026-04-06T05:41:10.085Z</time></trkpt><trkpt lat="41.1659558" lon="14.2322663"><ele>94.71428571428571</ele><time>2026-04-06T05:41:13.092Z</time></trkpt><trkpt lat="41.16603" lon="14.2322408"><ele>96.0</ele><time>2026-04-06T05:41:17.08Z</time></trkpt><trkpt lat="41.1661112" lon="14.2322258"><ele>95.99999999999999</ele><time>2026-04-06T05:41:21.09Z</time></trkpt><trkpt lat="41.1661757" lon="14.2322103"><ele>96.0</ele><time>2026-04-06T05:41:24.072Z</time></trkpt><trkpt lat="41.1662393" lon="14.2322118"><ele>96.0</ele><time>2026-04-06T05:41:27.016Z</time></trkpt><trkpt lat="41.166321" lon="14.2322336"><ele>96.0</ele><time>2026-04-06T05:41:31.034Z</time></trkpt><trkpt lat="41.1664017" lon="14.2322684"><ele>96.0</ele><time>2026-04-06T05:41:35.03Z</time></trkpt><trkpt lat="41.1664627" lon="14.2323002"><ele>95.99999999999999</ele><time>2026-04-06T05:41:38.114Z</time></trkpt><trkpt lat="41.1665238" lon="14.2323217"><ele>96.0</ele><time>2026-04-06T05:41:41.072Z</time></trkpt><trkpt lat="41.1665866" lon="14.2323373"><ele>98.0</ele><time>2026-04-06T05:41:44.033Z</time></trkpt><trkpt lat="41.1666507" lon="14.2323609"><ele>100.0</ele><time>2026-04-06T05:41:47.105Z</time></trkpt><trkpt lat="41.1667302" lon="14.2323867"><ele>102.0</ele><time>2026-04-06T05:41:51.094Z</time></trkpt><trkpt lat="41.1668022" lon="14.2324109"><ele>104.0</ele><time>2026-04-06T05:41:55.098Z</time></trkpt><trkpt lat="41.1668825" lon="14.2324425"><ele>106.0</ele><time>2026-04-06T05:41:59.059Z</time></trkpt><trkpt lat="41.1669574" lon="14.2324879"><ele>108.0</ele><time>2026-04-06T05:42:03.092Z</time></trkpt><trkpt lat="41.1670275" lon="14.2325149"><ele>108.0</ele><time>2026-04-06T05:42:07.086Z</time></trkpt><trkpt lat="41.1670951" lon="14.2325376"><ele>108.0</ele><time>2026-04-06T05:42:11.09Z</time></trkpt><trkpt lat="41.1671725" lon="14.2325738"><ele>108.0</ele><time>2026-04-06T05:42:15.08Z</time></trkpt><trkpt lat="41.1672479" lon="14.2325861"><ele>108.0</ele><time>2026-04-06T05:42:19.09Z</time></trkpt><trkpt lat="41.1673149" lon="14.2326099"><ele>108.0</ele><time>2026-04-06T05:42:23.032Z</time></trkpt><trkpt lat="41.1673773" lon="14.2326279"><ele>108.0</ele><time>2026-04-06T05:42:27.016Z</time></trkpt><trkpt lat="41.1674561" lon="14.2326414"><ele>108.0</ele><time>2026-04-06T05:42:31.098Z</time></trkpt><trkpt lat="41.167531" lon="14.2326136"><ele>110.42857142857143</ele><time>2026-04-06T05:42:35.093Z</time></trkpt><trkpt lat="41.1675942" lon="14.232609"><ele>112.85714285714286</ele><time>2026-04-06T05:42:38.098Z</time></trkpt><trkpt lat="41.1676645" lon="14.2326122"><ele>115.28571428571428</ele><time>2026-04-06T05:42:42.014Z</time></trkpt><trkpt lat="41.1677297" lon="14.2326408"><ele>117.71428571428572</ele><time>2026-04-06T05:42:46.08Z</time></trkpt><trkpt lat="41.1677906" lon="14.232666"><ele>120.14285714285715</ele><time>2026-04-06T05:42:50.083Z</time></trkpt><trkpt lat="41.1678584" lon="14.2326611"><ele>122.57142857142857</ele><time>2026-04-06T05:42:54.093Z</time></trkpt><trkpt lat="41.1679309" lon="14.2326754"><ele>125.0</ele><time>2026-04-06T05:42:58.056Z</time></trkpt><trkpt lat="41.1679987" lon="14.2326931"><ele>124.99999999999999</ele><time>2026-04-06T05:43:02.101Z</time></trkpt><trkpt lat="41.1680709" lon="14.2327337"><ele>125.0</ele><time>2026-04-06T05:43:06.107Z</time></trkpt><trkpt lat="41.1681428" lon="14.2327721"><ele>125.0</ele><time>2026-04-06T05:43:10.133Z</time></trkpt><trkpt lat="41.1682085" lon="14.2328026"><ele>125.0</ele><time>2026-04-06T05:43:14.075Z</time></trkpt><trkpt lat="41.1682782" lon="14.2328628"><ele>124.99999999999999</ele><time>2026-04-06T05:43:18.109Z</time></trkpt><trkpt lat="41.1683544" lon="14.232904"><ele>125.0</ele><time>2026-04-06T05:43:22.079Z</time></trkpt><trkpt lat="41.1684143" lon="14.2329379"><ele>125.99999999999999</ele><time>2026-04-06T05:43:24.991Z</time></trkpt><trkpt lat="41.1684735" lon="14.232973"><ele>127.0</ele><time>2026-04-06T05:43:28.099Z</time></trkpt><trkpt lat="41.1685419" lon="14.2330233"><ele>128.0</ele><time>2026-04-06T05:43:31.972Z</time></trkpt><trkpt lat="41.1686098" lon="14.2330797"><ele>129.0</ele><time>2026-04-06T05:43:36.051Z</time></trkpt><trkpt lat="41.1686751" lon="14.2331333"><ele>130.0</ele><time>2026-04-06T05:43:39.972Z</time></trkpt><trkpt lat="41.1687184" lon="14.2332212"><ele>131.0</ele><time>2026-04-06T05:43:44.08Z</time></trkpt><trkpt lat="41.1687684" lon="14.2332957"><ele>131.0</ele><time>2026-04-06T05:43:48.091Z</time></trkpt><trkpt lat="41.168827" lon="14.2333559"><ele>131.0</ele><time>2026-04-06T05:43:52.075Z</time></trkpt><trkpt lat="41.1688991" lon="14.2334013"><ele>131.0</ele><time>2026-04-06T05:43:56.087Z</time></trkpt><trkpt lat="41.1689673" lon="14.2334508"><ele>131.0</ele><time>2026-04-06T05:44:00.092Z</time></trkpt><trkpt lat="41.1690332" lon="14.2334986"><ele>131.0</ele><time>2026-04-06T05:44:04.072Z</time></trkpt><trkpt lat="41.1690984" lon="14.233546"><ele>131.0</ele><time>2026-04-06T05:44:07.99Z</time></trkpt><trkpt lat="41.1691757" lon="14.2335779"><ele>133.14285714285714</ele><time>2026-04-06T05:44:12.074Z</time></trkpt><trkpt lat="41.1692578" lon="14.2336021"><ele>135.2857142857143</ele><time>2026-04-06T05:44:16.087Z</time></trkpt><trkpt lat="41.1693216" lon="14.2336197"><ele>137.42857142857144</ele><time>2026-04-06T05:44:19.103Z</time></trkpt><trkpt lat="41.1693682" lon="14.2336798"><ele>139.57142857142858</ele><time>2026-04-06T05:44:23.048Z</time></trkpt><trkpt lat="41.1694403" lon="14.2336597"><ele>141.71428571428572</ele><time>2026-04-06T05:44:27.073Z</time></trkpt><trkpt lat="41.1695051" lon="14.2336212"><ele>143.85714285714286</ele><time>2026-04-06T05:44:31.084Z</time></trkpt><trkpt lat="41.1695729" lon="14.2336599"><ele>146.0</ele><time>2026-04-06T05:44:34.116Z</time></trkpt><trkpt lat="41.1696466" lon="14.2336869"><ele>146.0</ele><time>2026-04-06T05:44:38.037Z</time></trkpt><trkpt lat="41.169717" lon="14.233713"><ele>146.0</ele><time>2026-04-06T05:44:42.012Z</time></trkpt><trkpt lat="41.1697925" lon="14.2337165"><ele>146.0</ele><time>2026-04-06T05:44:46.076Z</time></trkpt><trkpt lat="41.1698556" lon="14.2337179"><ele>146.0</ele><time>2026-04-06T05:44:49.127Z</time></trkpt><trkpt lat="41.1699336" lon="14.2337241"><ele>146.0</ele><time>2026-04-06T05:44:53.093Z</time></trkpt><trkpt lat="41.1700075" lon="14.2337276"><ele>146.0</ele><time>2026-04-06T05:44:57.115Z</time></trkpt><trkpt lat="41.1700787" lon="14.2337048"><ele>146.0</ele><time>2026-04-06T05:45:01.012Z</time></trkpt><trkpt lat="41.1701563" lon="14.2337169"><ele>147.14285714285714</ele><time>2026-04-06T05:45:05.104Z</time></trkpt><trkpt lat="41.1702309" lon="14.23373"><ele>148.28571428571428</ele><time>2026-04-06T05:45:10.055Z</time></trkpt><trkpt lat="41.170296" lon="14.2337618"><ele>149.42857142857144</ele><time>2026-04-06T05:45:14.063Z</time></trkpt><trkpt lat="41.1703509" lon="14.2338102"><ele>150.57142857142856</ele><time>2026-04-06T05:45:18.131Z</time></trkpt><trkpt lat="41.1704019" lon="14.233866"><ele>151.71428571428572</ele><time>2026-04-06T05:45:22.087Z</time></trkpt><trkpt lat="41.1704642" lon="14.2339023"><ele>152.85714285714286</ele><time>2026-04-06T05:45:26.075Z</time></trkpt><trkpt lat="41.1705325" lon="14.233949"><ele>154.0</ele><time>2026-04-06T05:45:30.052Z</time></trkpt><trkpt lat="41.1705967" lon="14.2340066"><ele>154.0</ele><time>2026-04-06T05:45:34.055Z</time></trkpt><trkpt lat="41.1706686" lon="14.2340564"><ele>154.0</ele><time>2026-04-06T05:45:38.091Z</time></trkpt><trkpt lat="41.1707264" lon="14.2340914"><ele>154.0</ele><time>2026-04-06T05:45:41.09Z</time></trkpt><trkpt lat="41.1707891" lon="14.2341357"><ele>154.0</ele><time>2026-04-06T05:45:44.084Z</time></trkpt><trkpt lat="41.1708385" lon="14.2341945"><ele>154.0</ele><time>2026-04-06T05:45:46.717Z</time></trkpt><trkpt lat="41.1708929" lon="14.2342801"><ele>154.0</ele><time>2026-04-06T05:45:50.082Z</time></trkpt><trkpt lat="41.1709311" lon="14.2343685"><ele>154.0</ele><time>2026-04-06T05:45:53.097Z</time></trkpt><trkpt lat="41.1709712" lon="14.2344493"><ele>154.14285714285714</ele><time>2026-04-06T05:45:56.078Z</time></trkpt><trkpt lat="41.1710076" lon="14.2345299"><ele>154.28571428571428</ele><time>2026-04-06T05:45:59.101Z</time></trkpt><trkpt lat="41.171043" lon="14.2346099"><ele>154.42857142857144</ele><time>2026-04-06T05:46:02.054Z</time></trkpt><trkpt lat="41.1710709" lon="14.2346913"><ele>154.57142857142856</ele><time>2026-04-06T05:46:05.092Z</time></trkpt><trkpt lat="41.1710918" lon="14.234777"><ele>154.71428571428572</ele><time>2026-04-06T05:46:08.151Z</time></trkpt><trkpt lat="41.1711315" lon="14.2348644"><ele>154.85714285714286</ele><time>2026-04-06T05:46:12.087Z</time></trkpt><trkpt lat="41.1711605" lon="14.2349403"><ele>155.0</ele><time>2026-04-06T05:46:15.051Z</time></trkpt><trkpt lat="41.1711952" lon="14.2350309"><ele>154.66666666666666</ele><time>2026-04-06T05:46:19.069Z</time></trkpt><trkpt lat="41.1712384" lon="14.235115"><ele>154.33333333333331</ele><time>2026-04-06T05:46:22.994Z</time></trkpt><trkpt lat="41.1712949" lon="14.2351969"><ele>154.0</ele><time>2026-04-06T05:46:27.086Z</time></trkpt><trkpt lat="41.1713458" lon="14.2352715"><ele>153.66666666666666</ele><time>2026-04-06T05:46:31.115Z</time></trkpt><trkpt lat="41.1714138" lon="14.2353248"><ele>153.33333333333334</ele><time>2026-04-06T05:46:35.1Z</time></trkpt><trkpt lat="41.1714733" lon="14.2353851"><ele>153.0</ele><time>2026-04-06T05:46:39.1Z</time></trkpt><trkpt lat="41.1715362" lon="14.2354324"><ele>154.57142857142856</ele><time>2026-04-06T05:46:43.097Z</time></trkpt><trkpt lat="41.1715949" lon="14.2354628"><ele>156.14285714285714</ele><time>2026-04-06T05:46:46.137Z</time></trkpt><trkpt lat="41.1716649" lon="14.2355045"><ele>157.71428571428572</ele><time>2026-04-06T05:46:50.045Z</time></trkpt><trkpt lat="41.171724" lon="14.2355626"><ele>159.28571428571428</ele><time>2026-04-06T05:46:53.991Z</time></trkpt><trkpt lat="41.1717914" lon="14.2355936"><ele>160.85714285714286</ele><time>2026-04-06T05:46:58.084Z</time></trkpt><trkpt lat="41.1718574" lon="14.2356243"><ele>162.42857142857142</ele><time>2026-04-06T05:47:02.1Z</time></trkpt><trkpt lat="41.1719271" lon="14.2356314"><ele>164.0</ele><time>2026-04-06T05:47:06.092Z</time></trkpt><trkpt lat="41.1719992" lon="14.2356408"><ele>163.99999999999997</ele><time>2026-04-06T05:47:10.115Z</time></trkpt><trkpt lat="41.172065" lon="14.235663"><ele>164.0</ele><time>2026-04-06T05:47:14.099Z</time></trkpt><trkpt lat="41.1721467" lon="14.2356852"><ele>164.0</ele><time>2026-04-06T05:47:18.079Z</time></trkpt><trkpt lat="41.1722094" lon="14.2357037"><ele>164.0</ele><time>2026-04-06T05:47:22.058Z</time></trkpt><trkpt lat="41.1722721" lon="14.2357254"><ele>164.0</ele><time>2026-04-06T05:47:25.12Z</time></trkpt><trkpt lat="41.1723433" lon="14.2357535"><ele>163.99999999999997</ele><time>2026-04-06T05:47:29.131Z</time></trkpt><trkpt lat="41.1724119" lon="14.2357623"><ele>164.0</ele><time>2026-04-06T05:47:33.143Z</time></trkpt><trkpt lat="41.1724812" lon="14.2357668"><ele>165.28571428571428</ele><time>2026-04-06T05:47:37.094Z</time></trkpt><trkpt lat="41.1725556" lon="14.2357681"><ele>166.57142857142856</ele><time>2026-04-06T05:47:41.137Z</time></trkpt><trkpt lat="41.1726284" lon="14.2357808"><ele>167.85714285714283</ele><time>2026-04-06T05:47:45.098Z</time></trkpt><trkpt lat="41.1726924" lon="14.2358092"><ele>169.14285714285714</ele><time>2026-04-06T05:47:49.101Z</time></trkpt><trkpt lat="41.1727577" lon="14.2358436"><ele>170.42857142857144</ele><time>2026-04-06T05:47:53.076Z</time></trkpt><trkpt lat="41.1728254" lon="14.2358815"><ele>171.7142857142857</ele><time>2026-04-06T05:47:57.061Z</time></trkpt><trkpt lat="41.1728914" lon="14.2359226"><ele>173.0</ele><time>2026-04-06T05:48:01.036Z</time></trkpt><trkpt lat="41.1729673" lon="14.235965"><ele>173.0</ele><time>2026-04-06T05:48:05.029Z</time></trkpt><trkpt lat="41.1730435" lon="14.2359945"><ele>173.0</ele><time>2026-04-06T05:48:09.035Z</time></trkpt><trkpt lat="41.173111" lon="14.2360097"><ele>173.0</ele><time>2026-04-06T05:48:13.098Z</time></trkpt><trkpt lat="41.1731772" lon="14.2360038"><ele>173.0</ele><time>2026-04-06T05:48:17.089Z</time></trkpt><trkpt lat="41.1732459" lon="14.2360112"><ele>173.0</ele><time>2026-04-06T05:48:22.093Z</time></trkpt><trkpt lat="41.1733079" lon="14.235976"><ele>173.0</ele><time>2026-04-06T05:48:26.15Z</time></trkpt><trkpt lat="41.1733717" lon="14.2359457"><ele>173.0</ele><time>2026-04-06T05:48:30.084Z</time></trkpt><trkpt lat="41.1734428" lon="14.2359061"><ele>173.57142857142856</ele><time>2026-04-06T05:48:34.103Z</time></trkpt><trkpt lat="41.1734945" lon="14.2358548"><ele>174.14285714285717</ele><time>2026-04-06T05:48:38.063Z</time></trkpt><trkpt lat="41.1735652" lon="14.2358041"><ele>174.71428571428572</ele><time>2026-04-06T05:48:43.1Z</time></trkpt><trkpt lat="41.1736186" lon="14.2357451"><ele>175.28571428571428</ele><time>2026-04-06T05:48:47.096Z</time></trkpt><trkpt lat="41.173631" lon="14.2356446"><ele>175.85714285714283</ele><time>2026-04-06T05:48:51.114Z</time></trkpt><trkpt lat="41.1736324" lon="14.2355413"><ele>176.42857142857144</ele><time>2026-04-06T05:48:55.081Z</time></trkpt><trkpt lat="41.1736353" lon="14.2354345"><ele>177.0</ele><time>2026-04-06T05:48:59.09Z</time></trkpt><trkpt lat="41.1736513" lon="14.2353514"><ele>177.0</ele><time>2026-04-06T05:49:02.072Z</time></trkpt><trkpt lat="41.1736834" lon="14.2352623"><ele>177.0</ele><time>2026-04-06T05:49:05.247Z</time></trkpt><trkpt lat="41.1737189" lon="14.2351577"><ele>177.0</ele><time>2026-04-06T05:49:08.754Z</time></trkpt><trkpt lat="41.1737403" lon="14.2350724"><ele>177.0</ele><time>2026-04-06T05:49:11.851Z</time></trkpt><trkpt lat="41.1737549" lon="14.2349757"><ele>177.0</ele><time>2026-04-06T05:49:15.026Z</time></trkpt><trkpt lat="41.1737648" lon="14.2348919"><ele>177.0</ele><time>2026-04-06T05:49:18.061Z</time></trkpt><trkpt lat="41.1737652" lon="14.2347934"><ele>177.0</ele><time>2026-04-06T05:49:20.991Z</time></trkpt><trkpt lat="41.1737662" lon="14.2346792"><ele>176.66666666666666</ele><time>2026-04-06T05:49:24.09Z</time></trkpt><trkpt lat="41.173774" lon="14.2345772"><ele>176.33333333333334</ele><time>2026-04-06T05:49:26.992Z</time></trkpt><trkpt lat="41.1737917" lon="14.2344619"><ele>176.0</ele><time>2026-04-06T05:49:30.077Z</time></trkpt><trkpt lat="41.1738166" lon="14.2343591"><ele>175.66666666666669</ele><time>2026-04-06T05:49:33.076Z</time></trkpt><trkpt lat="41.1738614" lon="14.2342731"><ele>175.33333333333334</ele><time>2026-04-06T05:49:36.06Z</time></trkpt><trkpt lat="41.1738924" lon="14.2341654"><ele>175.0</ele><time>2026-04-06T05:49:39.068Z</time></trkpt><trkpt lat="41.1739224" lon="14.2340768"><ele>175.0</ele><time>2026-04-06T05:49:42.047Z</time></trkpt><trkpt lat="41.1739568" lon="14.2339964"><ele>175.0</ele><time>2026-04-06T05:49:45.052Z</time></trkpt><trkpt lat="41.1739957" lon="14.2339211"><ele>175.0</ele><time>2026-04-06T05:49:48.079Z</time></trkpt><trkpt lat="41.1740442" lon="14.2338481"><ele>175.0</ele><time>2026-04-06T05:49:51.094Z</time></trkpt><trkpt lat="41.1740871" lon="14.2337666"><ele>175.0</ele><time>2026-04-06T05:49:54.076Z</time></trkpt><trkpt lat="41.1741269" lon="14.233678"><ele>175.0</ele><time>2026-04-06T05:49:57.061Z</time></trkpt><trkpt lat="41.1741623" lon="14.2335797"><ele>175.0</ele><time>2026-04-06T05:50:00.016Z</time></trkpt><trkpt lat="41.1741966" lon="14.2334819"><ele>175.0</ele><time>2026-04-06T05:50:03.109Z</time></trkpt><trkpt lat="41.1742398" lon="14.2333852"><ele>175.0</ele><time>2026-04-06T05:50:06.07Z</time></trkpt><trkpt lat="41.1742822" lon="14.233286"><ele>175.0</ele><time>2026-04-06T05:50:09.172Z</time></trkpt><trkpt lat="41.1743104" lon="14.233211"><ele>175.0</ele><time>2026-04-06T05:50:11.294Z</time></trkpt><trkpt lat="41.1743541" lon="14.2331087"><ele>175.0</ele><time>2026-04-06T05:50:14.469Z</time></trkpt><trkpt lat="41.174384" lon="14.2330313"><ele>175.0</ele><time>2026-04-06T05:50:16.606Z</time></trkpt><trkpt lat="41.1744265" lon="14.2329215"><ele>175.0</ele><time>2026-04-06T05:50:19.792Z</time></trkpt><trkpt lat="41.1744579" lon="14.232844"><ele>175.0</ele><time>2026-04-06T05:50:21.87Z</time></trkpt><trkpt lat="41.1744971" lon="14.2327376"><ele>175.0</ele><time>2026-04-06T05:50:25.064Z</time></trkpt><trkpt lat="41.174536" lon="14.2326347"><ele>175.0</ele><time>2026-04-06T05:50:28.076Z</time></trkpt><trkpt lat="41.174566" lon="14.232554"><ele>175.0</ele><time>2026-04-06T05:50:31.014Z</time></trkpt><trkpt lat="41.174599" lon="14.2324595"><ele>175.0</ele><time>2026-04-06T05:50:34.085Z</time></trkpt><trkpt lat="41.1746361" lon="14.2323794"><ele>174.28571428571428</ele><time>2026-04-06T05:50:37.072Z</time></trkpt><trkpt lat="41.1746775" lon="14.2323059"><ele>173.57142857142856</ele><time>2026-04-06T05:50:39.892Z</time></trkpt><trkpt lat="41.174725" lon="14.2322246"><ele>172.85714285714286</ele><time>2026-04-06T05:50:43.115Z</time></trkpt><trkpt lat="41.1747657" lon="14.2321549"><ele>172.14285714285714</ele><time>2026-04-06T05:50:46.079Z</time></trkpt><trkpt lat="41.174817" lon="14.2320799"><ele>171.42857142857142</ele><time>2026-04-06T05:50:49.064Z</time></trkpt><trkpt lat="41.1748662" lon="14.2320128"><ele>170.71428571428572</ele><time>2026-04-06T05:50:52.09Z</time></trkpt><trkpt lat="41.1749272" lon="14.2319544"><ele>170.0</ele><time>2026-04-06T05:50:55.094Z</time></trkpt><trkpt lat="41.1749892" lon="14.2318956"><ele>170.0</ele><time>2026-04-06T05:50:58.08Z</time></trkpt><trkpt lat="41.1750463" lon="14.2318538"><ele>170.0</ele><time>2026-04-06T05:51:01.09Z</time></trkpt><trkpt lat="41.17512" lon="14.2317973"><ele>170.0</ele><time>2026-04-06T05:51:05.072Z</time></trkpt><trkpt lat="41.1751796" lon="14.2317553"><ele>170.0</ele><time>2026-04-06T05:51:08.073Z</time></trkpt><trkpt lat="41.1752319" lon="14.2316972"><ele>170.0</ele><time>2026-04-06T05:51:11.08Z</time></trkpt><trkpt lat="41.1752842" lon="14.2316309"><ele>170.0</ele><time>2026-04-06T05:51:14.104Z</time></trkpt><trkpt lat="41.175337" lon="14.231573"><ele>170.0</ele><time>2026-04-06T05:51:17.034Z</time></trkpt><trkpt lat="41.1753843" lon="14.2315126"><ele>169.66666666666666</ele><time>2026-04-06T05:51:20.097Z</time></trkpt><trkpt lat="41.1754378" lon="14.2314219"><ele>169.33333333333331</ele><time>2026-04-06T05:51:24.087Z</time></trkpt><trkpt lat="41.1754803" lon="14.2313472"><ele>169.0</ele><time>2026-04-06T05:51:27.101Z</time></trkpt><trkpt lat="41.1755257" lon="14.2312724"><ele>168.66666666666666</ele><time>2026-04-06T05:51:30.109Z</time></trkpt><trkpt lat="41.1755805" lon="14.2312002"><ele>168.33333333333334</ele><time>2026-04-06T05:51:33.135Z</time></trkpt><trkpt lat="41.1756316" lon="14.2311297"><ele>168.0</ele><time>2026-04-06T05:51:36.061Z</time></trkpt><trkpt lat="41.1756875" lon="14.2310546"><ele>168.0</ele><time>2026-04-06T05:51:39.077Z</time></trkpt><trkpt lat="41.1757459" lon="14.2309865"><ele>168.0</ele><time>2026-04-06T05:51:42.114Z</time></trkpt><trkpt lat="41.1757994" lon="14.2309227"><ele>168.0</ele><time>2026-04-06T05:51:45.092Z</time></trkpt><trkpt lat="41.1758599" lon="14.2308544"><ele>168.0</ele><time>2026-04-06T05:51:48.099Z</time></trkpt><trkpt lat="41.1759132" lon="14.2307976"><ele>168.0</ele><time>2026-04-06T05:51:51.109Z</time></trkpt><trkpt lat="41.1759737" lon="14.2307402"><ele>168.0</ele><time>2026-04-06T05:51:54.107Z</time></trkpt><trkpt lat="41.1760334" lon="14.2306751"><ele>168.0</ele><time>2026-04-06T05:51:57.103Z</time></trkpt><trkpt lat="41.1760878" lon="14.2306022"><ele>170.0</ele><time>2026-04-06T05:52:00.071Z</time></trkpt><trkpt lat="41.1761417" lon="14.2305475"><ele>172.0</ele><time>2026-04-06T05:52:03.014Z</time></trkpt><trkpt lat="41.1762195" lon="14.2305165"><ele>174.0</ele><time>2026-04-06T05:52:07.08Z</time></trkpt><trkpt lat="41.1762729" lon="14.2304525"><ele>176.0</ele><time>2026-04-06T05:52:11.013Z</time></trkpt><trkpt lat="41.1763293" lon="14.2303921"><ele>178.0</ele><time>2026-04-06T05:52:14.186Z</time></trkpt><trkpt lat="41.1763907" lon="14.2303164"><ele>180.0</ele><time>2026-04-06T05:52:17.355Z</time></trkpt><trkpt lat="41.176451" lon="14.2302361"><ele>178.0</ele><time>2026-04-06T05:52:20.551Z</time></trkpt><trkpt lat="41.1765216" lon="14.2301604"><ele>176.0</ele><time>2026-04-06T05:52:23.729Z</time></trkpt><trkpt lat="41.1765839" lon="14.2300842"><ele>174.0</ele><time>2026-04-06T05:52:26.773Z</time></trkpt><trkpt lat="41.1766371" lon="14.2300103"><ele>172.0</ele><time>2026-04-06T05:52:29.948Z</time></trkpt><trkpt lat="41.1766851" lon="14.2299273"><ele>170.0</ele><time>2026-04-06T05:52:33.053Z</time></trkpt><trkpt lat="41.176731" lon="14.2298485"><ele>168.0</ele><time>2026-04-06T05:52:35.972Z</time></trkpt><trkpt lat="41.176775" lon="14.2297763"><ele>168.0</ele><time>2026-04-06T05:52:38.997Z</time></trkpt><trkpt lat="41.1768327" lon="14.2297072"><ele>168.0</ele><time>2026-04-06T05:52:42.056Z</time></trkpt><trkpt lat="41.1768927" lon="14.2296274"><ele>168.0</ele><time>2026-04-06T05:52:45.066Z</time></trkpt><trkpt lat="41.1769491" lon="14.2295412"><ele>168.0</ele><time>2026-04-06T05:52:48.074Z</time></trkpt><trkpt lat="41.1769641" lon="14.2294573"><ele>168.0</ele><time>2026-04-06T05:52:51.093Z</time></trkpt><trkpt lat="41.1770335" lon="14.229411"><ele>168.0</ele><time>2026-04-06T05:52:55.109Z</time></trkpt><trkpt lat="41.1770935" lon="14.2293223"><ele>168.0</ele><time>2026-04-06T05:52:57.104Z</time></trkpt><trkpt lat="41.177144" lon="14.2292512"><ele>168.0</ele><time>2026-04-06T05:53:00.051Z</time></trkpt><trkpt lat="41.1771931" lon="14.2291712"><ele>168.0</ele><time>2026-04-06T05:53:03.102Z</time></trkpt><trkpt lat="41.1772371" lon="14.2290957"><ele>168.0</ele><time>2026-04-06T05:53:05.992Z</time></trkpt><trkpt lat="41.177276" lon="14.2290067"><ele>168.0</ele><time>2026-04-06T05:53:09.078Z</time></trkpt><trkpt lat="41.1773212" lon="14.2289144"><ele>168.0</ele><time>2026-04-06T05:53:12.126Z</time></trkpt><trkpt lat="41.1773605" lon="14.2288379"><ele>165.42857142857142</ele><time>2026-04-06T05:53:15.071Z</time></trkpt><trkpt lat="41.177402" lon="14.2287532"><ele>162.85714285714286</ele><time>2026-04-06T05:53:18.079Z</time></trkpt><trkpt lat="41.177468" lon="14.2287037"><ele>160.28571428571428</ele><time>2026-04-06T05:53:21.09Z</time></trkpt><trkpt lat="41.1774691" lon="14.2286035"><ele>157.71428571428572</ele><time>2026-04-06T05:53:26.095Z</time></trkpt><trkpt lat="41.1774697" lon="14.2284978"><ele>155.14285714285714</ele><time>2026-04-06T05:53:28.069Z</time></trkpt><trkpt lat="41.177508" lon="14.2284157"><ele>152.57142857142856</ele><time>2026-04-06T05:53:31.091Z</time></trkpt><trkpt lat="41.1775649" lon="14.2283707"><ele>150.0</ele><time>2026-04-06T05:53:35.011Z</time></trkpt><trkpt lat="41.1776241" lon="14.228415"><ele>150.0</ele><time>2026-04-06T05:53:38.112Z</time></trkpt><trkpt lat="41.1775863" lon="14.2282763"><ele>150.0</ele><time>2026-04-06T05:53:39.088Z</time></trkpt><trkpt lat="41.1775604" lon="14.228154"><ele>150.0</ele><time>2026-04-06T05:53:40.063Z</time></trkpt><trkpt lat="41.1775876" lon="14.2280732"><ele>150.0</ele><time>2026-04-06T05:53:42.065Z</time></trkpt><trkpt lat="41.1776212" lon="14.2279766"><ele>150.0</ele><time>2026-04-06T05:53:45.011Z</time></trkpt><trkpt lat="41.1776643" lon="14.2279152"><ele>150.0</ele><time>2026-04-06T05:53:48.057Z</time></trkpt><trkpt lat="41.1777137" lon="14.22783"><ele>150.42857142857142</ele><time>2026-04-06T05:53:51.969Z</time></trkpt><trkpt lat="41.1777386" lon="14.2277387"><ele>150.85714285714286</ele><time>2026-04-06T05:53:55.081Z</time></trkpt><trkpt lat="41.1777713" lon="14.2276368"><ele>151.28571428571428</ele><time>2026-04-06T05:53:58.086Z</time></trkpt><trkpt lat="41.1777955" lon="14.2275432"><ele>151.71428571428572</ele><time>2026-04-06T05:54:01.02Z</time></trkpt><trkpt lat="41.1778221" lon="14.2274556"><ele>152.14285714285714</ele><time>2026-04-06T05:54:04.074Z</time></trkpt><trkpt lat="41.1778443" lon="14.2273757"><ele>152.57142857142856</ele><time>2026-04-06T05:54:07.056Z</time></trkpt><trkpt lat="41.1778604" lon="14.2272846"><ele>153.0</ele><time>2026-04-06T05:54:10.045Z</time></trkpt><trkpt lat="41.1778695" lon="14.2271919"><ele>153.14285714285714</ele><time>2026-04-06T05:54:13.074Z</time></trkpt><trkpt lat="41.1778699" lon="14.2270871"><ele>153.28571428571428</ele><time>2026-04-06T05:54:16.071Z</time></trkpt><trkpt lat="41.1778932" lon="14.2269871"><ele>153.42857142857144</ele><time>2026-04-06T05:54:20.049Z</time></trkpt><trkpt lat="41.1779152" lon="14.2268949"><ele>153.57142857142856</ele><time>2026-04-06T05:54:24.083Z</time></trkpt><trkpt lat="41.1779481" lon="14.2268231"><ele>153.71428571428572</ele><time>2026-04-06T05:54:27.112Z</time></trkpt><trkpt lat="41.1779556" lon="14.2267207"><ele>153.85714285714286</ele><time>2026-04-06T05:54:31.078Z</time></trkpt><trkpt lat="41.1779817" lon="14.2266407"><ele>154.0</ele><time>2026-04-06T05:54:36.138Z</time></trkpt><trkpt lat="41.1779745" lon="14.2265525"><ele>153.85714285714286</ele><time>2026-04-06T05:54:54.089Z</time></trkpt><trkpt lat="41.17796" lon="14.2264688"><ele>153.71428571428572</ele><time>2026-04-06T05:55:01.071Z</time></trkpt><trkpt lat="41.1779807" lon="14.226381"><ele>153.57142857142856</ele><time>2026-04-06T05:55:10.063Z</time></trkpt><trkpt lat="41.1779771" lon="14.2262798"><ele>153.42857142857144</ele><time>2026-04-06T05:55:18.053Z</time></trkpt><trkpt lat="41.1780316" lon="14.22623"><ele>153.28571428571428</ele><time>2026-04-06T05:55:24.082Z</time></trkpt><trkpt lat="41.1780848" lon="14.2261555"><ele>153.14285714285714</ele><time>2026-04-06T05:55:30.059Z</time></trkpt><trkpt lat="41.1781162" lon="14.2260781"><ele>153.0</ele><time>2026-04-06T05:55:33.1Z</time></trkpt><trkpt lat="41.1781406" lon="14.2259804"><ele>153.0</ele><time>2026-04-06T05:55:36.09Z</time></trkpt><trkpt lat="41.1781731" lon="14.2258723"><ele>153.0</ele><time>2026-04-06T05:55:39.107Z</time></trkpt><trkpt lat="41.1782086" lon="14.2257609"><ele>153.0</ele><time>2026-04-06T05:55:42.097Z</time></trkpt><trkpt lat="41.1782397" lon="14.2256594"><ele>153.0</ele><time>2026-04-06T05:55:45.025Z</time></trkpt><trkpt lat="41.1782551" lon="14.225542"><ele>153.0</ele><time>2026-04-06T05:55:48.084Z</time></trkpt><trkpt lat="41.1782756" lon="14.2254463"><ele>153.0</ele><time>2026-04-06T05:55:51.015Z</time></trkpt><trkpt lat="41.1782948" lon="14.2253481"><ele>149.5</ele><time>2026-04-06T05:55:54.1Z</time></trkpt><trkpt lat="41.1783147" lon="14.2252572"><ele>146.0</ele><time>2026-04-06T05:55:57.028Z</time></trkpt><trkpt lat="41.1783324" lon="14.2251617"><ele>142.5</ele><time>2026-04-06T05:56:00.148Z</time></trkpt><trkpt lat="41.1783502" lon="14.2250726"><ele>139.0</ele><time>2026-04-06T05:56:03.115Z</time></trkpt><trkpt lat="41.178387" lon="14.2249806"><ele>135.5</ele><time>2026-04-06T05:56:06.027Z</time></trkpt><trkpt lat="41.1784165" lon="14.2248782"><ele>132.0</ele><time>2026-04-06T05:56:09.091Z</time></trkpt><trkpt lat="41.1784442" lon="14.2247793"><ele>131.0</ele><time>2026-04-06T05:56:12.097Z</time></trkpt><trkpt lat="41.178479" lon="14.2246944"><ele>130.0</ele><time>2026-04-06T05:56:15.078Z</time></trkpt><trkpt lat="41.1785105" lon="14.2246139"><ele>129.0</ele><time>2026-04-06T05:56:18.008Z</time></trkpt><trkpt lat="41.1785267" lon="14.2245117"><ele>128.0</ele><time>2026-04-06T05:56:21.071Z</time></trkpt><trkpt lat="41.1785369" lon="14.2244086"><ele>127.0</ele><time>2026-04-06T05:56:24.074Z</time></trkpt><trkpt lat="41.1785509" lon="14.2243102"><ele>126.0</ele><time>2026-04-06T05:56:27.107Z</time></trkpt><trkpt lat="41.1785621" lon="14.2242211"><ele>125.0</ele><time>2026-04-06T05:56:30.005Z</time></trkpt><trkpt lat="41.178578" lon="14.224126"><ele>125.0</ele><time>2026-04-06T05:56:33.136Z</time></trkpt><trkpt lat="41.1786042" lon="14.2240061"><ele>125.0</ele><time>2026-04-06T05:56:37.103Z</time></trkpt><trkpt lat="41.1786344" lon="14.223925"><ele>125.0</ele><time>2026-04-06T05:56:40.009Z</time></trkpt><trkpt lat="41.178665" lon="14.2238411"><ele>125.0</ele><time>2026-04-06T05:56:43.097Z</time></trkpt><trkpt lat="41.1786991" lon="14.2237684"><ele>125.0</ele><time>2026-04-06T05:56:46.008Z</time></trkpt><trkpt lat="41.1787305" lon="14.2236877"><ele>125.0</ele><time>2026-04-06T05:56:49.095Z</time></trkpt><trkpt lat="41.1787619" lon="14.2236094"><ele>125.0</ele><time>2026-04-06T05:56:52.05Z</time></trkpt><trkpt lat="41.178785" lon="14.2235297"><ele>123.83333333333333</ele><time>2026-04-06T05:56:55.091Z</time></trkpt><trkpt lat="41.1788131" lon="14.2234517"><ele>122.66666666666666</ele><time>2026-04-06T05:56:58.094Z</time></trkpt><trkpt lat="41.178863" lon="14.2233681"><ele>121.5</ele><time>2026-04-06T05:57:02.008Z</time></trkpt><trkpt lat="41.1789204" lon="14.2232912"><ele>120.33333333333334</ele><time>2026-04-06T05:57:06.104Z</time></trkpt><trkpt lat="41.178912" lon="14.2232047"><ele>119.16666666666667</ele><time>2026-04-06T05:57:10.106Z</time></trkpt><trkpt lat="41.1788323" lon="14.2232231"><ele>118.0</ele><time>2026-04-06T05:57:15.085Z</time></trkpt><trkpt lat="41.1787521" lon="14.2232111"><ele>118.00000000000001</ele><time>2026-04-06T05:57:19.093Z</time></trkpt><trkpt lat="41.1786739" lon="14.223236"><ele>118.0</ele><time>2026-04-06T05:57:23.088Z</time></trkpt><trkpt lat="41.1785997" lon="14.2232899"><ele>118.0</ele><time>2026-04-06T05:57:27.093Z</time></trkpt><trkpt lat="41.178534" lon="14.2233474"><ele>118.0</ele><time>2026-04-06T05:57:30.076Z</time></trkpt><trkpt lat="41.1784728" lon="14.2233882"><ele>118.00000000000001</ele><time>2026-04-06T05:57:32.891Z</time></trkpt><trkpt lat="41.1784334" lon="14.2233135"><ele>118.0</ele><time>2026-04-06T05:57:36.055Z</time></trkpt><trkpt lat="41.1784281" lon="14.2232101"><ele>117.85714285714286</ele><time>2026-04-06T05:57:39.05Z</time></trkpt><trkpt lat="41.1784124" lon="14.2231114"><ele>117.71428571428572</ele><time>2026-04-06T05:57:41.932Z</time></trkpt><trkpt lat="41.1783909" lon="14.2230149"><ele>117.57142857142858</ele><time>2026-04-06T05:57:44.968Z</time></trkpt><trkpt lat="41.178361" lon="14.222928"><ele>117.42857142857143</ele><time>2026-04-06T05:57:47.872Z</time></trkpt><trkpt lat="41.1782987" lon="14.222869"><ele>117.2857142857143</ele><time>2026-04-06T05:57:50.975Z</time></trkpt><trkpt lat="41.1782334" lon="14.2228361"><ele>117.14285714285715</ele><time>2026-04-06T05:57:54.003Z</time></trkpt><trkpt lat="41.1781741" lon="14.2227908"><ele>117.0</ele><time>2026-04-06T05:57:57.118Z</time></trkpt><trkpt lat="41.1781179" lon="14.2227302"><ele>114.66666666666667</ele><time>2026-04-06T05:58:00.102Z</time></trkpt><trkpt lat="41.1780603" lon="14.2226622"><ele>112.33333333333334</ele><time>2026-04-06T05:58:03.097Z</time></trkpt><trkpt lat="41.1780095" lon="14.2225928"><ele>110.0</ele><time>2026-04-06T05:58:06.037Z</time></trkpt><trkpt lat="41.1779566" lon="14.2225263"><ele>107.66666666666667</ele><time>2026-04-06T05:58:09.108Z</time></trkpt><trkpt lat="41.1778858" lon="14.2224824"><ele>105.33333333333334</ele><time>2026-04-06T05:58:12.1Z</time></trkpt><trkpt lat="41.1778178" lon="14.2224271"><ele>103.0</ele><time>2026-04-06T05:58:15.097Z</time></trkpt><trkpt lat="41.1777548" lon="14.2223839"><ele>103.00000000000001</ele><time>2026-04-06T05:58:18.013Z</time></trkpt><trkpt lat="41.1776799" lon="14.222335"><ele>103.0</ele><time>2026-04-06T05:58:21.011Z</time></trkpt><trkpt lat="41.17761" lon="14.2222746"><ele>103.0</ele><time>2026-04-06T05:58:24.071Z</time></trkpt><trkpt lat="41.1775509" lon="14.2222082"><ele>103.0</ele><time>2026-04-06T05:58:27.078Z</time></trkpt><trkpt lat="41.1774947" lon="14.2221441"><ele>103.00000000000001</ele><time>2026-04-06T05:58:30.012Z</time></trkpt><trkpt lat="41.1774299" lon="14.2220883"><ele>103.0</ele><time>2026-04-06T05:58:33.081Z</time></trkpt><trkpt lat="41.1773641" lon="14.2220377"><ele>102.33333333333334</ele><time>2026-04-06T05:58:36.115Z</time></trkpt><trkpt lat="41.1772866" lon="14.2219782"><ele>101.66666666666667</ele><time>2026-04-06T05:58:39.093Z</time></trkpt><trkpt lat="41.1772106" lon="14.2219209"><ele>101.0</ele><time>2026-04-06T05:58:42.05Z</time></trkpt><trkpt lat="41.1771316" lon="14.2218575"><ele>100.33333333333334</ele><time>2026-04-06T05:58:45.074Z</time></trkpt><trkpt lat="41.1770629" lon="14.2218081"><ele>99.66666666666667</ele><time>2026-04-06T05:58:47.924Z</time></trkpt><trkpt lat="41.1769967" lon="14.2217396"><ele>99.0</ele><time>2026-04-06T05:58:51.044Z</time></trkpt><trkpt lat="41.1769292" lon="14.2216695"><ele>99.0</ele><time>2026-04-06T05:58:54.124Z</time></trkpt><trkpt lat="41.1768552" lon="14.2215993"><ele>99.0</ele><time>2026-04-06T05:58:57.088Z</time></trkpt><trkpt lat="41.1767853" lon="14.2215275"><ele>99.0</ele><time>2026-04-06T05:59:00.083Z</time></trkpt><trkpt lat="41.1767204" lon="14.2214513"><ele>99.0</ele><time>2026-04-06T05:59:03.036Z</time></trkpt><trkpt lat="41.1766476" lon="14.221385"><ele>99.0</ele><time>2026-04-06T05:59:06.094Z</time></trkpt><trkpt lat="41.1765877" lon="14.2213283"><ele>99.0</ele><time>2026-04-06T05:59:09.09Z</time></trkpt><trkpt lat="41.1765314" lon="14.2212558"><ele>99.0</ele><time>2026-04-06T05:59:12.052Z</time></trkpt><trkpt lat="41.1764679" lon="14.221186"><ele>99.0</ele><time>2026-04-06T05:59:15.122Z</time></trkpt><trkpt lat="41.1764081" lon="14.2211278"><ele>99.0</ele><time>2026-04-06T05:59:18.084Z</time></trkpt><trkpt lat="41.1763419" lon="14.2210669"><ele>99.0</ele><time>2026-04-06T05:59:21.109Z</time></trkpt><trkpt lat="41.1762744" lon="14.2210044"><ele>99.0</ele><time>2026-04-06T05:59:24.013Z</time></trkpt><trkpt lat="41.1761971" lon="14.2209473"><ele>99.0</ele><time>2026-04-06T05:59:27.109Z</time></trkpt><trkpt lat="41.1761333" lon="14.220885"><ele>99.0</ele><time>2026-04-06T05:59:30.078Z</time></trkpt><trkpt lat="41.1760721" lon="14.2208321"><ele>99.0</ele><time>2026-04-06T05:59:33.102Z</time></trkpt><trkpt lat="41.1760144" lon="14.220784"><ele>99.0</ele><time>2026-04-06T05:59:36.027Z</time></trkpt><trkpt lat="41.1759574" lon="14.2207477"><ele>99.0</ele><time>2026-04-06T05:59:39.108Z</time></trkpt><trkpt lat="41.1758939" lon="14.2207008"><ele>99.0</ele><time>2026-04-06T05:59:42.095Z</time></trkpt><trkpt lat="41.1758364" lon="14.220643"><ele>99.0</ele><time>2026-04-06T05:59:45.093Z</time></trkpt><trkpt lat="41.1757828" lon="14.2205897"><ele>99.0</ele><time>2026-04-06T05:59:48.089Z</time></trkpt><trkpt lat="41.1757208" lon="14.2205458"><ele>98.71428571428572</ele><time>2026-04-06T05:59:51.087Z</time></trkpt><trkpt lat="41.1756608" lon="14.2205012"><ele>98.42857142857142</ele><time>2026-04-06T05:59:54.103Z</time></trkpt><trkpt lat="41.1756052" lon="14.2204538"><ele>98.14285714285714</ele><time>2026-04-06T05:59:57.082Z</time></trkpt><trkpt lat="41.1755503" lon="14.2203938"><ele>97.85714285714286</ele><time>2026-04-06T06:00:00.069Z</time></trkpt><trkpt lat="41.175502" lon="14.220337"><ele>97.57142857142858</ele><time>2026-04-06T06:00:02.845Z</time></trkpt><trkpt lat="41.1754338" lon="14.220275"><ele>97.28571428571428</ele><time>2026-04-06T06:00:07.129Z</time></trkpt><trkpt lat="41.1753818" lon="14.2202074"><ele>97.0</ele><time>2026-04-06T06:00:11.091Z</time></trkpt><trkpt lat="41.1753405" lon="14.2201166"><ele>97.0</ele><time>2026-04-06T06:00:15.035Z</time></trkpt><trkpt lat="41.1753129" lon="14.220037"><ele>97.0</ele><time>2026-04-06T06:00:18.098Z</time></trkpt><trkpt lat="41.175284" lon="14.2199619"><ele>97.0</ele><time>2026-04-06T06:00:21.079Z</time></trkpt><trkpt lat="41.1752543" lon="14.2198868"><ele>97.0</ele><time>2026-04-06T06:00:24.088Z</time></trkpt><trkpt lat="41.1752364" lon="14.2197736"><ele>97.0</ele><time>2026-04-06T06:00:28.069Z</time></trkpt><trkpt lat="41.1752357" lon="14.219682"><ele>97.0</ele><time>2026-04-06T06:00:31.076Z</time></trkpt><trkpt lat="41.1752572" lon="14.2195851"><ele>97.0</ele><time>2026-04-06T06:00:34.068Z</time></trkpt><trkpt lat="41.1752804" lon="14.219494"><ele>96.42857142857143</ele><time>2026-04-06T06:00:37.075Z</time></trkpt><trkpt lat="41.1753056" lon="14.2194094"><ele>95.85714285714286</ele><time>2026-04-06T06:00:40.093Z</time></trkpt><trkpt lat="41.175337" lon="14.219311"><ele>95.28571428571429</ele><time>2026-04-06T06:00:43.083Z</time></trkpt><trkpt lat="41.1753706" lon="14.2192238"><ele>94.71428571428572</ele><time>2026-04-06T06:00:46.008Z</time></trkpt><trkpt lat="41.1754132" lon="14.2191383"><ele>94.14285714285714</ele><time>2026-04-06T06:00:49.083Z</time></trkpt><trkpt lat="41.1754397" lon="14.2190535"><ele>93.57142857142858</ele><time>2026-04-06T06:00:52.045Z</time></trkpt><trkpt lat="41.1754663" lon="14.2189569"><ele>93.0</ele><time>2026-04-06T06:00:55.104Z</time></trkpt><trkpt lat="41.1754944" lon="14.2188659"><ele>92.66666666666667</ele><time>2026-04-06T06:00:58.05Z</time></trkpt><trkpt lat="41.1755193" lon="14.218765"><ele>92.33333333333333</ele><time>2026-04-06T06:01:01.113Z</time></trkpt><trkpt lat="41.1755499" lon="14.2186651"><ele>92.0</ele><time>2026-04-06T06:01:04.087Z</time></trkpt><trkpt lat="41.1755807" lon="14.2185603"><ele>91.66666666666666</ele><time>2026-04-06T06:01:07.146Z</time></trkpt><trkpt lat="41.1756244" lon="14.2184786"><ele>91.33333333333333</ele><time>2026-04-06T06:01:10.111Z</time></trkpt><trkpt lat="41.1756722" lon="14.2183826"><ele>91.0</ele><time>2026-04-06T06:01:14.108Z</time></trkpt><trkpt lat="41.1757101" lon="14.2183035"><ele>90.83333333333333</ele><time>2026-04-06T06:01:17.06Z</time></trkpt><trkpt lat="41.1757423" lon="14.2182051"><ele>90.66666666666666</ele><time>2026-04-06T06:01:20.094Z</time></trkpt><trkpt lat="41.1757654" lon="14.2181116"><ele>90.5</ele><time>2026-04-06T06:01:23.084Z</time></trkpt><trkpt lat="41.1757897" lon="14.2180215"><ele>90.33333333333333</ele><time>2026-04-06T06:01:26.073Z</time></trkpt><trkpt lat="41.175812" lon="14.2179278"><ele>90.16666666666667</ele><time>2026-04-06T06:01:29.096Z</time></trkpt><trkpt lat="41.1758369" lon="14.2178269"><ele>90.0</ele><time>2026-04-06T06:01:32.056Z</time></trkpt><trkpt lat="41.1758692" lon="14.2177087"><ele>89.83333333333333</ele><time>2026-04-06T06:01:35.072Z</time></trkpt><trkpt lat="41.1758886" lon="14.2176288"><ele>89.66666666666667</ele><time>2026-04-06T06:01:37.087Z</time></trkpt><trkpt lat="41.1759255" lon="14.2175238"><ele>89.5</ele><time>2026-04-06T06:01:40.115Z</time></trkpt><trkpt lat="41.1759631" lon="14.2174233"><ele>89.33333333333334</ele><time>2026-04-06T06:01:43.111Z</time></trkpt><trkpt lat="41.1759902" lon="14.2173227"><ele>89.16666666666667</ele><time>2026-04-06T06:01:46.094Z</time></trkpt><trkpt lat="41.1760065" lon="14.2172145"><ele>89.0</ele><time>2026-04-06T06:01:49.05Z</time></trkpt><trkpt lat="41.176021" lon="14.2171109"><ele>89.0</ele><time>2026-04-06T06:01:52.077Z</time></trkpt><trkpt lat="41.1760502" lon="14.2170088"><ele>89.0</ele><time>2026-04-06T06:01:56.11Z</time></trkpt><trkpt lat="41.1760404" lon="14.2169235"><ele>89.0</ele><time>2026-04-06T06:01:59.085Z</time></trkpt><trkpt lat="41.1760029" lon="14.2168437"><ele>89.0</ele><time>2026-04-06T06:02:02.105Z</time></trkpt><trkpt lat="41.1760233" lon="14.2166973"><ele>89.0</ele><time>2026-04-06T06:02:05.087Z</time></trkpt><trkpt lat="41.1760699" lon="14.2166065"><ele>89.0</ele><time>2026-04-06T06:02:06.072Z</time></trkpt><trkpt lat="41.176118" lon="14.216503"><ele>88.85714285714285</ele><time>2026-04-06T06:02:09.028Z</time></trkpt><trkpt lat="41.1761366" lon="14.2164102"><ele>88.71428571428571</ele><time>2026-04-06T06:02:11.107Z</time></trkpt><trkpt lat="41.1761445" lon="14.2163182"><ele>88.57142857142857</ele><time>2026-04-06T06:02:13.091Z</time></trkpt><trkpt lat="41.1761234" lon="14.2162046"><ele>88.42857142857142</ele><time>2026-04-06T06:02:16.108Z</time></trkpt><trkpt lat="41.1761118" lon="14.2161125"><ele>88.28571428571428</ele><time>2026-04-06T06:02:19.107Z</time></trkpt><trkpt lat="41.1761052" lon="14.216024"><ele>88.14285714285714</ele><time>2026-04-06T06:02:22.09Z</time></trkpt><trkpt lat="41.176097" lon="14.2159299"><ele>88.0</ele><time>2026-04-06T06:02:25.07Z</time></trkpt><trkpt lat="41.1760786" lon="14.2158295"><ele>88.0</ele><time>2026-04-06T06:02:28.105Z</time></trkpt><trkpt lat="41.176059" lon="14.2157351"><ele>88.0</ele><time>2026-04-06T06:02:31.009Z</time></trkpt><trkpt lat="41.1760405" lon="14.2156422"><ele>88.0</ele><time>2026-04-06T06:02:34.093Z</time></trkpt><trkpt lat="41.176016" lon="14.2155553"><ele>88.0</ele><time>2026-04-06T06:02:37.128Z</time></trkpt><trkpt lat="41.1759851" lon="14.2154654"><ele>88.0</ele><time>2026-04-06T06:02:40.986Z</time></trkpt><trkpt lat="41.1759679" lon="14.2153611"><ele>88.0</ele><time>2026-04-06T06:02:45.131Z</time></trkpt><trkpt lat="41.1759474" lon="14.2152642"><ele>88.0</ele><time>2026-04-06T06:02:49.061Z</time></trkpt><trkpt lat="41.1759406" lon="14.2151668"><ele>88.0</ele><time>2026-04-06T06:02:52.096Z</time></trkpt><trkpt lat="41.1759332" lon="14.2150708"><ele>88.0</ele><time>2026-04-06T06:02:54.986Z</time></trkpt><trkpt lat="41.1759342" lon="14.2149671"><ele>88.0</ele><time>2026-04-06T06:02:58.09Z</time></trkpt><trkpt lat="41.1759426" lon="14.2148616"><ele>88.0</ele><time>2026-04-06T06:03:01.097Z</time></trkpt><trkpt lat="41.1759565" lon="14.2147642"><ele>88.0</ele><time>2026-04-06T06:03:04.079Z</time></trkpt><trkpt lat="41.1759732" lon="14.2146685"><ele>88.0</ele><time>2026-04-06T06:03:07.082Z</time></trkpt><trkpt lat="41.1759892" lon="14.214574"><ele>88.0</ele><time>2026-04-06T06:03:10.047Z</time></trkpt><trkpt lat="41.1759984" lon="14.2144743"><ele>88.0</ele><time>2026-04-06T06:03:13.101Z</time></trkpt><trkpt lat="41.1760019" lon="14.2143742"><ele>88.0</ele><time>2026-04-06T06:03:16.044Z</time></trkpt><trkpt lat="41.1760043" lon="14.2142548"><ele>88.0</ele><time>2026-04-06T06:03:19.106Z</time></trkpt><trkpt lat="41.1760108" lon="14.2141484"><ele>88.0</ele><time>2026-04-06T06:03:22.044Z</time></trkpt><trkpt lat="41.1760179" lon="14.2140262"><ele>88.0</ele><time>2026-04-06T06:03:25.109Z</time></trkpt><trkpt lat="41.1760296" lon="14.2139195"><ele>87.83333333333333</ele><time>2026-04-06T06:03:28.014Z</time></trkpt><trkpt lat="41.1760548" lon="14.2138066"><ele>87.66666666666666</ele><time>2026-04-06T06:03:31.097Z</time></trkpt><trkpt lat="41.1760765" lon="14.213699"><ele>87.5</ele><time>2026-04-06T06:03:34.107Z</time></trkpt><trkpt lat="41.1760936" lon="14.2136021"><ele>87.33333333333333</ele><time>2026-04-06T06:03:37.105Z</time></trkpt><trkpt lat="41.1761227" lon="14.2135189"><ele>87.16666666666667</ele><time>2026-04-06T06:03:40.094Z</time></trkpt><trkpt lat="41.1761569" lon="14.2134401"><ele>87.0</ele><time>2026-04-06T06:03:43.09Z</time></trkpt><trkpt lat="41.1761975" lon="14.2133354"><ele>87.0</ele><time>2026-04-06T06:03:47.104Z</time></trkpt><trkpt lat="41.176211" lon="14.2132477"><ele>87.0</ele><time>2026-04-06T06:03:50.099Z</time></trkpt><trkpt lat="41.1762512" lon="14.2131515"><ele>87.0</ele><time>2026-04-06T06:03:53.091Z</time></trkpt><trkpt lat="41.1762883" lon="14.2130746"><ele>87.0</ele><time>2026-04-06T06:03:56.103Z</time></trkpt><trkpt lat="41.1763303" lon="14.2130032"><ele>87.0</ele><time>2026-04-06T06:03:59.029Z</time></trkpt><trkpt lat="41.1763722" lon="14.2129246"><ele>87.0</ele><time>2026-04-06T06:04:02.094Z</time></trkpt><trkpt lat="41.1763992" lon="14.2128386"><ele>87.0</ele><time>2026-04-06T06:04:05.086Z</time></trkpt><trkpt lat="41.1764317" lon="14.2127518"><ele>86.71428571428571</ele><time>2026-04-06T06:04:08.119Z</time></trkpt><trkpt lat="41.1764624" lon="14.2126682"><ele>86.42857142857143</ele><time>2026-04-06T06:04:10.765Z</time></trkpt><trkpt lat="41.176493" lon="14.2125911"><ele>86.14285714285714</ele><time>2026-04-06T06:04:13.068Z</time></trkpt><trkpt lat="41.1765311" lon="14.2124957"><ele>85.85714285714286</ele><time>2026-04-06T06:04:16.154Z</time></trkpt><trkpt lat="41.1765657" lon="14.2124082"><ele>85.57142857142857</ele><time>2026-04-06T06:04:19.088Z</time></trkpt><trkpt lat="41.1765946" lon="14.212319"><ele>85.28571428571429</ele><time>2026-04-06T06:04:22.097Z</time></trkpt><trkpt lat="41.1766193" lon="14.2122194"><ele>85.0</ele><time>2026-04-06T06:04:25.085Z</time></trkpt><trkpt lat="41.176642" lon="14.2121137"><ele>84.16666666666666</ele><time>2026-04-06T06:04:28.108Z</time></trkpt><trkpt lat="41.1766508" lon="14.2120016"><ele>83.33333333333333</ele><time>2026-04-06T06:04:31.086Z</time></trkpt><trkpt lat="41.1766657" lon="14.211895"><ele>82.5</ele><time>2026-04-06T06:04:34.085Z</time></trkpt><trkpt lat="41.1766966" lon="14.2117969"><ele>81.66666666666667</ele><time>2026-04-06T06:04:37.098Z</time></trkpt><trkpt lat="41.176737" lon="14.2117057"><ele>80.83333333333334</ele><time>2026-04-06T06:04:40.085Z</time></trkpt><trkpt lat="41.1767771" lon="14.2116158"><ele>80.0</ele><time>2026-04-06T06:04:43.108Z</time></trkpt><trkpt lat="41.1768175" lon="14.2115203"><ele>80.16666666666667</ele><time>2026-04-06T06:04:46.111Z</time></trkpt><trkpt lat="41.1768576" lon="14.2114347"><ele>80.33333333333334</ele><time>2026-04-06T06:04:49.097Z</time></trkpt><trkpt lat="41.1768961" lon="14.2113415"><ele>80.5</ele><time>2026-04-06T06:04:52.1Z</time></trkpt><trkpt lat="41.1769319" lon="14.211242"><ele>80.66666666666667</ele><time>2026-04-06T06:04:55.031Z</time></trkpt><trkpt lat="41.1769485" lon="14.211159"><ele>80.83333333333333</ele><time>2026-04-06T06:04:57.075Z</time></trkpt><trkpt lat="41.1769538" lon="14.2110699"><ele>81.0</ele><time>2026-04-06T06:04:59.097Z</time></trkpt><trkpt lat="41.1769691" lon="14.2109551"><ele>81.0</ele><time>2026-04-06T06:05:01.985Z</time></trkpt><trkpt lat="41.1769803" lon="14.2108682"><ele>81.0</ele><time>2026-04-06T06:05:04.1Z</time></trkpt><trkpt lat="41.1770058" lon="14.2107844"><ele>81.0</ele><time>2026-04-06T06:05:06.086Z</time></trkpt><trkpt lat="41.1770404" lon="14.2106986"><ele>81.0</ele><time>2026-04-06T06:05:09.094Z</time></trkpt><trkpt lat="41.1770692" lon="14.210608"><ele>81.0</ele><time>2026-04-06T06:05:12.091Z</time></trkpt><trkpt lat="41.1770796" lon="14.2105113"><ele>81.0</ele><time>2026-04-06T06:05:15.098Z</time></trkpt><trkpt lat="41.1770995" lon="14.21042"><ele>81.0</ele><time>2026-04-06T06:05:18.093Z</time></trkpt><trkpt lat="41.1771102" lon="14.2103309"><ele>81.0</ele><time>2026-04-06T06:05:21.1Z</time></trkpt><trkpt lat="41.1771517" lon="14.2102403"><ele>81.0</ele><time>2026-04-06T06:05:25.075Z</time></trkpt><trkpt lat="41.1771676" lon="14.2101539"><ele>81.0</ele><time>2026-04-06T06:05:28.091Z</time></trkpt><trkpt lat="41.1771847" lon="14.2100618"><ele>81.0</ele><time>2026-04-06T06:05:31.121Z</time></trkpt><trkpt lat="41.1771968" lon="14.2099632"><ele>81.0</ele><time>2026-04-06T06:05:34.111Z</time></trkpt><trkpt lat="41.1772027" lon="14.2098662"><ele>81.0</ele><time>2026-04-06T06:05:37.099Z</time></trkpt><trkpt lat="41.1772161" lon="14.2097751"><ele>81.0</ele><time>2026-04-06T06:05:40.13Z</time></trkpt><trkpt lat="41.1772417" lon="14.2096931"><ele>81.0</ele><time>2026-04-06T06:05:43.074Z</time></trkpt><trkpt lat="41.1772759" lon="14.2096039"><ele>81.0</ele><time>2026-04-06T06:05:46.112Z</time></trkpt><trkpt lat="41.177314" lon="14.2095164"><ele>81.0</ele><time>2026-04-06T06:05:49.113Z</time></trkpt><trkpt lat="41.1773386" lon="14.2094313"><ele>81.0</ele><time>2026-04-06T06:05:52.112Z</time></trkpt><trkpt lat="41.1773731" lon="14.2093421"><ele>81.0</ele><time>2026-04-06T06:05:55.134Z</time></trkpt><trkpt lat="41.1774312" lon="14.2092624"><ele>81.0</ele><time>2026-04-06T06:05:58.079Z</time></trkpt><trkpt lat="41.1774709" lon="14.209168"><ele>80.33333333333333</ele><time>2026-04-06T06:06:01.11Z</time></trkpt><trkpt lat="41.1774863" lon="14.2090598"><ele>79.66666666666667</ele><time>2026-04-06T06:06:04.054Z</time></trkpt><trkpt lat="41.1774989" lon="14.2089518"><ele>79.0</ele><time>2026-04-06T06:06:07.035Z</time></trkpt><trkpt lat="41.1775356" lon="14.2088382"><ele>78.33333333333334</ele><time>2026-04-06T06:06:10.11Z</time></trkpt><trkpt lat="41.1775877" lon="14.2087374"><ele>77.66666666666667</ele><time>2026-04-06T06:06:13.084Z</time></trkpt><trkpt lat="41.177622" lon="14.2086399"><ele>77.0</ele><time>2026-04-06T06:06:16.109Z</time></trkpt><trkpt lat="41.1776505" lon="14.2085374"><ele>77.0</ele><time>2026-04-06T06:06:19.127Z</time></trkpt><trkpt lat="41.1776772" lon="14.2084381"><ele>77.0</ele><time>2026-04-06T06:06:22.004Z</time></trkpt><trkpt lat="41.1776974" lon="14.2083344"><ele>77.0</ele><time>2026-04-06T06:06:25.091Z</time></trkpt><trkpt lat="41.1777117" lon="14.2082354"><ele>77.0</ele><time>2026-04-06T06:06:28.125Z</time></trkpt><trkpt lat="41.1777271" lon="14.2081466"><ele>77.0</ele><time>2026-04-06T06:06:31.104Z</time></trkpt><trkpt lat="41.1777362" lon="14.2080602"><ele>77.0</ele><time>2026-04-06T06:06:34.092Z</time></trkpt><trkpt lat="41.1777388" lon="14.207971"><ele>77.0</ele><time>2026-04-06T06:06:37.074Z</time></trkpt><trkpt lat="41.177754" lon="14.2078829"><ele>77.0</ele><time>2026-04-06T06:06:40.095Z</time></trkpt><trkpt lat="41.1777725" lon="14.2077933"><ele>77.0</ele><time>2026-04-06T06:06:43.195Z</time></trkpt><trkpt lat="41.1777887" lon="14.2076945"><ele>77.0</ele><time>2026-04-06T06:06:46.371Z</time></trkpt><trkpt lat="41.1778172" lon="14.2075984"><ele>77.0</ele><time>2026-04-06T06:06:49.569Z</time></trkpt><trkpt lat="41.1778474" lon="14.2074918"><ele>77.0</ele><time>2026-04-06T06:06:52.804Z</time></trkpt><trkpt lat="41.1778696" lon="14.207376"><ele>77.0</ele><time>2026-04-06T06:06:56.107Z</time></trkpt><trkpt lat="41.1778844" lon="14.2072786"><ele>76.85714285714286</ele><time>2026-04-06T06:06:59.064Z</time></trkpt><trkpt lat="41.1779037" lon="14.207181"><ele>76.71428571428572</ele><time>2026-04-06T06:07:02.028Z</time></trkpt><trkpt lat="41.1779319" lon="14.2070882"><ele>76.57142857142857</ele><time>2026-04-06T06:07:05.096Z</time></trkpt><trkpt lat="41.1779579" lon="14.2069997"><ele>76.42857142857143</ele><time>2026-04-06T06:07:08.078Z</time></trkpt><trkpt lat="41.1779837" lon="14.2069037"><ele>76.28571428571429</ele><time>2026-04-06T06:07:11.079Z</time></trkpt><trkpt lat="41.1779997" lon="14.2068113"><ele>76.14285714285714</ele><time>2026-04-06T06:07:14.077Z</time></trkpt><trkpt lat="41.1779865" lon="14.206721"><ele>76.0</ele><time>2026-04-06T06:07:17.005Z</time></trkpt><trkpt lat="41.178004" lon="14.2066343"><ele>76.0</ele><time>2026-04-06T06:07:20.096Z</time></trkpt><trkpt lat="41.1779731" lon="14.2065474"><ele>76.0</ele><time>2026-04-06T06:07:23.052Z</time></trkpt><trkpt lat="41.1779568" lon="14.2064553"><ele>76.0</ele><time>2026-04-06T06:07:26.112Z</time></trkpt><trkpt lat="41.1779469" lon="14.2063642"><ele>76.0</ele><time>2026-04-06T06:07:29.103Z</time></trkpt><trkpt lat="41.1779388" lon="14.2062757"><ele>76.0</ele><time>2026-04-06T06:07:32.127Z</time></trkpt><trkpt lat="41.1779296" lon="14.206187"><ele>76.0</ele><time>2026-04-06T06:07:35.113Z</time></trkpt><trkpt lat="41.1779153" lon="14.2060981"><ele>76.0</ele><time>2026-04-06T06:07:38.064Z</time></trkpt><trkpt lat="41.1778967" lon="14.2060008"><ele>76.0</ele><time>2026-04-06T06:07:41.124Z</time></trkpt><trkpt lat="41.1778711" lon="14.2059167"><ele>76.0</ele><time>2026-04-06T06:07:44.084Z</time></trkpt><trkpt lat="41.1778477" lon="14.2058369"><ele>76.0</ele><time>2026-04-06T06:07:46.833Z</time></trkpt><trkpt lat="41.1778182" lon="14.2057378"><ele>76.0</ele><time>2026-04-06T06:07:50.009Z</time></trkpt><trkpt lat="41.1777942" lon="14.2056577"><ele>76.0</ele><time>2026-04-06T06:07:53.078Z</time></trkpt><trkpt lat="41.1777696" lon="14.2055642"><ele>76.0</ele><time>2026-04-06T06:07:56.067Z</time></trkpt><trkpt lat="41.1777395" lon="14.2054644"><ele>76.0</ele><time>2026-04-06T06:08:00.022Z</time></trkpt><trkpt lat="41.177707" lon="14.2053732"><ele>75.83333333333333</ele><time>2026-04-06T06:08:04.091Z</time></trkpt><trkpt lat="41.1776754" lon="14.2052845"><ele>75.66666666666666</ele><time>2026-04-06T06:08:08.112Z</time></trkpt><trkpt lat="41.1776505" lon="14.2052013"><ele>75.5</ele><time>2026-04-06T06:08:11.012Z</time></trkpt><trkpt lat="41.1776227" lon="14.2051051"><ele>75.33333333333333</ele><time>2026-04-06T06:08:14.089Z</time></trkpt><trkpt lat="41.1775915" lon="14.2050077"><ele>75.16666666666667</ele><time>2026-04-06T06:08:17.1Z</time></trkpt><trkpt lat="41.1775619" lon="14.204911"><ele>75.0</ele><time>2026-04-06T06:08:20.109Z</time></trkpt><trkpt lat="41.177533" lon="14.2048143"><ele>74.85714285714285</ele><time>2026-04-06T06:08:23.088Z</time></trkpt><trkpt lat="41.1775024" lon="14.2047324"><ele>74.71428571428571</ele><time>2026-04-06T06:08:26.101Z</time></trkpt><trkpt lat="41.1774715" lon="14.2046473"><ele>74.57142857142857</ele><time>2026-04-06T06:08:29.081Z</time></trkpt><trkpt lat="41.1774473" lon="14.2045605"><ele>74.42857142857142</ele><time>2026-04-06T06:08:32.121Z</time></trkpt><trkpt lat="41.1774178" lon="14.2044763"><ele>74.28571428571428</ele><time>2026-04-06T06:08:35.078Z</time></trkpt><trkpt lat="41.177383" lon="14.2043917"><ele>74.14285714285714</ele><time>2026-04-06T06:08:38.098Z</time></trkpt><trkpt lat="41.1773483" lon="14.2043043"><ele>74.0</ele><time>2026-04-06T06:08:41.035Z</time></trkpt><trkpt lat="41.1773203" lon="14.2042247"><ele>74.33333333333334</ele><time>2026-04-06T06:08:44.091Z</time></trkpt><trkpt lat="41.1772718" lon="14.2041306"><ele>74.66666666666667</ele><time>2026-04-06T06:08:48.126Z</time></trkpt><trkpt lat="41.177218" lon="14.2040485"><ele>75.0</ele><time>2026-04-06T06:08:52.092Z</time></trkpt><trkpt lat="41.1771682" lon="14.2039574"><ele>75.33333333333333</ele><time>2026-04-06T06:08:56.097Z</time></trkpt><trkpt lat="41.1771199" lon="14.2038677"><ele>75.66666666666666</ele><time>2026-04-06T06:09:00.085Z</time></trkpt><trkpt lat="41.1770783" lon="14.2037974"><ele>76.0</ele><time>2026-04-06T06:09:03.286Z</time></trkpt><trkpt lat="41.1770284" lon="14.2037026"><ele>76.0</ele><time>2026-04-06T06:09:06.467Z</time></trkpt><trkpt lat="41.1769851" lon="14.2036072"><ele>76.0</ele><time>2026-04-06T06:09:09.626Z</time></trkpt><trkpt lat="41.1769458" lon="14.203499"><ele>76.0</ele><time>2026-04-06T06:09:12.846Z</time></trkpt><trkpt lat="41.1768939" lon="14.2033952"><ele>76.0</ele><time>2026-04-06T06:09:16.125Z</time></trkpt><trkpt lat="41.1768527" lon="14.2033319"><ele>76.0</ele><time>2026-04-06T06:09:18.102Z</time></trkpt><trkpt lat="41.1767946" lon="14.2032451"><ele>76.0</ele><time>2026-04-06T06:09:21.106Z</time></trkpt><trkpt lat="41.176749" lon="14.2031426"><ele>75.83333333333333</ele><time>2026-04-06T06:09:24.082Z</time></trkpt><trkpt lat="41.1767328" lon="14.203046"><ele>75.66666666666666</ele><time>2026-04-06T06:09:27.096Z</time></trkpt><trkpt lat="41.1766763" lon="14.2031056"><ele>75.5</ele><time>2026-04-06T06:09:36.066Z</time></trkpt><trkpt lat="41.1765972" lon="14.2030299"><ele>75.33333333333333</ele><time>2026-04-06T06:09:38.07Z</time></trkpt><trkpt lat="41.1765395" lon="14.2029777"><ele>75.16666666666667</ele><time>2026-04-06T06:09:40.082Z</time></trkpt><trkpt lat="41.1764691" lon="14.2029269"><ele>75.0</ele><time>2026-04-06T06:09:43.072Z</time></trkpt><trkpt lat="41.176403" lon="14.2028769"><ele>75.0</ele><time>2026-04-06T06:09:45.867Z</time></trkpt><trkpt lat="41.1763338" lon="14.2028251"><ele>75.0</ele><time>2026-04-06T06:09:49.066Z</time></trkpt><trkpt lat="41.1762645" lon="14.2028022"><ele>75.0</ele><time>2026-04-06T06:09:52.083Z</time></trkpt><trkpt lat="41.1762019" lon="14.2027717"><ele>75.0</ele><time>2026-04-06T06:09:55.063Z</time></trkpt><trkpt lat="41.1761223" lon="14.2027297"><ele>75.0</ele><time>2026-04-06T06:09:59.11Z</time></trkpt><trkpt lat="41.1760457" lon="14.2027109"><ele>75.0</ele><time>2026-04-06T06:10:03.063Z</time></trkpt><trkpt lat="41.1759719" lon="14.2026935"><ele>74.99999999999999</ele><time>2026-04-06T06:10:07.01Z</time></trkpt><trkpt lat="41.1759134" lon="14.2026548"><ele>75.0</ele><time>2026-04-06T06:10:10.072Z</time></trkpt><trkpt lat="41.1758478" lon="14.202608"><ele>75.0</ele><time>2026-04-06T06:10:13.087Z</time></trkpt><trkpt lat="41.1757835" lon="14.2025668"><ele>75.0</ele><time>2026-04-06T06:10:16.11Z</time></trkpt><trkpt lat="41.175711" lon="14.2025218"><ele>75.0</ele><time>2026-04-06T06:10:20.058Z</time></trkpt><trkpt lat="41.1756514" lon="14.2024862"><ele>74.99999999999999</ele><time>2026-04-06T06:10:23.083Z</time></trkpt><trkpt lat="41.1755728" lon="14.2025044"><ele>75.0</ele><time>2026-04-06T06:10:27.031Z</time></trkpt><trkpt lat="41.1754988" lon="14.2024948"><ele>75.5</ele><time>2026-04-06T06:10:30.1Z</time></trkpt><trkpt lat="41.1754318" lon="14.2024791"><ele>76.0</ele><time>2026-04-06T06:10:33.087Z</time></trkpt><trkpt lat="41.1753762" lon="14.2025785"><ele>76.5</ele><time>2026-04-06T06:10:36.064Z</time></trkpt><trkpt lat="41.1753046" lon="14.2026166"><ele>77.0</ele><time>2026-04-06T06:10:41.097Z</time></trkpt><trkpt lat="41.175227" lon="14.2025736"><ele>77.5</ele><time>2026-04-06T06:10:45.094Z</time></trkpt><trkpt lat="41.1751747" lon="14.2024992"><ele>78.0</ele><time>2026-04-06T06:10:48.125Z</time></trkpt><trkpt lat="41.1751168" lon="14.2023996"><ele>77.33333333333333</ele><time>2026-04-06T06:10:51.085Z</time></trkpt><trkpt lat="41.1750897" lon="14.2022898"><ele>76.66666666666667</ele><time>2026-04-06T06:10:54.058Z</time></trkpt><trkpt lat="41.175075" lon="14.2021715"><ele>76.0</ele><time>2026-04-06T06:10:56.084Z</time></trkpt><trkpt lat="41.1750519" lon="14.2020858"><ele>75.33333333333334</ele><time>2026-04-06T06:10:58.046Z</time></trkpt><trkpt lat="41.1750163" lon="14.2019948"><ele>74.66666666666667</ele><time>2026-04-06T06:11:00.085Z</time></trkpt><trkpt lat="41.1749834" lon="14.2019096"><ele>74.0</ele><time>2026-04-06T06:11:02.073Z</time></trkpt><trkpt lat="41.1749292" lon="14.2018052"><ele>74.0</ele><time>2026-04-06T06:11:05.081Z</time></trkpt><trkpt lat="41.1748835" lon="14.2017443"><ele>74.0</ele><time>2026-04-06T06:11:07.082Z</time></trkpt><trkpt lat="41.1748441" lon="14.2016788"><ele>74.0</ele><time>2026-04-06T06:11:09.098Z</time></trkpt><trkpt lat="41.1748062" lon="14.2016116"><ele>74.0</ele><time>2026-04-06T06:11:11.109Z</time></trkpt><trkpt lat="41.1747693" lon="14.2015307"><ele>74.0</ele><time>2026-04-06T06:11:13.1Z</time></trkpt><trkpt lat="41.1747245" lon="14.2014383"><ele>74.0</ele><time>2026-04-06T06:11:16.107Z</time></trkpt><trkpt lat="41.1746759" lon="14.2013511"><ele>74.0</ele><time>2026-04-06T06:11:19.104Z</time></trkpt><trkpt lat="41.174633" lon="14.2012728"><ele>73.71428571428572</ele><time>2026-04-06T06:11:22.088Z</time></trkpt><trkpt lat="41.1745938" lon="14.2011937"><ele>73.42857142857143</ele><time>2026-04-06T06:11:24.99Z</time></trkpt><trkpt lat="41.1745588" lon="14.2011055"><ele>73.14285714285714</ele><time>2026-04-06T06:11:28.149Z</time></trkpt><trkpt lat="41.1745159" lon="14.2010256"><ele>72.85714285714286</ele><time>2026-04-06T06:11:31.027Z</time></trkpt><trkpt lat="41.1744667" lon="14.2009479"><ele>72.57142857142857</ele><time>2026-04-06T06:11:34.121Z</time></trkpt><trkpt lat="41.174418" lon="14.2008726"><ele>72.28571428571429</ele><time>2026-04-06T06:11:37.14Z</time></trkpt><trkpt lat="41.174372" lon="14.2008013"><ele>72.0</ele><time>2026-04-06T06:11:40.008Z</time></trkpt><trkpt lat="41.1743229" lon="14.2007192"><ele>71.85714285714286</ele><time>2026-04-06T06:11:43.06Z</time></trkpt><trkpt lat="41.1742658" lon="14.2006518"><ele>71.71428571428572</ele><time>2026-04-06T06:11:46.027Z</time></trkpt><trkpt lat="41.1742036" lon="14.2005873"><ele>71.57142857142857</ele><time>2026-04-06T06:11:49.098Z</time></trkpt><trkpt lat="41.1741442" lon="14.2005214"><ele>71.42857142857143</ele><time>2026-04-06T06:11:52.103Z</time></trkpt><trkpt lat="41.1740818" lon="14.2004595"><ele>71.28571428571428</ele><time>2026-04-06T06:11:55.118Z</time></trkpt><trkpt lat="41.174029" lon="14.2004059"><ele>71.14285714285714</ele><time>2026-04-06T06:11:58.075Z</time></trkpt><trkpt lat="41.1739649" lon="14.2003676"><ele>71.0</ele><time>2026-04-06T06:12:01.094Z</time></trkpt><trkpt lat="41.1739017" lon="14.2003243"><ele>70.83333333333334</ele><time>2026-04-06T06:12:04.07Z</time></trkpt><trkpt lat="41.1738305" lon="14.2002725"><ele>70.66666666666667</ele><time>2026-04-06T06:12:07.145Z</time></trkpt><trkpt lat="41.1737677" lon="14.2002096"><ele>70.5</ele><time>2026-04-06T06:12:10.125Z</time></trkpt><trkpt lat="41.1737012" lon="14.2001503"><ele>70.33333333333333</ele><time>2026-04-06T06:12:13.104Z</time></trkpt><trkpt lat="41.1736272" lon="14.2001071"><ele>70.16666666666666</ele><time>2026-04-06T06:12:16.154Z</time></trkpt><trkpt lat="41.1735471" lon="14.2000653"><ele>70.0</ele><time>2026-04-06T06:12:19.083Z</time></trkpt><trkpt lat="41.1734724" lon="14.200035"><ele>70.0</ele><time>2026-04-06T06:12:22.107Z</time></trkpt><trkpt lat="41.173402" lon="14.2000165"><ele>70.0</ele><time>2026-04-06T06:12:25.072Z</time></trkpt><trkpt lat="41.1733289" lon="14.2000032"><ele>70.0</ele><time>2026-04-06T06:12:28.103Z</time></trkpt><trkpt lat="41.1732564" lon="14.1999629"><ele>70.0</ele><time>2026-04-06T06:12:31.071Z</time></trkpt><trkpt lat="41.1731706" lon="14.1999473"><ele>70.0</ele><time>2026-04-06T06:12:34.091Z</time></trkpt><trkpt lat="41.1730815" lon="14.1999467"><ele>70.0</ele><time>2026-04-06T06:12:37.09Z</time></trkpt><trkpt lat="41.1730075" lon="14.199946"><ele>69.71428571428571</ele><time>2026-04-06T06:12:40.083Z</time></trkpt><trkpt lat="41.1729365" lon="14.199959"><ele>69.42857142857143</ele><time>2026-04-06T06:12:43.103Z</time></trkpt><trkpt lat="41.1728635" lon="14.1999806"><ele>69.14285714285714</ele><time>2026-04-06T06:12:45.99Z</time></trkpt><trkpt lat="41.1727799" lon="14.2000063"><ele>68.85714285714286</ele><time>2026-04-06T06:12:49.083Z</time></trkpt><trkpt lat="41.1727135" lon="14.200039"><ele>68.57142857142857</ele><time>2026-04-06T06:12:52.028Z</time></trkpt><trkpt lat="41.1726455" lon="14.200074"><ele>68.28571428571428</ele><time>2026-04-06T06:12:55.077Z</time></trkpt><trkpt lat="41.1725786" lon="14.2000939"><ele>68.0</ele><time>2026-04-06T06:12:58.081Z</time></trkpt><trkpt lat="41.1725156" lon="14.2000947"><ele>67.99999999999999</ele><time>2026-04-06T06:13:00.969Z</time></trkpt><trkpt lat="41.1724415" lon="14.2001019"><ele>68.0</ele><time>2026-04-06T06:13:06.044Z</time></trkpt><trkpt lat="41.1723895" lon="14.2001551"><ele>68.0</ele><time>2026-04-06T06:13:10.096Z</time></trkpt><trkpt lat="41.1723251" lon="14.2001565"><ele>68.0</ele><time>2026-04-06T06:13:13.009Z</time></trkpt><trkpt lat="41.1722582" lon="14.2001751"><ele>68.0</ele><time>2026-04-06T06:13:16.087Z</time></trkpt><trkpt lat="41.1721784" lon="14.2001784"><ele>67.99999999999999</ele><time>2026-04-06T06:13:19.091Z</time></trkpt><trkpt lat="41.1720936" lon="14.2001868"><ele>68.0</ele><time>2026-04-06T06:13:22.111Z</time></trkpt><trkpt lat="41.1720037" lon="14.2002023"><ele>67.16666666666667</ele><time>2026-04-06T06:13:25.087Z</time></trkpt><trkpt lat="41.1719221" lon="14.2002181"><ele>66.33333333333334</ele><time>2026-04-06T06:13:28.068Z</time></trkpt><trkpt lat="41.171833" lon="14.2002345"><ele>65.5</ele><time>2026-04-06T06:13:31.095Z</time></trkpt><trkpt lat="41.1717582" lon="14.2002506"><ele>64.66666666666667</ele><time>2026-04-06T06:13:34.004Z</time></trkpt><trkpt lat="41.171676" lon="14.2002586"><ele>63.833333333333336</ele><time>2026-04-06T06:13:37.143Z</time></trkpt><trkpt lat="41.1715974" lon="14.2002695"><ele>63.0</ele><time>2026-04-06T06:13:40.098Z</time></trkpt><trkpt lat="41.1715154" lon="14.2002875"><ele>63.0</ele><time>2026-04-06T06:13:43.049Z</time></trkpt><trkpt lat="41.1714324" lon="14.2003167"><ele>63.0</ele><time>2026-04-06T06:13:46.12Z</time></trkpt><trkpt lat="41.1713552" lon="14.2003485"><ele>63.0</ele><time>2026-04-06T06:13:49.023Z</time></trkpt><trkpt lat="41.1712643" lon="14.2003857"><ele>63.0</ele><time>2026-04-06T06:13:52.083Z</time></trkpt><trkpt lat="41.1711783" lon="14.2004126"><ele>63.0</ele><time>2026-04-06T06:13:55.101Z</time></trkpt><trkpt lat="41.171099" lon="14.2004296"><ele>63.0</ele><time>2026-04-06T06:13:58.074Z</time></trkpt><trkpt lat="41.171021" lon="14.2004466"><ele>63.0</ele><time>2026-04-06T06:14:01.09Z</time></trkpt><trkpt lat="41.1709416" lon="14.2004656"><ele>63.0</ele><time>2026-04-06T06:14:04.063Z</time></trkpt><trkpt lat="41.1708538" lon="14.2004997"><ele>63.0</ele><time>2026-04-06T06:14:07.09Z</time></trkpt><trkpt lat="41.170775" lon="14.2005234"><ele>63.0</ele><time>2026-04-06T06:14:10.043Z</time></trkpt><trkpt lat="41.1707021" lon="14.2005497"><ele>63.0</ele><time>2026-04-06T06:14:13.07Z</time></trkpt><trkpt lat="41.1706223" lon="14.2005682"><ele>63.0</ele><time>2026-04-06T06:14:16.015Z</time></trkpt><trkpt lat="41.1705429" lon="14.2005886"><ele>62.285714285714285</ele><time>2026-04-06T06:14:18.852Z</time></trkpt><trkpt lat="41.1704717" lon="14.2006184"><ele>61.57142857142857</ele><time>2026-04-06T06:14:21.113Z</time></trkpt><trkpt lat="41.1704126" lon="14.2006494"><ele>60.85714285714286</ele><time>2026-04-06T06:14:23.044Z</time></trkpt><trkpt lat="41.1703432" lon="14.2006908"><ele>60.142857142857146</ele><time>2026-04-06T06:14:25.103Z</time></trkpt><trkpt lat="41.1702741" lon="14.2007162"><ele>59.42857142857143</ele><time>2026-04-06T06:14:27.096Z</time></trkpt><trkpt lat="41.1701886" lon="14.200758"><ele>58.71428571428572</ele><time>2026-04-06T06:14:30.046Z</time></trkpt><trkpt lat="41.1701327" lon="14.2008026"><ele>58.00000000000001</ele><time>2026-04-06T06:14:32.081Z</time></trkpt><trkpt lat="41.1700603" lon="14.200866"><ele>57.99999999999999</ele><time>2026-04-06T06:14:35.054Z</time></trkpt><trkpt lat="41.1699867" lon="14.2009374"><ele>58.0</ele><time>2026-04-06T06:14:38.1Z</time></trkpt><trkpt lat="41.1699217" lon="14.2010106"><ele>58.0</ele><time>2026-04-06T06:14:41.032Z</time></trkpt><trkpt lat="41.1698567" lon="14.2010783"><ele>58.0</ele><time>2026-04-06T06:14:44.081Z</time></trkpt><trkpt lat="41.1697964" lon="14.2011356"><ele>57.99999999999999</ele><time>2026-04-06T06:14:47.112Z</time></trkpt><trkpt lat="41.1697454" lon="14.2011995"><ele>58.0</ele><time>2026-04-06T06:14:50.066Z</time></trkpt><trkpt lat="41.1696992" lon="14.2012689"><ele>57.85714285714286</ele><time>2026-04-06T06:14:53.11Z</time></trkpt><trkpt lat="41.1696579" lon="14.2013335"><ele>57.714285714285715</ele><time>2026-04-06T06:14:56.085Z</time></trkpt><trkpt lat="41.1696186" lon="14.2014239"><ele>57.57142857142857</ele><time>2026-04-06T06:15:00.114Z</time></trkpt><trkpt lat="41.1695967" lon="14.2015182"><ele>57.42857142857143</ele><time>2026-04-06T06:15:03.966Z</time></trkpt><trkpt lat="41.1695524" lon="14.201585"><ele>57.28571428571428</ele><time>2026-04-06T06:15:07.08Z</time></trkpt><trkpt lat="41.1694972" lon="14.2016682"><ele>57.14285714285714</ele><time>2026-04-06T06:15:11.008Z</time></trkpt><trkpt lat="41.1694475" lon="14.2017313"><ele>57.0</ele><time>2026-04-06T06:15:14.104Z</time></trkpt><trkpt lat="41.1693991" lon="14.201795"><ele>56.857142857142854</ele><time>2026-04-06T06:15:17.008Z</time></trkpt><trkpt lat="41.1693438" lon="14.2018527"><ele>56.71428571428571</ele><time>2026-04-06T06:15:20.068Z</time></trkpt><trkpt lat="41.1692967" lon="14.2019206"><ele>56.57142857142857</ele><time>2026-04-06T06:15:23.051Z</time></trkpt><trkpt lat="41.1692494" lon="14.2019944"><ele>56.42857142857143</ele><time>2026-04-06T06:15:26.064Z</time></trkpt><trkpt lat="41.1691828" lon="14.202057"><ele>56.285714285714285</ele><time>2026-04-06T06:15:29.002Z</time></trkpt><trkpt lat="41.1691267" lon="14.2020995"><ele>56.14285714285714</ele><time>2026-04-06T06:15:31.125Z</time></trkpt><trkpt lat="41.1690643" lon="14.20214"><ele>56.0</ele><time>2026-04-06T06:15:33.088Z</time></trkpt><trkpt lat="41.1689835" lon="14.2022037"><ele>56.00000000000001</ele><time>2026-04-06T06:15:36.082Z</time></trkpt><trkpt lat="41.1689195" lon="14.2022316"><ele>56.0</ele><time>2026-04-06T06:15:38.105Z</time></trkpt><trkpt lat="41.1688424" lon="14.2022688"><ele>56.0</ele><time>2026-04-06T06:15:41.049Z</time></trkpt><trkpt lat="41.1687836" lon="14.2023034"><ele>56.0</ele><time>2026-04-06T06:15:43.098Z</time></trkpt><trkpt lat="41.1687168" lon="14.2023684"><ele>56.00000000000001</ele><time>2026-04-06T06:15:46.072Z</time></trkpt><trkpt lat="41.1686478" lon="14.2024444"><ele>56.0</ele><time>2026-04-06T06:15:49.123Z</time></trkpt><trkpt lat="41.1685771" lon="14.2025142"><ele>56.42857142857143</ele><time>2026-04-06T06:15:52.009Z</time></trkpt><trkpt lat="41.1685206" lon="14.2025706"><ele>56.85714285714286</ele><time>2026-04-06T06:15:54.154Z</time></trkpt><trkpt lat="41.1684581" lon="14.2026381"><ele>57.285714285714285</ele><time>2026-04-06T06:15:56.065Z</time></trkpt><trkpt lat="41.1684103" lon="14.2027035"><ele>57.714285714285715</ele><time>2026-04-06T06:15:58.072Z</time></trkpt><trkpt lat="41.1683578" lon="14.2027708"><ele>58.142857142857146</ele><time>2026-04-06T06:16:00.103Z</time></trkpt><trkpt lat="41.1683119" lon="14.2028322"><ele>58.57142857142857</ele><time>2026-04-06T06:16:02.092Z</time></trkpt><trkpt lat="41.1682663" lon="14.2028915"><ele>59.0</ele><time>2026-04-06T06:16:04.065Z</time></trkpt><trkpt lat="41.1682095" lon="14.2029756"><ele>58.833333333333336</ele><time>2026-04-06T06:16:07.098Z</time></trkpt><trkpt lat="41.1681548" lon="14.2030593"><ele>58.66666666666667</ele><time>2026-04-06T06:16:10.06Z</time></trkpt><trkpt lat="41.1681004" lon="14.2031376"><ele>58.5</ele><time>2026-04-06T06:16:13.061Z</time></trkpt><trkpt lat="41.1680345" lon="14.2031889"><ele>58.33333333333333</ele><time>2026-04-06T06:16:15.985Z</time></trkpt><trkpt lat="41.1679559" lon="14.2031988"><ele>58.166666666666664</ele><time>2026-04-06T06:16:19.071Z</time></trkpt><trkpt lat="41.167903" lon="14.2032651"><ele>58.0</ele><time>2026-04-06T06:16:22.082Z</time></trkpt><trkpt lat="41.1678521" lon="14.203339"><ele>57.99999999999999</ele><time>2026-04-06T06:16:25.079Z</time></trkpt><trkpt lat="41.1678008" lon="14.2034235"><ele>58.0</ele><time>2026-04-06T06:16:28.096Z</time></trkpt><trkpt lat="41.1677543" lon="14.2035169"><ele>58.0</ele><time>2026-04-06T06:16:31.141Z</time></trkpt><trkpt lat="41.1677123" lon="14.2036172"><ele>58.0</ele><time>2026-04-06T06:16:34.092Z</time></trkpt><trkpt lat="41.16766" lon="14.2037143"><ele>57.99999999999999</ele><time>2026-04-06T06:16:37.079Z</time></trkpt><trkpt lat="41.1676019" lon="14.2037956"><ele>58.0</ele><time>2026-04-06T06:16:40.081Z</time></trkpt><trkpt lat="41.1675493" lon="14.2038718"><ele>57.99999999999999</ele><time>2026-04-06T06:16:43.088Z</time></trkpt><trkpt lat="41.1674964" lon="14.2039426"><ele>58.0</ele><time>2026-04-06T06:16:46.125Z</time></trkpt><trkpt lat="41.1674466" lon="14.2040116"><ele>58.0</ele><time>2026-04-06T06:16:49.012Z</time></trkpt><trkpt lat="41.1673927" lon="14.2040832"><ele>58.0</ele><time>2026-04-06T06:16:52.093Z</time></trkpt><trkpt lat="41.1673424" lon="14.2041617"><ele>57.99999999999999</ele><time>2026-04-06T06:16:55.01Z</time></trkpt><trkpt lat="41.1672933" lon="14.2042568"><ele>58.0</ele><time>2026-04-06T06:16:58.089Z</time></trkpt><trkpt lat="41.1672488" lon="14.2043496"><ele>57.99999999999999</ele><time>2026-04-06T06:17:00.99Z</time></trkpt><trkpt lat="41.1671976" lon="14.2044496"><ele>58.0</ele><time>2026-04-06T06:17:04.109Z</time></trkpt><trkpt lat="41.1671525" lon="14.2045333"><ele>58.0</ele><time>2026-04-06T06:17:07.005Z</time></trkpt><trkpt lat="41.1670949" lon="14.2046074"><ele>58.0</ele><time>2026-04-06T06:17:10.098Z</time></trkpt><trkpt lat="41.167047" lon="14.2046803"><ele>57.99999999999999</ele><time>2026-04-06T06:17:13.034Z</time></trkpt><trkpt lat="41.1670048" lon="14.2047605"><ele>58.0</ele><time>2026-04-06T06:17:16.121Z</time></trkpt><trkpt lat="41.166956" lon="14.2048399"><ele>58.33333333333333</ele><time>2026-04-06T06:17:19.059Z</time></trkpt><trkpt lat="41.1668957" lon="14.204927"><ele>58.666666666666664</ele><time>2026-04-06T06:17:22.103Z</time></trkpt><trkpt lat="41.1668374" lon="14.2050062"><ele>59.0</ele><time>2026-04-06T06:17:25.104Z</time></trkpt><trkpt lat="41.1667806" lon="14.2050767"><ele>59.33333333333333</ele><time>2026-04-06T06:17:28.075Z</time></trkpt><trkpt lat="41.1667367" lon="14.2051411"><ele>59.666666666666664</ele><time>2026-04-06T06:17:31.01Z</time></trkpt><trkpt lat="41.1666854" lon="14.2052294"><ele>60.0</ele><time>2026-04-06T06:17:34.115Z</time></trkpt><trkpt lat="41.1666351" lon="14.2053087"><ele>60.0</ele><time>2026-04-06T06:17:37.09Z</time></trkpt><trkpt lat="41.1665883" lon="14.2053906"><ele>60.0</ele><time>2026-04-06T06:17:40.102Z</time></trkpt><trkpt lat="41.1665398" lon="14.2054688"><ele>60.0</ele><time>2026-04-06T06:17:43.051Z</time></trkpt><trkpt lat="41.1664887" lon="14.2055467"><ele>60.0</ele><time>2026-04-06T06:17:46.074Z</time></trkpt><trkpt lat="41.1664408" lon="14.2056201"><ele>60.0</ele><time>2026-04-06T06:17:49.045Z</time></trkpt><trkpt lat="41.1663832" lon="14.2057088"><ele>60.0</ele><time>2026-04-06T06:17:52.098Z</time></trkpt><trkpt lat="41.1663389" lon="14.2057781"><ele>60.0</ele><time>2026-04-06T06:17:55.078Z</time></trkpt><trkpt lat="41.166277" lon="14.205856"><ele>60.0</ele><time>2026-04-06T06:17:58.112Z</time></trkpt><trkpt lat="41.1662221" lon="14.2059375"><ele>60.0</ele><time>2026-04-06T06:18:01.092Z</time></trkpt><trkpt lat="41.1661778" lon="14.20602"><ele>60.0</ele><time>2026-04-06T06:18:04.11Z</time></trkpt><trkpt lat="41.1661345" lon="14.2060847"><ele>60.0</ele><time>2026-04-06T06:18:06.709Z</time></trkpt><trkpt lat="41.1660939" lon="14.2061487"><ele>60.0</ele><time>2026-04-06T06:18:09.106Z</time></trkpt><trkpt lat="41.1660425" lon="14.2062286"><ele>60.0</ele><time>2026-04-06T06:18:12.097Z</time></trkpt><trkpt lat="41.1660034" lon="14.2063073"><ele>60.0</ele><time>2026-04-06T06:18:15.023Z</time></trkpt><trkpt lat="41.1659672" lon="14.2063963"><ele>60.0</ele><time>2026-04-06T06:18:18.135Z</time></trkpt><trkpt lat="41.1659324" lon="14.2064865"><ele>60.0</ele><time>2026-04-06T06:18:21.096Z</time></trkpt><trkpt lat="41.1658972" lon="14.2065846"><ele>60.0</ele><time>2026-04-06T06:18:24.112Z</time></trkpt><trkpt lat="41.1658552" lon="14.2066771"><ele>60.0</ele><time>2026-04-06T06:18:27.082Z</time></trkpt><trkpt lat="41.1658082" lon="14.2067723"><ele>59.833333333333336</ele><time>2026-04-06T06:18:30.102Z</time></trkpt><trkpt lat="41.1657693" lon="14.206868"><ele>59.66666666666667</ele><time>2026-04-06T06:18:33.111Z</time></trkpt><trkpt lat="41.165741" lon="14.2069729"><ele>59.5</ele><time>2026-04-06T06:18:36.114Z</time></trkpt><trkpt lat="41.1657035" lon="14.2070614"><ele>59.333333333333336</ele><time>2026-04-06T06:18:39.078Z</time></trkpt><trkpt lat="41.1656716" lon="14.2071418"><ele>59.16666666666667</ele><time>2026-04-06T06:18:42.004Z</time></trkpt><trkpt lat="41.1656334" lon="14.2072317"><ele>59.0</ele><time>2026-04-06T06:18:45.111Z</time></trkpt><trkpt lat="41.1655994" lon="14.2073188"><ele>59.333333333333336</ele><time>2026-04-06T06:18:48.118Z</time></trkpt><trkpt lat="41.1655704" lon="14.2074112"><ele>59.66666666666667</ele><time>2026-04-06T06:18:51.077Z</time></trkpt><trkpt lat="41.1655397" lon="14.207513"><ele>60.0</ele><time>2026-04-06T06:18:54.117Z</time></trkpt><trkpt lat="41.1655167" lon="14.2076144"><ele>60.33333333333333</ele><time>2026-04-06T06:18:57.068Z</time></trkpt><trkpt lat="41.1654937" lon="14.2077161"><ele>60.666666666666664</ele><time>2026-04-06T06:19:00.063Z</time></trkpt><trkpt lat="41.165467" lon="14.2078045"><ele>61.0</ele><time>2026-04-06T06:19:03.101Z</time></trkpt><trkpt lat="41.1654454" lon="14.2078884"><ele>60.99999999999999</ele><time>2026-04-06T06:19:06.11Z</time></trkpt><trkpt lat="41.1654236" lon="14.207972"><ele>61.0</ele><time>2026-04-06T06:19:09.108Z</time></trkpt><trkpt lat="41.1654082" lon="14.2080831"><ele>61.0</ele><time>2026-04-06T06:19:12.139Z</time></trkpt><trkpt lat="41.1653823" lon="14.2081831"><ele>61.0</ele><time>2026-04-06T06:19:15.063Z</time></trkpt><trkpt lat="41.1653571" lon="14.2082873"><ele>60.99999999999999</ele><time>2026-04-06T06:19:18.109Z</time></trkpt><trkpt lat="41.1653254" lon="14.2083948"><ele>61.0</ele><time>2026-04-06T06:19:21.085Z</time></trkpt><trkpt lat="41.1652992" lon="14.2085012"><ele>61.33333333333333</ele><time>2026-04-06T06:19:24.111Z</time></trkpt><trkpt lat="41.1652834" lon="14.208617"><ele>61.666666666666664</ele><time>2026-04-06T06:19:26.103Z</time></trkpt><trkpt lat="41.1652663" lon="14.2087321"><ele>62.0</ele><time>2026-04-06T06:19:29.012Z</time></trkpt><trkpt lat="41.1652586" lon="14.2088176"><ele>62.33333333333333</ele><time>2026-04-06T06:19:31.064Z</time></trkpt><trkpt lat="41.1652428" lon="14.2089324"><ele>62.666666666666664</ele><time>2026-04-06T06:19:33.991Z</time></trkpt><trkpt lat="41.1652351" lon="14.2090198"><ele>63.0</ele><time>2026-04-06T06:19:36.078Z</time></trkpt><trkpt lat="41.1652146" lon="14.2091322"><ele>63.166666666666664</ele><time>2026-04-06T06:19:39.075Z</time></trkpt><trkpt lat="41.1651812" lon="14.2092329"><ele>63.33333333333333</ele><time>2026-04-06T06:19:42.067Z</time></trkpt><trkpt lat="41.1651496" lon="14.2093333"><ele>63.5</ele><time>2026-04-06T06:19:45.068Z</time></trkpt><trkpt lat="41.1651188" lon="14.209432"><ele>63.666666666666664</ele><time>2026-04-06T06:19:48.095Z</time></trkpt><trkpt lat="41.1650832" lon="14.2095214"><ele>63.83333333333333</ele><time>2026-04-06T06:19:51.091Z</time></trkpt><trkpt lat="41.1650533" lon="14.2096295"><ele>64.0</ele><time>2026-04-06T06:19:54.099Z</time></trkpt><trkpt lat="41.1650339" lon="14.2097122"><ele>63.99999999999999</ele><time>2026-04-06T06:19:56.045Z</time></trkpt><trkpt lat="41.1650147" lon="14.2097963"><ele>64.0</ele><time>2026-04-06T06:19:58.132Z</time></trkpt><trkpt lat="41.1649921" lon="14.209913"><ele>64.0</ele><time>2026-04-06T06:20:01.103Z</time></trkpt><trkpt lat="41.164972" lon="14.2100164"><ele>64.0</ele><time>2026-04-06T06:20:04.033Z</time></trkpt><trkpt lat="41.1649414" lon="14.2101318"><ele>63.99999999999999</ele><time>2026-04-06T06:20:07.081Z</time></trkpt><trkpt lat="41.16491" lon="14.2102339"><ele>64.0</ele><time>2026-04-06T06:20:10.063Z</time></trkpt><trkpt lat="41.1648833" lon="14.210336"><ele>63.49999999999999</ele><time>2026-04-06T06:20:13.128Z</time></trkpt><trkpt lat="41.1648612" lon="14.2104348"><ele>63.0</ele><time>2026-04-06T06:20:16.028Z</time></trkpt><trkpt lat="41.1648394" lon="14.2105368"><ele>62.5</ele><time>2026-04-06T06:20:19.094Z</time></trkpt><trkpt lat="41.1648205" lon="14.2106333"><ele>62.0</ele><time>2026-04-06T06:20:22.03Z</time></trkpt><trkpt lat="41.1647947" lon="14.2107432"><ele>61.49999999999999</ele><time>2026-04-06T06:20:25.102Z</time></trkpt><trkpt lat="41.1647519" lon="14.2108307"><ele>61.0</ele><time>2026-04-06T06:20:28.052Z</time></trkpt><trkpt lat="41.1647091" lon="14.2109393"><ele>60.99999999999999</ele><time>2026-04-06T06:20:31.092Z</time></trkpt><trkpt lat="41.1646827" lon="14.2110351"><ele>61.0</ele><time>2026-04-06T06:20:34.03Z</time></trkpt><trkpt lat="41.1646553" lon="14.2111323"><ele>61.0</ele><time>2026-04-06T06:20:37.085Z</time></trkpt><trkpt lat="41.164623" lon="14.2112232"><ele>61.0</ele><time>2026-04-06T06:20:40.023Z</time></trkpt><trkpt lat="41.1645919" lon="14.2113143"><ele>60.99999999999999</ele><time>2026-04-06T06:20:43.085Z</time></trkpt><trkpt lat="41.1645702" lon="14.2114104"><ele>61.0</ele><time>2026-04-06T06:20:45.992Z</time></trkpt><trkpt lat="41.1645471" lon="14.2115103"><ele>61.33333333333333</ele><time>2026-04-06T06:20:49.086Z</time></trkpt><trkpt lat="41.1645184" lon="14.2116124"><ele>61.666666666666664</ele><time>2026-04-06T06:20:52.075Z</time></trkpt><trkpt lat="41.1644974" lon="14.2117103"><ele>62.0</ele><time>2026-04-06T06:20:55.056Z</time></trkpt><trkpt lat="41.1644716" lon="14.2118255"><ele>62.33333333333333</ele><time>2026-04-06T06:20:58.089Z</time></trkpt><trkpt lat="41.1644548" lon="14.2119272"><ele>62.666666666666664</ele><time>2026-04-06T06:21:02.08Z</time></trkpt><trkpt lat="41.1644495" lon="14.2120362"><ele>63.0</ele><time>2026-04-06T06:21:05.078Z</time></trkpt><trkpt lat="41.1644258" lon="14.2121401"><ele>63.0</ele><time>2026-04-06T06:21:09.094Z</time></trkpt><trkpt lat="41.1644077" lon="14.2122256"><ele>63.0</ele><time>2026-04-06T06:21:12.108Z</time></trkpt><trkpt lat="41.1643899" lon="14.21231"><ele>63.0</ele><time>2026-04-06T06:21:15.06Z</time></trkpt><trkpt lat="41.164389" lon="14.2123994"><ele>63.0</ele><time>2026-04-06T06:21:18.104Z</time></trkpt><trkpt lat="41.1644009" lon="14.2124898"><ele>63.0</ele><time>2026-04-06T06:21:21.082Z</time></trkpt><trkpt lat="41.1644206" lon="14.2125851"><ele>63.0</ele><time>2026-04-06T06:21:24.113Z</time></trkpt><trkpt lat="41.1644145" lon="14.2126886"><ele>63.0</ele><time>2026-04-06T06:21:27.064Z</time></trkpt><trkpt lat="41.1644154" lon="14.2127935"><ele>63.0</ele><time>2026-04-06T06:21:30.099Z</time></trkpt><trkpt lat="41.1644401" lon="14.2128895"><ele>63.0</ele><time>2026-04-06T06:21:33.082Z</time></trkpt><trkpt lat="41.1644591" lon="14.2129879"><ele>63.0</ele><time>2026-04-06T06:21:36.078Z</time></trkpt><trkpt lat="41.1644859" lon="14.2130691"><ele>63.0</ele><time>2026-04-06T06:21:39.048Z</time></trkpt><trkpt lat="41.1645005" lon="14.2131552"><ele>63.0</ele><time>2026-04-06T06:21:42.109Z</time></trkpt><trkpt lat="41.164505" lon="14.213246"><ele>63.0</ele><time>2026-04-06T06:21:45.062Z</time></trkpt><trkpt lat="41.1645059" lon="14.2133328"><ele>63.0</ele><time>2026-04-06T06:21:48.1Z</time></trkpt><trkpt lat="41.1645039" lon="14.2134226"><ele>63.0</ele><time>2026-04-06T06:21:51.111Z</time></trkpt><trkpt lat="41.1644892" lon="14.2135095"><ele>63.0</ele><time>2026-04-06T06:21:53.99Z</time></trkpt><trkpt lat="41.1644707" lon="14.2136004"><ele>63.0</ele><time>2026-04-06T06:21:57.105Z</time></trkpt><trkpt lat="41.1644467" lon="14.2136837"><ele>63.0</ele><time>2026-04-06T06:22:00.03Z</time></trkpt><trkpt lat="41.1644432" lon="14.2137684"><ele>63.0</ele><time>2026-04-06T06:22:03.089Z</time></trkpt><trkpt lat="41.1644429" lon="14.2138636"><ele>63.0</ele><time>2026-04-06T06:22:07.083Z</time></trkpt><trkpt lat="41.16443" lon="14.2139476"><ele>63.0</ele><time>2026-04-06T06:22:10.111Z</time></trkpt><trkpt lat="41.1643927" lon="14.2140447"><ele>63.14285714285714</ele><time>2026-04-06T06:22:14.044Z</time></trkpt><trkpt lat="41.164329" lon="14.2141059"><ele>63.285714285714285</ele><time>2026-04-06T06:22:17.077Z</time></trkpt><trkpt lat="41.1642832" lon="14.2141761"><ele>63.42857142857143</ele><time>2026-04-06T06:22:20.085Z</time></trkpt><trkpt lat="41.164223" lon="14.2142081"><ele>63.57142857142857</ele><time>2026-04-06T06:22:22.075Z</time></trkpt><trkpt lat="41.1641602" lon="14.2142761"><ele>63.71428571428571</ele><time>2026-04-06T06:22:24.978Z</time></trkpt><trkpt lat="41.1641189" lon="14.2143656"><ele>63.857142857142854</ele><time>2026-04-06T06:22:28.088Z</time></trkpt><trkpt lat="41.1640918" lon="14.214459"><ele>64.0</ele><time>2026-04-06T06:22:31.023Z</time></trkpt><trkpt lat="41.164072" lon="14.2145674"><ele>63.99999999999999</ele><time>2026-04-06T06:22:34.086Z</time></trkpt><trkpt lat="41.1640571" lon="14.2146729"><ele>64.0</ele><time>2026-04-06T06:22:37.05Z</time></trkpt><trkpt lat="41.1640392" lon="14.2147806"><ele>64.0</ele><time>2026-04-06T06:22:40.08Z</time></trkpt><trkpt lat="41.1640279" lon="14.2148946"><ele>64.0</ele><time>2026-04-06T06:22:43.068Z</time></trkpt><trkpt lat="41.1640181" lon="14.2150112"><ele>63.99999999999999</ele><time>2026-04-06T06:22:46.101Z</time></trkpt><trkpt lat="41.1640072" lon="14.2151193"><ele>64.0</ele><time>2026-04-06T06:22:49.091Z</time></trkpt><trkpt lat="41.1639961" lon="14.2152187"><ele>63.857142857142854</ele><time>2026-04-06T06:22:52.034Z</time></trkpt><trkpt lat="41.1639811" lon="14.2153126"><ele>63.71428571428571</ele><time>2026-04-06T06:22:55.093Z</time></trkpt><trkpt lat="41.1639776" lon="14.2154074"><ele>63.57142857142857</ele><time>2026-04-06T06:22:58.086Z</time></trkpt><trkpt lat="41.1640111" lon="14.2154787"><ele>63.42857142857143</ele><time>2026-04-06T06:23:00.059Z</time></trkpt><trkpt lat="41.1640404" lon="14.2155767"><ele>63.285714285714285</ele><time>2026-04-06T06:23:03.089Z</time></trkpt><trkpt lat="41.1640441" lon="14.2156792"><ele>63.14285714285714</ele><time>2026-04-06T06:23:06.075Z</time></trkpt><trkpt lat="41.1640471" lon="14.2157755"><ele>63.0</ele><time>2026-04-06T06:23:09.089Z</time></trkpt><trkpt lat="41.1640445" lon="14.215868"><ele>63.166666666666664</ele><time>2026-04-06T06:23:12.005Z</time></trkpt><trkpt lat="41.1639733" lon="14.2159338"><ele>63.33333333333333</ele><time>2026-04-06T06:23:14.099Z</time></trkpt><trkpt lat="41.1639353" lon="14.2160223"><ele>63.5</ele><time>2026-04-06T06:23:17.083Z</time></trkpt><trkpt lat="41.1639134" lon="14.2161117"><ele>63.666666666666664</ele><time>2026-04-06T06:23:20.053Z</time></trkpt><trkpt lat="41.1638888" lon="14.2162006"><ele>63.83333333333333</ele><time>2026-04-06T06:23:23.072Z</time></trkpt><trkpt lat="41.1638767" lon="14.2162974"><ele>64.0</ele><time>2026-04-06T06:23:26.104Z</time></trkpt><trkpt lat="41.1638624" lon="14.2163892"><ele>63.83333333333333</ele><time>2026-04-06T06:23:29.074Z</time></trkpt><trkpt lat="41.1638436" lon="14.2164936"><ele>63.666666666666664</ele><time>2026-04-06T06:23:32.096Z</time></trkpt><trkpt lat="41.1638177" lon="14.2165915"><ele>63.5</ele><time>2026-04-06T06:23:35.103Z</time></trkpt><trkpt lat="41.1637778" lon="14.2166881"><ele>63.33333333333333</ele><time>2026-04-06T06:23:38.083Z</time></trkpt><trkpt lat="41.1637285" lon="14.2167759"><ele>63.166666666666664</ele><time>2026-04-06T06:23:41.13Z</time></trkpt><trkpt lat="41.1636983" lon="14.2168682"><ele>63.0</ele><time>2026-04-06T06:23:44.054Z</time></trkpt><trkpt lat="41.1636767" lon="14.2169668"><ele>63.0</ele><time>2026-04-06T06:23:47.074Z</time></trkpt><trkpt lat="41.1636488" lon="14.2170509"><ele>63.0</ele><time>2026-04-06T06:23:50.012Z</time></trkpt><trkpt lat="41.1636219" lon="14.2171359"><ele>63.0</ele><time>2026-04-06T06:23:53.071Z</time></trkpt><trkpt lat="41.1635957" lon="14.2172151"><ele>63.0</ele><time>2026-04-06T06:23:56.075Z</time></trkpt><trkpt lat="41.1635767" lon="14.2172999"><ele>63.0</ele><time>2026-04-06T06:23:59.087Z</time></trkpt><trkpt lat="41.1635644" lon="14.217391"><ele>63.0</ele><time>2026-04-06T06:24:02.11Z</time></trkpt><trkpt lat="41.1635519" lon="14.2174814"><ele>63.0</ele><time>2026-04-06T06:24:05.071Z</time></trkpt><trkpt lat="41.1635381" lon="14.2175757"><ele>63.0</ele><time>2026-04-06T06:24:08.075Z</time></trkpt><trkpt lat="41.1635264" lon="14.21767"><ele>63.0</ele><time>2026-04-06T06:24:11.125Z</time></trkpt><trkpt lat="41.1635565" lon="14.2177458"><ele>63.0</ele><time>2026-04-06T06:24:14.096Z</time></trkpt><trkpt lat="41.1635598" lon="14.2178376"><ele>63.0</ele><time>2026-04-06T06:24:17.112Z</time></trkpt><trkpt lat="41.1635655" lon="14.2179268"><ele>63.0</ele><time>2026-04-06T06:24:20.081Z</time></trkpt><trkpt lat="41.1635606" lon="14.2180232"><ele>63.0</ele><time>2026-04-06T06:24:23.075Z</time></trkpt><trkpt lat="41.1635148" lon="14.2181394"><ele>63.0</ele><time>2026-04-06T06:24:26.084Z</time></trkpt><trkpt lat="41.1634953" lon="14.2182606"><ele>63.57142857142857</ele><time>2026-04-06T06:24:29.035Z</time></trkpt><trkpt lat="41.1634922" lon="14.2183499"><ele>64.14285714285714</ele><time>2026-04-06T06:24:31.044Z</time></trkpt><trkpt lat="41.1634912" lon="14.2184721"><ele>64.71428571428572</ele><time>2026-04-06T06:24:34.091Z</time></trkpt><trkpt lat="41.1635163" lon="14.2185565"><ele>65.28571428571428</ele><time>2026-04-06T06:24:36.092Z</time></trkpt><trkpt lat="41.1635433" lon="14.2186349"><ele>65.85714285714286</ele><time>2026-04-06T06:24:38.028Z</time></trkpt><trkpt lat="41.1635656" lon="14.2187289"><ele>66.42857142857143</ele><time>2026-04-06T06:24:40.071Z</time></trkpt><trkpt lat="41.163571" lon="14.2188216"><ele>67.0</ele><time>2026-04-06T06:24:42.059Z</time></trkpt><trkpt lat="41.1635769" lon="14.2189331"><ele>67.0</ele><time>2026-04-06T06:24:45.045Z</time></trkpt><trkpt lat="41.1635833" lon="14.2190431"><ele>67.0</ele><time>2026-04-06T06:24:48.067Z</time></trkpt><trkpt lat="41.163591" lon="14.2191619"><ele>67.0</ele><time>2026-04-06T06:24:51.08Z</time></trkpt><trkpt lat="41.1636014" lon="14.2192792"><ele>67.0</ele><time>2026-04-06T06:24:54.022Z</time></trkpt><trkpt lat="41.1636101" lon="14.2193676"><ele>67.0</ele><time>2026-04-06T06:24:56.058Z</time></trkpt><trkpt lat="41.1635983" lon="14.2194535"><ele>67.0</ele><time>2026-04-06T06:24:58.064Z</time></trkpt><trkpt lat="41.1635436" lon="14.2195433"><ele>67.0</ele><time>2026-04-06T06:25:00.076Z</time></trkpt><trkpt lat="41.1635025" lon="14.2196297"><ele>67.0</ele><time>2026-04-06T06:25:02.065Z</time></trkpt><trkpt lat="41.1635" lon="14.2197346"><ele>67.0</ele><time>2026-04-06T06:25:05.089Z</time></trkpt><trkpt lat="41.1634247" lon="14.2198999"><ele>67.0</ele><time>2026-04-06T06:25:08.075Z</time></trkpt><trkpt lat="41.1634045" lon="14.2200208"><ele>67.0</ele><time>2026-04-06T06:25:11.083Z</time></trkpt><trkpt lat="41.1633635" lon="14.2200982"><ele>66.85714285714286</ele><time>2026-04-06T06:25:13.072Z</time></trkpt><trkpt lat="41.1633168" lon="14.2201665"><ele>66.71428571428571</ele><time>2026-04-06T06:25:15.056Z</time></trkpt><trkpt lat="41.1632776" lon="14.2202347"><ele>66.57142857142857</ele><time>2026-04-06T06:25:17.058Z</time></trkpt><trkpt lat="41.1632467" lon="14.2203174"><ele>66.42857142857143</ele><time>2026-04-06T06:25:19.147Z</time></trkpt><trkpt lat="41.1632195" lon="14.2204076"><ele>66.28571428571429</ele><time>2026-04-06T06:25:21.109Z</time></trkpt><trkpt lat="41.1631883" lon="14.2204828"><ele>66.14285714285714</ele><time>2026-04-06T06:25:22.994Z</time></trkpt><trkpt lat="41.1631509" lon="14.2205705"><ele>66.0</ele><time>2026-04-06T06:25:25.104Z</time></trkpt><trkpt lat="41.163113" lon="14.2206682"><ele>65.5</ele><time>2026-04-06T06:25:27.12Z</time></trkpt><trkpt lat="41.1630952" lon="14.2207735"><ele>65.0</ele><time>2026-04-06T06:25:30.063Z</time></trkpt><trkpt lat="41.163101" lon="14.2208808"><ele>64.5</ele><time>2026-04-06T06:25:33.132Z</time></trkpt><trkpt lat="41.1631123" lon="14.2209821"><ele>64.0</ele><time>2026-04-06T06:25:36.029Z</time></trkpt><trkpt lat="41.1631296" lon="14.2211148"><ele>63.5</ele><time>2026-04-06T06:25:39.112Z</time></trkpt><trkpt lat="41.1631356" lon="14.2212166"><ele>63.0</ele><time>2026-04-06T06:25:41.086Z</time></trkpt><trkpt lat="41.1631371" lon="14.2213004"><ele>63.0</ele><time>2026-04-06T06:25:43.095Z</time></trkpt><trkpt lat="41.1631296" lon="14.2214201"><ele>63.0</ele><time>2026-04-06T06:25:46.095Z</time></trkpt><trkpt lat="41.1631192" lon="14.2215289"><ele>63.0</ele><time>2026-04-06T06:25:49.082Z</time></trkpt><trkpt lat="41.1631199" lon="14.2216258"><ele>63.0</ele><time>2026-04-06T06:25:52.126Z</time></trkpt><trkpt lat="41.1631229" lon="14.2217233"><ele>63.0</ele><time>2026-04-06T06:25:55.077Z</time></trkpt><trkpt lat="41.1631312" lon="14.2218279"><ele>63.0</ele><time>2026-04-06T06:25:58.132Z</time></trkpt><trkpt lat="41.1631484" lon="14.2219246"><ele>63.0</ele><time>2026-04-06T06:26:01.087Z</time></trkpt><trkpt lat="41.1631632" lon="14.2220222"><ele>63.0</ele><time>2026-04-06T06:26:04.107Z</time></trkpt><trkpt lat="41.1631485" lon="14.2221085"><ele>63.0</ele><time>2026-04-06T06:26:07.127Z</time></trkpt><trkpt lat="41.1631217" lon="14.2221901"><ele>63.0</ele><time>2026-04-06T06:26:10.095Z</time></trkpt><trkpt lat="41.1631258" lon="14.2222879"><ele>63.0</ele><time>2026-04-06T06:26:13.065Z</time></trkpt><trkpt lat="41.1631445" lon="14.2223705"><ele>63.0</ele><time>2026-04-06T06:26:15.57Z</time></trkpt><trkpt lat="41.163161" lon="14.2224771"><ele>63.0</ele><time>2026-04-06T06:26:19.067Z</time></trkpt><trkpt lat="41.1631795" lon="14.2225662"><ele>63.0</ele><time>2026-04-06T06:26:22.07Z</time></trkpt><trkpt lat="41.1631717" lon="14.2226635"><ele>63.0</ele><time>2026-04-06T06:26:26.062Z</time></trkpt><trkpt lat="41.1631716" lon="14.2227555"><ele>63.0</ele><time>2026-04-06T06:26:30.007Z</time></trkpt><trkpt lat="41.1631697" lon="14.2228394"><ele>63.0</ele><time>2026-04-06T06:26:33.087Z</time></trkpt><trkpt lat="41.1631817" lon="14.2229494"><ele>63.0</ele><time>2026-04-06T06:26:36.095Z</time></trkpt><trkpt lat="41.1631937" lon="14.2230664"><ele>63.0</ele><time>2026-04-06T06:26:39.153Z</time></trkpt><trkpt lat="41.1632021" lon="14.2231734"><ele>63.57142857142857</ele><time>2026-04-06T06:26:42.072Z</time></trkpt><trkpt lat="41.1632173" lon="14.2232913"><ele>64.14285714285714</ele><time>2026-04-06T06:26:45.031Z</time></trkpt><trkpt lat="41.1632352" lon="14.2233808"><ele>64.71428571428572</ele><time>2026-04-06T06:26:47.086Z</time></trkpt><trkpt lat="41.1632525" lon="14.2234666"><ele>65.28571428571428</ele><time>2026-04-06T06:26:49.074Z</time></trkpt><trkpt lat="41.1632701" lon="14.2235863"><ele>65.85714285714286</ele><time>2026-04-06T06:26:52.064Z</time></trkpt><trkpt lat="41.1632757" lon="14.2236711"><ele>66.42857142857143</ele><time>2026-04-06T06:26:54.134Z</time></trkpt><trkpt lat="41.1632845" lon="14.2237568"><ele>67.0</ele><time>2026-04-06T06:26:56.09Z</time></trkpt><trkpt lat="41.163328" lon="14.2238888"><ele>67.0</ele><time>2026-04-06T06:26:59.127Z</time></trkpt><trkpt lat="41.163358" lon="14.2239731"><ele>67.0</ele><time>2026-04-06T06:27:01.089Z</time></trkpt><trkpt lat="41.1633754" lon="14.2240859"><ele>67.0</ele><time>2026-04-06T06:27:04.05Z</time></trkpt><trkpt lat="41.1633792" lon="14.2241701"><ele>67.0</ele><time>2026-04-06T06:27:06.122Z</time></trkpt><trkpt lat="41.1633742" lon="14.2242575"><ele>67.0</ele><time>2026-04-06T06:27:08.096Z</time></trkpt><trkpt lat="41.1633849" lon="14.2243538"><ele>67.0</ele><time>2026-04-06T06:27:10.081Z</time></trkpt><trkpt lat="41.1633933" lon="14.2244777"><ele>67.0</ele><time>2026-04-06T06:27:13.033Z</time></trkpt><trkpt lat="41.1634042" lon="14.2245654"><ele>67.0</ele><time>2026-04-06T06:27:15.091Z</time></trkpt><trkpt lat="41.163425" lon="14.2246776"><ele>67.0</ele><time>2026-04-06T06:27:18.054Z</time></trkpt><trkpt lat="41.1634386" lon="14.2247641"><ele>67.0</ele><time>2026-04-06T06:27:20.079Z</time></trkpt><trkpt lat="41.1634418" lon="14.2248847"><ele>67.0</ele><time>2026-04-06T06:27:23.104Z</time></trkpt><trkpt lat="41.1634446" lon="14.2249886"><ele>67.0</ele><time>2026-04-06T06:27:26.061Z</time></trkpt><trkpt lat="41.1634566" lon="14.2250968"><ele>67.0</ele><time>2026-04-06T06:27:29.078Z</time></trkpt><trkpt lat="41.1634401" lon="14.2252234"><ele>67.0</ele><time>2026-04-06T06:27:32.074Z</time></trkpt><trkpt lat="41.1634703" lon="14.225326"><ele>67.0</ele><time>2026-04-06T06:27:35.011Z</time></trkpt><trkpt lat="41.1634741" lon="14.2254367"><ele>67.0</ele><time>2026-04-06T06:27:38.088Z</time></trkpt><trkpt lat="41.1634784" lon="14.2255282"><ele>67.0</ele><time>2026-04-06T06:27:41.028Z</time></trkpt><trkpt lat="41.1634874" lon="14.2256239"><ele>67.0</ele><time>2026-04-06T06:27:44.11Z</time></trkpt><trkpt lat="41.1635002" lon="14.2257219"><ele>67.57142857142857</ele><time>2026-04-06T06:27:47.078Z</time></trkpt><trkpt lat="41.1635069" lon="14.2258198"><ele>68.14285714285714</ele><time>2026-04-06T06:27:50.105Z</time></trkpt><trkpt lat="41.1635159" lon="14.225908"><ele>68.71428571428571</ele><time>2026-04-06T06:27:53.067Z</time></trkpt><trkpt lat="41.1635427" lon="14.2260125"><ele>69.28571428571428</ele><time>2026-04-06T06:27:56.095Z</time></trkpt><trkpt lat="41.1635529" lon="14.226102"><ele>69.85714285714285</ele><time>2026-04-06T06:27:59.11Z</time></trkpt><trkpt lat="41.1635572" lon="14.2261919"><ele>70.42857142857143</ele><time>2026-04-06T06:28:02.077Z</time></trkpt><trkpt lat="41.1635646" lon="14.2262807"><ele>71.0</ele><time>2026-04-06T06:28:05.126Z</time></trkpt><trkpt lat="41.1635723" lon="14.2263686"><ele>71.0</ele><time>2026-04-06T06:28:08.121Z</time></trkpt><trkpt lat="41.1635805" lon="14.2264527"><ele>71.0</ele><time>2026-04-06T06:28:11.106Z</time></trkpt><trkpt lat="41.1636108" lon="14.2265527"><ele>71.0</ele><time>2026-04-06T06:28:15.029Z</time></trkpt><trkpt lat="41.1636272" lon="14.2266415"><ele>71.0</ele><time>2026-04-06T06:28:18.101Z</time></trkpt><trkpt lat="41.1636342" lon="14.2267299"><ele>71.0</ele><time>2026-04-06T06:28:21.064Z</time></trkpt><trkpt lat="41.1636636" lon="14.2268096"><ele>71.0</ele><time>2026-04-06T06:28:23.889Z</time></trkpt><trkpt lat="41.163686" lon="14.2268977"><ele>71.0</ele><time>2026-04-06T06:28:27.115Z</time></trkpt><trkpt lat="41.163703" lon="14.226994"><ele>71.0</ele><time>2026-04-06T06:28:31.057Z</time></trkpt><trkpt lat="41.1637112" lon="14.227088"><ele>71.0</ele><time>2026-04-06T06:28:35.107Z</time></trkpt><trkpt lat="41.1636897" lon="14.2271805"><ele>71.0</ele><time>2026-04-06T06:28:39.092Z</time></trkpt><trkpt lat="41.1636767" lon="14.2272705"><ele>71.0</ele><time>2026-04-06T06:28:42.129Z</time></trkpt><trkpt lat="41.1636534" lon="14.2273557"><ele>71.0</ele><time>2026-04-06T06:28:45.089Z</time></trkpt><trkpt lat="41.1636333" lon="14.227438"><ele>71.0</ele><time>2026-04-06T06:28:48.094Z</time></trkpt><trkpt lat="41.1636272" lon="14.2275365"><ele>71.0</ele><time>2026-04-06T06:28:52.116Z</time></trkpt><trkpt lat="41.1636246" lon="14.2276201"><ele>71.0</ele><time>2026-04-06T06:28:55.072Z</time></trkpt><trkpt lat="41.1636027" lon="14.2277005"><ele>71.0</ele><time>2026-04-06T06:28:57.811Z</time></trkpt><trkpt lat="41.1635847" lon="14.2277982"><ele>71.0</ele><time>2026-04-06T06:29:00.99Z</time></trkpt><trkpt lat="41.1635634" lon="14.2278983"><ele>71.0</ele><time>2026-04-06T06:29:04.093Z</time></trkpt><trkpt lat="41.1635483" lon="14.2280035"><ele>71.0</ele><time>2026-04-06T06:29:07.107Z</time></trkpt><trkpt lat="41.1635316" lon="14.2281078"><ele>71.0</ele><time>2026-04-06T06:29:10.087Z</time></trkpt><trkpt lat="41.1635113" lon="14.2282091"><ele>71.28571428571428</ele><time>2026-04-06T06:29:13.145Z</time></trkpt><trkpt lat="41.1635071" lon="14.2283035"><ele>71.57142857142857</ele><time>2026-04-06T06:29:16.017Z</time></trkpt><trkpt lat="41.1635154" lon="14.2283996"><ele>71.85714285714286</ele><time>2026-04-06T06:29:19.086Z</time></trkpt><trkpt lat="41.1635209" lon="14.2284934"><ele>72.14285714285714</ele><time>2026-04-06T06:29:22.113Z</time></trkpt><trkpt lat="41.1635327" lon="14.2285894"><ele>72.42857142857143</ele><time>2026-04-06T06:29:25.094Z</time></trkpt><trkpt lat="41.1635454" lon="14.2286847"><ele>72.71428571428571</ele><time>2026-04-06T06:29:28.036Z</time></trkpt><trkpt lat="41.1635494" lon="14.2287859"><ele>73.0</ele><time>2026-04-06T06:29:31.096Z</time></trkpt><trkpt lat="41.1635453" lon="14.2288885"><ele>73.33333333333333</ele><time>2026-04-06T06:29:34.066Z</time></trkpt><trkpt lat="41.1635485" lon="14.2290124"><ele>73.66666666666666</ele><time>2026-04-06T06:29:37.096Z</time></trkpt><trkpt lat="41.163569" lon="14.2291201"><ele>74.0</ele><time>2026-04-06T06:29:40.113Z</time></trkpt><trkpt lat="41.1635849" lon="14.2292178"><ele>74.33333333333333</ele><time>2026-04-06T06:29:43.07Z</time></trkpt><trkpt lat="41.1636098" lon="14.2293116"><ele>74.66666666666667</ele><time>2026-04-06T06:29:46.147Z</time></trkpt><trkpt lat="41.1636069" lon="14.2293975"><ele>75.0</ele><time>2026-04-06T06:29:48.995Z</time></trkpt><trkpt lat="41.1635819" lon="14.2294812"><ele>75.0</ele><time>2026-04-06T06:29:51.874Z</time></trkpt><trkpt lat="41.1635657" lon="14.2295691"><ele>75.0</ele><time>2026-04-06T06:29:55.075Z</time></trkpt><trkpt lat="41.1635607" lon="14.2296796"><ele>75.0</ele><time>2026-04-06T06:29:59.093Z</time></trkpt><trkpt lat="41.1635411" lon="14.2297657"><ele>75.0</ele><time>2026-04-06T06:30:02.121Z</time></trkpt><trkpt lat="41.1635132" lon="14.229871"><ele>75.0</ele><time>2026-04-06T06:30:06.074Z</time></trkpt><trkpt lat="41.1634774" lon="14.2299533"><ele>75.0</ele><time>2026-04-06T06:30:09.085Z</time></trkpt><trkpt lat="41.1634361" lon="14.2300369"><ele>75.33333333333333</ele><time>2026-04-06T06:30:12.065Z</time></trkpt><trkpt lat="41.1634009" lon="14.2301273"><ele>75.66666666666667</ele><time>2026-04-06T06:30:15.069Z</time></trkpt><trkpt lat="41.1633865" lon="14.2302269"><ele>76.0</ele><time>2026-04-06T06:30:18.083Z</time></trkpt><trkpt lat="41.1633766" lon="14.2303273"><ele>76.33333333333334</ele><time>2026-04-06T06:30:21.007Z</time></trkpt><trkpt lat="41.163366" lon="14.2304362"><ele>76.66666666666667</ele><time>2026-04-06T06:30:24.127Z</time></trkpt><trkpt lat="41.1633431" lon="14.2305318"><ele>77.0</ele><time>2026-04-06T06:30:27.084Z</time></trkpt><trkpt lat="41.1633218" lon="14.230628"><ele>76.83333333333334</ele><time>2026-04-06T06:30:30.094Z</time></trkpt><trkpt lat="41.1632892" lon="14.230734"><ele>76.66666666666667</ele><time>2026-04-06T06:30:33.075Z</time></trkpt><trkpt lat="41.1632674" lon="14.2308327"><ele>76.5</ele><time>2026-04-06T06:30:35.99Z</time></trkpt><trkpt lat="41.1632578" lon="14.2309412"><ele>76.33333333333333</ele><time>2026-04-06T06:30:39.082Z</time></trkpt><trkpt lat="41.1632513" lon="14.2310395"><ele>76.16666666666666</ele><time>2026-04-06T06:30:41.99Z</time></trkpt><trkpt lat="41.1632402" lon="14.2311547"><ele>76.0</ele><time>2026-04-06T06:30:45.068Z</time></trkpt><trkpt lat="41.1632192" lon="14.2312656"><ele>76.0</ele><time>2026-04-06T06:30:47.987Z</time></trkpt><trkpt lat="41.1632098" lon="14.2313812"><ele>76.0</ele><time>2026-04-06T06:30:51.099Z</time></trkpt><trkpt lat="41.1632016" lon="14.2314769"><ele>76.0</ele><time>2026-04-06T06:30:54.053Z</time></trkpt><trkpt lat="41.1631923" lon="14.231578"><ele>76.0</ele><time>2026-04-06T06:30:57.09Z</time></trkpt><trkpt lat="41.1631769" lon="14.2316762"><ele>76.0</ele><time>2026-04-06T06:31:00.074Z</time></trkpt><trkpt lat="41.1631518" lon="14.231777"><ele>76.0</ele><time>2026-04-06T06:31:03.118Z</time></trkpt><trkpt lat="41.1631346" lon="14.2318644"><ele>75.71428571428571</ele><time>2026-04-06T06:31:05.097Z</time></trkpt><trkpt lat="41.1631083" lon="14.2319601"><ele>75.42857142857143</ele><time>2026-04-06T06:31:07.064Z</time></trkpt><trkpt lat="41.1630385" lon="14.2319851"><ele>75.14285714285714</ele><time>2026-04-06T06:31:10.094Z</time></trkpt><trkpt lat="41.1629714" lon="14.2319902"><ele>74.85714285714286</ele><time>2026-04-06T06:31:13.092Z</time></trkpt><trkpt lat="41.1629031" lon="14.2320047"><ele>74.57142857142857</ele><time>2026-04-06T06:31:16.116Z</time></trkpt><trkpt lat="41.1628352" lon="14.2320358"><ele>74.28571428571429</ele><time>2026-04-06T06:31:19.069Z</time></trkpt><trkpt lat="41.16277" lon="14.2320727"><ele>74.0</ele><time>2026-04-06T06:31:22.031Z</time></trkpt><trkpt lat="41.1626955" lon="14.2321107"><ele>74.0</ele><time>2026-04-06T06:31:25.051Z</time></trkpt><trkpt lat="41.1626206" lon="14.2321337"><ele>74.0</ele><time>2026-04-06T06:31:27.987Z</time></trkpt><trkpt lat="41.1625612" lon="14.2321723"><ele>74.0</ele><time>2026-04-06T06:31:31.09Z</time></trkpt><trkpt lat="41.1624915" lon="14.2322107"><ele>74.0</ele><time>2026-04-06T06:31:35.061Z</time></trkpt><trkpt lat="41.162418" lon="14.232232"><ele>74.0</ele><time>2026-04-06T06:31:38.088Z</time></trkpt><trkpt lat="41.1623425" lon="14.2321999"><ele>74.0</ele><time>2026-04-06T06:31:41.085Z</time></trkpt><trkpt lat="41.16228" lon="14.2321465"><ele>74.0</ele><time>2026-04-06T06:31:43.988Z</time></trkpt><trkpt lat="41.162205" lon="14.2321018"><ele>74.0</ele><time>2026-04-06T06:31:47.056Z</time></trkpt><trkpt lat="41.1621217" lon="14.2320517"><ele>74.0</ele><time>2026-04-06T06:31:50.079Z</time></trkpt><trkpt lat="41.1620672" lon="14.2320053"><ele>74.0</ele><time>2026-04-06T06:31:52.014Z</time></trkpt><trkpt lat="41.1620014" lon="14.2319542"><ele>74.0</ele><time>2026-04-06T06:31:54.056Z</time></trkpt><trkpt lat="41.1619302" lon="14.2319333"><ele>74.0</ele><time>2026-04-06T06:31:56.081Z</time></trkpt><trkpt lat="41.1618541" lon="14.2319283"><ele>74.0</ele><time>2026-04-06T06:31:58.098Z</time></trkpt><trkpt lat="41.1617681" lon="14.2319157"><ele>74.0</ele><time>2026-04-06T06:32:01.071Z</time></trkpt><trkpt lat="41.1616913" lon="14.2319061"><ele>74.0</ele><time>2026-04-06T06:32:04.118Z</time></trkpt><trkpt lat="41.1616135" lon="14.2319052"><ele>74.0</ele><time>2026-04-06T06:32:07.068Z</time></trkpt><trkpt lat="41.1615395" lon="14.2319262"><ele>74.0</ele><time>2026-04-06T06:32:10.072Z</time></trkpt><trkpt lat="41.1614681" lon="14.2319486"><ele>74.0</ele><time>2026-04-06T06:32:13.072Z</time></trkpt><trkpt lat="41.1613977" lon="14.2319575"><ele>74.0</ele><time>2026-04-06T06:32:16.103Z</time></trkpt><trkpt lat="41.1613315" lon="14.2319711"><ele>74.0</ele><time>2026-04-06T06:32:19.094Z</time></trkpt><trkpt lat="41.1612668" lon="14.2319496"><ele>73.16666666666667</ele><time>2026-04-06T06:32:22.07Z</time></trkpt><trkpt lat="41.1611995" lon="14.231927"><ele>72.33333333333334</ele><time>2026-04-06T06:32:24.97Z</time></trkpt><trkpt lat="41.1611231" lon="14.2318626"><ele>71.5</ele><time>2026-04-06T06:32:28.091Z</time></trkpt><trkpt lat="41.161046" lon="14.2318002"><ele>70.66666666666667</ele><time>2026-04-06T06:32:31.081Z</time></trkpt><trkpt lat="41.1609703" lon="14.2317599"><ele>69.83333333333333</ele><time>2026-04-06T06:32:33.988Z</time></trkpt><trkpt lat="41.1608963" lon="14.2317333"><ele>69.0</ele><time>2026-04-06T06:32:36.747Z</time></trkpt><trkpt lat="41.160819" lon="14.2317261"><ele>69.0</ele><time>2026-04-06T06:32:39.098Z</time></trkpt><trkpt lat="41.160746" lon="14.2317291"><ele>69.0</ele><time>2026-04-06T06:32:41.084Z</time></trkpt><trkpt lat="41.1606576" lon="14.2317271"><ele>69.0</ele><time>2026-04-06T06:32:44.087Z</time></trkpt><trkpt lat="41.1605761" lon="14.2317184"><ele>69.0</ele><time>2026-04-06T06:32:47.006Z</time></trkpt><trkpt lat="41.1604951" lon="14.2317114"><ele>69.0</ele><time>2026-04-06T06:32:49.93Z</time></trkpt><trkpt lat="41.1604045" lon="14.2317179"><ele>69.0</ele><time>2026-04-06T06:32:53.099Z</time></trkpt><trkpt lat="41.1603364" lon="14.2317235"><ele>68.5</ele><time>2026-04-06T06:32:55.079Z</time></trkpt><trkpt lat="41.1602671" lon="14.231732"><ele>68.0</ele><time>2026-04-06T06:32:57.074Z</time></trkpt><trkpt lat="41.1602005" lon="14.2317382"><ele>67.5</ele><time>2026-04-06T06:32:59.06Z</time></trkpt><trkpt lat="41.1601092" lon="14.2317387"><ele>67.0</ele><time>2026-04-06T06:33:02.076Z</time></trkpt><trkpt lat="41.1600157" lon="14.2317196"><ele>66.5</ele><time>2026-04-06T06:33:05.102Z</time></trkpt><trkpt lat="41.159935" lon="14.2317025"><ele>66.0</ele><time>2026-04-06T06:33:08.036Z</time></trkpt><trkpt lat="41.1598531" lon="14.231683"><ele>66.0</ele><time>2026-04-06T06:33:11.111Z</time></trkpt><trkpt lat="41.159777" lon="14.2316704"><ele>66.0</ele><time>2026-04-06T06:33:14.009Z</time></trkpt><trkpt lat="41.1597177" lon="14.2316423"><ele>66.0</ele><time>2026-04-06T06:33:16.077Z</time></trkpt><trkpt lat="41.1596411" lon="14.2316159"><ele>66.0</ele><time>2026-04-06T06:33:19.11Z</time></trkpt><trkpt lat="41.1595674" lon="14.2316058"><ele>66.0</ele><time>2026-04-06T06:33:22.075Z</time></trkpt><trkpt lat="41.159487" lon="14.2315896"><ele>66.0</ele><time>2026-04-06T06:33:25.075Z</time></trkpt><trkpt lat="41.1594239" lon="14.2315698"><ele>66.0</ele><time>2026-04-06T06:33:27.072Z</time></trkpt><trkpt lat="41.1593501" lon="14.2315445"><ele>66.0</ele><time>2026-04-06T06:33:29.097Z</time></trkpt><trkpt lat="41.1592847" lon="14.2315247"><ele>66.0</ele><time>2026-04-06T06:33:31.072Z</time></trkpt><trkpt lat="41.1591948" lon="14.2315011"><ele>66.0</ele><time>2026-04-06T06:33:34.073Z</time></trkpt><trkpt lat="41.1591288" lon="14.2314833"><ele>66.0</ele><time>2026-04-06T06:33:36.105Z</time></trkpt><trkpt lat="41.1590666" lon="14.2314654"><ele>66.0</ele><time>2026-04-06T06:33:38.068Z</time></trkpt><trkpt lat="41.159005" lon="14.2314466"><ele>66.0</ele><time>2026-04-06T06:33:40.006Z</time></trkpt><trkpt lat="41.1589344" lon="14.2314297"><ele>66.0</ele><time>2026-04-06T06:33:42.095Z</time></trkpt><trkpt lat="41.1588281" lon="14.2314195"><ele>65.5</ele><time>2026-04-06T06:33:45.076Z</time></trkpt><trkpt lat="41.1587636" lon="14.2314089"><ele>65.0</ele><time>2026-04-06T06:33:47.069Z</time></trkpt><trkpt lat="41.1586973" lon="14.2314023"><ele>64.5</ele><time>2026-04-06T06:33:49.091Z</time></trkpt><trkpt lat="41.1586031" lon="14.231389"><ele>64.0</ele><time>2026-04-06T06:33:52.065Z</time></trkpt><trkpt lat="41.1585103" lon="14.2313759"><ele>63.5</ele><time>2026-04-06T06:33:55.074Z</time></trkpt><trkpt lat="41.1583935" lon="14.2313535"><ele>63.0</ele><time>2026-04-06T06:33:58.008Z</time></trkpt><trkpt lat="41.1583092" lon="14.2313288"><ele>63.0</ele><time>2026-04-06T06:34:00.093Z</time></trkpt><trkpt lat="41.158236" lon="14.2313118"><ele>63.0</ele><time>2026-04-06T06:34:02.107Z</time></trkpt><trkpt lat="41.1581479" lon="14.2312951"><ele>63.0</ele><time>2026-04-06T06:34:05.087Z</time></trkpt><trkpt lat="41.158065" lon="14.2312757"><ele>63.0</ele><time>2026-04-06T06:34:08.03Z</time></trkpt><trkpt lat="41.1579784" lon="14.2312412"><ele>63.0</ele><time>2026-04-06T06:34:11.084Z</time></trkpt><trkpt lat="41.1578948" lon="14.2312043"><ele>63.0</ele><time>2026-04-06T06:34:14.082Z</time></trkpt><trkpt lat="41.1578185" lon="14.2311904"><ele>62.5</ele><time>2026-04-06T06:34:17.065Z</time></trkpt><trkpt lat="41.1577461" lon="14.2311548"><ele>62.0</ele><time>2026-04-06T06:34:20.112Z</time></trkpt><trkpt lat="41.1576715" lon="14.2311378"><ele>61.5</ele><time>2026-04-06T06:34:23.023Z</time></trkpt><trkpt lat="41.1575856" lon="14.2311436"><ele>61.0</ele><time>2026-04-06T06:34:26.091Z</time></trkpt><trkpt lat="41.157515" lon="14.2311525"><ele>60.5</ele><time>2026-04-06T06:34:28.095Z</time></trkpt><trkpt lat="41.1574512" lon="14.231157"><ele>60.0</ele><time>2026-04-06T06:34:30.083Z</time></trkpt><trkpt lat="41.1573545" lon="14.231159"><ele>59.666666666666664</ele><time>2026-04-06T06:34:33.089Z</time></trkpt><trkpt lat="41.1572892" lon="14.2311568"><ele>59.33333333333333</ele><time>2026-04-06T06:34:35.082Z</time></trkpt><trkpt lat="41.157203" lon="14.2311486"><ele>59.0</ele><time>2026-04-06T06:34:38.04Z</time></trkpt><trkpt lat="41.1571095" lon="14.2311464"><ele>58.666666666666664</ele><time>2026-04-06T06:34:41.101Z</time></trkpt><trkpt lat="41.1570176" lon="14.2311345"><ele>58.33333333333333</ele><time>2026-04-06T06:34:44.072Z</time></trkpt><trkpt lat="41.1569208" lon="14.2311138"><ele>58.0</ele><time>2026-04-06T06:34:47.175Z</time></trkpt><trkpt lat="41.1568574" lon="14.2310925"><ele>57.99999999999999</ele><time>2026-04-06T06:34:49.067Z</time></trkpt><trkpt lat="41.1567712" lon="14.2311148"><ele>58.0</ele><time>2026-04-06T06:34:51.991Z</time></trkpt><trkpt lat="41.1567145" lon="14.2311525"><ele>58.0</ele><time>2026-04-06T06:34:54.033Z</time></trkpt><trkpt lat="41.156611" lon="14.2312016"><ele>58.0</ele><time>2026-04-06T06:34:57.13Z</time></trkpt><trkpt lat="41.1565482" lon="14.2312342"><ele>57.99999999999999</ele><time>2026-04-06T06:34:59.1Z</time></trkpt><trkpt lat="41.1564906" lon="14.231269"><ele>58.0</ele><time>2026-04-06T06:35:01.105Z</time></trkpt><trkpt lat="41.1564356" lon="14.2313222"><ele>57.83333333333333</ele><time>2026-04-06T06:35:03.052Z</time></trkpt><trkpt lat="41.1563886" lon="14.2313802"><ele>57.666666666666664</ele><time>2026-04-06T06:35:05.092Z</time></trkpt><trkpt lat="41.1563301" lon="14.2314615"><ele>57.5</ele><time>2026-04-06T06:35:08.114Z</time></trkpt><trkpt lat="41.1562737" lon="14.2315504"><ele>57.33333333333333</ele><time>2026-04-06T06:35:11.115Z</time></trkpt><trkpt lat="41.1562309" lon="14.2316321"><ele>57.166666666666664</ele><time>2026-04-06T06:35:13.684Z</time></trkpt><trkpt lat="41.1561975" lon="14.2317128"><ele>57.0</ele><time>2026-04-06T06:35:16.093Z</time></trkpt><trkpt lat="41.1561501" lon="14.2318043"><ele>57.0</ele><time>2026-04-06T06:35:19.085Z</time></trkpt><trkpt lat="41.1561093" lon="14.2318693"><ele>57.0</ele><time>2026-04-06T06:35:21.109Z</time></trkpt><trkpt lat="41.1560508" lon="14.231965"><ele>57.0</ele><time>2026-04-06T06:35:24.088Z</time></trkpt><trkpt lat="41.1560036" lon="14.2320267"><ele>57.0</ele><time>2026-04-06T06:35:26.099Z</time></trkpt><trkpt lat="41.1559504" lon="14.2321136"><ele>57.0</ele><time>2026-04-06T06:35:29.084Z</time></trkpt><trkpt lat="41.1558974" lon="14.2321989"><ele>57.0</ele><time>2026-04-06T06:35:32.131Z</time></trkpt><trkpt lat="41.1558474" lon="14.2322835"><ele>57.0</ele><time>2026-04-06T06:35:35.088Z</time></trkpt><trkpt lat="41.1557954" lon="14.2323904"><ele>57.0</ele><time>2026-04-06T06:35:38.111Z</time></trkpt><trkpt lat="41.1557534" lon="14.2324852"><ele>57.0</ele><time>2026-04-06T06:35:41.115Z</time></trkpt><trkpt lat="41.1557126" lon="14.2325733"><ele>57.0</ele><time>2026-04-06T06:35:44.028Z</time></trkpt><trkpt lat="41.1556601" lon="14.2326597"><ele>57.0</ele><time>2026-04-06T06:35:47.073Z</time></trkpt><trkpt lat="41.1556135" lon="14.2327414"><ele>57.0</ele><time>2026-04-06T06:35:50.121Z</time></trkpt><trkpt lat="41.1555764" lon="14.2328276"><ele>56.833333333333336</ele><time>2026-04-06T06:35:53.113Z</time></trkpt><trkpt lat="41.1555295" lon="14.232931"><ele>56.66666666666667</ele><time>2026-04-06T06:35:56.073Z</time></trkpt><trkpt lat="41.1554952" lon="14.2330208"><ele>56.5</ele><time>2026-04-06T06:35:59.028Z</time></trkpt><trkpt lat="41.1554735" lon="14.2331132"><ele>56.333333333333336</ele><time>2026-04-06T06:36:01.768Z</time></trkpt><trkpt lat="41.1554351" lon="14.233223"><ele>56.16666666666667</ele><time>2026-04-06T06:36:05.107Z</time></trkpt><trkpt lat="41.155403" lon="14.2333193"><ele>56.0</ele><time>2026-04-06T06:36:08.097Z</time></trkpt><trkpt lat="41.1553638" lon="14.2334117"><ele>56.00000000000001</ele><time>2026-04-06T06:36:11.079Z</time></trkpt><trkpt lat="41.1553247" lon="14.2335032"><ele>56.0</ele><time>2026-04-06T06:36:14.041Z</time></trkpt><trkpt lat="41.1552857" lon="14.2336036"><ele>56.0</ele><time>2026-04-06T06:36:17.104Z</time></trkpt><trkpt lat="41.1552585" lon="14.2337066"><ele>56.0</ele><time>2026-04-06T06:36:20.067Z</time></trkpt><trkpt lat="41.1552331" lon="14.2338071"><ele>56.00000000000001</ele><time>2026-04-06T06:36:23.043Z</time></trkpt><trkpt lat="41.155203" lon="14.233909"><ele>56.0</ele><time>2026-04-06T06:36:26.093Z</time></trkpt><trkpt lat="41.1551463" lon="14.2340156"><ele>56.00000000000001</ele><time>2026-04-06T06:36:29.08Z</time></trkpt><trkpt lat="41.1550944" lon="14.2341091"><ele>56.0</ele><time>2026-04-06T06:36:32.068Z</time></trkpt><trkpt lat="41.1550455" lon="14.2341932"><ele>56.0</ele><time>2026-04-06T06:36:35.094Z</time></trkpt><trkpt lat="41.1549943" lon="14.2342753"><ele>56.0</ele><time>2026-04-06T06:36:38.004Z</time></trkpt><trkpt lat="41.1549405" lon="14.2343617"><ele>56.00000000000001</ele><time>2026-04-06T06:36:41.095Z</time></trkpt><trkpt lat="41.1548941" lon="14.2344434"><ele>56.0</ele><time>2026-04-06T06:36:44.016Z</time></trkpt><trkpt lat="41.154846" lon="14.234544"><ele>55.833333333333336</ele><time>2026-04-06T06:36:47.087Z</time></trkpt><trkpt lat="41.1547938" lon="14.2346446"><ele>55.66666666666667</ele><time>2026-04-06T06:36:50.115Z</time></trkpt><trkpt lat="41.1547384" lon="14.2347433"><ele>55.5</ele><time>2026-04-06T06:36:53.098Z</time></trkpt><trkpt lat="41.1546965" lon="14.2348089"><ele>55.33333333333333</ele><time>2026-04-06T06:36:55.078Z</time></trkpt><trkpt lat="41.1546286" lon="14.2349016"><ele>55.166666666666664</ele><time>2026-04-06T06:36:58.104Z</time></trkpt><trkpt lat="41.1545804" lon="14.2349629"><ele>55.0</ele><time>2026-04-06T06:37:00.08Z</time></trkpt><trkpt lat="41.1545342" lon="14.2350276"><ele>54.99999999999999</ele><time>2026-04-06T06:37:02.099Z</time></trkpt><trkpt lat="41.1544641" lon="14.2351202"><ele>55.0</ele><time>2026-04-06T06:37:05.104Z</time></trkpt><trkpt lat="41.1544006" lon="14.23521"><ele>55.0</ele><time>2026-04-06T06:37:08.097Z</time></trkpt><trkpt lat="41.1543515" lon="14.235288"><ele>55.0</ele><time>2026-04-06T06:37:11.012Z</time></trkpt><trkpt lat="41.1542985" lon="14.2353712"><ele>54.99999999999999</ele><time>2026-04-06T06:37:14.093Z</time></trkpt><trkpt lat="41.1542448" lon="14.2354521"><ele>55.0</ele><time>2026-04-06T06:37:17.083Z</time></trkpt><trkpt lat="41.1541881" lon="14.2355289"><ele>54.99999999999999</ele><time>2026-04-06T06:37:20.084Z</time></trkpt><trkpt lat="41.1541356" lon="14.2355959"><ele>55.0</ele><time>2026-04-06T06:37:22.096Z</time></trkpt><trkpt lat="41.1540797" lon="14.2356804"><ele>55.0</ele><time>2026-04-06T06:37:25.092Z</time></trkpt><trkpt lat="41.1540165" lon="14.2357557"><ele>55.0</ele><time>2026-04-06T06:37:28.061Z</time></trkpt><trkpt lat="41.1539602" lon="14.235842"><ele>54.99999999999999</ele><time>2026-04-06T06:37:31.075Z</time></trkpt><trkpt lat="41.1539066" lon="14.2359257"><ele>55.0</ele><time>2026-04-06T06:37:34.081Z</time></trkpt><trkpt lat="41.1538417" lon="14.2359944"><ele>54.666666666666664</ele><time>2026-04-06T06:37:37.112Z</time></trkpt><trkpt lat="41.1537899" lon="14.2360686"><ele>54.33333333333333</ele><time>2026-04-06T06:37:40.048Z</time></trkpt><trkpt lat="41.1537422" lon="14.2361498"><ele>54.0</ele><time>2026-04-06T06:37:43.082Z</time></trkpt><trkpt lat="41.1536927" lon="14.2362313"><ele>53.66666666666667</ele><time>2026-04-06T06:37:46.076Z</time></trkpt><trkpt lat="41.1536388" lon="14.2363185"><ele>53.333333333333336</ele><time>2026-04-06T06:37:49.115Z</time></trkpt><trkpt lat="41.1536026" lon="14.2363885"><ele>53.0</ele><time>2026-04-06T06:37:51.166Z</time></trkpt><trkpt lat="41.1535422" lon="14.2364818"><ele>52.66666666666667</ele><time>2026-04-06T06:37:54.086Z</time></trkpt><trkpt lat="41.1534771" lon="14.2365704"><ele>52.333333333333336</ele><time>2026-04-06T06:37:57.115Z</time></trkpt><trkpt lat="41.1534312" lon="14.2366308"><ele>52.0</ele><time>2026-04-06T06:37:59.145Z</time></trkpt><trkpt lat="41.1533634" lon="14.2367122"><ele>51.66666666666667</ele><time>2026-04-06T06:38:02.089Z</time></trkpt><trkpt lat="41.153303" lon="14.2367927"><ele>51.333333333333336</ele><time>2026-04-06T06:38:05.099Z</time></trkpt><trkpt lat="41.1532401" lon="14.2368711"><ele>51.0</ele><time>2026-04-06T06:38:08.128Z</time></trkpt><trkpt lat="41.1531748" lon="14.2369398"><ele>50.833333333333336</ele><time>2026-04-06T06:38:11.099Z</time></trkpt><trkpt lat="41.153112" lon="14.2370088"><ele>50.66666666666667</ele><time>2026-04-06T06:38:14.102Z</time></trkpt><trkpt lat="41.1530532" lon="14.2370807"><ele>50.5</ele><time>2026-04-06T06:38:17.075Z</time></trkpt><trkpt lat="41.1529986" lon="14.2371504"><ele>50.333333333333336</ele><time>2026-04-06T06:38:20.111Z</time></trkpt><trkpt lat="41.1529503" lon="14.2372209"><ele>50.16666666666667</ele><time>2026-04-06T06:38:23.014Z</time></trkpt><trkpt lat="41.1528996" lon="14.2373139"><ele>50.0</ele><time>2026-04-06T06:38:26.083Z</time></trkpt><trkpt lat="41.1528396" lon="14.2374019"><ele>50.00000000000001</ele><time>2026-04-06T06:38:29.091Z</time></trkpt><trkpt lat="41.1527803" lon="14.2374841"><ele>50.0</ele><time>2026-04-06T06:38:32.028Z</time></trkpt><trkpt lat="41.1527137" lon="14.2375761"><ele>50.0</ele><time>2026-04-06T06:38:35.131Z</time></trkpt><trkpt lat="41.1526672" lon="14.2376391"><ele>50.0</ele><time>2026-04-06T06:38:37.103Z</time></trkpt><trkpt lat="41.1526098" lon="14.2377249"><ele>50.00000000000001</ele><time>2026-04-06T06:38:39.987Z</time></trkpt><trkpt lat="41.152555" lon="14.2378215"><ele>50.0</ele><time>2026-04-06T06:38:43.08Z</time></trkpt><trkpt lat="41.1524958" lon="14.2379082"><ele>50.00000000000001</ele><time>2026-04-06T06:38:46.079Z</time></trkpt><trkpt lat="41.1524348" lon="14.2379812"><ele>50.0</ele><time>2026-04-06T06:38:49.095Z</time></trkpt><trkpt lat="41.1523743" lon="14.2380488"><ele>50.0</ele><time>2026-04-06T06:38:52.078Z</time></trkpt><trkpt lat="41.1523142" lon="14.2381201"><ele>50.0</ele><time>2026-04-06T06:38:54.989Z</time></trkpt><trkpt lat="41.1522436" lon="14.2382043"><ele>50.00000000000001</ele><time>2026-04-06T06:38:58.128Z</time></trkpt><trkpt lat="41.1521952" lon="14.238272"><ele>50.0</ele><time>2026-04-06T06:39:00.069Z</time></trkpt><trkpt lat="41.1521432" lon="14.2383415"><ele>49.833333333333336</ele><time>2026-04-06T06:39:03.047Z</time></trkpt><trkpt lat="41.1520811" lon="14.238421"><ele>49.66666666666667</ele><time>2026-04-06T06:39:06.107Z</time></trkpt><trkpt lat="41.1520329" lon="14.2384916"><ele>49.5</ele><time>2026-04-06T06:39:09.108Z</time></trkpt><trkpt lat="41.1519841" lon="14.2385632"><ele>49.33333333333333</ele><time>2026-04-06T06:39:12.082Z</time></trkpt><trkpt lat="41.1519289" lon="14.2386353"><ele>49.166666666666664</ele><time>2026-04-06T06:39:15.072Z</time></trkpt><trkpt lat="41.1518744" lon="14.2387142"><ele>49.0</ele><time>2026-04-06T06:39:18.155Z</time></trkpt><trkpt lat="41.1518242" lon="14.2387941"><ele>48.99999999999999</ele><time>2026-04-06T06:39:21.1Z</time></trkpt><trkpt lat="41.1517775" lon="14.2388779"><ele>49.0</ele><time>2026-04-06T06:39:24.134Z</time></trkpt><trkpt lat="41.1517323" lon="14.2389615"><ele>49.0</ele><time>2026-04-06T06:39:27.101Z</time></trkpt><trkpt lat="41.1516795" lon="14.239042"><ele>49.0</ele><time>2026-04-06T06:39:30.103Z</time></trkpt><trkpt lat="41.1516195" lon="14.2391169"><ele>48.99999999999999</ele><time>2026-04-06T06:39:33.095Z</time></trkpt><trkpt lat="41.1515593" lon="14.2391928"><ele>49.0</ele><time>2026-04-06T06:39:36.047Z</time></trkpt><trkpt lat="41.1514951" lon="14.2392748"><ele>48.83333333333333</ele><time>2026-04-06T06:39:39.121Z</time></trkpt><trkpt lat="41.1514259" lon="14.2393554"><ele>48.666666666666664</ele><time>2026-04-06T06:39:42.108Z</time></trkpt><trkpt lat="41.1513572" lon="14.2394422"><ele>48.5</ele><time>2026-04-06T06:39:45.097Z</time></trkpt><trkpt lat="41.1513146" lon="14.239508"><ele>48.33333333333333</ele><time>2026-04-06T06:39:47.129Z</time></trkpt><trkpt lat="41.1512546" lon="14.2395996"><ele>48.166666666666664</ele><time>2026-04-06T06:39:50.011Z</time></trkpt><trkpt lat="41.1511946" lon="14.239687"><ele>48.0</ele><time>2026-04-06T06:39:53.104Z</time></trkpt><trkpt lat="41.1511285" lon="14.2397614"><ele>47.833333333333336</ele><time>2026-04-06T06:39:56.092Z</time></trkpt><trkpt lat="41.1510638" lon="14.2398425"><ele>47.666666666666664</ele><time>2026-04-06T06:39:59.116Z</time></trkpt><trkpt lat="41.1510034" lon="14.2399224"><ele>47.5</ele><time>2026-04-06T06:40:02.088Z</time></trkpt><trkpt lat="41.1509463" lon="14.2400016"><ele>47.33333333333333</ele><time>2026-04-06T06:40:05.051Z</time></trkpt><trkpt lat="41.1508843" lon="14.2400802"><ele>47.166666666666664</ele><time>2026-04-06T06:40:08.11Z</time></trkpt><trkpt lat="41.1508312" lon="14.24015"><ele>47.0</ele><time>2026-04-06T06:40:11.032Z</time></trkpt><trkpt lat="41.1507799" lon="14.2402262"><ele>47.0</ele><time>2026-04-06T06:40:14.106Z</time></trkpt><trkpt lat="41.1507378" lon="14.2403018"><ele>47.0</ele><time>2026-04-06T06:40:17.008Z</time></trkpt><trkpt lat="41.1506862" lon="14.2403676"><ele>47.0</ele><time>2026-04-06T06:40:20.099Z</time></trkpt><trkpt lat="41.1506228" lon="14.2404155"><ele>47.0</ele><time>2026-04-06T06:40:23.098Z</time></trkpt><trkpt lat="41.1505538" lon="14.2404593"><ele>47.0</ele><time>2026-04-06T06:40:25.771Z</time></trkpt><trkpt lat="41.1505003" lon="14.2405145"><ele>47.0</ele><time>2026-04-06T06:40:28.26Z</time></trkpt><trkpt lat="41.1504461" lon="14.2405968"><ele>47.0</ele><time>2026-04-06T06:40:31.818Z</time></trkpt><trkpt lat="41.1504002" lon="14.2406719"><ele>46.83333333333333</ele><time>2026-04-06T06:40:34.973Z</time></trkpt><trkpt lat="41.150348" lon="14.2407471"><ele>46.666666666666664</ele><time>2026-04-06T06:40:38.083Z</time></trkpt><trkpt lat="41.1502834" lon="14.2408226"><ele>46.5</ele><time>2026-04-06T06:40:41.093Z</time></trkpt><trkpt lat="41.1502267" lon="14.2408963"><ele>46.333333333333336</ele><time>2026-04-06T06:40:44.031Z</time></trkpt><trkpt lat="41.1501713" lon="14.2409773"><ele>46.16666666666667</ele><time>2026-04-06T06:40:47.088Z</time></trkpt><trkpt lat="41.1501196" lon="14.241058"><ele>46.0</ele><time>2026-04-06T06:40:50Z</time></trkpt><trkpt lat="41.1500642" lon="14.2411372"><ele>46.0</ele><time>2026-04-06T06:40:53.12Z</time></trkpt><trkpt lat="41.1500075" lon="14.2412095"><ele>46.0</ele><time>2026-04-06T06:40:56.086Z</time></trkpt><trkpt lat="41.149936" lon="14.2412657"><ele>46.0</ele><time>2026-04-06T06:41:00.036Z</time></trkpt><trkpt lat="41.1498778" lon="14.2413052"><ele>46.0</ele><time>2026-04-06T06:41:03.06Z</time></trkpt><trkpt lat="41.1498189" lon="14.2413599"><ele>46.0</ele><time>2026-04-06T06:41:06.044Z</time></trkpt><trkpt lat="41.1497627" lon="14.2414324"><ele>46.0</ele><time>2026-04-06T06:41:09.058Z</time></trkpt><trkpt lat="41.1497172" lon="14.2415106"><ele>46.16666666666667</ele><time>2026-04-06T06:41:11.993Z</time></trkpt><trkpt lat="41.149665" lon="14.2415868"><ele>46.333333333333336</ele><time>2026-04-06T06:41:15.073Z</time></trkpt><trkpt lat="41.1496204" lon="14.241663"><ele>46.5</ele><time>2026-04-06T06:41:18.104Z</time></trkpt><trkpt lat="41.1495772" lon="14.241746"><ele>46.666666666666664</ele><time>2026-04-06T06:41:21.018Z</time></trkpt><trkpt lat="41.1495218" lon="14.2418346"><ele>46.83333333333333</ele><time>2026-04-06T06:41:24.097Z</time></trkpt><trkpt lat="41.1494738" lon="14.2419256"><ele>47.0</ele><time>2026-04-06T06:41:27.086Z</time></trkpt><trkpt lat="41.1494168" lon="14.2420135"><ele>47.0</ele><time>2026-04-06T06:41:30.04Z</time></trkpt><trkpt lat="41.1493776" lon="14.2420928"><ele>47.0</ele><time>2026-04-06T06:41:32.116Z</time></trkpt><trkpt lat="41.1493423" lon="14.2421678"><ele>47.0</ele><time>2026-04-06T06:41:34.099Z</time></trkpt><trkpt lat="41.1492893" lon="14.2422661"><ele>47.0</ele><time>2026-04-06T06:41:37.096Z</time></trkpt><trkpt lat="41.1492422" lon="14.2423626"><ele>47.0</ele><time>2026-04-06T06:41:40.121Z</time></trkpt><trkpt lat="41.1491989" lon="14.2424516"><ele>47.0</ele><time>2026-04-06T06:41:42.919Z</time></trkpt><trkpt lat="41.1491439" lon="14.2425412"><ele>46.83333333333333</ele><time>2026-04-06T06:41:46.09Z</time></trkpt><trkpt lat="41.1490974" lon="14.2426277"><ele>46.666666666666664</ele><time>2026-04-06T06:41:49.106Z</time></trkpt><trkpt lat="41.1490572" lon="14.2427246"><ele>46.5</ele><time>2026-04-06T06:41:52.08Z</time></trkpt><trkpt lat="41.1490141" lon="14.2428237"><ele>46.333333333333336</ele><time>2026-04-06T06:41:55.099Z</time></trkpt><trkpt lat="41.1489678" lon="14.2429067"><ele>46.16666666666667</ele><time>2026-04-06T06:41:58.081Z</time></trkpt><trkpt lat="41.1489289" lon="14.2429797"><ele>46.0</ele><time>2026-04-06T06:42:01.094Z</time></trkpt><trkpt lat="41.1488798" lon="14.2430596"><ele>45.57142857142858</ele><time>2026-04-06T06:42:05.013Z</time></trkpt><trkpt lat="41.1488374" lon="14.2431316"><ele>45.14285714285714</ele><time>2026-04-06T06:42:08.083Z</time></trkpt><trkpt lat="41.1487915" lon="14.2432013"><ele>44.714285714285715</ele><time>2026-04-06T06:42:11.03Z</time></trkpt><trkpt lat="41.1487369" lon="14.2432708"><ele>44.28571428571429</ele><time>2026-04-06T06:42:14.085Z</time></trkpt><trkpt lat="41.1486894" lon="14.2433532"><ele>43.85714285714286</ele><time>2026-04-06T06:42:18.089Z</time></trkpt><trkpt lat="41.1486472" lon="14.2434165"><ele>43.42857142857143</ele><time>2026-04-06T06:42:24.106Z</time></trkpt><trkpt lat="41.1487057" lon="14.243365"><ele>43.0</ele><time>2026-04-06T06:42:33.077Z</time></trkpt><trkpt lat="41.1487636" lon="14.2433238"><ele>43.0</ele><time>2026-04-06T06:43:19.106Z</time></trkpt><trkpt lat="41.1486964" lon="14.2432488"><ele>43.0</ele><time>2026-04-06T06:43:35.091Z</time></trkpt><trkpt lat="41.1485964" lon="14.2432433"><ele>43.0</ele><time>2026-04-06T06:43:36.087Z</time></trkpt><trkpt lat="41.1485204" lon="14.2432641"><ele>43.0</ele><time>2026-04-06T06:43:38.086Z</time></trkpt><trkpt lat="41.1485321" lon="14.243376"><ele>43.0</ele><time>2026-04-06T06:43:43.096Z</time></trkpt><trkpt lat="41.1484873" lon="14.2432592"><ele>43.0</ele><time>2026-04-06T06:43:44.998Z</time></trkpt><trkpt lat="41.1485253" lon="14.2435002"><ele>43.00000000000001</ele><time>2026-04-06T06:43:52.017Z</time></trkpt><trkpt lat="41.1484923" lon="14.2436012"><ele>43.0</ele><time>2026-04-06T06:43:53.071Z</time></trkpt><trkpt lat="41.1484568" lon="14.2436821"><ele>43.0</ele><time>2026-04-06T06:43:55.072Z</time></trkpt><trkpt lat="41.148415" lon="14.2437516"><ele>43.0</ele><time>2026-04-06T06:43:57.065Z</time></trkpt><trkpt lat="41.1483692" lon="14.243832"><ele>43.0</ele><time>2026-04-06T06:43:59.988Z</time></trkpt><trkpt lat="41.1483207" lon="14.2439034"><ele>43.00000000000001</ele><time>2026-04-06T06:44:03.093Z</time></trkpt><trkpt lat="41.1482689" lon="14.2439763"><ele>43.0</ele><time>2026-04-06T06:44:06.094Z</time></trkpt><trkpt lat="41.1482158" lon="14.2440546"><ele>43.0</ele><time>2026-04-06T06:44:09.062Z</time></trkpt><trkpt lat="41.1481656" lon="14.2441373"><ele>43.0</ele><time>2026-04-06T06:44:12.064Z</time></trkpt><trkpt lat="41.1481151" lon="14.2442221"><ele>43.0</ele><time>2026-04-06T06:44:15.055Z</time></trkpt><trkpt lat="41.1480762" lon="14.2442891"><ele>43.0</ele><time>2026-04-06T06:44:17.055Z</time></trkpt><trkpt lat="41.1480266" lon="14.2443791"><ele>43.0</ele><time>2026-04-06T06:44:20.065Z</time></trkpt><trkpt lat="41.1479845" lon="14.2444557"><ele>43.0</ele><time>2026-04-06T06:44:23.091Z</time></trkpt><trkpt lat="41.1479358" lon="14.2445209"><ele>43.0</ele><time>2026-04-06T06:44:26.07Z</time></trkpt><trkpt lat="41.1478846" lon="14.2445947"><ele>43.0</ele><time>2026-04-06T06:44:29.097Z</time></trkpt><trkpt lat="41.1478318" lon="14.2446703"><ele>43.0</ele><time>2026-04-06T06:44:32.008Z</time></trkpt><trkpt lat="41.1477699" lon="14.2447462"><ele>43.0</ele><time>2026-04-06T06:44:35.132Z</time></trkpt><trkpt lat="41.1477079" lon="14.2448069"><ele>43.0</ele><time>2026-04-06T06:44:37.992Z</time></trkpt><trkpt lat="41.1476337" lon="14.244876"><ele>43.0</ele><time>2026-04-06T06:44:41.073Z</time></trkpt><trkpt lat="41.1475673" lon="14.2449468"><ele>43.16666666666667</ele><time>2026-04-06T06:44:43.995Z</time></trkpt><trkpt lat="41.1475249" lon="14.2450087"><ele>43.333333333333336</ele><time>2026-04-06T06:44:46.129Z</time></trkpt><trkpt lat="41.1474499" lon="14.2450761"><ele>43.5</ele><time>2026-04-06T06:44:49.066Z</time></trkpt><trkpt lat="41.1473777" lon="14.2451249"><ele>43.666666666666664</ele><time>2026-04-06T06:44:52.031Z</time></trkpt><trkpt lat="41.1473038" lon="14.2451567"><ele>43.83333333333333</ele><time>2026-04-06T06:44:55.087Z</time></trkpt><trkpt lat="41.1472347" lon="14.2451914"><ele>44.0</ele><time>2026-04-06T06:44:58.072Z</time></trkpt><trkpt lat="41.1471664" lon="14.2452307"><ele>44.0</ele><time>2026-04-06T06:45:01.108Z</time></trkpt><trkpt lat="41.1470958" lon="14.2452654"><ele>44.0</ele><time>2026-04-06T06:45:04.073Z</time></trkpt><trkpt lat="41.1470164" lon="14.2453066"><ele>44.0</ele><time>2026-04-06T06:45:07.078Z</time></trkpt><trkpt lat="41.146943" lon="14.2453474"><ele>44.0</ele><time>2026-04-06T06:45:10.08Z</time></trkpt><trkpt lat="41.1468736" lon="14.2453907"><ele>44.0</ele><time>2026-04-06T06:45:12.995Z</time></trkpt><trkpt lat="41.1468072" lon="14.2454528"><ele>44.0</ele><time>2026-04-06T06:45:16.09Z</time></trkpt><trkpt lat="41.1467397" lon="14.2455072"><ele>44.0</ele><time>2026-04-06T06:45:19.039Z</time></trkpt><trkpt lat="41.1466725" lon="14.2455732"><ele>44.0</ele><time>2026-04-06T06:45:22.114Z</time></trkpt><trkpt lat="41.1465974" lon="14.245623"><ele>44.0</ele><time>2026-04-06T06:45:25.113Z</time></trkpt><trkpt lat="41.1465187" lon="14.2456712"><ele>44.0</ele><time>2026-04-06T06:45:28.105Z</time></trkpt><trkpt lat="41.1464601" lon="14.2457356"><ele>44.0</ele><time>2026-04-06T06:45:31.013Z</time></trkpt><trkpt lat="41.1463977" lon="14.2458173"><ele>44.0</ele><time>2026-04-06T06:45:34.033Z</time></trkpt><trkpt lat="41.1463515" lon="14.2458794"><ele>43.83333333333333</ele><time>2026-04-06T06:45:36.093Z</time></trkpt><trkpt lat="41.146278" lon="14.2459519"><ele>43.666666666666664</ele><time>2026-04-06T06:45:39.1Z</time></trkpt><trkpt lat="41.1462022" lon="14.2460128"><ele>43.5</ele><time>2026-04-06T06:45:42.113Z</time></trkpt><trkpt lat="41.146129" lon="14.2460665"><ele>43.333333333333336</ele><time>2026-04-06T06:45:45.115Z</time></trkpt><trkpt lat="41.146061" lon="14.2461262"><ele>43.16666666666667</ele><time>2026-04-06T06:45:48.037Z</time></trkpt><trkpt lat="41.145998" lon="14.2461916"><ele>43.0</ele><time>2026-04-06T06:45:51.073Z</time></trkpt><trkpt lat="41.1459301" lon="14.2462625"><ele>43.0</ele><time>2026-04-06T06:45:54.091Z</time></trkpt><trkpt lat="41.1458488" lon="14.2463175"><ele>43.0</ele><time>2026-04-06T06:45:57.097Z</time></trkpt><trkpt lat="41.145787" lon="14.2463511"><ele>43.0</ele><time>2026-04-06T06:45:59.064Z</time></trkpt><trkpt lat="41.1457113" lon="14.2464003"><ele>43.0</ele><time>2026-04-06T06:46:02.105Z</time></trkpt><trkpt lat="41.145639" lon="14.246447"><ele>43.0</ele><time>2026-04-06T06:46:04.997Z</time></trkpt><trkpt lat="41.1455704" lon="14.2464995"><ele>43.0</ele><time>2026-04-06T06:46:08.079Z</time></trkpt><trkpt lat="41.1455027" lon="14.2465355"><ele>42.66666666666667</ele><time>2026-04-06T06:46:11.077Z</time></trkpt><trkpt lat="41.1454353" lon="14.2465637"><ele>42.333333333333336</ele><time>2026-04-06T06:46:14.096Z</time></trkpt><trkpt lat="41.1453643" lon="14.2465957"><ele>42.0</ele><time>2026-04-06T06:46:17.058Z</time></trkpt><trkpt lat="41.1452893" lon="14.2466435"><ele>41.666666666666664</ele><time>2026-04-06T06:46:20.031Z</time></trkpt><trkpt lat="41.1452233" lon="14.2466751"><ele>41.33333333333333</ele><time>2026-04-06T06:46:23.057Z</time></trkpt><trkpt lat="41.1451536" lon="14.2467039"><ele>41.0</ele><time>2026-04-06T06:46:26.076Z</time></trkpt><trkpt lat="41.1450781" lon="14.2467454"><ele>40.99999999999999</ele><time>2026-04-06T06:46:29.077Z</time></trkpt><trkpt lat="41.1449995" lon="14.2467754"><ele>41.0</ele><time>2026-04-06T06:46:31.99Z</time></trkpt><trkpt lat="41.1449387" lon="14.2468031"><ele>41.0</ele><time>2026-04-06T06:46:34.094Z</time></trkpt><trkpt lat="41.1448735" lon="14.2468419"><ele>41.0</ele><time>2026-04-06T06:46:36.075Z</time></trkpt><trkpt lat="41.1448157" lon="14.2468776"><ele>41.0</ele><time>2026-04-06T06:46:37.992Z</time></trkpt><trkpt lat="41.1447563" lon="14.2469236"><ele>40.99999999999999</ele><time>2026-04-06T06:46:40.096Z</time></trkpt><trkpt lat="41.1446962" lon="14.2469752"><ele>41.0</ele><time>2026-04-06T06:46:42.092Z</time></trkpt><trkpt lat="41.1446374" lon="14.2470138"><ele>41.166666666666664</ele><time>2026-04-06T06:46:44.094Z</time></trkpt><trkpt lat="41.1445542" lon="14.2470705"><ele>41.33333333333333</ele><time>2026-04-06T06:46:47.082Z</time></trkpt><trkpt lat="41.1444964" lon="14.2471077"><ele>41.5</ele><time>2026-04-06T06:46:49.082Z</time></trkpt><trkpt lat="41.1444139" lon="14.2471666"><ele>41.666666666666664</ele><time>2026-04-06T06:46:52.059Z</time></trkpt><trkpt lat="41.1443594" lon="14.2472128"><ele>41.833333333333336</ele><time>2026-04-06T06:46:54.117Z</time></trkpt><trkpt lat="41.1442931" lon="14.2472457"><ele>42.0</ele><time>2026-04-06T06:46:56.076Z</time></trkpt><trkpt lat="41.1442352" lon="14.2472809"><ele>42.0</ele><time>2026-04-06T06:46:58.016Z</time></trkpt><trkpt lat="41.1441745" lon="14.2473134"><ele>42.0</ele><time>2026-04-06T06:47:00.162Z</time></trkpt><trkpt lat="41.1441031" lon="14.2473492"><ele>42.0</ele><time>2026-04-06T06:47:02.99Z</time></trkpt><trkpt lat="41.1440304" lon="14.2473833"><ele>42.0</ele><time>2026-04-06T06:47:06.058Z</time></trkpt><trkpt lat="41.1439566" lon="14.2473918"><ele>42.0</ele><time>2026-04-06T06:47:09.086Z</time></trkpt><trkpt lat="41.1438806" lon="14.2473976"><ele>42.0</ele><time>2026-04-06T06:47:12.155Z</time></trkpt><trkpt lat="41.1438038" lon="14.2474146"><ele>42.0</ele><time>2026-04-06T06:47:15.039Z</time></trkpt><trkpt lat="41.1437275" lon="14.2474629"><ele>42.0</ele><time>2026-04-06T06:47:18.097Z</time></trkpt><trkpt lat="41.1436586" lon="14.2475081"><ele>42.0</ele><time>2026-04-06T06:47:21.057Z</time></trkpt><trkpt lat="41.1435848" lon="14.2475662"><ele>42.0</ele><time>2026-04-06T06:47:24.079Z</time></trkpt><trkpt lat="41.1435049" lon="14.2476237"><ele>42.0</ele><time>2026-04-06T06:47:27.033Z</time></trkpt><trkpt lat="41.1434511" lon="14.2476715"><ele>42.0</ele><time>2026-04-06T06:47:29.102Z</time></trkpt><trkpt lat="41.1433841" lon="14.2477322"><ele>42.0</ele><time>2026-04-06T06:47:32.058Z</time></trkpt><trkpt lat="41.1433184" lon="14.2477993"><ele>42.0</ele><time>2026-04-06T06:47:35.136Z</time></trkpt><trkpt lat="41.1432575" lon="14.2478368"><ele>42.0</ele><time>2026-04-06T06:47:37.093Z</time></trkpt><trkpt lat="41.1431709" lon="14.2478878"><ele>42.0</ele><time>2026-04-06T06:47:40.035Z</time></trkpt><trkpt lat="41.1431035" lon="14.2479251"><ele>42.0</ele><time>2026-04-06T06:47:42.092Z</time></trkpt><trkpt lat="41.1430188" lon="14.2479646"><ele>42.0</ele><time>2026-04-06T06:47:45.04Z</time></trkpt><trkpt lat="41.1429589" lon="14.2479919"><ele>42.0</ele><time>2026-04-06T06:47:47.081Z</time></trkpt><trkpt lat="41.1428718" lon="14.2480403"><ele>42.166666666666664</ele><time>2026-04-06T06:47:50.104Z</time></trkpt><trkpt lat="41.1427883" lon="14.2480834"><ele>42.333333333333336</ele><time>2026-04-06T06:47:53.108Z</time></trkpt><trkpt lat="41.142725" lon="14.2481058"><ele>42.5</ele><time>2026-04-06T06:47:55.1Z</time></trkpt><trkpt lat="41.1426489" lon="14.2481505"><ele>42.66666666666667</ele><time>2026-04-06T06:47:58.019Z</time></trkpt><trkpt lat="41.1425907" lon="14.2481941"><ele>42.833333333333336</ele><time>2026-04-06T06:48:00.14Z</time></trkpt><trkpt lat="41.14253" lon="14.2482303"><ele>43.0</ele><time>2026-04-06T06:48:02.099Z</time></trkpt><trkpt lat="41.142443" lon="14.2482703"><ele>43.0</ele><time>2026-04-06T06:48:05.032Z</time></trkpt><trkpt lat="41.1423854" lon="14.2483053"><ele>43.0</ele><time>2026-04-06T06:48:07.163Z</time></trkpt><trkpt lat="41.1423035" lon="14.2483473"><ele>43.0</ele><time>2026-04-06T06:48:09.991Z</time></trkpt><trkpt lat="41.1422459" lon="14.2483828"><ele>43.0</ele><time>2026-04-06T06:48:12.117Z</time></trkpt><trkpt lat="41.1421619" lon="14.248431"><ele>43.0</ele><time>2026-04-06T06:48:15.091Z</time></trkpt><trkpt lat="41.1420792" lon="14.2484696"><ele>43.0</ele><time>2026-04-06T06:48:18.092Z</time></trkpt><trkpt lat="41.1419976" lon="14.248518"><ele>42.833333333333336</ele><time>2026-04-06T06:48:21.106Z</time></trkpt><trkpt lat="41.1419178" lon="14.2485688"><ele>42.66666666666667</ele><time>2026-04-06T06:48:24.106Z</time></trkpt><trkpt lat="41.1418604" lon="14.2486075"><ele>42.5</ele><time>2026-04-06T06:48:26.096Z</time></trkpt><trkpt lat="41.1417752" lon="14.2486518"><ele>42.333333333333336</ele><time>2026-04-06T06:48:29.097Z</time></trkpt><trkpt lat="41.1416917" lon="14.2487011"><ele>42.166666666666664</ele><time>2026-04-06T06:48:32.095Z</time></trkpt><trkpt lat="41.141613" lon="14.2487408"><ele>42.0</ele><time>2026-04-06T06:48:35.077Z</time></trkpt><trkpt lat="41.1415333" lon="14.2487738"><ele>42.0</ele><time>2026-04-06T06:48:38.109Z</time></trkpt><trkpt lat="41.1414543" lon="14.2488065"><ele>42.0</ele><time>2026-04-06T06:48:41.053Z</time></trkpt><trkpt lat="41.1413692" lon="14.2488514"><ele>42.0</ele><time>2026-04-06T06:48:44.107Z</time></trkpt><trkpt lat="41.1412908" lon="14.2488935"><ele>42.0</ele><time>2026-04-06T06:48:47.11Z</time></trkpt><trkpt lat="41.141208" lon="14.2489414"><ele>42.0</ele><time>2026-04-06T06:48:50.111Z</time></trkpt><trkpt lat="41.1411499" lon="14.2489741"><ele>42.0</ele><time>2026-04-06T06:48:52.072Z</time></trkpt><trkpt lat="41.1410609" lon="14.249021"><ele>42.0</ele><time>2026-04-06T06:48:55.114Z</time></trkpt><trkpt lat="41.1409781" lon="14.2490594"><ele>42.0</ele><time>2026-04-06T06:48:58.064Z</time></trkpt><trkpt lat="41.1409054" lon="14.2491024"><ele>42.0</ele><time>2026-04-06T06:49:01.117Z</time></trkpt><trkpt lat="41.1408404" lon="14.2491409"><ele>42.0</ele><time>2026-04-06T06:49:04.077Z</time></trkpt><trkpt lat="41.1407707" lon="14.2491868"><ele>42.0</ele><time>2026-04-06T06:49:07.091Z</time></trkpt><trkpt lat="41.1406917" lon="14.2492301"><ele>42.0</ele><time>2026-04-06T06:49:10.083Z</time></trkpt><trkpt lat="41.1406174" lon="14.2492732"><ele>42.0</ele><time>2026-04-06T06:49:13.091Z</time></trkpt><trkpt lat="41.1405481" lon="14.2493291"><ele>42.0</ele><time>2026-04-06T06:49:16.12Z</time></trkpt><trkpt lat="41.1404773" lon="14.2493894"><ele>42.0</ele><time>2026-04-06T06:49:19.071Z</time></trkpt><trkpt lat="41.1404082" lon="14.2494701"><ele>42.0</ele><time>2026-04-06T06:49:22.113Z</time></trkpt><trkpt lat="41.1403395" lon="14.2495563"><ele>42.0</ele><time>2026-04-06T06:49:25.096Z</time></trkpt><trkpt lat="41.1402769" lon="14.2496383"><ele>42.0</ele><time>2026-04-06T06:49:28.098Z</time></trkpt><trkpt lat="41.1402094" lon="14.2497143"><ele>42.0</ele><time>2026-04-06T06:49:31.086Z</time></trkpt><trkpt lat="41.1401382" lon="14.2497861"><ele>42.0</ele><time>2026-04-06T06:49:34.094Z</time></trkpt><trkpt lat="41.140058" lon="14.2498439"><ele>42.0</ele><time>2026-04-06T06:49:37.071Z</time></trkpt><trkpt lat="41.1399838" lon="14.249904"><ele>42.0</ele><time>2026-04-06T06:49:40.077Z</time></trkpt><trkpt lat="41.139916" lon="14.2499605"><ele>42.0</ele><time>2026-04-06T06:49:43.102Z</time></trkpt><trkpt lat="41.1398484" lon="14.2500172"><ele>42.0</ele><time>2026-04-06T06:49:46.095Z</time></trkpt><trkpt lat="41.1397692" lon="14.2500747"><ele>42.57142857142857</ele><time>2026-04-06T06:49:49.068Z</time></trkpt><trkpt lat="41.1397112" lon="14.250115"><ele>43.14285714285714</ele><time>2026-04-06T06:49:52.131Z</time></trkpt><trkpt lat="41.1396506" lon="14.2501656"><ele>43.714285714285715</ele><time>2026-04-06T06:49:55.078Z</time></trkpt><trkpt lat="41.1395892" lon="14.2502058"><ele>44.285714285714285</ele><time>2026-04-06T06:49:58.083Z</time></trkpt><trkpt lat="41.1395249" lon="14.2502424"><ele>44.857142857142854</ele><time>2026-04-06T06:50:01.041Z</time></trkpt><trkpt lat="41.1394499" lon="14.2502795"><ele>45.42857142857143</ele><time>2026-04-06T06:50:04.101Z</time></trkpt><trkpt lat="41.139382" lon="14.2503206"><ele>46.0</ele><time>2026-04-06T06:50:07.011Z</time></trkpt><trkpt lat="41.1393025" lon="14.2503365"><ele>46.0</ele><time>2026-04-06T06:50:10.093Z</time></trkpt><trkpt lat="41.1392367" lon="14.25036"><ele>46.0</ele><time>2026-04-06T06:50:12.996Z</time></trkpt><trkpt lat="41.1391624" lon="14.250387"><ele>46.0</ele><time>2026-04-06T06:50:16.089Z</time></trkpt><trkpt lat="41.1390872" lon="14.2503996"><ele>46.0</ele><time>2026-04-06T06:50:19.083Z</time></trkpt><trkpt lat="41.1390058" lon="14.2504177"><ele>46.0</ele><time>2026-04-06T06:50:22.068Z</time></trkpt><trkpt lat="41.1389278" lon="14.2504401"><ele>46.0</ele><time>2026-04-06T06:50:25.073Z</time></trkpt><trkpt lat="41.1388474" lon="14.250465"><ele>46.0</ele><time>2026-04-06T06:50:28.094Z</time></trkpt><trkpt lat="41.1387704" lon="14.2504992"><ele>46.0</ele><time>2026-04-06T06:50:31.088Z</time></trkpt><trkpt lat="41.1386984" lon="14.2505252"><ele>46.0</ele><time>2026-04-06T06:50:34.099Z</time></trkpt><trkpt lat="41.1386263" lon="14.2505438"><ele>46.0</ele><time>2026-04-06T06:50:37.079Z</time></trkpt><trkpt lat="41.1385625" lon="14.2505555"><ele>46.0</ele><time>2026-04-06T06:50:39.999Z</time></trkpt><trkpt lat="41.1384835" lon="14.2505707"><ele>46.0</ele><time>2026-04-06T06:50:44.099Z</time></trkpt><trkpt lat="41.1384178" lon="14.250592"><ele>46.0</ele><time>2026-04-06T06:50:47.05Z</time></trkpt><trkpt lat="41.1383468" lon="14.2505919"><ele>46.0</ele><time>2026-04-06T06:50:51.988Z</time></trkpt><trkpt lat="41.1382755" lon="14.2506061"><ele>46.0</ele><time>2026-04-06T06:50:56.101Z</time></trkpt><trkpt lat="41.1381974" lon="14.250635"><ele>46.0</ele><time>2026-04-06T06:51:00.073Z</time></trkpt><trkpt lat="41.1381275" lon="14.2506883"><ele>46.0</ele><time>2026-04-06T06:51:04.075Z</time></trkpt><trkpt lat="41.1380705" lon="14.2507432"><ele>46.0</ele><time>2026-04-06T06:51:07.114Z</time></trkpt><trkpt lat="41.1380127" lon="14.2507972"><ele>46.0</ele><time>2026-04-06T06:51:10.09Z</time></trkpt><trkpt lat="41.1379501" lon="14.2508541"><ele>46.5</ele><time>2026-04-06T06:51:13.037Z</time></trkpt><trkpt lat="41.1378797" lon="14.2509184"><ele>47.0</ele><time>2026-04-06T06:51:16.092Z</time></trkpt><trkpt lat="41.1378017" lon="14.2509835"><ele>47.5</ele><time>2026-04-06T06:51:19.086Z</time></trkpt><trkpt lat="41.1377355" lon="14.251054"><ele>48.0</ele><time>2026-04-06T06:51:22.066Z</time></trkpt><trkpt lat="41.1376793" lon="14.2511368"><ele>48.49999999999999</ele><time>2026-04-06T06:51:25.105Z</time></trkpt><trkpt lat="41.1376207" lon="14.2512198"><ele>49.0</ele><time>2026-04-06T06:51:27.997Z</time></trkpt><trkpt lat="41.1375757" lon="14.2512836"><ele>49.0</ele><time>2026-04-06T06:51:30.064Z</time></trkpt><trkpt lat="41.1375335" lon="14.2513481"><ele>49.0</ele><time>2026-04-06T06:51:32.074Z</time></trkpt><trkpt lat="41.13749" lon="14.2514209"><ele>49.0</ele><time>2026-04-06T06:51:34.078Z</time></trkpt><trkpt lat="41.1374342" lon="14.2515101"><ele>49.0</ele><time>2026-04-06T06:51:37.119Z</time></trkpt><trkpt lat="41.1373855" lon="14.2515665"><ele>49.0</ele><time>2026-04-06T06:51:39.069Z</time></trkpt><trkpt lat="41.1373228" lon="14.2516371"><ele>49.0</ele><time>2026-04-06T06:51:42.017Z</time></trkpt><trkpt lat="41.1372962" lon="14.251718"><ele>49.0</ele><time>2026-04-06T06:51:44.111Z</time></trkpt><trkpt lat="41.1372733" lon="14.2518132"><ele>48.42857142857143</ele><time>2026-04-06T06:51:46.072Z</time></trkpt><trkpt lat="41.1372571" lon="14.2519015"><ele>47.85714285714286</ele><time>2026-04-06T06:51:48.086Z</time></trkpt><trkpt lat="41.1372479" lon="14.2519921"><ele>47.285714285714285</ele><time>2026-04-06T06:51:50.041Z</time></trkpt><trkpt lat="41.1372383" lon="14.2520997"><ele>46.714285714285715</ele><time>2026-04-06T06:51:52.115Z</time></trkpt><trkpt lat="41.1372306" lon="14.2521895"><ele>46.142857142857146</ele><time>2026-04-06T06:51:54.08Z</time></trkpt><trkpt lat="41.137222" lon="14.2523058"><ele>45.57142857142857</ele><time>2026-04-06T06:51:56.992Z</time></trkpt><trkpt lat="41.137216" lon="14.2523907"><ele>45.0</ele><time>2026-04-06T06:51:59.096Z</time></trkpt><trkpt lat="41.1372082" lon="14.2524988"><ele>43.833333333333336</ele><time>2026-04-06T06:52:02.022Z</time></trkpt><trkpt lat="41.1371982" lon="14.2526126"><ele>42.666666666666664</ele><time>2026-04-06T06:52:05.047Z</time></trkpt><trkpt lat="41.137198" lon="14.2527188"><ele>41.5</ele><time>2026-04-06T06:52:07.995Z</time></trkpt><trkpt lat="41.1371989" lon="14.2528253"><ele>40.33333333333333</ele><time>2026-04-06T06:52:11.119Z</time></trkpt><trkpt lat="41.1371994" lon="14.2529234"><ele>39.166666666666664</ele><time>2026-04-06T06:52:14.051Z</time></trkpt><trkpt lat="41.1372267" lon="14.2530236"><ele>38.0</ele><time>2026-04-06T06:52:17.067Z</time></trkpt><trkpt lat="41.1372444" lon="14.2531261"><ele>36.5</ele><time>2026-04-06T06:52:20.075Z</time></trkpt><trkpt lat="41.1372509" lon="14.2532288"><ele>35.0</ele><time>2026-04-06T06:52:23.113Z</time></trkpt><trkpt lat="41.137253" lon="14.2533367"><ele>33.5</ele><time>2026-04-06T06:52:26.09Z</time></trkpt><trkpt lat="41.1372279" lon="14.2534409"><ele>32.0</ele><time>2026-04-06T06:52:29.019Z</time></trkpt><trkpt lat="41.1371946" lon="14.25354"><ele>30.499999999999996</ele><time>2026-04-06T06:52:32.098Z</time></trkpt><trkpt lat="41.1371724" lon="14.2536399"><ele>29.0</ele><time>2026-04-06T06:52:35.036Z</time></trkpt><trkpt lat="41.1371358" lon="14.253739"><ele>28.999999999999996</ele><time>2026-04-06T06:52:38.109Z</time></trkpt><trkpt lat="41.1371084" lon="14.2538458"><ele>29.0</ele><time>2026-04-06T06:52:41.111Z</time></trkpt><trkpt lat="41.1370759" lon="14.2539509"><ele>29.0</ele><time>2026-04-06T06:52:44.085Z</time></trkpt><trkpt lat="41.1370356" lon="14.2540521"><ele>29.0</ele><time>2026-04-06T06:52:47.118Z</time></trkpt><trkpt lat="41.1369887" lon="14.2541226"><ele>28.999999999999996</ele><time>2026-04-06T06:52:49.09Z</time></trkpt><trkpt lat="41.1369441" lon="14.2541818"><ele>29.0</ele><time>2026-04-06T06:52:50.994Z</time></trkpt><trkpt lat="41.1368928" lon="14.2542463"><ele>29.166666666666664</ele><time>2026-04-06T06:52:53.135Z</time></trkpt><trkpt lat="41.1368346" lon="14.2543218"><ele>29.333333333333332</ele><time>2026-04-06T06:52:56.101Z</time></trkpt><trkpt lat="41.1367837" lon="14.2543948"><ele>29.5</ele><time>2026-04-06T06:52:59.061Z</time></trkpt><trkpt lat="41.1367322" lon="14.254464"><ele>29.666666666666664</ele><time>2026-04-06T06:53:02.033Z</time></trkpt><trkpt lat="41.1366764" lon="14.2545448"><ele>29.833333333333332</ele><time>2026-04-06T06:53:05.081Z</time></trkpt><trkpt lat="41.1366189" lon="14.2545881"><ele>30.0</ele><time>2026-04-06T06:53:07.072Z</time></trkpt><trkpt lat="41.1365418" lon="14.2546196"><ele>29.833333333333332</ele><time>2026-04-06T06:53:09.088Z</time></trkpt><trkpt lat="41.1364692" lon="14.2546702"><ele>29.666666666666664</ele><time>2026-04-06T06:53:12.07Z</time></trkpt><trkpt lat="41.1364044" lon="14.2546505"><ele>29.5</ele><time>2026-04-06T06:53:17.111Z</time></trkpt><trkpt lat="41.1363541" lon="14.2547371"><ele>29.333333333333332</ele><time>2026-04-06T06:53:20.103Z</time></trkpt><trkpt lat="41.1363108" lon="14.2548081"><ele>29.166666666666664</ele><time>2026-04-06T06:53:23.073Z</time></trkpt><trkpt lat="41.1362428" lon="14.2548616"><ele>29.0</ele><time>2026-04-06T06:53:26.09Z</time></trkpt><trkpt lat="41.1361708" lon="14.2549092"><ele>28.999999999999996</ele><time>2026-04-06T06:53:29.078Z</time></trkpt><trkpt lat="41.1361005" lon="14.2549378"><ele>29.0</ele><time>2026-04-06T06:53:31.677Z</time></trkpt><trkpt lat="41.1360343" lon="14.2549524"><ele>29.0</ele><time>2026-04-06T06:53:34.107Z</time></trkpt><trkpt lat="41.1359557" lon="14.2549916"><ele>29.0</ele><time>2026-04-06T06:53:37.075Z</time></trkpt><trkpt lat="41.1358837" lon="14.2550587"><ele>28.999999999999996</ele><time>2026-04-06T06:53:40.098Z</time></trkpt><trkpt lat="41.1358131" lon="14.2551197"><ele>29.0</ele><time>2026-04-06T06:53:43.098Z</time></trkpt><trkpt lat="41.1357496" lon="14.2552044"><ele>29.142857142857146</ele><time>2026-04-06T06:53:46.087Z</time></trkpt><trkpt lat="41.1356907" lon="14.2552623"><ele>29.285714285714285</ele><time>2026-04-06T06:53:48.994Z</time></trkpt><trkpt lat="41.1356314" lon="14.2553219"><ele>29.42857142857143</ele><time>2026-04-06T06:53:52.074Z</time></trkpt><trkpt lat="41.1355793" lon="14.2553925"><ele>29.571428571428573</ele><time>2026-04-06T06:53:55.112Z</time></trkpt><trkpt lat="41.1355204" lon="14.2554575"><ele>29.714285714285715</ele><time>2026-04-06T06:53:58.103Z</time></trkpt><trkpt lat="41.1354611" lon="14.2555102"><ele>29.857142857142858</ele><time>2026-04-06T06:54:01.104Z</time></trkpt><trkpt lat="41.1354073" lon="14.2555627"><ele>30.0</ele><time>2026-04-06T06:54:04.101Z</time></trkpt><trkpt lat="41.1353459" lon="14.2556193"><ele>30.333333333333332</ele><time>2026-04-06T06:54:07.134Z</time></trkpt><trkpt lat="41.1352717" lon="14.2556778"><ele>30.666666666666664</ele><time>2026-04-06T06:54:10.093Z</time></trkpt><trkpt lat="41.1351981" lon="14.2557404"><ele>31.0</ele><time>2026-04-06T06:54:13.089Z</time></trkpt><trkpt lat="41.1351247" lon="14.2557927"><ele>31.333333333333332</ele><time>2026-04-06T06:54:16.064Z</time></trkpt><trkpt lat="41.1350514" lon="14.2558426"><ele>31.666666666666664</ele><time>2026-04-06T06:54:19.065Z</time></trkpt><trkpt lat="41.134977" lon="14.2559017"><ele>32.0</ele><time>2026-04-06T06:54:22.139Z</time></trkpt><trkpt lat="41.1349109" lon="14.2559551"><ele>31.666666666666664</ele><time>2026-04-06T06:54:25.093Z</time></trkpt><trkpt lat="41.1348435" lon="14.2560045"><ele>31.333333333333332</ele><time>2026-04-06T06:54:28.087Z</time></trkpt><trkpt lat="41.1347856" lon="14.256072"><ele>31.0</ele><time>2026-04-06T06:54:31.073Z</time></trkpt><trkpt lat="41.1347194" lon="14.2561356"><ele>30.666666666666664</ele><time>2026-04-06T06:54:34.079Z</time></trkpt><trkpt lat="41.1346582" lon="14.2561997"><ele>30.333333333333332</ele><time>2026-04-06T06:54:37.071Z</time></trkpt><trkpt lat="41.1345928" lon="14.2562688"><ele>30.0</ele><time>2026-04-06T06:54:40.097Z</time></trkpt><trkpt lat="41.1345324" lon="14.2563235"><ele>30.0</ele><time>2026-04-06T06:54:43.088Z</time></trkpt><trkpt lat="41.1344716" lon="14.2563778"><ele>30.0</ele><time>2026-04-06T06:54:46.073Z</time></trkpt><trkpt lat="41.1344138" lon="14.2564394"><ele>30.0</ele><time>2026-04-06T06:54:49.111Z</time></trkpt><trkpt lat="41.1343537" lon="14.2564946"><ele>30.0</ele><time>2026-04-06T06:54:52.101Z</time></trkpt><trkpt lat="41.134304" lon="14.2565561"><ele>30.0</ele><time>2026-04-06T06:54:55.087Z</time></trkpt><trkpt lat="41.1342624" lon="14.2566313"><ele>30.0</ele><time>2026-04-06T06:54:58.08Z</time></trkpt><trkpt lat="41.1342143" lon="14.2567217"><ele>30.0</ele><time>2026-04-06T06:55:01.06Z</time></trkpt><trkpt lat="41.1341461" lon="14.2567975"><ele>30.166666666666668</ele><time>2026-04-06T06:55:04.11Z</time></trkpt><trkpt lat="41.1340831" lon="14.2568698"><ele>30.333333333333336</ele><time>2026-04-06T06:55:07.078Z</time></trkpt><trkpt lat="41.134029" lon="14.2569514"><ele>30.5</ele><time>2026-04-06T06:55:10.083Z</time></trkpt><trkpt lat="41.1339761" lon="14.257026"><ele>30.666666666666668</ele><time>2026-04-06T06:55:13.017Z</time></trkpt><trkpt lat="41.133921" lon="14.2571196"><ele>30.833333333333336</ele><time>2026-04-06T06:55:16.074Z</time></trkpt><trkpt lat="41.1338642" lon="14.2572113"><ele>31.0</ele><time>2026-04-06T06:55:19.093Z</time></trkpt><trkpt lat="41.1338107" lon="14.2573122"><ele>30.666666666666668</ele><time>2026-04-06T06:55:22.099Z</time></trkpt><trkpt lat="41.1337594" lon="14.2574103"><ele>30.333333333333336</ele><time>2026-04-06T06:55:25.078Z</time></trkpt><trkpt lat="41.1337117" lon="14.2575188"><ele>30.0</ele><time>2026-04-06T06:55:28.06Z</time></trkpt><trkpt lat="41.1336674" lon="14.2576101"><ele>29.666666666666664</ele><time>2026-04-06T06:55:31.07Z</time></trkpt><trkpt lat="41.1336349" lon="14.2576822"><ele>29.333333333333332</ele><time>2026-04-06T06:55:33.076Z</time></trkpt><trkpt lat="41.1336061" lon="14.2577606"><ele>29.0</ele><time>2026-04-06T06:55:35.099Z</time></trkpt><trkpt lat="41.1335632" lon="14.2578621"><ele>29.000000000000004</ele><time>2026-04-06T06:55:38.078Z</time></trkpt><trkpt lat="41.133528" lon="14.2579359"><ele>29.0</ele><time>2026-04-06T06:55:40.074Z</time></trkpt><trkpt lat="41.1334767" lon="14.2580331"><ele>29.000000000000004</ele><time>2026-04-06T06:55:43.051Z</time></trkpt><trkpt lat="41.1334389" lon="14.2581098"><ele>29.000000000000004</ele><time>2026-04-06T06:55:45.099Z</time></trkpt><trkpt lat="41.1334021" lon="14.2581813"><ele>29.0</ele><time>2026-04-06T06:55:47.071Z</time></trkpt><trkpt lat="41.1333694" lon="14.2582531"><ele>29.000000000000004</ele><time>2026-04-06T06:55:49.07Z</time></trkpt><trkpt lat="41.1333424" lon="14.2583367"><ele>29.000000000000004</ele><time>2026-04-06T06:55:51.123Z</time></trkpt><trkpt lat="41.1333088" lon="14.258408"><ele>28.833333333333332</ele><time>2026-04-06T06:55:53.099Z</time></trkpt><trkpt lat="41.133264" lon="14.2585274"><ele>28.666666666666664</ele><time>2026-04-06T06:55:56.095Z</time></trkpt><trkpt lat="41.1332338" lon="14.2586229"><ele>28.5</ele><time>2026-04-06T06:55:58.656Z</time></trkpt><trkpt lat="41.1332006" lon="14.2587057"><ele>28.333333333333336</ele><time>2026-04-06T06:56:01.132Z</time></trkpt><trkpt lat="41.1331639" lon="14.2588062"><ele>28.166666666666668</ele><time>2026-04-06T06:56:03.99Z</time></trkpt><trkpt lat="41.133129" lon="14.2589231"><ele>28.0</ele><time>2026-04-06T06:56:07.104Z</time></trkpt><trkpt lat="41.133104" lon="14.2590156"><ele>28.333333333333336</ele><time>2026-04-06T06:56:10.013Z</time></trkpt><trkpt lat="41.1330725" lon="14.2591262"><ele>28.666666666666668</ele><time>2026-04-06T06:56:13.11Z</time></trkpt><trkpt lat="41.1330347" lon="14.2592163"><ele>29.0</ele><time>2026-04-06T06:56:16.017Z</time></trkpt><trkpt lat="41.132997" lon="14.2593099"><ele>29.333333333333336</ele><time>2026-04-06T06:56:19.098Z</time></trkpt><trkpt lat="41.1329714" lon="14.2594079"><ele>29.666666666666668</ele><time>2026-04-06T06:56:22.016Z</time></trkpt><trkpt lat="41.132944" lon="14.2595147"><ele>30.0</ele><time>2026-04-06T06:56:25.107Z</time></trkpt><trkpt lat="41.1329149" lon="14.2596155"><ele>30.0</ele><time>2026-04-06T06:56:28.122Z</time></trkpt><trkpt lat="41.132894" lon="14.2597165"><ele>30.0</ele><time>2026-04-06T06:56:31.11Z</time></trkpt><trkpt lat="41.1328663" lon="14.2598155"><ele>30.0</ele><time>2026-04-06T06:56:34.096Z</time></trkpt><trkpt lat="41.1328373" lon="14.2599126"><ele>30.0</ele><time>2026-04-06T06:56:36.997Z</time></trkpt><trkpt lat="41.1328014" lon="14.2600225"><ele>30.0</ele><time>2026-04-06T06:56:40.108Z</time></trkpt><trkpt lat="41.1327577" lon="14.2601116"><ele>30.0</ele><time>2026-04-06T06:56:43.098Z</time></trkpt><trkpt lat="41.132688" lon="14.2601596"><ele>30.142857142857146</ele><time>2026-04-06T06:56:46.089Z</time></trkpt><trkpt lat="41.132614" lon="14.2601705"><ele>30.285714285714285</ele><time>2026-04-06T06:56:49.105Z</time></trkpt><trkpt lat="41.1325436" lon="14.2601617"><ele>30.42857142857143</ele><time>2026-04-06T06:56:52.151Z</time></trkpt><trkpt lat="41.1324746" lon="14.2601638"><ele>30.571428571428573</ele><time>2026-04-06T06:56:55Z</time></trkpt><trkpt lat="41.1323962" lon="14.2601995"><ele>30.714285714285715</ele><time>2026-04-06T06:56:58.091Z</time></trkpt><trkpt lat="41.1323289" lon="14.2602299"><ele>30.857142857142858</ele><time>2026-04-06T06:57:01.016Z</time></trkpt><trkpt lat="41.1322573" lon="14.2602432"><ele>31.0</ele><time>2026-04-06T06:57:04.114Z</time></trkpt><trkpt lat="41.1321823" lon="14.2602316"><ele>29.833333333333336</ele><time>2026-04-06T06:57:07.136Z</time></trkpt><trkpt lat="41.1321063" lon="14.2602196"><ele>28.666666666666668</ele><time>2026-04-06T06:57:10.085Z</time></trkpt><trkpt lat="41.1320338" lon="14.2602169"><ele>27.5</ele><time>2026-04-06T06:57:13.097Z</time></trkpt><trkpt lat="41.1319664" lon="14.2602108"><ele>26.333333333333336</ele><time>2026-04-06T06:57:16.007Z</time></trkpt><trkpt lat="41.1318879" lon="14.2602019"><ele>25.166666666666668</ele><time>2026-04-06T06:57:19.073Z</time></trkpt><trkpt lat="41.1318076" lon="14.2601942"><ele>24.0</ele><time>2026-04-06T06:57:22.102Z</time></trkpt><trkpt lat="41.1317217" lon="14.2601763"><ele>24.0</ele><time>2026-04-06T06:57:25.068Z</time></trkpt><trkpt lat="41.1316438" lon="14.2601625"><ele>24.0</ele><time>2026-04-06T06:57:28.153Z</time></trkpt><trkpt lat="41.1315638" lon="14.2601467"><ele>24.0</ele><time>2026-04-06T06:57:31.091Z</time></trkpt><trkpt lat="41.1314757" lon="14.2601347"><ele>24.0</ele><time>2026-04-06T06:57:34.095Z</time></trkpt><trkpt lat="41.1313833" lon="14.2601266"><ele>24.0</ele><time>2026-04-06T06:57:37.125Z</time></trkpt><trkpt lat="41.1312995" lon="14.2601222"><ele>24.0</ele><time>2026-04-06T06:57:40.091Z</time></trkpt><trkpt lat="41.131217" lon="14.260108"><ele>24.833333333333332</ele><time>2026-04-06T06:57:42.999Z</time></trkpt><trkpt lat="41.1311287" lon="14.260091"><ele>25.666666666666664</ele><time>2026-04-06T06:57:46.113Z</time></trkpt><trkpt lat="41.1310388" lon="14.2600803"><ele>26.5</ele><time>2026-04-06T06:57:49.115Z</time></trkpt><trkpt lat="41.1309563" lon="14.2600678"><ele>27.333333333333332</ele><time>2026-04-06T06:57:52.094Z</time></trkpt><trkpt lat="41.1308706" lon="14.2600513"><ele>28.166666666666664</ele><time>2026-04-06T06:57:55.104Z</time></trkpt><trkpt lat="41.1307888" lon="14.2600264"><ele>29.0</ele><time>2026-04-06T06:57:58.115Z</time></trkpt><trkpt lat="41.130704" lon="14.2600063"><ele>29.999999999999996</ele><time>2026-04-06T06:58:01.11Z</time></trkpt><trkpt lat="41.1306232" lon="14.259989"><ele>31.0</ele><time>2026-04-06T06:58:04.155Z</time></trkpt><trkpt lat="41.1305448" lon="14.2599659"><ele>32.0</ele><time>2026-04-06T06:58:07.092Z</time></trkpt><trkpt lat="41.1304691" lon="14.2599458"><ele>33.0</ele><time>2026-04-06T06:58:10.046Z</time></trkpt><trkpt lat="41.1304047" lon="14.2599305"><ele>34.0</ele><time>2026-04-06T06:58:12.066Z</time></trkpt><trkpt lat="41.1303316" lon="14.2599061"><ele>35.0</ele><time>2026-04-06T06:58:15.092Z</time></trkpt><trkpt lat="41.1302529" lon="14.2598952"><ele>35.0</ele><time>2026-04-06T06:58:18.107Z</time></trkpt><trkpt lat="41.1301798" lon="14.2599016"><ele>35.0</ele><time>2026-04-06T06:58:20.994Z</time></trkpt><trkpt lat="41.1301033" lon="14.2599027"><ele>35.0</ele><time>2026-04-06T06:58:24.087Z</time></trkpt><trkpt lat="41.1300318" lon="14.2599145"><ele>35.0</ele><time>2026-04-06T06:58:27.049Z</time></trkpt><trkpt lat="41.1299901" lon="14.2599808"><ele>35.0</ele><time>2026-04-06T06:58:30.109Z</time></trkpt><trkpt lat="41.1299848" lon="14.2600829"><ele>35.0</ele><time>2026-04-06T06:58:33.083Z</time></trkpt><trkpt lat="41.1299808" lon="14.2601912"><ele>35.0</ele><time>2026-04-06T06:58:36.056Z</time></trkpt><trkpt lat="41.129965" lon="14.2602786"><ele>35.0</ele><time>2026-04-06T06:58:39.082Z</time></trkpt><trkpt lat="41.1299625" lon="14.2603698"><ele>35.0</ele><time>2026-04-06T06:58:42.035Z</time></trkpt><trkpt lat="41.1299612" lon="14.2604809"><ele>35.0</ele><time>2026-04-06T06:58:45.098Z</time></trkpt><trkpt lat="41.1299545" lon="14.2606006"><ele>35.0</ele><time>2026-04-06T06:58:48.099Z</time></trkpt><trkpt lat="41.12995" lon="14.2607185"><ele>35.0</ele><time>2026-04-06T06:58:51.114Z</time></trkpt><trkpt lat="41.1299451" lon="14.260835"><ele>35.0</ele><time>2026-04-06T06:58:54.094Z</time></trkpt><trkpt lat="41.1299504" lon="14.2609396"><ele>34.83333333333333</ele><time>2026-04-06T06:58:57.008Z</time></trkpt><trkpt lat="41.1299588" lon="14.2610501"><ele>34.666666666666664</ele><time>2026-04-06T06:59:00.111Z</time></trkpt><trkpt lat="41.1299729" lon="14.2611676"><ele>34.5</ele><time>2026-04-06T06:59:03.084Z</time></trkpt><trkpt lat="41.1299893" lon="14.2612787"><ele>34.333333333333336</ele><time>2026-04-06T06:59:06.007Z</time></trkpt><trkpt lat="41.1300007" lon="14.2613808"><ele>34.16666666666667</ele><time>2026-04-06T06:59:08.06Z</time></trkpt><trkpt lat="41.1300104" lon="14.2614958"><ele>34.0</ele><time>2026-04-06T06:59:11.074Z</time></trkpt><trkpt lat="41.1300205" lon="14.261618"><ele>33.833333333333336</ele><time>2026-04-06T06:59:14.051Z</time></trkpt><trkpt lat="41.130026" lon="14.2617074"><ele>33.66666666666667</ele><time>2026-04-06T06:59:16.099Z</time></trkpt><trkpt lat="41.130033" lon="14.2617925"><ele>33.5</ele><time>2026-04-06T06:59:18.077Z</time></trkpt><trkpt lat="41.1300429" lon="14.261919"><ele>33.333333333333336</ele><time>2026-04-06T06:59:21.132Z</time></trkpt><trkpt lat="41.1300565" lon="14.2620057"><ele>33.166666666666664</ele><time>2026-04-06T06:59:23.089Z</time></trkpt><trkpt lat="41.1300852" lon="14.2621256"><ele>33.0</ele><time>2026-04-06T06:59:26.091Z</time></trkpt><trkpt lat="41.1301109" lon="14.2622307"><ele>33.0</ele><time>2026-04-06T06:59:29.102Z</time></trkpt><trkpt lat="41.1301387" lon="14.2623265"><ele>33.0</ele><time>2026-04-06T06:59:32.012Z</time></trkpt><trkpt lat="41.1301805" lon="14.2624302"><ele>33.0</ele><time>2026-04-06T06:59:35.134Z</time></trkpt><trkpt lat="41.1302325" lon="14.2625233"><ele>33.0</ele><time>2026-04-06T06:59:38.037Z</time></trkpt><trkpt lat="41.1302897" lon="14.2626053"><ele>33.0</ele><time>2026-04-06T06:59:41.109Z</time></trkpt><trkpt lat="41.1303338" lon="14.2626892"><ele>33.0</ele><time>2026-04-06T06:59:44.042Z</time></trkpt><trkpt lat="41.1303804" lon="14.2627776"><ele>33.0</ele><time>2026-04-06T06:59:47.084Z</time></trkpt><trkpt lat="41.1304255" lon="14.262867"><ele>33.0</ele><time>2026-04-06T06:59:50.092Z</time></trkpt><trkpt lat="41.1304776" lon="14.2629454"><ele>33.0</ele><time>2026-04-06T06:59:53.047Z</time></trkpt><trkpt lat="41.1305404" lon="14.2630156"><ele>33.0</ele><time>2026-04-06T06:59:56.069Z</time></trkpt><trkpt lat="41.1305832" lon="14.2630801"><ele>33.0</ele><time>2026-04-06T06:59:59.094Z</time></trkpt><trkpt lat="41.1306118" lon="14.2631825"><ele>33.0</ele><time>2026-04-06T07:00:03.095Z</time></trkpt><trkpt lat="41.1306279" lon="14.2632862"><ele>33.0</ele><time>2026-04-06T07:00:05.993Z</time></trkpt><trkpt lat="41.130644" lon="14.2633679"><ele>33.0</ele><time>2026-04-06T07:00:08.075Z</time></trkpt><trkpt lat="41.1306716" lon="14.2634499"><ele>33.0</ele><time>2026-04-06T07:00:10.065Z</time></trkpt><trkpt lat="41.1307166" lon="14.2635485"><ele>33.0</ele><time>2026-04-06T07:00:13.074Z</time></trkpt><trkpt lat="41.1307544" lon="14.2636263"><ele>33.0</ele><time>2026-04-06T07:00:15.095Z</time></trkpt><trkpt lat="41.1307996" lon="14.2637344"><ele>33.0</ele><time>2026-04-06T07:00:18.012Z</time></trkpt><trkpt lat="41.1308293" lon="14.2638175"><ele>32.166666666666664</ele><time>2026-04-06T07:00:20.133Z</time></trkpt><trkpt lat="41.1308666" lon="14.2639315"><ele>31.333333333333336</ele><time>2026-04-06T07:00:23.099Z</time></trkpt><trkpt lat="41.1308946" lon="14.2640512"><ele>30.5</ele><time>2026-04-06T07:00:26.099Z</time></trkpt><trkpt lat="41.1309129" lon="14.2641671"><ele>29.666666666666668</ele><time>2026-04-06T07:00:29.062Z</time></trkpt><trkpt lat="41.1309185" lon="14.2642917"><ele>28.833333333333336</ele><time>2026-04-06T07:00:32.042Z</time></trkpt><trkpt lat="41.130918" lon="14.2643791"><ele>28.0</ele><time>2026-04-06T07:00:34.099Z</time></trkpt><trkpt lat="41.1309237" lon="14.264503"><ele>28.000000000000004</ele><time>2026-04-06T07:00:37.072Z</time></trkpt><trkpt lat="41.1309334" lon="14.2646297"><ele>28.0</ele><time>2026-04-06T07:00:40.09Z</time></trkpt><trkpt lat="41.1309424" lon="14.2647527"><ele>28.0</ele><time>2026-04-06T07:00:43.08Z</time></trkpt><trkpt lat="41.1309462" lon="14.2648723"><ele>28.0</ele><time>2026-04-06T07:00:46.107Z</time></trkpt><trkpt lat="41.1309466" lon="14.2649833"><ele>28.000000000000004</ele><time>2026-04-06T07:00:49.094Z</time></trkpt><trkpt lat="41.1309326" lon="14.2650903"><ele>28.0</ele><time>2026-04-06T07:00:52.086Z</time></trkpt><trkpt lat="41.1309231" lon="14.2651877"><ele>28.285714285714285</ele><time>2026-04-06T07:00:55.029Z</time></trkpt><trkpt lat="41.1309018" lon="14.2652757"><ele>28.57142857142857</ele><time>2026-04-06T07:00:58.109Z</time></trkpt><trkpt lat="41.1308926" lon="14.2653622"><ele>28.857142857142858</ele><time>2026-04-06T07:01:00.995Z</time></trkpt><trkpt lat="41.130897" lon="14.265468"><ele>29.142857142857142</ele><time>2026-04-06T07:01:04.065Z</time></trkpt><trkpt lat="41.130914" lon="14.2655658"><ele>29.428571428571427</ele><time>2026-04-06T07:01:07.008Z</time></trkpt><trkpt lat="41.1309417" lon="14.2656538"><ele>29.714285714285715</ele><time>2026-04-06T07:01:10.093Z</time></trkpt><trkpt lat="41.1309559" lon="14.2657373"><ele>30.0</ele><time>2026-04-06T07:01:13.074Z</time></trkpt><trkpt lat="41.1309662" lon="14.2658478"><ele>30.166666666666668</ele><time>2026-04-06T07:01:16.061Z</time></trkpt><trkpt lat="41.1309667" lon="14.2659598"><ele>30.333333333333336</ele><time>2026-04-06T07:01:19.057Z</time></trkpt><trkpt lat="41.1309717" lon="14.2660681"><ele>30.5</ele><time>2026-04-06T07:01:22.054Z</time></trkpt><trkpt lat="41.130966" lon="14.2661747"><ele>30.666666666666668</ele><time>2026-04-06T07:01:25.029Z</time></trkpt><trkpt lat="41.1309487" lon="14.2662616"><ele>30.833333333333336</ele><time>2026-04-06T07:01:27.059Z</time></trkpt><trkpt lat="41.1309401" lon="14.2663764"><ele>31.0</ele><time>2026-04-06T07:01:29.968Z</time></trkpt><trkpt lat="41.1309399" lon="14.2664602"><ele>31.166666666666668</ele><time>2026-04-06T07:01:32.068Z</time></trkpt><trkpt lat="41.1309425" lon="14.2665743"><ele>31.333333333333336</ele><time>2026-04-06T07:01:35.094Z</time></trkpt><trkpt lat="41.1309431" lon="14.2666694"><ele>31.5</ele><time>2026-04-06T07:01:38.053Z</time></trkpt><trkpt lat="41.1309453" lon="14.2667633"><ele>31.666666666666664</ele><time>2026-04-06T07:01:41.064Z</time></trkpt><trkpt lat="41.1309558" lon="14.266867"><ele>31.833333333333332</ele><time>2026-04-06T07:01:45.087Z</time></trkpt><trkpt lat="41.130964" lon="14.2669652"><ele>32.0</ele><time>2026-04-06T07:01:49.071Z</time></trkpt><trkpt lat="41.130987" lon="14.2670516"><ele>31.999999999999996</ele><time>2026-04-06T07:01:52.095Z</time></trkpt><trkpt lat="41.1309989" lon="14.2671482"><ele>32.0</ele><time>2026-04-06T07:01:55.059Z</time></trkpt><trkpt lat="41.1310049" lon="14.2672617"><ele>32.0</ele><time>2026-04-06T07:01:58.1Z</time></trkpt><trkpt lat="41.1310114" lon="14.2673696"><ele>32.0</ele><time>2026-04-06T07:02:01.077Z</time></trkpt><trkpt lat="41.1310204" lon="14.2674839"><ele>31.999999999999996</ele><time>2026-04-06T07:02:04.092Z</time></trkpt><trkpt lat="41.1310319" lon="14.2675858"><ele>32.0</ele><time>2026-04-06T07:02:07.044Z</time></trkpt><trkpt lat="41.1310433" lon="14.2676976"><ele>31.833333333333332</ele><time>2026-04-06T07:02:10.107Z</time></trkpt><trkpt lat="41.131061" lon="14.2678075"><ele>31.666666666666664</ele><time>2026-04-06T07:02:13.012Z</time></trkpt><trkpt lat="41.1310731" lon="14.2679114"><ele>31.5</ele><time>2026-04-06T07:02:15.103Z</time></trkpt><trkpt lat="41.1310858" lon="14.2680197"><ele>31.333333333333336</ele><time>2026-04-06T07:02:18.09Z</time></trkpt><trkpt lat="41.1311004" lon="14.2681229"><ele>31.166666666666668</ele><time>2026-04-06T07:02:21.061Z</time></trkpt><trkpt lat="41.1311129" lon="14.2682432"><ele>31.0</ele><time>2026-04-06T07:02:24.055Z</time></trkpt><trkpt lat="41.1311156" lon="14.2683505"><ele>31.666666666666668</ele><time>2026-04-06T07:02:27.051Z</time></trkpt><trkpt lat="41.1311109" lon="14.2684488"><ele>32.333333333333336</ele><time>2026-04-06T07:02:30.085Z</time></trkpt><trkpt lat="41.1311191" lon="14.2685515"><ele>33.0</ele><time>2026-04-06T07:02:33.032Z</time></trkpt><trkpt lat="41.1311302" lon="14.2686349"><ele>33.666666666666664</ele><time>2026-04-06T07:02:35.155Z</time></trkpt><trkpt lat="41.1311487" lon="14.2687533"><ele>34.33333333333333</ele><time>2026-04-06T07:02:38.078Z</time></trkpt><trkpt lat="41.1311824" lon="14.2688676"><ele>35.0</ele><time>2026-04-06T07:02:41.057Z</time></trkpt><trkpt lat="41.1312106" lon="14.2689469"><ele>35.714285714285715</ele><time>2026-04-06T07:02:43.087Z</time></trkpt><trkpt lat="41.1312388" lon="14.2690387"><ele>36.42857142857143</ele><time>2026-04-06T07:02:46.093Z</time></trkpt><trkpt lat="41.1312603" lon="14.2691279"><ele>37.14285714285714</ele><time>2026-04-06T07:02:49.072Z</time></trkpt><trkpt lat="41.131272" lon="14.2692249"><ele>37.85714285714286</ele><time>2026-04-06T07:02:52.106Z</time></trkpt><trkpt lat="41.1312724" lon="14.269323"><ele>38.57142857142857</ele><time>2026-04-06T07:02:55.055Z</time></trkpt><trkpt lat="41.1312687" lon="14.2694205"><ele>39.285714285714285</ele><time>2026-04-06T07:02:58.066Z</time></trkpt><trkpt lat="41.1312844" lon="14.2695071"><ele>40.0</ele><time>2026-04-06T07:03:02.015Z</time></trkpt><trkpt lat="41.1312947" lon="14.2695904"><ele>40.0</ele><time>2026-04-06T07:03:06.085Z</time></trkpt><trkpt lat="41.1313184" lon="14.2696794"><ele>40.0</ele><time>2026-04-06T07:03:09.066Z</time></trkpt><trkpt lat="41.1313315" lon="14.2697734"><ele>40.0</ele><time>2026-04-06T07:03:12.11Z</time></trkpt><trkpt lat="41.1313518" lon="14.2698698"><ele>40.0</ele><time>2026-04-06T07:03:15.1Z</time></trkpt><trkpt lat="41.1313769" lon="14.2699703"><ele>40.0</ele><time>2026-04-06T07:03:18.07Z</time></trkpt><trkpt lat="41.1314023" lon="14.2700875"><ele>40.0</ele><time>2026-04-06T07:03:21.099Z</time></trkpt><trkpt lat="41.131419" lon="14.2702102"><ele>40.0</ele><time>2026-04-06T07:03:24.051Z</time></trkpt><trkpt lat="41.1314387" lon="14.2703084"><ele>40.0</ele><time>2026-04-06T07:03:26.105Z</time></trkpt><trkpt lat="41.1314452" lon="14.2703984"><ele>40.0</ele><time>2026-04-06T07:03:28.077Z</time></trkpt><trkpt lat="41.1314521" lon="14.2704836"><ele>40.0</ele><time>2026-04-06T07:03:30.059Z</time></trkpt><trkpt lat="41.1314639" lon="14.270595"><ele>40.0</ele><time>2026-04-06T07:03:33.112Z</time></trkpt><trkpt lat="41.1314758" lon="14.2707138"><ele>40.0</ele><time>2026-04-06T07:03:36.124Z</time></trkpt><trkpt lat="41.1314891" lon="14.2708223"><ele>40.333333333333336</ele><time>2026-04-06T07:03:39.043Z</time></trkpt><trkpt lat="41.131506" lon="14.2709241"><ele>40.66666666666667</ele><time>2026-04-06T07:03:41.066Z</time></trkpt><trkpt lat="41.1315213" lon="14.2710296"><ele>41.0</ele><time>2026-04-06T07:03:43.106Z</time></trkpt><trkpt lat="41.1315425" lon="14.2711447"><ele>41.333333333333336</ele><time>2026-04-06T07:03:45.988Z</time></trkpt><trkpt lat="41.1315587" lon="14.2712283"><ele>41.666666666666664</ele><time>2026-04-06T07:03:48.095Z</time></trkpt><trkpt lat="41.1315823" lon="14.2713414"><ele>42.0</ele><time>2026-04-06T07:03:51.094Z</time></trkpt><trkpt lat="41.1316033" lon="14.2714488"><ele>40.0</ele><time>2026-04-06T07:03:54.048Z</time></trkpt><trkpt lat="41.1316158" lon="14.2715643"><ele>38.0</ele><time>2026-04-06T07:03:57.091Z</time></trkpt><trkpt lat="41.1316342" lon="14.2716608"><ele>36.0</ele><time>2026-04-06T07:03:59.975Z</time></trkpt><trkpt lat="41.1316726" lon="14.2717618"><ele>34.0</ele><time>2026-04-06T07:04:03.113Z</time></trkpt><trkpt lat="41.1317208" lon="14.27185"><ele>32.0</ele><time>2026-04-06T07:04:06.086Z</time></trkpt><trkpt lat="41.1317403" lon="14.2719428"><ele>30.0</ele><time>2026-04-06T07:04:08.988Z</time></trkpt><trkpt lat="41.1317498" lon="14.2720373"><ele>30.0</ele><time>2026-04-06T07:04:12.069Z</time></trkpt><trkpt lat="41.1317375" lon="14.2721394"><ele>30.0</ele><time>2026-04-06T07:04:15.108Z</time></trkpt><trkpt lat="41.1317256" lon="14.2722413"><ele>30.0</ele><time>2026-04-06T07:04:18.035Z</time></trkpt><trkpt lat="41.1317103" lon="14.272324"><ele>30.0</ele><time>2026-04-06T07:04:20.091Z</time></trkpt><trkpt lat="41.1316966" lon="14.2724448"><ele>30.0</ele><time>2026-04-06T07:04:23.084Z</time></trkpt><trkpt lat="41.1316994" lon="14.272557"><ele>30.0</ele><time>2026-04-06T07:04:26.093Z</time></trkpt><trkpt lat="41.1317033" lon="14.272663"><ele>30.166666666666668</ele><time>2026-04-06T07:04:29.071Z</time></trkpt><trkpt lat="41.1317023" lon="14.2727622"><ele>30.333333333333336</ele><time>2026-04-06T07:04:32.07Z</time></trkpt><trkpt lat="41.1316984" lon="14.2728573"><ele>30.5</ele><time>2026-04-06T07:04:35.078Z</time></trkpt><trkpt lat="41.1316886" lon="14.2729547"><ele>30.666666666666668</ele><time>2026-04-06T07:04:38.08Z</time></trkpt><trkpt lat="41.1316908" lon="14.2730647"><ele>30.833333333333336</ele><time>2026-04-06T07:04:41.094Z</time></trkpt><trkpt lat="41.1316958" lon="14.2731676"><ele>31.0</ele><time>2026-04-06T07:04:44.087Z</time></trkpt><trkpt lat="41.1316943" lon="14.2732708"><ele>31.000000000000004</ele><time>2026-04-06T07:04:47.096Z</time></trkpt><trkpt lat="41.1316915" lon="14.2733728"><ele>31.0</ele><time>2026-04-06T07:04:50.092Z</time></trkpt><trkpt lat="41.1316978" lon="14.2734798"><ele>31.0</ele><time>2026-04-06T07:04:53.059Z</time></trkpt><trkpt lat="41.1316977" lon="14.2735915"><ele>31.0</ele><time>2026-04-06T07:04:56.077Z</time></trkpt><trkpt lat="41.1316941" lon="14.273712"><ele>31.000000000000004</ele><time>2026-04-06T07:04:59.108Z</time></trkpt><trkpt lat="41.1317083" lon="14.2738249"><ele>31.0</ele><time>2026-04-06T07:05:02.097Z</time></trkpt><trkpt lat="41.1317256" lon="14.2739323"><ele>31.000000000000004</ele><time>2026-04-06T07:05:05.077Z</time></trkpt><trkpt lat="41.1317348" lon="14.2740391"><ele>31.0</ele><time>2026-04-06T07:05:08.108Z</time></trkpt><trkpt lat="41.1317457" lon="14.2741397"><ele>31.0</ele><time>2026-04-06T07:05:11.032Z</time></trkpt><trkpt lat="41.1317473" lon="14.2742583"><ele>31.0</ele><time>2026-04-06T07:05:14.091Z</time></trkpt><trkpt lat="41.1317476" lon="14.2743687"><ele>31.000000000000004</ele><time>2026-04-06T07:05:17.069Z</time></trkpt><trkpt lat="41.1317436" lon="14.2744745"><ele>31.0</ele><time>2026-04-06T07:05:20.068Z</time></trkpt><trkpt lat="41.1317338" lon="14.2745955"><ele>31.000000000000004</ele><time>2026-04-06T07:05:23.117Z</time></trkpt><trkpt lat="41.1317268" lon="14.2747036"><ele>31.0</ele><time>2026-04-06T07:05:25.987Z</time></trkpt><trkpt lat="41.1317247" lon="14.274813"><ele>31.0</ele><time>2026-04-06T07:05:28.814Z</time></trkpt><trkpt lat="41.1317238" lon="14.2748969"><ele>31.0</ele><time>2026-04-06T07:05:31.105Z</time></trkpt><trkpt lat="41.1317263" lon="14.2750053"><ele>31.000000000000004</ele><time>2026-04-06T07:05:34.109Z</time></trkpt><trkpt lat="41.131733" lon="14.275111"><ele>31.0</ele><time>2026-04-06T07:05:37.083Z</time></trkpt><trkpt lat="41.1317383" lon="14.2752198"><ele>31.000000000000004</ele><time>2026-04-06T07:05:40.073Z</time></trkpt><trkpt lat="41.1317273" lon="14.275329"><ele>31.0</ele><time>2026-04-06T07:05:43.098Z</time></trkpt><trkpt lat="41.1317168" lon="14.2754471"><ele>31.0</ele><time>2026-04-06T07:05:46.097Z</time></trkpt><trkpt lat="41.1317102" lon="14.2755709"><ele>31.0</ele><time>2026-04-06T07:05:49.089Z</time></trkpt><trkpt lat="41.1317169" lon="14.2756579"><ele>31.000000000000004</ele><time>2026-04-06T07:05:51.093Z</time></trkpt><trkpt lat="41.1317342" lon="14.2757784"><ele>31.0</ele><time>2026-04-06T07:05:54.077Z</time></trkpt><trkpt lat="41.1317434" lon="14.275881"><ele>31.0</ele><time>2026-04-06T07:05:57.112Z</time></trkpt><trkpt lat="41.131744" lon="14.2759854"><ele>31.000000000000004</ele><time>2026-04-06T07:06:00.115Z</time></trkpt><trkpt lat="41.131737" lon="14.2760834"><ele>31.0</ele><time>2026-04-06T07:06:03.029Z</time></trkpt><trkpt lat="41.1317251" lon="14.2761898"><ele>31.0</ele><time>2026-04-06T07:06:06.114Z</time></trkpt><trkpt lat="41.1317196" lon="14.2762805"><ele>31.000000000000004</ele><time>2026-04-06T07:06:09.103Z</time></trkpt><trkpt lat="41.1317252" lon="14.2763741"><ele>31.0</ele><time>2026-04-06T07:06:12.092Z</time></trkpt><trkpt lat="41.1317279" lon="14.2764728"><ele>31.0</ele><time>2026-04-06T07:06:15.111Z</time></trkpt><trkpt lat="41.1317256" lon="14.276568"><ele>31.166666666666668</ele><time>2026-04-06T07:06:18.09Z</time></trkpt><trkpt lat="41.1317279" lon="14.2766706"><ele>31.333333333333336</ele><time>2026-04-06T07:06:21.09Z</time></trkpt><trkpt lat="41.131714" lon="14.276776"><ele>31.5</ele><time>2026-04-06T07:06:24.087Z</time></trkpt><trkpt lat="41.1316869" lon="14.2768887"><ele>31.666666666666664</ele><time>2026-04-06T07:06:27.086Z</time></trkpt><trkpt lat="41.1316597" lon="14.2769938"><ele>31.833333333333332</ele><time>2026-04-06T07:06:30.069Z</time></trkpt><trkpt lat="41.1316399" lon="14.2770775"><ele>32.0</ele><time>2026-04-06T07:06:32.088Z</time></trkpt><trkpt lat="41.1315971" lon="14.2771921"><ele>31.833333333333332</ele><time>2026-04-06T07:06:35.007Z</time></trkpt><trkpt lat="41.1315629" lon="14.2772925"><ele>31.666666666666664</ele><time>2026-04-06T07:06:38.099Z</time></trkpt><trkpt lat="41.1315268" lon="14.2773812"><ele>31.5</ele><time>2026-04-06T07:06:41.103Z</time></trkpt><trkpt lat="41.1314792" lon="14.2774777"><ele>31.333333333333336</ele><time>2026-04-06T07:06:44.085Z</time></trkpt><trkpt lat="41.1314292" lon="14.2775748"><ele>31.166666666666668</ele><time>2026-04-06T07:06:47.088Z</time></trkpt><trkpt lat="41.1313783" lon="14.2776645"><ele>31.0</ele><time>2026-04-06T07:06:50.114Z</time></trkpt><trkpt lat="41.131332" lon="14.2777616"><ele>33.16666666666667</ele><time>2026-04-06T07:06:53.097Z</time></trkpt><trkpt lat="41.1313136" lon="14.2778416"><ele>35.333333333333336</ele><time>2026-04-06T07:06:55.083Z</time></trkpt><trkpt lat="41.1313071" lon="14.2779519"><ele>37.5</ele><time>2026-04-06T07:06:58.016Z</time></trkpt><trkpt lat="41.1313128" lon="14.2780603"><ele>39.666666666666664</ele><time>2026-04-06T07:07:01.155Z</time></trkpt><trkpt lat="41.1313265" lon="14.2781706"><ele>41.83333333333333</ele><time>2026-04-06T07:07:04.069Z</time></trkpt><trkpt lat="41.131367" lon="14.2782751"><ele>44.0</ele><time>2026-04-06T07:07:07.094Z</time></trkpt><trkpt lat="41.1313829" lon="14.2784017"><ele>44.0</ele><time>2026-04-06T07:07:10.08Z</time></trkpt><trkpt lat="41.1314043" lon="14.2785247"><ele>44.0</ele><time>2026-04-06T07:07:13.119Z</time></trkpt><trkpt lat="41.1314222" lon="14.2786341"><ele>44.0</ele><time>2026-04-06T07:07:16.116Z</time></trkpt><trkpt lat="41.1314485" lon="14.2787401"><ele>44.0</ele><time>2026-04-06T07:07:18.967Z</time></trkpt><trkpt lat="41.1314717" lon="14.2788226"><ele>44.0</ele><time>2026-04-06T07:07:21.092Z</time></trkpt><trkpt lat="41.1315022" lon="14.2789258"><ele>44.0</ele><time>2026-04-06T07:07:24.059Z</time></trkpt><trkpt lat="41.13152" lon="14.2790197"><ele>43.5</ele><time>2026-04-06T07:07:27.056Z</time></trkpt><trkpt lat="41.1315664" lon="14.2791109"><ele>43.0</ele><time>2026-04-06T07:07:31.117Z</time></trkpt><trkpt lat="41.1315311" lon="14.2791908"><ele>42.5</ele><time>2026-04-06T07:07:33.106Z</time></trkpt><trkpt lat="41.1314794" lon="14.279242"><ele>42.0</ele><time>2026-04-06T07:07:37.093Z</time></trkpt><trkpt lat="41.1314856" lon="14.2793497"><ele>41.5</ele><time>2026-04-06T07:07:40.014Z</time></trkpt><trkpt lat="41.1315193" lon="14.279462"><ele>41.0</ele><time>2026-04-06T07:07:43.084Z</time></trkpt><trkpt lat="41.1315665" lon="14.2795215"><ele>39.666666666666664</ele><time>2026-04-06T07:07:45.093Z</time></trkpt><trkpt lat="41.1315946" lon="14.27962"><ele>38.33333333333333</ele><time>2026-04-06T07:07:48.103Z</time></trkpt><trkpt lat="41.1316024" lon="14.2797368"><ele>37.0</ele><time>2026-04-06T07:07:51.092Z</time></trkpt><trkpt lat="41.1316041" lon="14.279846"><ele>35.666666666666664</ele><time>2026-04-06T07:07:54.12Z</time></trkpt><trkpt lat="41.1316118" lon="14.2799414"><ele>34.333333333333336</ele><time>2026-04-06T07:07:57.075Z</time></trkpt><trkpt lat="41.1316189" lon="14.2800319"><ele>33.0</ele><time>2026-04-06T07:08:00.037Z</time></trkpt><trkpt lat="41.1316289" lon="14.2801309"><ele>33.0</ele><time>2026-04-06T07:08:03.082Z</time></trkpt><trkpt lat="41.1316257" lon="14.28023"><ele>33.0</ele><time>2026-04-06T07:08:06.08Z</time></trkpt><trkpt lat="41.1316219" lon="14.2803427"><ele>33.0</ele><time>2026-04-06T07:08:09.059Z</time></trkpt><trkpt lat="41.1316177" lon="14.2804532"><ele>33.0</ele><time>2026-04-06T07:08:12.083Z</time></trkpt><trkpt lat="41.1316167" lon="14.2805522"><ele>33.0</ele><time>2026-04-06T07:08:15.106Z</time></trkpt><trkpt lat="41.1316159" lon="14.280653"><ele>33.0</ele><time>2026-04-06T07:08:18.095Z</time></trkpt><trkpt lat="41.1316192" lon="14.2807606"><ele>33.0</ele><time>2026-04-06T07:08:21.106Z</time></trkpt><trkpt lat="41.1316269" lon="14.2808659"><ele>33.0</ele><time>2026-04-06T07:08:25.015Z</time></trkpt><trkpt lat="41.1316298" lon="14.2809724"><ele>33.0</ele><time>2026-04-06T07:08:29.118Z</time></trkpt><trkpt lat="41.1316333" lon="14.2810701"><ele>33.0</ele><time>2026-04-06T07:08:33.032Z</time></trkpt><trkpt lat="41.1316505" lon="14.2811652"><ele>33.0</ele><time>2026-04-06T07:08:37.078Z</time></trkpt><trkpt lat="41.1316733" lon="14.2812706"><ele>33.0</ele><time>2026-04-06T07:08:41.048Z</time></trkpt><trkpt lat="41.1316791" lon="14.281359"><ele>32.857142857142854</ele><time>2026-04-06T07:08:44.109Z</time></trkpt><trkpt lat="41.1316826" lon="14.2814485"><ele>32.714285714285715</ele><time>2026-04-06T07:08:47.051Z</time></trkpt><trkpt lat="41.131675" lon="14.2815494"><ele>32.57142857142857</ele><time>2026-04-06T07:08:50.116Z</time></trkpt><trkpt lat="41.1316703" lon="14.2816475"><ele>32.42857142857143</ele><time>2026-04-06T07:08:53.047Z</time></trkpt><trkpt lat="41.1316703" lon="14.2817514"><ele>32.285714285714285</ele><time>2026-04-06T07:08:56.095Z</time></trkpt><trkpt lat="41.1316707" lon="14.2818505"><ele>32.14285714285714</ele><time>2026-04-06T07:08:59.064Z</time></trkpt><trkpt lat="41.1316657" lon="14.2819427"><ele>32.0</ele><time>2026-04-06T07:09:02.106Z</time></trkpt><trkpt lat="41.1316592" lon="14.2820314"><ele>32.0</ele><time>2026-04-06T07:09:05.07Z</time></trkpt><trkpt lat="41.1316506" lon="14.2821211"><ele>31.999999999999996</ele><time>2026-04-06T07:09:07.965Z</time></trkpt><trkpt lat="41.1316291" lon="14.2822019"><ele>32.0</ele><time>2026-04-06T07:09:11.071Z</time></trkpt><trkpt lat="41.1315952" lon="14.2822992"><ele>32.0</ele><time>2026-04-06T07:09:15.015Z</time></trkpt><trkpt lat="41.1315633" lon="14.2823807"><ele>31.999999999999996</ele><time>2026-04-06T07:09:18.055Z</time></trkpt><trkpt lat="41.1315343" lon="14.2824672"><ele>32.0</ele><time>2026-04-06T07:09:20.978Z</time></trkpt><trkpt lat="41.1314949" lon="14.2825785"><ele>32.0</ele><time>2026-04-06T07:09:24.061Z</time></trkpt><trkpt lat="41.1314459" lon="14.2826857"><ele>33.0</ele><time>2026-04-06T07:09:26.972Z</time></trkpt><trkpt lat="41.1314106" lon="14.2827755"><ele>34.0</ele><time>2026-04-06T07:09:28.965Z</time></trkpt><trkpt lat="41.1313624" lon="14.2828783"><ele>35.0</ele><time>2026-04-06T07:09:31.046Z</time></trkpt><trkpt lat="41.1313334" lon="14.2829869"><ele>36.0</ele><time>2026-04-06T07:09:34.013Z</time></trkpt><trkpt lat="41.1313482" lon="14.2831046"><ele>37.0</ele><time>2026-04-06T07:09:37.059Z</time></trkpt><trkpt lat="41.1313402" lon="14.2832181"><ele>38.0</ele><time>2026-04-06T07:09:40.055Z</time></trkpt><trkpt lat="41.1312935" lon="14.2833635"><ele>38.0</ele><time>2026-04-06T07:09:43.068Z</time></trkpt><trkpt lat="41.1312683" lon="14.2834507"><ele>38.0</ele><time>2026-04-06T07:09:45.058Z</time></trkpt><trkpt lat="41.1312481" lon="14.2835329"><ele>38.0</ele><time>2026-04-06T07:09:47.06Z</time></trkpt><trkpt lat="41.1312176" lon="14.2836117"><ele>38.0</ele><time>2026-04-06T07:09:49.067Z</time></trkpt><trkpt lat="41.1311849" lon="14.2836916"><ele>38.0</ele><time>2026-04-06T07:09:51.059Z</time></trkpt><trkpt lat="41.1311527" lon="14.2837746"><ele>38.0</ele><time>2026-04-06T07:09:53.058Z</time></trkpt><trkpt lat="41.1311188" lon="14.28385"><ele>38.0</ele><time>2026-04-06T07:09:54.998Z</time></trkpt><trkpt lat="41.1310749" lon="14.2839744"><ele>38.0</ele><time>2026-04-06T07:09:57.062Z</time></trkpt><trkpt lat="41.1310549" lon="14.2840643"><ele>38.0</ele><time>2026-04-06T07:09:59.07Z</time></trkpt><trkpt lat="41.1310338" lon="14.2841581"><ele>38.0</ele><time>2026-04-06T07:10:01.065Z</time></trkpt><trkpt lat="41.131012" lon="14.2842495"><ele>38.0</ele><time>2026-04-06T07:10:03.065Z</time></trkpt><trkpt lat="41.1309758" lon="14.2843283"><ele>38.0</ele><time>2026-04-06T07:10:05.059Z</time></trkpt><trkpt lat="41.130922" lon="14.2844321"><ele>38.0</ele><time>2026-04-06T07:10:08.039Z</time></trkpt><trkpt lat="41.1308909" lon="14.2845174"><ele>38.0</ele><time>2026-04-06T07:10:10.058Z</time></trkpt><trkpt lat="41.1308385" lon="14.284631"><ele>38.0</ele><time>2026-04-06T07:10:13.062Z</time></trkpt><trkpt lat="41.1307921" lon="14.2847377"><ele>38.0</ele><time>2026-04-06T07:10:16.038Z</time></trkpt><trkpt lat="41.1307487" lon="14.2848413"><ele>38.0</ele><time>2026-04-06T07:10:19.066Z</time></trkpt><trkpt lat="41.1307061" lon="14.2849454"><ele>38.0</ele><time>2026-04-06T07:10:22.053Z</time></trkpt><trkpt lat="41.1306613" lon="14.2850561"><ele>39.5</ele><time>2026-04-06T07:10:25.072Z</time></trkpt><trkpt lat="41.1306225" lon="14.2851612"><ele>41.0</ele><time>2026-04-06T07:10:28.06Z</time></trkpt><trkpt lat="41.130589" lon="14.2852705"><ele>42.5</ele><time>2026-04-06T07:10:31.071Z</time></trkpt><trkpt lat="41.1305581" lon="14.2853698"><ele>44.0</ele><time>2026-04-06T07:10:33.998Z</time></trkpt><trkpt lat="41.1305311" lon="14.2854698"><ele>45.5</ele><time>2026-04-06T07:10:37.065Z</time></trkpt><trkpt lat="41.1305085" lon="14.2855627"><ele>47.0</ele><time>2026-04-06T07:10:39.979Z</time></trkpt><trkpt lat="41.1304805" lon="14.2856395"><ele>47.0</ele><time>2026-04-06T07:10:43.062Z</time></trkpt><trkpt lat="41.1304529" lon="14.2857267"><ele>47.0</ele><time>2026-04-06T07:10:45.999Z</time></trkpt><trkpt lat="41.1304342" lon="14.2858283"><ele>47.0</ele><time>2026-04-06T07:10:49.058Z</time></trkpt><trkpt lat="41.1304217" lon="14.2859286"><ele>47.0</ele><time>2026-04-06T07:10:51.97Z</time></trkpt><trkpt lat="41.1304003" lon="14.286023"><ele>47.0</ele><time>2026-04-06T07:10:55.068Z</time></trkpt><trkpt lat="41.1303965" lon="14.2861075"><ele>47.0</ele><time>2026-04-06T07:10:58.06Z</time></trkpt><trkpt lat="41.1303475" lon="14.2862063"><ele>47.0</ele><time>2026-04-06T07:11:02.059Z</time></trkpt><trkpt lat="41.1302783" lon="14.2862803"><ele>47.0</ele><time>2026-04-06T07:11:05.06Z</time></trkpt><trkpt lat="41.1302146" lon="14.2863651"><ele>47.0</ele><time>2026-04-06T07:11:08.073Z</time></trkpt><trkpt lat="41.130178" lon="14.2864352"><ele>47.0</ele><time>2026-04-06T07:11:10.058Z</time></trkpt><trkpt lat="41.1301276" lon="14.28654"><ele>47.0</ele><time>2026-04-06T07:11:13.058Z</time></trkpt><trkpt lat="41.1300841" lon="14.2866495"><ele>47.0</ele><time>2026-04-06T07:11:16.057Z</time></trkpt><trkpt lat="41.1300438" lon="14.2867633"><ele>47.166666666666664</ele><time>2026-04-06T07:11:19.054Z</time></trkpt><trkpt lat="41.129997" lon="14.2868711"><ele>47.33333333333333</ele><time>2026-04-06T07:11:22.062Z</time></trkpt><trkpt lat="41.1299591" lon="14.2869697"><ele>47.5</ele><time>2026-04-06T07:11:25.055Z</time></trkpt><trkpt lat="41.1299233" lon="14.2870662"><ele>47.666666666666664</ele><time>2026-04-06T07:11:28.055Z</time></trkpt><trkpt lat="41.1298889" lon="14.2871596"><ele>47.833333333333336</ele><time>2026-04-06T07:11:31.064Z</time></trkpt><trkpt lat="41.1298566" lon="14.2872582"><ele>48.0</ele><time>2026-04-06T07:11:34.03Z</time></trkpt><trkpt lat="41.1298167" lon="14.2873525"><ele>47.666666666666664</ele><time>2026-04-06T07:11:37.057Z</time></trkpt><trkpt lat="41.1297806" lon="14.2874498"><ele>47.333333333333336</ele><time>2026-04-06T07:11:40.054Z</time></trkpt><trkpt lat="41.1297426" lon="14.2875447"><ele>47.0</ele><time>2026-04-06T07:11:43.058Z</time></trkpt><trkpt lat="41.1297096" lon="14.2876344"><ele>46.66666666666667</ele><time>2026-04-06T07:11:46.035Z</time></trkpt><trkpt lat="41.1296746" lon="14.2877366"><ele>46.333333333333336</ele><time>2026-04-06T07:11:49.068Z</time></trkpt><trkpt lat="41.1296429" lon="14.2878455"><ele>46.0</ele><time>2026-04-06T07:11:52.039Z</time></trkpt><trkpt lat="41.1296147" lon="14.287926"><ele>46.0</ele><time>2026-04-06T07:11:54.054Z</time></trkpt><trkpt lat="41.1295725" lon="14.2880317"><ele>46.0</ele><time>2026-04-06T07:11:57.054Z</time></trkpt><trkpt lat="41.1295307" lon="14.2881302"><ele>46.0</ele><time>2026-04-06T07:12:00.056Z</time></trkpt><trkpt lat="41.12949" lon="14.2882105"><ele>46.0</ele><time>2026-04-06T07:12:03.054Z</time></trkpt><trkpt lat="41.1294411" lon="14.2882785"><ele>46.0</ele><time>2026-04-06T07:12:05.997Z</time></trkpt><trkpt lat="41.1293915" lon="14.288337"><ele>46.0</ele><time>2026-04-06T07:12:09.062Z</time></trkpt><trkpt lat="41.1293538" lon="14.2884084"><ele>45.66666666666667</ele><time>2026-04-06T07:12:11.973Z</time></trkpt><trkpt lat="41.1293238" lon="14.2885014"><ele>45.333333333333336</ele><time>2026-04-06T07:12:15.061Z</time></trkpt><trkpt lat="41.129293" lon="14.2885913"><ele>45.0</ele><time>2026-04-06T07:12:18.059Z</time></trkpt><trkpt lat="41.1292559" lon="14.2886803"><ele>44.666666666666664</ele><time>2026-04-06T07:12:21.062Z</time></trkpt><trkpt lat="41.129219" lon="14.2887701"><ele>44.33333333333333</ele><time>2026-04-06T07:12:24.013Z</time></trkpt><trkpt lat="41.1291882" lon="14.2888682"><ele>44.0</ele><time>2026-04-06T07:12:27.067Z</time></trkpt><trkpt lat="41.1291585" lon="14.2889669"><ele>43.666666666666664</ele><time>2026-04-06T07:12:30.051Z</time></trkpt><trkpt lat="41.1291251" lon="14.2890689"><ele>43.33333333333333</ele><time>2026-04-06T07:12:33.058Z</time></trkpt><trkpt lat="41.1290869" lon="14.2891597"><ele>43.0</ele><time>2026-04-06T07:12:35.998Z</time></trkpt><trkpt lat="41.1290421" lon="14.2892675"><ele>42.666666666666664</ele><time>2026-04-06T07:12:39.072Z</time></trkpt><trkpt lat="41.1289977" lon="14.2893621"><ele>42.333333333333336</ele><time>2026-04-06T07:12:42.06Z</time></trkpt><trkpt lat="41.1289587" lon="14.2894561"><ele>42.0</ele><time>2026-04-06T07:12:45.06Z</time></trkpt><trkpt lat="41.1289198" lon="14.289545"><ele>42.0</ele><time>2026-04-06T07:12:47.971Z</time></trkpt><trkpt lat="41.128884" lon="14.2896457"><ele>42.0</ele><time>2026-04-06T07:12:51.064Z</time></trkpt><trkpt lat="41.1288549" lon="14.2897439"><ele>42.0</ele><time>2026-04-06T07:12:53.977Z</time></trkpt><trkpt lat="41.1288272" lon="14.2898474"><ele>42.0</ele><time>2026-04-06T07:12:57.063Z</time></trkpt><trkpt lat="41.128799" lon="14.2899455"><ele>42.0</ele><time>2026-04-06T07:12:59.973Z</time></trkpt><trkpt lat="41.1287776" lon="14.290033"><ele>42.0</ele><time>2026-04-06T07:13:03.057Z</time></trkpt><trkpt lat="41.1287472" lon="14.2901186"><ele>41.857142857142854</ele><time>2026-04-06T07:13:06.038Z</time></trkpt><trkpt lat="41.1287101" lon="14.290208"><ele>41.714285714285715</ele><time>2026-04-06T07:13:09.096Z</time></trkpt><trkpt lat="41.1286794" lon="14.2902844"><ele>41.57142857142857</ele><time>2026-04-06T07:13:12.066Z</time></trkpt><trkpt lat="41.1286523" lon="14.2903671"><ele>41.42857142857143</ele><time>2026-04-06T07:13:14.97Z</time></trkpt><trkpt lat="41.1286221" lon="14.2904622"><ele>41.285714285714285</ele><time>2026-04-06T07:13:18.063Z</time></trkpt><trkpt lat="41.1285915" lon="14.2905536"><ele>41.14285714285714</ele><time>2026-04-06T07:13:21.018Z</time></trkpt><trkpt lat="41.1285606" lon="14.2906504"><ele>41.0</ele><time>2026-04-06T07:13:24.058Z</time></trkpt><trkpt lat="41.1285245" lon="14.290743"><ele>40.99999999999999</ele><time>2026-04-06T07:13:27.069Z</time></trkpt><trkpt lat="41.1284923" lon="14.2908161"><ele>41.0</ele><time>2026-04-06T07:13:29.591Z</time></trkpt><trkpt lat="41.1284506" lon="14.2909136"><ele>41.0</ele><time>2026-04-06T07:13:33.059Z</time></trkpt><trkpt lat="41.1284152" lon="14.290988"><ele>41.0</ele><time>2026-04-06T07:13:36.018Z</time></trkpt><trkpt lat="41.1283803" lon="14.2910683"><ele>41.0</ele><time>2026-04-06T07:13:39.062Z</time></trkpt><trkpt lat="41.1283445" lon="14.2911444"><ele>40.99999999999999</ele><time>2026-04-06T07:13:42.067Z</time></trkpt><trkpt lat="41.1283072" lon="14.2912233"><ele>41.0</ele><time>2026-04-06T07:13:45.062Z</time></trkpt><trkpt lat="41.1282625" lon="14.2913066"><ele>41.5</ele><time>2026-04-06T07:13:48.079Z</time></trkpt><trkpt lat="41.1282112" lon="14.2913957"><ele>42.0</ele><time>2026-04-06T07:13:51.055Z</time></trkpt><trkpt lat="41.1281574" lon="14.291496"><ele>42.5</ele><time>2026-04-06T07:13:54.055Z</time></trkpt><trkpt lat="41.1281191" lon="14.2915978"><ele>43.0</ele><time>2026-04-06T07:13:56.972Z</time></trkpt><trkpt lat="41.1280944" lon="14.2916776"><ele>43.5</ele><time>2026-04-06T07:13:59.062Z</time></trkpt><trkpt lat="41.1280726" lon="14.2917565"><ele>44.0</ele><time>2026-04-06T07:14:01.081Z</time></trkpt><trkpt lat="41.1280452" lon="14.2918681"><ele>44.33333333333333</ele><time>2026-04-06T07:14:04.09Z</time></trkpt><trkpt lat="41.1280118" lon="14.2919785"><ele>44.666666666666664</ele><time>2026-04-06T07:14:07.07Z</time></trkpt><trkpt lat="41.1279767" lon="14.2920596"><ele>45.0</ele><time>2026-04-06T07:14:10.06Z</time></trkpt><trkpt lat="41.1279428" lon="14.292149"><ele>45.333333333333336</ele><time>2026-04-06T07:14:13.059Z</time></trkpt><trkpt lat="41.1278958" lon="14.2922307"><ele>45.66666666666667</ele><time>2026-04-06T07:14:16.066Z</time></trkpt><trkpt lat="41.1278524" lon="14.2923082"><ele>46.0</ele><time>2026-04-06T07:14:19.062Z</time></trkpt><trkpt lat="41.1277968" lon="14.2923822"><ele>46.0</ele><time>2026-04-06T07:14:22.061Z</time></trkpt><trkpt lat="41.1277361" lon="14.2924267"><ele>46.0</ele><time>2026-04-06T07:14:25.013Z</time></trkpt><trkpt lat="41.127674" lon="14.2924696"><ele>46.0</ele><time>2026-04-06T07:14:28.08Z</time></trkpt><trkpt lat="41.1276068" lon="14.2924823"><ele>46.0</ele><time>2026-04-06T07:14:31.03Z</time></trkpt><trkpt lat="41.127543" lon="14.2925081"><ele>46.0</ele><time>2026-04-06T07:14:34.071Z</time></trkpt><trkpt lat="41.1274802" lon="14.2925224"><ele>46.0</ele><time>2026-04-06T07:14:37.017Z</time></trkpt><trkpt lat="41.1273977" lon="14.2925467"><ele>46.0</ele><time>2026-04-06T07:14:41.069Z</time></trkpt><trkpt lat="41.127321" lon="14.2925531"><ele>47.0</ele><time>2026-04-06T07:14:45.066Z</time></trkpt><trkpt lat="41.1272591" lon="14.2925964"><ele>48.0</ele><time>2026-04-06T07:14:49.07Z</time></trkpt><trkpt lat="41.1271856" lon="14.2926431"><ele>49.0</ele><time>2026-04-06T07:14:53.016Z</time></trkpt><trkpt lat="41.1271067" lon="14.2926868"><ele>50.0</ele><time>2026-04-06T07:14:56.072Z</time></trkpt><trkpt lat="41.1270153" lon="14.2927243"><ele>50.99999999999999</ele><time>2026-04-06T07:14:59.067Z</time></trkpt><trkpt lat="41.126929" lon="14.29276"><ele>52.0</ele><time>2026-04-06T07:15:02.072Z</time></trkpt><trkpt lat="41.1268468" lon="14.2927864"><ele>51.99999999999999</ele><time>2026-04-06T07:15:05.054Z</time></trkpt><trkpt lat="41.1267647" lon="14.2928051"><ele>52.0</ele><time>2026-04-06T07:15:08.069Z</time></trkpt><trkpt lat="41.1266937" lon="14.2928265"><ele>52.0</ele><time>2026-04-06T07:15:11.091Z</time></trkpt><trkpt lat="41.1266201" lon="14.2928404"><ele>52.0</ele><time>2026-04-06T07:15:14.063Z</time></trkpt><trkpt lat="41.1265384" lon="14.2928498"><ele>51.99999999999999</ele><time>2026-04-06T07:15:18.074Z</time></trkpt><trkpt lat="41.1264611" lon="14.2928684"><ele>52.0</ele><time>2026-04-06T07:15:22.073Z</time></trkpt><trkpt lat="41.1263818" lon="14.2928819"><ele>53.14285714285714</ele><time>2026-04-06T07:15:26.072Z</time></trkpt><trkpt lat="41.1263153" lon="14.292894"><ele>54.28571428571429</ele><time>2026-04-06T07:15:29.081Z</time></trkpt><trkpt lat="41.126239" lon="14.2929039"><ele>55.42857142857143</ele><time>2026-04-06T07:15:32.07Z</time></trkpt><trkpt lat="41.1261597" lon="14.2929178"><ele>56.57142857142857</ele><time>2026-04-06T07:15:35.132Z</time></trkpt><trkpt lat="41.1260911" lon="14.2929304"><ele>57.71428571428571</ele><time>2026-04-06T07:15:38.067Z</time></trkpt><trkpt lat="41.1260259" lon="14.2929504"><ele>58.85714285714286</ele><time>2026-04-06T07:15:41.066Z</time></trkpt><trkpt lat="41.1259599" lon="14.292966"><ele>60.0</ele><time>2026-04-06T07:15:44.061Z</time></trkpt><trkpt lat="41.1258902" lon="14.2929726"><ele>60.0</ele><time>2026-04-06T07:15:47.06Z</time></trkpt><trkpt lat="41.1258264" lon="14.2929916"><ele>60.0</ele><time>2026-04-06T07:15:50.068Z</time></trkpt><trkpt lat="41.1257634" lon="14.2930363"><ele>60.0</ele><time>2026-04-06T07:15:54.064Z</time></trkpt><trkpt lat="41.125708" lon="14.2930813"><ele>60.0</ele><time>2026-04-06T07:15:57.949Z</time></trkpt><trkpt lat="41.1256429" lon="14.2931405"><ele>60.0</ele><time>2026-04-06T07:16:02.013Z</time></trkpt><trkpt lat="41.1255682" lon="14.2931891"><ele>60.0</ele><time>2026-04-06T07:16:06.072Z</time></trkpt><trkpt lat="41.125504" lon="14.29322"><ele>60.0</ele><time>2026-04-06T07:16:09.084Z</time></trkpt><trkpt lat="41.125434" lon="14.293243"><ele>60.333333333333336</ele><time>2026-04-06T07:16:12.07Z</time></trkpt><trkpt lat="41.1253584" lon="14.2932854"><ele>60.66666666666667</ele><time>2026-04-06T07:16:15.08Z</time></trkpt><trkpt lat="41.1252777" lon="14.2933166"><ele>61.0</ele><time>2026-04-06T07:16:18.065Z</time></trkpt><trkpt lat="41.125199" lon="14.2933479"><ele>61.333333333333336</ele><time>2026-04-06T07:16:21.01Z</time></trkpt><trkpt lat="41.1251228" lon="14.2933728"><ele>61.66666666666667</ele><time>2026-04-06T07:16:24.069Z</time></trkpt><trkpt lat="41.1250414" lon="14.2933972"><ele>62.0</ele><time>2026-04-06T07:16:27.076Z</time></trkpt><trkpt lat="41.1249518" lon="14.2934143"><ele>65.0</ele><time>2026-04-06T07:16:30.061Z</time></trkpt><trkpt lat="41.1248588" lon="14.2934355"><ele>68.0</ele><time>2026-04-06T07:16:33.068Z</time></trkpt><trkpt lat="41.12477" lon="14.293468"><ele>71.0</ele><time>2026-04-06T07:16:36.036Z</time></trkpt><trkpt lat="41.1246927" lon="14.2934979"><ele>74.0</ele><time>2026-04-06T07:16:39.082Z</time></trkpt><trkpt lat="41.1246242" lon="14.2935274"><ele>77.0</ele><time>2026-04-06T07:16:42.067Z</time></trkpt><trkpt lat="41.1245579" lon="14.2935624"><ele>80.0</ele><time>2026-04-06T07:16:45.035Z</time></trkpt><trkpt lat="41.1244963" lon="14.2936015"><ele>80.0</ele><time>2026-04-06T07:16:48.062Z</time></trkpt><trkpt lat="41.1244347" lon="14.2936432"><ele>80.0</ele><time>2026-04-06T07:16:51.075Z</time></trkpt><trkpt lat="41.1243632" lon="14.2936878"><ele>80.0</ele><time>2026-04-06T07:16:54.979Z</time></trkpt><trkpt lat="41.1242924" lon="14.2937208"><ele>80.0</ele><time>2026-04-06T07:16:59.069Z</time></trkpt><trkpt lat="41.1242274" lon="14.2937508"><ele>80.0</ele><time>2026-04-06T07:17:01.976Z</time></trkpt><trkpt lat="41.1241541" lon="14.2937989"><ele>80.0</ele><time>2026-04-06T07:17:05.067Z</time></trkpt><trkpt lat="41.1240823" lon="14.2938584"><ele>82.33333333333334</ele><time>2026-04-06T07:17:08.015Z</time></trkpt><trkpt lat="41.1240201" lon="14.2939273"><ele>84.66666666666667</ele><time>2026-04-06T07:17:11.054Z</time></trkpt><trkpt lat="41.1239637" lon="14.2939858"><ele>87.0</ele><time>2026-04-06T07:17:14.072Z</time></trkpt><trkpt lat="41.1238992" lon="14.2940363"><ele>89.33333333333333</ele><time>2026-04-06T07:17:17.061Z</time></trkpt><trkpt lat="41.1238363" lon="14.2941127"><ele>91.66666666666666</ele><time>2026-04-06T07:17:20.063Z</time></trkpt><trkpt lat="41.1237826" lon="14.2941918"><ele>94.0</ele><time>2026-04-06T07:17:23.056Z</time></trkpt><trkpt lat="41.1237319" lon="14.294266"><ele>94.0</ele><time>2026-04-06T07:17:26.056Z</time></trkpt><trkpt lat="41.1236924" lon="14.2943426"><ele>94.0</ele><time>2026-04-06T07:17:29.018Z</time></trkpt><trkpt lat="41.1236495" lon="14.2944226"><ele>94.0</ele><time>2026-04-06T07:17:32.068Z</time></trkpt><trkpt lat="41.1236047" lon="14.2944979"><ele>94.0</ele><time>2026-04-06T07:17:35.068Z</time></trkpt><trkpt lat="41.1235726" lon="14.2945814"><ele>94.0</ele><time>2026-04-06T07:17:38.07Z</time></trkpt><trkpt lat="41.1235498" lon="14.2946733"><ele>94.0</ele><time>2026-04-06T07:17:41.073Z</time></trkpt><trkpt lat="41.1235294" lon="14.2947582"><ele>94.0</ele><time>2026-04-06T07:17:44.011Z</time></trkpt><trkpt lat="41.1234944" lon="14.2948498"><ele>92.57142857142857</ele><time>2026-04-06T07:17:47.957Z</time></trkpt><trkpt lat="41.1234646" lon="14.2949445"><ele>91.14285714285714</ele><time>2026-04-06T07:17:52.06Z</time></trkpt><trkpt lat="41.1234203" lon="14.2950188"><ele>89.71428571428572</ele><time>2026-04-06T07:17:56.072Z</time></trkpt><trkpt lat="41.1233686" lon="14.2950735"><ele>88.28571428571428</ele><time>2026-04-06T07:18:00.063Z</time></trkpt><trkpt lat="41.1233268" lon="14.2951475"><ele>86.85714285714286</ele><time>2026-04-06T07:18:05.064Z</time></trkpt><trkpt lat="41.1232887" lon="14.29522"><ele>85.42857142857143</ele><time>2026-04-06T07:18:09.061Z</time></trkpt><trkpt lat="41.1232355" lon="14.2952997"><ele>84.0</ele><time>2026-04-06T07:18:13.05Z</time></trkpt><trkpt lat="41.1231898" lon="14.2953916"><ele>88.5</ele><time>2026-04-06T07:18:18.018Z</time></trkpt><trkpt lat="41.1231644" lon="14.2954994"><ele>93.0</ele><time>2026-04-06T07:18:22.062Z</time></trkpt><trkpt lat="41.1231433" lon="14.2955824"><ele>97.5</ele><time>2026-04-06T07:18:24.794Z</time></trkpt><trkpt lat="41.1231081" lon="14.2956884"><ele>102.0</ele><time>2026-04-06T07:18:28.054Z</time></trkpt><trkpt lat="41.1230872" lon="14.2957918"><ele>106.5</ele><time>2026-04-06T07:18:31.068Z</time></trkpt><trkpt lat="41.1230768" lon="14.2958999"><ele>111.0</ele><time>2026-04-06T07:18:34.055Z</time></trkpt><trkpt lat="41.123068" lon="14.2959864"><ele>111.0</ele><time>2026-04-06T07:18:37.059Z</time></trkpt><trkpt lat="41.1230663" lon="14.2960813"><ele>111.0</ele><time>2026-04-06T07:18:40.073Z</time></trkpt><trkpt lat="41.1230771" lon="14.2961856"><ele>111.0</ele><time>2026-04-06T07:18:44.079Z</time></trkpt><trkpt lat="41.1230799" lon="14.29629"><ele>111.0</ele><time>2026-04-06T07:18:48.057Z</time></trkpt><trkpt lat="41.1230681" lon="14.2963763"><ele>111.0</ele><time>2026-04-06T07:18:51.073Z</time></trkpt><trkpt lat="41.1230613" lon="14.2964684"><ele>111.0</ele><time>2026-04-06T07:18:54.072Z</time></trkpt><trkpt lat="41.1230592" lon="14.2965702"><ele>111.0</ele><time>2026-04-06T07:18:57.061Z</time></trkpt><trkpt lat="41.1230649" lon="14.2966694"><ele>111.28571428571428</ele><time>2026-04-06T07:19:00.069Z</time></trkpt><trkpt lat="41.1230659" lon="14.2967609"><ele>111.57142857142858</ele><time>2026-04-06T07:19:03.059Z</time></trkpt><trkpt lat="41.1230551" lon="14.2968529"><ele>111.85714285714286</ele><time>2026-04-06T07:19:06.03Z</time></trkpt><trkpt lat="41.1230376" lon="14.2969389"><ele>112.14285714285714</ele><time>2026-04-06T07:19:09.074Z</time></trkpt><trkpt lat="41.1230152" lon="14.2970202"><ele>112.42857142857142</ele><time>2026-04-06T07:19:12.066Z</time></trkpt><trkpt lat="41.1229861" lon="14.2971001"><ele>112.71428571428572</ele><time>2026-04-06T07:19:15.03Z</time></trkpt><trkpt lat="41.1229547" lon="14.2971733"><ele>113.0</ele><time>2026-04-06T07:19:18.071Z</time></trkpt><trkpt lat="41.1229185" lon="14.2972506"><ele>111.57142857142857</ele><time>2026-04-06T07:19:21.061Z</time></trkpt><trkpt lat="41.1228874" lon="14.2973247"><ele>110.14285714285714</ele><time>2026-04-06T07:19:24.029Z</time></trkpt><trkpt lat="41.1228521" lon="14.2974"><ele>108.71428571428571</ele><time>2026-04-06T07:19:27.996Z</time></trkpt><trkpt lat="41.1228007" lon="14.2974547"><ele>107.28571428571428</ele><time>2026-04-06T07:19:31.971Z</time></trkpt><trkpt lat="41.1227353" lon="14.2974923"><ele>105.85714285714286</ele><time>2026-04-06T07:19:36.062Z</time></trkpt><trkpt lat="41.1226813" lon="14.2975526"><ele>104.42857142857142</ele><time>2026-04-06T07:19:40.067Z</time></trkpt><trkpt lat="41.1226058" lon="14.2975876"><ele>103.0</ele><time>2026-04-06T07:19:44.06Z</time></trkpt><trkpt lat="41.1225451" lon="14.2976163"><ele>102.99999999999999</ele><time>2026-04-06T07:19:47.054Z</time></trkpt><trkpt lat="41.1224841" lon="14.2976601"><ele>103.0</ele><time>2026-04-06T07:19:49.976Z</time></trkpt><trkpt lat="41.1224254" lon="14.2977067"><ele>103.0</ele><time>2026-04-06T07:19:53.057Z</time></trkpt><trkpt lat="41.1223534" lon="14.297748"><ele>103.0</ele><time>2026-04-06T07:19:57.065Z</time></trkpt><trkpt lat="41.1222934" lon="14.2977808"><ele>103.0</ele><time>2026-04-06T07:20:00.978Z</time></trkpt><trkpt lat="41.122224" lon="14.297779"><ele>102.99999999999999</ele><time>2026-04-06T07:20:05.057Z</time></trkpt><trkpt lat="41.1221494" lon="14.2977833"><ele>103.0</ele><time>2026-04-06T07:20:09.014Z</time></trkpt><trkpt lat="41.1220642" lon="14.2978162"><ele>109.00000000000001</ele><time>2026-04-06T07:20:13.076Z</time></trkpt><trkpt lat="41.1219867" lon="14.2978385"><ele>115.0</ele><time>2026-04-06T07:20:17.06Z</time></trkpt><trkpt lat="41.1219083" lon="14.2978449"><ele>121.0</ele><time>2026-04-06T07:20:21.059Z</time></trkpt><trkpt lat="41.1218322" lon="14.2978814"><ele>127.0</ele><time>2026-04-06T07:20:25.059Z</time></trkpt><trkpt lat="41.121769" lon="14.2979437"><ele>133.0</ele><time>2026-04-06T07:20:29.071Z</time></trkpt><trkpt lat="41.1217177" lon="14.2980215"><ele>139.0</ele><time>2026-04-06T07:20:32.98Z</time></trkpt><trkpt lat="41.1216549" lon="14.298072"><ele>135.0</ele><time>2026-04-06T07:20:36.873Z</time></trkpt><trkpt lat="41.121583" lon="14.298106"><ele>131.0</ele><time>2026-04-06T07:20:41.066Z</time></trkpt><trkpt lat="41.1215112" lon="14.2981342"><ele>127.0</ele><time>2026-04-06T07:20:45.036Z</time></trkpt><trkpt lat="41.1214359" lon="14.2981473"><ele>123.0</ele><time>2026-04-06T07:20:49.056Z</time></trkpt><trkpt lat="41.1213583" lon="14.2981419"><ele>119.0</ele><time>2026-04-06T07:20:53.056Z</time></trkpt><trkpt lat="41.1212927" lon="14.2981073"><ele>115.0</ele><time>2026-04-06T07:20:57.067Z</time></trkpt><trkpt lat="41.1212249" lon="14.2980894"><ele>111.0</ele><time>2026-04-06T07:21:01.011Z</time></trkpt><trkpt lat="41.1211465" lon="14.2980985"><ele>111.0</ele><time>2026-04-06T07:21:05.062Z</time></trkpt><trkpt lat="41.1210635" lon="14.2981039"><ele>111.0</ele><time>2026-04-06T07:21:09.057Z</time></trkpt><trkpt lat="41.1209894" lon="14.2981198"><ele>111.0</ele><time>2026-04-06T07:21:13.058Z</time></trkpt><trkpt lat="41.1209129" lon="14.2981516"><ele>111.0</ele><time>2026-04-06T07:21:17.066Z</time></trkpt><trkpt lat="41.1208356" lon="14.2981866"><ele>111.0</ele><time>2026-04-06T07:21:21.059Z</time></trkpt><trkpt lat="41.1207565" lon="14.2982015"><ele>111.0</ele><time>2026-04-06T07:21:25.056Z</time></trkpt><trkpt lat="41.1206726" lon="14.298228"><ele>110.42857142857143</ele><time>2026-04-06T07:21:29.053Z</time></trkpt><trkpt lat="41.1206048" lon="14.2982575"><ele>109.85714285714286</ele><time>2026-04-06T07:21:31.951Z</time></trkpt><trkpt lat="41.1205406" lon="14.2982782"><ele>109.28571428571429</ele><time>2026-04-06T07:21:36.069Z</time></trkpt><trkpt lat="41.1204636" lon="14.2982754"><ele>108.71428571428572</ele><time>2026-04-06T07:21:40.059Z</time></trkpt><trkpt lat="41.1204005" lon="14.2982705"><ele>108.14285714285714</ele><time>2026-04-06T07:21:43.106Z</time></trkpt><trkpt lat="41.1203328" lon="14.2982595"><ele>107.57142857142858</ele><time>2026-04-06T07:21:46.977Z</time></trkpt><trkpt lat="41.1202607" lon="14.2982341"><ele>107.0</ele><time>2026-04-06T07:21:51.07Z</time></trkpt><trkpt lat="41.1201879" lon="14.2981947"><ele>107.00000000000001</ele><time>2026-04-06T07:21:55.062Z</time></trkpt><trkpt lat="41.1201131" lon="14.2981464"><ele>107.0</ele><time>2026-04-06T07:21:59.03Z</time></trkpt><trkpt lat="41.120047" lon="14.2981191"><ele>107.0</ele><time>2026-04-06T07:22:02.054Z</time></trkpt><trkpt lat="41.1199759" lon="14.2980986"><ele>107.0</ele><time>2026-04-06T07:22:05.072Z</time></trkpt><trkpt lat="41.1199016" lon="14.2980658"><ele>107.0</ele><time>2026-04-06T07:22:09.031Z</time></trkpt><trkpt lat="41.1198391" lon="14.2980116"><ele>107.00000000000001</ele><time>2026-04-06T07:22:13.008Z</time></trkpt><trkpt lat="41.1197855" lon="14.2979515"><ele>107.0</ele><time>2026-04-06T07:22:17.058Z</time></trkpt><trkpt lat="41.1197272" lon="14.2979138"><ele>109.83333333333333</ele><time>2026-04-06T07:22:21.059Z</time></trkpt><trkpt lat="41.1196515" lon="14.2979298"><ele>112.66666666666666</ele><time>2026-04-06T07:22:25.06Z</time></trkpt><trkpt lat="41.1195721" lon="14.2979637"><ele>115.5</ele><time>2026-04-06T07:22:29.034Z</time></trkpt><trkpt lat="41.1195025" lon="14.2980024"><ele>118.33333333333334</ele><time>2026-04-06T07:22:32.064Z</time></trkpt><trkpt lat="41.119431" lon="14.2980359"><ele>121.16666666666667</ele><time>2026-04-06T07:22:35.068Z</time></trkpt><trkpt lat="41.1193572" lon="14.2980432"><ele>124.0</ele><time>2026-04-06T07:22:38.016Z</time></trkpt><trkpt lat="41.1192914" lon="14.2980314"><ele>124.0</ele><time>2026-04-06T07:22:41.058Z</time></trkpt><trkpt lat="41.1192226" lon="14.2980323"><ele>124.00000000000001</ele><time>2026-04-06T07:22:44.062Z</time></trkpt><trkpt lat="41.1191505" lon="14.2980299"><ele>124.0</ele><time>2026-04-06T07:22:47.054Z</time></trkpt><trkpt lat="41.1190784" lon="14.2980186"><ele>124.0</ele><time>2026-04-06T07:22:50.052Z</time></trkpt><trkpt lat="41.1189998" lon="14.2980256"><ele>124.00000000000001</ele><time>2026-04-06T07:22:53.918Z</time></trkpt><trkpt lat="41.118937" lon="14.2980595"><ele>124.0</ele><time>2026-04-06T07:22:58.06Z</time></trkpt><trkpt lat="41.1188709" lon="14.2980515"><ele>124.0</ele><time>2026-04-06T07:23:03.056Z</time></trkpt><trkpt lat="41.1188164" lon="14.2979887"><ele>124.28571428571429</ele><time>2026-04-06T07:23:07.997Z</time></trkpt><trkpt lat="41.118742" lon="14.2979532"><ele>124.57142857142858</ele><time>2026-04-06T07:23:13.053Z</time></trkpt><trkpt lat="41.1186669" lon="14.2979585"><ele>124.85714285714286</ele><time>2026-04-06T07:23:17.058Z</time></trkpt><trkpt lat="41.1186002" lon="14.297943"><ele>125.14285714285714</ele><time>2026-04-06T07:23:21.078Z</time></trkpt><trkpt lat="41.1185389" lon="14.2979159"><ele>125.42857142857143</ele><time>2026-04-06T07:23:24.994Z</time></trkpt><trkpt lat="41.1184756" lon="14.2978794"><ele>125.71428571428572</ele><time>2026-04-06T07:23:28.997Z</time></trkpt><trkpt lat="41.1184166" lon="14.2978466"><ele>126.0</ele><time>2026-04-06T07:23:32.955Z</time></trkpt><trkpt lat="41.1183619" lon="14.2977994"><ele>126.0</ele><time>2026-04-06T07:23:37.059Z</time></trkpt><trkpt lat="41.118301" lon="14.2977583"><ele>126.0</ele><time>2026-04-06T07:23:42.065Z</time></trkpt><trkpt lat="41.1182356" lon="14.2977483"><ele>126.0</ele><time>2026-04-06T07:23:46.058Z</time></trkpt><trkpt lat="41.1181657" lon="14.2977435"><ele>126.0</ele><time>2026-04-06T07:23:50.061Z</time></trkpt><trkpt lat="41.1180967" lon="14.2977454"><ele>126.0</ele><time>2026-04-06T07:23:54.057Z</time></trkpt><trkpt lat="41.1180229" lon="14.2977541"><ele>126.0</ele><time>2026-04-06T07:23:58.064Z</time></trkpt><trkpt lat="41.1179422" lon="14.2977634"><ele>126.0</ele><time>2026-04-06T07:24:02.082Z</time></trkpt><trkpt lat="41.117869" lon="14.2977521"><ele>127.0</ele><time>2026-04-06T07:24:06.064Z</time></trkpt><trkpt lat="41.1177922" lon="14.2977603"><ele>128.0</ele><time>2026-04-06T07:24:10.066Z</time></trkpt><trkpt lat="41.1177156" lon="14.2977911"><ele>129.0</ele><time>2026-04-06T07:24:14.067Z</time></trkpt><trkpt lat="41.1176508" lon="14.2978419"><ele>130.0</ele><time>2026-04-06T07:24:18.061Z</time></trkpt><trkpt lat="41.1175929" lon="14.2978961"><ele>131.0</ele><time>2026-04-06T07:24:22.065Z</time></trkpt><trkpt lat="41.1175377" lon="14.2979442"><ele>132.0</ele><time>2026-04-06T07:24:26.069Z</time></trkpt><trkpt lat="41.117453" lon="14.2980054"><ele>134.0</ele><time>2026-04-06T07:24:32.298Z</time></trkpt><trkpt lat="41.1173368" lon="14.2979297"><ele>136.0</ele><time>2026-04-06T07:24:46.062Z</time></trkpt><trkpt lat="41.1172838" lon="14.2979908"><ele>138.0</ele><time>2026-04-06T07:24:58.052Z</time></trkpt><trkpt lat="41.1172178" lon="14.2980192"><ele>140.0</ele><time>2026-04-06T07:25:03.066Z</time></trkpt><trkpt lat="41.117153" lon="14.2980286"><ele>142.0</ele><time>2026-04-06T07:25:06.061Z</time></trkpt><trkpt lat="41.1170731" lon="14.2980273"><ele>144.0</ele><time>2026-04-06T07:25:11.063Z</time></trkpt><trkpt lat="41.11701" lon="14.2980217"><ele>144.00000000000003</ele><time>2026-04-06T07:25:14.814Z</time></trkpt><trkpt lat="41.1169404" lon="14.2980432"><ele>144.0</ele><time>2026-04-06T07:25:19.05Z</time></trkpt><trkpt lat="41.1168644" lon="14.2980897"><ele>144.0</ele><time>2026-04-06T07:25:23.058Z</time></trkpt><trkpt lat="41.1168027" lon="14.2981442"><ele>144.0</ele><time>2026-04-06T07:25:26.069Z</time></trkpt><trkpt lat="41.1167433" lon="14.298179"><ele>144.0</ele><time>2026-04-06T07:25:29.056Z</time></trkpt><trkpt lat="41.1167026" lon="14.2982459"><ele>144.00000000000003</ele><time>2026-04-06T07:25:34.056Z</time></trkpt><trkpt lat="41.1166527" lon="14.2983111"><ele>144.0</ele><time>2026-04-06T07:25:38.059Z</time></trkpt><trkpt lat="41.1165887" lon="14.2983781"><ele>143.5</ele><time>2026-04-06T07:25:42.057Z</time></trkpt><trkpt lat="41.116525" lon="14.2984513"><ele>143.0</ele><time>2026-04-06T07:25:46.057Z</time></trkpt><trkpt lat="41.1164728" lon="14.29853"><ele>142.5</ele><time>2026-04-06T07:25:49.992Z</time></trkpt><trkpt lat="41.1164335" lon="14.2986058"><ele>142.0</ele><time>2026-04-06T07:25:53.054Z</time></trkpt><trkpt lat="41.1164" lon="14.2986907"><ele>141.5</ele><time>2026-04-06T07:25:56.058Z</time></trkpt><trkpt lat="41.1163738" lon="14.2987755"><ele>141.0</ele><time>2026-04-06T07:25:59.06Z</time></trkpt><trkpt lat="41.1163391" lon="14.2988671"><ele>140.85714285714286</ele><time>2026-04-06T07:26:03.054Z</time></trkpt><trkpt lat="41.1162936" lon="14.2989572"><ele>140.71428571428572</ele><time>2026-04-06T07:26:07.063Z</time></trkpt><trkpt lat="41.1162543" lon="14.2990293"><ele>140.57142857142856</ele><time>2026-04-06T07:26:10.057Z</time></trkpt><trkpt lat="41.1162147" lon="14.2990982"><ele>140.42857142857144</ele><time>2026-04-06T07:26:13.016Z</time></trkpt><trkpt lat="41.1161747" lon="14.2991837"><ele>140.28571428571428</ele><time>2026-04-06T07:26:16.99Z</time></trkpt><trkpt lat="41.1161445" lon="14.2992747"><ele>140.14285714285714</ele><time>2026-04-06T07:26:21.059Z</time></trkpt><trkpt lat="41.1161114" lon="14.2993616"><ele>140.0</ele><time>2026-04-06T07:26:25.064Z</time></trkpt><trkpt lat="41.1160776" lon="14.2994416"><ele>140.0</ele><time>2026-04-06T07:26:29.059Z</time></trkpt><trkpt lat="41.1160281" lon="14.299499"><ele>140.0</ele><time>2026-04-06T07:26:33.066Z</time></trkpt><trkpt lat="41.115969" lon="14.2995567"><ele>140.0</ele><time>2026-04-06T07:26:37.073Z</time></trkpt><trkpt lat="41.115904" lon="14.299604"><ele>140.0</ele><time>2026-04-06T07:26:41.011Z</time></trkpt><trkpt lat="41.1158423" lon="14.2996645"><ele>140.0</ele><time>2026-04-06T07:26:45.063Z</time></trkpt><trkpt lat="41.1157954" lon="14.2997226"><ele>140.0</ele><time>2026-04-06T07:26:48.068Z</time></trkpt><trkpt lat="41.1157476" lon="14.2997818"><ele>140.0</ele><time>2026-04-06T07:26:51.012Z</time></trkpt><trkpt lat="41.1156876" lon="14.2998372"><ele>140.71428571428572</ele><time>2026-04-06T07:26:54.059Z</time></trkpt><trkpt lat="41.1156292" lon="14.2998986"><ele>141.42857142857144</ele><time>2026-04-06T07:26:57.077Z</time></trkpt><trkpt lat="41.1155734" lon="14.2999575"><ele>142.14285714285714</ele><time>2026-04-06T07:27:00.068Z</time></trkpt><trkpt lat="41.1155142" lon="14.3000057"><ele>142.85714285714286</ele><time>2026-04-06T07:27:03.06Z</time></trkpt><trkpt lat="41.1154528" lon="14.3000507"><ele>143.57142857142858</ele><time>2026-04-06T07:27:06.05Z</time></trkpt><trkpt lat="41.1153892" lon="14.3001075"><ele>144.28571428571428</ele><time>2026-04-06T07:27:09.072Z</time></trkpt><trkpt lat="41.1153275" lon="14.3001709"><ele>145.0</ele><time>2026-04-06T07:27:12.077Z</time></trkpt><trkpt lat="41.115277" lon="14.3002411"><ele>145.0</ele><time>2026-04-06T07:27:14.997Z</time></trkpt><trkpt lat="41.1152231" lon="14.3003018"><ele>145.0</ele><time>2026-04-06T07:27:18.066Z</time></trkpt><trkpt lat="41.11517" lon="14.3003532"><ele>145.0</ele><time>2026-04-06T07:27:20.997Z</time></trkpt><trkpt lat="41.1151135" lon="14.3004092"><ele>145.0</ele><time>2026-04-06T07:27:24.063Z</time></trkpt><trkpt lat="41.1150634" lon="14.3004742"><ele>145.0</ele><time>2026-04-06T07:27:27.056Z</time></trkpt><trkpt lat="41.115013" lon="14.3005349"><ele>145.0</ele><time>2026-04-06T07:27:30.015Z</time></trkpt><trkpt lat="41.1149528" lon="14.3005876"><ele>145.0</ele><time>2026-04-06T07:27:33.07Z</time></trkpt><trkpt lat="41.114899" lon="14.3006403"><ele>144.14285714285714</ele><time>2026-04-06T07:27:36.034Z</time></trkpt><trkpt lat="41.114842" lon="14.3007164"><ele>143.2857142857143</ele><time>2026-04-06T07:27:39.998Z</time></trkpt><trkpt lat="41.1147909" lon="14.300773"><ele>142.42857142857144</ele><time>2026-04-06T07:27:43.992Z</time></trkpt><trkpt lat="41.1147515" lon="14.3008444"><ele>141.57142857142858</ele><time>2026-04-06T07:27:47.976Z</time></trkpt><trkpt lat="41.1146921" lon="14.3009014"><ele>140.71428571428572</ele><time>2026-04-06T07:27:52.066Z</time></trkpt><trkpt lat="41.1146359" lon="14.3009433"><ele>139.85714285714286</ele><time>2026-04-06T07:27:55.071Z</time></trkpt><trkpt lat="41.1145832" lon="14.300991"><ele>139.0</ele><time>2026-04-06T07:27:58.036Z</time></trkpt><trkpt lat="41.1145204" lon="14.3010483"><ele>139.0</ele><time>2026-04-06T07:28:01.97Z</time></trkpt><trkpt lat="41.1144759" lon="14.3011117"><ele>139.0</ele><time>2026-04-06T07:28:05.062Z</time></trkpt><trkpt lat="41.1144202" lon="14.3011517"><ele>139.0</ele><time>2026-04-06T07:28:08.072Z</time></trkpt><trkpt lat="41.1143455" lon="14.3012013"><ele>139.0</ele><time>2026-04-06T07:28:12.055Z</time></trkpt><trkpt lat="41.1142872" lon="14.3012462"><ele>139.0</ele><time>2026-04-06T07:28:14.976Z</time></trkpt><trkpt lat="41.1142256" lon="14.3012961"><ele>139.0</ele><time>2026-04-06T07:28:18.06Z</time></trkpt><trkpt lat="41.1141626" lon="14.3013474"><ele>139.0</ele><time>2026-04-06T07:28:21.01Z</time></trkpt><trkpt lat="41.1140914" lon="14.3014027"><ele>140.83333333333334</ele><time>2026-04-06T07:28:24.06Z</time></trkpt><trkpt lat="41.1140196" lon="14.3014529"><ele>142.66666666666669</ele><time>2026-04-06T07:28:27.053Z</time></trkpt><trkpt lat="41.1139624" lon="14.301492"><ele>144.5</ele><time>2026-04-06T07:28:29.638Z</time></trkpt><trkpt lat="41.1138941" lon="14.3015381"><ele>146.33333333333334</ele><time>2026-04-06T07:28:33.069Z</time></trkpt><trkpt lat="41.1138254" lon="14.3016005"><ele>148.16666666666666</ele><time>2026-04-06T07:28:37.063Z</time></trkpt><trkpt lat="41.1137587" lon="14.3016611"><ele>150.0</ele><time>2026-04-06T07:28:41.064Z</time></trkpt><trkpt lat="41.1137091" lon="14.3017208"><ele>149.99999999999997</ele><time>2026-04-06T07:28:45.067Z</time></trkpt><trkpt lat="41.1136691" lon="14.3017988"><ele>150.0</ele><time>2026-04-06T07:28:49.057Z</time></trkpt><trkpt lat="41.1136176" lon="14.3018698"><ele>150.0</ele><time>2026-04-06T07:28:53.068Z</time></trkpt><trkpt lat="41.113546" lon="14.3019252"><ele>150.0</ele><time>2026-04-06T07:28:57.075Z</time></trkpt><trkpt lat="41.1134862" lon="14.3019635"><ele>150.0</ele><time>2026-04-06T07:29:00.058Z</time></trkpt><trkpt lat="41.1134196" lon="14.302018"><ele>149.99999999999997</ele><time>2026-04-06T07:29:03.066Z</time></trkpt><trkpt lat="41.1133522" lon="14.3020662"><ele>150.0</ele><time>2026-04-06T07:29:06.015Z</time></trkpt><trkpt lat="41.113272" lon="14.3020947"><ele>151.16666666666666</ele><time>2026-04-06T07:29:09.067Z</time></trkpt><trkpt lat="41.1131944" lon="14.3021168"><ele>152.33333333333334</ele><time>2026-04-06T07:29:12.071Z</time></trkpt><trkpt lat="41.1131113" lon="14.3021395"><ele>153.5</ele><time>2026-04-06T07:29:15.076Z</time></trkpt><trkpt lat="41.1130295" lon="14.3021676"><ele>154.66666666666669</ele><time>2026-04-06T07:29:18.062Z</time></trkpt><trkpt lat="41.1129597" lon="14.3022172"><ele>155.83333333333334</ele><time>2026-04-06T07:29:21.062Z</time></trkpt><trkpt lat="41.1128929" lon="14.3022704"><ele>157.0</ele><time>2026-04-06T07:29:24.061Z</time></trkpt><trkpt lat="41.1128261" lon="14.3023117"><ele>157.5</ele><time>2026-04-06T07:29:27.078Z</time></trkpt><trkpt lat="41.1127525" lon="14.3023541"><ele>158.0</ele><time>2026-04-06T07:29:30.056Z</time></trkpt><trkpt lat="41.1126841" lon="14.3024047"><ele>158.5</ele><time>2026-04-06T07:29:33.072Z</time></trkpt><trkpt lat="41.1126145" lon="14.3024383"><ele>159.0</ele><time>2026-04-06T07:29:36.017Z</time></trkpt><trkpt lat="41.1125242" lon="14.302469"><ele>159.5</ele><time>2026-04-06T07:29:39.066Z</time></trkpt><trkpt lat="41.1124404" lon="14.3024972"><ele>160.0</ele><time>2026-04-06T07:29:42.012Z</time></trkpt><trkpt lat="41.1123554" lon="14.3025104"><ele>160.14285714285714</ele><time>2026-04-06T07:29:45.06Z</time></trkpt><trkpt lat="41.1122816" lon="14.3025205"><ele>160.28571428571428</ele><time>2026-04-06T07:29:48.063Z</time></trkpt><trkpt lat="41.1122062" lon="14.3025329"><ele>160.42857142857144</ele><time>2026-04-06T07:29:51.063Z</time></trkpt><trkpt lat="41.1121369" lon="14.3025495"><ele>160.57142857142856</ele><time>2026-04-06T07:29:54.062Z</time></trkpt><trkpt lat="41.112071" lon="14.3025709"><ele>160.71428571428572</ele><time>2026-04-06T07:29:57.077Z</time></trkpt><trkpt lat="41.1120056" lon="14.3025852"><ele>160.85714285714286</ele><time>2026-04-06T07:30:00.059Z</time></trkpt><trkpt lat="41.1119406" lon="14.3026035"><ele>161.0</ele><time>2026-04-06T07:30:03.054Z</time></trkpt><trkpt lat="41.1118755" lon="14.3026344"><ele>161.0</ele><time>2026-04-06T07:30:06.06Z</time></trkpt><trkpt lat="41.1118095" lon="14.3026662"><ele>161.0</ele><time>2026-04-06T07:30:09.079Z</time></trkpt><trkpt lat="41.1117538" lon="14.3027065"><ele>161.0</ele><time>2026-04-06T07:30:11.999Z</time></trkpt><trkpt lat="41.1116841" lon="14.302736"><ele>161.0</ele><time>2026-04-06T07:30:15.059Z</time></trkpt><trkpt lat="41.1116063" lon="14.3027627"><ele>161.0</ele><time>2026-04-06T07:30:19.065Z</time></trkpt><trkpt lat="41.111544" lon="14.3028049"><ele>161.0</ele><time>2026-04-06T07:30:22.035Z</time></trkpt><trkpt lat="41.1114732" lon="14.3028457"><ele>161.0</ele><time>2026-04-06T07:30:25.063Z</time></trkpt><trkpt lat="41.1114082" lon="14.3028708"><ele>161.71428571428572</ele><time>2026-04-06T07:30:28.073Z</time></trkpt><trkpt lat="41.1113407" lon="14.3028888"><ele>162.42857142857144</ele><time>2026-04-06T07:30:30.971Z</time></trkpt><trkpt lat="41.1112638" lon="14.3029214"><ele>163.14285714285714</ele><time>2026-04-06T07:30:34.071Z</time></trkpt><trkpt lat="41.111199" lon="14.302947"><ele>163.85714285714286</ele><time>2026-04-06T07:30:36.974Z</time></trkpt><trkpt lat="41.1111277" lon="14.3029781"><ele>164.57142857142858</ele><time>2026-04-06T07:30:40.062Z</time></trkpt><trkpt lat="41.1110638" lon="14.3029936"><ele>165.28571428571428</ele><time>2026-04-06T07:30:43.077Z</time></trkpt><trkpt lat="41.1110026" lon="14.3030205"><ele>166.0</ele><time>2026-04-06T07:30:46.019Z</time></trkpt><trkpt lat="41.1109341" lon="14.3030539"><ele>166.5</ele><time>2026-04-06T07:30:49.068Z</time></trkpt><trkpt lat="41.1108562" lon="14.3030896"><ele>167.0</ele><time>2026-04-06T07:30:52.067Z</time></trkpt><trkpt lat="41.1107676" lon="14.3031193"><ele>167.5</ele><time>2026-04-06T07:30:55.06Z</time></trkpt><trkpt lat="41.1106927" lon="14.3031459"><ele>168.0</ele><time>2026-04-06T07:30:58.073Z</time></trkpt><trkpt lat="41.1106238" lon="14.3031706"><ele>168.5</ele><time>2026-04-06T07:31:00.998Z</time></trkpt><trkpt lat="41.1105591" lon="14.3031971"><ele>169.0</ele><time>2026-04-06T07:31:04.062Z</time></trkpt><trkpt lat="41.1104897" lon="14.3032228"><ele>169.42857142857144</ele><time>2026-04-06T07:31:08.061Z</time></trkpt><trkpt lat="41.1104144" lon="14.3032451"><ele>169.85714285714286</ele><time>2026-04-06T07:31:12.075Z</time></trkpt><trkpt lat="41.1103457" lon="14.303287"><ele>170.28571428571428</ele><time>2026-04-06T07:31:16.03Z</time></trkpt><trkpt lat="41.1102894" lon="14.3033318"><ele>170.71428571428572</ele><time>2026-04-06T07:31:19.06Z</time></trkpt><trkpt lat="41.1102311" lon="14.3033724"><ele>171.14285714285714</ele><time>2026-04-06T07:31:22.06Z</time></trkpt><trkpt lat="41.1101669" lon="14.3034075"><ele>171.57142857142858</ele><time>2026-04-06T07:31:25.062Z</time></trkpt><trkpt lat="41.1101009" lon="14.3034372"><ele>172.0</ele><time>2026-04-06T07:31:28.061Z</time></trkpt><trkpt lat="41.1100407" lon="14.3034845"><ele>172.00000000000003</ele><time>2026-04-06T07:31:31.011Z</time></trkpt><trkpt lat="41.1099746" lon="14.303519"><ele>172.0</ele><time>2026-04-06T07:31:34.068Z</time></trkpt><trkpt lat="41.1099057" lon="14.3035654"><ele>172.0</ele><time>2026-04-06T07:31:37.061Z</time></trkpt><trkpt lat="41.1098414" lon="14.3036061"><ele>172.0</ele><time>2026-04-06T07:31:40.032Z</time></trkpt><trkpt lat="41.109776" lon="14.303651"><ele>172.0</ele><time>2026-04-06T07:31:43.069Z</time></trkpt><trkpt lat="41.1097191" lon="14.3037074"><ele>172.00000000000003</ele><time>2026-04-06T07:31:46.066Z</time></trkpt><trkpt lat="41.1096764" lon="14.3037695"><ele>172.0</ele><time>2026-04-06T07:31:49.033Z</time></trkpt><trkpt lat="41.1096205" lon="14.3038463"><ele>172.2857142857143</ele><time>2026-04-06T07:31:53.057Z</time></trkpt><trkpt lat="41.1095595" lon="14.3039126"><ele>172.57142857142858</ele><time>2026-04-06T07:31:57.067Z</time></trkpt><trkpt lat="41.1095137" lon="14.3039714"><ele>172.85714285714286</ele><time>2026-04-06T07:32:00.062Z</time></trkpt><trkpt lat="41.1094595" lon="14.304052"><ele>173.14285714285717</ele><time>2026-04-06T07:32:04.058Z</time></trkpt><trkpt lat="41.109417" lon="14.3041168"><ele>173.42857142857144</ele><time>2026-04-06T07:32:07.013Z</time></trkpt><trkpt lat="41.1093734" lon="14.3041818"><ele>173.71428571428572</ele><time>2026-04-06T07:32:10.062Z</time></trkpt><trkpt lat="41.1093307" lon="14.3042566"><ele>174.0</ele><time>2026-04-06T07:32:13.058Z</time></trkpt><trkpt lat="41.1092872" lon="14.3043328"><ele>174.0</ele><time>2026-04-06T07:32:16.065Z</time></trkpt><trkpt lat="41.109248" lon="14.3044067"><ele>174.0</ele><time>2026-04-06T07:32:19.068Z</time></trkpt><trkpt lat="41.1092092" lon="14.3044807"><ele>174.0</ele><time>2026-04-06T07:32:22.016Z</time></trkpt><trkpt lat="41.1091713" lon="14.3045499"><ele>174.0</ele><time>2026-04-06T07:32:24.85Z</time></trkpt><trkpt lat="41.1091233" lon="14.3046304"><ele>174.0</ele><time>2026-04-06T07:32:29.031Z</time></trkpt><trkpt lat="41.1090995" lon="14.3047308"><ele>174.0</ele><time>2026-04-06T07:32:34.036Z</time></trkpt><trkpt lat="41.1090552" lon="14.3048191"><ele>174.0</ele><time>2026-04-06T07:32:37.057Z</time></trkpt><trkpt lat="41.109005" lon="14.3048961"><ele>173.42857142857142</ele><time>2026-04-06T07:32:40.051Z</time></trkpt><trkpt lat="41.1089602" lon="14.3049755"><ele>172.85714285714286</ele><time>2026-04-06T07:32:43.059Z</time></trkpt><trkpt lat="41.1089063" lon="14.305044"><ele>172.28571428571428</ele><time>2026-04-06T07:32:46.058Z</time></trkpt><trkpt lat="41.1088511" lon="14.3051129"><ele>171.71428571428572</ele><time>2026-04-06T07:32:49.063Z</time></trkpt><trkpt lat="41.1087921" lon="14.3051728"><ele>171.14285714285714</ele><time>2026-04-06T07:32:52.058Z</time></trkpt><trkpt lat="41.1087383" lon="14.3052387"><ele>170.57142857142858</ele><time>2026-04-06T07:32:54.895Z</time></trkpt><trkpt lat="41.1086843" lon="14.305307"><ele>170.0</ele><time>2026-04-06T07:32:58.049Z</time></trkpt><trkpt lat="41.108646" lon="14.3053934"><ele>170.0</ele><time>2026-04-06T07:33:01.054Z</time></trkpt><trkpt lat="41.1085884" lon="14.3054552"><ele>170.0</ele><time>2026-04-06T07:33:04.055Z</time></trkpt><trkpt lat="41.108518" lon="14.305494"><ele>170.0</ele><time>2026-04-06T07:33:07.056Z</time></trkpt><trkpt lat="41.1084362" lon="14.3055241"><ele>170.0</ele><time>2026-04-06T07:33:10.06Z</time></trkpt><trkpt lat="41.1083439" lon="14.3055524"><ele>170.0</ele><time>2026-04-06T07:33:13.095Z</time></trkpt><trkpt lat="41.1082651" lon="14.3056117"><ele>170.0</ele><time>2026-04-06T07:33:16.067Z</time></trkpt><trkpt lat="41.1081887" lon="14.30566"><ele>169.5</ele><time>2026-04-06T07:33:19.061Z</time></trkpt><trkpt lat="41.1081132" lon="14.3057203"><ele>169.0</ele><time>2026-04-06T07:33:22.062Z</time></trkpt><trkpt lat="41.1080401" lon="14.3057837"><ele>168.5</ele><time>2026-04-06T07:33:25.038Z</time></trkpt><trkpt lat="41.1079695" lon="14.3058373"><ele>168.0</ele><time>2026-04-06T07:33:28.069Z</time></trkpt><trkpt lat="41.1079099" lon="14.3058852"><ele>167.5</ele><time>2026-04-06T07:33:31.056Z</time></trkpt><trkpt lat="41.1078436" lon="14.3059234"><ele>167.0</ele><time>2026-04-06T07:33:34.059Z</time></trkpt><trkpt lat="41.1077687" lon="14.3059524"><ele>167.0</ele><time>2026-04-06T07:33:37.054Z</time></trkpt><trkpt lat="41.1076841" lon="14.3059885"><ele>167.0</ele><time>2026-04-06T07:33:40.055Z</time></trkpt><trkpt lat="41.1076001" lon="14.3060403"><ele>167.0</ele><time>2026-04-06T07:33:43.066Z</time></trkpt><trkpt lat="41.107541" lon="14.3060776"><ele>167.0</ele><time>2026-04-06T07:33:45.069Z</time></trkpt><trkpt lat="41.1074849" lon="14.3061162"><ele>167.0</ele><time>2026-04-06T07:33:47.063Z</time></trkpt><trkpt lat="41.1074048" lon="14.3061696"><ele>167.0</ele><time>2026-04-06T07:33:50.067Z</time></trkpt><trkpt lat="41.107327" lon="14.3062278"><ele>166.16666666666666</ele><time>2026-04-06T07:33:53.058Z</time></trkpt><trkpt lat="41.1072514" lon="14.3062834"><ele>165.33333333333331</ele><time>2026-04-06T07:33:56.058Z</time></trkpt><trkpt lat="41.1071816" lon="14.3063287"><ele>164.5</ele><time>2026-04-06T07:33:58.969Z</time></trkpt><trkpt lat="41.1071057" lon="14.3063727"><ele>163.66666666666666</ele><time>2026-04-06T07:34:02.059Z</time></trkpt><trkpt lat="41.1070324" lon="14.3064056"><ele>162.83333333333334</ele><time>2026-04-06T07:34:04.996Z</time></trkpt><trkpt lat="41.1069604" lon="14.3064598"><ele>162.0</ele><time>2026-04-06T07:34:08.057Z</time></trkpt><trkpt lat="41.1068761" lon="14.3064977"><ele>162.0</ele><time>2026-04-06T07:34:11.068Z</time></trkpt><trkpt lat="41.1067956" lon="14.3065397"><ele>162.0</ele><time>2026-04-06T07:34:14.058Z</time></trkpt><trkpt lat="41.1067248" lon="14.3065864"><ele>162.0</ele><time>2026-04-06T07:34:17.015Z</time></trkpt><trkpt lat="41.1066679" lon="14.3066248"><ele>162.0</ele><time>2026-04-06T07:34:19.074Z</time></trkpt><trkpt lat="41.1065861" lon="14.3066734"><ele>162.0</ele><time>2026-04-06T07:34:22.071Z</time></trkpt><trkpt lat="41.1065012" lon="14.3067246"><ele>162.0</ele><time>2026-04-06T07:34:25.066Z</time></trkpt><trkpt lat="41.1064159" lon="14.3067801"><ele>160.83333333333334</ele><time>2026-04-06T07:34:28.065Z</time></trkpt><trkpt lat="41.1063379" lon="14.3068246"><ele>159.66666666666666</ele><time>2026-04-06T07:34:31.063Z</time></trkpt><trkpt lat="41.1062597" lon="14.3068428"><ele>158.5</ele><time>2026-04-06T07:34:34.059Z</time></trkpt><trkpt lat="41.1061862" lon="14.3068807"><ele>157.33333333333331</ele><time>2026-04-06T07:34:37.062Z</time></trkpt><trkpt lat="41.1061063" lon="14.3069195"><ele>156.16666666666666</ele><time>2026-04-06T07:34:40.015Z</time></trkpt><trkpt lat="41.1060437" lon="14.3069661"><ele>155.0</ele><time>2026-04-06T07:34:42.057Z</time></trkpt><trkpt lat="41.1059807" lon="14.3070051"><ele>155.0</ele><time>2026-04-06T07:34:44.058Z</time></trkpt><trkpt lat="41.1059226" lon="14.3070375"><ele>155.0</ele><time>2026-04-06T07:34:46.061Z</time></trkpt><trkpt lat="41.1058439" lon="14.3070955"><ele>155.0</ele><time>2026-04-06T07:34:49.078Z</time></trkpt><trkpt lat="41.105788" lon="14.3071359"><ele>155.0</ele><time>2026-04-06T07:34:51.061Z</time></trkpt><trkpt lat="41.1057061" lon="14.3071953"><ele>155.0</ele><time>2026-04-06T07:34:54.057Z</time></trkpt><trkpt lat="41.1056363" lon="14.3072631"><ele>155.0</ele><time>2026-04-06T07:34:56.97Z</time></trkpt><trkpt lat="41.1055549" lon="14.3073083"><ele>154.4</ele><time>2026-04-06T07:35:00.054Z</time></trkpt><trkpt lat="41.105467" lon="14.3073458"><ele>153.8</ele><time>2026-04-06T07:35:03.074Z</time></trkpt><trkpt lat="41.1053845" lon="14.3074096"><ele>153.2</ele><time>2026-04-06T07:35:06.065Z</time></trkpt><trkpt lat="41.105308" lon="14.3074628"><ele>152.6</ele><time>2026-04-06T07:35:08.975Z</time></trkpt><trkpt lat="41.1052424" lon="14.3075146"><ele>152.0</ele><time>2026-04-06T07:35:11.062Z</time></trkpt><trkpt lat="41.1051605" lon="14.3076021"><ele>152.0</ele><time>2026-04-06T07:35:14.059Z</time></trkpt><trkpt lat="41.1051079" lon="14.3076565"><ele>152.0</ele><time>2026-04-06T07:35:16.055Z</time></trkpt><trkpt lat="41.1050471" lon="14.3077082"><ele>152.0</ele><time>2026-04-06T07:35:18.06Z</time></trkpt><trkpt lat="41.1049887" lon="14.3077517"><ele>152.0</ele><time>2026-04-06T07:35:20.011Z</time></trkpt><trkpt lat="41.1049186" lon="14.3078005"><ele>152.0</ele><time>2026-04-06T07:35:22.032Z</time></trkpt><trkpt lat="41.1048639" lon="14.3078506"><ele>152.0</ele><time>2026-04-06T07:35:24.061Z</time></trkpt><trkpt lat="41.1048136" lon="14.3079052"><ele>152.0</ele><time>2026-04-06T07:35:26.058Z</time></trkpt><trkpt lat="41.1047467" lon="14.3079718"><ele>151.33333333333331</ele><time>2026-04-06T07:35:28.995Z</time></trkpt><trkpt lat="41.1046741" lon="14.3080416"><ele>150.66666666666666</ele><time>2026-04-06T07:35:32.071Z</time></trkpt><trkpt lat="41.1046154" lon="14.3080932"><ele>150.0</ele><time>2026-04-06T07:35:34.973Z</time></trkpt><trkpt lat="41.1045566" lon="14.3081467"><ele>149.33333333333334</ele><time>2026-04-06T07:35:38.062Z</time></trkpt><trkpt lat="41.1044948" lon="14.3081842"><ele>148.66666666666669</ele><time>2026-04-06T07:35:40.995Z</time></trkpt><trkpt lat="41.104424" lon="14.3082327"><ele>148.0</ele><time>2026-04-06T07:35:45.067Z</time></trkpt><trkpt lat="41.1043572" lon="14.3082849"><ele>147.83333333333334</ele><time>2026-04-06T07:35:48.991Z</time></trkpt><trkpt lat="41.104295" lon="14.3083535"><ele>147.66666666666669</ele><time>2026-04-06T07:35:52.079Z</time></trkpt><trkpt lat="41.104234" lon="14.3084272"><ele>147.5</ele><time>2026-04-06T07:35:54.991Z</time></trkpt><trkpt lat="41.1041651" lon="14.3085051"><ele>147.33333333333334</ele><time>2026-04-06T07:35:58.058Z</time></trkpt><trkpt lat="41.104109" lon="14.3085881"><ele>147.16666666666666</ele><time>2026-04-06T07:36:00.99Z</time></trkpt><trkpt lat="41.1040506" lon="14.3086734"><ele>147.0</ele><time>2026-04-06T07:36:04.055Z</time></trkpt><trkpt lat="41.1040012" lon="14.308755"><ele>146.33333333333334</ele><time>2026-04-06T07:36:06.958Z</time></trkpt><trkpt lat="41.1039501" lon="14.308829"><ele>145.66666666666666</ele><time>2026-04-06T07:36:10.067Z</time></trkpt><trkpt lat="41.1039092" lon="14.3089169"><ele>145.0</ele><time>2026-04-06T07:36:13.103Z</time></trkpt><trkpt lat="41.1038651" lon="14.309015"><ele>144.33333333333331</ele><time>2026-04-06T07:36:16.074Z</time></trkpt><trkpt lat="41.1038163" lon="14.3091061"><ele>143.66666666666666</ele><time>2026-04-06T07:36:19.068Z</time></trkpt><trkpt lat="41.1037829" lon="14.3091949"><ele>143.0</ele><time>2026-04-06T07:36:22.019Z</time></trkpt><trkpt lat="41.1037504" lon="14.3092808"><ele>142.99999999999997</ele><time>2026-04-06T07:36:25.093Z</time></trkpt><trkpt lat="41.1037202" lon="14.309362"><ele>143.0</ele><time>2026-04-06T07:36:28.019Z</time></trkpt><trkpt lat="41.1036833" lon="14.3094483"><ele>143.0</ele><time>2026-04-06T07:36:31.066Z</time></trkpt><trkpt lat="41.1036415" lon="14.3095317"><ele>143.0</ele><time>2026-04-06T07:36:34.06Z</time></trkpt><trkpt lat="41.103601" lon="14.3096263"><ele>143.0</ele><time>2026-04-06T07:36:37.061Z</time></trkpt><trkpt lat="41.1035646" lon="14.3097227"><ele>142.99999999999997</ele><time>2026-04-06T07:36:40.074Z</time></trkpt><trkpt lat="41.103536" lon="14.309801"><ele>143.0</ele><time>2026-04-06T07:36:43.071Z</time></trkpt><trkpt lat="41.1035067" lon="14.3098921"><ele>143.5</ele><time>2026-04-06T07:36:46.05Z</time></trkpt><trkpt lat="41.1034428" lon="14.3100083"><ele>144.0</ele><time>2026-04-06T07:36:49.055Z</time></trkpt><trkpt lat="41.103371" lon="14.3100709"><ele>144.5</ele><time>2026-04-06T07:36:51.067Z</time></trkpt><trkpt lat="41.1033232" lon="14.3101304"><ele>145.0</ele><time>2026-04-06T07:36:53.07Z</time></trkpt><trkpt lat="41.10328" lon="14.3101954"><ele>145.5</ele><time>2026-04-06T07:36:55.031Z</time></trkpt><trkpt lat="41.1032339" lon="14.3102631"><ele>146.0</ele><time>2026-04-06T07:36:57.067Z</time></trkpt><trkpt lat="41.1031852" lon="14.3103199"><ele>145.5</ele><time>2026-04-06T07:36:58.934Z</time></trkpt><trkpt lat="41.1031104" lon="14.3103895"><ele>145.0</ele><time>2026-04-06T07:37:02.059Z</time></trkpt><trkpt lat="41.1030377" lon="14.3104492"><ele>144.5</ele><time>2026-04-06T07:37:05.052Z</time></trkpt><trkpt lat="41.1029525" lon="14.3104937"><ele>144.0</ele><time>2026-04-06T07:37:08.094Z</time></trkpt><trkpt lat="41.1028716" lon="14.3105348"><ele>143.5</ele><time>2026-04-06T07:37:11.067Z</time></trkpt><trkpt lat="41.1027922" lon="14.3105812"><ele>143.0</ele><time>2026-04-06T07:37:14.036Z</time></trkpt><trkpt lat="41.1027351" lon="14.3106269"><ele>142.99999999999997</ele><time>2026-04-06T07:37:16.051Z</time></trkpt><trkpt lat="41.1026707" lon="14.3106691"><ele>143.0</ele><time>2026-04-06T07:37:18.637Z</time></trkpt><trkpt lat="41.1026065" lon="14.3106978"><ele>143.0</ele><time>2026-04-06T07:37:21.072Z</time></trkpt><trkpt lat="41.1025317" lon="14.3107397"><ele>143.0</ele><time>2026-04-06T07:37:24.065Z</time></trkpt><trkpt lat="41.1024658" lon="14.3107851"><ele>143.0</ele><time>2026-04-06T07:37:27.032Z</time></trkpt><trkpt lat="41.1024046" lon="14.3108087"><ele>142.99999999999997</ele><time>2026-04-06T07:37:30.061Z</time></trkpt><trkpt lat="41.1023431" lon="14.3108531"><ele>143.0</ele><time>2026-04-06T07:37:33.032Z</time></trkpt><trkpt lat="41.1022869" lon="14.3109037"><ele>142.16666666666666</ele><time>2026-04-06T07:37:36.061Z</time></trkpt><trkpt lat="41.102233" lon="14.3109538"><ele>141.33333333333331</ele><time>2026-04-06T07:37:38.996Z</time></trkpt><trkpt lat="41.1021683" lon="14.3109894"><ele>140.5</ele><time>2026-04-06T07:37:42.056Z</time></trkpt><trkpt lat="41.1021038" lon="14.3110216"><ele>139.66666666666666</ele><time>2026-04-06T07:37:45.06Z</time></trkpt><trkpt lat="41.1020419" lon="14.3110543"><ele>138.83333333333334</ele><time>2026-04-06T07:37:48.057Z</time></trkpt><trkpt lat="41.1019761" lon="14.3111222"><ele>138.0</ele><time>2026-04-06T07:37:52.056Z</time></trkpt><trkpt lat="41.1019254" lon="14.3112338"><ele>138.0</ele><time>2026-04-06T07:37:55.033Z</time></trkpt><trkpt lat="41.1018882" lon="14.3113089"><ele>138.0</ele><time>2026-04-06T07:37:57.072Z</time></trkpt><trkpt lat="41.1018211" lon="14.3113739"><ele>138.0</ele><time>2026-04-06T07:38:00.064Z</time></trkpt><trkpt lat="41.1017505" lon="14.311425"><ele>138.0</ele><time>2026-04-06T07:38:03.011Z</time></trkpt><trkpt lat="41.1016818" lon="14.3114508"><ele>138.0</ele><time>2026-04-06T07:38:05.069Z</time></trkpt><trkpt lat="41.1016087" lon="14.3114647"><ele>138.0</ele><time>2026-04-06T07:38:07.051Z</time></trkpt><trkpt lat="41.1015209" lon="14.3114721"><ele>136.83333333333334</ele><time>2026-04-06T07:38:10.035Z</time></trkpt><trkpt lat="41.101437" lon="14.3115336"><ele>135.66666666666666</ele><time>2026-04-06T07:38:13.06Z</time></trkpt><trkpt lat="41.1013733" lon="14.3116026"><ele>134.5</ele><time>2026-04-06T07:38:15.995Z</time></trkpt><trkpt lat="41.1013026" lon="14.3116763"><ele>133.33333333333331</ele><time>2026-04-06T07:38:19.065Z</time></trkpt><trkpt lat="41.1012454" lon="14.311743"><ele>132.16666666666666</ele><time>2026-04-06T07:38:21.978Z</time></trkpt><trkpt lat="41.1011845" lon="14.3118167"><ele>131.0</ele><time>2026-04-06T07:38:25.061Z</time></trkpt><trkpt lat="41.1011218" lon="14.3118829"><ele>131.0</ele><time>2026-04-06T07:38:28.065Z</time></trkpt><trkpt lat="41.1010643" lon="14.3119441"><ele>131.0</ele><time>2026-04-06T07:38:31.062Z</time></trkpt><trkpt lat="41.1009966" lon="14.3119857"><ele>131.0</ele><time>2026-04-06T07:38:34.059Z</time></trkpt><trkpt lat="41.1009172" lon="14.3120194"><ele>131.0</ele><time>2026-04-06T07:38:37.057Z</time></trkpt><trkpt lat="41.1008363" lon="14.3120829"><ele>131.0</ele><time>2026-04-06T07:38:40.061Z</time></trkpt><trkpt lat="41.1007872" lon="14.3121845"><ele>131.0</ele><time>2026-04-06T07:38:43.009Z</time></trkpt><trkpt lat="41.1007299" lon="14.3122775"><ele>130.16666666666666</ele><time>2026-04-06T07:38:46.058Z</time></trkpt><trkpt lat="41.1006736" lon="14.3123465"><ele>129.33333333333331</ele><time>2026-04-06T07:38:48.999Z</time></trkpt><trkpt lat="41.1006344" lon="14.3124422"><ele>128.5</ele><time>2026-04-06T07:38:52.058Z</time></trkpt><trkpt lat="41.1006076" lon="14.3125285"><ele>127.66666666666666</ele><time>2026-04-06T07:38:55.065Z</time></trkpt><trkpt lat="41.1005718" lon="14.3126037"><ele>126.83333333333333</ele><time>2026-04-06T07:38:58.093Z</time></trkpt><trkpt lat="41.1005241" lon="14.3126908"><ele>126.0</ele><time>2026-04-06T07:39:02.054Z</time></trkpt><trkpt lat="41.1004797" lon="14.3127715"><ele>126.0</ele><time>2026-04-06T07:39:07.069Z</time></trkpt><trkpt lat="41.1004478" lon="14.3128543"><ele>126.0</ele><time>2026-04-06T07:39:12.066Z</time></trkpt><trkpt lat="41.1004132" lon="14.3129264"><ele>126.0</ele><time>2026-04-06T07:39:16.031Z</time></trkpt><trkpt lat="41.1003738" lon="14.3130075"><ele>126.0</ele><time>2026-04-06T07:39:21.061Z</time></trkpt><trkpt lat="41.1003316" lon="14.3131007"><ele>126.0</ele><time>2026-04-06T07:39:25.019Z</time></trkpt><trkpt lat="41.100284" lon="14.3131778"><ele>126.0</ele><time>2026-04-06T07:39:28.06Z</time></trkpt><trkpt lat="41.1002366" lon="14.313266"><ele>126.0</ele><time>2026-04-06T07:39:31.066Z</time></trkpt><trkpt lat="41.1001957" lon="14.3133514"><ele>126.42857142857143</ele><time>2026-04-06T07:39:34.072Z</time></trkpt><trkpt lat="41.1001475" lon="14.31343"><ele>126.85714285714286</ele><time>2026-04-06T07:39:37.057Z</time></trkpt><trkpt lat="41.1000914" lon="14.3135015"><ele>127.28571428571428</ele><time>2026-04-06T07:39:40.058Z</time></trkpt><trkpt lat="41.1000451" lon="14.3135808"><ele>127.71428571428571</ele><time>2026-04-06T07:39:42.969Z</time></trkpt><trkpt lat="41.0999986" lon="14.3136578"><ele>128.14285714285714</ele><time>2026-04-06T07:39:46.057Z</time></trkpt><trkpt lat="41.0999645" lon="14.3137299"><ele>128.57142857142856</ele><time>2026-04-06T07:39:48.978Z</time></trkpt><trkpt lat="41.0999312" lon="14.3138196"><ele>129.0</ele><time>2026-04-06T07:39:52.06Z</time></trkpt><trkpt lat="41.0998921" lon="14.3139111"><ele>127.99999999999999</ele><time>2026-04-06T07:39:56.046Z</time></trkpt><trkpt lat="41.0998514" lon="14.3139932"><ele>127.0</ele><time>2026-04-06T07:39:59.056Z</time></trkpt><trkpt lat="41.0997972" lon="14.3140898"><ele>125.99999999999999</ele><time>2026-04-06T07:40:02.059Z</time></trkpt><trkpt lat="41.0997584" lon="14.3141613"><ele>124.99999999999999</ele><time>2026-04-06T07:40:04.063Z</time></trkpt><trkpt lat="41.0997117" lon="14.3142196"><ele>124.0</ele><time>2026-04-06T07:40:06.037Z</time></trkpt><trkpt lat="41.0996629" lon="14.3142892"><ele>122.99999999999999</ele><time>2026-04-06T07:40:08.056Z</time></trkpt><trkpt lat="41.0996193" lon="14.3143509"><ele>121.99999999999999</ele><time>2026-04-06T07:40:10.065Z</time></trkpt><trkpt lat="41.0995602" lon="14.3144457"><ele>121.99999999999999</ele><time>2026-04-06T07:40:13.06Z</time></trkpt><trkpt lat="41.0995165" lon="14.3145309"><ele>122.0</ele><time>2026-04-06T07:40:16.064Z</time></trkpt><trkpt lat="41.0994707" lon="14.3146099"><ele>121.99999999999999</ele><time>2026-04-06T07:40:19.056Z</time></trkpt><trkpt lat="41.0994151" lon="14.3146893"><ele>121.99999999999999</ele><time>2026-04-06T07:40:22.063Z</time></trkpt><trkpt lat="41.0993631" lon="14.3147699"><ele>122.0</ele><time>2026-04-06T07:40:25.062Z</time></trkpt><trkpt lat="41.0993211" lon="14.3148363"><ele>121.99999999999999</ele><time>2026-04-06T07:40:28.062Z</time></trkpt><trkpt lat="41.099274" lon="14.3148966"><ele>121.99999999999999</ele><time>2026-04-06T07:40:31.057Z</time></trkpt><trkpt lat="41.0992175" lon="14.3149547"><ele>121.83333333333333</ele><time>2026-04-06T07:40:34.065Z</time></trkpt><trkpt lat="41.0991607" lon="14.3150236"><ele>121.66666666666666</ele><time>2026-04-06T07:40:37.06Z</time></trkpt><trkpt lat="41.0991019" lon="14.3150925"><ele>121.5</ele><time>2026-04-06T07:40:40.063Z</time></trkpt><trkpt lat="41.0990502" lon="14.3151569"><ele>121.33333333333334</ele><time>2026-04-06T07:40:43.056Z</time></trkpt><trkpt lat="41.0989957" lon="14.3152255"><ele>121.16666666666667</ele><time>2026-04-06T07:40:46.064Z</time></trkpt><trkpt lat="41.098928" lon="14.3153045"><ele>121.0</ele><time>2026-04-06T07:40:49.039Z</time></trkpt><trkpt lat="41.0988482" lon="14.3153911"><ele>120.0</ele><time>2026-04-06T07:40:51.052Z</time></trkpt><trkpt lat="41.0987615" lon="14.3154844"><ele>119.0</ele><time>2026-04-06T07:40:52.935Z</time></trkpt><trkpt lat="41.0985335" lon="14.3157372"><ele>118.0</ele><time>2026-04-06T07:40:53.995Z</time></trkpt><trkpt lat="41.0984771" lon="14.3157916"><ele>118.0</ele><time>2026-04-06T07:40:55.02Z</time></trkpt><trkpt lat="41.098402" lon="14.3158307"><ele>118.0</ele><time>2026-04-06T07:40:57.062Z</time></trkpt><trkpt lat="41.0983368" lon="14.3158886"><ele>118.0</ele><time>2026-04-06T07:41:00.066Z</time></trkpt><trkpt lat="41.098286" lon="14.3159469"><ele>118.0</ele><time>2026-04-06T07:41:03.071Z</time></trkpt><trkpt lat="41.0982327" lon="14.3160015"><ele>118.0</ele><time>2026-04-06T07:41:06.017Z</time></trkpt><trkpt lat="41.0981686" lon="14.3160457"><ele>118.0</ele><time>2026-04-06T07:41:09.07Z</time></trkpt><trkpt lat="41.0981194" lon="14.3159916"><ele>118.0</ele><time>2026-04-06T07:41:12.036Z</time></trkpt><trkpt lat="41.0980418" lon="14.3160073"><ele>117.16666666666667</ele><time>2026-04-06T07:41:16.077Z</time></trkpt><trkpt lat="41.0980132" lon="14.3161219"><ele>116.33333333333334</ele><time>2026-04-06T07:41:19.051Z</time></trkpt><trkpt lat="41.097953" lon="14.3161953"><ele>115.5</ele><time>2026-04-06T07:41:22.081Z</time></trkpt><trkpt lat="41.0978842" lon="14.3162177"><ele>114.66666666666666</ele><time>2026-04-06T07:41:24.072Z</time></trkpt><trkpt lat="41.0978223" lon="14.3162877"><ele>113.83333333333333</ele><time>2026-04-06T07:41:27.034Z</time></trkpt><trkpt lat="41.0977677" lon="14.3163568"><ele>113.0</ele><time>2026-04-06T07:41:30.064Z</time></trkpt><trkpt lat="41.0977014" lon="14.3164106"><ele>112.99999999999999</ele><time>2026-04-06T07:41:33.032Z</time></trkpt><trkpt lat="41.097631" lon="14.3164643"><ele>113.0</ele><time>2026-04-06T07:41:35.899Z</time></trkpt><trkpt lat="41.0975762" lon="14.3165081"><ele>113.0</ele><time>2026-04-06T07:41:38.013Z</time></trkpt><trkpt lat="41.0975041" lon="14.316564"><ele>113.0</ele><time>2026-04-06T07:41:41.062Z</time></trkpt><trkpt lat="41.0974479" lon="14.3166183"><ele>112.99999999999999</ele><time>2026-04-06T07:41:44.066Z</time></trkpt><trkpt lat="41.0973832" lon="14.3166761"><ele>113.0</ele><time>2026-04-06T07:41:47.071Z</time></trkpt><trkpt lat="41.09731" lon="14.3167388"><ele>112.49999999999999</ele><time>2026-04-06T07:41:50.076Z</time></trkpt><trkpt lat="41.0972445" lon="14.3167894"><ele>112.0</ele><time>2026-04-06T07:41:52.059Z</time></trkpt><trkpt lat="41.0971928" lon="14.3168835"><ele>111.5</ele><time>2026-04-06T07:41:54.098Z</time></trkpt><trkpt lat="41.0971351" lon="14.3169715"><ele>111.0</ele><time>2026-04-06T07:41:56.085Z</time></trkpt><trkpt lat="41.0970628" lon="14.3170543"><ele>110.49999999999999</ele><time>2026-04-06T07:41:59.03Z</time></trkpt><trkpt lat="41.0970068" lon="14.3171195"><ele>110.0</ele><time>2026-04-06T07:42:01.074Z</time></trkpt><trkpt lat="41.0969371" lon="14.3171574"><ele>109.99999999999999</ele><time>2026-04-06T07:42:03.076Z</time></trkpt><trkpt lat="41.0968895" lon="14.3172154"><ele>110.0</ele><time>2026-04-06T07:42:05.012Z</time></trkpt><trkpt lat="41.0968339" lon="14.3173005"><ele>110.0</ele><time>2026-04-06T07:42:07.055Z</time></trkpt><trkpt lat="41.0967754" lon="14.3173487"><ele>110.0</ele><time>2026-04-06T07:42:09.065Z</time></trkpt><trkpt lat="41.0967026" lon="14.3173897"><ele>109.99999999999999</ele><time>2026-04-06T07:42:12.06Z</time></trkpt><trkpt lat="41.0966311" lon="14.3174199"><ele>110.0</ele><time>2026-04-06T07:42:14.97Z</time></trkpt><trkpt lat="41.0965572" lon="14.3174655"><ele>109.42857142857142</ele><time>2026-04-06T07:42:18.067Z</time></trkpt><trkpt lat="41.0964952" lon="14.3175208"><ele>108.85714285714286</ele><time>2026-04-06T07:42:21.053Z</time></trkpt><trkpt lat="41.0964338" lon="14.3175681"><ele>108.28571428571428</ele><time>2026-04-06T07:42:24.083Z</time></trkpt><trkpt lat="41.0963765" lon="14.3176086"><ele>107.71428571428571</ele><time>2026-04-06T07:42:27.094Z</time></trkpt><trkpt lat="41.0963168" lon="14.3176618"><ele>107.14285714285714</ele><time>2026-04-06T07:42:30.06Z</time></trkpt><trkpt lat="41.0962859" lon="14.3177578"><ele>106.57142857142857</ele><time>2026-04-06T07:42:34.064Z</time></trkpt><trkpt lat="41.0962873" lon="14.3178424"><ele>106.0</ele><time>2026-04-06T07:42:37.03Z</time></trkpt><trkpt lat="41.096251" lon="14.3179282"><ele>106.0</ele><time>2026-04-06T07:42:40.07Z</time></trkpt><trkpt lat="41.096235" lon="14.3180276"><ele>106.0</ele><time>2026-04-06T07:42:43.084Z</time></trkpt><trkpt lat="41.0961977" lon="14.3181022"><ele>106.0</ele><time>2026-04-06T07:42:46.068Z</time></trkpt><trkpt lat="41.0961356" lon="14.3180743"><ele>106.0</ele><time>2026-04-06T07:42:51.059Z</time></trkpt><trkpt lat="41.096214" lon="14.3181071"><ele>106.0</ele><time>2026-04-06T07:42:58.076Z</time></trkpt><trkpt lat="41.0962535" lon="14.3181952"><ele>106.0</ele><time>2026-04-06T07:43:01.066Z</time></trkpt><trkpt lat="41.0963221" lon="14.3181923"><ele>106.0</ele><time>2026-04-06T07:43:06.009Z</time></trkpt><trkpt lat="41.0963171" lon="14.3182788"><ele>106.16666666666667</ele><time>2026-04-06T07:43:08.07Z</time></trkpt><trkpt lat="41.0963691" lon="14.3183638"><ele>106.33333333333334</ele><time>2026-04-06T07:43:12.026Z</time></trkpt><trkpt lat="41.0964348" lon="14.3183827"><ele>106.5</ele><time>2026-04-06T07:43:14.053Z</time></trkpt><trkpt lat="41.096509" lon="14.3184298"><ele>106.66666666666666</ele><time>2026-04-06T07:43:16.994Z</time></trkpt><trkpt lat="41.0965683" lon="14.3184775"><ele>106.83333333333333</ele><time>2026-04-06T07:43:20.066Z</time></trkpt><trkpt lat="41.0966338" lon="14.3185249"><ele>107.0</ele><time>2026-04-06T07:43:23.068Z</time></trkpt><trkpt lat="41.096696" lon="14.3185944"><ele>107.49999999999999</ele><time>2026-04-06T07:43:27.061Z</time></trkpt><trkpt lat="41.0967597" lon="14.3186616"><ele>108.0</ele><time>2026-04-06T07:43:31.069Z</time></trkpt><trkpt lat="41.0968166" lon="14.318724"><ele>108.5</ele><time>2026-04-06T07:43:34.063Z</time></trkpt><trkpt lat="41.0968634" lon="14.3187883"><ele>109.0</ele><time>2026-04-06T07:43:37.065Z</time></trkpt><trkpt lat="41.0969302" lon="14.3188548"><ele>109.49999999999999</ele><time>2026-04-06T07:43:40.986Z</time></trkpt><trkpt lat="41.0969868" lon="14.3189135"><ele>110.0</ele><time>2026-04-06T07:43:44.074Z</time></trkpt><trkpt lat="41.0970529" lon="14.3189698"><ele>110.33333333333333</ele><time>2026-04-06T07:43:47.086Z</time></trkpt><trkpt lat="41.0971163" lon="14.3190196"><ele>110.66666666666666</ele><time>2026-04-06T07:43:50.073Z</time></trkpt><trkpt lat="41.097185" lon="14.3190769"><ele>111.0</ele><time>2026-04-06T07:43:53.058Z</time></trkpt><trkpt lat="41.0972582" lon="14.3191341"><ele>111.33333333333334</ele><time>2026-04-06T07:43:56.008Z</time></trkpt><trkpt lat="41.0973229" lon="14.3191788"><ele>111.66666666666667</ele><time>2026-04-06T07:43:59.068Z</time></trkpt><trkpt lat="41.0973975" lon="14.3192289"><ele>112.0</ele><time>2026-04-06T07:44:03.033Z</time></trkpt><trkpt lat="41.0974628" lon="14.3192704"><ele>112.50000000000001</ele><time>2026-04-06T07:44:06.063Z</time></trkpt><trkpt lat="41.0975354" lon="14.3193138"><ele>113.0</ele><time>2026-04-06T07:44:09.068Z</time></trkpt><trkpt lat="41.0976094" lon="14.3193386"><ele>113.5</ele><time>2026-04-06T07:44:12.064Z</time></trkpt><trkpt lat="41.0976809" lon="14.3193599"><ele>114.0</ele><time>2026-04-06T07:44:15.058Z</time></trkpt><trkpt lat="41.0977601" lon="14.3193888"><ele>114.50000000000001</ele><time>2026-04-06T07:44:18.067Z</time></trkpt><trkpt lat="41.0978214" lon="14.3194235"><ele>115.0</ele><time>2026-04-06T07:44:21.056Z</time></trkpt><trkpt lat="41.0978978" lon="14.3194678"><ele>114.99999999999999</ele><time>2026-04-06T07:44:24.966Z</time></trkpt><trkpt lat="41.0979627" lon="14.3195086"><ele>115.0</ele><time>2026-04-06T07:44:28.046Z</time></trkpt><trkpt lat="41.0980413" lon="14.3195178"><ele>114.99999999999999</ele><time>2026-04-06T07:44:30.991Z</time></trkpt><trkpt lat="41.0981105" lon="14.3195664"><ele>114.99999999999999</ele><time>2026-04-06T07:44:34.065Z</time></trkpt><trkpt lat="41.0981671" lon="14.3196444"><ele>115.0</ele><time>2026-04-06T07:44:38.067Z</time></trkpt><trkpt lat="41.0982073" lon="14.319723"><ele>114.99999999999999</ele><time>2026-04-06T07:44:41.033Z</time></trkpt><trkpt lat="41.0982314" lon="14.3198013"><ele>114.99999999999999</ele><time>2026-04-06T07:44:44.075Z</time></trkpt><trkpt lat="41.0982683" lon="14.3198839"><ele>115.57142857142856</ele><time>2026-04-06T07:44:47.069Z</time></trkpt><trkpt lat="41.0983159" lon="14.3199432"><ele>116.14285714285714</ele><time>2026-04-06T07:44:49.99Z</time></trkpt><trkpt lat="41.098366" lon="14.3199943"><ele>116.71428571428571</ele><time>2026-04-06T07:44:53.073Z</time></trkpt><trkpt lat="41.098425" lon="14.3200442"><ele>117.28571428571428</ele><time>2026-04-06T07:44:56.072Z</time></trkpt><trkpt lat="41.0984792" lon="14.3201035"><ele>117.85714285714286</ele><time>2026-04-06T07:44:59.071Z</time></trkpt><trkpt lat="41.0985513" lon="14.3201596"><ele>118.42857142857143</ele><time>2026-04-06T07:45:03.074Z</time></trkpt><trkpt lat="41.098613" lon="14.3201978"><ele>119.0</ele><time>2026-04-06T07:45:06.076Z</time></trkpt><trkpt lat="41.0986872" lon="14.3202231"><ele>119.0</ele><time>2026-04-06T07:45:09.074Z</time></trkpt><trkpt lat="41.0987438" lon="14.3202835"><ele>119.0</ele><time>2026-04-06T07:45:12.076Z</time></trkpt><trkpt lat="41.0987966" lon="14.3203399"><ele>119.0</ele><time>2026-04-06T07:45:15.062Z</time></trkpt><trkpt lat="41.0988487" lon="14.3203973"><ele>119.0</ele><time>2026-04-06T07:45:17.97Z</time></trkpt><trkpt lat="41.0989047" lon="14.3204503"><ele>119.0</ele><time>2026-04-06T07:45:21.06Z</time></trkpt><trkpt lat="41.0989604" lon="14.3204978"><ele>119.0</ele><time>2026-04-06T07:45:24.062Z</time></trkpt><trkpt lat="41.0990116" lon="14.3205467"><ele>119.0</ele><time>2026-04-06T07:45:27.033Z</time></trkpt><trkpt lat="41.099065" lon="14.3205934"><ele>119.99999999999999</ele><time>2026-04-06T07:45:30.077Z</time></trkpt><trkpt lat="41.0991212" lon="14.3206426"><ele>121.0</ele><time>2026-04-06T07:45:32.83Z</time></trkpt><trkpt lat="41.0991866" lon="14.3206999"><ele>122.0</ele><time>2026-04-06T07:45:36.032Z</time></trkpt><trkpt lat="41.0992502" lon="14.3207619"><ele>123.0</ele><time>2026-04-06T07:45:39.061Z</time></trkpt><trkpt lat="41.0993134" lon="14.320831"><ele>123.99999999999999</ele><time>2026-04-06T07:45:42.053Z</time></trkpt><trkpt lat="41.0993637" lon="14.3208887"><ele>125.0</ele><time>2026-04-06T07:45:44.973Z</time></trkpt><trkpt lat="41.0994223" lon="14.3209661"><ele>125.0</ele><time>2026-04-06T07:45:49.063Z</time></trkpt><trkpt lat="41.0994813" lon="14.3210372"><ele>125.0</ele><time>2026-04-06T07:45:53.055Z</time></trkpt><trkpt lat="41.0995431" lon="14.3210146"><ele>125.0</ele><time>2026-04-06T07:45:57.031Z</time></trkpt><trkpt lat="41.099551" lon="14.3211043"><ele>125.0</ele><time>2026-04-06T07:45:59.076Z</time></trkpt><trkpt lat="41.0995456" lon="14.3212038"><ele>125.0</ele><time>2026-04-06T07:46:02.077Z</time></trkpt><trkpt lat="41.0995804" lon="14.3212897"><ele>125.0</ele><time>2026-04-06T07:46:05.008Z</time></trkpt><trkpt lat="41.099639" lon="14.3213639"><ele>125.0</ele><time>2026-04-06T07:46:08.063Z</time></trkpt><trkpt lat="41.0997203" lon="14.3213996"><ele>125.28571428571428</ele><time>2026-04-06T07:46:11.076Z</time></trkpt><trkpt lat="41.0997679" lon="14.3214639"><ele>125.57142857142858</ele><time>2026-04-06T07:46:14.059Z</time></trkpt><trkpt lat="41.0998205" lon="14.32155"><ele>125.85714285714286</ele><time>2026-04-06T07:46:18.059Z</time></trkpt><trkpt lat="41.09986" lon="14.3216192"><ele>126.14285714285714</ele><time>2026-04-06T07:46:21.065Z</time></trkpt><trkpt lat="41.0998947" lon="14.3216956"><ele>126.42857142857142</ele><time>2026-04-06T07:46:24.06Z</time></trkpt><trkpt lat="41.0999319" lon="14.3217798"><ele>126.71428571428572</ele><time>2026-04-06T07:46:27.014Z</time></trkpt><trkpt lat="41.0999786" lon="14.3218528"><ele>127.0</ele><time>2026-04-06T07:46:30.062Z</time></trkpt><trkpt lat="41.1000306" lon="14.3219032"><ele>127.85714285714286</ele><time>2026-04-06T07:46:33.087Z</time></trkpt><trkpt lat="41.1000602" lon="14.3220003"><ele>128.71428571428572</ele><time>2026-04-06T07:46:37.068Z</time></trkpt><trkpt lat="41.1001014" lon="14.3220987"><ele>129.57142857142856</ele><time>2026-04-06T07:46:41.033Z</time></trkpt><trkpt lat="41.1001382" lon="14.3221728"><ele>130.42857142857144</ele><time>2026-04-06T07:46:44.066Z</time></trkpt><trkpt lat="41.100169" lon="14.3222492"><ele>131.28571428571428</ele><time>2026-04-06T07:46:47.063Z</time></trkpt><trkpt lat="41.1002041" lon="14.3223201"><ele>132.14285714285714</ele><time>2026-04-06T07:46:50.026Z</time></trkpt><trkpt lat="41.100243" lon="14.3223929"><ele>133.0</ele><time>2026-04-06T07:46:53.056Z</time></trkpt><trkpt lat="41.1002839" lon="14.3224927"><ele>133.14285714285714</ele><time>2026-04-06T07:46:56.074Z</time></trkpt><trkpt lat="41.1003225" lon="14.3225757"><ele>133.28571428571428</ele><time>2026-04-06T07:46:59.058Z</time></trkpt><trkpt lat="41.1003587" lon="14.3226588"><ele>133.42857142857144</ele><time>2026-04-06T07:47:02.063Z</time></trkpt><trkpt lat="41.1003867" lon="14.3227367"><ele>133.57142857142856</ele><time>2026-04-06T07:47:05.06Z</time></trkpt><trkpt lat="41.1004107" lon="14.3228161"><ele>133.71428571428572</ele><time>2026-04-06T07:47:07.972Z</time></trkpt><trkpt lat="41.1004448" lon="14.3229219"><ele>133.85714285714286</ele><time>2026-04-06T07:47:11.057Z</time></trkpt><trkpt lat="41.1004744" lon="14.323015"><ele>134.0</ele><time>2026-04-06T07:47:14.055Z</time></trkpt><trkpt lat="41.1005072" lon="14.3231142"><ele>134.33333333333331</ele><time>2026-04-06T07:47:18.012Z</time></trkpt><trkpt lat="41.1005384" lon="14.3231905"><ele>134.66666666666666</ele><time>2026-04-06T07:47:22.063Z</time></trkpt><trkpt lat="41.1005772" lon="14.3232891"><ele>135.0</ele><time>2026-04-06T07:47:26.054Z</time></trkpt><trkpt lat="41.1006101" lon="14.3233814"><ele>135.33333333333334</ele><time>2026-04-06T07:47:28.965Z</time></trkpt><trkpt lat="41.1006483" lon="14.3234745"><ele>135.66666666666669</ele><time>2026-04-06T07:47:32.066Z</time></trkpt><trkpt lat="41.1007209" lon="14.3235502"><ele>136.0</ele><time>2026-04-06T07:47:36.062Z</time></trkpt><trkpt lat="41.1008025" lon="14.3235621"><ele>136.85714285714283</ele><time>2026-04-06T07:47:39.059Z</time></trkpt><trkpt lat="41.1008752" lon="14.32358"><ele>137.71428571428572</ele><time>2026-04-06T07:47:41.965Z</time></trkpt><trkpt lat="41.1009398" lon="14.3235771"><ele>138.57142857142856</ele><time>2026-04-06T07:47:45.06Z</time></trkpt><trkpt lat="41.1010118" lon="14.3235672"><ele>139.42857142857142</ele><time>2026-04-06T07:47:49.075Z</time></trkpt><trkpt lat="41.1010675" lon="14.3235253"><ele>140.28571428571428</ele><time>2026-04-06T07:47:53.051Z</time></trkpt><trkpt lat="41.1011327" lon="14.3234838"><ele>141.14285714285714</ele><time>2026-04-06T07:47:58.052Z</time></trkpt><trkpt lat="41.1011302" lon="14.3233925"><ele>142.0</ele><time>2026-04-06T07:48:02.056Z</time></trkpt><trkpt lat="41.1011328" lon="14.3232925"><ele>142.0</ele><time>2026-04-06T07:48:07.053Z</time></trkpt><trkpt lat="41.1011539" lon="14.3232114"><ele>142.0</ele><time>2026-04-06T07:48:12.054Z</time></trkpt><trkpt lat="41.1011658" lon="14.3231156"><ele>142.0</ele><time>2026-04-06T07:48:17.053Z</time></trkpt><trkpt lat="41.1011762" lon="14.3230148"><ele>142.0</ele><time>2026-04-06T07:48:22.057Z</time></trkpt><trkpt lat="41.1011948" lon="14.3229258"><ele>142.0</ele><time>2026-04-06T07:48:26.063Z</time></trkpt><trkpt lat="41.1012347" lon="14.3228572"><ele>142.0</ele><time>2026-04-06T07:48:30.062Z</time></trkpt><trkpt lat="41.1012702" lon="14.3227858"><ele>142.0</ele><time>2026-04-06T07:48:37.954Z</time></trkpt><trkpt lat="41.1012382" lon="14.3226972"><ele>142.14285714285714</ele><time>2026-04-06T07:48:41.057Z</time></trkpt><trkpt lat="41.1012616" lon="14.3225987"><ele>142.28571428571428</ele><time>2026-04-06T07:48:46.061Z</time></trkpt><trkpt lat="41.1012755" lon="14.3225106"><ele>142.42857142857142</ele><time>2026-04-06T07:48:51.055Z</time></trkpt><trkpt lat="41.1012529" lon="14.3224271"><ele>142.57142857142856</ele><time>2026-04-06T07:48:55.061Z</time></trkpt><trkpt lat="41.1012455" lon="14.3223434"><ele>142.71428571428572</ele><time>2026-04-06T07:48:59.028Z</time></trkpt><trkpt lat="41.101229" lon="14.3222576"><ele>142.85714285714283</ele><time>2026-04-06T07:49:03.063Z</time></trkpt><trkpt lat="41.1012072" lon="14.3221666"><ele>143.0</ele><time>2026-04-06T07:49:07.054Z</time></trkpt><trkpt lat="41.1011801" lon="14.3220733"><ele>143.99999999999997</ele><time>2026-04-06T07:49:11.059Z</time></trkpt><trkpt lat="41.1011476" lon="14.3219999"><ele>145.0</ele><time>2026-04-06T07:49:13.994Z</time></trkpt><trkpt lat="41.1011188" lon="14.3219223"><ele>146.0</ele><time>2026-04-06T07:49:17.069Z</time></trkpt><trkpt lat="41.1010719" lon="14.3218272"><ele>147.0</ele><time>2026-04-06T07:49:21.062Z</time></trkpt><trkpt lat="41.1010373" lon="14.321748"><ele>148.0</ele><time>2026-04-06T07:49:24.007Z</time></trkpt><trkpt lat="41.1010071" lon="14.3216711"><ele>148.99999999999997</ele><time>2026-04-06T07:49:27.06Z</time></trkpt><trkpt lat="41.1009691" lon="14.3215723"><ele>150.0</ele><time>2026-04-06T07:49:31.064Z</time></trkpt><trkpt lat="41.1009347" lon="14.3214735"><ele>151.57142857142856</ele><time>2026-04-06T07:49:35.055Z</time></trkpt><trkpt lat="41.1009107" lon="14.3213909"><ele>153.14285714285714</ele><time>2026-04-06T07:49:38.059Z</time></trkpt><trkpt lat="41.1008853" lon="14.3212999"><ele>154.71428571428572</ele><time>2026-04-06T07:49:41.056Z</time></trkpt><trkpt lat="41.1008541" lon="14.321205"><ele>156.28571428571428</ele><time>2026-04-06T07:49:43.989Z</time></trkpt><trkpt lat="41.1008234" lon="14.3211043"><ele>157.85714285714286</ele><time>2026-04-06T07:49:47.072Z</time></trkpt><trkpt lat="41.1007902" lon="14.3210103"><ele>159.42857142857142</ele><time>2026-04-06T07:49:50.054Z</time></trkpt><trkpt lat="41.1007641" lon="14.3209231"><ele>161.0</ele><time>2026-04-06T07:49:52.066Z</time></trkpt><trkpt lat="41.100729" lon="14.3208415"><ele>162.66666666666666</ele><time>2026-04-06T07:49:54.013Z</time></trkpt><trkpt lat="41.1007017" lon="14.3207282"><ele>164.33333333333331</ele><time>2026-04-06T07:49:56.065Z</time></trkpt><trkpt lat="41.1006823" lon="14.3206404"><ele>166.0</ele><time>2026-04-06T07:49:58.06Z</time></trkpt><trkpt lat="41.100682" lon="14.3205124"><ele>167.66666666666666</ele><time>2026-04-06T07:50:01.078Z</time></trkpt><trkpt lat="41.1007115" lon="14.3203968"><ele>169.33333333333334</ele><time>2026-04-06T07:50:04.06Z</time></trkpt><trkpt lat="41.1007589" lon="14.3203179"><ele>171.0</ele><time>2026-04-06T07:50:07.01Z</time></trkpt><trkpt lat="41.1008225" lon="14.3203218"><ele>170.99999999999997</ele><time>2026-04-06T07:50:10.061Z</time></trkpt><trkpt lat="41.1008684" lon="14.3203791"><ele>171.0</ele><time>2026-04-06T07:50:13.066Z</time></trkpt><trkpt lat="41.1008946" lon="14.3204582"><ele>171.0</ele><time>2026-04-06T07:50:15.988Z</time></trkpt><trkpt lat="41.1009023" lon="14.3205648"><ele>171.0</ele><time>2026-04-06T07:50:20.001Z</time></trkpt><trkpt lat="41.100915" lon="14.3206638"><ele>171.0</ele><time>2026-04-06T07:50:24.057Z</time></trkpt><trkpt lat="41.1009324" lon="14.3207449"><ele>170.99999999999997</ele><time>2026-04-06T07:50:28.06Z</time></trkpt><trkpt lat="41.100962" lon="14.320825"><ele>171.0</ele><time>2026-04-06T07:50:32.061Z</time></trkpt><trkpt lat="41.1009884" lon="14.3209161"><ele>169.33333333333334</ele><time>2026-04-06T07:50:36.063Z</time></trkpt><trkpt lat="41.1010293" lon="14.3210139"><ele>167.66666666666666</ele><time>2026-04-06T07:50:40.053Z</time></trkpt><trkpt lat="41.1010709" lon="14.3211038"><ele>166.0</ele><time>2026-04-06T07:50:43.032Z</time></trkpt><trkpt lat="41.1011192" lon="14.3211924"><ele>164.33333333333331</ele><time>2026-04-06T07:50:46.079Z</time></trkpt><trkpt lat="41.1011653" lon="14.3212714"><ele>162.66666666666666</ele><time>2026-04-06T07:50:49.08Z</time></trkpt><trkpt lat="41.101219" lon="14.3213455"><ele>161.0</ele><time>2026-04-06T07:50:52.014Z</time></trkpt><trkpt lat="41.1012854" lon="14.3213699"><ele>162.42857142857142</ele><time>2026-04-06T07:51:00.059Z</time></trkpt><trkpt lat="41.1013425" lon="14.3214173"><ele>163.85714285714286</ele><time>2026-04-06T07:51:03.097Z</time></trkpt><trkpt lat="41.1014056" lon="14.3214592"><ele>165.28571428571428</ele><time>2026-04-06T07:51:06.058Z</time></trkpt><trkpt lat="41.1014644" lon="14.3215044"><ele>166.71428571428572</ele><time>2026-04-06T07:51:09.071Z</time></trkpt><trkpt lat="41.1015409" lon="14.3215476"><ele>168.14285714285714</ele><time>2026-04-06T07:51:13.06Z</time></trkpt><trkpt lat="41.1016119" lon="14.3215797"><ele>169.57142857142856</ele><time>2026-04-06T07:51:16.059Z</time></trkpt><trkpt lat="41.1016793" lon="14.3216097"><ele>171.0</ele><time>2026-04-06T07:51:19.07Z</time></trkpt><trkpt lat="41.1017423" lon="14.3216413"><ele>170.99999999999997</ele><time>2026-04-06T07:51:22.064Z</time></trkpt><trkpt lat="41.1018015" lon="14.3216732"><ele>171.0</ele><time>2026-04-06T07:51:25.051Z</time></trkpt><trkpt lat="41.1018662" lon="14.3217005"><ele>171.0</ele><time>2026-04-06T07:51:28.077Z</time></trkpt><trkpt lat="41.1019262" lon="14.3217369"><ele>171.0</ele><time>2026-04-06T07:51:31.087Z</time></trkpt><trkpt lat="41.1019812" lon="14.3217867"><ele>171.0</ele><time>2026-04-06T07:51:34.071Z</time></trkpt><trkpt lat="41.1020477" lon="14.3218338"><ele>170.99999999999997</ele><time>2026-04-06T07:51:37.084Z</time></trkpt><trkpt lat="41.1021086" lon="14.3218849"><ele>171.0</ele><time>2026-04-06T07:51:40.085Z</time></trkpt><trkpt lat="41.1021672" lon="14.3219324"><ele>170.99999999999997</ele><time>2026-04-06T07:51:43.078Z</time></trkpt><trkpt lat="41.1022317" lon="14.3219761"><ele>171.0</ele><time>2026-04-06T07:51:46.034Z</time></trkpt><trkpt lat="41.1022924" lon="14.3220098"><ele>171.0</ele><time>2026-04-06T07:51:49.077Z</time></trkpt><trkpt lat="41.1023528" lon="14.3220534"><ele>171.0</ele><time>2026-04-06T07:51:52.074Z</time></trkpt><trkpt lat="41.1024122" lon="14.3221041"><ele>171.0</ele><time>2026-04-06T07:51:55.072Z</time></trkpt><trkpt lat="41.102461" lon="14.3221771"><ele>170.99999999999997</ele><time>2026-04-06T07:51:58.069Z</time></trkpt><trkpt lat="41.1025029" lon="14.3222477"><ele>171.0</ele><time>2026-04-06T07:52:01.085Z</time></trkpt><trkpt lat="41.102551" lon="14.322314"><ele>172.57142857142856</ele><time>2026-04-06T07:52:04.099Z</time></trkpt><trkpt lat="41.1025961" lon="14.3223835"><ele>174.14285714285714</ele><time>2026-04-06T07:52:07.088Z</time></trkpt><trkpt lat="41.102637" lon="14.3224538"><ele>175.71428571428572</ele><time>2026-04-06T07:52:10.048Z</time></trkpt><trkpt lat="41.1026809" lon="14.3225227"><ele>177.28571428571428</ele><time>2026-04-06T07:52:12.968Z</time></trkpt><trkpt lat="41.1027403" lon="14.3225822"><ele>178.85714285714286</ele><time>2026-04-06T07:52:16.065Z</time></trkpt><trkpt lat="41.1028209" lon="14.3226069"><ele>180.42857142857142</ele><time>2026-04-06T07:52:20.063Z</time></trkpt><trkpt lat="41.1028913" lon="14.3226383"><ele>182.0</ele><time>2026-04-06T07:52:24.058Z</time></trkpt><trkpt lat="41.1029337" lon="14.3227036"><ele>182.0</ele><time>2026-04-06T07:52:27.067Z</time></trkpt><trkpt lat="41.1029725" lon="14.3227785"><ele>182.0</ele><time>2026-04-06T07:52:30.032Z</time></trkpt><trkpt lat="41.1029889" lon="14.3228632"><ele>182.0</ele><time>2026-04-06T07:52:33.079Z</time></trkpt><trkpt lat="41.1030167" lon="14.3229518"><ele>182.0</ele><time>2026-04-06T07:52:37.065Z</time></trkpt><trkpt lat="41.1030729" lon="14.3230099"><ele>182.0</ele><time>2026-04-06T07:52:40.057Z</time></trkpt><trkpt lat="41.1031368" lon="14.3230473"><ele>182.0</ele><time>2026-04-06T07:52:43.062Z</time></trkpt><trkpt lat="41.1031984" lon="14.3230744"><ele>182.0</ele><time>2026-04-06T07:52:46.013Z</time></trkpt><trkpt lat="41.1032569" lon="14.3231197"><ele>183.28571428571428</ele><time>2026-04-06T07:52:49.082Z</time></trkpt><trkpt lat="41.1033167" lon="14.3231605"><ele>184.57142857142856</ele><time>2026-04-06T07:52:52.074Z</time></trkpt><trkpt lat="41.1033803" lon="14.323224"><ele>185.85714285714286</ele><time>2026-04-06T07:52:56.103Z</time></trkpt><trkpt lat="41.1034319" lon="14.3232783"><ele>187.14285714285714</ele><time>2026-04-06T07:52:59.091Z</time></trkpt><trkpt lat="41.1034924" lon="14.323348"><ele>188.42857142857142</ele><time>2026-04-06T07:53:03.091Z</time></trkpt><trkpt lat="41.1035572" lon="14.3234186"><ele>189.71428571428572</ele><time>2026-04-06T07:53:07.073Z</time></trkpt><trkpt lat="41.103612" lon="14.3234672"><ele>191.0</ele><time>2026-04-06T07:53:10.059Z</time></trkpt><trkpt lat="41.1036849" lon="14.3235217"><ele>191.0</ele><time>2026-04-06T07:53:14.049Z</time></trkpt><trkpt lat="41.1037368" lon="14.3235886"><ele>191.0</ele><time>2026-04-06T07:53:17.057Z</time></trkpt><trkpt lat="41.1037782" lon="14.3236544"><ele>191.0</ele><time>2026-04-06T07:53:20.058Z</time></trkpt><trkpt lat="41.1038024" lon="14.3237413"><ele>191.0</ele><time>2026-04-06T07:53:23.051Z</time></trkpt><trkpt lat="41.1038114" lon="14.3238292"><ele>191.0</ele><time>2026-04-06T07:53:26.091Z</time></trkpt><trkpt lat="41.1038377" lon="14.3239385"><ele>191.0</ele><time>2026-04-06T07:53:30.068Z</time></trkpt><trkpt lat="41.103845" lon="14.3240533"><ele>191.0</ele><time>2026-04-06T07:53:33.059Z</time></trkpt><trkpt lat="41.1038447" lon="14.3241475"><ele>190.2857142857143</ele><time>2026-04-06T07:53:35.064Z</time></trkpt><trkpt lat="41.1038385" lon="14.3242523"><ele>189.57142857142856</ele><time>2026-04-06T07:53:38.088Z</time></trkpt><trkpt lat="41.1038368" lon="14.3243497"><ele>188.85714285714286</ele><time>2026-04-06T07:53:41.043Z</time></trkpt><trkpt lat="41.1038491" lon="14.3244494"><ele>188.14285714285717</ele><time>2026-04-06T07:53:44.065Z</time></trkpt><trkpt lat="41.1038593" lon="14.3245333"><ele>187.42857142857144</ele><time>2026-04-06T07:53:47.076Z</time></trkpt><trkpt lat="41.1038442" lon="14.3246354"><ele>186.71428571428572</ele><time>2026-04-06T07:53:51.063Z</time></trkpt><trkpt lat="41.1038389" lon="14.3247287"><ele>186.0</ele><time>2026-04-06T07:53:53.992Z</time></trkpt><trkpt lat="41.1038421" lon="14.3248274"><ele>185.71428571428572</ele><time>2026-04-06T07:53:57.061Z</time></trkpt><trkpt lat="41.103851" lon="14.3249308"><ele>185.42857142857144</ele><time>2026-04-06T07:54:01.048Z</time></trkpt><trkpt lat="41.1038559" lon="14.3250165"><ele>185.14285714285717</ele><time>2026-04-06T07:54:04.056Z</time></trkpt><trkpt lat="41.103863" lon="14.325106"><ele>184.85714285714286</ele><time>2026-04-06T07:54:07.966Z</time></trkpt><trkpt lat="41.1039077" lon="14.3251872"><ele>184.57142857142856</ele><time>2026-04-06T07:54:13.064Z</time></trkpt><trkpt lat="41.1039745" lon="14.3252383"><ele>184.2857142857143</ele><time>2026-04-06T07:54:17.062Z</time></trkpt><trkpt lat="41.104029" lon="14.325288"><ele>184.0</ele><time>2026-04-06T07:54:21.064Z</time></trkpt><trkpt lat="41.104081" lon="14.3253822"><ele>187.42857142857144</ele><time>2026-04-06T07:54:25.061Z</time></trkpt><trkpt lat="41.104128" lon="14.3254627"><ele>190.85714285714283</ele><time>2026-04-06T07:54:28.074Z</time></trkpt><trkpt lat="41.1041676" lon="14.3255412"><ele>194.28571428571428</ele><time>2026-04-06T07:54:31.073Z</time></trkpt><trkpt lat="41.1042138" lon="14.3256256"><ele>197.71428571428572</ele><time>2026-04-06T07:54:35.061Z</time></trkpt><trkpt lat="41.1042796" lon="14.325688"><ele>201.14285714285717</ele><time>2026-04-06T07:54:39.058Z</time></trkpt><trkpt lat="41.1043329" lon="14.3257442"><ele>204.57142857142856</ele><time>2026-04-06T07:54:42.038Z</time></trkpt><trkpt lat="41.1043914" lon="14.3258027"><ele>208.0</ele><time>2026-04-06T07:54:45.994Z</time></trkpt><trkpt lat="41.1044472" lon="14.3258747"><ele>208.0</ele><time>2026-04-06T07:54:50.062Z</time></trkpt><trkpt lat="41.1044863" lon="14.3259459"><ele>208.0</ele><time>2026-04-06T07:54:53.054Z</time></trkpt><trkpt lat="41.1045352" lon="14.3260232"><ele>208.0</ele><time>2026-04-06T07:54:55.994Z</time></trkpt><trkpt lat="41.1045834" lon="14.326096"><ele>208.0</ele><time>2026-04-06T07:54:59.067Z</time></trkpt><trkpt lat="41.1046217" lon="14.3261694"><ele>208.0</ele><time>2026-04-06T07:55:02.063Z</time></trkpt><trkpt lat="41.1046675" lon="14.3262551"><ele>208.0</ele><time>2026-04-06T07:55:06.02Z</time></trkpt><trkpt lat="41.104719" lon="14.3263268"><ele>208.0</ele><time>2026-04-06T07:55:10.062Z</time></trkpt><trkpt lat="41.1047872" lon="14.3263772"><ele>209.42857142857142</ele><time>2026-04-06T07:55:13.053Z</time></trkpt><trkpt lat="41.1048434" lon="14.3264338"><ele>210.85714285714286</ele><time>2026-04-06T07:55:16.054Z</time></trkpt><trkpt lat="41.1049002" lon="14.3265054"><ele>212.28571428571428</ele><time>2026-04-06T07:55:20.024Z</time></trkpt><trkpt lat="41.1049632" lon="14.3265698"><ele>213.71428571428572</ele><time>2026-04-06T07:55:24.023Z</time></trkpt><trkpt lat="41.1050287" lon="14.3266228"><ele>215.14285714285717</ele><time>2026-04-06T07:55:27.961Z</time></trkpt><trkpt lat="41.1050861" lon="14.3266644"><ele>216.57142857142858</ele><time>2026-04-06T07:55:31.058Z</time></trkpt><trkpt lat="41.1051598" lon="14.3266982"><ele>218.0</ele><time>2026-04-06T07:55:35.069Z</time></trkpt><trkpt lat="41.1051762" lon="14.3267953"><ele>218.00000000000003</ele><time>2026-04-06T07:55:40.06Z</time></trkpt><trkpt lat="41.1052274" lon="14.3268535"><ele>218.0</ele><time>2026-04-06T07:55:44.078Z</time></trkpt><trkpt lat="41.1053078" lon="14.3268488"><ele>218.0</ele><time>2026-04-06T07:55:47.017Z</time></trkpt><trkpt lat="41.1053921" lon="14.326834"><ele>218.0</ele><time>2026-04-06T07:55:50.074Z</time></trkpt><trkpt lat="41.1054744" lon="14.3268338"><ele>218.00000000000003</ele><time>2026-04-06T07:55:53.086Z</time></trkpt><trkpt lat="41.1055488" lon="14.3268498"><ele>218.0</ele><time>2026-04-06T07:55:56.084Z</time></trkpt><trkpt lat="41.105617" lon="14.3268747"><ele>218.00000000000003</ele><time>2026-04-06T07:55:59.067Z</time></trkpt><trkpt lat="41.1056918" lon="14.3269055"><ele>218.0</ele><time>2026-04-06T07:56:03.043Z</time></trkpt><trkpt lat="41.1057598" lon="14.326897"><ele>218.0</ele><time>2026-04-06T07:56:08.062Z</time></trkpt><trkpt lat="41.1057369" lon="14.3268169"><ele>218.0</ele><time>2026-04-06T07:56:18.1Z</time></trkpt><trkpt lat="41.1057623" lon="14.3269584"><ele>218.00000000000003</ele><time>2026-04-06T07:56:28.062Z</time></trkpt><trkpt lat="41.1058424" lon="14.3269897"><ele>218.0</ele><time>2026-04-06T07:56:41.041Z</time></trkpt><trkpt lat="41.1058982" lon="14.3270574"><ele>220.0</ele><time>2026-04-06T07:56:45.014Z</time></trkpt><trkpt lat="41.1059601" lon="14.3270753"><ele>222.0</ele><time>2026-04-06T07:56:49.043Z</time></trkpt><trkpt lat="41.1060228" lon="14.3271168"><ele>224.0</ele><time>2026-04-06T07:56:52.982Z</time></trkpt><trkpt lat="41.1060882" lon="14.327171"><ele>226.0</ele><time>2026-04-06T07:56:57.064Z</time></trkpt><trkpt lat="41.1061688" lon="14.327189"><ele>228.0</ele><time>2026-04-06T07:57:01.084Z</time></trkpt><trkpt lat="41.1062466" lon="14.3271586"><ele>230.00000000000003</ele><time>2026-04-06T07:57:05.084Z</time></trkpt><trkpt lat="41.1063086" lon="14.3271344"><ele>232.00000000000003</ele><time>2026-04-06T07:57:08.083Z</time></trkpt><trkpt lat="41.1063873" lon="14.3271162"><ele>231.99999999999997</ele><time>2026-04-06T07:57:12.042Z</time></trkpt><trkpt lat="41.106459" lon="14.3271263"><ele>232.0</ele><time>2026-04-06T07:57:16.053Z</time></trkpt><trkpt lat="41.1065249" lon="14.3271261"><ele>232.0</ele><time>2026-04-06T07:57:20.05Z</time></trkpt><trkpt lat="41.1065962" lon="14.3271898"><ele>232.0</ele><time>2026-04-06T07:57:23.995Z</time></trkpt><trkpt lat="41.1066772" lon="14.327197"><ele>231.99999999999997</ele><time>2026-04-06T07:57:27.054Z</time></trkpt><trkpt lat="41.1067447" lon="14.3271478"><ele>232.0</ele><time>2026-04-06T07:57:28.975Z</time></trkpt><trkpt lat="41.1068127" lon="14.3270335"><ele>233.00000000000003</ele><time>2026-04-06T07:57:31.036Z</time></trkpt><trkpt lat="41.106881" lon="14.3270343"><ele>234.0</ele><time>2026-04-06T07:57:33.042Z</time></trkpt><trkpt lat="41.1069271" lon="14.3271151"><ele>235.00000000000003</ele><time>2026-04-06T07:57:35.061Z</time></trkpt><trkpt lat="41.1069805" lon="14.3271676"><ele>236.00000000000003</ele><time>2026-04-06T07:57:38.064Z</time></trkpt><trkpt lat="41.1070226" lon="14.3272437"><ele>237.0</ele><time>2026-04-06T07:57:42.026Z</time></trkpt><trkpt lat="41.1070709" lon="14.3273121"><ele>238.00000000000003</ele><time>2026-04-06T07:57:44.062Z</time></trkpt><trkpt lat="41.1071051" lon="14.3273868"><ele>239.00000000000003</ele><time>2026-04-06T07:57:46.059Z</time></trkpt><trkpt lat="41.1071528" lon="14.3274981"><ele>239.00000000000003</ele><time>2026-04-06T07:57:49.04Z</time></trkpt><trkpt lat="41.1071943" lon="14.3276163"><ele>239.0</ele><time>2026-04-06T07:57:52.072Z</time></trkpt><trkpt lat="41.107221" lon="14.3277076"><ele>239.0</ele><time>2026-04-06T07:57:54.111Z</time></trkpt><trkpt lat="41.1072532" lon="14.3277995"><ele>239.0</ele><time>2026-04-06T07:57:56.061Z</time></trkpt><trkpt lat="41.1072916" lon="14.3278803"><ele>239.00000000000003</ele><time>2026-04-06T07:57:58.007Z</time></trkpt><trkpt lat="41.1073366" lon="14.3279644"><ele>239.0</ele><time>2026-04-06T07:58:00.047Z</time></trkpt><trkpt lat="41.1073762" lon="14.3280544"><ele>236.8571428571429</ele><time>2026-04-06T07:58:02.05Z</time></trkpt><trkpt lat="41.1074151" lon="14.3281362"><ele>234.71428571428572</ele><time>2026-04-06T07:58:04.067Z</time></trkpt><trkpt lat="41.1074491" lon="14.3282171"><ele>232.57142857142858</ele><time>2026-04-06T07:58:05.964Z</time></trkpt><trkpt lat="41.1074851" lon="14.3283067"><ele>230.42857142857144</ele><time>2026-04-06T07:58:08.048Z</time></trkpt><trkpt lat="41.1075137" lon="14.3283931"><ele>228.28571428571428</ele><time>2026-04-06T07:58:10.06Z</time></trkpt><trkpt lat="41.1075291" lon="14.3284768"><ele>226.14285714285714</ele><time>2026-04-06T07:58:12.063Z</time></trkpt><trkpt lat="41.1075316" lon="14.3286009"><ele>224.0</ele><time>2026-04-06T07:58:14.983Z</time></trkpt><trkpt lat="41.1075257" lon="14.3286995"><ele>224.00000000000003</ele><time>2026-04-06T07:58:17.068Z</time></trkpt><trkpt lat="41.1075125" lon="14.3288219"><ele>224.0</ele><time>2026-04-06T07:58:20.054Z</time></trkpt><trkpt lat="41.1075" lon="14.3289372"><ele>224.0</ele><time>2026-04-06T07:58:22.967Z</time></trkpt><trkpt lat="41.1074839" lon="14.3290475"><ele>224.0</ele><time>2026-04-06T07:58:26.074Z</time></trkpt><trkpt lat="41.1074736" lon="14.3291371"><ele>224.00000000000003</ele><time>2026-04-06T07:58:28.055Z</time></trkpt><trkpt lat="41.1074568" lon="14.3292212"><ele>224.0</ele><time>2026-04-06T07:58:30.056Z</time></trkpt><trkpt lat="41.107428" lon="14.3293392"><ele>224.28571428571428</ele><time>2026-04-06T07:58:33.054Z</time></trkpt><trkpt lat="41.1074099" lon="14.3294447"><ele>224.57142857142856</ele><time>2026-04-06T07:58:36.028Z</time></trkpt><trkpt lat="41.1074165" lon="14.329545"><ele>224.85714285714286</ele><time>2026-04-06T07:58:40.06Z</time></trkpt><trkpt lat="41.1074263" lon="14.3296335"><ele>225.14285714285714</ele><time>2026-04-06T07:58:43.051Z</time></trkpt><trkpt lat="41.1074393" lon="14.3297171"><ele>225.42857142857142</ele><time>2026-04-06T07:58:45.983Z</time></trkpt><trkpt lat="41.1074321" lon="14.3298266"><ele>225.71428571428572</ele><time>2026-04-06T07:58:50.061Z</time></trkpt><trkpt lat="41.1074261" lon="14.3299149"><ele>226.0</ele><time>2026-04-06T07:58:53.063Z</time></trkpt><trkpt lat="41.1074141" lon="14.3299986"><ele>226.42857142857144</ele><time>2026-04-06T07:58:56.009Z</time></trkpt><trkpt lat="41.1073994" lon="14.3300829"><ele>226.85714285714283</ele><time>2026-04-06T07:58:59.051Z</time></trkpt><trkpt lat="41.1074258" lon="14.3301758"><ele>227.28571428571428</ele><time>2026-04-06T07:59:02.093Z</time></trkpt><trkpt lat="41.1074387" lon="14.3302577"><ele>227.71428571428572</ele><time>2026-04-06T07:59:05.009Z</time></trkpt><trkpt lat="41.1074383" lon="14.3303608"><ele>228.14285714285717</ele><time>2026-04-06T07:59:09.085Z</time></trkpt><trkpt lat="41.1074804" lon="14.3304557"><ele>228.57142857142856</ele><time>2026-04-06T07:59:13.062Z</time></trkpt><trkpt lat="41.1075193" lon="14.3305292"><ele>229.0</ele><time>2026-04-06T07:59:16.044Z</time></trkpt><trkpt lat="41.1075437" lon="14.330609"><ele>230.99999999999997</ele><time>2026-04-06T07:59:18.902Z</time></trkpt><trkpt lat="41.1075535" lon="14.3307072"><ele>233.0</ele><time>2026-04-06T07:59:22.054Z</time></trkpt><trkpt lat="41.1075541" lon="14.3307991"><ele>235.0</ele><time>2026-04-06T07:59:25.059Z</time></trkpt><trkpt lat="41.1075579" lon="14.3309056"><ele>237.0</ele><time>2026-04-06T07:59:29.047Z</time></trkpt><trkpt lat="41.1075733" lon="14.331013"><ele>238.99999999999997</ele><time>2026-04-06T07:59:33.034Z</time></trkpt><trkpt lat="41.1075982" lon="14.331113"><ele>241.0</ele><time>2026-04-06T07:59:36.987Z</time></trkpt><trkpt lat="41.1076026" lon="14.3312174"><ele>241.0</ele><time>2026-04-06T07:59:41.077Z</time></trkpt><trkpt lat="41.1076068" lon="14.3313145"><ele>241.00000000000003</ele><time>2026-04-06T07:59:45.061Z</time></trkpt><trkpt lat="41.1076184" lon="14.3314129"><ele>241.0</ele><time>2026-04-06T07:59:49.085Z</time></trkpt><trkpt lat="41.1076279" lon="14.3315179"><ele>241.0</ele><time>2026-04-06T07:59:53.054Z</time></trkpt><trkpt lat="41.1076404" lon="14.3316037"><ele>241.00000000000003</ele><time>2026-04-06T07:59:56.082Z</time></trkpt><trkpt lat="41.1076514" lon="14.3316909"><ele>241.0</ele><time>2026-04-06T07:59:59.048Z</time></trkpt><trkpt lat="41.1076677" lon="14.3317966"><ele>241.0</ele><time>2026-04-06T08:00:03.003Z</time></trkpt><trkpt lat="41.1076846" lon="14.3318835"><ele>242.42857142857144</ele><time>2026-04-06T08:00:06.08Z</time></trkpt><trkpt lat="41.1077124" lon="14.3319675"><ele>243.8571428571429</ele><time>2026-04-06T08:00:09.07Z</time></trkpt><trkpt lat="41.1077386" lon="14.3320468"><ele>245.28571428571428</ele><time>2026-04-06T08:00:12.09Z</time></trkpt><trkpt lat="41.1077535" lon="14.3321281"><ele>246.71428571428572</ele><time>2026-04-06T08:00:15.077Z</time></trkpt><trkpt lat="41.1077688" lon="14.3322105"><ele>248.14285714285714</ele><time>2026-04-06T08:00:18.079Z</time></trkpt><trkpt lat="41.1077872" lon="14.3322951"><ele>249.57142857142856</ele><time>2026-04-06T08:00:21.045Z</time></trkpt><trkpt lat="41.1078153" lon="14.3323724"><ele>250.99999999999997</ele><time>2026-04-06T08:00:24.061Z</time></trkpt><trkpt lat="41.1078468" lon="14.3324486"><ele>253.28571428571425</ele><time>2026-04-06T08:00:27.062Z</time></trkpt><trkpt lat="41.1078701" lon="14.332531"><ele>255.57142857142856</ele><time>2026-04-06T08:00:30.067Z</time></trkpt><trkpt lat="41.107895" lon="14.3326081"><ele>257.8571428571429</ele><time>2026-04-06T08:00:32.965Z</time></trkpt><trkpt lat="41.107923" lon="14.3326855"><ele>260.1428571428571</ele><time>2026-04-06T08:00:36.099Z</time></trkpt><trkpt lat="41.1079586" lon="14.332762"><ele>262.42857142857144</ele><time>2026-04-06T08:00:39.113Z</time></trkpt><trkpt lat="41.108001" lon="14.3328587"><ele>264.7142857142857</ele><time>2026-04-06T08:00:43.047Z</time></trkpt><trkpt lat="41.1080343" lon="14.3329544"><ele>267.0</ele><time>2026-04-06T08:00:47.049Z</time></trkpt><trkpt lat="41.1080761" lon="14.3330413"><ele>270.0</ele><time>2026-04-06T08:00:51.051Z</time></trkpt><trkpt lat="41.1081056" lon="14.3331294"><ele>273.0</ele><time>2026-04-06T08:00:55.03Z</time></trkpt><trkpt lat="41.1081336" lon="14.3332338"><ele>276.0</ele><time>2026-04-06T08:01:00.117Z</time></trkpt><trkpt lat="41.1081654" lon="14.3333287"><ele>279.0</ele><time>2026-04-06T08:01:04.079Z</time></trkpt><trkpt lat="41.1081904" lon="14.3334122"><ele>282.0</ele><time>2026-04-06T08:01:07.095Z</time></trkpt><trkpt lat="41.1082179" lon="14.3335054"><ele>285.0</ele><time>2026-04-06T08:01:10.101Z</time></trkpt><trkpt lat="41.1082499" lon="14.3335973"><ele>281.57142857142856</ele><time>2026-04-06T08:01:13.087Z</time></trkpt><trkpt lat="41.1082768" lon="14.3336838"><ele>278.14285714285717</ele><time>2026-04-06T08:01:16.079Z</time></trkpt><trkpt lat="41.1083041" lon="14.3337651"><ele>274.7142857142857</ele><time>2026-04-06T08:01:19.081Z</time></trkpt><trkpt lat="41.1083367" lon="14.3338406"><ele>271.2857142857143</ele><time>2026-04-06T08:01:22.065Z</time></trkpt><trkpt lat="41.1083685" lon="14.3339139"><ele>267.85714285714283</ele><time>2026-04-06T08:01:25.084Z</time></trkpt><trkpt lat="41.1083965" lon="14.3339912"><ele>264.42857142857144</ele><time>2026-04-06T08:01:28.987Z</time></trkpt><trkpt lat="41.1084205" lon="14.3340717"><ele>261.0</ele><time>2026-04-06T08:01:32.969Z</time></trkpt><trkpt lat="41.1084299" lon="14.3341614"><ele>261.0</ele><time>2026-04-06T08:01:37.096Z</time></trkpt><trkpt lat="41.1084314" lon="14.3342541"><ele>261.0</ele><time>2026-04-06T08:01:41.067Z</time></trkpt><trkpt lat="41.1084342" lon="14.3343578"><ele>261.0</ele><time>2026-04-06T08:01:45.061Z</time></trkpt><trkpt lat="41.108438" lon="14.3344655"><ele>261.0</ele><time>2026-04-06T08:01:49.084Z</time></trkpt><trkpt lat="41.1084371" lon="14.3345595"><ele>261.0</ele><time>2026-04-06T08:01:52.988Z</time></trkpt><trkpt lat="41.1084329" lon="14.3346519"><ele>261.0</ele><time>2026-04-06T08:01:56.983Z</time></trkpt><trkpt lat="41.1084166" lon="14.3347546"><ele>261.0</ele><time>2026-04-06T08:02:01.091Z</time></trkpt><trkpt lat="41.1084126" lon="14.3348398"><ele>262.42857142857144</ele><time>2026-04-06T08:02:04.087Z</time></trkpt><trkpt lat="41.1084122" lon="14.3349292"><ele>263.85714285714283</ele><time>2026-04-06T08:02:07.069Z</time></trkpt><trkpt lat="41.1084168" lon="14.3350132"><ele>265.2857142857143</ele><time>2026-04-06T08:02:10.064Z</time></trkpt><trkpt lat="41.1084216" lon="14.3350983"><ele>266.7142857142857</ele><time>2026-04-06T08:02:13.083Z</time></trkpt><trkpt lat="41.1084227" lon="14.3351887"><ele>268.14285714285717</ele><time>2026-04-06T08:02:16.024Z</time></trkpt><trkpt lat="41.1084191" lon="14.3352818"><ele>269.57142857142856</ele><time>2026-04-06T08:02:19.096Z</time></trkpt><trkpt lat="41.1084101" lon="14.3353714"><ele>271.0</ele><time>2026-04-06T08:02:22.091Z</time></trkpt><trkpt lat="41.1084042" lon="14.3354569"><ele>271.0</ele><time>2026-04-06T08:02:25.029Z</time></trkpt><trkpt lat="41.1083981" lon="14.3355479"><ele>271.0</ele><time>2026-04-06T08:02:28.084Z</time></trkpt><trkpt lat="41.1083868" lon="14.3356435"><ele>271.0</ele><time>2026-04-06T08:02:31.078Z</time></trkpt><trkpt lat="41.1083892" lon="14.3357367"><ele>271.0</ele><time>2026-04-06T08:02:34.09Z</time></trkpt><trkpt lat="41.1083859" lon="14.3358274"><ele>271.0</ele><time>2026-04-06T08:02:37.073Z</time></trkpt><trkpt lat="41.1083746" lon="14.3359225"><ele>271.0</ele><time>2026-04-06T08:02:40.063Z</time></trkpt><trkpt lat="41.1083542" lon="14.336012"><ele>271.0</ele><time>2026-04-06T08:02:43.065Z</time></trkpt><trkpt lat="41.1083371" lon="14.3360985"><ele>271.0</ele><time>2026-04-06T08:02:46.059Z</time></trkpt><trkpt lat="41.1083206" lon="14.3361929"><ele>271.0</ele><time>2026-04-06T08:02:49.072Z</time></trkpt><trkpt lat="41.108306" lon="14.3362802"><ele>271.0</ele><time>2026-04-06T08:02:52.06Z</time></trkpt><trkpt lat="41.108286" lon="14.3363676"><ele>271.0</ele><time>2026-04-06T08:02:55.101Z</time></trkpt><trkpt lat="41.1082655" lon="14.336459"><ele>271.0</ele><time>2026-04-06T08:02:58.112Z</time></trkpt><trkpt lat="41.1082332" lon="14.3365457"><ele>271.0</ele><time>2026-04-06T08:03:00.99Z</time></trkpt><trkpt lat="41.1081984" lon="14.3366272"><ele>271.0</ele><time>2026-04-06T08:03:04.075Z</time></trkpt><trkpt lat="41.108162" lon="14.3367199"><ele>278.0</ele><time>2026-04-06T08:03:08.059Z</time></trkpt><trkpt lat="41.1081229" lon="14.3368081"><ele>285.0</ele><time>2026-04-06T08:03:12.077Z</time></trkpt><trkpt lat="41.1080897" lon="14.3369051"><ele>292.0</ele><time>2026-04-06T08:03:16.082Z</time></trkpt><trkpt lat="41.1080764" lon="14.337015"><ele>299.0</ele><time>2026-04-06T08:03:20.083Z</time></trkpt><trkpt lat="41.1080591" lon="14.3371232"><ele>306.0</ele><time>2026-04-06T08:03:24.08Z</time></trkpt><trkpt lat="41.108034" lon="14.3372233"><ele>313.0</ele><time>2026-04-06T08:03:28.088Z</time></trkpt><trkpt lat="41.1080038" lon="14.3373147"><ele>313.0</ele><time>2026-04-06T08:03:32.106Z</time></trkpt><trkpt lat="41.1079731" lon="14.3374061"><ele>313.0</ele><time>2026-04-06T08:03:36.067Z</time></trkpt><trkpt lat="41.1079354" lon="14.337494"><ele>313.0</ele><time>2026-04-06T08:03:40.058Z</time></trkpt><trkpt lat="41.1079127" lon="14.3375809"><ele>313.0</ele><time>2026-04-06T08:03:44.086Z</time></trkpt><trkpt lat="41.1078913" lon="14.3376615"><ele>313.0</ele><time>2026-04-06T08:03:48.056Z</time></trkpt><trkpt lat="41.1078628" lon="14.3377404"><ele>313.0</ele><time>2026-04-06T08:03:52.046Z</time></trkpt><trkpt lat="41.1078324" lon="14.3378162"><ele>313.0</ele><time>2026-04-06T08:03:56.073Z</time></trkpt><trkpt lat="41.107794" lon="14.3378874"><ele>313.0</ele><time>2026-04-06T08:04:00.082Z</time></trkpt><trkpt lat="41.1077586" lon="14.3379742"><ele>313.0</ele><time>2026-04-06T08:04:04.065Z</time></trkpt><trkpt lat="41.1077303" lon="14.3380573"><ele>313.0</ele><time>2026-04-06T08:04:07.06Z</time></trkpt><trkpt lat="41.1077096" lon="14.3381565"><ele>313.0</ele><time>2026-04-06T08:04:10.107Z</time></trkpt><trkpt lat="41.1076943" lon="14.3382576"><ele>313.0</ele><time>2026-04-06T08:04:12.984Z</time></trkpt><trkpt lat="41.1076799" lon="14.3383628"><ele>313.0</ele><time>2026-04-06T08:04:16.006Z</time></trkpt><trkpt lat="41.1076716" lon="14.3384767"><ele>312.0</ele><time>2026-04-06T08:04:19.068Z</time></trkpt><trkpt lat="41.1076638" lon="14.3385717"><ele>311.0</ele><time>2026-04-06T08:04:22.059Z</time></trkpt><trkpt lat="41.1076503" lon="14.3386599"><ele>310.0</ele><time>2026-04-06T08:04:25.086Z</time></trkpt><trkpt lat="41.1076332" lon="14.3387508"><ele>309.0</ele><time>2026-04-06T08:04:28.086Z</time></trkpt><trkpt lat="41.1076215" lon="14.3388386"><ele>308.0</ele><time>2026-04-06T08:04:31.082Z</time></trkpt><trkpt lat="41.1076199" lon="14.338928"><ele>307.0</ele><time>2026-04-06T08:04:34.085Z</time></trkpt><trkpt lat="41.1076251" lon="14.3390187"><ele>306.0</ele><time>2026-04-06T08:04:36.972Z</time></trkpt><trkpt lat="41.1076314" lon="14.3391203"><ele>305.7142857142857</ele><time>2026-04-06T08:04:41.072Z</time></trkpt><trkpt lat="41.1076356" lon="14.3392168"><ele>305.42857142857144</ele><time>2026-04-06T08:04:45.065Z</time></trkpt><trkpt lat="41.1076343" lon="14.3393078"><ele>305.1428571428571</ele><time>2026-04-06T08:04:49.069Z</time></trkpt><trkpt lat="41.1076322" lon="14.3394124"><ele>304.8571428571429</ele><time>2026-04-06T08:04:53.071Z</time></trkpt><trkpt lat="41.1076204" lon="14.3395109"><ele>304.5714285714286</ele><time>2026-04-06T08:04:57.062Z</time></trkpt><trkpt lat="41.1076165" lon="14.33962"><ele>304.2857142857143</ele><time>2026-04-06T08:05:01.088Z</time></trkpt><trkpt lat="41.1076259" lon="14.3397086"><ele>304.0</ele><time>2026-04-06T08:05:04.073Z</time></trkpt><trkpt lat="41.1076409" lon="14.339794"><ele>304.0</ele><time>2026-04-06T08:05:07.078Z</time></trkpt><trkpt lat="41.1076505" lon="14.3398804"><ele>304.0</ele><time>2026-04-06T08:05:10.083Z</time></trkpt><trkpt lat="41.1076621" lon="14.3399632"><ele>304.0</ele><time>2026-04-06T08:05:13.068Z</time></trkpt><trkpt lat="41.1076806" lon="14.3400472"><ele>304.0</ele><time>2026-04-06T08:05:16.081Z</time></trkpt><trkpt lat="41.1077133" lon="14.3401286"><ele>304.0</ele><time>2026-04-06T08:05:19.008Z</time></trkpt><trkpt lat="41.1077505" lon="14.3401982"><ele>304.0</ele><time>2026-04-06T08:05:22.064Z</time></trkpt><trkpt lat="41.1078002" lon="14.3402653"><ele>304.0</ele><time>2026-04-06T08:05:25.057Z</time></trkpt><trkpt lat="41.1078504" lon="14.3403363"><ele>304.0</ele><time>2026-04-06T08:05:28.087Z</time></trkpt><trkpt lat="41.1078969" lon="14.3403977"><ele>304.0</ele><time>2026-04-06T08:05:31.073Z</time></trkpt><trkpt lat="41.1079407" lon="14.3404646"><ele>304.0</ele><time>2026-04-06T08:05:34.06Z</time></trkpt><trkpt lat="41.1079844" lon="14.3405288"><ele>304.0</ele><time>2026-04-06T08:05:37.002Z</time></trkpt><trkpt lat="41.1080134" lon="14.340606"><ele>304.0</ele><time>2026-04-06T08:05:40.082Z</time></trkpt><trkpt lat="41.1080308" lon="14.3406953"><ele>304.0</ele><time>2026-04-06T08:05:43.085Z</time></trkpt><trkpt lat="41.1080366" lon="14.3407847"><ele>304.0</ele><time>2026-04-06T08:05:46.051Z</time></trkpt><trkpt lat="41.108034" lon="14.340869"><ele>304.4285714285714</ele><time>2026-04-06T08:05:49.086Z</time></trkpt><trkpt lat="41.1080229" lon="14.3409516"><ele>304.8571428571429</ele><time>2026-04-06T08:05:52.091Z</time></trkpt><trkpt lat="41.108022" lon="14.3410423"><ele>305.2857142857143</ele><time>2026-04-06T08:05:56.029Z</time></trkpt><trkpt lat="41.1080245" lon="14.3411294"><ele>305.71428571428567</ele><time>2026-04-06T08:06:00.06Z</time></trkpt><trkpt lat="41.1080167" lon="14.3412165"><ele>306.1428571428571</ele><time>2026-04-06T08:06:04.091Z</time></trkpt><trkpt lat="41.1080119" lon="14.3413006"><ele>306.57142857142856</ele><time>2026-04-06T08:06:08.128Z</time></trkpt><trkpt lat="41.1079918" lon="14.3413857"><ele>307.0</ele><time>2026-04-06T08:06:12.026Z</time></trkpt><trkpt lat="41.1079759" lon="14.3414667"><ele>306.99999999999994</ele><time>2026-04-06T08:06:16.043Z</time></trkpt><trkpt lat="41.1079739" lon="14.341554"><ele>307.0</ele><time>2026-04-06T08:06:20.086Z</time></trkpt><trkpt lat="41.1079717" lon="14.3416503"><ele>307.0</ele><time>2026-04-06T08:06:23.991Z</time></trkpt><trkpt lat="41.1079361" lon="14.341728"><ele>307.0</ele><time>2026-04-06T08:06:28.079Z</time></trkpt><trkpt lat="41.1079223" lon="14.3418331"><ele>307.0</ele><time>2026-04-06T08:06:32.083Z</time></trkpt><trkpt lat="41.1078956" lon="14.3419333"><ele>306.99999999999994</ele><time>2026-04-06T08:06:36.086Z</time></trkpt><trkpt lat="41.1078697" lon="14.342012"><ele>307.0</ele><time>2026-04-06T08:06:39.042Z</time></trkpt><trkpt lat="41.1078395" lon="14.3421125"><ele>306.99999999999994</ele><time>2026-04-06T08:06:43.046Z</time></trkpt><trkpt lat="41.1078213" lon="14.3422035"><ele>307.0</ele><time>2026-04-06T08:06:46.078Z</time></trkpt><trkpt lat="41.1078066" lon="14.3422983"><ele>307.0</ele><time>2026-04-06T08:06:49.076Z</time></trkpt><trkpt lat="41.1077818" lon="14.3423886"><ele>307.0</ele><time>2026-04-06T08:06:52.083Z</time></trkpt><trkpt lat="41.1077747" lon="14.3424752"><ele>307.0</ele><time>2026-04-06T08:06:55.109Z</time></trkpt><trkpt lat="41.1077719" lon="14.342565"><ele>306.99999999999994</ele><time>2026-04-06T08:06:58.095Z</time></trkpt><trkpt lat="41.1077641" lon="14.3426863"><ele>307.0</ele><time>2026-04-06T08:07:02.071Z</time></trkpt><trkpt lat="41.1077583" lon="14.3427905"><ele>307.3333333333333</ele><time>2026-04-06T08:07:06.065Z</time></trkpt><trkpt lat="41.1077525" lon="14.3428978"><ele>307.66666666666663</ele><time>2026-04-06T08:07:10.111Z</time></trkpt><trkpt lat="41.1077375" lon="14.3430054"><ele>308.0</ele><time>2026-04-06T08:07:14.045Z</time></trkpt><trkpt lat="41.1077212" lon="14.3431017"><ele>308.3333333333333</ele><time>2026-04-06T08:07:17.092Z</time></trkpt><trkpt lat="41.107713" lon="14.3431867"><ele>308.6666666666667</ele><time>2026-04-06T08:07:20.079Z</time></trkpt><trkpt lat="41.1076933" lon="14.3432953"><ele>309.0</ele><time>2026-04-06T08:07:24.114Z</time></trkpt><trkpt lat="41.1076769" lon="14.343403"><ele>309.8333333333333</ele><time>2026-04-06T08:07:28.053Z</time></trkpt><trkpt lat="41.1076499" lon="14.3434967"><ele>310.6666666666667</ele><time>2026-04-06T08:07:32.023Z</time></trkpt><trkpt lat="41.1076006" lon="14.3435859"><ele>311.5</ele><time>2026-04-06T08:07:36.088Z</time></trkpt><trkpt lat="41.1075634" lon="14.3436605"><ele>312.33333333333337</ele><time>2026-04-06T08:07:39.093Z</time></trkpt><trkpt lat="41.1075214" lon="14.3437502"><ele>313.1666666666667</ele><time>2026-04-06T08:07:43.077Z</time></trkpt><trkpt lat="41.1074701" lon="14.343822"><ele>314.0</ele><time>2026-04-06T08:07:47.059Z</time></trkpt><trkpt lat="41.1074112" lon="14.3438957"><ele>316.5</ele><time>2026-04-06T08:07:50.963Z</time></trkpt><trkpt lat="41.1073463" lon="14.3439603"><ele>319.0</ele><time>2026-04-06T08:07:54.988Z</time></trkpt><trkpt lat="41.1072884" lon="14.3440098"><ele>321.5</ele><time>2026-04-06T08:07:59.078Z</time></trkpt><trkpt lat="41.1072346" lon="14.3440684"><ele>324.0</ele><time>2026-04-06T08:08:03.075Z</time></trkpt><trkpt lat="41.1071683" lon="14.344125"><ele>326.5</ele><time>2026-04-06T08:08:07.063Z</time></trkpt><trkpt lat="41.1071059" lon="14.3441789"><ele>329.0</ele><time>2026-04-06T08:08:11.07Z</time></trkpt><trkpt lat="41.1070365" lon="14.3442316"><ele>329.0</ele><time>2026-04-06T08:08:15.066Z</time></trkpt><trkpt lat="41.1069869" lon="14.3443091"><ele>329.0</ele><time>2026-04-06T08:08:19.071Z</time></trkpt><trkpt lat="41.1069551" lon="14.3442353"><ele>329.0</ele><time>2026-04-06T08:08:26.081Z</time></trkpt><trkpt lat="41.1069248" lon="14.3441578"><ele>329.0</ele><time>2026-04-06T08:08:33.086Z</time></trkpt><trkpt lat="41.1069386" lon="14.3440633"><ele>329.0</ele><time>2026-04-06T08:08:38.09Z</time></trkpt><trkpt lat="41.1069493" lon="14.3439754"><ele>329.0</ele><time>2026-04-06T08:08:42.059Z</time></trkpt><trkpt lat="41.1069461" lon="14.3438739"><ele>329.0</ele><time>2026-04-06T08:08:47.071Z</time></trkpt><trkpt lat="41.1069496" lon="14.3437847"><ele>330.2857142857143</ele><time>2026-04-06T08:08:51.082Z</time></trkpt><trkpt lat="41.1069492" lon="14.3436785"><ele>331.57142857142856</ele><time>2026-04-06T08:08:55.088Z</time></trkpt><trkpt lat="41.1069353" lon="14.3435668"><ele>332.8571428571429</ele><time>2026-04-06T08:08:59.082Z</time></trkpt><trkpt lat="41.1069258" lon="14.3434772"><ele>334.1428571428571</ele><time>2026-04-06T08:09:02.008Z</time></trkpt><trkpt lat="41.1069144" lon="14.3433825"><ele>335.42857142857144</ele><time>2026-04-06T08:09:05.091Z</time></trkpt><trkpt lat="41.1069043" lon="14.3432904"><ele>336.7142857142857</ele><time>2026-04-06T08:09:08.086Z</time></trkpt><trkpt lat="41.106886" lon="14.3431994"><ele>338.0</ele><time>2026-04-06T08:09:11.047Z</time></trkpt><trkpt lat="41.1068771" lon="14.3431031"><ele>339.0</ele><time>2026-04-06T08:09:14.071Z</time></trkpt><trkpt lat="41.106873" lon="14.3430093"><ele>340.0</ele><time>2026-04-06T08:09:17.005Z</time></trkpt><trkpt lat="41.106877" lon="14.3429117"><ele>341.0</ele><time>2026-04-06T08:09:20.077Z</time></trkpt><trkpt lat="41.1068768" lon="14.3428191"><ele>342.0</ele><time>2026-04-06T08:09:23.072Z</time></trkpt><trkpt lat="41.1068771" lon="14.3427223"><ele>343.0</ele><time>2026-04-06T08:09:26.109Z</time></trkpt><trkpt lat="41.1068855" lon="14.3426313"><ele>344.0</ele><time>2026-04-06T08:09:29.049Z</time></trkpt><trkpt lat="41.1068797" lon="14.3425351"><ele>345.0</ele><time>2026-04-06T08:09:32.046Z</time></trkpt><trkpt lat="41.1068755" lon="14.3424392"><ele>345.0</ele><time>2026-04-06T08:09:35.085Z</time></trkpt><trkpt lat="41.1068488" lon="14.3423582"><ele>345.0</ele><time>2026-04-06T08:09:38.009Z</time></trkpt><trkpt lat="41.1067993" lon="14.3422864"><ele>345.0</ele><time>2026-04-06T08:09:41.055Z</time></trkpt><trkpt lat="41.1067961" lon="14.3421993"><ele>345.0</ele><time>2026-04-06T08:09:44.072Z</time></trkpt><trkpt lat="41.1068125" lon="14.3420982"><ele>345.0</ele><time>2026-04-06T08:09:47.114Z</time></trkpt><trkpt lat="41.1068316" lon="14.3419888"><ele>345.0</ele><time>2026-04-06T08:09:50.089Z</time></trkpt><trkpt lat="41.106841" lon="14.3418856"><ele>345.0</ele><time>2026-04-06T08:09:53.073Z</time></trkpt><trkpt lat="41.1068478" lon="14.3417719"><ele>345.1666666666667</ele><time>2026-04-06T08:09:56.089Z</time></trkpt><trkpt lat="41.1068657" lon="14.3416726"><ele>345.3333333333333</ele><time>2026-04-06T08:09:59.048Z</time></trkpt><trkpt lat="41.1069018" lon="14.3415707"><ele>345.5</ele><time>2026-04-06T08:10:02.083Z</time></trkpt><trkpt lat="41.1069296" lon="14.3414816"><ele>345.66666666666663</ele><time>2026-04-06T08:10:05.009Z</time></trkpt><trkpt lat="41.1069496" lon="14.3413833"><ele>345.8333333333333</ele><time>2026-04-06T08:10:08.106Z</time></trkpt><trkpt lat="41.1069723" lon="14.3412908"><ele>346.0</ele><time>2026-04-06T08:10:11.082Z</time></trkpt><trkpt lat="41.1070006" lon="14.3412089"><ele>346.7142857142857</ele><time>2026-04-06T08:10:14.062Z</time></trkpt><trkpt lat="41.1070534" lon="14.3411345"><ele>347.42857142857144</ele><time>2026-04-06T08:10:17.077Z</time></trkpt><trkpt lat="41.1070979" lon="14.3410604"><ele>348.14285714285717</ele><time>2026-04-06T08:10:20.091Z</time></trkpt><trkpt lat="41.1071145" lon="14.3409786"><ele>348.8571428571429</ele><time>2026-04-06T08:10:23.077Z</time></trkpt><trkpt lat="41.1071197" lon="14.3408856"><ele>349.57142857142856</ele><time>2026-04-06T08:10:26.084Z</time></trkpt><trkpt lat="41.1071187" lon="14.3407898"><ele>350.28571428571433</ele><time>2026-04-06T08:10:29.105Z</time></trkpt><trkpt lat="41.1071231" lon="14.340693"><ele>351.0</ele><time>2026-04-06T08:10:32.078Z</time></trkpt><trkpt lat="41.1071382" lon="14.340597"><ele>351.5</ele><time>2026-04-06T08:10:35.101Z</time></trkpt><trkpt lat="41.1071553" lon="14.3404996"><ele>352.0</ele><time>2026-04-06T08:10:37.991Z</time></trkpt><trkpt lat="41.1071543" lon="14.340397"><ele>352.5</ele><time>2026-04-06T08:10:41.056Z</time></trkpt><trkpt lat="41.1071354" lon="14.3402948"><ele>353.0</ele><time>2026-04-06T08:10:44.08Z</time></trkpt><trkpt lat="41.1071199" lon="14.3401986"><ele>353.5</ele><time>2026-04-06T08:10:47.124Z</time></trkpt><trkpt lat="41.1070932" lon="14.3400975"><ele>354.0</ele><time>2026-04-06T08:10:51.069Z</time></trkpt><trkpt lat="41.1070704" lon="14.3400183"><ele>354.0</ele><time>2026-04-06T08:10:54.061Z</time></trkpt><trkpt lat="41.107058" lon="14.3399255"><ele>354.0</ele><time>2026-04-06T08:10:57.059Z</time></trkpt><trkpt lat="41.1070487" lon="14.3398214"><ele>354.0</ele><time>2026-04-06T08:11:00.028Z</time></trkpt><trkpt lat="41.1070486" lon="14.3397116"><ele>354.0</ele><time>2026-04-06T08:11:03.091Z</time></trkpt><trkpt lat="41.10706" lon="14.3396162"><ele>354.0</ele><time>2026-04-06T08:11:06.011Z</time></trkpt><trkpt lat="41.1070726" lon="14.3395098"><ele>354.0</ele><time>2026-04-06T08:11:09.087Z</time></trkpt><trkpt lat="41.1070853" lon="14.3394168"><ele>353.5714285714286</ele><time>2026-04-06T08:11:12.067Z</time></trkpt><trkpt lat="41.1070992" lon="14.3393266"><ele>353.1428571428571</ele><time>2026-04-06T08:11:15.107Z</time></trkpt><trkpt lat="41.1071113" lon="14.3392361"><ele>352.7142857142857</ele><time>2026-04-06T08:11:18.066Z</time></trkpt><trkpt lat="41.10712" lon="14.3391437"><ele>352.28571428571433</ele><time>2026-04-06T08:11:21.08Z</time></trkpt><trkpt lat="41.1071263" lon="14.3390526"><ele>351.8571428571429</ele><time>2026-04-06T08:11:24.064Z</time></trkpt><trkpt lat="41.107138" lon="14.3389662"><ele>351.42857142857144</ele><time>2026-04-06T08:11:27.05Z</time></trkpt><trkpt lat="41.1071369" lon="14.3388683"><ele>351.0</ele><time>2026-04-06T08:11:31.11Z</time></trkpt><trkpt lat="41.107144" lon="14.3387678"><ele>350.8333333333333</ele><time>2026-04-06T08:11:36.06Z</time></trkpt><trkpt lat="41.1071576" lon="14.3386638"><ele>350.6666666666667</ele><time>2026-04-06T08:11:40.008Z</time></trkpt><trkpt lat="41.1071727" lon="14.338571"><ele>350.5</ele><time>2026-04-06T08:11:43.052Z</time></trkpt><trkpt lat="41.1071978" lon="14.3384782"><ele>350.33333333333337</ele><time>2026-04-06T08:11:45.968Z</time></trkpt><trkpt lat="41.107245" lon="14.3383821"><ele>350.1666666666667</ele><time>2026-04-06T08:11:49.055Z</time></trkpt><trkpt lat="41.1072833" lon="14.3382844"><ele>350.0</ele><time>2026-04-06T08:11:52.085Z</time></trkpt><trkpt lat="41.1073155" lon="14.3381893"><ele>350.0</ele><time>2026-04-06T08:11:55.088Z</time></trkpt><trkpt lat="41.1073401" lon="14.3380859"><ele>350.0</ele><time>2026-04-06T08:11:58.076Z</time></trkpt><trkpt lat="41.1073499" lon="14.3379765"><ele>350.0</ele><time>2026-04-06T08:12:01.077Z</time></trkpt><trkpt lat="41.1073559" lon="14.3378672"><ele>350.0</ele><time>2026-04-06T08:12:04.08Z</time></trkpt><trkpt lat="41.10737" lon="14.3377485"><ele>350.0</ele><time>2026-04-06T08:12:07.057Z</time></trkpt><trkpt lat="41.1073911" lon="14.3376472"><ele>350.0</ele><time>2026-04-06T08:12:10.09Z</time></trkpt><trkpt lat="41.1074192" lon="14.3375375"><ele>345.1666666666667</ele><time>2026-04-06T08:12:13.07Z</time></trkpt><trkpt lat="41.107444" lon="14.3374336"><ele>340.33333333333337</ele><time>2026-04-06T08:12:16.006Z</time></trkpt><trkpt lat="41.1074631" lon="14.3373224"><ele>335.5</ele><time>2026-04-06T08:12:19.074Z</time></trkpt><trkpt lat="41.1074855" lon="14.3372201"><ele>330.6666666666667</ele><time>2026-04-06T08:12:22.067Z</time></trkpt><trkpt lat="41.1075123" lon="14.3371095"><ele>325.8333333333333</ele><time>2026-04-06T08:12:25.084Z</time></trkpt><trkpt lat="41.1075295" lon="14.3369931"><ele>321.0</ele><time>2026-04-06T08:12:28.075Z</time></trkpt><trkpt lat="41.1075446" lon="14.3368818"><ele>321.0</ele><time>2026-04-06T08:12:31.097Z</time></trkpt><trkpt lat="41.1075468" lon="14.336773"><ele>321.0</ele><time>2026-04-06T08:12:34.093Z</time></trkpt><trkpt lat="41.1075508" lon="14.336669"><ele>321.0</ele><time>2026-04-06T08:12:37.092Z</time></trkpt><trkpt lat="41.107548" lon="14.3365659"><ele>321.0</ele><time>2026-04-06T08:12:40.082Z</time></trkpt><trkpt lat="41.1075435" lon="14.3364522"><ele>321.0</ele><time>2026-04-06T08:12:43.063Z</time></trkpt><trkpt lat="41.1075395" lon="14.3363333"><ele>321.0</ele><time>2026-04-06T08:12:46.096Z</time></trkpt><trkpt lat="41.1075336" lon="14.3362174"><ele>321.0</ele><time>2026-04-06T08:12:49.073Z</time></trkpt><trkpt lat="41.1075333" lon="14.3361096"><ele>321.0</ele><time>2026-04-06T08:12:52.074Z</time></trkpt><trkpt lat="41.1075302" lon="14.3360111"><ele>321.0</ele><time>2026-04-06T08:12:55.075Z</time></trkpt><trkpt lat="41.1075217" lon="14.3359072"><ele>321.0</ele><time>2026-04-06T08:12:59.006Z</time></trkpt><trkpt lat="41.1075181" lon="14.3358198"><ele>321.0</ele><time>2026-04-06T08:13:02.077Z</time></trkpt><trkpt lat="41.107502" lon="14.3357102"><ele>321.0</ele><time>2026-04-06T08:13:06.032Z</time></trkpt><trkpt lat="41.1074912" lon="14.3355974"><ele>319.99999999999994</ele><time>2026-04-06T08:13:10.081Z</time></trkpt><trkpt lat="41.1074766" lon="14.3354935"><ele>319.0</ele><time>2026-04-06T08:13:13.064Z</time></trkpt><trkpt lat="41.1074652" lon="14.3354097"><ele>318.0</ele><time>2026-04-06T08:13:16.085Z</time></trkpt><trkpt lat="41.1074475" lon="14.3353219"><ele>317.0</ele><time>2026-04-06T08:13:19.072Z</time></trkpt><trkpt lat="41.1074399" lon="14.3352364"><ele>316.0</ele><time>2026-04-06T08:13:22.08Z</time></trkpt><trkpt lat="41.1074279" lon="14.3351416"><ele>314.99999999999994</ele><time>2026-04-06T08:13:25.033Z</time></trkpt><trkpt lat="41.1074105" lon="14.3350415"><ele>314.0</ele><time>2026-04-06T08:13:28.09Z</time></trkpt><trkpt lat="41.1073924" lon="14.3349395"><ele>314.83333333333337</ele><time>2026-04-06T08:13:30.986Z</time></trkpt><trkpt lat="41.1073621" lon="14.3348333"><ele>315.6666666666667</ele><time>2026-04-06T08:13:34.072Z</time></trkpt><trkpt lat="41.1073363" lon="14.3347327"><ele>316.5</ele><time>2026-04-06T08:13:37.081Z</time></trkpt><trkpt lat="41.1073212" lon="14.3346354"><ele>317.3333333333333</ele><time>2026-04-06T08:13:39.975Z</time></trkpt><trkpt lat="41.1072989" lon="14.3345507"><ele>318.16666666666663</ele><time>2026-04-06T08:13:42.091Z</time></trkpt><trkpt lat="41.1072689" lon="14.3344547"><ele>319.0</ele><time>2026-04-06T08:13:44.969Z</time></trkpt><trkpt lat="41.1072292" lon="14.3343565"><ele>319.0</ele><time>2026-04-06T08:13:48.105Z</time></trkpt><trkpt lat="41.107191" lon="14.3342686"><ele>319.0</ele><time>2026-04-06T08:13:51.088Z</time></trkpt><trkpt lat="41.1071421" lon="14.3341787"><ele>319.0</ele><time>2026-04-06T08:13:54.051Z</time></trkpt><trkpt lat="41.1070896" lon="14.3340811"><ele>319.0</ele><time>2026-04-06T08:13:57.089Z</time></trkpt><trkpt lat="41.1070367" lon="14.3339952"><ele>319.0</ele><time>2026-04-06T08:14:00.008Z</time></trkpt><trkpt lat="41.1069718" lon="14.3339066"><ele>319.0</ele><time>2026-04-06T08:14:03.131Z</time></trkpt><trkpt lat="41.1069224" lon="14.333849"><ele>317.0</ele><time>2026-04-06T08:14:05.103Z</time></trkpt><trkpt lat="41.1068697" lon="14.3338018"><ele>315.0</ele><time>2026-04-06T08:14:07.011Z</time></trkpt><trkpt lat="41.1067937" lon="14.3337523"><ele>313.0</ele><time>2026-04-06T08:14:10.095Z</time></trkpt><trkpt lat="41.1067207" lon="14.3337189"><ele>311.0</ele><time>2026-04-06T08:14:13.068Z</time></trkpt><trkpt lat="41.1066421" lon="14.3336896"><ele>309.0</ele><time>2026-04-06T08:14:16.111Z</time></trkpt><trkpt lat="41.1065658" lon="14.3336895"><ele>307.0</ele><time>2026-04-06T08:14:19.079Z</time></trkpt><trkpt lat="41.1064964" lon="14.3337162"><ele>306.85714285714283</ele><time>2026-04-06T08:14:22.088Z</time></trkpt><trkpt lat="41.1064377" lon="14.3337522"><ele>306.7142857142857</ele><time>2026-04-06T08:14:25.002Z</time></trkpt><trkpt lat="41.1063668" lon="14.3338152"><ele>306.57142857142856</ele><time>2026-04-06T08:14:29.068Z</time></trkpt><trkpt lat="41.1062995" lon="14.33388"><ele>306.42857142857144</ele><time>2026-04-06T08:14:33.087Z</time></trkpt><trkpt lat="41.1062355" lon="14.333949"><ele>306.2857142857143</ele><time>2026-04-06T08:14:37.097Z</time></trkpt><trkpt lat="41.1061862" lon="14.3340041"><ele>306.1428571428571</ele><time>2026-04-06T08:14:40.091Z</time></trkpt><trkpt lat="41.1061354" lon="14.3340665"><ele>306.0</ele><time>2026-04-06T08:14:43.027Z</time></trkpt><trkpt lat="41.1060853" lon="14.334132"><ele>306.1428571428571</ele><time>2026-04-06T08:14:46.094Z</time></trkpt><trkpt lat="41.1060368" lon="14.3341931"><ele>306.2857142857143</ele><time>2026-04-06T08:14:49.033Z</time></trkpt><trkpt lat="41.105973" lon="14.334259"><ele>306.42857142857144</ele><time>2026-04-06T08:14:53.066Z</time></trkpt><trkpt lat="41.1059021" lon="14.3343097"><ele>306.57142857142856</ele><time>2026-04-06T08:14:57.075Z</time></trkpt><trkpt lat="41.1058489" lon="14.3343579"><ele>306.7142857142857</ele><time>2026-04-06T08:15:00.069Z</time></trkpt><trkpt lat="41.1058023" lon="14.3344141"><ele>306.85714285714283</ele><time>2026-04-06T08:15:03.089Z</time></trkpt><trkpt lat="41.1057489" lon="14.3344683"><ele>307.0</ele><time>2026-04-06T08:15:06.081Z</time></trkpt><trkpt lat="41.1056826" lon="14.33454"><ele>306.99999999999994</ele><time>2026-04-06T08:15:10.028Z</time></trkpt><trkpt lat="41.1056294" lon="14.3345961"><ele>307.0</ele><time>2026-04-06T08:15:13.079Z</time></trkpt><trkpt lat="41.1055854" lon="14.3346893"><ele>307.0</ele><time>2026-04-06T08:15:17.136Z</time></trkpt><trkpt lat="41.1055411" lon="14.3347684"><ele>307.0</ele><time>2026-04-06T08:15:21.027Z</time></trkpt><trkpt lat="41.1055134" lon="14.3348457"><ele>307.0</ele><time>2026-04-06T08:15:25.072Z</time></trkpt><trkpt lat="41.1054813" lon="14.3349364"><ele>306.99999999999994</ele><time>2026-04-06T08:15:29.094Z</time></trkpt><trkpt lat="41.1054558" lon="14.3350281"><ele>307.0</ele><time>2026-04-06T08:15:33.078Z</time></trkpt><trkpt lat="41.1054256" lon="14.3351315"><ele>307.99999999999994</ele><time>2026-04-06T08:15:37.125Z</time></trkpt><trkpt lat="41.1054031" lon="14.3352125"><ele>309.0</ele><time>2026-04-06T08:15:40.068Z</time></trkpt><trkpt lat="41.1053771" lon="14.3353126"><ele>310.0</ele><time>2026-04-06T08:15:44.063Z</time></trkpt><trkpt lat="41.1053581" lon="14.3354254"><ele>311.0</ele><time>2026-04-06T08:15:48.073Z</time></trkpt><trkpt lat="41.1053519" lon="14.3355223"><ele>312.0</ele><time>2026-04-06T08:15:51.088Z</time></trkpt><trkpt lat="41.1053499" lon="14.3356124"><ele>312.99999999999994</ele><time>2026-04-06T08:15:54.072Z</time></trkpt><trkpt lat="41.105334" lon="14.3357041"><ele>314.0</ele><time>2026-04-06T08:15:57.106Z</time></trkpt><trkpt lat="41.1053232" lon="14.3357931"><ele>314.1428571428571</ele><time>2026-04-06T08:16:00.081Z</time></trkpt><trkpt lat="41.1053195" lon="14.3358865"><ele>314.2857142857143</ele><time>2026-04-06T08:16:02.992Z</time></trkpt><trkpt lat="41.105314" lon="14.3359834"><ele>314.42857142857144</ele><time>2026-04-06T08:16:06.083Z</time></trkpt><trkpt lat="41.1053005" lon="14.3361002"><ele>314.57142857142856</ele><time>2026-04-06T08:16:09.062Z</time></trkpt><trkpt lat="41.1052912" lon="14.336188"><ele>314.7142857142857</ele><time>2026-04-06T08:16:12.09Z</time></trkpt><trkpt lat="41.1052857" lon="14.3362797"><ele>314.85714285714283</ele><time>2026-04-06T08:16:15.068Z</time></trkpt><trkpt lat="41.1052862" lon="14.3363665"><ele>315.0</ele><time>2026-04-06T08:16:18.067Z</time></trkpt><trkpt lat="41.1052809" lon="14.3364646"><ele>315.14285714285717</ele><time>2026-04-06T08:16:22.09Z</time></trkpt><trkpt lat="41.1052713" lon="14.3365731"><ele>315.2857142857143</ele><time>2026-04-06T08:16:26.07Z</time></trkpt><trkpt lat="41.1052493" lon="14.3366617"><ele>315.42857142857144</ele><time>2026-04-06T08:16:29.086Z</time></trkpt><trkpt lat="41.1052313" lon="14.33675"><ele>315.57142857142856</ele><time>2026-04-06T08:16:32.047Z</time></trkpt><trkpt lat="41.1052173" lon="14.336846"><ele>315.7142857142857</ele><time>2026-04-06T08:16:35.084Z</time></trkpt><trkpt lat="41.1052057" lon="14.3369396"><ele>315.8571428571429</ele><time>2026-04-06T08:16:38.086Z</time></trkpt><trkpt lat="41.105184" lon="14.3370414"><ele>316.0</ele><time>2026-04-06T08:16:41.075Z</time></trkpt><trkpt lat="41.1051544" lon="14.3371408"><ele>317.28571428571433</ele><time>2026-04-06T08:16:44.06Z</time></trkpt><trkpt lat="41.1051354" lon="14.3372358"><ele>318.57142857142856</ele><time>2026-04-06T08:16:47.087Z</time></trkpt><trkpt lat="41.1051138" lon="14.3373248"><ele>319.8571428571429</ele><time>2026-04-06T08:16:50.091Z</time></trkpt><trkpt lat="41.1050861" lon="14.3374197"><ele>321.14285714285717</ele><time>2026-04-06T08:16:53.094Z</time></trkpt><trkpt lat="41.1050605" lon="14.3375063"><ele>322.42857142857144</ele><time>2026-04-06T08:16:56.088Z</time></trkpt><trkpt lat="41.1050406" lon="14.3376126"><ele>323.7142857142857</ele><time>2026-04-06T08:17:00.077Z</time></trkpt><trkpt lat="41.1050289" lon="14.3376986"><ele>325.0</ele><time>2026-04-06T08:17:03.029Z</time></trkpt><trkpt lat="41.1050155" lon="14.3377833"><ele>325.0</ele><time>2026-04-06T08:17:05.983Z</time></trkpt><trkpt lat="41.104999" lon="14.3378911"><ele>325.0</ele><time>2026-04-06T08:17:10.087Z</time></trkpt><trkpt lat="41.1049944" lon="14.3379975"><ele>325.0</ele><time>2026-04-06T08:17:14.094Z</time></trkpt><trkpt lat="41.1049855" lon="14.3380862"><ele>325.0</ele><time>2026-04-06T08:17:17.087Z</time></trkpt><trkpt lat="41.1049716" lon="14.3381731"><ele>325.0</ele><time>2026-04-06T08:17:20.011Z</time></trkpt><trkpt lat="41.1049616" lon="14.3382686"><ele>325.0</ele><time>2026-04-06T08:17:23.091Z</time></trkpt><trkpt lat="41.1049492" lon="14.3383557"><ele>325.0</ele><time>2026-04-06T08:17:26.069Z</time></trkpt><trkpt lat="41.1049266" lon="14.338437"><ele>323.2857142857143</ele><time>2026-04-06T08:17:29.083Z</time></trkpt><trkpt lat="41.1049078" lon="14.3385235"><ele>321.5714285714286</ele><time>2026-04-06T08:17:32.131Z</time></trkpt><trkpt lat="41.1048913" lon="14.3386088"><ele>319.8571428571429</ele><time>2026-04-06T08:17:35.032Z</time></trkpt><trkpt lat="41.1048682" lon="14.3386984"><ele>318.1428571428571</ele><time>2026-04-06T08:17:38.079Z</time></trkpt><trkpt lat="41.1048548" lon="14.338793"><ele>316.42857142857144</ele><time>2026-04-06T08:17:41.07Z</time></trkpt><trkpt lat="41.1048445" lon="14.3388833"><ele>314.7142857142857</ele><time>2026-04-06T08:17:44.004Z</time></trkpt><trkpt lat="41.1048293" lon="14.3389721"><ele>313.0</ele><time>2026-04-06T08:17:47.09Z</time></trkpt><trkpt lat="41.104806" lon="14.3390528"><ele>313.0</ele><time>2026-04-06T08:17:50.066Z</time></trkpt><trkpt lat="41.1047957" lon="14.3391446"><ele>313.0</ele><time>2026-04-06T08:17:53.062Z</time></trkpt><trkpt lat="41.1047864" lon="14.3392423"><ele>313.0</ele><time>2026-04-06T08:17:56.077Z</time></trkpt><trkpt lat="41.1047749" lon="14.3393396"><ele>313.0</ele><time>2026-04-06T08:17:59.084Z</time></trkpt><trkpt lat="41.1047768" lon="14.3394319"><ele>313.0</ele><time>2026-04-06T08:18:02.095Z</time></trkpt><trkpt lat="41.1047758" lon="14.339526"><ele>313.0</ele><time>2026-04-06T08:18:05.051Z</time></trkpt><trkpt lat="41.1047694" lon="14.3396311"><ele>313.0</ele><time>2026-04-06T08:18:08.062Z</time></trkpt><trkpt lat="41.1047673" lon="14.3397374"><ele>313.42857142857144</ele><time>2026-04-06T08:18:11.092Z</time></trkpt><trkpt lat="41.1047656" lon="14.3398299"><ele>313.8571428571429</ele><time>2026-04-06T08:18:14.082Z</time></trkpt><trkpt lat="41.1047632" lon="14.339918"><ele>314.28571428571433</ele><time>2026-04-06T08:18:17.105Z</time></trkpt><trkpt lat="41.1047597" lon="14.3400105"><ele>314.7142857142857</ele><time>2026-04-06T08:18:20.078Z</time></trkpt><trkpt lat="41.1047644" lon="14.3401012"><ele>315.14285714285717</ele><time>2026-04-06T08:18:23.067Z</time></trkpt><trkpt lat="41.1047729" lon="14.3401865"><ele>315.5714285714286</ele><time>2026-04-06T08:18:25.971Z</time></trkpt><trkpt lat="41.1047861" lon="14.3402958"><ele>316.0</ele><time>2026-04-06T08:18:29.107Z</time></trkpt><trkpt lat="41.1047998" lon="14.3403939"><ele>316.0</ele><time>2026-04-06T08:18:31.983Z</time></trkpt><trkpt lat="41.1048229" lon="14.3404959"><ele>316.0</ele><time>2026-04-06T08:18:35.076Z</time></trkpt><trkpt lat="41.1048596" lon="14.3405993"><ele>316.0</ele><time>2026-04-06T08:18:38.059Z</time></trkpt><trkpt lat="41.1048906" lon="14.3406862"><ele>316.0</ele><time>2026-04-06T08:18:40.79Z</time></trkpt><trkpt lat="41.1049255" lon="14.3407835"><ele>316.0</ele><time>2026-04-06T08:18:43.992Z</time></trkpt><trkpt lat="41.1049534" lon="14.340882"><ele>316.0</ele><time>2026-04-06T08:18:47.054Z</time></trkpt><trkpt lat="41.1049815" lon="14.3409751"><ele>318.5714285714286</ele><time>2026-04-06T08:18:50.032Z</time></trkpt><trkpt lat="41.1049965" lon="14.3410728"><ele>321.14285714285717</ele><time>2026-04-06T08:18:53.063Z</time></trkpt><trkpt lat="41.1050029" lon="14.3411709"><ele>323.7142857142857</ele><time>2026-04-06T08:18:56.066Z</time></trkpt><trkpt lat="41.1050026" lon="14.3412654"><ele>326.28571428571433</ele><time>2026-04-06T08:18:59.059Z</time></trkpt><trkpt lat="41.1049978" lon="14.3413787"><ele>328.8571428571429</ele><time>2026-04-06T08:19:03.091Z</time></trkpt><trkpt lat="41.1049978" lon="14.3414709"><ele>331.42857142857144</ele><time>2026-04-06T08:19:06.072Z</time></trkpt><trkpt lat="41.1049975" lon="14.3415554"><ele>334.0</ele><time>2026-04-06T08:19:09.069Z</time></trkpt><trkpt lat="41.1049859" lon="14.3416647"><ele>334.0</ele><time>2026-04-06T08:19:13.05Z</time></trkpt><trkpt lat="41.1049739" lon="14.3417544"><ele>334.0</ele><time>2026-04-06T08:19:16.054Z</time></trkpt><trkpt lat="41.1049686" lon="14.3418581"><ele>334.0</ele><time>2026-04-06T08:19:18.888Z</time></trkpt><trkpt lat="41.1049615" lon="14.3419476"><ele>334.0</ele><time>2026-04-06T08:19:21.066Z</time></trkpt><trkpt lat="41.1049525" lon="14.3420512"><ele>334.0</ele><time>2026-04-06T08:19:24.064Z</time></trkpt><trkpt lat="41.1049337" lon="14.3421437"><ele>334.0</ele><time>2026-04-06T08:19:27.063Z</time></trkpt><trkpt lat="41.1049177" lon="14.3422339"><ele>334.0</ele><time>2026-04-06T08:19:29.988Z</time></trkpt><trkpt lat="41.1048979" lon="14.34232"><ele>330.7142857142857</ele><time>2026-04-06T08:19:33.095Z</time></trkpt><trkpt lat="41.1048734" lon="14.3424006"><ele>327.42857142857144</ele><time>2026-04-06T08:19:36.059Z</time></trkpt><trkpt lat="41.1048394" lon="14.3424782"><ele>324.1428571428571</ele><time>2026-04-06T08:19:39.066Z</time></trkpt><trkpt lat="41.1047959" lon="14.3425525"><ele>320.8571428571429</ele><time>2026-04-06T08:19:41.983Z</time></trkpt><trkpt lat="41.1047677" lon="14.3426415"><ele>317.5714285714286</ele><time>2026-04-06T08:19:45.057Z</time></trkpt><trkpt lat="41.1047401" lon="14.3427307"><ele>314.2857142857143</ele><time>2026-04-06T08:19:48.051Z</time></trkpt><trkpt lat="41.1047226" lon="14.3428298"><ele>311.0</ele><time>2026-04-06T08:19:51.059Z</time></trkpt><trkpt lat="41.1047006" lon="14.3429227"><ele>311.0</ele><time>2026-04-06T08:19:54.063Z</time></trkpt><trkpt lat="41.1046735" lon="14.3430135"><ele>311.0</ele><time>2026-04-06T08:19:57.067Z</time></trkpt><trkpt lat="41.1046443" lon="14.3431041"><ele>311.0</ele><time>2026-04-06T08:20:00.053Z</time></trkpt><trkpt lat="41.1046189" lon="14.3431926"><ele>311.0</ele><time>2026-04-06T08:20:03.08Z</time></trkpt><trkpt lat="41.1045824" lon="14.3432818"><ele>311.0</ele><time>2026-04-06T08:20:06.05Z</time></trkpt><trkpt lat="41.1045342" lon="14.3433586"><ele>311.0</ele><time>2026-04-06T08:20:09.067Z</time></trkpt><trkpt lat="41.1044688" lon="14.34343"><ele>311.2857142857143</ele><time>2026-04-06T08:20:13.082Z</time></trkpt><trkpt lat="41.1044046" lon="14.3434648"><ele>311.5714285714286</ele><time>2026-04-06T08:20:15.973Z</time></trkpt><trkpt lat="41.1043219" lon="14.3434723"><ele>311.8571428571429</ele><time>2026-04-06T08:20:19.058Z</time></trkpt><trkpt lat="41.1042542" lon="14.3434795"><ele>312.1428571428571</ele><time>2026-04-06T08:20:22.086Z</time></trkpt><trkpt lat="41.1041807" lon="14.3434787"><ele>312.42857142857144</ele><time>2026-04-06T08:20:25.084Z</time></trkpt><trkpt lat="41.1041102" lon="14.3435055"><ele>312.7142857142857</ele><time>2026-04-06T08:20:27.983Z</time></trkpt><trkpt lat="41.104041" lon="14.3435173"><ele>313.0</ele><time>2026-04-06T08:20:31.054Z</time></trkpt><trkpt lat="41.1039736" lon="14.3435271"><ele>313.0</ele><time>2026-04-06T08:20:34.073Z</time></trkpt><trkpt lat="41.1039027" lon="14.343532"><ele>313.0</ele><time>2026-04-06T08:20:37.06Z</time></trkpt><trkpt lat="41.1038364" lon="14.3435332"><ele>313.0</ele><time>2026-04-06T08:20:40.08Z</time></trkpt><trkpt lat="41.1037686" lon="14.3435626"><ele>313.0</ele><time>2026-04-06T08:20:43.082Z</time></trkpt><trkpt lat="41.1037003" lon="14.3435851"><ele>313.0</ele><time>2026-04-06T08:20:46.062Z</time></trkpt><trkpt lat="41.1036378" lon="14.3436291"><ele>313.0</ele><time>2026-04-06T08:20:49.078Z</time></trkpt><trkpt lat="41.1035782" lon="14.3436822"><ele>313.0</ele><time>2026-04-06T08:20:52.071Z</time></trkpt><trkpt lat="41.1035245" lon="14.3437426"><ele>313.0</ele><time>2026-04-06T08:20:55.026Z</time></trkpt><trkpt lat="41.1034782" lon="14.343803"><ele>313.0</ele><time>2026-04-06T08:20:58.131Z</time></trkpt><trkpt lat="41.1034314" lon="14.3438728"><ele>313.0</ele><time>2026-04-06T08:21:00.991Z</time></trkpt><trkpt lat="41.1033765" lon="14.3439586"><ele>313.0</ele><time>2026-04-06T08:21:04.089Z</time></trkpt><trkpt lat="41.1033286" lon="14.3440392"><ele>313.0</ele><time>2026-04-06T08:21:07.025Z</time></trkpt><trkpt lat="41.1032815" lon="14.3441379"><ele>313.0</ele><time>2026-04-06T08:21:10.082Z</time></trkpt><trkpt lat="41.1032393" lon="14.3442286"><ele>314.16666666666663</ele><time>2026-04-06T08:21:13.066Z</time></trkpt><trkpt lat="41.1032051" lon="14.3443328"><ele>315.3333333333333</ele><time>2026-04-06T08:21:16.111Z</time></trkpt><trkpt lat="41.103175" lon="14.3444375"><ele>316.5</ele><time>2026-04-06T08:21:19.033Z</time></trkpt><trkpt lat="41.103144" lon="14.3445354"><ele>317.6666666666667</ele><time>2026-04-06T08:21:22.082Z</time></trkpt><trkpt lat="41.1031131" lon="14.3446342"><ele>318.83333333333337</ele><time>2026-04-06T08:21:25.057Z</time></trkpt><trkpt lat="41.1030876" lon="14.3447281"><ele>320.0</ele><time>2026-04-06T08:21:28.076Z</time></trkpt><trkpt lat="41.1030615" lon="14.3448143"><ele>320.0</ele><time>2026-04-06T08:21:31.086Z</time></trkpt><trkpt lat="41.1030336" lon="14.3448956"><ele>320.0</ele><time>2026-04-06T08:21:33.99Z</time></trkpt><trkpt lat="41.1030078" lon="14.3449775"><ele>320.0</ele><time>2026-04-06T08:21:37.086Z</time></trkpt><trkpt lat="41.1029789" lon="14.3450564"><ele>320.0</ele><time>2026-04-06T08:21:40.01Z</time></trkpt><trkpt lat="41.1029406" lon="14.3451448"><ele>320.0</ele><time>2026-04-06T08:21:43.054Z</time></trkpt><trkpt lat="41.1029062" lon="14.3452305"><ele>320.0</ele><time>2026-04-06T08:21:46.061Z</time></trkpt><trkpt lat="41.1028673" lon="14.3453068"><ele>320.0</ele><time>2026-04-06T08:21:49.06Z</time></trkpt><trkpt lat="41.1028265" lon="14.3453725"><ele>320.0</ele><time>2026-04-06T08:21:52.062Z</time></trkpt><trkpt lat="41.1027981" lon="14.3454577"><ele>320.0</ele><time>2026-04-06T08:21:54.989Z</time></trkpt><trkpt lat="41.1027578" lon="14.3455502"><ele>320.0</ele><time>2026-04-06T08:21:58.063Z</time></trkpt><trkpt lat="41.1027244" lon="14.3456333"><ele>320.0</ele><time>2026-04-06T08:22:00.991Z</time></trkpt><trkpt lat="41.1026878" lon="14.3457287"><ele>320.0</ele><time>2026-04-06T08:22:04.061Z</time></trkpt><trkpt lat="41.1026601" lon="14.3458229"><ele>320.0</ele><time>2026-04-06T08:22:07.003Z</time></trkpt><trkpt lat="41.1026334" lon="14.3459272"><ele>321.2857142857143</ele><time>2026-04-06T08:22:10.046Z</time></trkpt><trkpt lat="41.1026013" lon="14.3460099"><ele>322.57142857142856</ele><time>2026-04-06T08:22:12.987Z</time></trkpt><trkpt lat="41.1025703" lon="14.3460971"><ele>323.8571428571429</ele><time>2026-04-06T08:22:17.067Z</time></trkpt><trkpt lat="41.1025399" lon="14.3461743"><ele>325.1428571428571</ele><time>2026-04-06T08:22:20.068Z</time></trkpt><trkpt lat="41.1025173" lon="14.3462767"><ele>326.42857142857144</ele><time>2026-04-06T08:22:24.01Z</time></trkpt><trkpt lat="41.1025034" lon="14.3463721"><ele>327.7142857142857</ele><time>2026-04-06T08:22:27.059Z</time></trkpt><trkpt lat="41.10248" lon="14.3464786"><ele>329.0</ele><time>2026-04-06T08:22:30.065Z</time></trkpt><trkpt lat="41.1024523" lon="14.3465771"><ele>330.0</ele><time>2026-04-06T08:22:33.071Z</time></trkpt><trkpt lat="41.1024231" lon="14.3466761"><ele>331.0</ele><time>2026-04-06T08:22:36.06Z</time></trkpt><trkpt lat="41.1023958" lon="14.3467731"><ele>332.0</ele><time>2026-04-06T08:22:39.006Z</time></trkpt><trkpt lat="41.1023726" lon="14.346887"><ele>333.0</ele><time>2026-04-06T08:22:42.07Z</time></trkpt><trkpt lat="41.1023488" lon="14.3469873"><ele>334.0</ele><time>2026-04-06T08:22:45.004Z</time></trkpt><trkpt lat="41.1023218" lon="14.3470887"><ele>335.0</ele><time>2026-04-06T08:22:48.058Z</time></trkpt><trkpt lat="41.1022976" lon="14.3471832"><ele>331.6666666666667</ele><time>2026-04-06T08:22:51.045Z</time></trkpt><trkpt lat="41.102258" lon="14.3472818"><ele>328.33333333333337</ele><time>2026-04-06T08:22:54.964Z</time></trkpt><trkpt lat="41.1022133" lon="14.3473898"><ele>325.0</ele><time>2026-04-06T08:22:58.049Z</time></trkpt><trkpt lat="41.1021796" lon="14.3474709"><ele>321.6666666666667</ele><time>2026-04-06T08:23:00.057Z</time></trkpt><trkpt lat="41.1021378" lon="14.3475509"><ele>318.3333333333333</ele><time>2026-04-06T08:23:02.058Z</time></trkpt><trkpt lat="41.102092" lon="14.3476282"><ele>315.0</ele><time>2026-04-06T08:23:04.072Z</time></trkpt><trkpt lat="41.1020467" lon="14.3476944"><ele>315.0</ele><time>2026-04-06T08:23:06.048Z</time></trkpt><trkpt lat="41.1019932" lon="14.3477804"><ele>315.0</ele><time>2026-04-06T08:23:09.051Z</time></trkpt><trkpt lat="41.101945" lon="14.3478713"><ele>315.0</ele><time>2026-04-06T08:23:12.063Z</time></trkpt><trkpt lat="41.1019014" lon="14.347949"><ele>315.0</ele><time>2026-04-06T08:23:15.064Z</time></trkpt><trkpt lat="41.1018598" lon="14.3480188"><ele>315.0</ele><time>2026-04-06T08:23:18.058Z</time></trkpt><trkpt lat="41.1018222" lon="14.3480918"><ele>315.0</ele><time>2026-04-06T08:23:21.055Z</time></trkpt><trkpt lat="41.1017791" lon="14.3481722"><ele>315.0</ele><time>2026-04-06T08:23:24.057Z</time></trkpt><trkpt lat="41.1017335" lon="14.3482397"><ele>313.2857142857143</ele><time>2026-04-06T08:23:27.054Z</time></trkpt><trkpt lat="41.1016936" lon="14.3483084"><ele>311.57142857142856</ele><time>2026-04-06T08:23:30.059Z</time></trkpt><trkpt lat="41.1016485" lon="14.3483844"><ele>309.8571428571429</ele><time>2026-04-06T08:23:33.062Z</time></trkpt><trkpt lat="41.1016057" lon="14.3484625"><ele>308.1428571428571</ele><time>2026-04-06T08:23:36.06Z</time></trkpt><trkpt lat="41.1015745" lon="14.3485469"><ele>306.42857142857144</ele><time>2026-04-06T08:23:39.042Z</time></trkpt><trkpt lat="41.1015488" lon="14.3486418"><ele>304.7142857142857</ele><time>2026-04-06T08:23:42.06Z</time></trkpt><trkpt lat="41.1015225" lon="14.3487358"><ele>303.0</ele><time>2026-04-06T08:23:45.029Z</time></trkpt><trkpt lat="41.1015108" lon="14.3488326"><ele>304.3333333333333</ele><time>2026-04-06T08:23:48.062Z</time></trkpt><trkpt lat="41.1015064" lon="14.34893"><ele>305.6666666666667</ele><time>2026-04-06T08:23:51.025Z</time></trkpt><trkpt lat="41.1015038" lon="14.3490428"><ele>307.0</ele><time>2026-04-06T08:23:54.058Z</time></trkpt><trkpt lat="41.1015114" lon="14.3491391"><ele>308.33333333333337</ele><time>2026-04-06T08:23:58.048Z</time></trkpt><trkpt lat="41.1015151" lon="14.3492357"><ele>309.6666666666667</ele><time>2026-04-06T08:24:01.987Z</time></trkpt><trkpt lat="41.1014847" lon="14.3493229"><ele>311.0</ele><time>2026-04-06T08:24:05.058Z</time></trkpt><trkpt lat="41.101459" lon="14.3494211"><ele>311.0</ele><time>2026-04-06T08:24:07.991Z</time></trkpt><trkpt lat="41.101445" lon="14.3495342"><ele>311.0</ele><time>2026-04-06T08:24:11.098Z</time></trkpt><trkpt lat="41.101447" lon="14.349634"><ele>311.0</ele><time>2026-04-06T08:24:14.064Z</time></trkpt><trkpt lat="41.1014606" lon="14.3497341"><ele>311.0</ele><time>2026-04-06T08:24:17.064Z</time></trkpt><trkpt lat="41.1014804" lon="14.3498316"><ele>311.0</ele><time>2026-04-06T08:24:19.967Z</time></trkpt><trkpt lat="41.1014841" lon="14.3499273"><ele>311.0</ele><time>2026-04-06T08:24:23.064Z</time></trkpt><trkpt lat="41.1014852" lon="14.3500392"><ele>311.7142857142857</ele><time>2026-04-06T08:24:27.062Z</time></trkpt><trkpt lat="41.1014865" lon="14.3501232"><ele>312.42857142857144</ele><time>2026-04-06T08:24:30.058Z</time></trkpt><trkpt lat="41.1014875" lon="14.3502202"><ele>313.14285714285717</ele><time>2026-04-06T08:24:33.059Z</time></trkpt><trkpt lat="41.1014838" lon="14.3503109"><ele>313.8571428571429</ele><time>2026-04-06T08:24:36.064Z</time></trkpt><trkpt lat="41.1014847" lon="14.3504181"><ele>314.57142857142856</ele><time>2026-04-06T08:24:40.063Z</time></trkpt><trkpt lat="41.1014884" lon="14.3505224"><ele>315.28571428571433</ele><time>2026-04-06T08:24:44.058Z</time></trkpt><trkpt lat="41.1014835" lon="14.3506137"><ele>316.0</ele><time>2026-04-06T08:24:47.07Z</time></trkpt><trkpt lat="41.101481" lon="14.3507025"><ele>316.42857142857144</ele><time>2026-04-06T08:24:50.062Z</time></trkpt><trkpt lat="41.1014876" lon="14.350793"><ele>316.8571428571429</ele><time>2026-04-06T08:24:53.08Z</time></trkpt><trkpt lat="41.1014964" lon="14.3508934"><ele>317.28571428571433</ele><time>2026-04-06T08:24:56.132Z</time></trkpt><trkpt lat="41.1015109" lon="14.3509849"><ele>317.7142857142857</ele><time>2026-04-06T08:24:58.985Z</time></trkpt><trkpt lat="41.1015275" lon="14.3510916"><ele>318.1428571428571</ele><time>2026-04-06T08:25:02.058Z</time></trkpt><trkpt lat="41.1015449" lon="14.3511899"><ele>318.5714285714286</ele><time>2026-04-06T08:25:04.962Z</time></trkpt><trkpt lat="41.1015663" lon="14.3512843"><ele>319.0</ele><time>2026-04-06T08:25:08.053Z</time></trkpt><trkpt lat="41.101589" lon="14.3513677"><ele>321.5714285714286</ele><time>2026-04-06T08:25:10.99Z</time></trkpt><trkpt lat="41.1016114" lon="14.3514499"><ele>324.1428571428571</ele><time>2026-04-06T08:25:14.051Z</time></trkpt><trkpt lat="41.1016336" lon="14.351536"><ele>326.7142857142857</ele><time>2026-04-06T08:25:17.054Z</time></trkpt><trkpt lat="41.1016518" lon="14.3516399"><ele>329.28571428571433</ele><time>2026-04-06T08:25:21.059Z</time></trkpt><trkpt lat="41.1016656" lon="14.3517232"><ele>331.8571428571429</ele><time>2026-04-06T08:25:24.03Z</time></trkpt><trkpt lat="41.1016837" lon="14.3518123"><ele>334.42857142857144</ele><time>2026-04-06T08:25:27.087Z</time></trkpt><trkpt lat="41.1017098" lon="14.3518958"><ele>337.0</ele><time>2026-04-06T08:25:30.026Z</time></trkpt><trkpt lat="41.1017445" lon="14.3519821"><ele>337.0</ele><time>2026-04-06T08:25:33.057Z</time></trkpt><trkpt lat="41.1017802" lon="14.3520785"><ele>337.0</ele><time>2026-04-06T08:25:36.029Z</time></trkpt><trkpt lat="41.1018085" lon="14.3521847"><ele>337.0</ele><time>2026-04-06T08:25:40.053Z</time></trkpt><trkpt lat="41.1018314" lon="14.3522749"><ele>337.0</ele><time>2026-04-06T08:25:43.059Z</time></trkpt><trkpt lat="41.1018494" lon="14.3523778"><ele>337.0</ele><time>2026-04-06T08:25:46.063Z</time></trkpt><trkpt lat="41.1018717" lon="14.3524675"><ele>337.0</ele><time>2026-04-06T08:25:49.062Z</time></trkpt><trkpt lat="41.1018982" lon="14.352566"><ele>336.0</ele><time>2026-04-06T08:25:52.069Z</time></trkpt><trkpt lat="41.101931" lon="14.3526789"><ele>335.0</ele><time>2026-04-06T08:25:55.047Z</time></trkpt><trkpt lat="41.1019438" lon="14.3527789"><ele>334.0</ele><time>2026-04-06T08:25:58.066Z</time></trkpt><trkpt lat="41.1019596" lon="14.3528622"><ele>333.0</ele><time>2026-04-06T08:26:01.055Z</time></trkpt><trkpt lat="41.1019551" lon="14.3529729"><ele>332.0</ele><time>2026-04-06T08:26:04.046Z</time></trkpt><trkpt lat="41.1019528" lon="14.3530703"><ele>331.0</ele><time>2026-04-06T08:26:07.058Z</time></trkpt><trkpt lat="41.1019487" lon="14.3531732"><ele>330.66666666666663</ele><time>2026-04-06T08:26:10.075Z</time></trkpt><trkpt lat="41.1019563" lon="14.3532732"><ele>330.3333333333333</ele><time>2026-04-06T08:26:13.056Z</time></trkpt><trkpt lat="41.1019642" lon="14.3533885"><ele>330.0</ele><time>2026-04-06T08:26:16.053Z</time></trkpt><trkpt lat="41.1019782" lon="14.353487"><ele>329.6666666666667</ele><time>2026-04-06T08:26:19.06Z</time></trkpt><trkpt lat="41.1019862" lon="14.3536068"><ele>329.33333333333337</ele><time>2026-04-06T08:26:22.025Z</time></trkpt><trkpt lat="41.1019729" lon="14.3537124"><ele>329.0</ele><time>2026-04-06T08:26:30.066Z</time></trkpt><trkpt lat="41.1019789" lon="14.3537977"><ele>328.7142857142857</ele><time>2026-04-06T08:26:32.06Z</time></trkpt><trkpt lat="41.102" lon="14.3538859"><ele>328.42857142857144</ele><time>2026-04-06T08:26:34.055Z</time></trkpt><trkpt lat="41.1020113" lon="14.3539977"><ele>328.1428571428571</ele><time>2026-04-06T08:26:36.966Z</time></trkpt><trkpt lat="41.1020056" lon="14.3540917"><ele>327.8571428571429</ele><time>2026-04-06T08:26:40.053Z</time></trkpt><trkpt lat="41.1020057" lon="14.3541901"><ele>327.57142857142856</ele><time>2026-04-06T08:26:44.057Z</time></trkpt><trkpt lat="41.1020186" lon="14.3542765"><ele>327.2857142857143</ele><time>2026-04-06T08:26:47.005Z</time></trkpt><trkpt lat="41.1020206" lon="14.354367"><ele>327.0</ele><time>2026-04-06T08:26:50.05Z</time></trkpt><trkpt lat="41.1020132" lon="14.3544537"><ele>327.0</ele><time>2026-04-06T08:26:54.059Z</time></trkpt><trkpt lat="41.1020149" lon="14.3545726"><ele>327.0</ele><time>2026-04-06T08:26:58.006Z</time></trkpt><trkpt lat="41.1020291" lon="14.3546961"><ele>327.0</ele><time>2026-04-06T08:27:01.056Z</time></trkpt><trkpt lat="41.1020454" lon="14.3548123"><ele>327.0</ele><time>2026-04-06T08:27:04.052Z</time></trkpt><trkpt lat="41.1020657" lon="14.3549255"><ele>327.0</ele><time>2026-04-06T08:27:06.945Z</time></trkpt><trkpt lat="41.1020833" lon="14.3550327"><ele>327.0</ele><time>2026-04-06T08:27:10.055Z</time></trkpt><trkpt lat="41.102097" lon="14.3551204"><ele>327.1666666666667</ele><time>2026-04-06T08:27:15.051Z</time></trkpt><trkpt lat="41.1020726" lon="14.3552262"><ele>327.3333333333333</ele><time>2026-04-06T08:27:19.041Z</time></trkpt><trkpt lat="41.1020365" lon="14.355305"><ele>327.5</ele><time>2026-04-06T08:27:21.057Z</time></trkpt><trkpt lat="41.101988" lon="14.3553977"><ele>327.66666666666663</ele><time>2026-04-06T08:27:23.984Z</time></trkpt><trkpt lat="41.1019479" lon="14.3554873"><ele>327.8333333333333</ele><time>2026-04-06T08:27:27.06Z</time></trkpt><trkpt lat="41.1019079" lon="14.3555744"><ele>328.0</ele><time>2026-04-06T08:27:30.056Z</time></trkpt><trkpt lat="41.1018674" lon="14.3556635"><ele>329.8333333333333</ele><time>2026-04-06T08:27:33.047Z</time></trkpt><trkpt lat="41.1018181" lon="14.3557449"><ele>331.66666666666663</ele><time>2026-04-06T08:27:36.056Z</time></trkpt><trkpt lat="41.1017657" lon="14.3558257"><ele>333.5</ele><time>2026-04-06T08:27:39.04Z</time></trkpt><trkpt lat="41.1016972" lon="14.3559043"><ele>335.3333333333333</ele><time>2026-04-06T08:27:42.044Z</time></trkpt><trkpt lat="41.101639" lon="14.3559738"><ele>337.1666666666667</ele><time>2026-04-06T08:27:45.023Z</time></trkpt><trkpt lat="41.1015845" lon="14.3560395"><ele>339.0</ele><time>2026-04-06T08:27:48.058Z</time></trkpt><trkpt lat="41.1015365" lon="14.3561052"><ele>336.4285714285714</ele><time>2026-04-06T08:27:51.062Z</time></trkpt><trkpt lat="41.1014893" lon="14.3561739"><ele>333.8571428571429</ele><time>2026-04-06T08:27:54.057Z</time></trkpt><trkpt lat="41.1014394" lon="14.3562549"><ele>331.2857142857143</ele><time>2026-04-06T08:27:57.053Z</time></trkpt><trkpt lat="41.101397" lon="14.3563479"><ele>328.71428571428567</ele><time>2026-04-06T08:28:00.049Z</time></trkpt><trkpt lat="41.1013619" lon="14.3564397"><ele>326.1428571428571</ele><time>2026-04-06T08:28:03.062Z</time></trkpt><trkpt lat="41.1013272" lon="14.3565176"><ele>323.57142857142856</ele><time>2026-04-06T08:28:06.001Z</time></trkpt><trkpt lat="41.1013002" lon="14.3566015"><ele>321.0</ele><time>2026-04-06T08:28:09.052Z</time></trkpt><trkpt lat="41.1012726" lon="14.3567053"><ele>320.99999999999994</ele><time>2026-04-06T08:28:13.093Z</time></trkpt><trkpt lat="41.1012467" lon="14.3567832"><ele>321.0</ele><time>2026-04-06T08:28:16.03Z</time></trkpt><trkpt lat="41.1012165" lon="14.3568809"><ele>321.0</ele><time>2026-04-06T08:28:19.049Z</time></trkpt><trkpt lat="41.101192" lon="14.3569757"><ele>321.0</ele><time>2026-04-06T08:28:22.044Z</time></trkpt><trkpt lat="41.1011717" lon="14.3570696"><ele>321.0</ele><time>2026-04-06T08:28:25.072Z</time></trkpt><trkpt lat="41.1011498" lon="14.3571624"><ele>320.99999999999994</ele><time>2026-04-06T08:28:28.065Z</time></trkpt><trkpt lat="41.1011369" lon="14.3572629"><ele>321.0</ele><time>2026-04-06T08:28:31.071Z</time></trkpt><trkpt lat="41.1011294" lon="14.3573963"><ele>321.99999999999994</ele><time>2026-04-06T08:28:35.064Z</time></trkpt><trkpt lat="41.1011088" lon="14.3575016"><ele>323.0</ele><time>2026-04-06T08:28:38.109Z</time></trkpt><trkpt lat="41.1010808" lon="14.3575907"><ele>324.0</ele><time>2026-04-06T08:28:41.084Z</time></trkpt><trkpt lat="41.1010553" lon="14.3576823"><ele>325.0</ele><time>2026-04-06T08:28:44.065Z</time></trkpt><trkpt lat="41.1010395" lon="14.3577855"><ele>326.0</ele><time>2026-04-06T08:28:47.115Z</time></trkpt><trkpt lat="41.1010232" lon="14.3578749"><ele>326.99999999999994</ele><time>2026-04-06T08:28:50.01Z</time></trkpt><trkpt lat="41.1010074" lon="14.357961"><ele>328.0</ele><time>2026-04-06T08:28:53.087Z</time></trkpt><trkpt lat="41.1010035" lon="14.3580496"><ele>329.3333333333333</ele><time>2026-04-06T08:28:56.052Z</time></trkpt><trkpt lat="41.1009927" lon="14.3581407"><ele>330.66666666666663</ele><time>2026-04-06T08:28:59.083Z</time></trkpt><trkpt lat="41.1009742" lon="14.3582415"><ele>332.0</ele><time>2026-04-06T08:29:02.086Z</time></trkpt><trkpt lat="41.1009535" lon="14.3583358"><ele>333.3333333333333</ele><time>2026-04-06T08:29:05.085Z</time></trkpt><trkpt lat="41.100934" lon="14.358433"><ele>334.6666666666667</ele><time>2026-04-06T08:29:08.086Z</time></trkpt><trkpt lat="41.1009085" lon="14.3585379"><ele>336.0</ele><time>2026-04-06T08:29:11.081Z</time></trkpt><trkpt lat="41.1008849" lon="14.3586303"><ele>336.0</ele><time>2026-04-06T08:29:14.077Z</time></trkpt><trkpt lat="41.1008623" lon="14.3587274"><ele>336.0</ele><time>2026-04-06T08:29:17.077Z</time></trkpt><trkpt lat="41.1008363" lon="14.3588341"><ele>336.0</ele><time>2026-04-06T08:29:21.064Z</time></trkpt><trkpt lat="41.1008179" lon="14.3589215"><ele>336.0</ele><time>2026-04-06T08:29:24.082Z</time></trkpt><trkpt lat="41.1008008" lon="14.3590025"><ele>336.0</ele><time>2026-04-06T08:29:27.077Z</time></trkpt><trkpt lat="41.1007905" lon="14.3591018"><ele>336.0</ele><time>2026-04-06T08:29:31.097Z</time></trkpt><trkpt lat="41.1007934" lon="14.3591884"><ele>336.0</ele><time>2026-04-06T08:29:35.069Z</time></trkpt><trkpt lat="41.1007837" lon="14.3592718"><ele>338.1666666666667</ele><time>2026-04-06T08:29:38.106Z</time></trkpt><trkpt lat="41.10077" lon="14.35938"><ele>340.3333333333333</ele><time>2026-04-06T08:29:42.078Z</time></trkpt><trkpt lat="41.1007661" lon="14.3594942"><ele>342.5</ele><time>2026-04-06T08:29:46.082Z</time></trkpt><trkpt lat="41.1007577" lon="14.3595878"><ele>344.66666666666663</ele><time>2026-04-06T08:29:49.059Z</time></trkpt><trkpt lat="41.1007572" lon="14.3596934"><ele>346.8333333333333</ele><time>2026-04-06T08:29:53.095Z</time></trkpt><trkpt lat="41.100751" lon="14.3597793"><ele>349.0</ele><time>2026-04-06T08:29:56.084Z</time></trkpt><trkpt lat="41.1007381" lon="14.3598766"><ele>350.2857142857143</ele><time>2026-04-06T08:29:59.074Z</time></trkpt><trkpt lat="41.1007394" lon="14.3599634"><ele>351.57142857142856</ele><time>2026-04-06T08:30:02.077Z</time></trkpt><trkpt lat="41.1007425" lon="14.3600474"><ele>352.8571428571429</ele><time>2026-04-06T08:30:05.085Z</time></trkpt><trkpt lat="41.1007479" lon="14.3601507"><ele>354.1428571428571</ele><time>2026-04-06T08:30:09.102Z</time></trkpt><trkpt lat="41.100747" lon="14.3602575"><ele>355.42857142857144</ele><time>2026-04-06T08:30:14.105Z</time></trkpt><trkpt lat="41.1007546" lon="14.3603422"><ele>356.7142857142857</ele><time>2026-04-06T08:30:18.007Z</time></trkpt><trkpt lat="41.1007897" lon="14.3604304"><ele>358.0</ele><time>2026-04-06T08:30:22.082Z</time></trkpt><trkpt lat="41.100821" lon="14.3605221"><ele>358.28571428571433</ele><time>2026-04-06T08:30:26.068Z</time></trkpt><trkpt lat="41.1008478" lon="14.360609"><ele>358.57142857142856</ele><time>2026-04-06T08:30:30.08Z</time></trkpt><trkpt lat="41.1008834" lon="14.3606982"><ele>358.8571428571429</ele><time>2026-04-06T08:30:34.098Z</time></trkpt><trkpt lat="41.1008975" lon="14.3607929"><ele>359.14285714285717</ele><time>2026-04-06T08:30:38.076Z</time></trkpt><trkpt lat="41.1008861" lon="14.3608936"><ele>359.42857142857144</ele><time>2026-04-06T08:30:42.094Z</time></trkpt><trkpt lat="41.1008513" lon="14.3609872"><ele>359.7142857142857</ele><time>2026-04-06T08:30:46.086Z</time></trkpt><trkpt lat="41.1008108" lon="14.3610524"><ele>360.0</ele><time>2026-04-06T08:30:49.024Z</time></trkpt><trkpt lat="41.1007679" lon="14.3611424"><ele>354.0</ele><time>2026-04-06T08:30:53.006Z</time></trkpt><trkpt lat="41.1007277" lon="14.3612386"><ele>348.0</ele><time>2026-04-06T08:30:57.088Z</time></trkpt><trkpt lat="41.1007064" lon="14.3613181"><ele>342.0</ele><time>2026-04-06T08:31:00.079Z</time></trkpt><trkpt lat="41.1006841" lon="14.3613985"><ele>336.0</ele><time>2026-04-06T08:31:03.076Z</time></trkpt><trkpt lat="41.1006777" lon="14.3615086"><ele>330.0</ele><time>2026-04-06T08:31:07.079Z</time></trkpt><trkpt lat="41.1006805" lon="14.3616012"><ele>324.0</ele><time>2026-04-06T08:31:11.095Z</time></trkpt><trkpt lat="41.1006777" lon="14.3616958"><ele>318.0</ele><time>2026-04-06T08:31:15.075Z</time></trkpt><trkpt lat="41.1006685" lon="14.3617898"><ele>318.0</ele><time>2026-04-06T08:31:19.066Z</time></trkpt><trkpt lat="41.1006444" lon="14.3618893"><ele>318.0</ele><time>2026-04-06T08:31:23.07Z</time></trkpt><trkpt lat="41.1006306" lon="14.3619932"><ele>318.0</ele><time>2026-04-06T08:31:27.075Z</time></trkpt><trkpt lat="41.1006174" lon="14.3620982"><ele>318.0</ele><time>2026-04-06T08:31:31.064Z</time></trkpt><trkpt lat="41.100604" lon="14.3622047"><ele>318.0</ele><time>2026-04-06T08:31:35.048Z</time></trkpt><trkpt lat="41.1005972" lon="14.3623102"><ele>318.0</ele><time>2026-04-06T08:31:39.072Z</time></trkpt><trkpt lat="41.1005827" lon="14.3624115"><ele>319.2857142857143</ele><time>2026-04-06T08:31:43.08Z</time></trkpt><trkpt lat="41.1005614" lon="14.3625145"><ele>320.5714285714286</ele><time>2026-04-06T08:31:47.07Z</time></trkpt><trkpt lat="41.1005564" lon="14.3626052"><ele>321.8571428571429</ele><time>2026-04-06T08:31:51.093Z</time></trkpt><trkpt lat="41.1005535" lon="14.3626978"><ele>323.1428571428571</ele><time>2026-04-06T08:31:55.092Z</time></trkpt><trkpt lat="41.1005519" lon="14.3628023"><ele>324.42857142857144</ele><time>2026-04-06T08:31:59.08Z</time></trkpt><trkpt lat="41.1005534" lon="14.3629047"><ele>325.7142857142857</ele><time>2026-04-06T08:32:03.086Z</time></trkpt><trkpt lat="41.1005557" lon="14.3629913"><ele>327.0</ele><time>2026-04-06T08:32:06.129Z</time></trkpt><trkpt lat="41.1005587" lon="14.3630946"><ele>329.1666666666667</ele><time>2026-04-06T08:32:10.103Z</time></trkpt><trkpt lat="41.1005542" lon="14.3632003"><ele>331.3333333333333</ele><time>2026-04-06T08:32:14.101Z</time></trkpt><trkpt lat="41.1005453" lon="14.3633051"><ele>333.5</ele><time>2026-04-06T08:32:18.071Z</time></trkpt><trkpt lat="41.1005347" lon="14.363414"><ele>335.66666666666663</ele><time>2026-04-06T08:32:22.087Z</time></trkpt><trkpt lat="41.1005215" lon="14.3634968"><ele>337.8333333333333</ele><time>2026-04-06T08:32:25.092Z</time></trkpt><trkpt lat="41.100507" lon="14.3635793"><ele>340.0</ele><time>2026-04-06T08:32:28.085Z</time></trkpt><trkpt lat="41.1004939" lon="14.3636882"><ele>340.0</ele><time>2026-04-06T08:32:32.113Z</time></trkpt><trkpt lat="41.1004864" lon="14.3637743"><ele>340.0</ele><time>2026-04-06T08:32:35.103Z</time></trkpt><trkpt lat="41.1004857" lon="14.3638656"><ele>340.0</ele><time>2026-04-06T08:32:38.083Z</time></trkpt><trkpt lat="41.1004857" lon="14.3639578"><ele>340.0</ele><time>2026-04-06T08:32:41.073Z</time></trkpt><trkpt lat="41.1004921" lon="14.3640564"><ele>340.0</ele><time>2026-04-06T08:32:44.049Z</time></trkpt><trkpt lat="41.1005006" lon="14.364149"><ele>340.0</ele><time>2026-04-06T08:32:47.076Z</time></trkpt><trkpt lat="41.1005129" lon="14.3642605"><ele>340.0</ele><time>2026-04-06T08:32:51.073Z</time></trkpt><trkpt lat="41.1005282" lon="14.3643423"><ele>341.14285714285717</ele><time>2026-04-06T08:32:54.069Z</time></trkpt><trkpt lat="41.1005416" lon="14.3644259"><ele>342.2857142857143</ele><time>2026-04-06T08:32:57.103Z</time></trkpt><trkpt lat="41.1005578" lon="14.364511"><ele>343.42857142857144</ele><time>2026-04-06T08:33:00.081Z</time></trkpt><trkpt lat="41.1005774" lon="14.3645958"><ele>344.57142857142856</ele><time>2026-04-06T08:33:03.109Z</time></trkpt><trkpt lat="41.1006017" lon="14.3646996"><ele>345.7142857142857</ele><time>2026-04-06T08:33:07.091Z</time></trkpt><trkpt lat="41.1006206" lon="14.3648147"><ele>346.85714285714283</ele><time>2026-04-06T08:33:11.069Z</time></trkpt><trkpt lat="41.1006415" lon="14.3649091"><ele>348.0</ele><time>2026-04-06T08:33:15.077Z</time></trkpt><trkpt lat="41.1006642" lon="14.3649974"><ele>348.1428571428571</ele><time>2026-04-06T08:33:18.098Z</time></trkpt><trkpt lat="41.1006862" lon="14.365081"><ele>348.2857142857143</ele><time>2026-04-06T08:33:21.11Z</time></trkpt><trkpt lat="41.1007085" lon="14.3651623"><ele>348.42857142857144</ele><time>2026-04-06T08:33:24.085Z</time></trkpt><trkpt lat="41.1007318" lon="14.3652669"><ele>348.57142857142856</ele><time>2026-04-06T08:33:28.084Z</time></trkpt><trkpt lat="41.1007564" lon="14.3653714"><ele>348.7142857142857</ele><time>2026-04-06T08:33:32.088Z</time></trkpt><trkpt lat="41.1007772" lon="14.3654514"><ele>348.85714285714283</ele><time>2026-04-06T08:33:35.121Z</time></trkpt><trkpt lat="41.1007997" lon="14.3655595"><ele>349.0</ele><time>2026-04-06T08:33:39.084Z</time></trkpt><trkpt lat="41.1008066" lon="14.3656715"><ele>353.4285714285714</ele><time>2026-04-06T08:33:43.086Z</time></trkpt><trkpt lat="41.1008119" lon="14.3657651"><ele>357.85714285714283</ele><time>2026-04-06T08:33:47.083Z</time></trkpt><trkpt lat="41.1008337" lon="14.3658707"><ele>362.2857142857143</ele><time>2026-04-06T08:33:51.089Z</time></trkpt><trkpt lat="41.100844" lon="14.3659601"><ele>366.71428571428567</ele><time>2026-04-06T08:33:54.084Z</time></trkpt><trkpt lat="41.1008479" lon="14.3660518"><ele>371.14285714285717</ele><time>2026-04-06T08:33:57.088Z</time></trkpt><trkpt lat="41.1008484" lon="14.3661396"><ele>375.57142857142856</ele><time>2026-04-06T08:34:00.099Z</time></trkpt><trkpt lat="41.1008546" lon="14.3662411"><ele>380.0</ele><time>2026-04-06T08:34:04.103Z</time></trkpt><trkpt lat="41.1008574" lon="14.3663488"><ele>380.14285714285717</ele><time>2026-04-06T08:34:08.069Z</time></trkpt><trkpt lat="41.1008475" lon="14.3664359"><ele>380.28571428571433</ele><time>2026-04-06T08:34:11.024Z</time></trkpt><trkpt lat="41.1008334" lon="14.3665202"><ele>380.42857142857144</ele><time>2026-04-06T08:34:14.101Z</time></trkpt><trkpt lat="41.1008008" lon="14.366615"><ele>380.57142857142856</ele><time>2026-04-06T08:34:17.11Z</time></trkpt><trkpt lat="41.1007673" lon="14.3667187"><ele>380.7142857142857</ele><time>2026-04-06T08:34:21.084Z</time></trkpt><trkpt lat="41.1007568" lon="14.3668193"><ele>380.85714285714283</ele><time>2026-04-06T08:34:24.09Z</time></trkpt><trkpt lat="41.1007431" lon="14.3669029"><ele>381.0</ele><time>2026-04-06T08:34:27.059Z</time></trkpt><trkpt lat="41.1007255" lon="14.3669936"><ele>377.1428571428571</ele><time>2026-04-06T08:34:30.024Z</time></trkpt><trkpt lat="41.1007096" lon="14.3670791"><ele>373.28571428571433</ele><time>2026-04-06T08:34:33.091Z</time></trkpt><trkpt lat="41.1006903" lon="14.36716"><ele>369.42857142857144</ele><time>2026-04-06T08:34:36.083Z</time></trkpt><trkpt lat="41.1006703" lon="14.3672446"><ele>365.57142857142856</ele><time>2026-04-06T08:34:38.992Z</time></trkpt><trkpt lat="41.1006477" lon="14.3673362"><ele>361.71428571428567</ele><time>2026-04-06T08:34:42.091Z</time></trkpt><trkpt lat="41.1006309" lon="14.3674309"><ele>357.8571428571429</ele><time>2026-04-06T08:34:45.108Z</time></trkpt><trkpt lat="41.100609" lon="14.3675249"><ele>354.0</ele><time>2026-04-06T08:34:48.09Z</time></trkpt><trkpt lat="41.1005952" lon="14.3676225"><ele>354.0</ele><time>2026-04-06T08:34:51.082Z</time></trkpt><trkpt lat="41.1005786" lon="14.3677152"><ele>354.0</ele><time>2026-04-06T08:34:54.067Z</time></trkpt><trkpt lat="41.1005509" lon="14.3678061"><ele>354.0</ele><time>2026-04-06T08:34:57.101Z</time></trkpt><trkpt lat="41.1005183" lon="14.3678902"><ele>354.0</ele><time>2026-04-06T08:35:00.025Z</time></trkpt><trkpt lat="41.1004727" lon="14.3679825"><ele>354.0</ele><time>2026-04-06T08:35:03.106Z</time></trkpt><trkpt lat="41.1004511" lon="14.3680738"><ele>354.0</ele><time>2026-04-06T08:35:06.07Z</time></trkpt><trkpt lat="41.1004142" lon="14.3681552"><ele>354.0</ele><time>2026-04-06T08:35:09.081Z</time></trkpt><trkpt lat="41.1003876" lon="14.3682506"><ele>355.5</ele><time>2026-04-06T08:35:12.007Z</time></trkpt><trkpt lat="41.1003538" lon="14.3683521"><ele>357.0</ele><time>2026-04-06T08:35:15.102Z</time></trkpt><trkpt lat="41.1003156" lon="14.3684367"><ele>358.5</ele><time>2026-04-06T08:35:18.103Z</time></trkpt><trkpt lat="41.1002779" lon="14.3685188"><ele>360.0</ele><time>2026-04-06T08:35:21.081Z</time></trkpt><trkpt lat="41.1002375" lon="14.3685965"><ele>361.5</ele><time>2026-04-06T08:35:24.088Z</time></trkpt><trkpt lat="41.100193" lon="14.3686841"><ele>363.0</ele><time>2026-04-06T08:35:27.081Z</time></trkpt><trkpt lat="41.1001523" lon="14.3687733"><ele>363.0</ele><time>2026-04-06T08:35:30.103Z</time></trkpt><trkpt lat="41.1001088" lon="14.3688574"><ele>363.0</ele><time>2026-04-06T08:35:33.006Z</time></trkpt><trkpt lat="41.100064" lon="14.368949"><ele>363.0</ele><time>2026-04-06T08:35:36.095Z</time></trkpt><trkpt lat="41.1000096" lon="14.3690333"><ele>363.0</ele><time>2026-04-06T08:35:39.023Z</time></trkpt><trkpt lat="41.0999526" lon="14.3690759"><ele>363.0</ele><time>2026-04-06T08:35:41.127Z</time></trkpt><trkpt lat="41.0998714" lon="14.3691143"><ele>363.0</ele><time>2026-04-06T08:35:43.963Z</time></trkpt><trkpt lat="41.0997914" lon="14.3691417"><ele>363.85714285714283</ele><time>2026-04-06T08:35:47.064Z</time></trkpt><trkpt lat="41.0997271" lon="14.3691419"><ele>364.7142857142857</ele><time>2026-04-06T08:35:50.007Z</time></trkpt><trkpt lat="41.0996506" lon="14.3691388"><ele>365.57142857142856</ele><time>2026-04-06T08:35:54.093Z</time></trkpt><trkpt lat="41.0995868" lon="14.3691444"><ele>366.42857142857144</ele><time>2026-04-06T08:35:57.102Z</time></trkpt><trkpt lat="41.099502" lon="14.3691628"><ele>367.2857142857143</ele><time>2026-04-06T08:36:01.026Z</time></trkpt><trkpt lat="41.0994368" lon="14.3691502"><ele>368.1428571428571</ele><time>2026-04-06T08:36:04.079Z</time></trkpt><trkpt lat="41.0993711" lon="14.3691675"><ele>369.0</ele><time>2026-04-06T08:36:07.145Z</time></trkpt><trkpt lat="41.0992948" lon="14.3692006"><ele>369.0</ele><time>2026-04-06T08:36:11.103Z</time></trkpt><trkpt lat="41.0992321" lon="14.3692439"><ele>369.0</ele><time>2026-04-06T08:36:15.049Z</time></trkpt><trkpt lat="41.099166" lon="14.3692517"><ele>369.0</ele><time>2026-04-06T08:36:18.076Z</time></trkpt><trkpt lat="41.0990987" lon="14.3692652"><ele>369.0</ele><time>2026-04-06T08:36:21.085Z</time></trkpt><trkpt lat="41.0990305" lon="14.3692947"><ele>369.0</ele><time>2026-04-06T08:36:24.102Z</time></trkpt><trkpt lat="41.0989526" lon="14.3693409"><ele>369.0</ele><time>2026-04-06T08:36:28.006Z</time></trkpt><trkpt lat="41.0988862" lon="14.3693948"><ele>369.0</ele><time>2026-04-06T08:36:31.105Z</time></trkpt><trkpt lat="41.0988249" lon="14.3694488"><ele>370.0</ele><time>2026-04-06T08:36:34.105Z</time></trkpt><trkpt lat="41.0987606" lon="14.3695187"><ele>371.0</ele><time>2026-04-06T08:36:38.092Z</time></trkpt><trkpt lat="41.0986995" lon="14.3695741"><ele>372.0</ele><time>2026-04-06T08:36:42.07Z</time></trkpt><trkpt lat="41.098644" lon="14.3696174"><ele>373.0</ele><time>2026-04-06T08:36:45.098Z</time></trkpt><trkpt lat="41.098574" lon="14.3696729"><ele>374.0</ele><time>2026-04-06T08:36:49.105Z</time></trkpt><trkpt lat="41.0985053" lon="14.3697235"><ele>375.0</ele><time>2026-04-06T08:36:53.12Z</time></trkpt><trkpt lat="41.0984458" lon="14.3697822"><ele>376.3333333333333</ele><time>2026-04-06T08:36:57.066Z</time></trkpt><trkpt lat="41.0983765" lon="14.3698211"><ele>377.6666666666667</ele><time>2026-04-06T08:37:01.042Z</time></trkpt><trkpt lat="41.0983028" lon="14.3698649"><ele>379.0</ele><time>2026-04-06T08:37:05.028Z</time></trkpt><trkpt lat="41.09824" lon="14.3698922"><ele>380.33333333333337</ele><time>2026-04-06T08:37:08.094Z</time></trkpt><trkpt lat="41.0981795" lon="14.3699216"><ele>381.6666666666667</ele><time>2026-04-06T08:37:11.105Z</time></trkpt><trkpt lat="41.0981064" lon="14.3699701"><ele>383.0</ele><time>2026-04-06T08:37:15.122Z</time></trkpt><trkpt lat="41.0980324" lon="14.3700177"><ele>383.42857142857144</ele><time>2026-04-06T08:37:19.004Z</time></trkpt><trkpt lat="41.0979702" lon="14.3700639"><ele>383.85714285714283</ele><time>2026-04-06T08:37:22.086Z</time></trkpt><trkpt lat="41.0979044" lon="14.3700989"><ele>384.28571428571433</ele><time>2026-04-06T08:37:25.093Z</time></trkpt><trkpt lat="41.0978393" lon="14.3701402"><ele>384.7142857142857</ele><time>2026-04-06T08:37:28.004Z</time></trkpt><trkpt lat="41.0977753" lon="14.370185"><ele>385.14285714285717</ele><time>2026-04-06T08:37:32.006Z</time></trkpt><trkpt lat="41.0977012" lon="14.3702149"><ele>385.5714285714286</ele><time>2026-04-06T08:37:36.094Z</time></trkpt><trkpt lat="41.0976347" lon="14.3702449"><ele>386.0</ele><time>2026-04-06T08:37:40.092Z</time></trkpt><trkpt lat="41.097563" lon="14.3702869"><ele>386.00000000000006</ele><time>2026-04-06T08:37:44.083Z</time></trkpt><trkpt lat="41.0975027" lon="14.3703226"><ele>386.0</ele><time>2026-04-06T08:37:47.129Z</time></trkpt><trkpt lat="41.0974415" lon="14.3703475"><ele>386.0</ele><time>2026-04-06T08:37:50.088Z</time></trkpt><trkpt lat="41.0973757" lon="14.3703757"><ele>386.0</ele><time>2026-04-06T08:37:53.087Z</time></trkpt><trkpt lat="41.0973097" lon="14.3704081"><ele>386.0</ele><time>2026-04-06T08:37:56.119Z</time></trkpt><trkpt lat="41.097249" lon="14.3704457"><ele>386.00000000000006</ele><time>2026-04-06T08:37:59.082Z</time></trkpt><trkpt lat="41.0971865" lon="14.3704758"><ele>386.0</ele><time>2026-04-06T08:38:02.113Z</time></trkpt><trkpt lat="41.0971251" lon="14.3705023"><ele>386.99999999999994</ele><time>2026-04-06T08:38:05.04Z</time></trkpt><trkpt lat="41.0970608" lon="14.3705218"><ele>388.0</ele><time>2026-04-06T08:38:08.089Z</time></trkpt><trkpt lat="41.0969866" lon="14.3705524"><ele>389.0</ele><time>2026-04-06T08:38:12.092Z</time></trkpt><trkpt lat="41.096908" lon="14.3705707"><ele>390.0</ele><time>2026-04-06T08:38:16.109Z</time></trkpt><trkpt lat="41.0968265" lon="14.3705869"><ele>390.99999999999994</ele><time>2026-04-06T08:38:20.09Z</time></trkpt><trkpt lat="41.0967567" lon="14.3705847"><ele>392.0</ele><time>2026-04-06T08:38:23.174Z</time></trkpt><trkpt lat="41.0966744" lon="14.370584"><ele>390.2857142857143</ele><time>2026-04-06T08:38:27.089Z</time></trkpt><trkpt lat="41.0966008" lon="14.3705808"><ele>388.57142857142856</ele><time>2026-04-06T08:38:31.024Z</time></trkpt><trkpt lat="41.0965216" lon="14.3705901"><ele>386.8571428571429</ele><time>2026-04-06T08:38:35.03Z</time></trkpt><trkpt lat="41.0964459" lon="14.3705889"><ele>385.1428571428571</ele><time>2026-04-06T08:38:38.097Z</time></trkpt><trkpt lat="41.0963756" lon="14.3705823"><ele>383.42857142857144</ele><time>2026-04-06T08:38:41.074Z</time></trkpt><trkpt lat="41.096308" lon="14.3705725"><ele>381.7142857142857</ele><time>2026-04-06T08:38:44.043Z</time></trkpt><trkpt lat="41.096237" lon="14.3705817"><ele>380.0</ele><time>2026-04-06T08:38:47.098Z</time></trkpt><trkpt lat="41.0961694" lon="14.3705788"><ele>379.8571428571429</ele><time>2026-04-06T08:38:50.071Z</time></trkpt><trkpt lat="41.0961012" lon="14.3705819"><ele>379.7142857142857</ele><time>2026-04-06T08:38:52.98Z</time></trkpt><trkpt lat="41.0960243" lon="14.3705807"><ele>379.57142857142856</ele><time>2026-04-06T08:38:56.089Z</time></trkpt><trkpt lat="41.0959573" lon="14.3705691"><ele>379.42857142857144</ele><time>2026-04-06T08:38:59.102Z</time></trkpt><trkpt lat="41.0958958" lon="14.3705356"><ele>379.2857142857143</ele><time>2026-04-06T08:39:02.082Z</time></trkpt><trkpt lat="41.0958374" lon="14.3704973"><ele>379.14285714285717</ele><time>2026-04-06T08:39:05.076Z</time></trkpt><trkpt lat="41.0958245" lon="14.3704076"><ele>379.0</ele><time>2026-04-06T08:39:09.091Z</time></trkpt><trkpt lat="41.0958332" lon="14.3703192"><ele>380.28571428571433</ele><time>2026-04-06T08:39:13.107Z</time></trkpt><trkpt lat="41.095818" lon="14.3702295"><ele>381.57142857142856</ele><time>2026-04-06T08:39:19.064Z</time></trkpt><trkpt lat="41.095861" lon="14.3701624"><ele>382.8571428571429</ele><time>2026-04-06T08:39:27.104Z</time></trkpt><trkpt lat="41.0958831" lon="14.3700762"><ele>384.14285714285717</ele><time>2026-04-06T08:39:44.107Z</time></trkpt><trkpt lat="41.0958811" lon="14.3699883"><ele>385.42857142857144</ele><time>2026-04-06T08:39:51.108Z</time></trkpt><trkpt lat="41.0959018" lon="14.3699021"><ele>386.7142857142857</ele><time>2026-04-06T08:39:58.116Z</time></trkpt><trkpt lat="41.0959274" lon="14.3698104"><ele>388.0</ele><time>2026-04-06T08:40:05.044Z</time></trkpt><trkpt lat="41.0959543" lon="14.3697278"><ele>389.2857142857143</ele><time>2026-04-06T08:40:12.085Z</time></trkpt><trkpt lat="41.0959745" lon="14.3696455"><ele>390.5714285714286</ele><time>2026-04-06T08:40:18.132Z</time></trkpt><trkpt lat="41.0960006" lon="14.3695652"><ele>391.8571428571429</ele><time>2026-04-06T08:40:24.123Z</time></trkpt><trkpt lat="41.0960247" lon="14.3694791"><ele>393.1428571428571</ele><time>2026-04-06T08:40:30.075Z</time></trkpt><trkpt lat="41.0960474" lon="14.3693906"><ele>394.42857142857144</ele><time>2026-04-06T08:40:36.101Z</time></trkpt><trkpt lat="41.0960542" lon="14.3693044"><ele>395.7142857142857</ele><time>2026-04-06T08:40:41.125Z</time></trkpt><trkpt lat="41.0960655" lon="14.3692089"><ele>397.0</ele><time>2026-04-06T08:40:47.112Z</time></trkpt><trkpt lat="41.0960774" lon="14.3691199"><ele>397.0</ele><time>2026-04-06T08:40:53.086Z</time></trkpt><trkpt lat="41.0961032" lon="14.3690404"><ele>397.0</ele><time>2026-04-06T08:40:58.111Z</time></trkpt><trkpt lat="41.0961161" lon="14.368954"><ele>397.0</ele><time>2026-04-06T08:41:03.082Z</time></trkpt><trkpt lat="41.0961421" lon="14.3688659"><ele>397.0</ele><time>2026-04-06T08:41:09.093Z</time></trkpt><trkpt lat="41.0961642" lon="14.3687798"><ele>397.0</ele><time>2026-04-06T08:41:15.105Z</time></trkpt><trkpt lat="41.09618" lon="14.3686901"><ele>397.0</ele><time>2026-04-06T08:41:21.105Z</time></trkpt><trkpt lat="41.096207" lon="14.3686008"><ele>397.0</ele><time>2026-04-06T08:41:27.114Z</time></trkpt><trkpt lat="41.0961947" lon="14.3685072"><ele>396.42857142857144</ele><time>2026-04-06T08:41:34.072Z</time></trkpt><trkpt lat="41.0962157" lon="14.3684212"><ele>395.85714285714283</ele><time>2026-04-06T08:41:40.113Z</time></trkpt><trkpt lat="41.09623" lon="14.3683391"><ele>395.28571428571433</ele><time>2026-04-06T08:41:45.111Z</time></trkpt><trkpt lat="41.0962477" lon="14.3682504"><ele>394.7142857142857</ele><time>2026-04-06T08:41:52.108Z</time></trkpt><trkpt lat="41.0962568" lon="14.36816"><ele>394.14285714285717</ele><time>2026-04-06T08:42:20.057Z</time></trkpt><trkpt lat="41.0962319" lon="14.36808"><ele>393.5714285714286</ele><time>2026-04-06T08:42:31.06Z</time></trkpt><trkpt lat="41.0962287" lon="14.3679962"><ele>393.0</ele><time>2026-04-06T08:42:49.131Z</time></trkpt><trkpt lat="41.0961951" lon="14.3679232"><ele>391.8571428571429</ele><time>2026-04-06T08:43:09.055Z</time></trkpt><trkpt lat="41.0962679" lon="14.3679206"><ele>390.7142857142857</ele><time>2026-04-06T08:43:36.05Z</time></trkpt><trkpt lat="41.0963292" lon="14.3679001"><ele>389.57142857142856</ele><time>2026-04-06T08:43:40.071Z</time></trkpt><trkpt lat="41.0963943" lon="14.3678742"><ele>388.42857142857144</ele><time>2026-04-06T08:43:45.054Z</time></trkpt><trkpt lat="41.0964651" lon="14.3678542"><ele>387.2857142857143</ele><time>2026-04-06T08:43:50.082Z</time></trkpt><trkpt lat="41.0965288" lon="14.3678542"><ele>386.14285714285717</ele><time>2026-04-06T08:43:56.089Z</time></trkpt><trkpt lat="41.0965895" lon="14.3678802"><ele>385.0</ele><time>2026-04-06T08:44:02.056Z</time></trkpt><trkpt lat="41.0966442" lon="14.3679361"><ele>387.2857142857143</ele><time>2026-04-06T08:44:10.054Z</time></trkpt><trkpt lat="41.0967134" lon="14.3679282"><ele>389.57142857142856</ele><time>2026-04-06T08:44:15.068Z</time></trkpt><trkpt lat="41.096786" lon="14.3679088"><ele>391.8571428571429</ele><time>2026-04-06T08:44:20.104Z</time></trkpt><trkpt lat="41.0968521" lon="14.367927"><ele>394.1428571428571</ele><time>2026-04-06T08:44:25.075Z</time></trkpt><trkpt lat="41.0969148" lon="14.3679471"><ele>396.42857142857144</ele><time>2026-04-06T08:44:30.08Z</time></trkpt><trkpt lat="41.0969782" lon="14.3679116"><ele>398.7142857142857</ele><time>2026-04-06T08:44:38.094Z</time></trkpt><trkpt lat="41.0970471" lon="14.3678686"><ele>401.0</ele><time>2026-04-06T08:44:43.103Z</time></trkpt><trkpt lat="41.0971108" lon="14.3678501"><ele>401.0</ele><time>2026-04-06T08:44:47.067Z</time></trkpt><trkpt lat="41.0971711" lon="14.3677983"><ele>401.0</ele><time>2026-04-06T08:44:53.072Z</time></trkpt><trkpt lat="41.0972046" lon="14.3677162"><ele>401.0</ele><time>2026-04-06T08:44:58.071Z</time></trkpt><trkpt lat="41.0972329" lon="14.3676394"><ele>401.0</ele><time>2026-04-06T08:45:03.074Z</time></trkpt><trkpt lat="41.0972543" lon="14.367551"><ele>401.0</ele><time>2026-04-06T08:45:08.073Z</time></trkpt><trkpt lat="41.0972491" lon="14.3674509"><ele>401.0</ele><time>2026-04-06T08:45:15.057Z</time></trkpt><trkpt lat="41.0972628" lon="14.3673666"><ele>401.0</ele><time>2026-04-06T08:45:23.044Z</time></trkpt><trkpt lat="41.0972564" lon="14.3672793"><ele>400.57142857142856</ele><time>2026-04-06T08:45:29.083Z</time></trkpt><trkpt lat="41.0972451" lon="14.3671912"><ele>400.14285714285717</ele><time>2026-04-06T08:45:33.086Z</time></trkpt><trkpt lat="41.0972454" lon="14.367092"><ele>399.71428571428567</ele><time>2026-04-06T08:45:38.078Z</time></trkpt><trkpt lat="41.0972507" lon="14.3669902"><ele>399.2857142857143</ele><time>2026-04-06T08:45:42.078Z</time></trkpt><trkpt lat="41.0972633" lon="14.3669058"><ele>398.85714285714283</ele><time>2026-04-06T08:45:46.087Z</time></trkpt><trkpt lat="41.0973293" lon="14.3668663"><ele>398.4285714285714</ele><time>2026-04-06T08:45:52.041Z</time></trkpt><trkpt lat="41.0973947" lon="14.3668961"><ele>398.0</ele><time>2026-04-06T08:45:59.069Z</time></trkpt><trkpt lat="41.0973293" lon="14.3668675"><ele>397.99999999999994</ele><time>2026-04-06T08:46:11.053Z</time></trkpt><trkpt lat="41.0972735" lon="14.366823"><ele>398.0</ele><time>2026-04-06T08:46:16.048Z</time></trkpt><trkpt lat="41.0972162" lon="14.3667834"><ele>398.0</ele><time>2026-04-06T08:46:21.044Z</time></trkpt><trkpt lat="41.0972174" lon="14.3666937"><ele>398.0</ele><time>2026-04-06T08:46:26.049Z</time></trkpt><trkpt lat="41.097215" lon="14.3666101"><ele>398.0</ele><time>2026-04-06T08:46:31.05Z</time></trkpt><trkpt lat="41.0972038" lon="14.3665108"><ele>397.99999999999994</ele><time>2026-04-06T08:46:37.048Z</time></trkpt><trkpt lat="41.0972104" lon="14.366416"><ele>398.0</ele><time>2026-04-06T08:46:42.052Z</time></trkpt><trkpt lat="41.0972018" lon="14.3663271"><ele>397.4285714285714</ele><time>2026-04-06T08:46:48.052Z</time></trkpt><trkpt lat="41.0971917" lon="14.3662333"><ele>396.85714285714283</ele><time>2026-04-06T08:46:53.043Z</time></trkpt><trkpt lat="41.0971792" lon="14.366147"><ele>396.2857142857143</ele><time>2026-04-06T08:46:59.05Z</time></trkpt><trkpt lat="41.0971686" lon="14.3660583"><ele>395.71428571428567</ele><time>2026-04-06T08:47:07.055Z</time></trkpt><trkpt lat="41.0971787" lon="14.3659654"><ele>395.14285714285717</ele><time>2026-04-06T08:47:13.046Z</time></trkpt><trkpt lat="41.0971875" lon="14.3658713"><ele>394.57142857142856</ele><time>2026-04-06T08:47:18.051Z</time></trkpt><trkpt lat="41.0971882" lon="14.3657851"><ele>394.0</ele><time>2026-04-06T08:47:32.044Z</time></trkpt><trkpt lat="41.0972082" lon="14.3656874"><ele>394.0</ele><time>2026-04-06T08:47:37.046Z</time></trkpt><trkpt lat="41.0972194" lon="14.3656043"><ele>394.0</ele><time>2026-04-06T08:47:41.058Z</time></trkpt><trkpt lat="41.0972548" lon="14.3655223"><ele>394.0</ele><time>2026-04-06T08:47:46.068Z</time></trkpt><trkpt lat="41.0972646" lon="14.3654377"><ele>394.0</ele><time>2026-04-06T08:47:49.926Z</time></trkpt><trkpt lat="41.0972774" lon="14.3653454"><ele>394.0</ele><time>2026-04-06T08:48:05.074Z</time></trkpt><trkpt lat="41.0972887" lon="14.365255"><ele>394.0</ele><time>2026-04-06T08:48:11.09Z</time></trkpt><trkpt lat="41.0972927" lon="14.3651692"><ele>394.0</ele><time>2026-04-06T08:48:16.114Z</time></trkpt><trkpt lat="41.09733" lon="14.365092"><ele>392.7142857142857</ele><time>2026-04-06T08:48:21.088Z</time></trkpt><trkpt lat="41.0973243" lon="14.3650045"><ele>391.42857142857144</ele><time>2026-04-06T08:48:45.081Z</time></trkpt><trkpt lat="41.0973221" lon="14.3649114"><ele>390.1428571428571</ele><time>2026-04-06T08:48:50.082Z</time></trkpt><trkpt lat="41.0973338" lon="14.3648204"><ele>388.8571428571429</ele><time>2026-04-06T08:48:56.066Z</time></trkpt><trkpt lat="41.0973358" lon="14.3647264"><ele>387.57142857142856</ele><time>2026-04-06T08:49:02.044Z</time></trkpt><trkpt lat="41.0973612" lon="14.3646483"><ele>386.2857142857143</ele><time>2026-04-06T08:49:05.074Z</time></trkpt><trkpt lat="41.0973955" lon="14.3645493"><ele>385.0</ele><time>2026-04-06T08:49:07.05Z</time></trkpt><trkpt lat="41.0974606" lon="14.3645593"><ele>384.33333333333337</ele><time>2026-04-06T08:49:08.061Z</time></trkpt><trkpt lat="41.0975228" lon="14.364622"><ele>383.6666666666667</ele><time>2026-04-06T08:49:09.076Z</time></trkpt><trkpt lat="41.0974007" lon="14.3645427"><ele>383.0</ele><time>2026-04-06T08:49:17.08Z</time></trkpt><trkpt lat="41.0973712" lon="14.3644525"><ele>382.33333333333337</ele><time>2026-04-06T08:49:19.096Z</time></trkpt><trkpt lat="41.0973415" lon="14.3643762"><ele>381.6666666666667</ele><time>2026-04-06T08:49:22.066Z</time></trkpt><trkpt lat="41.0973073" lon="14.3642919"><ele>381.0</ele><time>2026-04-06T08:49:26.052Z</time></trkpt><trkpt lat="41.0972358" lon="14.3643018"><ele>379.2857142857143</ele><time>2026-04-06T08:49:31.111Z</time></trkpt><trkpt lat="41.0971827" lon="14.3643471"><ele>377.5714285714286</ele><time>2026-04-06T08:49:35.12Z</time></trkpt><trkpt lat="41.0971144" lon="14.3643943"><ele>375.8571428571429</ele><time>2026-04-06T08:49:39.062Z</time></trkpt><trkpt lat="41.0970547" lon="14.364437"><ele>374.1428571428571</ele><time>2026-04-06T08:49:45.051Z</time></trkpt><trkpt lat="41.0970003" lon="14.3644973"><ele>372.42857142857144</ele><time>2026-04-06T08:49:52.054Z</time></trkpt><trkpt lat="41.096951" lon="14.3645521"><ele>370.7142857142857</ele><time>2026-04-06T08:49:58.064Z</time></trkpt><trkpt lat="41.0969071" lon="14.3646167"><ele>369.0</ele><time>2026-04-06T08:50:02.072Z</time></trkpt><trkpt lat="41.0968659" lon="14.3646897"><ele>368.1428571428571</ele><time>2026-04-06T08:50:08.055Z</time></trkpt><trkpt lat="41.0968189" lon="14.3647533"><ele>367.2857142857143</ele><time>2026-04-06T08:50:13.048Z</time></trkpt><trkpt lat="41.0967772" lon="14.3648304"><ele>366.42857142857144</ele><time>2026-04-06T08:50:20.112Z</time></trkpt><trkpt lat="41.0967491" lon="14.3649138"><ele>365.57142857142856</ele><time>2026-04-06T08:50:25.068Z</time></trkpt><trkpt lat="41.0966951" lon="14.364968"><ele>364.7142857142857</ele><time>2026-04-06T08:50:30.085Z</time></trkpt><trkpt lat="41.0966457" lon="14.3650207"><ele>363.85714285714283</ele><time>2026-04-06T08:50:34.075Z</time></trkpt><trkpt lat="41.096594" lon="14.3650765"><ele>363.0</ele><time>2026-04-06T08:50:38.085Z</time></trkpt><trkpt lat="41.0965429" lon="14.3651416"><ele>362.99999999999994</ele><time>2026-04-06T08:50:43.084Z</time></trkpt><trkpt lat="41.0964866" lon="14.365202"><ele>363.0</ele><time>2026-04-06T08:50:48.104Z</time></trkpt><trkpt lat="41.0964451" lon="14.3652742"><ele>363.0</ele><time>2026-04-06T08:50:53.08Z</time></trkpt><trkpt lat="41.0964074" lon="14.3653411"><ele>363.0</ele><time>2026-04-06T08:50:57.091Z</time></trkpt><trkpt lat="41.0963642" lon="14.3654195"><ele>363.0</ele><time>2026-04-06T08:51:03.072Z</time></trkpt><trkpt lat="41.0963282" lon="14.3655045"><ele>362.99999999999994</ele><time>2026-04-06T08:51:08.089Z</time></trkpt><trkpt lat="41.0962765" lon="14.3655616"><ele>363.0</ele><time>2026-04-06T08:51:13.089Z</time></trkpt><trkpt lat="41.0962091" lon="14.3655789"><ele>362.99999999999994</ele><time>2026-04-06T08:51:18.095Z</time></trkpt><trkpt lat="41.0961527" lon="14.3655242"><ele>363.0</ele><time>2026-04-06T08:51:23.088Z</time></trkpt><trkpt lat="41.0961664" lon="14.3656238"><ele>363.0</ele><time>2026-04-06T08:51:54.064Z</time></trkpt><trkpt lat="41.0961145" lon="14.3656799"><ele>363.0</ele><time>2026-04-06T08:51:58.068Z</time></trkpt><trkpt lat="41.0960539" lon="14.3657415"><ele>363.0</ele><time>2026-04-06T08:52:03.054Z</time></trkpt><trkpt lat="41.0960033" lon="14.3657998"><ele>362.99999999999994</ele><time>2026-04-06T08:52:08.05Z</time></trkpt><trkpt lat="41.0959632" lon="14.3658759"><ele>363.0</ele><time>2026-04-06T08:52:13.047Z</time></trkpt><trkpt lat="41.095923" lon="14.365952"><ele>364.71428571428567</ele><time>2026-04-06T08:52:18.054Z</time></trkpt><trkpt lat="41.0959224" lon="14.3660445"><ele>366.42857142857144</ele><time>2026-04-06T08:52:23.067Z</time></trkpt><trkpt lat="41.0959169" lon="14.366139"><ele>368.1428571428571</ele><time>2026-04-06T08:52:29.088Z</time></trkpt><trkpt lat="41.0959136" lon="14.3662425"><ele>369.85714285714283</ele><time>2026-04-06T08:52:35.077Z</time></trkpt><trkpt lat="41.0959046" lon="14.3663255"><ele>371.57142857142856</ele><time>2026-04-06T08:52:40.081Z</time></trkpt><trkpt lat="41.0959086" lon="14.3664292"><ele>373.2857142857143</ele><time>2026-04-06T08:52:46.078Z</time></trkpt><trkpt lat="41.095912" lon="14.3665197"><ele>375.0</ele><time>2026-04-06T08:52:52.059Z</time></trkpt><trkpt lat="41.0959251" lon="14.3666026"><ele>375.42857142857144</ele><time>2026-04-06T08:52:58.059Z</time></trkpt><trkpt lat="41.0959168" lon="14.3666856"><ele>375.85714285714283</ele><time>2026-04-06T08:53:02.057Z</time></trkpt><trkpt lat="41.0958849" lon="14.3667619"><ele>376.2857142857143</ele><time>2026-04-06T08:53:08.062Z</time></trkpt><trkpt lat="41.0958544" lon="14.3668407"><ele>376.7142857142857</ele><time>2026-04-06T08:53:14.057Z</time></trkpt><trkpt lat="41.095845" lon="14.3669387"><ele>377.1428571428571</ele><time>2026-04-06T08:53:20.09Z</time></trkpt><trkpt lat="41.0958268" lon="14.3670359"><ele>377.57142857142856</ele><time>2026-04-06T08:53:26.055Z</time></trkpt><trkpt lat="41.0958065" lon="14.3671285"><ele>378.0</ele><time>2026-04-06T08:53:32.076Z</time></trkpt><trkpt lat="41.0957872" lon="14.3672194"><ele>378.0</ele><time>2026-04-06T08:53:38.067Z</time></trkpt><trkpt lat="41.0957677" lon="14.3673138"><ele>378.0</ele><time>2026-04-06T08:53:45.057Z</time></trkpt><trkpt lat="41.0957378" lon="14.3673913"><ele>378.0</ele><time>2026-04-06T08:53:51.066Z</time></trkpt><trkpt lat="41.095758" lon="14.3673045"><ele>378.0</ele><time>2026-04-06T08:53:59.058Z</time></trkpt><trkpt lat="41.0957834" lon="14.3672189"><ele>378.0</ele><time>2026-04-06T08:54:06.056Z</time></trkpt><trkpt lat="41.0958039" lon="14.3671297"><ele>378.0</ele><time>2026-04-06T08:54:12.082Z</time></trkpt><trkpt lat="41.09583" lon="14.3670377"><ele>378.0</ele><time>2026-04-06T08:54:18.048Z</time></trkpt><trkpt lat="41.0958655" lon="14.3669616"><ele>378.0</ele><time>2026-04-06T08:54:25.067Z</time></trkpt><trkpt lat="41.0958786" lon="14.366869"><ele>378.0</ele><time>2026-04-06T08:54:31.07Z</time></trkpt><trkpt lat="41.0958929" lon="14.3667803"><ele>378.0</ele><time>2026-04-06T08:54:38.08Z</time></trkpt><trkpt lat="41.0959099" lon="14.3666845"><ele>378.0</ele><time>2026-04-06T08:54:43.058Z</time></trkpt><trkpt lat="41.0958885" lon="14.3666026"><ele>378.0</ele><time>2026-04-06T08:54:50.066Z</time></trkpt><trkpt lat="41.095825" lon="14.3665716"><ele>378.0</ele><time>2026-04-06T08:54:55.057Z</time></trkpt><trkpt lat="41.0957941" lon="14.3664909"><ele>378.0</ele><time>2026-04-06T08:55:02.093Z</time></trkpt><trkpt lat="41.0957672" lon="14.3664105"><ele>373.14285714285717</ele><time>2026-04-06T08:55:07.082Z</time></trkpt><trkpt lat="41.0957267" lon="14.3663312"><ele>368.2857142857143</ele><time>2026-04-06T08:55:13.1Z</time></trkpt><trkpt lat="41.0956788" lon="14.3662521"><ele>363.42857142857144</ele><time>2026-04-06T08:55:20.087Z</time></trkpt><trkpt lat="41.0956528" lon="14.3661719"><ele>358.57142857142856</ele><time>2026-04-06T08:55:27.08Z</time></trkpt><trkpt lat="41.0956289" lon="14.3660908"><ele>353.7142857142857</ele><time>2026-04-06T08:55:34.078Z</time></trkpt><trkpt lat="41.0956092" lon="14.3660108"><ele>348.8571428571429</ele><time>2026-04-06T08:55:41.096Z</time></trkpt><trkpt lat="41.0955996" lon="14.3659276"><ele>344.0</ele><time>2026-04-06T08:55:52.072Z</time></trkpt><trkpt lat="41.095587" lon="14.3658359"><ele>344.00000000000006</ele><time>2026-04-06T08:56:05.098Z</time></trkpt><trkpt lat="41.0955818" lon="14.3657322"><ele>344.0</ele><time>2026-04-06T08:56:11.061Z</time></trkpt><trkpt lat="41.0955782" lon="14.3656311"><ele>344.0</ele><time>2026-04-06T08:56:17.082Z</time></trkpt><trkpt lat="41.0955934" lon="14.3655478"><ele>344.0</ele><time>2026-04-06T08:56:23.094Z</time></trkpt><trkpt lat="41.0956237" lon="14.3654734"><ele>344.0</ele><time>2026-04-06T08:56:29.087Z</time></trkpt><trkpt lat="41.0956396" lon="14.3653922"><ele>344.00000000000006</ele><time>2026-04-06T08:56:35.096Z</time></trkpt><trkpt lat="41.0956565" lon="14.3653068"><ele>344.0</ele><time>2026-04-06T08:56:42.081Z</time></trkpt><trkpt lat="41.0956501" lon="14.3652228"><ele>344.00000000000006</ele><time>2026-04-06T08:56:49.092Z</time></trkpt><trkpt lat="41.095592" lon="14.3652563"><ele>344.0</ele><time>2026-04-06T08:56:54.079Z</time></trkpt><trkpt lat="41.095531" lon="14.3653035"><ele>344.0</ele><time>2026-04-06T08:57:00.084Z</time></trkpt><trkpt lat="41.0954771" lon="14.3653512"><ele>344.0</ele><time>2026-04-06T08:57:06.103Z</time></trkpt><trkpt lat="41.0954305" lon="14.3654083"><ele>344.0</ele><time>2026-04-06T08:57:12.096Z</time></trkpt><trkpt lat="41.0953858" lon="14.3654831"><ele>344.00000000000006</ele><time>2026-04-06T08:57:54.057Z</time></trkpt><trkpt lat="41.0953247" lon="14.3655293"><ele>344.0</ele><time>2026-04-06T08:57:59.056Z</time></trkpt><trkpt lat="41.0952698" lon="14.3655829"><ele>344.00000000000006</ele><time>2026-04-06T08:58:05.058Z</time></trkpt><trkpt lat="41.0952293" lon="14.3656612"><ele>344.0</ele><time>2026-04-06T08:58:23.063Z</time></trkpt><trkpt lat="41.0951858" lon="14.3657286"><ele>344.0</ele><time>2026-04-06T08:58:31.123Z</time></trkpt><trkpt lat="41.0951391" lon="14.3656656"><ele>344.0</ele><time>2026-04-06T08:58:51.068Z</time></trkpt><trkpt lat="41.0951424" lon="14.3655684"><ele>344.0</ele><time>2026-04-06T08:59:31.078Z</time></trkpt><trkpt lat="41.0951166" lon="14.3654763"><ele>344.00000000000006</ele><time>2026-04-06T08:59:35.078Z</time></trkpt><trkpt lat="41.0950961" lon="14.3653867"><ele>344.0</ele><time>2026-04-06T08:59:41.086Z</time></trkpt><trkpt lat="41.0951411" lon="14.3653268"><ele>342.8571428571429</ele><time>2026-04-06T09:00:00.033Z</time></trkpt><trkpt lat="41.095128" lon="14.3652337"><ele>341.7142857142857</ele><time>2026-04-06T09:00:22.105Z</time></trkpt><trkpt lat="41.0951612" lon="14.3651381"><ele>340.57142857142856</ele><time>2026-04-06T09:01:26.096Z</time></trkpt><trkpt lat="41.095185" lon="14.3650239"><ele>339.42857142857144</ele><time>2026-04-06T09:01:32.055Z</time></trkpt><trkpt lat="41.0951517" lon="14.3649475"><ele>338.2857142857143</ele><time>2026-04-06T09:01:42.088Z</time></trkpt><trkpt lat="41.0952034" lon="14.3648894"><ele>337.14285714285717</ele><time>2026-04-06T09:01:45.075Z</time></trkpt><trkpt lat="41.0952295" lon="14.3647978"><ele>336.0</ele><time>2026-04-06T09:01:49.061Z</time></trkpt><trkpt lat="41.0952464" lon="14.3647054"><ele>333.14285714285717</ele><time>2026-04-06T09:01:52.064Z</time></trkpt><trkpt lat="41.095266" lon="14.3646117"><ele>330.2857142857143</ele><time>2026-04-06T09:01:56.07Z</time></trkpt><trkpt lat="41.0952898" lon="14.3645309"><ele>327.42857142857144</ele><time>2026-04-06T09:01:59.978Z</time></trkpt><trkpt lat="41.0953281" lon="14.364461"><ele>324.57142857142856</ele><time>2026-04-06T09:02:04.107Z</time></trkpt><trkpt lat="41.0953859" lon="14.3644005"><ele>321.7142857142857</ele><time>2026-04-06T09:02:09.069Z</time></trkpt><trkpt lat="41.0954192" lon="14.3643219"><ele>318.8571428571429</ele><time>2026-04-06T09:02:13.087Z</time></trkpt><trkpt lat="41.0954512" lon="14.364249"><ele>316.0</ele><time>2026-04-06T09:02:17Z</time></trkpt><trkpt lat="41.0954976" lon="14.3641709"><ele>316.00000000000006</ele><time>2026-04-06T09:02:20.991Z</time></trkpt><trkpt lat="41.095542" lon="14.3641003"><ele>316.0</ele><time>2026-04-06T09:02:24.074Z</time></trkpt><trkpt lat="41.0956078" lon="14.364028"><ele>316.0</ele><time>2026-04-06T09:02:27.988Z</time></trkpt><trkpt lat="41.0956563" lon="14.3639557"><ele>316.0</ele><time>2026-04-06T09:02:31.027Z</time></trkpt><trkpt lat="41.095692" lon="14.3638816"><ele>316.0</ele><time>2026-04-06T09:02:34.103Z</time></trkpt><trkpt lat="41.0957396" lon="14.3638063"><ele>316.00000000000006</ele><time>2026-04-06T09:02:37.068Z</time></trkpt><trkpt lat="41.0957828" lon="14.3637316"><ele>316.0</ele><time>2026-04-06T09:02:39.987Z</time></trkpt><trkpt lat="41.0958216" lon="14.3636514"><ele>316.00000000000006</ele><time>2026-04-06T09:02:43.005Z</time></trkpt><trkpt lat="41.0958553" lon="14.3635771"><ele>316.0</ele><time>2026-04-06T09:02:46.069Z</time></trkpt><trkpt lat="41.0958919" lon="14.3634862"><ele>316.0</ele><time>2026-04-06T09:02:49.087Z</time></trkpt><trkpt lat="41.0959282" lon="14.3634079"><ele>316.0</ele><time>2026-04-06T09:02:53.069Z</time></trkpt><trkpt lat="41.095976" lon="14.3633429"><ele>316.0</ele><time>2026-04-06T09:02:57.045Z</time></trkpt><trkpt lat="41.0960499" lon="14.3632567"><ele>316.00000000000006</ele><time>2026-04-06T09:03:01.047Z</time></trkpt><trkpt lat="41.0960902" lon="14.3631809"><ele>316.0</ele><time>2026-04-06T09:03:05.092Z</time></trkpt><trkpt lat="41.0961298" lon="14.3631077"><ele>312.42857142857144</ele><time>2026-04-06T09:03:09.061Z</time></trkpt><trkpt lat="41.0961604" lon="14.3630251"><ele>308.8571428571429</ele><time>2026-04-06T09:03:13.051Z</time></trkpt><trkpt lat="41.096177" lon="14.3629333"><ele>305.2857142857143</ele><time>2026-04-06T09:03:17.067Z</time></trkpt><trkpt lat="41.0962195" lon="14.3628613"><ele>301.7142857142857</ele><time>2026-04-06T09:03:21.023Z</time></trkpt><trkpt lat="41.0962648" lon="14.3627968"><ele>298.1428571428571</ele><time>2026-04-06T09:03:26.095Z</time></trkpt><trkpt lat="41.0962999" lon="14.3627114"><ele>294.57142857142856</ele><time>2026-04-06T09:03:31.128Z</time></trkpt><trkpt lat="41.0963529" lon="14.3626311"><ele>291.0</ele><time>2026-04-06T09:03:36.03Z</time></trkpt><trkpt lat="41.0964029" lon="14.3625409"><ele>291.0</ele><time>2026-04-06T09:03:40.981Z</time></trkpt><trkpt lat="41.096463" lon="14.3624993"><ele>291.0</ele><time>2026-04-06T09:03:46.084Z</time></trkpt><trkpt lat="41.0965189" lon="14.3624551"><ele>291.0</ele><time>2026-04-06T09:03:50.006Z</time></trkpt><trkpt lat="41.0965552" lon="14.3623558"><ele>291.0</ele><time>2026-04-06T09:03:54.087Z</time></trkpt><trkpt lat="41.0965995" lon="14.3622854"><ele>291.0</ele><time>2026-04-06T09:03:57.03Z</time></trkpt><trkpt lat="41.096645" lon="14.3622234"><ele>291.0</ele><time>2026-04-06T09:04:00.079Z</time></trkpt><trkpt lat="41.0966885" lon="14.3621384"><ele>291.0</ele><time>2026-04-06T09:04:04.079Z</time></trkpt><trkpt lat="41.0967295" lon="14.3620528"><ele>290.6666666666667</ele><time>2026-04-06T09:04:08.075Z</time></trkpt><trkpt lat="41.0967618" lon="14.3619625"><ele>290.3333333333333</ele><time>2026-04-06T09:04:12.053Z</time></trkpt><trkpt lat="41.0967843" lon="14.3618676"><ele>290.0</ele><time>2026-04-06T09:04:16.092Z</time></trkpt><trkpt lat="41.0967836" lon="14.3617677"><ele>289.66666666666663</ele><time>2026-04-06T09:04:19.998Z</time></trkpt><trkpt lat="41.0968118" lon="14.3616629"><ele>289.3333333333333</ele><time>2026-04-06T09:04:24.084Z</time></trkpt><trkpt lat="41.0968619" lon="14.3615781"><ele>289.0</ele><time>2026-04-06T09:04:28.067Z</time></trkpt><trkpt lat="41.0969202" lon="14.3615382"><ele>289.0</ele><time>2026-04-06T09:04:31.084Z</time></trkpt><trkpt lat="41.0969907" lon="14.3615063"><ele>289.0</ele><time>2026-04-06T09:04:35.084Z</time></trkpt><trkpt lat="41.0969602" lon="14.3614327"><ele>289.0</ele><time>2026-04-06T09:04:40.085Z</time></trkpt><trkpt lat="41.0968875" lon="14.3614711"><ele>289.0</ele><time>2026-04-06T09:04:47.07Z</time></trkpt><trkpt lat="41.0968228" lon="14.3614801"><ele>289.0</ele><time>2026-04-06T09:04:50.044Z</time></trkpt><trkpt lat="41.0967422" lon="14.3614727"><ele>289.0</ele><time>2026-04-06T09:04:55.092Z</time></trkpt><trkpt lat="41.0966606" lon="14.3614973"><ele>289.0</ele><time>2026-04-06T09:04:59.111Z</time></trkpt><trkpt lat="41.0965898" lon="14.3615427"><ele>285.7142857142857</ele><time>2026-04-06T09:05:03.06Z</time></trkpt><trkpt lat="41.0965233" lon="14.3615461"><ele>282.42857142857144</ele><time>2026-04-06T09:05:06.102Z</time></trkpt><trkpt lat="41.0964693" lon="14.3615986"><ele>279.1428571428571</ele><time>2026-04-06T09:05:10.099Z</time></trkpt><trkpt lat="41.0964031" lon="14.3616299"><ele>275.8571428571429</ele><time>2026-04-06T09:05:14.988Z</time></trkpt><trkpt lat="41.096327" lon="14.3616073"><ele>272.57142857142856</ele><time>2026-04-06T09:05:19.063Z</time></trkpt><trkpt lat="41.0962767" lon="14.3616613"><ele>269.2857142857143</ele><time>2026-04-06T09:05:23.075Z</time></trkpt><trkpt lat="41.0962114" lon="14.3617123"><ele>266.0</ele><time>2026-04-06T09:05:27.096Z</time></trkpt><trkpt lat="41.0961371" lon="14.3617168"><ele>266.0</ele><time>2026-04-06T09:05:31.089Z</time></trkpt><trkpt lat="41.0960801" lon="14.361795"><ele>266.0</ele><time>2026-04-06T09:05:35.07Z</time></trkpt><trkpt lat="41.0960192" lon="14.3618585"><ele>266.0</ele><time>2026-04-06T09:05:39.037Z</time></trkpt><trkpt lat="41.0959855" lon="14.3619517"><ele>266.0</ele><time>2026-04-06T09:05:43.091Z</time></trkpt><trkpt lat="41.0959144" lon="14.3619617"><ele>266.0</ele><time>2026-04-06T09:05:46.014Z</time></trkpt><trkpt lat="41.0958624" lon="14.361911"><ele>266.0</ele><time>2026-04-06T09:05:50.008Z</time></trkpt><trkpt lat="41.0959133" lon="14.3618576"><ele>266.0</ele><time>2026-04-06T09:05:54.08Z</time></trkpt><trkpt lat="41.0959601" lon="14.3617729"><ele>266.0</ele><time>2026-04-06T09:05:59.975Z</time></trkpt><trkpt lat="41.0960124" lon="14.3616913"><ele>266.0</ele><time>2026-04-06T09:06:04.093Z</time></trkpt><trkpt lat="41.0960582" lon="14.3616109"><ele>266.0</ele><time>2026-04-06T09:06:08.076Z</time></trkpt><trkpt lat="41.0960989" lon="14.3615274"><ele>266.0</ele><time>2026-04-06T09:06:12.066Z</time></trkpt><trkpt lat="41.0961507" lon="14.3614727"><ele>266.0</ele><time>2026-04-06T09:06:16.015Z</time></trkpt><trkpt lat="41.0961677" lon="14.3613769"><ele>266.0</ele><time>2026-04-06T09:06:20.075Z</time></trkpt><trkpt lat="41.0961753" lon="14.3612849"><ele>266.0</ele><time>2026-04-06T09:06:23.063Z</time></trkpt><trkpt lat="41.0961923" lon="14.3611935"><ele>262.42857142857144</ele><time>2026-04-06T09:06:26.027Z</time></trkpt><trkpt lat="41.096216" lon="14.3611148"><ele>258.8571428571429</ele><time>2026-04-06T09:06:29.079Z</time></trkpt><trkpt lat="41.0962539" lon="14.3610225"><ele>255.28571428571428</ele><time>2026-04-06T09:06:33.069Z</time></trkpt><trkpt lat="41.0962935" lon="14.3609522"><ele>251.71428571428572</ele><time>2026-04-06T09:06:39.08Z</time></trkpt><trkpt lat="41.0963142" lon="14.3608719"><ele>248.14285714285717</ele><time>2026-04-06T09:06:43.068Z</time></trkpt><trkpt lat="41.0963193" lon="14.3607694"><ele>244.57142857142858</ele><time>2026-04-06T09:06:54.079Z</time></trkpt><trkpt lat="41.0963556" lon="14.3606858"><ele>241.0</ele><time>2026-04-06T09:06:58.11Z</time></trkpt><trkpt lat="41.0963932" lon="14.360593"><ele>240.2857142857143</ele><time>2026-04-06T09:07:01.99Z</time></trkpt><trkpt lat="41.0964313" lon="14.3605117"><ele>239.5714285714286</ele><time>2026-04-06T09:07:09.127Z</time></trkpt><trkpt lat="41.0964283" lon="14.3604116"><ele>238.85714285714286</ele><time>2026-04-06T09:07:19.097Z</time></trkpt><trkpt lat="41.0964847" lon="14.3603441"><ele>238.14285714285717</ele><time>2026-04-06T09:07:22.032Z</time></trkpt><trkpt lat="41.0965413" lon="14.3602993"><ele>237.42857142857144</ele><time>2026-04-06T09:07:26.06Z</time></trkpt><trkpt lat="41.0965875" lon="14.360232"><ele>236.71428571428572</ele><time>2026-04-06T09:07:31.066Z</time></trkpt><trkpt lat="41.0966546" lon="14.3602071"><ele>236.0</ele><time>2026-04-06T09:07:34.913Z</time></trkpt><trkpt lat="41.0967264" lon="14.3601938"><ele>236.0</ele><time>2026-04-06T09:07:40.094Z</time></trkpt><trkpt lat="41.0967441" lon="14.3600948"><ele>236.0</ele><time>2026-04-06T09:07:43.997Z</time></trkpt><trkpt lat="41.0967511" lon="14.3600019"><ele>236.0</ele><time>2026-04-06T09:07:54.082Z</time></trkpt><trkpt lat="41.0968053" lon="14.3599584"><ele>236.0</ele><time>2026-04-06T09:07:57.088Z</time></trkpt><trkpt lat="41.0968719" lon="14.3600233"><ele>236.0</ele><time>2026-04-06T09:08:13.087Z</time></trkpt><trkpt lat="41.096844" lon="14.3601141"><ele>236.0</ele><time>2026-04-06T09:08:18.056Z</time></trkpt><trkpt lat="41.0967647" lon="14.3600983"><ele>236.0</ele><time>2026-04-06T09:08:20.063Z</time></trkpt><trkpt lat="41.0967845" lon="14.3600082"><ele>236.00000000000003</ele><time>2026-04-06T09:08:24.083Z</time></trkpt><trkpt lat="41.096853" lon="14.3599108"><ele>236.0</ele><time>2026-04-06T09:08:27.085Z</time></trkpt><trkpt lat="41.0969371" lon="14.3599302"><ele>236.0</ele><time>2026-04-06T09:08:31.069Z</time></trkpt><trkpt lat="41.0970097" lon="14.3599319"><ele>236.0</ele><time>2026-04-06T09:08:33.109Z</time></trkpt><trkpt lat="41.0971022" lon="14.3598832"><ele>236.00000000000003</ele><time>2026-04-06T09:08:36.082Z</time></trkpt><trkpt lat="41.0970537" lon="14.3598258"><ele>236.0</ele><time>2026-04-06T09:08:41.055Z</time></trkpt><trkpt lat="41.096986" lon="14.3598382"><ele>236.0</ele><time>2026-04-06T09:08:48.041Z</time></trkpt><trkpt lat="41.0969112" lon="14.3598355"><ele>236.0</ele><time>2026-04-06T09:08:52.042Z</time></trkpt><trkpt lat="41.0968448" lon="14.3598694"><ele>236.0</ele><time>2026-04-06T09:08:57.069Z</time></trkpt><trkpt lat="41.0967841" lon="14.3599007"><ele>236.0</ele><time>2026-04-06T09:09:02.07Z</time></trkpt><trkpt lat="41.0967214" lon="14.3599548"><ele>236.0</ele><time>2026-04-06T09:09:07.067Z</time></trkpt><trkpt lat="41.096653" lon="14.3599773"><ele>236.0</ele><time>2026-04-06T09:09:14.09Z</time></trkpt><trkpt lat="41.0965969" lon="14.3600154"><ele>236.0</ele><time>2026-04-06T09:09:19.094Z</time></trkpt><trkpt lat="41.0965275" lon="14.3600399"><ele>233.57142857142856</ele><time>2026-04-06T09:09:24.087Z</time></trkpt><trkpt lat="41.0964516" lon="14.3600459"><ele>231.14285714285717</ele><time>2026-04-06T09:09:29.083Z</time></trkpt><trkpt lat="41.0963874" lon="14.3600771"><ele>228.71428571428572</ele><time>2026-04-06T09:09:34.078Z</time></trkpt><trkpt lat="41.0963234" lon="14.3601032"><ele>226.28571428571428</ele><time>2026-04-06T09:09:39.076Z</time></trkpt><trkpt lat="41.0962495" lon="14.3600939"><ele>223.85714285714283</ele><time>2026-04-06T09:09:44.112Z</time></trkpt><trkpt lat="41.0961717" lon="14.3601138"><ele>221.42857142857144</ele><time>2026-04-06T09:09:50.048Z</time></trkpt><trkpt lat="41.0962425" lon="14.3600974"><ele>219.0</ele><time>2026-04-06T09:10:01.043Z</time></trkpt><trkpt lat="41.0961619" lon="14.3601157"><ele>219.0</ele><time>2026-04-06T09:10:06.055Z</time></trkpt><trkpt lat="41.0961026" lon="14.3601535"><ele>219.0</ele><time>2026-04-06T09:10:09.051Z</time></trkpt><trkpt lat="41.096019" lon="14.3602032"><ele>219.0</ele><time>2026-04-06T09:10:14.047Z</time></trkpt><trkpt lat="41.095951" lon="14.3602426"><ele>219.0</ele><time>2026-04-06T09:10:18.054Z</time></trkpt><trkpt lat="41.0958972" lon="14.3602879"><ele>219.0</ele><time>2026-04-06T09:10:24.064Z</time></trkpt><trkpt lat="41.0958482" lon="14.3603429"><ele>219.0</ele><time>2026-04-06T09:10:28.073Z</time></trkpt><trkpt lat="41.0957855" lon="14.3603827"><ele>219.0</ele><time>2026-04-06T09:10:33.08Z</time></trkpt><trkpt lat="41.0957197" lon="14.3604228"><ele>218.57142857142858</ele><time>2026-04-06T09:10:39.087Z</time></trkpt><trkpt lat="41.0956596" lon="14.3604587"><ele>218.14285714285714</ele><time>2026-04-06T09:10:45.062Z</time></trkpt><trkpt lat="41.0955975" lon="14.3604919"><ele>217.71428571428572</ele><time>2026-04-06T09:10:50.076Z</time></trkpt><trkpt lat="41.0955386" lon="14.360533"><ele>217.28571428571428</ele><time>2026-04-06T09:10:57.062Z</time></trkpt><trkpt lat="41.0954831" lon="14.3605849"><ele>216.85714285714283</ele><time>2026-04-06T09:11:01.064Z</time></trkpt><trkpt lat="41.0954091" lon="14.3605823"><ele>216.42857142857142</ele><time>2026-04-06T09:11:05.009Z</time></trkpt><trkpt lat="41.0954228" lon="14.3604831"><ele>216.0</ele><time>2026-04-06T09:11:09.03Z</time></trkpt><trkpt lat="41.0954625" lon="14.3603921"><ele>214.28571428571428</ele><time>2026-04-06T09:11:14.067Z</time></trkpt><trkpt lat="41.0954893" lon="14.3603048"><ele>212.57142857142856</ele><time>2026-04-06T09:11:20.066Z</time></trkpt><trkpt lat="41.0955221" lon="14.3602329"><ele>210.85714285714286</ele><time>2026-04-06T09:11:29.071Z</time></trkpt><trkpt lat="41.0955705" lon="14.360156"><ele>209.14285714285714</ele><time>2026-04-06T09:11:32.072Z</time></trkpt><trkpt lat="41.0955953" lon="14.3600734"><ele>207.42857142857144</ele><time>2026-04-06T09:11:40.054Z</time></trkpt><trkpt lat="41.0956298" lon="14.359981"><ele>205.71428571428572</ele><time>2026-04-06T09:11:49.05Z</time></trkpt><trkpt lat="41.0956606" lon="14.3598992"><ele>204.0</ele><time>2026-04-06T09:11:54.049Z</time></trkpt><trkpt lat="41.0955976" lon="14.3598732"><ele>204.0</ele><time>2026-04-06T09:11:59.052Z</time></trkpt><trkpt lat="41.0955398" lon="14.3599071"><ele>204.0</ele><time>2026-04-06T09:12:05.056Z</time></trkpt><trkpt lat="41.0954561" lon="14.3598932"><ele>204.0</ele><time>2026-04-06T09:12:12.058Z</time></trkpt><trkpt lat="41.0954075" lon="14.35984"><ele>204.0</ele><time>2026-04-06T09:12:15.055Z</time></trkpt><trkpt lat="41.0953384" lon="14.3597883"><ele>204.0</ele><time>2026-04-06T09:12:22.04Z</time></trkpt><trkpt lat="41.0953073" lon="14.3597116"><ele>204.0</ele><time>2026-04-06T09:12:30.066Z</time></trkpt><trkpt lat="41.0952578" lon="14.3596591"><ele>204.0</ele><time>2026-04-06T09:12:36.065Z</time></trkpt><trkpt lat="41.0952016" lon="14.3597515"><ele>204.0</ele><time>2026-04-06T09:12:42.098Z</time></trkpt><trkpt lat="41.0951322" lon="14.3598098"><ele>204.0</ele><time>2026-04-06T09:12:46.064Z</time></trkpt><trkpt lat="41.0950792" lon="14.3598769"><ele>204.0</ele><time>2026-04-06T09:12:55.078Z</time></trkpt><trkpt lat="41.0950126" lon="14.3598795"><ele>204.0</ele><time>2026-04-06T09:13:01.064Z</time></trkpt><trkpt lat="41.0950474" lon="14.3599695"><ele>204.0</ele><time>2026-04-06T09:13:07.063Z</time></trkpt><trkpt lat="41.095022" lon="14.3600656"><ele>204.0</ele><time>2026-04-06T09:13:10.076Z</time></trkpt><trkpt lat="41.0949483" lon="14.3600924"><ele>202.16666666666666</ele><time>2026-04-06T09:13:14.095Z</time></trkpt><trkpt lat="41.0948722" lon="14.3601282"><ele>200.33333333333331</ele><time>2026-04-06T09:13:17.08Z</time></trkpt><trkpt lat="41.0948058" lon="14.3600675"><ele>198.5</ele><time>2026-04-06T09:13:20.01Z</time></trkpt><trkpt lat="41.0947623" lon="14.3599871"><ele>196.66666666666666</ele><time>2026-04-06T09:13:22.944Z</time></trkpt><trkpt lat="41.0947104" lon="14.3599027"><ele>194.83333333333331</ele><time>2026-04-06T09:13:26.929Z</time></trkpt><trkpt lat="41.0946574" lon="14.3598429"><ele>193.0</ele><time>2026-04-06T09:13:30.008Z</time></trkpt><trkpt lat="41.09459" lon="14.3597848"><ele>192.99999999999997</ele><time>2026-04-06T09:13:33.113Z</time></trkpt><trkpt lat="41.0945218" lon="14.3597189"><ele>193.0</ele><time>2026-04-06T09:13:36.081Z</time></trkpt><trkpt lat="41.094456" lon="14.3596471"><ele>193.0</ele><time>2026-04-06T09:13:39.064Z</time></trkpt><trkpt lat="41.0944009" lon="14.3595744"><ele>193.0</ele><time>2026-04-06T09:13:41.966Z</time></trkpt><trkpt lat="41.0943456" lon="14.3594932"><ele>192.99999999999997</ele><time>2026-04-06T09:13:44.906Z</time></trkpt><trkpt lat="41.0943017" lon="14.3594309"><ele>193.0</ele><time>2026-04-06T09:13:46.909Z</time></trkpt><trkpt lat="41.0942647" lon="14.3593603"><ele>192.00000000000003</ele><time>2026-04-06T09:13:48.868Z</time></trkpt><trkpt lat="41.0942266" lon="14.3592868"><ele>191.0</ele><time>2026-04-06T09:13:50.888Z</time></trkpt><trkpt lat="41.0941916" lon="14.3592169"><ele>190.0</ele><time>2026-04-06T09:13:52.851Z</time></trkpt><trkpt lat="41.0941568" lon="14.3591372"><ele>189.0</ele><time>2026-04-06T09:13:54.89Z</time></trkpt><trkpt lat="41.0941221" lon="14.3590591"><ele>188.0</ele><time>2026-04-06T09:13:56.911Z</time></trkpt><trkpt lat="41.0940846" lon="14.358967"><ele>187.00000000000003</ele><time>2026-04-06T09:13:58.87Z</time></trkpt><trkpt lat="41.0940468" lon="14.3588696"><ele>186.0</ele><time>2026-04-06T09:14:00.949Z</time></trkpt><trkpt lat="41.0940006" lon="14.3587715"><ele>183.85714285714286</ele><time>2026-04-06T09:14:04.012Z</time></trkpt><trkpt lat="41.0939573" lon="14.3586898"><ele>181.71428571428572</ele><time>2026-04-06T09:14:06.104Z</time></trkpt><trkpt lat="41.0939082" lon="14.3586106"><ele>179.57142857142856</ele><time>2026-04-06T09:14:09.074Z</time></trkpt><trkpt lat="41.0938771" lon="14.3585314"><ele>177.42857142857144</ele><time>2026-04-06T09:14:11.084Z</time></trkpt><trkpt lat="41.0938415" lon="14.3584405"><ele>175.28571428571428</ele><time>2026-04-06T09:14:14.055Z</time></trkpt><trkpt lat="41.0938115" lon="14.3583568"><ele>173.14285714285714</ele><time>2026-04-06T09:14:17.042Z</time></trkpt><trkpt lat="41.0937884" lon="14.3582651"><ele>171.0</ele><time>2026-04-06T09:14:20.123Z</time></trkpt><trkpt lat="41.0937847" lon="14.3581668"><ele>171.0</ele><time>2026-04-06T09:14:23.122Z</time></trkpt><trkpt lat="41.0938102" lon="14.3580531"><ele>171.0</ele><time>2026-04-06T09:14:26.083Z</time></trkpt><trkpt lat="41.0938343" lon="14.3579449"><ele>171.0</ele><time>2026-04-06T09:14:29.06Z</time></trkpt><trkpt lat="41.0938544" lon="14.3578599"><ele>171.0</ele><time>2026-04-06T09:14:32.072Z</time></trkpt><trkpt lat="41.0938919" lon="14.3577679"><ele>171.0</ele><time>2026-04-06T09:14:35.006Z</time></trkpt><trkpt lat="41.0939513" lon="14.3576806"><ele>171.0</ele><time>2026-04-06T09:14:38.083Z</time></trkpt><trkpt lat="41.0939828" lon="14.3575799"><ele>170.33333333333334</ele><time>2026-04-06T09:14:41.088Z</time></trkpt><trkpt lat="41.0939993" lon="14.3574724"><ele>169.66666666666666</ele><time>2026-04-06T09:14:44.079Z</time></trkpt><trkpt lat="41.0940177" lon="14.3573872"><ele>169.0</ele><time>2026-04-06T09:14:46.692Z</time></trkpt><trkpt lat="41.094042" lon="14.3572947"><ele>168.33333333333331</ele><time>2026-04-06T09:14:49.052Z</time></trkpt><trkpt lat="41.0940728" lon="14.3571992"><ele>167.66666666666666</ele><time>2026-04-06T09:14:51.063Z</time></trkpt><trkpt lat="41.0941054" lon="14.3571248"><ele>167.0</ele><time>2026-04-06T09:14:53.095Z</time></trkpt><trkpt lat="41.0941314" lon="14.3570138"><ele>167.0</ele><time>2026-04-06T09:14:56.086Z</time></trkpt><trkpt lat="41.0941386" lon="14.3569108"><ele>167.0</ele><time>2026-04-06T09:14:59.084Z</time></trkpt><trkpt lat="41.0941301" lon="14.3568018"><ele>167.0</ele><time>2026-04-06T09:15:02.085Z</time></trkpt><trkpt lat="41.0941395" lon="14.3566935"><ele>167.0</ele><time>2026-04-06T09:15:05.076Z</time></trkpt><trkpt lat="41.0941586" lon="14.3565829"><ele>167.0</ele><time>2026-04-06T09:15:07.972Z</time></trkpt><trkpt lat="41.0941811" lon="14.3564628"><ele>167.0</ele><time>2026-04-06T09:15:11.07Z</time></trkpt><trkpt lat="41.0941845" lon="14.3563576"><ele>166.16666666666666</ele><time>2026-04-06T09:15:14.053Z</time></trkpt><trkpt lat="41.0941918" lon="14.3562562"><ele>165.33333333333331</ele><time>2026-04-06T09:15:17.078Z</time></trkpt><trkpt lat="41.0942459" lon="14.3562055"><ele>164.5</ele><time>2026-04-06T09:15:19.08Z</time></trkpt><trkpt lat="41.0943123" lon="14.3561512"><ele>163.66666666666666</ele><time>2026-04-06T09:15:22.028Z</time></trkpt><trkpt lat="41.0943609" lon="14.3560694"><ele>162.83333333333334</ele><time>2026-04-06T09:15:25.1Z</time></trkpt><trkpt lat="41.0944293" lon="14.3560007"><ele>162.0</ele><time>2026-04-06T09:15:28.033Z</time></trkpt><trkpt lat="41.0945119" lon="14.3559935"><ele>162.0</ele><time>2026-04-06T09:15:31.093Z</time></trkpt><trkpt lat="41.0945836" lon="14.3560097"><ele>162.0</ele><time>2026-04-06T09:15:33.973Z</time></trkpt><trkpt lat="41.09466" lon="14.3560059"><ele>162.0</ele><time>2026-04-06T09:15:39.081Z</time></trkpt><trkpt lat="41.0947331" lon="14.3560051"><ele>162.0</ele><time>2026-04-06T09:15:42.074Z</time></trkpt><trkpt lat="41.0946027" lon="14.3558721"><ele>162.0</ele><time>2026-04-06T09:15:43.049Z</time></trkpt><trkpt lat="41.0945355" lon="14.3558048"><ele>162.0</ele><time>2026-04-06T09:15:44.072Z</time></trkpt><trkpt lat="41.0944568" lon="14.3557229"><ele>162.0</ele><time>2026-04-06T09:15:45.076Z</time></trkpt><trkpt lat="41.0944399" lon="14.3556349"><ele>162.0</ele><time>2026-04-06T09:15:46.069Z</time></trkpt><trkpt lat="41.0944466" lon="14.3555293"><ele>162.0</ele><time>2026-04-06T09:15:48.057Z</time></trkpt><trkpt lat="41.0944435" lon="14.3554159"><ele>162.0</ele><time>2026-04-06T09:15:51.045Z</time></trkpt><trkpt lat="41.0944702" lon="14.3553326"><ele>162.0</ele><time>2026-04-06T09:15:53.075Z</time></trkpt><trkpt lat="41.0944845" lon="14.3552338"><ele>161.0</ele><time>2026-04-06T09:15:55.029Z</time></trkpt><trkpt lat="41.0944916" lon="14.3551295"><ele>160.0</ele><time>2026-04-06T09:15:57.114Z</time></trkpt><trkpt lat="41.0944991" lon="14.3550411"><ele>159.0</ele><time>2026-04-06T09:15:59.059Z</time></trkpt><trkpt lat="41.0945099" lon="14.3549125"><ele>158.0</ele><time>2026-04-06T09:16:02.016Z</time></trkpt><trkpt lat="41.0945239" lon="14.3548234"><ele>157.0</ele><time>2026-04-06T09:16:04.1Z</time></trkpt><trkpt lat="41.0945236" lon="14.3547219"><ele>156.0</ele><time>2026-04-06T09:16:07.065Z</time></trkpt><trkpt lat="41.094504" lon="14.3546352"><ele>155.5</ele><time>2026-04-06T09:16:10.095Z</time></trkpt><trkpt lat="41.0944188" lon="14.3545853"><ele>155.0</ele><time>2026-04-06T09:16:13.072Z</time></trkpt><trkpt lat="41.0943566" lon="14.354498"><ele>154.5</ele><time>2026-04-06T09:16:16.061Z</time></trkpt><trkpt lat="41.0943249" lon="14.3544062"><ele>154.0</ele><time>2026-04-06T09:16:17.993Z</time></trkpt><trkpt lat="41.0942871" lon="14.3543199"><ele>153.5</ele><time>2026-04-06T09:16:20.036Z</time></trkpt><trkpt lat="41.0942469" lon="14.3542343"><ele>153.0</ele><time>2026-04-06T09:16:22.066Z</time></trkpt><trkpt lat="41.0941986" lon="14.3541538"><ele>153.0</ele><time>2026-04-06T09:16:24.082Z</time></trkpt><trkpt lat="41.0941545" lon="14.3540924"><ele>153.0</ele><time>2026-04-06T09:16:26.077Z</time></trkpt><trkpt lat="41.0940953" lon="14.3540438"><ele>153.0</ele><time>2026-04-06T09:16:28.072Z</time></trkpt><trkpt lat="41.0940126" lon="14.3540013"><ele>153.0</ele><time>2026-04-06T09:16:31.108Z</time></trkpt><trkpt lat="41.0939491" lon="14.3539666"><ele>153.0</ele><time>2026-04-06T09:16:34.075Z</time></trkpt><trkpt lat="41.0938826" lon="14.3539431"><ele>153.0</ele><time>2026-04-06T09:16:37.082Z</time></trkpt><trkpt lat="41.093819" lon="14.3539233"><ele>153.0</ele><time>2026-04-06T09:16:40.092Z</time></trkpt><trkpt lat="41.0937477" lon="14.3538931"><ele>152.28571428571428</ele><time>2026-04-06T09:16:43.992Z</time></trkpt><trkpt lat="41.0936809" lon="14.3538752"><ele>151.57142857142858</ele><time>2026-04-06T09:16:47.052Z</time></trkpt><trkpt lat="41.0936153" lon="14.3538619"><ele>150.85714285714286</ele><time>2026-04-06T09:16:50.083Z</time></trkpt><trkpt lat="41.0935473" lon="14.3538402"><ele>150.14285714285714</ele><time>2026-04-06T09:16:53.062Z</time></trkpt><trkpt lat="41.093473" lon="14.3538234"><ele>149.42857142857142</ele><time>2026-04-06T09:16:55.973Z</time></trkpt><trkpt lat="41.0933958" lon="14.3538073"><ele>148.71428571428572</ele><time>2026-04-06T09:16:59.112Z</time></trkpt><trkpt lat="41.0933128" lon="14.3537932"><ele>148.0</ele><time>2026-04-06T09:17:02.078Z</time></trkpt><trkpt lat="41.0932227" lon="14.3537898"><ele>146.66666666666669</ele><time>2026-04-06T09:17:05.062Z</time></trkpt><trkpt lat="41.0931461" lon="14.3537951"><ele>145.33333333333334</ele><time>2026-04-06T09:17:07.091Z</time></trkpt><trkpt lat="41.0930751" lon="14.3537984"><ele>144.0</ele><time>2026-04-06T09:17:09.067Z</time></trkpt><trkpt lat="41.0929852" lon="14.3537981"><ele>142.66666666666666</ele><time>2026-04-06T09:17:12.077Z</time></trkpt><trkpt lat="41.0929026" lon="14.3537775"><ele>141.33333333333331</ele><time>2026-04-06T09:17:15.071Z</time></trkpt><trkpt lat="41.0928251" lon="14.3537506"><ele>140.0</ele><time>2026-04-06T09:17:18.067Z</time></trkpt><trkpt lat="41.0927586" lon="14.3536994"><ele>140.0</ele><time>2026-04-06T09:17:21.073Z</time></trkpt><trkpt lat="41.0927126" lon="14.3536388"><ele>140.0</ele><time>2026-04-06T09:17:23.995Z</time></trkpt><trkpt lat="41.0926737" lon="14.3535675"><ele>140.0</ele><time>2026-04-06T09:17:27.092Z</time></trkpt><trkpt lat="41.0926121" lon="14.353507"><ele>140.0</ele><time>2026-04-06T09:17:30.072Z</time></trkpt><trkpt lat="41.0925695" lon="14.3534102"><ele>140.0</ele><time>2026-04-06T09:17:33.03Z</time></trkpt><trkpt lat="41.0925552" lon="14.3533145"><ele>140.0</ele><time>2026-04-06T09:17:35.13Z</time></trkpt><trkpt lat="41.0925779" lon="14.3532135"><ele>140.0</ele><time>2026-04-06T09:17:37.048Z</time></trkpt><trkpt lat="41.0925997" lon="14.3531341"><ele>139.57142857142858</ele><time>2026-04-06T09:17:39.081Z</time></trkpt><trkpt lat="41.0926165" lon="14.353029"><ele>139.14285714285714</ele><time>2026-04-06T09:17:42.085Z</time></trkpt><trkpt lat="41.0926109" lon="14.3529381"><ele>138.71428571428572</ele><time>2026-04-06T09:17:45.068Z</time></trkpt><trkpt lat="41.0925713" lon="14.352846"><ele>138.28571428571428</ele><time>2026-04-06T09:17:47.987Z</time></trkpt><trkpt lat="41.0925345" lon="14.352776"><ele>137.85714285714286</ele><time>2026-04-06T09:17:50.051Z</time></trkpt><trkpt lat="41.0925044" lon="14.3527004"><ele>137.42857142857144</ele><time>2026-04-06T09:17:52.08Z</time></trkpt><trkpt lat="41.0924656" lon="14.352599"><ele>137.0</ele><time>2026-04-06T09:17:55.091Z</time></trkpt><trkpt lat="41.0924589" lon="14.3524878"><ele>137.0</ele><time>2026-04-06T09:17:58.089Z</time></trkpt><trkpt lat="41.0924873" lon="14.3524121"><ele>137.0</ele><time>2026-04-06T09:18:00.058Z</time></trkpt><trkpt lat="41.0925072" lon="14.3522992"><ele>137.0</ele><time>2026-04-06T09:18:02.97Z</time></trkpt><trkpt lat="41.0925188" lon="14.3521995"><ele>137.0</ele><time>2026-04-06T09:18:06.073Z</time></trkpt><trkpt lat="41.092529" lon="14.352097"><ele>137.0</ele><time>2026-04-06T09:18:09.083Z</time></trkpt><trkpt lat="41.0925336" lon="14.3519956"><ele>137.0</ele><time>2026-04-06T09:18:12.067Z</time></trkpt><trkpt lat="41.0925486" lon="14.3518686"><ele>136.5</ele><time>2026-04-06T09:18:15.075Z</time></trkpt><trkpt lat="41.0925586" lon="14.3517858"><ele>136.0</ele><time>2026-04-06T09:18:17.101Z</time></trkpt><trkpt lat="41.0925684" lon="14.3516852"><ele>135.5</ele><time>2026-04-06T09:18:20.015Z</time></trkpt><trkpt lat="41.0925834" lon="14.3515934"><ele>135.0</ele><time>2026-04-06T09:18:22.113Z</time></trkpt><trkpt lat="41.0926121" lon="14.3514809"><ele>134.5</ele><time>2026-04-06T09:18:25.075Z</time></trkpt><trkpt lat="41.0926414" lon="14.3513789"><ele>134.0</ele><time>2026-04-06T09:18:28.054Z</time></trkpt><trkpt lat="41.0926482" lon="14.3512567"><ele>133.66666666666666</ele><time>2026-04-06T09:18:31.067Z</time></trkpt><trkpt lat="41.0926383" lon="14.3511279"><ele>133.33333333333331</ele><time>2026-04-06T09:18:34.096Z</time></trkpt><trkpt lat="41.0926383" lon="14.3510421"><ele>133.0</ele><time>2026-04-06T09:18:35.967Z</time></trkpt><trkpt lat="41.0926062" lon="14.3509499"><ele>132.66666666666666</ele><time>2026-04-06T09:18:39.07Z</time></trkpt><trkpt lat="41.0925493" lon="14.3508605"><ele>132.33333333333334</ele><time>2026-04-06T09:18:42.067Z</time></trkpt><trkpt lat="41.0924941" lon="14.3507908"><ele>132.0</ele><time>2026-04-06T09:18:45.009Z</time></trkpt><trkpt lat="41.0924126" lon="14.3507461"><ele>131.33333333333334</ele><time>2026-04-06T09:18:48.094Z</time></trkpt><trkpt lat="41.0923393" lon="14.3507085"><ele>130.66666666666666</ele><time>2026-04-06T09:18:50.07Z</time></trkpt><trkpt lat="41.0922657" lon="14.3506651"><ele>130.0</ele><time>2026-04-06T09:18:53.049Z</time></trkpt><trkpt lat="41.0922047" lon="14.3505967"><ele>129.33333333333331</ele><time>2026-04-06T09:18:56.076Z</time></trkpt><trkpt lat="41.0921646" lon="14.3504961"><ele>128.66666666666666</ele><time>2026-04-06T09:18:59.068Z</time></trkpt><trkpt lat="41.0921488" lon="14.3504006"><ele>128.0</ele><time>2026-04-06T09:19:01.062Z</time></trkpt><trkpt lat="41.0921447" lon="14.3503156"><ele>127.66666666666666</ele><time>2026-04-06T09:19:03.029Z</time></trkpt><trkpt lat="41.0921497" lon="14.350223"><ele>127.33333333333333</ele><time>2026-04-06T09:19:05.081Z</time></trkpt><trkpt lat="41.092148" lon="14.3501135"><ele>127.0</ele><time>2026-04-06T09:19:07.969Z</time></trkpt><trkpt lat="41.0921477" lon="14.3500113"><ele>126.66666666666666</ele><time>2026-04-06T09:19:11.075Z</time></trkpt><trkpt lat="41.0921518" lon="14.349912"><ele>126.33333333333333</ele><time>2026-04-06T09:19:14.077Z</time></trkpt><trkpt lat="41.0921662" lon="14.3498233"><ele>126.0</ele><time>2026-04-06T09:19:17.031Z</time></trkpt><trkpt lat="41.0922144" lon="14.3497409"><ele>125.83333333333333</ele><time>2026-04-06T09:19:20.067Z</time></trkpt><trkpt lat="41.0922389" lon="14.349634"><ele>125.66666666666666</ele><time>2026-04-06T09:19:23.007Z</time></trkpt><trkpt lat="41.0922418" lon="14.3495239"><ele>125.5</ele><time>2026-04-06T09:19:26.082Z</time></trkpt><trkpt lat="41.0921832" lon="14.3494394"><ele>125.33333333333333</ele><time>2026-04-06T09:19:29.067Z</time></trkpt><trkpt lat="41.0921103" lon="14.3493655"><ele>125.16666666666666</ele><time>2026-04-06T09:19:32.152Z</time></trkpt><trkpt lat="41.092091" lon="14.3492727"><ele>125.0</ele><time>2026-04-06T09:19:35.059Z</time></trkpt><trkpt lat="41.0920977" lon="14.3491829"><ele>124.99999999999999</ele><time>2026-04-06T09:19:38.082Z</time></trkpt><trkpt lat="41.0921122" lon="14.3490982"><ele>125.0</ele><time>2026-04-06T09:19:40.055Z</time></trkpt><trkpt lat="41.0921261" lon="14.3490063"><ele>125.0</ele><time>2026-04-06T09:19:42.082Z</time></trkpt><trkpt lat="41.0921366" lon="14.3488922"><ele>125.0</ele><time>2026-04-06T09:19:44.995Z</time></trkpt><trkpt lat="41.0921415" lon="14.3487791"><ele>124.99999999999999</ele><time>2026-04-06T09:19:48.08Z</time></trkpt><trkpt lat="41.0921434" lon="14.3486931"><ele>125.0</ele><time>2026-04-06T09:19:50.103Z</time></trkpt><trkpt lat="41.0921485" lon="14.3485775"><ele>124.49999999999999</ele><time>2026-04-06T09:19:53.037Z</time></trkpt><trkpt lat="41.0921501" lon="14.3484447"><ele>124.0</ele><time>2026-04-06T09:19:56.083Z</time></trkpt><trkpt lat="41.0921472" lon="14.3483601"><ele>123.5</ele><time>2026-04-06T09:19:58.095Z</time></trkpt><trkpt lat="41.0921397" lon="14.3482556"><ele>123.0</ele><time>2026-04-06T09:20:01.035Z</time></trkpt><trkpt lat="41.0921281" lon="14.348155"><ele>122.49999999999999</ele><time>2026-04-06T09:20:04.12Z</time></trkpt><trkpt lat="41.0921275" lon="14.3480425"><ele>122.0</ele><time>2026-04-06T09:20:07.988Z</time></trkpt><trkpt lat="41.0921401" lon="14.347921"><ele>121.7142857142857</ele><time>2026-04-06T09:20:11.102Z</time></trkpt><trkpt lat="41.0921543" lon="14.347832"><ele>121.42857142857142</ele><time>2026-04-06T09:20:13.092Z</time></trkpt><trkpt lat="41.0921446" lon="14.3477208"><ele>121.14285714285714</ele><time>2026-04-06T09:20:15.116Z</time></trkpt><trkpt lat="41.0921321" lon="14.3476258"><ele>120.85714285714285</ele><time>2026-04-06T09:20:17.115Z</time></trkpt><trkpt lat="41.092111" lon="14.3475465"><ele>120.57142857142856</ele><time>2026-04-06T09:20:19.055Z</time></trkpt><trkpt lat="41.092087" lon="14.3474663"><ele>120.28571428571429</ele><time>2026-04-06T09:20:21.093Z</time></trkpt><trkpt lat="41.0920525" lon="14.3473599"><ele>120.0</ele><time>2026-04-06T09:20:24.061Z</time></trkpt><trkpt lat="41.0920086" lon="14.3472603"><ele>119.83333333333333</ele><time>2026-04-06T09:20:26.994Z</time></trkpt><trkpt lat="41.0919601" lon="14.3471628"><ele>119.66666666666666</ele><time>2026-04-06T09:20:30.119Z</time></trkpt><trkpt lat="41.0919176" lon="14.347065"><ele>119.5</ele><time>2026-04-06T09:20:33.093Z</time></trkpt><trkpt lat="41.0918759" lon="14.3469762"><ele>119.33333333333333</ele><time>2026-04-06T09:20:36.091Z</time></trkpt><trkpt lat="41.0918246" lon="14.3468711"><ele>119.16666666666666</ele><time>2026-04-06T09:20:39.055Z</time></trkpt><trkpt lat="41.0917806" lon="14.34678"><ele>119.0</ele><time>2026-04-06T09:20:41.1Z</time></trkpt><trkpt lat="41.0917502" lon="14.3467028"><ele>118.99999999999999</ele><time>2026-04-06T09:20:43.084Z</time></trkpt><trkpt lat="41.0917158" lon="14.3465977"><ele>119.0</ele><time>2026-04-06T09:20:46.102Z</time></trkpt><trkpt lat="41.0916822" lon="14.3465137"><ele>119.0</ele><time>2026-04-06T09:20:49.075Z</time></trkpt><trkpt lat="41.0916706" lon="14.3464188"><ele>119.0</ele><time>2026-04-06T09:20:52.099Z</time></trkpt><trkpt lat="41.0916415" lon="14.3463293"><ele>118.99999999999999</ele><time>2026-04-06T09:20:55.112Z</time></trkpt><trkpt lat="41.091613" lon="14.3462273"><ele>119.0</ele><time>2026-04-06T09:20:58.074Z</time></trkpt><trkpt lat="41.0915868" lon="14.3461258"><ele>117.83333333333333</ele><time>2026-04-06T09:21:01.092Z</time></trkpt><trkpt lat="41.0915504" lon="14.3460109"><ele>116.66666666666666</ele><time>2026-04-06T09:21:04.079Z</time></trkpt><trkpt lat="41.0915263" lon="14.3458968"><ele>115.5</ele><time>2026-04-06T09:21:06.999Z</time></trkpt><trkpt lat="41.0914975" lon="14.345781"><ele>114.33333333333334</ele><time>2026-04-06T09:21:10.142Z</time></trkpt><trkpt lat="41.0914702" lon="14.3457046"><ele>113.16666666666667</ele><time>2026-04-06T09:21:12.07Z</time></trkpt><trkpt lat="41.0914305" lon="14.3456044"><ele>112.0</ele><time>2026-04-06T09:21:15.063Z</time></trkpt><trkpt lat="41.0914016" lon="14.3455217"><ele>112.00000000000001</ele><time>2026-04-06T09:21:18.041Z</time></trkpt><trkpt lat="41.0913667" lon="14.3454015"><ele>112.0</ele><time>2026-04-06T09:21:21.073Z</time></trkpt><trkpt lat="41.0913333" lon="14.3452781"><ele>112.0</ele><time>2026-04-06T09:21:24.086Z</time></trkpt><trkpt lat="41.0913118" lon="14.3451985"><ele>112.0</ele><time>2026-04-06T09:21:26.077Z</time></trkpt><trkpt lat="41.0912824" lon="14.3450821"><ele>112.00000000000001</ele><time>2026-04-06T09:21:29.015Z</time></trkpt><trkpt lat="41.091262" lon="14.3449902"><ele>112.0</ele><time>2026-04-06T09:21:31.087Z</time></trkpt><trkpt lat="41.0912422" lon="14.3448953"><ele>112.0</ele><time>2026-04-06T09:21:33.062Z</time></trkpt><trkpt lat="41.0912267" lon="14.3448006"><ele>112.0</ele><time>2026-04-06T09:21:35.007Z</time></trkpt><trkpt lat="41.0912157" lon="14.344703"><ele>112.0</ele><time>2026-04-06T09:21:37.098Z</time></trkpt><trkpt lat="41.0912078" lon="14.344597"><ele>112.0</ele><time>2026-04-06T09:21:40.081Z</time></trkpt><trkpt lat="41.0911888" lon="14.3445154"><ele>112.0</ele><time>2026-04-06T09:21:43.102Z</time></trkpt><trkpt lat="41.0911671" lon="14.3444204"><ele>112.0</ele><time>2026-04-06T09:21:46.083Z</time></trkpt><trkpt lat="41.0911449" lon="14.3443251"><ele>112.0</ele><time>2026-04-06T09:21:49.112Z</time></trkpt><trkpt lat="41.0911151" lon="14.3442341"><ele>111.83333333333334</ele><time>2026-04-06T09:21:52.083Z</time></trkpt><trkpt lat="41.0910826" lon="14.3441375"><ele>111.66666666666667</ele><time>2026-04-06T09:21:55.097Z</time></trkpt><trkpt lat="41.0910566" lon="14.3440395"><ele>111.5</ele><time>2026-04-06T09:21:58.088Z</time></trkpt><trkpt lat="41.0910369" lon="14.3439483"><ele>111.33333333333334</ele><time>2026-04-06T09:22:01.059Z</time></trkpt><trkpt lat="41.091023" lon="14.3438393"><ele>111.16666666666667</ele><time>2026-04-06T09:22:05.075Z</time></trkpt><trkpt lat="41.0910102" lon="14.3437508"><ele>111.0</ele><time>2026-04-06T09:22:08.095Z</time></trkpt><trkpt lat="41.0910445" lon="14.3436658"><ele>110.85714285714285</ele><time>2026-04-06T09:22:11.034Z</time></trkpt><trkpt lat="41.0910509" lon="14.3435825"><ele>110.71428571428572</ele><time>2026-04-06T09:22:13.072Z</time></trkpt><trkpt lat="41.0910435" lon="14.3434555"><ele>110.57142857142857</ele><time>2026-04-06T09:22:16.064Z</time></trkpt><trkpt lat="41.0910543" lon="14.3433505"><ele>110.42857142857142</ele><time>2026-04-06T09:22:18.083Z</time></trkpt><trkpt lat="41.0910525" lon="14.3432581"><ele>110.28571428571428</ele><time>2026-04-06T09:22:20.074Z</time></trkpt><trkpt lat="41.0910585" lon="14.34317"><ele>110.14285714285714</ele><time>2026-04-06T09:22:22.059Z</time></trkpt><trkpt lat="41.0910674" lon="14.3430865"><ele>110.0</ele><time>2026-04-06T09:22:24.093Z</time></trkpt><trkpt lat="41.0910752" lon="14.342981"><ele>109.83333333333333</ele><time>2026-04-06T09:22:27.011Z</time></trkpt><trkpt lat="41.091064" lon="14.3428608"><ele>109.66666666666666</ele><time>2026-04-06T09:22:30.08Z</time></trkpt><trkpt lat="41.0910636" lon="14.3427613"><ele>109.5</ele><time>2026-04-06T09:22:33.07Z</time></trkpt><trkpt lat="41.0910597" lon="14.3426684"><ele>109.33333333333334</ele><time>2026-04-06T09:22:36.094Z</time></trkpt><trkpt lat="41.0910596" lon="14.3425454"><ele>109.16666666666667</ele><time>2026-04-06T09:22:39.089Z</time></trkpt><trkpt lat="41.0910642" lon="14.3424379"><ele>109.0</ele><time>2026-04-06T09:22:42.009Z</time></trkpt><trkpt lat="41.0910656" lon="14.3423267"><ele>109.00000000000001</ele><time>2026-04-06T09:22:45.083Z</time></trkpt><trkpt lat="41.0910629" lon="14.3422404"><ele>109.0</ele><time>2026-04-06T09:22:47.076Z</time></trkpt><trkpt lat="41.0910595" lon="14.3421264"><ele>109.0</ele><time>2026-04-06T09:22:50.075Z</time></trkpt><trkpt lat="41.0910503" lon="14.3420306"><ele>109.0</ele><time>2026-04-06T09:22:52.088Z</time></trkpt><trkpt lat="41.0910331" lon="14.3419256"><ele>109.00000000000001</ele><time>2026-04-06T09:22:55.014Z</time></trkpt><trkpt lat="41.0910185" lon="14.3418134"><ele>109.0</ele><time>2026-04-06T09:22:58.084Z</time></trkpt><trkpt lat="41.0910035" lon="14.341697"><ele>108.83333333333334</ele><time>2026-04-06T09:23:01.034Z</time></trkpt><trkpt lat="41.0910022" lon="14.3415748"><ele>108.66666666666667</ele><time>2026-04-06T09:23:04.065Z</time></trkpt><trkpt lat="41.0910056" lon="14.3414872"><ele>108.5</ele><time>2026-04-06T09:23:06.069Z</time></trkpt><trkpt lat="41.0910167" lon="14.341368"><ele>108.33333333333334</ele><time>2026-04-06T09:23:09.106Z</time></trkpt><trkpt lat="41.0910173" lon="14.3412677"><ele>108.16666666666667</ele><time>2026-04-06T09:23:12.1Z</time></trkpt><trkpt lat="41.0910066" lon="14.341147"><ele>108.0</ele><time>2026-04-06T09:23:15.074Z</time></trkpt><trkpt lat="41.0909964" lon="14.3410326"><ele>107.66666666666667</ele><time>2026-04-06T09:23:18.092Z</time></trkpt><trkpt lat="41.0909906" lon="14.3409249"><ele>107.33333333333334</ele><time>2026-04-06T09:23:21.111Z</time></trkpt><trkpt lat="41.0909911" lon="14.3408296"><ele>107.0</ele><time>2026-04-06T09:23:23.948Z</time></trkpt><trkpt lat="41.0909776" lon="14.3407324"><ele>106.66666666666667</ele><time>2026-04-06T09:23:27.103Z</time></trkpt><trkpt lat="41.0909567" lon="14.3406221"><ele>106.33333333333334</ele><time>2026-04-06T09:23:30.079Z</time></trkpt><trkpt lat="41.0909458" lon="14.3405109"><ele>106.0</ele><time>2026-04-06T09:23:33.136Z</time></trkpt><trkpt lat="41.0909212" lon="14.3404084"><ele>105.66666666666667</ele><time>2026-04-06T09:23:36.063Z</time></trkpt><trkpt lat="41.090898" lon="14.3403049"><ele>105.33333333333334</ele><time>2026-04-06T09:23:39.07Z</time></trkpt><trkpt lat="41.0908857" lon="14.3401953"><ele>105.0</ele><time>2026-04-06T09:23:42.065Z</time></trkpt><trkpt lat="41.0908811" lon="14.340075"><ele>104.66666666666666</ele><time>2026-04-06T09:23:45.056Z</time></trkpt><trkpt lat="41.0908809" lon="14.3399673"><ele>104.33333333333333</ele><time>2026-04-06T09:23:48.082Z</time></trkpt><trkpt lat="41.0908779" lon="14.3398477"><ele>104.0</ele><time>2026-04-06T09:23:51.11Z</time></trkpt><trkpt lat="41.0908732" lon="14.3397264"><ele>103.66666666666666</ele><time>2026-04-06T09:23:54.088Z</time></trkpt><trkpt lat="41.0908635" lon="14.33963"><ele>103.33333333333333</ele><time>2026-04-06T09:23:57.08Z</time></trkpt><trkpt lat="41.0908458" lon="14.3395243"><ele>103.0</ele><time>2026-04-06T09:23:59.976Z</time></trkpt><trkpt lat="41.0908447" lon="14.3394061"><ele>102.66666666666666</ele><time>2026-04-06T09:24:03.067Z</time></trkpt><trkpt lat="41.0908411" lon="14.3393096"><ele>102.33333333333333</ele><time>2026-04-06T09:24:06.064Z</time></trkpt><trkpt lat="41.090832" lon="14.339199"><ele>102.0</ele><time>2026-04-06T09:24:10.099Z</time></trkpt><trkpt lat="41.090838" lon="14.3391121"><ele>102.0</ele><time>2026-04-06T09:24:13.008Z</time></trkpt><trkpt lat="41.0908434" lon="14.3390056"><ele>102.0</ele><time>2026-04-06T09:24:16.094Z</time></trkpt><trkpt lat="41.0908527" lon="14.338908"><ele>102.0</ele><time>2026-04-06T09:24:19.063Z</time></trkpt><trkpt lat="41.0908606" lon="14.3387898"><ele>102.0</ele><time>2026-04-06T09:24:22.088Z</time></trkpt><trkpt lat="41.0908615" lon="14.3386681"><ele>102.0</ele><time>2026-04-06T09:24:25.107Z</time></trkpt><trkpt lat="41.0908664" lon="14.3385798"><ele>102.0</ele><time>2026-04-06T09:24:27.092Z</time></trkpt><trkpt lat="41.0908687" lon="14.3384639"><ele>101.85714285714286</ele><time>2026-04-06T09:24:30.072Z</time></trkpt><trkpt lat="41.0908722" lon="14.3383773"><ele>101.71428571428572</ele><time>2026-04-06T09:24:33.087Z</time></trkpt><trkpt lat="41.0908717" lon="14.3382891"><ele>101.57142857142857</ele><time>2026-04-06T09:24:36.097Z</time></trkpt><trkpt lat="41.0908723" lon="14.3382031"><ele>101.42857142857143</ele><time>2026-04-06T09:24:39.089Z</time></trkpt><trkpt lat="41.0908746" lon="14.3381099"><ele>101.28571428571428</ele><time>2026-04-06T09:24:42.073Z</time></trkpt><trkpt lat="41.0908805" lon="14.3380103"><ele>101.14285714285714</ele><time>2026-04-06T09:24:45.064Z</time></trkpt><trkpt lat="41.0908853" lon="14.3379142"><ele>101.0</ele><time>2026-04-06T09:24:48.062Z</time></trkpt><trkpt lat="41.0908738" lon="14.3378111"><ele>100.83333333333333</ele><time>2026-04-06T09:24:51.055Z</time></trkpt><trkpt lat="41.0908642" lon="14.3377028"><ele>100.66666666666666</ele><time>2026-04-06T09:24:54.076Z</time></trkpt><trkpt lat="41.0908177" lon="14.3376018"><ele>100.5</ele><time>2026-04-06T09:24:57.095Z</time></trkpt><trkpt lat="41.0908235" lon="14.3374878"><ele>100.33333333333334</ele><time>2026-04-06T09:25:00.068Z</time></trkpt><trkpt lat="41.0908369" lon="14.3374014"><ele>100.16666666666667</ele><time>2026-04-06T09:25:02.09Z</time></trkpt><trkpt lat="41.0908476" lon="14.3372837"><ele>100.0</ele><time>2026-04-06T09:25:05.074Z</time></trkpt><trkpt lat="41.090861" lon="14.3371797"><ele>99.83333333333334</ele><time>2026-04-06T09:25:08.066Z</time></trkpt><trkpt lat="41.0908752" lon="14.33708"><ele>99.66666666666667</ele><time>2026-04-06T09:25:11.116Z</time></trkpt><trkpt lat="41.0908973" lon="14.3369804"><ele>99.5</ele><time>2026-04-06T09:25:14.084Z</time></trkpt><trkpt lat="41.0909197" lon="14.3368761"><ele>99.33333333333334</ele><time>2026-04-06T09:25:17.092Z</time></trkpt><trkpt lat="41.0909263" lon="14.336787"><ele>99.16666666666667</ele><time>2026-04-06T09:25:20.112Z</time></trkpt><trkpt lat="41.0909371" lon="14.3366922"><ele>99.0</ele><time>2026-04-06T09:25:23.066Z</time></trkpt><trkpt lat="41.0909465" lon="14.3365893"><ele>99.0</ele><time>2026-04-06T09:25:26.056Z</time></trkpt><trkpt lat="41.0909462" lon="14.3364883"><ele>99.0</ele><time>2026-04-06T09:25:29.087Z</time></trkpt><trkpt lat="41.090949" lon="14.3363824"><ele>99.0</ele><time>2026-04-06T09:25:32.067Z</time></trkpt><trkpt lat="41.0909562" lon="14.3362626"><ele>99.0</ele><time>2026-04-06T09:25:35.089Z</time></trkpt><trkpt lat="41.0909746" lon="14.3361622"><ele>99.0</ele><time>2026-04-06T09:25:38.029Z</time></trkpt><trkpt lat="41.0910014" lon="14.3360574"><ele>99.0</ele><time>2026-04-06T09:25:41.094Z</time></trkpt><trkpt lat="41.0910324" lon="14.3359485"><ele>99.0</ele><time>2026-04-06T09:25:44.024Z</time></trkpt><trkpt lat="41.0910561" lon="14.3358438"><ele>99.0</ele><time>2026-04-06T09:25:47.09Z</time></trkpt><trkpt lat="41.0910907" lon="14.3357372"><ele>99.0</ele><time>2026-04-06T09:25:50.055Z</time></trkpt><trkpt lat="41.0911047" lon="14.3356238"><ele>99.0</ele><time>2026-04-06T09:25:53.079Z</time></trkpt><trkpt lat="41.0911271" lon="14.3355279"><ele>99.0</ele><time>2026-04-06T09:25:56.067Z</time></trkpt><trkpt lat="41.0911417" lon="14.335438"><ele>99.0</ele><time>2026-04-06T09:25:59.083Z</time></trkpt><trkpt lat="41.0911686" lon="14.335331"><ele>98.66666666666667</ele><time>2026-04-06T09:26:02.097Z</time></trkpt><trkpt lat="41.0911883" lon="14.335221"><ele>98.33333333333334</ele><time>2026-04-06T09:26:05.095Z</time></trkpt><trkpt lat="41.0911978" lon="14.3351312"><ele>98.0</ele><time>2026-04-06T09:26:07.072Z</time></trkpt><trkpt lat="41.0912023" lon="14.3350133"><ele>97.66666666666667</ele><time>2026-04-06T09:26:10.1Z</time></trkpt><trkpt lat="41.0912017" lon="14.3349054"><ele>97.33333333333334</ele><time>2026-04-06T09:26:13.104Z</time></trkpt><trkpt lat="41.091208" lon="14.3348004"><ele>97.0</ele><time>2026-04-06T09:26:16.092Z</time></trkpt><trkpt lat="41.0912196" lon="14.3347026"><ele>97.0</ele><time>2026-04-06T09:26:19.061Z</time></trkpt><trkpt lat="41.091239" lon="14.3346145"><ele>97.0</ele><time>2026-04-06T09:26:22.109Z</time></trkpt><trkpt lat="41.091266" lon="14.3345213"><ele>97.0</ele><time>2026-04-06T09:26:25.066Z</time></trkpt><trkpt lat="41.0912888" lon="14.3344411"><ele>97.0</ele><time>2026-04-06T09:26:28.066Z</time></trkpt><trkpt lat="41.0913082" lon="14.3343587"><ele>97.0</ele><time>2026-04-06T09:26:31.09Z</time></trkpt><trkpt lat="41.0913238" lon="14.3342765"><ele>97.0</ele><time>2026-04-06T09:26:34.05Z</time></trkpt><trkpt lat="41.091338" lon="14.334174"><ele>97.0</ele><time>2026-04-06T09:26:37.094Z</time></trkpt><trkpt lat="41.0913496" lon="14.3340776"><ele>97.00000000000001</ele><time>2026-04-06T09:26:40.018Z</time></trkpt><trkpt lat="41.0913514" lon="14.3339889"><ele>97.0</ele><time>2026-04-06T09:26:43.087Z</time></trkpt><trkpt lat="41.091357" lon="14.3339001"><ele>97.0</ele><time>2026-04-06T09:26:45.989Z</time></trkpt><trkpt lat="41.091349" lon="14.3337937"><ele>97.0</ele><time>2026-04-06T09:26:49.08Z</time></trkpt><trkpt lat="41.0913321" lon="14.3336819"><ele>97.00000000000001</ele><time>2026-04-06T09:26:52.077Z</time></trkpt><trkpt lat="41.091322" lon="14.3335822"><ele>97.0</ele><time>2026-04-06T09:26:55.091Z</time></trkpt><trkpt lat="41.0913114" lon="14.3334836"><ele>96.85714285714285</ele><time>2026-04-06T09:26:57.986Z</time></trkpt><trkpt lat="41.0913041" lon="14.3333926"><ele>96.71428571428572</ele><time>2026-04-06T09:27:01.09Z</time></trkpt><trkpt lat="41.0912997" lon="14.3333033"><ele>96.57142857142857</ele><time>2026-04-06T09:27:04.014Z</time></trkpt><trkpt lat="41.0912882" lon="14.3331959"><ele>96.42857142857142</ele><time>2026-04-06T09:27:07.071Z</time></trkpt><trkpt lat="41.0912863" lon="14.3331043"><ele>96.28571428571428</ele><time>2026-04-06T09:27:10.052Z</time></trkpt><trkpt lat="41.0912456" lon="14.333034"><ele>96.14285714285714</ele><time>2026-04-06T09:27:13.061Z</time></trkpt><trkpt lat="41.0912503" lon="14.3329173"><ele>96.0</ele><time>2026-04-06T09:27:17.08Z</time></trkpt><trkpt lat="41.0912702" lon="14.3328273"><ele>95.71428571428571</ele><time>2026-04-06T09:27:19.807Z</time></trkpt><trkpt lat="41.0912409" lon="14.3327513"><ele>95.42857142857143</ele><time>2026-04-06T09:27:22.081Z</time></trkpt><trkpt lat="41.091188" lon="14.332665"><ele>95.14285714285714</ele><time>2026-04-06T09:27:25.064Z</time></trkpt><trkpt lat="41.091138" lon="14.3325904"><ele>94.85714285714286</ele><time>2026-04-06T09:27:28.073Z</time></trkpt><trkpt lat="41.0910933" lon="14.3325314"><ele>94.57142857142857</ele><time>2026-04-06T09:27:31.05Z</time></trkpt><trkpt lat="41.0910496" lon="14.3324564"><ele>94.28571428571428</ele><time>2026-04-06T09:27:34.101Z</time></trkpt><trkpt lat="41.0910044" lon="14.3323838"><ele>94.0</ele><time>2026-04-06T09:27:37.067Z</time></trkpt><trkpt lat="41.0909633" lon="14.3323044"><ele>94.0</ele><time>2026-04-06T09:27:40.046Z</time></trkpt><trkpt lat="41.0908969" lon="14.3322442"><ele>94.0</ele><time>2026-04-06T09:27:43.044Z</time></trkpt><trkpt lat="41.0908022" lon="14.3319761"><ele>94.0</ele><time>2026-04-06T09:27:52.061Z</time></trkpt><trkpt lat="41.0907575" lon="14.3318823"><ele>94.0</ele><time>2026-04-06T09:27:55.112Z</time></trkpt><trkpt lat="41.0906952" lon="14.3318158"><ele>94.0</ele><time>2026-04-06T09:27:57.091Z</time></trkpt><trkpt lat="41.0906522" lon="14.3317484"><ele>94.0</ele><time>2026-04-06T09:27:59.014Z</time></trkpt><trkpt lat="41.0906121" lon="14.3316438"><ele>94.0</ele><time>2026-04-06T09:28:02.122Z</time></trkpt><trkpt lat="41.0905519" lon="14.3315912"><ele>94.0</ele><time>2026-04-06T09:28:04.073Z</time></trkpt><trkpt lat="41.0905147" lon="14.3315188"><ele>94.0</ele><time>2026-04-06T09:28:06.102Z</time></trkpt><trkpt lat="41.090465" lon="14.3314291"><ele>94.0</ele><time>2026-04-06T09:28:09.072Z</time></trkpt><trkpt lat="41.0904388" lon="14.331338"><ele>94.0</ele><time>2026-04-06T09:28:12.052Z</time></trkpt><trkpt lat="41.0904397" lon="14.3312259"><ele>94.0</ele><time>2026-04-06T09:28:15.153Z</time></trkpt><trkpt lat="41.090468" lon="14.3311484"><ele>94.0</ele><time>2026-04-06T09:28:18.092Z</time></trkpt><trkpt lat="41.0905238" lon="14.3310542"><ele>94.0</ele><time>2026-04-06T09:28:21.06Z</time></trkpt><trkpt lat="41.0905862" lon="14.3309849"><ele>94.0</ele><time>2026-04-06T09:28:24.094Z</time></trkpt><trkpt lat="41.0906468" lon="14.3309211"><ele>94.0</ele><time>2026-04-06T09:28:27.076Z</time></trkpt><trkpt lat="41.0906894" lon="14.3308497"><ele>94.0</ele><time>2026-04-06T09:28:30.073Z</time></trkpt><trkpt lat="41.0907322" lon="14.3307824"><ele>94.0</ele><time>2026-04-06T09:28:33.127Z</time></trkpt><trkpt lat="41.0907818" lon="14.3307189"><ele>94.0</ele><time>2026-04-06T09:28:37.04Z</time></trkpt><trkpt lat="41.0908202" lon="14.3306394"><ele>94.0</ele><time>2026-04-06T09:28:40.073Z</time></trkpt><trkpt lat="41.0908576" lon="14.3305545"><ele>94.0</ele><time>2026-04-06T09:28:43.072Z</time></trkpt><trkpt lat="41.0908979" lon="14.3304533"><ele>94.0</ele><time>2026-04-06T09:28:46.098Z</time></trkpt><trkpt lat="41.0909142" lon="14.3303542"><ele>94.0</ele><time>2026-04-06T09:28:49.041Z</time></trkpt><trkpt lat="41.0909204" lon="14.3302496"><ele>94.0</ele><time>2026-04-06T09:28:52.074Z</time></trkpt><trkpt lat="41.0909234" lon="14.3301489"><ele>94.0</ele><time>2026-04-06T09:28:55.017Z</time></trkpt><trkpt lat="41.0909231" lon="14.3300338"><ele>94.0</ele><time>2026-04-06T09:28:58.069Z</time></trkpt><trkpt lat="41.0909372" lon="14.3299347"><ele>94.0</ele><time>2026-04-06T09:29:00.979Z</time></trkpt><trkpt lat="41.0909657" lon="14.3298305"><ele>94.0</ele><time>2026-04-06T09:29:04.063Z</time></trkpt><trkpt lat="41.0910059" lon="14.3297268"><ele>94.0</ele><time>2026-04-06T09:29:07.079Z</time></trkpt><trkpt lat="41.0909893" lon="14.3296437"><ele>93.5</ele><time>2026-04-06T09:29:09.032Z</time></trkpt><trkpt lat="41.0909586" lon="14.3295659"><ele>93.0</ele><time>2026-04-06T09:29:11.098Z</time></trkpt><trkpt lat="41.0909536" lon="14.3294616"><ele>92.5</ele><time>2026-04-06T09:29:13.998Z</time></trkpt><trkpt lat="41.0909491" lon="14.3293553"><ele>92.0</ele><time>2026-04-06T09:29:17.085Z</time></trkpt><trkpt lat="41.090932" lon="14.3292575"><ele>91.5</ele><time>2026-04-06T09:29:20.127Z</time></trkpt><trkpt lat="41.0909435" lon="14.3291473"><ele>91.0</ele><time>2026-04-06T09:29:23.074Z</time></trkpt><trkpt lat="41.0909704" lon="14.3290586"><ele>91.0</ele><time>2026-04-06T09:29:26.086Z</time></trkpt><trkpt lat="41.0910036" lon="14.3289591"><ele>91.0</ele><time>2026-04-06T09:29:29.998Z</time></trkpt><trkpt lat="41.0910575" lon="14.3288965"><ele>91.0</ele><time>2026-04-06T09:29:34.094Z</time></trkpt><trkpt lat="41.0911289" lon="14.3288511"><ele>91.0</ele><time>2026-04-06T09:29:38.055Z</time></trkpt><trkpt lat="41.0911841" lon="14.328791"><ele>91.0</ele><time>2026-04-06T09:29:41.259Z</time></trkpt><trkpt lat="41.0912504" lon="14.3287147"><ele>91.0</ele><time>2026-04-06T09:29:44.418Z</time></trkpt><trkpt lat="41.0911708" lon="14.3285562"><ele>91.16666666666666</ele><time>2026-04-06T09:29:47.594Z</time></trkpt><trkpt lat="41.0910774" lon="14.3284687"><ele>91.33333333333333</ele><time>2026-04-06T09:29:48.661Z</time></trkpt><trkpt lat="41.0910154" lon="14.3284164"><ele>91.5</ele><time>2026-04-06T09:29:49.721Z</time></trkpt><trkpt lat="41.0909701" lon="14.3283484"><ele>91.66666666666667</ele><time>2026-04-06T09:29:51.879Z</time></trkpt><trkpt lat="41.0909656" lon="14.3282596"><ele>91.83333333333334</ele><time>2026-04-06T09:29:55.077Z</time></trkpt><trkpt lat="41.0909705" lon="14.3281724"><ele>92.0</ele><time>2026-04-06T09:29:58.08Z</time></trkpt><trkpt lat="41.090979" lon="14.3280866"><ele>92.57142857142857</ele><time>2026-04-06T09:30:01.091Z</time></trkpt><trkpt lat="41.0909879" lon="14.3279918"><ele>93.14285714285714</ele><time>2026-04-06T09:30:04.055Z</time></trkpt><trkpt lat="41.0909982" lon="14.3278974"><ele>93.71428571428571</ele><time>2026-04-06T09:30:07.083Z</time></trkpt><trkpt lat="41.091006" lon="14.3278076"><ele>94.28571428571428</ele><time>2026-04-06T09:30:10.08Z</time></trkpt><trkpt lat="41.0910114" lon="14.3277083"><ele>94.85714285714286</ele><time>2026-04-06T09:30:13.073Z</time></trkpt><trkpt lat="41.0910024" lon="14.3276119"><ele>95.42857142857142</ele><time>2026-04-06T09:30:15.111Z</time></trkpt><trkpt lat="41.0909973" lon="14.3275276"><ele>96.0</ele><time>2026-04-06T09:30:17.064Z</time></trkpt><trkpt lat="41.0909934" lon="14.3274295"><ele>95.99999999999999</ele><time>2026-04-06T09:30:20.063Z</time></trkpt><trkpt lat="41.090984" lon="14.3273428"><ele>96.0</ele><time>2026-04-06T09:30:22.095Z</time></trkpt><trkpt lat="41.0909724" lon="14.327242"><ele>96.0</ele><time>2026-04-06T09:30:25.06Z</time></trkpt><trkpt lat="41.090974" lon="14.3271575"><ele>96.0</ele><time>2026-04-06T09:30:28.054Z</time></trkpt><trkpt lat="41.0909706" lon="14.3270667"><ele>96.0</ele><time>2026-04-06T09:30:31.077Z</time></trkpt><trkpt lat="41.0909693" lon="14.3269688"><ele>95.99999999999999</ele><time>2026-04-06T09:30:34.06Z</time></trkpt><trkpt lat="41.0909628" lon="14.326859"><ele>96.0</ele><time>2026-04-06T09:30:37.1Z</time></trkpt><trkpt lat="41.09097" lon="14.3267483"><ele>96.16666666666667</ele><time>2026-04-06T09:30:40.073Z</time></trkpt><trkpt lat="41.0909576" lon="14.3266373"><ele>96.33333333333334</ele><time>2026-04-06T09:30:44.08Z</time></trkpt><trkpt lat="41.0909478" lon="14.3265428"><ele>96.5</ele><time>2026-04-06T09:30:46.984Z</time></trkpt><trkpt lat="41.0909423" lon="14.3264441"><ele>96.66666666666667</ele><time>2026-04-06T09:30:50.091Z</time></trkpt><trkpt lat="41.0909376" lon="14.326347"><ele>96.83333333333334</ele><time>2026-04-06T09:30:53.037Z</time></trkpt><trkpt lat="41.0909447" lon="14.3262444"><ele>97.0</ele><time>2026-04-06T09:30:56.077Z</time></trkpt><trkpt lat="41.0909437" lon="14.326145"><ele>97.0</ele><time>2026-04-06T09:30:59.074Z</time></trkpt><trkpt lat="41.09094" lon="14.3260544"><ele>97.0</ele><time>2026-04-06T09:31:02.113Z</time></trkpt><trkpt lat="41.0909289" lon="14.3259669"><ele>97.0</ele><time>2026-04-06T09:31:05.09Z</time></trkpt><trkpt lat="41.0909174" lon="14.3258796"><ele>97.0</ele><time>2026-04-06T09:31:08.07Z</time></trkpt><trkpt lat="41.0909295" lon="14.3257729"><ele>97.0</ele><time>2026-04-06T09:31:11.996Z</time></trkpt><trkpt lat="41.0909279" lon="14.325673"><ele>97.0</ele><time>2026-04-06T09:31:16.071Z</time></trkpt><trkpt lat="41.0909213" lon="14.3255674"><ele>97.0</ele><time>2026-04-06T09:31:20.08Z</time></trkpt><trkpt lat="41.0909085" lon="14.3254708"><ele>97.33333333333334</ele><time>2026-04-06T09:31:23.05Z</time></trkpt><trkpt lat="41.0908957" lon="14.3253818"><ele>97.66666666666667</ele><time>2026-04-06T09:31:26.041Z</time></trkpt><trkpt lat="41.0908994" lon="14.3252868"><ele>98.0</ele><time>2026-04-06T09:31:29.089Z</time></trkpt><trkpt lat="41.0909341" lon="14.3251993"><ele>98.33333333333334</ele><time>2026-04-06T09:31:32.092Z</time></trkpt><trkpt lat="41.0909836" lon="14.3251183"><ele>98.66666666666667</ele><time>2026-04-06T09:31:35.004Z</time></trkpt><trkpt lat="41.0910429" lon="14.3250546"><ele>99.0</ele><time>2026-04-06T09:31:38.085Z</time></trkpt><trkpt lat="41.0911165" lon="14.3250068"><ele>99.0</ele><time>2026-04-06T09:31:41.06Z</time></trkpt><trkpt lat="41.0911804" lon="14.3250298"><ele>99.0</ele><time>2026-04-06T09:31:44.082Z</time></trkpt><trkpt lat="41.0912671" lon="14.3249695"><ele>99.0</ele><time>2026-04-06T09:31:47.065Z</time></trkpt><trkpt lat="41.0913386" lon="14.3249091"><ele>99.0</ele><time>2026-04-06T09:31:50.063Z</time></trkpt><trkpt lat="41.0914066" lon="14.3248651"><ele>99.0</ele><time>2026-04-06T09:31:53.063Z</time></trkpt><trkpt lat="41.0914812" lon="14.3248189"><ele>99.0</ele><time>2026-04-06T09:31:55.994Z</time></trkpt><trkpt lat="41.091544" lon="14.3247851"><ele>99.14285714285715</ele><time>2026-04-06T09:31:58.836Z</time></trkpt><trkpt lat="41.0916146" lon="14.3247417"><ele>99.28571428571428</ele><time>2026-04-06T09:32:02.046Z</time></trkpt><trkpt lat="41.0916901" lon="14.3247019"><ele>99.42857142857143</ele><time>2026-04-06T09:32:05.065Z</time></trkpt><trkpt lat="41.0917631" lon="14.3246637"><ele>99.57142857142858</ele><time>2026-04-06T09:32:08.12Z</time></trkpt><trkpt lat="41.0918227" lon="14.3246363"><ele>99.71428571428572</ele><time>2026-04-06T09:32:11.068Z</time></trkpt><trkpt lat="41.0918804" lon="14.3245995"><ele>99.85714285714286</ele><time>2026-04-06T09:32:14.102Z</time></trkpt><trkpt lat="41.0919425" lon="14.3245594"><ele>100.0</ele><time>2026-04-06T09:32:17.08Z</time></trkpt><trkpt lat="41.0920045" lon="14.3245258"><ele>100.16666666666667</ele><time>2026-04-06T09:32:20.044Z</time></trkpt><trkpt lat="41.0920672" lon="14.3244868"><ele>100.33333333333334</ele><time>2026-04-06T09:32:23.042Z</time></trkpt><trkpt lat="41.0921317" lon="14.3244731"><ele>100.5</ele><time>2026-04-06T09:32:26.047Z</time></trkpt><trkpt lat="41.092195" lon="14.3244569"><ele>100.66666666666666</ele><time>2026-04-06T09:32:28.982Z</time></trkpt><trkpt lat="41.0922719" lon="14.3245604"><ele>100.83333333333333</ele><time>2026-04-06T09:32:32.076Z</time></trkpt><trkpt lat="41.092337" lon="14.3246028"><ele>101.0</ele><time>2026-04-06T09:32:35.062Z</time></trkpt><trkpt lat="41.0923687" lon="14.3244994"><ele>100.99999999999999</ele><time>2026-04-06T09:32:38.064Z</time></trkpt><trkpt lat="41.0923983" lon="14.324384"><ele>101.0</ele><time>2026-04-06T09:32:41.048Z</time></trkpt><trkpt lat="41.092432" lon="14.3242863"><ele>101.0</ele><time>2026-04-06T09:32:44.065Z</time></trkpt><trkpt lat="41.0924299" lon="14.324185"><ele>101.0</ele><time>2026-04-06T09:32:47.082Z</time></trkpt><trkpt lat="41.0924215" lon="14.3240835"><ele>100.99999999999999</ele><time>2026-04-06T09:32:50Z</time></trkpt><trkpt lat="41.0924137" lon="14.3239676"><ele>101.0</ele><time>2026-04-06T09:32:53.085Z</time></trkpt><trkpt lat="41.0924084" lon="14.3238695"><ele>101.16666666666666</ele><time>2026-04-06T09:32:55.076Z</time></trkpt><trkpt lat="41.0924326" lon="14.3237421"><ele>101.33333333333333</ele><time>2026-04-06T09:32:58.107Z</time></trkpt><trkpt lat="41.092421" lon="14.323642"><ele>101.5</ele><time>2026-04-06T09:33:01.062Z</time></trkpt><trkpt lat="41.0923963" lon="14.3235424"><ele>101.66666666666666</ele><time>2026-04-06T09:33:04.077Z</time></trkpt><trkpt lat="41.0923819" lon="14.3234414"><ele>101.83333333333333</ele><time>2026-04-06T09:33:07.07Z</time></trkpt><trkpt lat="41.0923707" lon="14.3233493"><ele>102.0</ele><time>2026-04-06T09:33:10.118Z</time></trkpt><trkpt lat="41.0923786" lon="14.3232546"><ele>101.71428571428572</ele><time>2026-04-06T09:33:13.997Z</time></trkpt><trkpt lat="41.0923647" lon="14.3231562"><ele>101.42857142857143</ele><time>2026-04-06T09:33:17.086Z</time></trkpt><trkpt lat="41.0923546" lon="14.3230677"><ele>101.14285714285714</ele><time>2026-04-06T09:33:19.996Z</time></trkpt><trkpt lat="41.0923511" lon="14.3229661"><ele>100.85714285714286</ele><time>2026-04-06T09:33:22.076Z</time></trkpt><trkpt lat="41.0923453" lon="14.3228809"><ele>100.57142857142857</ele><time>2026-04-06T09:33:24.071Z</time></trkpt><trkpt lat="41.0923373" lon="14.3227804"><ele>100.28571428571429</ele><time>2026-04-06T09:33:27.092Z</time></trkpt><trkpt lat="41.0923334" lon="14.3226878"><ele>100.0</ele><time>2026-04-06T09:33:30.059Z</time></trkpt><trkpt lat="41.092327" lon="14.3225798"><ele>99.83333333333334</ele><time>2026-04-06T09:33:33.045Z</time></trkpt><trkpt lat="41.0923569" lon="14.3224789"><ele>99.66666666666667</ele><time>2026-04-06T09:33:35.081Z</time></trkpt><trkpt lat="41.0923588" lon="14.3223818"><ele>99.5</ele><time>2026-04-06T09:33:38Z</time></trkpt><trkpt lat="41.0923937" lon="14.3222977"><ele>99.33333333333334</ele><time>2026-04-06T09:33:41.099Z</time></trkpt><trkpt lat="41.0923969" lon="14.3221973"><ele>99.16666666666667</ele><time>2026-04-06T09:33:44.075Z</time></trkpt><trkpt lat="41.0924475" lon="14.3221252"><ele>99.0</ele><time>2026-04-06T09:33:47Z</time></trkpt><trkpt lat="41.0924539" lon="14.3220157"><ele>99.33333333333333</ele><time>2026-04-06T09:33:50.063Z</time></trkpt><trkpt lat="41.0924456" lon="14.321929"><ele>99.66666666666666</ele><time>2026-04-06T09:33:52.104Z</time></trkpt><trkpt lat="41.0925157" lon="14.3218501"><ele>100.0</ele><time>2026-04-06T09:33:55.072Z</time></trkpt><trkpt lat="41.0925634" lon="14.3217942"><ele>100.33333333333333</ele><time>2026-04-06T09:33:57.076Z</time></trkpt><trkpt lat="41.0926251" lon="14.3217039"><ele>100.66666666666666</ele><time>2026-04-06T09:34:00.072Z</time></trkpt><trkpt lat="41.0926666" lon="14.321641"><ele>101.0</ele><time>2026-04-06T09:34:02.077Z</time></trkpt><trkpt lat="41.0927232" lon="14.3215536"><ele>100.99999999999999</ele><time>2026-04-06T09:34:05.022Z</time></trkpt><trkpt lat="41.0927827" lon="14.321477"><ele>101.0</ele><time>2026-04-06T09:34:08.095Z</time></trkpt><trkpt lat="41.0928428" lon="14.3214041"><ele>101.0</ele><time>2026-04-06T09:34:12.057Z</time></trkpt><trkpt lat="41.0929008" lon="14.3213418"><ele>101.0</ele><time>2026-04-06T09:34:15.114Z</time></trkpt><trkpt lat="41.092958" lon="14.3212753"><ele>100.99999999999999</ele><time>2026-04-06T09:34:18.048Z</time></trkpt><trkpt lat="41.0930186" lon="14.321211"><ele>101.0</ele><time>2026-04-06T09:34:21.109Z</time></trkpt><trkpt lat="41.0930773" lon="14.3211511"><ele>101.16666666666666</ele><time>2026-04-06T09:34:24.043Z</time></trkpt><trkpt lat="41.0931518" lon="14.3210822"><ele>101.33333333333333</ele><time>2026-04-06T09:34:27.087Z</time></trkpt><trkpt lat="41.0932302" lon="14.3210216"><ele>101.5</ele><time>2026-04-06T09:34:30.134Z</time></trkpt><trkpt lat="41.0932937" lon="14.3209467"><ele>101.66666666666666</ele><time>2026-04-06T09:34:34.079Z</time></trkpt><trkpt lat="41.0933488" lon="14.3208775"><ele>101.83333333333333</ele><time>2026-04-06T09:34:37.066Z</time></trkpt><trkpt lat="41.0934098" lon="14.3208056"><ele>102.0</ele><time>2026-04-06T09:34:40.086Z</time></trkpt><trkpt lat="41.0934578" lon="14.3207437"><ele>102.28571428571429</ele><time>2026-04-06T09:34:43.086Z</time></trkpt><trkpt lat="41.0935061" lon="14.3206645"><ele>102.57142857142858</ele><time>2026-04-06T09:34:46.137Z</time></trkpt><trkpt lat="41.0935505" lon="14.320598"><ele>102.85714285714286</ele><time>2026-04-06T09:34:49.101Z</time></trkpt><trkpt lat="41.0936118" lon="14.320531"><ele>103.14285714285714</ele><time>2026-04-06T09:34:52.105Z</time></trkpt><trkpt lat="41.0936724" lon="14.3204626"><ele>103.42857142857143</ele><time>2026-04-06T09:34:56.077Z</time></trkpt><trkpt lat="41.0937347" lon="14.320401"><ele>103.71428571428571</ele><time>2026-04-06T09:34:59.076Z</time></trkpt><trkpt lat="41.0937838" lon="14.3203407"><ele>104.0</ele><time>2026-04-06T09:35:02.063Z</time></trkpt><trkpt lat="41.0938328" lon="14.3202794"><ele>104.57142857142857</ele><time>2026-04-06T09:35:04.996Z</time></trkpt><trkpt lat="41.093881" lon="14.3202083"><ele>105.14285714285715</ele><time>2026-04-06T09:35:08.075Z</time></trkpt><trkpt lat="41.0939389" lon="14.3201405"><ele>105.71428571428572</ele><time>2026-04-06T09:35:11.088Z</time></trkpt><trkpt lat="41.0939948" lon="14.3200663"><ele>106.28571428571428</ele><time>2026-04-06T09:35:15.018Z</time></trkpt><trkpt lat="41.0940446" lon="14.3199973"><ele>106.85714285714286</ele><time>2026-04-06T09:35:19.097Z</time></trkpt><trkpt lat="41.0940896" lon="14.319933"><ele>107.42857142857143</ele><time>2026-04-06T09:35:22.08Z</time></trkpt><trkpt lat="41.0941383" lon="14.3198718"><ele>108.0</ele><time>2026-04-06T09:35:25.084Z</time></trkpt><trkpt lat="41.0941845" lon="14.319814"><ele>108.0</ele><time>2026-04-06T09:35:28.091Z</time></trkpt><trkpt lat="41.0942383" lon="14.3197482"><ele>108.0</ele><time>2026-04-06T09:35:31.075Z</time></trkpt><trkpt lat="41.0942965" lon="14.3196842"><ele>108.0</ele><time>2026-04-06T09:35:34.088Z</time></trkpt><trkpt lat="41.0943591" lon="14.3196167"><ele>108.0</ele><time>2026-04-06T09:35:37.088Z</time></trkpt><trkpt lat="41.094438" lon="14.3195571"><ele>108.0</ele><time>2026-04-06T09:35:40.078Z</time></trkpt><trkpt lat="41.0944959" lon="14.3195005"><ele>108.0</ele><time>2026-04-06T09:35:43.068Z</time></trkpt><trkpt lat="41.0945377" lon="14.3194371"><ele>108.14285714285714</ele><time>2026-04-06T09:35:46.099Z</time></trkpt><trkpt lat="41.0945852" lon="14.3193691"><ele>108.28571428571428</ele><time>2026-04-06T09:35:50.105Z</time></trkpt><trkpt lat="41.0946474" lon="14.3192948"><ele>108.42857142857143</ele><time>2026-04-06T09:35:54.084Z</time></trkpt><trkpt lat="41.0946993" lon="14.3192467"><ele>108.57142857142857</ele><time>2026-04-06T09:35:57.097Z</time></trkpt><trkpt lat="41.0947544" lon="14.3191899"><ele>108.71428571428572</ele><time>2026-04-06T09:36:00.084Z</time></trkpt><trkpt lat="41.0948185" lon="14.3191265"><ele>108.85714285714286</ele><time>2026-04-06T09:36:03.112Z</time></trkpt><trkpt lat="41.0948685" lon="14.3190753"><ele>109.0</ele><time>2026-04-06T09:36:06.084Z</time></trkpt><trkpt lat="41.0949218" lon="14.3190199"><ele>109.00000000000001</ele><time>2026-04-06T09:36:09.078Z</time></trkpt><trkpt lat="41.0949745" lon="14.3189667"><ele>109.0</ele><time>2026-04-06T09:36:11.988Z</time></trkpt><trkpt lat="41.0950378" lon="14.3189184"><ele>109.0</ele><time>2026-04-06T09:36:15.087Z</time></trkpt><trkpt lat="41.0951097" lon="14.3188708"><ele>109.0</ele><time>2026-04-06T09:36:19.04Z</time></trkpt><trkpt lat="41.0951887" lon="14.3188131"><ele>109.00000000000001</ele><time>2026-04-06T09:36:22.08Z</time></trkpt><trkpt lat="41.0952623" lon="14.3187442"><ele>109.0</ele><time>2026-04-06T09:36:25.036Z</time></trkpt><trkpt lat="41.0953235" lon="14.31869"><ele>109.0</ele><time>2026-04-06T09:36:28.071Z</time></trkpt><trkpt lat="41.0953752" lon="14.3186377"><ele>109.0</ele><time>2026-04-06T09:36:31.074Z</time></trkpt><trkpt lat="41.0954328" lon="14.318585"><ele>109.0</ele><time>2026-04-06T09:36:34.086Z</time></trkpt><trkpt lat="41.0954981" lon="14.3185201"><ele>109.0</ele><time>2026-04-06T09:36:37.036Z</time></trkpt><trkpt lat="41.095556" lon="14.318453"><ele>109.0</ele><time>2026-04-06T09:36:40.065Z</time></trkpt><trkpt lat="41.0956065" lon="14.3183999"><ele>109.0</ele><time>2026-04-06T09:36:42.934Z</time></trkpt><trkpt lat="41.0956591" lon="14.31835"><ele>109.0</ele><time>2026-04-06T09:36:46.068Z</time></trkpt><trkpt lat="41.0956467" lon="14.3182655"><ele>109.0</ele><time>2026-04-06T09:36:49.105Z</time></trkpt><trkpt lat="41.0956138" lon="14.3181826"><ele>109.0</ele><time>2026-04-06T09:36:52.096Z</time></trkpt><trkpt lat="41.0956647" lon="14.318094"><ele>109.0</ele><time>2026-04-06T09:36:55.98Z</time></trkpt><trkpt lat="41.0957361" lon="14.3180905"><ele>109.0</ele><time>2026-04-06T09:36:59.078Z</time></trkpt><trkpt lat="41.0958023" lon="14.3180623"><ele>109.0</ele><time>2026-04-06T09:37:01.996Z</time></trkpt><trkpt lat="41.0958587" lon="14.3179985"><ele>109.0</ele><time>2026-04-06T09:37:05.079Z</time></trkpt><trkpt lat="41.0959156" lon="14.31796"><ele>109.0</ele><time>2026-04-06T09:37:08.074Z</time></trkpt><trkpt lat="41.0959791" lon="14.3179305"><ele>108.57142857142857</ele><time>2026-04-06T09:37:11.079Z</time></trkpt><trkpt lat="41.0960589" lon="14.3178895"><ele>108.14285714285714</ele><time>2026-04-06T09:37:15.098Z</time></trkpt><trkpt lat="41.0961355" lon="14.3178865"><ele>107.71428571428572</ele><time>2026-04-06T09:37:19.063Z</time></trkpt><trkpt lat="41.0961941" lon="14.3178426"><ele>107.28571428571428</ele><time>2026-04-06T09:37:22.086Z</time></trkpt><trkpt lat="41.0962571" lon="14.3178053"><ele>106.85714285714285</ele><time>2026-04-06T09:37:25.09Z</time></trkpt><trkpt lat="41.0963093" lon="14.3177564"><ele>106.42857142857143</ele><time>2026-04-06T09:37:28.087Z</time></trkpt><trkpt lat="41.0963709" lon="14.3176998"><ele>106.0</ele><time>2026-04-06T09:37:31.093Z</time></trkpt><trkpt lat="41.0964323" lon="14.3176506"><ele>106.0</ele><time>2026-04-06T09:37:35.099Z</time></trkpt><trkpt lat="41.0964968" lon="14.3175887"><ele>106.0</ele><time>2026-04-06T09:37:39.095Z</time></trkpt><trkpt lat="41.0965538" lon="14.3175369"><ele>106.0</ele><time>2026-04-06T09:37:43.059Z</time></trkpt><trkpt lat="41.0966151" lon="14.3174691"><ele>106.0</ele><time>2026-04-06T09:37:47.082Z</time></trkpt><trkpt lat="41.0966746" lon="14.3173956"><ele>106.0</ele><time>2026-04-06T09:37:51.069Z</time></trkpt><trkpt lat="41.0967236" lon="14.3173413"><ele>106.0</ele><time>2026-04-06T09:37:54.079Z</time></trkpt><trkpt lat="41.0967754" lon="14.3172859"><ele>106.0</ele><time>2026-04-06T09:37:57.084Z</time></trkpt><trkpt lat="41.0968326" lon="14.3172326"><ele>106.66666666666667</ele><time>2026-04-06T09:38:00.077Z</time></trkpt><trkpt lat="41.0969017" lon="14.3171736"><ele>107.33333333333334</ele><time>2026-04-06T09:38:04.016Z</time></trkpt><trkpt lat="41.0969705" lon="14.3171302"><ele>108.0</ele><time>2026-04-06T09:38:08.109Z</time></trkpt><trkpt lat="41.0970324" lon="14.3170606"><ele>108.66666666666666</ele><time>2026-04-06T09:38:13.085Z</time></trkpt><trkpt lat="41.0970778" lon="14.3169964"><ele>109.33333333333333</ele><time>2026-04-06T09:38:16.131Z</time></trkpt><trkpt lat="41.0971086" lon="14.3169104"><ele>110.0</ele><time>2026-04-06T09:38:20.076Z</time></trkpt><trkpt lat="41.0971849" lon="14.316844"><ele>109.99999999999999</ele><time>2026-04-06T09:38:23.096Z</time></trkpt><trkpt lat="41.0972427" lon="14.3167923"><ele>110.0</ele><time>2026-04-06T09:38:25.617Z</time></trkpt><trkpt lat="41.0972949" lon="14.3167427"><ele>110.0</ele><time>2026-04-06T09:38:28.081Z</time></trkpt><trkpt lat="41.0973618" lon="14.3166821"><ele>110.0</ele><time>2026-04-06T09:38:31.078Z</time></trkpt><trkpt lat="41.0974234" lon="14.3166264"><ele>110.0</ele><time>2026-04-06T09:38:34.108Z</time></trkpt><trkpt lat="41.09749" lon="14.3165544"><ele>109.99999999999999</ele><time>2026-04-06T09:38:38.125Z</time></trkpt><trkpt lat="41.0975469" lon="14.3165081"><ele>110.0</ele><time>2026-04-06T09:38:40.996Z</time></trkpt><trkpt lat="41.0976073" lon="14.3164551"><ele>110.42857142857142</ele><time>2026-04-06T09:38:44.097Z</time></trkpt><trkpt lat="41.0976679" lon="14.3164029"><ele>110.85714285714286</ele><time>2026-04-06T09:38:47.076Z</time></trkpt><trkpt lat="41.0977183" lon="14.316347"><ele>111.28571428571428</ele><time>2026-04-06T09:38:50.085Z</time></trkpt><trkpt lat="41.097775" lon="14.3162984"><ele>111.71428571428571</ele><time>2026-04-06T09:38:53.138Z</time></trkpt><trkpt lat="41.0978311" lon="14.3162517"><ele>112.14285714285714</ele><time>2026-04-06T09:38:56.014Z</time></trkpt><trkpt lat="41.0978977" lon="14.3161996"><ele>112.57142857142857</ele><time>2026-04-06T09:38:59.093Z</time></trkpt><trkpt lat="41.0979739" lon="14.3161432"><ele>113.0</ele><time>2026-04-06T09:39:03.101Z</time></trkpt><trkpt lat="41.0980292" lon="14.31608"><ele>112.99999999999999</ele><time>2026-04-06T09:39:06.019Z</time></trkpt><trkpt lat="41.0980845" lon="14.3160174"><ele>113.0</ele><time>2026-04-06T09:39:09.107Z</time></trkpt><trkpt lat="41.0981572" lon="14.3159568"><ele>113.0</ele><time>2026-04-06T09:39:12.07Z</time></trkpt><trkpt lat="41.0982262" lon="14.3159022"><ele>113.0</ele><time>2026-04-06T09:39:15.065Z</time></trkpt><trkpt lat="41.0982874" lon="14.3158646"><ele>112.99999999999999</ele><time>2026-04-06T09:39:17.076Z</time></trkpt><trkpt lat="41.0983474" lon="14.3158132"><ele>113.0</ele><time>2026-04-06T09:39:20.08Z</time></trkpt><trkpt lat="41.0984178" lon="14.3157588"><ele>113.57142857142858</ele><time>2026-04-06T09:39:23.998Z</time></trkpt><trkpt lat="41.0984675" lon="14.3157032"><ele>114.14285714285714</ele><time>2026-04-06T09:39:28.074Z</time></trkpt><trkpt lat="41.098524" lon="14.315649"><ele>114.71428571428572</ele><time>2026-04-06T09:39:31.098Z</time></trkpt><trkpt lat="41.0985856" lon="14.3155765"><ele>115.28571428571429</ele><time>2026-04-06T09:39:35.079Z</time></trkpt><trkpt lat="41.0986593" lon="14.3155359"><ele>115.85714285714286</ele><time>2026-04-06T09:39:39.077Z</time></trkpt><trkpt lat="41.0987314" lon="14.3154817"><ele>116.42857142857143</ele><time>2026-04-06T09:39:43.074Z</time></trkpt><trkpt lat="41.0987881" lon="14.3154384"><ele>117.0</ele><time>2026-04-06T09:39:46.096Z</time></trkpt><trkpt lat="41.0988665" lon="14.3153754"><ele>117.0</ele><time>2026-04-06T09:39:50.066Z</time></trkpt><trkpt lat="41.0989336" lon="14.3153065"><ele>117.00000000000001</ele><time>2026-04-06T09:39:54.07Z</time></trkpt><trkpt lat="41.0989904" lon="14.3152569"><ele>117.0</ele><time>2026-04-06T09:39:57.085Z</time></trkpt><trkpt lat="41.0990484" lon="14.315175"><ele>117.0</ele><time>2026-04-06T09:40:01.068Z</time></trkpt><trkpt lat="41.0990966" lon="14.3151167"><ele>117.00000000000001</ele><time>2026-04-06T09:40:04.055Z</time></trkpt><trkpt lat="41.0991397" lon="14.3150537"><ele>117.0</ele><time>2026-04-06T09:40:07.061Z</time></trkpt><trkpt lat="41.0992074" lon="14.3149945"><ele>117.0</ele><time>2026-04-06T09:40:10.062Z</time></trkpt><trkpt lat="41.0992769" lon="14.3149132"><ele>117.57142857142858</ele><time>2026-04-06T09:40:13.069Z</time></trkpt><trkpt lat="41.0993228" lon="14.3148358"><ele>118.14285714285715</ele><time>2026-04-06T09:40:16.12Z</time></trkpt><trkpt lat="41.0993733" lon="14.3147822"><ele>118.71428571428572</ele><time>2026-04-06T09:40:19.057Z</time></trkpt><trkpt lat="41.0994277" lon="14.3147122"><ele>119.28571428571428</ele><time>2026-04-06T09:40:22.066Z</time></trkpt><trkpt lat="41.09947" lon="14.3146457"><ele>119.85714285714285</ele><time>2026-04-06T09:40:25.097Z</time></trkpt><trkpt lat="41.0995264" lon="14.3145608"><ele>120.42857142857142</ele><time>2026-04-06T09:40:29.115Z</time></trkpt><trkpt lat="41.0995508" lon="14.314466"><ele>121.0</ele><time>2026-04-06T09:40:31.983Z</time></trkpt><trkpt lat="41.0995919" lon="14.3143827"><ele>121.14285714285714</ele><time>2026-04-06T09:40:35.117Z</time></trkpt><trkpt lat="41.0996296" lon="14.314312"><ele>121.28571428571428</ele><time>2026-04-06T09:40:38.022Z</time></trkpt><trkpt lat="41.0996691" lon="14.314239"><ele>121.42857142857142</ele><time>2026-04-06T09:40:41.066Z</time></trkpt><trkpt lat="41.0997122" lon="14.31417"><ele>121.57142857142856</ele><time>2026-04-06T09:40:44.041Z</time></trkpt><trkpt lat="41.09976" lon="14.3140935"><ele>121.71428571428571</ele><time>2026-04-06T09:40:48.1Z</time></trkpt><trkpt lat="41.0998037" lon="14.3140199"><ele>121.85714285714283</ele><time>2026-04-06T09:40:51.088Z</time></trkpt><trkpt lat="41.0998426" lon="14.3139482"><ele>121.99999999999999</ele><time>2026-04-06T09:40:54.996Z</time></trkpt><trkpt lat="41.0998709" lon="14.3138672"><ele>121.99999999999999</ele><time>2026-04-06T09:40:59.075Z</time></trkpt><trkpt lat="41.0999159" lon="14.3137804"><ele>122.0</ele><time>2026-04-06T09:41:03.065Z</time></trkpt><trkpt lat="41.0999556" lon="14.3137114"><ele>121.99999999999999</ele><time>2026-04-06T09:41:05.997Z</time></trkpt><trkpt lat="41.0999837" lon="14.3136318"><ele>121.99999999999999</ele><time>2026-04-06T09:41:09.07Z</time></trkpt><trkpt lat="41.1000094" lon="14.3135481"><ele>122.0</ele><time>2026-04-06T09:41:12.067Z</time></trkpt><trkpt lat="41.1000406" lon="14.3134622"><ele>121.99999999999999</ele><time>2026-04-06T09:41:16.075Z</time></trkpt><trkpt lat="41.1000744" lon="14.3133886"><ele>121.99999999999999</ele><time>2026-04-06T09:41:20.098Z</time></trkpt><trkpt lat="41.1001074" lon="14.3133172"><ele>122.57142857142856</ele><time>2026-04-06T09:41:23.042Z</time></trkpt><trkpt lat="41.1001501" lon="14.3132398"><ele>123.14285714285714</ele><time>2026-04-06T09:41:26.057Z</time></trkpt><trkpt lat="41.100192" lon="14.3131567"><ele>123.71428571428571</ele><time>2026-04-06T09:41:29.099Z</time></trkpt><trkpt lat="41.1002353" lon="14.3130867"><ele>124.28571428571428</ele><time>2026-04-06T09:41:32.091Z</time></trkpt><trkpt lat="41.100283" lon="14.3130182"><ele>124.85714285714286</ele><time>2026-04-06T09:41:35.1Z</time></trkpt><trkpt lat="41.1003568" lon="14.31296"><ele>125.42857142857143</ele><time>2026-04-06T09:41:38.074Z</time></trkpt><trkpt lat="41.1004086" lon="14.3128995"><ele>126.0</ele><time>2026-04-06T09:41:41.081Z</time></trkpt><trkpt lat="41.1004417" lon="14.3128157"><ele>126.0</ele><time>2026-04-06T09:41:44.056Z</time></trkpt><trkpt lat="41.1004656" lon="14.3127247"><ele>126.0</ele><time>2026-04-06T09:41:47.076Z</time></trkpt><trkpt lat="41.1004969" lon="14.3126372"><ele>126.0</ele><time>2026-04-06T09:41:49.999Z</time></trkpt><trkpt lat="41.1005304" lon="14.3125527"><ele>126.0</ele><time>2026-04-06T09:41:53.075Z</time></trkpt><trkpt lat="41.1005733" lon="14.3124874"><ele>126.0</ele><time>2026-04-06T09:41:56.083Z</time></trkpt><trkpt lat="41.1006257" lon="14.3124092"><ele>126.0</ele><time>2026-04-06T09:42:00.078Z</time></trkpt><trkpt lat="41.1006979" lon="14.3123569"><ele>126.0</ele><time>2026-04-06T09:42:04.096Z</time></trkpt><trkpt lat="41.1007593" lon="14.312282"><ele>126.83333333333333</ele><time>2026-04-06T09:42:08.125Z</time></trkpt><trkpt lat="41.1008076" lon="14.3121994"><ele>127.66666666666666</ele><time>2026-04-06T09:42:11.071Z</time></trkpt><trkpt lat="41.1008793" lon="14.3121407"><ele>128.5</ele><time>2026-04-06T09:42:14.069Z</time></trkpt><trkpt lat="41.1009342" lon="14.3120903"><ele>129.33333333333331</ele><time>2026-04-06T09:42:16.07Z</time></trkpt><trkpt lat="41.1009991" lon="14.3120152"><ele>130.16666666666666</ele><time>2026-04-06T09:42:19.036Z</time></trkpt><trkpt lat="41.1010449" lon="14.3119447"><ele>131.0</ele><time>2026-04-06T09:42:22.099Z</time></trkpt><trkpt lat="41.1010833" lon="14.3118767"><ele>131.0</ele><time>2026-04-06T09:42:25.073Z</time></trkpt><trkpt lat="41.1011235" lon="14.3117913"><ele>131.0</ele><time>2026-04-06T09:42:28.983Z</time></trkpt><trkpt lat="41.1011722" lon="14.3117004"><ele>131.0</ele><time>2026-04-06T09:42:33.075Z</time></trkpt><trkpt lat="41.101217" lon="14.3116334"><ele>131.0</ele><time>2026-04-06T09:42:36.088Z</time></trkpt><trkpt lat="41.1012688" lon="14.311553"><ele>131.0</ele><time>2026-04-06T09:42:40.118Z</time></trkpt><trkpt lat="41.1013156" lon="14.3114971"><ele>131.0</ele><time>2026-04-06T09:42:44.058Z</time></trkpt><trkpt lat="41.1013732" lon="14.3114199"><ele>131.14285714285714</ele><time>2026-04-06T09:42:49.433Z</time></trkpt><trkpt lat="41.1014221" lon="14.311345"><ele>131.2857142857143</ele><time>2026-04-06T09:42:53.704Z</time></trkpt><trkpt lat="41.1014734" lon="14.3112953"><ele>131.42857142857144</ele><time>2026-04-06T09:42:56.926Z</time></trkpt><trkpt lat="41.1015392" lon="14.3112376"><ele>131.57142857142858</ele><time>2026-04-06T09:43:01.066Z</time></trkpt><trkpt lat="41.1015988" lon="14.3111924"><ele>131.71428571428572</ele><time>2026-04-06T09:43:04.08Z</time></trkpt><trkpt lat="41.1016809" lon="14.3111565"><ele>131.85714285714286</ele><time>2026-04-06T09:43:08.077Z</time></trkpt><trkpt lat="41.101746" lon="14.311123"><ele>132.0</ele><time>2026-04-06T09:43:11.084Z</time></trkpt><trkpt lat="41.1018193" lon="14.3110875"><ele>132.85714285714286</ele><time>2026-04-06T09:43:14.085Z</time></trkpt><trkpt lat="41.101882" lon="14.3110562"><ele>133.71428571428572</ele><time>2026-04-06T09:43:16.994Z</time></trkpt><trkpt lat="41.1019491" lon="14.311016"><ele>134.57142857142858</ele><time>2026-04-06T09:43:20.101Z</time></trkpt><trkpt lat="41.1020066" lon="14.310974"><ele>135.42857142857144</ele><time>2026-04-06T09:43:23.065Z</time></trkpt><trkpt lat="41.1020777" lon="14.3109319"><ele>136.2857142857143</ele><time>2026-04-06T09:43:27.078Z</time></trkpt><trkpt lat="41.1021415" lon="14.3108997"><ele>137.14285714285714</ele><time>2026-04-06T09:43:30.079Z</time></trkpt><trkpt lat="41.1022147" lon="14.3108542"><ele>138.0</ele><time>2026-04-06T09:43:33.019Z</time></trkpt><trkpt lat="41.1022885" lon="14.3108114"><ele>138.0</ele><time>2026-04-06T09:43:36.093Z</time></trkpt><trkpt lat="41.1023477" lon="14.3107799"><ele>138.0</ele><time>2026-04-06T09:43:39.022Z</time></trkpt><trkpt lat="41.102421" lon="14.3107401"><ele>138.0</ele><time>2026-04-06T09:43:43.067Z</time></trkpt><trkpt lat="41.1025148" lon="14.3106911"><ele>138.0</ele><time>2026-04-06T09:43:46.068Z</time></trkpt><trkpt lat="41.1025745" lon="14.3106596"><ele>138.0</ele><time>2026-04-06T09:43:48.085Z</time></trkpt><trkpt lat="41.1026409" lon="14.3106337"><ele>138.0</ele><time>2026-04-06T09:43:51.059Z</time></trkpt><trkpt lat="41.1027109" lon="14.3105695"><ele>138.28571428571428</ele><time>2026-04-06T09:43:55.095Z</time></trkpt><trkpt lat="41.1027802" lon="14.310517"><ele>138.57142857142858</ele><time>2026-04-06T09:43:59.048Z</time></trkpt><trkpt lat="41.1028497" lon="14.3105108"><ele>138.85714285714286</ele><time>2026-04-06T09:44:03.105Z</time></trkpt><trkpt lat="41.1029342" lon="14.3104872"><ele>139.14285714285714</ele><time>2026-04-06T09:44:07.057Z</time></trkpt><trkpt lat="41.1029942" lon="14.3104334"><ele>139.42857142857144</ele><time>2026-04-06T09:44:10.07Z</time></trkpt><trkpt lat="41.1030504" lon="14.3103823"><ele>139.71428571428572</ele><time>2026-04-06T09:44:13.079Z</time></trkpt><trkpt lat="41.1031176" lon="14.3103464"><ele>140.0</ele><time>2026-04-06T09:44:17.07Z</time></trkpt><trkpt lat="41.1031774" lon="14.3102784"><ele>140.0</ele><time>2026-04-06T09:44:21.091Z</time></trkpt><trkpt lat="41.1032232" lon="14.3101914"><ele>140.0</ele><time>2026-04-06T09:44:25.041Z</time></trkpt><trkpt lat="41.1032525" lon="14.3101066"><ele>140.0</ele><time>2026-04-06T09:44:28.076Z</time></trkpt><trkpt lat="41.1032858" lon="14.3100287"><ele>140.0</ele><time>2026-04-06T09:44:31.078Z</time></trkpt><trkpt lat="41.1033228" lon="14.30994"><ele>140.0</ele><time>2026-04-06T09:44:35Z</time></trkpt><trkpt lat="41.103339" lon="14.3098397"><ele>140.0</ele><time>2026-04-06T09:44:39.083Z</time></trkpt><trkpt lat="41.1033603" lon="14.3097438"><ele>140.0</ele><time>2026-04-06T09:44:43.089Z</time></trkpt><trkpt lat="41.1033964" lon="14.3096626"><ele>140.42857142857142</ele><time>2026-04-06T09:44:47.075Z</time></trkpt><trkpt lat="41.1034118" lon="14.3095787"><ele>140.85714285714286</ele><time>2026-04-06T09:44:51.041Z</time></trkpt><trkpt lat="41.1034534" lon="14.3094971"><ele>141.28571428571428</ele><time>2026-04-06T09:44:54.045Z</time></trkpt><trkpt lat="41.1035235" lon="14.3094785"><ele>141.71428571428572</ele><time>2026-04-06T09:44:56.097Z</time></trkpt><trkpt lat="41.1035832" lon="14.3094121"><ele>142.14285714285714</ele><time>2026-04-06T09:44:59.068Z</time></trkpt><trkpt lat="41.1036182" lon="14.3093255"><ele>142.57142857142856</ele><time>2026-04-06T09:45:03.064Z</time></trkpt><trkpt lat="41.1036579" lon="14.3092417"><ele>143.0</ele><time>2026-04-06T09:45:07.8Z</time></trkpt><trkpt lat="41.1037095" lon="14.3091937"><ele>142.99999999999997</ele><time>2026-04-06T09:45:12.222Z</time></trkpt><trkpt lat="41.1037498" lon="14.3091141"><ele>143.0</ele><time>2026-04-06T09:45:18.05Z</time></trkpt><trkpt lat="41.1037856" lon="14.3090256"><ele>143.0</ele><time>2026-04-06T09:45:24.047Z</time></trkpt><trkpt lat="41.1038113" lon="14.3089367"><ele>143.0</ele><time>2026-04-06T09:45:29.075Z</time></trkpt><trkpt lat="41.1038348" lon="14.3088535"><ele>143.0</ele><time>2026-04-06T09:45:34.055Z</time></trkpt><trkpt lat="41.1038762" lon="14.3087751"><ele>142.99999999999997</ele><time>2026-04-06T09:45:40.069Z</time></trkpt><trkpt lat="41.1039178" lon="14.308712"><ele>143.0</ele><time>2026-04-06T09:45:45.056Z</time></trkpt><trkpt lat="41.1039676" lon="14.3086492"><ele>142.99999999999997</ele><time>2026-04-06T09:45:50.053Z</time></trkpt><trkpt lat="41.1040143" lon="14.3085906"><ele>143.0</ele><time>2026-04-06T09:45:55.063Z</time></trkpt><trkpt lat="41.1040544" lon="14.3085177"><ele>143.0</ele><time>2026-04-06T09:46:00.054Z</time></trkpt><trkpt lat="41.1041132" lon="14.3084753"><ele>143.0</ele><time>2026-04-06T09:46:05.059Z</time></trkpt><trkpt lat="41.1041592" lon="14.3084074"><ele>143.0</ele><time>2026-04-06T09:46:10.049Z</time></trkpt><trkpt lat="41.1042273" lon="14.3083688"><ele>142.99999999999997</ele><time>2026-04-06T09:46:16.049Z</time></trkpt><trkpt lat="41.1042801" lon="14.3083154"><ele>143.0</ele><time>2026-04-06T09:46:22.057Z</time></trkpt><trkpt lat="41.1043391" lon="14.3082576"><ele>143.57142857142856</ele><time>2026-04-06T09:46:28.056Z</time></trkpt><trkpt lat="41.1044" lon="14.3082111"><ele>144.14285714285714</ele><time>2026-04-06T09:46:34.059Z</time></trkpt><trkpt lat="41.1044475" lon="14.3081417"><ele>144.71428571428572</ele><time>2026-04-06T09:46:40.055Z</time></trkpt><trkpt lat="41.1045047" lon="14.3081035"><ele>145.28571428571428</ele><time>2026-04-06T09:46:45.093Z</time></trkpt><trkpt lat="41.1045682" lon="14.3080506"><ele>145.85714285714286</ele><time>2026-04-06T09:46:51.055Z</time></trkpt><trkpt lat="41.1046301" lon="14.3079972"><ele>146.42857142857142</ele><time>2026-04-06T09:46:57.07Z</time></trkpt><trkpt lat="41.1046937" lon="14.3079763"><ele>147.0</ele><time>2026-04-06T09:47:05.112Z</time></trkpt><trkpt lat="41.1047461" lon="14.3079294"><ele>147.14285714285714</ele><time>2026-04-06T09:47:10.094Z</time></trkpt><trkpt lat="41.1047715" lon="14.3078391"><ele>147.28571428571428</ele><time>2026-04-06T09:47:13.077Z</time></trkpt><trkpt lat="41.1048295" lon="14.3077732"><ele>147.42857142857144</ele><time>2026-04-06T09:47:18.124Z</time></trkpt><trkpt lat="41.1049014" lon="14.3077397"><ele>147.57142857142856</ele><time>2026-04-06T09:47:23.079Z</time></trkpt><trkpt lat="41.1049634" lon="14.307708"><ele>147.71428571428572</ele><time>2026-04-06T09:47:29.063Z</time></trkpt><trkpt lat="41.1050197" lon="14.3076527"><ele>147.85714285714286</ele><time>2026-04-06T09:47:35.923Z</time></trkpt><trkpt lat="41.1050723" lon="14.3075939"><ele>148.0</ele><time>2026-04-06T09:47:40.087Z</time></trkpt><trkpt lat="41.1051261" lon="14.3075427"><ele>148.57142857142858</ele><time>2026-04-06T09:47:46.086Z</time></trkpt><trkpt lat="41.1051887" lon="14.307498"><ele>149.14285714285714</ele><time>2026-04-06T09:47:52.083Z</time></trkpt><trkpt lat="41.1052496" lon="14.3074501"><ele>149.71428571428572</ele><time>2026-04-06T09:47:57.049Z</time></trkpt><trkpt lat="41.1053063" lon="14.3074089"><ele>150.28571428571428</ele><time>2026-04-06T09:48:04.06Z</time></trkpt><trkpt lat="41.1053558" lon="14.3073402"><ele>150.85714285714286</ele><time>2026-04-06T09:48:10.053Z</time></trkpt><trkpt lat="41.1054214" lon="14.3073126"><ele>151.42857142857142</ele><time>2026-04-06T09:48:15.051Z</time></trkpt><trkpt lat="41.1054928" lon="14.3072828"><ele>152.0</ele><time>2026-04-06T09:48:21.073Z</time></trkpt><trkpt lat="41.1055499" lon="14.3072368"><ele>152.0</ele><time>2026-04-06T09:48:26.052Z</time></trkpt><trkpt lat="41.1055977" lon="14.3071788"><ele>152.0</ele><time>2026-04-06T09:48:31.059Z</time></trkpt><trkpt lat="41.1056689" lon="14.3071719"><ele>152.0</ele><time>2026-04-06T09:48:38.023Z</time></trkpt><trkpt lat="41.1057336" lon="14.3071573"><ele>152.0</ele><time>2026-04-06T09:48:42.059Z</time></trkpt><trkpt lat="41.1057987" lon="14.3071456"><ele>152.0</ele><time>2026-04-06T09:48:47.062Z</time></trkpt><trkpt lat="41.1058664" lon="14.3071095"><ele>152.0</ele><time>2026-04-06T09:48:53.06Z</time></trkpt><trkpt lat="41.1059208" lon="14.3070623"><ele>152.0</ele><time>2026-04-06T09:48:58.958Z</time></trkpt><trkpt lat="41.1059797" lon="14.3070042"><ele>152.42857142857142</ele><time>2026-04-06T09:49:05.054Z</time></trkpt><trkpt lat="41.1060365" lon="14.3069501"><ele>152.85714285714286</ele><time>2026-04-06T09:49:11.057Z</time></trkpt><trkpt lat="41.1061028" lon="14.3069324"><ele>153.28571428571428</ele><time>2026-04-06T09:49:16.056Z</time></trkpt><trkpt lat="41.1061658" lon="14.3068882"><ele>153.71428571428572</ele><time>2026-04-06T09:49:23.047Z</time></trkpt><trkpt lat="41.1062364" lon="14.3068559"><ele>154.14285714285714</ele><time>2026-04-06T09:49:28.052Z</time></trkpt><trkpt lat="41.1062946" lon="14.3068147"><ele>154.57142857142858</ele><time>2026-04-06T09:49:32.044Z</time></trkpt><trkpt lat="41.1063542" lon="14.3067822"><ele>155.0</ele><time>2026-04-06T09:49:39.049Z</time></trkpt><trkpt lat="41.1064269" lon="14.3067449"><ele>155.0</ele><time>2026-04-06T09:49:47.054Z</time></trkpt><trkpt lat="41.1064835" lon="14.3067058"><ele>155.0</ele><time>2026-04-06T09:49:52.053Z</time></trkpt><trkpt lat="41.106545" lon="14.3066694"><ele>155.0</ele><time>2026-04-06T09:49:58.066Z</time></trkpt><trkpt lat="41.1066066" lon="14.3066151"><ele>155.0</ele><time>2026-04-06T09:50:04.059Z</time></trkpt><trkpt lat="41.1066697" lon="14.3066221"><ele>155.0</ele><time>2026-04-06T09:50:10.021Z</time></trkpt><trkpt lat="41.1067364" lon="14.3065832"><ele>155.0</ele><time>2026-04-06T09:50:15.054Z</time></trkpt><trkpt lat="41.1067971" lon="14.3065386"><ele>155.0</ele><time>2026-04-06T09:50:20.055Z</time></trkpt><trkpt lat="41.1068581" lon="14.3065083"><ele>155.71428571428572</ele><time>2026-04-06T09:50:27.046Z</time></trkpt><trkpt lat="41.1069202" lon="14.3064687"><ele>156.42857142857142</ele><time>2026-04-06T09:50:32.054Z</time></trkpt><trkpt lat="41.1069953" lon="14.3064313"><ele>157.14285714285714</ele><time>2026-04-06T09:50:38.052Z</time></trkpt><trkpt lat="41.1070586" lon="14.3064228"><ele>157.85714285714286</ele><time>2026-04-06T09:50:43.063Z</time></trkpt><trkpt lat="41.1071226" lon="14.3063729"><ele>158.57142857142858</ele><time>2026-04-06T09:50:46.082Z</time></trkpt><trkpt lat="41.1071787" lon="14.3063204"><ele>159.28571428571428</ele><time>2026-04-06T09:50:48.059Z</time></trkpt><trkpt lat="41.1072405" lon="14.3062784"><ele>160.0</ele><time>2026-04-06T09:50:52.117Z</time></trkpt><trkpt lat="41.1073081" lon="14.3062704"><ele>160.0</ele><time>2026-04-06T09:51:01.08Z</time></trkpt><trkpt lat="41.1073717" lon="14.3062491"><ele>160.0</ele><time>2026-04-06T09:51:07.05Z</time></trkpt><trkpt lat="41.1074406" lon="14.3062139"><ele>160.0</ele><time>2026-04-06T09:51:15.058Z</time></trkpt><trkpt lat="41.1074554" lon="14.3061265"><ele>160.0</ele><time>2026-04-06T09:51:24.111Z</time></trkpt><trkpt lat="41.1075198" lon="14.3061557"><ele>160.0</ele><time>2026-04-06T09:51:27.084Z</time></trkpt><trkpt lat="41.1075924" lon="14.3061728"><ele>160.0</ele><time>2026-04-06T09:51:31.073Z</time></trkpt><trkpt lat="41.1076548" lon="14.3061409"><ele>160.0</ele><time>2026-04-06T09:51:35.079Z</time></trkpt><trkpt lat="41.1077193" lon="14.3061115"><ele>161.0</ele><time>2026-04-06T09:51:40.061Z</time></trkpt><trkpt lat="41.1077773" lon="14.306077"><ele>162.0</ele><time>2026-04-06T09:51:44.077Z</time></trkpt><trkpt lat="41.1078359" lon="14.3060412"><ele>163.0</ele><time>2026-04-06T09:51:47.103Z</time></trkpt><trkpt lat="41.1078819" lon="14.3059767"><ele>164.0</ele><time>2026-04-06T09:51:50.074Z</time></trkpt><trkpt lat="41.1079363" lon="14.3059122"><ele>165.0</ele><time>2026-04-06T09:51:53.037Z</time></trkpt><trkpt lat="41.1079992" lon="14.3058549"><ele>166.0</ele><time>2026-04-06T09:51:56.086Z</time></trkpt><trkpt lat="41.1080628" lon="14.3058147"><ele>167.0</ele><time>2026-04-06T09:51:59.024Z</time></trkpt><trkpt lat="41.1081268" lon="14.3057656"><ele>167.0</ele><time>2026-04-06T09:52:02.101Z</time></trkpt><trkpt lat="41.1081962" lon="14.3057327"><ele>167.0</ele><time>2026-04-06T09:52:05.061Z</time></trkpt><trkpt lat="41.1082674" lon="14.305714"><ele>167.0</ele><time>2026-04-06T09:52:08.078Z</time></trkpt><trkpt lat="41.1083372" lon="14.3056753"><ele>167.0</ele><time>2026-04-06T09:52:11.077Z</time></trkpt><trkpt lat="41.108406" lon="14.3056322"><ele>167.0</ele><time>2026-04-06T09:52:13.982Z</time></trkpt><trkpt lat="41.1084627" lon="14.3055933"><ele>167.0</ele><time>2026-04-06T09:52:17.089Z</time></trkpt><trkpt lat="41.1085221" lon="14.3055434"><ele>167.0</ele><time>2026-04-06T09:52:20.059Z</time></trkpt><trkpt lat="41.1085798" lon="14.3054896"><ele>167.42857142857142</ele><time>2026-04-06T09:52:23.073Z</time></trkpt><trkpt lat="41.1086375" lon="14.3054273"><ele>167.85714285714286</ele><time>2026-04-06T09:52:26.137Z</time></trkpt><trkpt lat="41.1086896" lon="14.305359"><ele>168.28571428571428</ele><time>2026-04-06T09:52:29.067Z</time></trkpt><trkpt lat="41.1087411" lon="14.3053002"><ele>168.71428571428572</ele><time>2026-04-06T09:52:32.063Z</time></trkpt><trkpt lat="41.1087827" lon="14.3052321"><ele>169.14285714285714</ele><time>2026-04-06T09:52:35.084Z</time></trkpt><trkpt lat="41.108826" lon="14.3051624"><ele>169.57142857142858</ele><time>2026-04-06T09:52:38.088Z</time></trkpt><trkpt lat="41.1088616" lon="14.3050925"><ele>170.0</ele><time>2026-04-06T09:52:41.073Z</time></trkpt><trkpt lat="41.1088962" lon="14.3050161"><ele>170.0</ele><time>2026-04-06T09:52:44.125Z</time></trkpt><trkpt lat="41.1089363" lon="14.3049348"><ele>170.0</ele><time>2026-04-06T09:52:47.08Z</time></trkpt><trkpt lat="41.1089802" lon="14.3048468"><ele>170.0</ele><time>2026-04-06T09:52:50.064Z</time></trkpt><trkpt lat="41.1090229" lon="14.3047636"><ele>170.0</ele><time>2026-04-06T09:52:53.091Z</time></trkpt><trkpt lat="41.109061" lon="14.3046825"><ele>170.0</ele><time>2026-04-06T09:52:56.022Z</time></trkpt><trkpt lat="41.1090865" lon="14.304594"><ele>170.0</ele><time>2026-04-06T09:52:59.09Z</time></trkpt><trkpt lat="41.1091254" lon="14.3045156"><ele>170.0</ele><time>2026-04-06T09:53:02.035Z</time></trkpt><trkpt lat="41.1091718" lon="14.3044461"><ele>170.66666666666666</ele><time>2026-04-06T09:53:05.087Z</time></trkpt><trkpt lat="41.1092135" lon="14.3043793"><ele>171.33333333333331</ele><time>2026-04-06T09:53:08.02Z</time></trkpt><trkpt lat="41.1092561" lon="14.3042851"><ele>172.0</ele><time>2026-04-06T09:53:11.086Z</time></trkpt><trkpt lat="41.1093081" lon="14.3041889"><ele>172.66666666666666</ele><time>2026-04-06T09:53:13.984Z</time></trkpt><trkpt lat="41.1093688" lon="14.3040997"><ele>173.33333333333334</ele><time>2026-04-06T09:53:17.081Z</time></trkpt><trkpt lat="41.109429" lon="14.3040135"><ele>174.0</ele><time>2026-04-06T09:53:20.094Z</time></trkpt><trkpt lat="41.1094886" lon="14.3039272"><ele>174.33333333333334</ele><time>2026-04-06T09:53:23.088Z</time></trkpt><trkpt lat="41.1095449" lon="14.3038529"><ele>174.66666666666666</ele><time>2026-04-06T09:53:26.004Z</time></trkpt><trkpt lat="41.1095966" lon="14.3037826"><ele>175.0</ele><time>2026-04-06T09:53:29.095Z</time></trkpt><trkpt lat="41.1096447" lon="14.3037232"><ele>175.33333333333331</ele><time>2026-04-06T09:53:32.066Z</time></trkpt><trkpt lat="41.1096967" lon="14.3036581"><ele>175.66666666666666</ele><time>2026-04-06T09:53:35.076Z</time></trkpt><trkpt lat="41.1097687" lon="14.3035989"><ele>176.0</ele><time>2026-04-06T09:53:38.104Z</time></trkpt><trkpt lat="41.1098376" lon="14.3035368"><ele>176.0</ele><time>2026-04-06T09:53:41.086Z</time></trkpt><trkpt lat="41.1099041" lon="14.3034734"><ele>176.0</ele><time>2026-04-06T09:53:44.09Z</time></trkpt><trkpt lat="41.1099813" lon="14.3034153"><ele>176.0</ele><time>2026-04-06T09:53:46.981Z</time></trkpt><trkpt lat="41.110044" lon="14.3033718"><ele>176.0</ele><time>2026-04-06T09:53:50.134Z</time></trkpt><trkpt lat="41.1101136" lon="14.3033264"><ele>176.0</ele><time>2026-04-06T09:53:53.084Z</time></trkpt><trkpt lat="41.1101888" lon="14.3032898"><ele>176.0</ele><time>2026-04-06T09:53:55.999Z</time></trkpt><trkpt lat="41.1102598" lon="14.3032485"><ele>175.33333333333331</ele><time>2026-04-06T09:53:59.103Z</time></trkpt><trkpt lat="41.1103269" lon="14.3032141"><ele>174.66666666666666</ele><time>2026-04-06T09:54:02.077Z</time></trkpt><trkpt lat="41.1103995" lon="14.3031888"><ele>174.0</ele><time>2026-04-06T09:54:04.998Z</time></trkpt><trkpt lat="41.1104765" lon="14.3031697"><ele>173.33333333333334</ele><time>2026-04-06T09:54:08.059Z</time></trkpt><trkpt lat="41.1105694" lon="14.303137"><ele>172.66666666666669</ele><time>2026-04-06T09:54:11.089Z</time></trkpt><trkpt lat="41.1106349" lon="14.30311"><ele>172.0</ele><time>2026-04-06T09:54:13.078Z</time></trkpt><trkpt lat="41.1106983" lon="14.3030843"><ele>171.0</ele><time>2026-04-06T09:54:15.029Z</time></trkpt><trkpt lat="41.1107678" lon="14.3030596"><ele>170.0</ele><time>2026-04-06T09:54:17.129Z</time></trkpt><trkpt lat="41.1108487" lon="14.3030236"><ele>169.0</ele><time>2026-04-06T09:54:20.079Z</time></trkpt><trkpt lat="41.1109257" lon="14.3029898"><ele>168.0</ele><time>2026-04-06T09:54:23.074Z</time></trkpt><trkpt lat="41.111004" lon="14.3029548"><ele>167.0</ele><time>2026-04-06T09:54:26.02Z</time></trkpt><trkpt lat="41.1110913" lon="14.3029188"><ele>166.0</ele><time>2026-04-06T09:54:29.124Z</time></trkpt><trkpt lat="41.1111777" lon="14.3028812"><ele>166.0</ele><time>2026-04-06T09:54:32.081Z</time></trkpt><trkpt lat="41.111265" lon="14.3028513"><ele>166.0</ele><time>2026-04-06T09:54:35.017Z</time></trkpt><trkpt lat="41.1113514" lon="14.3028275"><ele>166.0</ele><time>2026-04-06T09:54:38.082Z</time></trkpt><trkpt lat="41.1114151" lon="14.302797"><ele>166.0</ele><time>2026-04-06T09:54:41.077Z</time></trkpt><trkpt lat="41.1114865" lon="14.302769"><ele>166.0</ele><time>2026-04-06T09:54:44.093Z</time></trkpt><trkpt lat="41.1115618" lon="14.3027354"><ele>166.0</ele><time>2026-04-06T09:54:47.092Z</time></trkpt><trkpt lat="41.1116493" lon="14.302703"><ele>165.28571428571428</ele><time>2026-04-06T09:54:50.005Z</time></trkpt><trkpt lat="41.1117136" lon="14.30268"><ele>164.57142857142858</ele><time>2026-04-06T09:54:52.09Z</time></trkpt><trkpt lat="41.1117784" lon="14.3026524"><ele>163.85714285714286</ele><time>2026-04-06T09:54:54.099Z</time></trkpt><trkpt lat="41.1118385" lon="14.3026263"><ele>163.14285714285714</ele><time>2026-04-06T09:54:56.075Z</time></trkpt><trkpt lat="41.111921" lon="14.3025901"><ele>162.42857142857144</ele><time>2026-04-06T09:54:58.997Z</time></trkpt><trkpt lat="41.11201" lon="14.3025485"><ele>161.71428571428572</ele><time>2026-04-06T09:55:02.106Z</time></trkpt><trkpt lat="41.1120716" lon="14.3025179"><ele>161.0</ele><time>2026-04-06T09:55:04.091Z</time></trkpt><trkpt lat="41.1121345" lon="14.3024947"><ele>161.0</ele><time>2026-04-06T09:55:06.088Z</time></trkpt><trkpt lat="41.1122241" lon="14.3024715"><ele>161.0</ele><time>2026-04-06T09:55:09.112Z</time></trkpt><trkpt lat="41.112287" lon="14.3024554"><ele>161.0</ele><time>2026-04-06T09:55:11.061Z</time></trkpt><trkpt lat="41.1123737" lon="14.3024344"><ele>161.0</ele><time>2026-04-06T09:55:14.024Z</time></trkpt><trkpt lat="41.1124362" lon="14.3024132"><ele>161.0</ele><time>2026-04-06T09:55:16.075Z</time></trkpt><trkpt lat="41.112521" lon="14.3023806"><ele>161.0</ele><time>2026-04-06T09:55:19.118Z</time></trkpt><trkpt lat="41.1126075" lon="14.3023626"><ele>160.83333333333331</ele><time>2026-04-06T09:55:22.057Z</time></trkpt><trkpt lat="41.1126991" lon="14.3023381"><ele>160.66666666666666</ele><time>2026-04-06T09:55:25.069Z</time></trkpt><trkpt lat="41.1127781" lon="14.3023198"><ele>160.5</ele><time>2026-04-06T09:55:28.084Z</time></trkpt><trkpt lat="41.1128552" lon="14.3022709"><ele>160.33333333333334</ele><time>2026-04-06T09:55:30.997Z</time></trkpt><trkpt lat="41.1129433" lon="14.3022361"><ele>160.16666666666669</ele><time>2026-04-06T09:55:34.093Z</time></trkpt><trkpt lat="41.1130109" lon="14.3022158"><ele>160.0</ele><time>2026-04-06T09:55:36.111Z</time></trkpt><trkpt lat="41.1130942" lon="14.3021802"><ele>159.5</ele><time>2026-04-06T09:55:39.001Z</time></trkpt><trkpt lat="41.1131523" lon="14.3021469"><ele>159.0</ele><time>2026-04-06T09:55:41.1Z</time></trkpt><trkpt lat="41.113211" lon="14.3021097"><ele>158.5</ele><time>2026-04-06T09:55:43.085Z</time></trkpt><trkpt lat="41.1132893" lon="14.3020586"><ele>158.0</ele><time>2026-04-06T09:55:45.988Z</time></trkpt><trkpt lat="41.1133623" lon="14.3020014"><ele>157.5</ele><time>2026-04-06T09:55:49.124Z</time></trkpt><trkpt lat="41.1134329" lon="14.3019486"><ele>157.0</ele><time>2026-04-06T09:55:52.101Z</time></trkpt><trkpt lat="41.1135121" lon="14.3018849"><ele>155.83333333333334</ele><time>2026-04-06T09:55:55.022Z</time></trkpt><trkpt lat="41.1135796" lon="14.3018323"><ele>154.66666666666669</ele><time>2026-04-06T09:55:57.116Z</time></trkpt><trkpt lat="41.1136557" lon="14.3017786"><ele>153.5</ele><time>2026-04-06T09:56:00.057Z</time></trkpt><trkpt lat="41.1137091" lon="14.3017173"><ele>152.33333333333334</ele><time>2026-04-06T09:56:02.982Z</time></trkpt><trkpt lat="41.1137603" lon="14.3016446"><ele>151.16666666666666</ele><time>2026-04-06T09:56:06.08Z</time></trkpt><trkpt lat="41.1138211" lon="14.3015791"><ele>150.0</ele><time>2026-04-06T09:56:09.096Z</time></trkpt><trkpt lat="41.1139002" lon="14.301516"><ele>150.0</ele><time>2026-04-06T09:56:12.079Z</time></trkpt><trkpt lat="41.1139874" lon="14.3014521"><ele>150.0</ele><time>2026-04-06T09:56:15.104Z</time></trkpt><trkpt lat="41.1140455" lon="14.3013992"><ele>150.0</ele><time>2026-04-06T09:56:17.111Z</time></trkpt><trkpt lat="41.114123" lon="14.3013296"><ele>150.0</ele><time>2026-04-06T09:56:20.095Z</time></trkpt><trkpt lat="41.1141996" lon="14.3012675"><ele>150.0</ele><time>2026-04-06T09:56:23.087Z</time></trkpt><trkpt lat="41.1142689" lon="14.3012097"><ele>150.0</ele><time>2026-04-06T09:56:26.081Z</time></trkpt><trkpt lat="41.1143465" lon="14.3011465"><ele>148.16666666666666</ele><time>2026-04-06T09:56:29.09Z</time></trkpt><trkpt lat="41.114428" lon="14.3010879"><ele>146.33333333333334</ele><time>2026-04-06T09:56:32.041Z</time></trkpt><trkpt lat="41.1145073" lon="14.301031"><ele>144.5</ele><time>2026-04-06T09:56:35.069Z</time></trkpt><trkpt lat="41.1145899" lon="14.30098"><ele>142.66666666666669</ele><time>2026-04-06T09:56:38.071Z</time></trkpt><trkpt lat="41.1146613" lon="14.3009255"><ele>140.83333333333334</ele><time>2026-04-06T09:56:41.101Z</time></trkpt><trkpt lat="41.1147281" lon="14.3008593"><ele>139.0</ele><time>2026-04-06T09:56:44.111Z</time></trkpt><trkpt lat="41.1147899" lon="14.3007995"><ele>139.0</ele><time>2026-04-06T09:56:47.047Z</time></trkpt><trkpt lat="41.1148482" lon="14.3007266"><ele>139.0</ele><time>2026-04-06T09:56:50.09Z</time></trkpt><trkpt lat="41.114912" lon="14.3006512"><ele>139.0</ele><time>2026-04-06T09:56:53.086Z</time></trkpt><trkpt lat="41.1149656" lon="14.3006016"><ele>139.0</ele><time>2026-04-06T09:56:55.087Z</time></trkpt><trkpt lat="41.1150245" lon="14.3005445"><ele>139.0</ele><time>2026-04-06T09:56:57.082Z</time></trkpt><trkpt lat="41.1150768" lon="14.3004937"><ele>139.0</ele><time>2026-04-06T09:56:59.06Z</time></trkpt><trkpt lat="41.1151416" lon="14.3004222"><ele>140.0</ele><time>2026-04-06T09:57:01.997Z</time></trkpt><trkpt lat="41.115204" lon="14.3003444"><ele>141.0</ele><time>2026-04-06T09:57:05.1Z</time></trkpt><trkpt lat="41.1152818" lon="14.3002766"><ele>142.0</ele><time>2026-04-06T09:57:08.077Z</time></trkpt><trkpt lat="41.1153545" lon="14.3002105"><ele>143.0</ele><time>2026-04-06T09:57:11.087Z</time></trkpt><trkpt lat="41.1154079" lon="14.3001623"><ele>144.0</ele><time>2026-04-06T09:57:13.09Z</time></trkpt><trkpt lat="41.1154805" lon="14.3001045"><ele>145.0</ele><time>2026-04-06T09:57:16.095Z</time></trkpt><trkpt lat="41.115545" lon="14.3000561"><ele>145.0</ele><time>2026-04-06T09:57:19.074Z</time></trkpt><trkpt lat="41.1156103" lon="14.2999993"><ele>145.0</ele><time>2026-04-06T09:57:22.087Z</time></trkpt><trkpt lat="41.1156822" lon="14.2999338"><ele>145.0</ele><time>2026-04-06T09:57:25.08Z</time></trkpt><trkpt lat="41.1157538" lon="14.2998611"><ele>145.0</ele><time>2026-04-06T09:57:28.081Z</time></trkpt><trkpt lat="41.1158162" lon="14.2997948"><ele>145.0</ele><time>2026-04-06T09:57:31.067Z</time></trkpt><trkpt lat="41.1158625" lon="14.2997253"><ele>145.0</ele><time>2026-04-06T09:57:34.103Z</time></trkpt><trkpt lat="41.1159036" lon="14.299655"><ele>144.16666666666669</ele><time>2026-04-06T09:57:37.09Z</time></trkpt><trkpt lat="41.1159463" lon="14.2995748"><ele>143.33333333333334</ele><time>2026-04-06T09:57:39.997Z</time></trkpt><trkpt lat="41.1159901" lon="14.299482"><ele>142.5</ele><time>2026-04-06T09:57:43.103Z</time></trkpt><trkpt lat="41.1160251" lon="14.2993845"><ele>141.66666666666666</ele><time>2026-04-06T09:57:46.092Z</time></trkpt><trkpt lat="41.1160406" lon="14.2992939"><ele>140.83333333333331</ele><time>2026-04-06T09:57:49.089Z</time></trkpt><trkpt lat="41.1160595" lon="14.2991899"><ele>140.0</ele><time>2026-04-06T09:57:53.084Z</time></trkpt><trkpt lat="41.1161008" lon="14.2990947"><ele>140.0</ele><time>2026-04-06T09:57:56.092Z</time></trkpt><trkpt lat="41.1161414" lon="14.2989942"><ele>140.0</ele><time>2026-04-06T09:57:59.057Z</time></trkpt><trkpt lat="41.1161887" lon="14.2988892"><ele>140.0</ele><time>2026-04-06T09:58:02.091Z</time></trkpt><trkpt lat="41.1162291" lon="14.2987943"><ele>140.0</ele><time>2026-04-06T09:58:05.062Z</time></trkpt><trkpt lat="41.116281" lon="14.2987057"><ele>140.0</ele><time>2026-04-06T09:58:08.089Z</time></trkpt><trkpt lat="41.1163286" lon="14.2986213"><ele>140.0</ele><time>2026-04-06T09:58:11.036Z</time></trkpt><trkpt lat="41.1163637" lon="14.2985511"><ele>140.16666666666666</ele><time>2026-04-06T09:58:13.076Z</time></trkpt><trkpt lat="41.1164095" lon="14.2984488"><ele>140.33333333333331</ele><time>2026-04-06T09:58:16.075Z</time></trkpt><trkpt lat="41.1164499" lon="14.2983587"><ele>140.5</ele><time>2026-04-06T09:58:19.067Z</time></trkpt><trkpt lat="41.1165023" lon="14.2982906"><ele>140.66666666666666</ele><time>2026-04-06T09:58:22.067Z</time></trkpt><trkpt lat="41.1165621" lon="14.2982272"><ele>140.83333333333334</ele><time>2026-04-06T09:58:25.079Z</time></trkpt><trkpt lat="41.1166269" lon="14.2981687"><ele>141.0</ele><time>2026-04-06T09:58:28.1Z</time></trkpt><trkpt lat="41.1166933" lon="14.2981259"><ele>141.5</ele><time>2026-04-06T09:58:31.081Z</time></trkpt><trkpt lat="41.1167556" lon="14.2980803"><ele>142.0</ele><time>2026-04-06T09:58:34.981Z</time></trkpt><trkpt lat="41.1168215" lon="14.2980454"><ele>142.5</ele><time>2026-04-06T09:58:39.068Z</time></trkpt><trkpt lat="41.1169041" lon="14.2980149"><ele>143.0</ele><time>2026-04-06T09:58:43.061Z</time></trkpt><trkpt lat="41.1169762" lon="14.2979763"><ele>143.5</ele><time>2026-04-06T09:58:46.124Z</time></trkpt><trkpt lat="41.117052" lon="14.2979404"><ele>144.0</ele><time>2026-04-06T09:58:49.078Z</time></trkpt><trkpt lat="41.1171198" lon="14.2979051"><ele>144.0</ele><time>2026-04-06T09:58:52.067Z</time></trkpt><trkpt lat="41.1171825" lon="14.2978636"><ele>144.0</ele><time>2026-04-06T09:58:55.112Z</time></trkpt><trkpt lat="41.1172415" lon="14.2978207"><ele>144.0</ele><time>2026-04-06T09:58:57.979Z</time></trkpt><trkpt lat="41.1173143" lon="14.2977927"><ele>144.0</ele><time>2026-04-06T09:59:01.081Z</time></trkpt><trkpt lat="41.1173888" lon="14.2977481"><ele>144.0</ele><time>2026-04-06T09:59:04.064Z</time></trkpt><trkpt lat="41.1166933" lon="14.2981259"><ele>144.0</ele><time>2026-04-06T09:58:31.081Z</time></trkpt><trkpt lat="41.1167556" lon="14.2980803"><ele>144.0</ele><time>2026-04-06T09:58:34.981Z</time></trkpt><trkpt lat="41.1168215" lon="14.2980454"><ele>144.0</ele><time>2026-04-06T09:58:39.068Z</time></trkpt><trkpt lat="41.1169041" lon="14.2980149"><ele>144.0</ele><time>2026-04-06T09:58:43.061Z</time></trkpt><trkpt lat="41.1169762" lon="14.2979763"><ele>144.0</ele><time>2026-04-06T09:58:46.124Z</time></trkpt><trkpt lat="41.117052" lon="14.2979404"><ele>144.0</ele><time>2026-04-06T09:58:49.078Z</time></trkpt><trkpt lat="41.1171198" lon="14.2979051"><ele>144.0</ele><time>2026-04-06T09:58:52.067Z</time></trkpt><trkpt lat="41.1171825" lon="14.2978636"><ele>144.0</ele><time>2026-04-06T09:58:55.112Z</time></trkpt><trkpt lat="41.1172415" lon="14.2978207"><ele>144.0</ele><time>2026-04-06T09:58:57.979Z</time></trkpt><trkpt lat="41.1173143" lon="14.2977927"><ele>144.0</ele><time>2026-04-06T09:59:01.081Z</time></trkpt><trkpt lat="41.1173888" lon="14.2977481"><ele>144.0</ele><time>2026-04-06T09:59:04.064Z</time></trkpt><trkpt lat="41.11746" lon="14.2976856"><ele>144.0</ele><time>2026-04-06T09:59:07.072Z</time></trkpt><trkpt lat="41.1175316" lon="14.2976142"><ele>141.6</ele><time>2026-04-06T09:59:10.079Z</time></trkpt><trkpt lat="41.1176051" lon="14.2975593"><ele>139.2</ele><time>2026-04-06T09:59:13.097Z</time></trkpt><trkpt lat="41.1176949" lon="14.2975325"><ele>136.79999999999998</ele><time>2026-04-06T09:59:16.076Z</time></trkpt><trkpt lat="41.1177881" lon="14.2975276"><ele>134.4</ele><time>2026-04-06T09:59:19.042Z</time></trkpt><trkpt lat="41.1178815" lon="14.2975507"><ele>132.0</ele><time>2026-04-06T09:59:22.094Z</time></trkpt><trkpt lat="41.1179717" lon="14.2975843"><ele>132.0</ele><time>2026-04-06T09:59:25.043Z</time></trkpt><trkpt lat="41.1180378" lon="14.2976055"><ele>132.0</ele><time>2026-04-06T09:59:27.055Z</time></trkpt><trkpt lat="41.1181271" lon="14.2976445"><ele>132.0</ele><time>2026-04-06T09:59:30.071Z</time></trkpt><trkpt lat="41.1181891" lon="14.2976639"><ele>132.0</ele><time>2026-04-06T09:59:32.093Z</time></trkpt><trkpt lat="41.1182761" lon="14.2976963"><ele>132.0</ele><time>2026-04-06T09:59:35.089Z</time></trkpt><trkpt lat="41.1183558" lon="14.2977485"><ele>132.0</ele><time>2026-04-06T09:59:38.083Z</time></trkpt><trkpt lat="41.1184338" lon="14.2978088"><ele>131.0</ele><time>2026-04-06T09:59:41.106Z</time></trkpt><trkpt lat="41.1185137" lon="14.2978888"><ele>130.0</ele><time>2026-04-06T09:59:44.089Z</time></trkpt><trkpt lat="41.118569" lon="14.2979355"><ele>129.0</ele><time>2026-04-06T09:59:46.086Z</time></trkpt><trkpt lat="41.1186451" lon="14.297973"><ele>128.0</ele><time>2026-04-06T09:59:49.094Z</time></trkpt><trkpt lat="41.1187271" lon="14.2979941"><ele>127.0</ele><time>2026-04-06T09:59:52.119Z</time></trkpt><trkpt lat="41.1188091" lon="14.297985"><ele>126.0</ele><time>2026-04-06T09:59:55.08Z</time></trkpt><trkpt lat="41.1188853" lon="14.2979501"><ele>126.0</ele><time>2026-04-06T09:59:58.06Z</time></trkpt><trkpt lat="41.118945" lon="14.2978928"><ele>126.0</ele><time>2026-04-06T10:00:01.053Z</time></trkpt><trkpt lat="41.1190131" lon="14.297844"><ele>126.0</ele><time>2026-04-06T10:00:04.003Z</time></trkpt><trkpt lat="41.1190793" lon="14.2978048"><ele>126.0</ele><time>2026-04-06T10:00:07.071Z</time></trkpt><trkpt lat="41.1191423" lon="14.2977741"><ele>126.0</ele><time>2026-04-06T10:00:10.067Z</time></trkpt><trkpt lat="41.1192215" lon="14.2977635"><ele>126.0</ele><time>2026-04-06T10:00:14.081Z</time></trkpt><trkpt lat="41.1192921" lon="14.2977511"><ele>126.0</ele><time>2026-04-06T10:00:18.045Z</time></trkpt><trkpt lat="41.1193594" lon="14.2977444"><ele>125.66666666666667</ele><time>2026-04-06T10:00:21.086Z</time></trkpt><trkpt lat="41.1194313" lon="14.2977574"><ele>125.33333333333334</ele><time>2026-04-06T10:00:24.081Z</time></trkpt><trkpt lat="41.1194997" lon="14.2977952"><ele>125.0</ele><time>2026-04-06T10:00:27.097Z</time></trkpt><trkpt lat="41.1195601" lon="14.2978576"><ele>124.66666666666667</ele><time>2026-04-06T10:00:30.091Z</time></trkpt><trkpt lat="41.1196434" lon="14.2979045"><ele>124.33333333333334</ele><time>2026-04-06T10:00:33.066Z</time></trkpt><trkpt lat="41.1197181" lon="14.2979544"><ele>124.0</ele><time>2026-04-06T10:00:36.08Z</time></trkpt><trkpt lat="41.1197989" lon="14.2979896"><ele>124.00000000000001</ele><time>2026-04-06T10:00:39.09Z</time></trkpt><trkpt lat="41.1198739" lon="14.2980256"><ele>124.0</ele><time>2026-04-06T10:00:42.104Z</time></trkpt><trkpt lat="41.1199575" lon="14.2980715"><ele>124.0</ele><time>2026-04-06T10:00:45.076Z</time></trkpt><trkpt lat="41.1200339" lon="14.2981354"><ele>124.0</ele><time>2026-04-06T10:00:48.083Z</time></trkpt><trkpt lat="41.1201132" lon="14.298185"><ele>124.00000000000001</ele><time>2026-04-06T10:00:51.062Z</time></trkpt><trkpt lat="41.120201" lon="14.2982147"><ele>124.0</ele><time>2026-04-06T10:00:54.044Z</time></trkpt><trkpt lat="41.1202902" lon="14.2982252"><ele>121.83333333333334</ele><time>2026-04-06T10:00:57.064Z</time></trkpt><trkpt lat="41.1203682" lon="14.2982341"><ele>119.66666666666667</ele><time>2026-04-06T10:00:59.922Z</time></trkpt><trkpt lat="41.1204473" lon="14.2982426"><ele>117.5</ele><time>2026-04-06T10:01:02.936Z</time></trkpt><trkpt lat="41.1205196" lon="14.2982461"><ele>115.33333333333334</ele><time>2026-04-06T10:01:06.082Z</time></trkpt><trkpt lat="41.1205977" lon="14.2982399"><ele>113.16666666666667</ele><time>2026-04-06T10:01:10.059Z</time></trkpt><trkpt lat="41.1206687" lon="14.2982247"><ele>111.0</ele><time>2026-04-06T10:01:14.078Z</time></trkpt><trkpt lat="41.1207543" lon="14.2982234"><ele>111.0</ele><time>2026-04-06T10:01:18.085Z</time></trkpt><trkpt lat="41.1208264" lon="14.2982043"><ele>111.0</ele><time>2026-04-06T10:01:21.083Z</time></trkpt><trkpt lat="41.1209012" lon="14.2981838"><ele>111.0</ele><time>2026-04-06T10:01:24.074Z</time></trkpt><trkpt lat="41.120972" lon="14.2981577"><ele>111.0</ele><time>2026-04-06T10:01:27.084Z</time></trkpt><trkpt lat="41.1210467" lon="14.2981283"><ele>111.0</ele><time>2026-04-06T10:01:30.072Z</time></trkpt><trkpt lat="41.1211234" lon="14.2980894"><ele>111.0</ele><time>2026-04-06T10:01:33.102Z</time></trkpt><trkpt lat="41.1212026" lon="14.2980734"><ele>111.0</ele><time>2026-04-06T10:01:36.096Z</time></trkpt><trkpt lat="41.1212801" lon="14.2980702"><ele>111.0</ele><time>2026-04-06T10:01:38.979Z</time></trkpt><trkpt lat="41.121366" lon="14.2980792"><ele>111.0</ele><time>2026-04-06T10:01:42.143Z</time></trkpt><trkpt lat="41.1214442" lon="14.2980861"><ele>111.0</ele><time>2026-04-06T10:01:45.075Z</time></trkpt><trkpt lat="41.1215233" lon="14.2980824"><ele>111.0</ele><time>2026-04-06T10:01:48.027Z</time></trkpt><trkpt lat="41.1216056" lon="14.2980689"><ele>111.0</ele><time>2026-04-06T10:01:51.086Z</time></trkpt><trkpt lat="41.1216823" lon="14.2980472"><ele>115.66666666666667</ele><time>2026-04-06T10:01:54.064Z</time></trkpt><trkpt lat="41.1217584" lon="14.2980274"><ele>120.33333333333334</ele><time>2026-04-06T10:01:57.043Z</time></trkpt><trkpt lat="41.1218352" lon="14.2980041"><ele>125.0</ele><time>2026-04-06T10:02:00.061Z</time></trkpt><trkpt lat="41.1219045" lon="14.2979827"><ele>129.66666666666669</ele><time>2026-04-06T10:02:02.998Z</time></trkpt><trkpt lat="41.1219766" lon="14.2979587"><ele>134.33333333333334</ele><time>2026-04-06T10:02:06.071Z</time></trkpt><trkpt lat="41.122052" lon="14.2979353"><ele>139.0</ele><time>2026-04-06T10:02:09.075Z</time></trkpt><trkpt lat="41.1221324" lon="14.297922"><ele>139.0</ele><time>2026-04-06T10:02:12.028Z</time></trkpt><trkpt lat="41.1222211" lon="14.297903"><ele>139.0</ele><time>2026-04-06T10:02:15.066Z</time></trkpt><trkpt lat="41.122301" lon="14.2978754"><ele>139.0</ele><time>2026-04-06T10:02:18.057Z</time></trkpt><trkpt lat="41.1223805" lon="14.2978475"><ele>139.0</ele><time>2026-04-06T10:02:21.066Z</time></trkpt><trkpt lat="41.1224671" lon="14.2978149"><ele>139.0</ele><time>2026-04-06T10:02:24.087Z</time></trkpt><trkpt lat="41.1225506" lon="14.2977784"><ele>139.0</ele><time>2026-04-06T10:02:27.047Z</time></trkpt><trkpt lat="41.1226381" lon="14.2977286"><ele>133.0</ele><time>2026-04-06T10:02:30.107Z</time></trkpt><trkpt lat="41.1226944" lon="14.2976849"><ele>127.0</ele><time>2026-04-06T10:02:32.084Z</time></trkpt><trkpt lat="41.122767" lon="14.297598"><ele>121.0</ele><time>2026-04-06T10:02:35.083Z</time></trkpt><trkpt lat="41.122813" lon="14.2975334"><ele>115.0</ele><time>2026-04-06T10:02:37.065Z</time></trkpt><trkpt lat="41.1228767" lon="14.2974466"><ele>109.00000000000001</ele><time>2026-04-06T10:02:40.085Z</time></trkpt><trkpt lat="41.1229238" lon="14.2973586"><ele>103.0</ele><time>2026-04-06T10:02:43.025Z</time></trkpt><trkpt lat="41.1229524" lon="14.2972523"><ele>104.42857142857142</ele><time>2026-04-06T10:02:46.102Z</time></trkpt><trkpt lat="41.1229591" lon="14.2971471"><ele>105.85714285714286</ele><time>2026-04-06T10:02:49.093Z</time></trkpt><trkpt lat="41.122955" lon="14.2970482"><ele>107.28571428571428</ele><time>2026-04-06T10:02:52.079Z</time></trkpt><trkpt lat="41.1229502" lon="14.2969591"><ele>108.71428571428571</ele><time>2026-04-06T10:02:55.074Z</time></trkpt><trkpt lat="41.1229502" lon="14.2968738"><ele>110.14285714285714</ele><time>2026-04-06T10:02:58.103Z</time></trkpt><trkpt lat="41.1229582" lon="14.2967879"><ele>111.57142857142857</ele><time>2026-04-06T10:03:01.07Z</time></trkpt><trkpt lat="41.122953" lon="14.2966845"><ele>113.0</ele><time>2026-04-06T10:03:05.096Z</time></trkpt><trkpt lat="41.1229393" lon="14.2965926"><ele>113.0</ele><time>2026-04-06T10:03:09.015Z</time></trkpt><trkpt lat="41.1229417" lon="14.2964994"><ele>113.0</ele><time>2026-04-06T10:03:13.071Z</time></trkpt><trkpt lat="41.1229559" lon="14.2964171"><ele>113.0</ele><time>2026-04-06T10:03:16.089Z</time></trkpt><trkpt lat="41.1229915" lon="14.296341"><ele>113.0</ele><time>2026-04-06T10:03:19.103Z</time></trkpt><trkpt lat="41.1230231" lon="14.2962642"><ele>113.0</ele><time>2026-04-06T10:03:21.663Z</time></trkpt><trkpt lat="41.1230597" lon="14.2961936"><ele>113.0</ele><time>2026-04-06T10:03:24.082Z</time></trkpt><trkpt lat="41.123105" lon="14.2961089"><ele>113.0</ele><time>2026-04-06T10:03:27.086Z</time></trkpt><trkpt lat="41.123142" lon="14.2960117"><ele>112.66666666666666</ele><time>2026-04-06T10:03:30.091Z</time></trkpt><trkpt lat="41.1231683" lon="14.2959137"><ele>112.33333333333333</ele><time>2026-04-06T10:03:32.984Z</time></trkpt><trkpt lat="41.1231997" lon="14.2958073"><ele>112.0</ele><time>2026-04-06T10:03:36.059Z</time></trkpt><trkpt lat="41.1232384" lon="14.2957044"><ele>111.66666666666666</ele><time>2026-04-06T10:03:39.098Z</time></trkpt><trkpt lat="41.1232776" lon="14.2956069"><ele>111.33333333333333</ele><time>2026-04-06T10:03:42.078Z</time></trkpt><trkpt lat="41.123306" lon="14.2955252"><ele>111.0</ele><time>2026-04-06T10:03:45.071Z</time></trkpt><trkpt lat="41.1233451" lon="14.2954315"><ele>106.5</ele><time>2026-04-06T10:03:48.12Z</time></trkpt><trkpt lat="41.123397" lon="14.2953364"><ele>102.0</ele><time>2026-04-06T10:03:51.103Z</time></trkpt><trkpt lat="41.1234522" lon="14.2952378"><ele>97.5</ele><time>2026-04-06T10:03:54.082Z</time></trkpt><trkpt lat="41.1234979" lon="14.2951337"><ele>93.0</ele><time>2026-04-06T10:03:57.094Z</time></trkpt><trkpt lat="41.1235317" lon="14.2950248"><ele>88.5</ele><time>2026-04-06T10:04:00.103Z</time></trkpt><trkpt lat="41.1235504" lon="14.2949401"><ele>84.0</ele><time>2026-04-06T10:04:02.095Z</time></trkpt><trkpt lat="41.1235737" lon="14.2948565"><ele>84.0</ele><time>2026-04-06T10:04:04.076Z</time></trkpt><trkpt lat="41.1236024" lon="14.2947797"><ele>84.0</ele><time>2026-04-06T10:04:06.068Z</time></trkpt><trkpt lat="41.1236323" lon="14.2946972"><ele>84.0</ele><time>2026-04-06T10:04:08.059Z</time></trkpt><trkpt lat="41.1236678" lon="14.2946199"><ele>84.0</ele><time>2026-04-06T10:04:10.071Z</time></trkpt><trkpt lat="41.1237265" lon="14.2945259"><ele>84.0</ele><time>2026-04-06T10:04:13.103Z</time></trkpt><trkpt lat="41.1237718" lon="14.2944529"><ele>84.0</ele><time>2026-04-06T10:04:15.101Z</time></trkpt><trkpt lat="41.1238201" lon="14.2943796"><ele>84.0</ele><time>2026-04-06T10:04:17.085Z</time></trkpt><trkpt lat="41.123866" lon="14.2943153"><ele>83.33333333333333</ele><time>2026-04-06T10:04:19.076Z</time></trkpt><trkpt lat="41.1239084" lon="14.294246"><ele>82.66666666666667</ele><time>2026-04-06T10:04:21.089Z</time></trkpt><trkpt lat="41.1239474" lon="14.2941794"><ele>82.0</ele><time>2026-04-06T10:04:23.087Z</time></trkpt><trkpt lat="41.1239993" lon="14.2940782"><ele>81.33333333333334</ele><time>2026-04-06T10:04:26.075Z</time></trkpt><trkpt lat="41.124044" lon="14.2939733"><ele>80.66666666666667</ele><time>2026-04-06T10:04:29.082Z</time></trkpt><trkpt lat="41.1240929" lon="14.2938828"><ele>80.0</ele><time>2026-04-06T10:04:32.08Z</time></trkpt><trkpt lat="41.1241482" lon="14.2937969"><ele>80.0</ele><time>2026-04-06T10:04:35.096Z</time></trkpt><trkpt lat="41.124211" lon="14.2937227"><ele>80.0</ele><time>2026-04-06T10:04:37.999Z</time></trkpt><trkpt lat="41.1242852" lon="14.293656"><ele>80.0</ele><time>2026-04-06T10:04:41.127Z</time></trkpt><trkpt lat="41.1243662" lon="14.293598"><ele>80.0</ele><time>2026-04-06T10:04:43.9Z</time></trkpt><trkpt lat="41.1244235" lon="14.2935615"><ele>80.0</ele><time>2026-04-06T10:04:46.021Z</time></trkpt><trkpt lat="41.1245002" lon="14.2935169"><ele>80.0</ele><time>2026-04-06T10:04:49.084Z</time></trkpt><trkpt lat="41.1245725" lon="14.2934729"><ele>80.0</ele><time>2026-04-06T10:04:52.018Z</time></trkpt><trkpt lat="41.1246501" lon="14.2934287"><ele>80.0</ele><time>2026-04-06T10:04:55.074Z</time></trkpt><trkpt lat="41.1247221" lon="14.2933872"><ele>80.0</ele><time>2026-04-06T10:04:58.018Z</time></trkpt><trkpt lat="41.1247858" lon="14.293341"><ele>80.0</ele><time>2026-04-06T10:05:01.09Z</time></trkpt><trkpt lat="41.124844" lon="14.2933007"><ele>80.0</ele><time>2026-04-06T10:05:04.024Z</time></trkpt><trkpt lat="41.1249037" lon="14.2932627"><ele>80.0</ele><time>2026-04-06T10:05:07.113Z</time></trkpt><trkpt lat="41.1249736" lon="14.2932265"><ele>80.0</ele><time>2026-04-06T10:05:11Z</time></trkpt><trkpt lat="41.1250384" lon="14.2932076"><ele>79.28571428571428</ele><time>2026-04-06T10:05:14.062Z</time></trkpt><trkpt lat="41.1251177" lon="14.2931718"><ele>78.57142857142857</ele><time>2026-04-06T10:05:18.003Z</time></trkpt><trkpt lat="41.1251834" lon="14.2931423"><ele>77.85714285714286</ele><time>2026-04-06T10:05:21.129Z</time></trkpt><trkpt lat="41.125247" lon="14.2931021"><ele>77.14285714285714</ele><time>2026-04-06T10:05:24.085Z</time></trkpt><trkpt lat="41.1253199" lon="14.2930617"><ele>76.42857142857143</ele><time>2026-04-06T10:05:27.096Z</time></trkpt><trkpt lat="41.1253886" lon="14.2930413"><ele>75.71428571428571</ele><time>2026-04-06T10:05:30.075Z</time></trkpt><trkpt lat="41.125456" lon="14.2930294"><ele>75.0</ele><time>2026-04-06T10:05:33.055Z</time></trkpt><trkpt lat="41.1255295" lon="14.2930208"><ele>75.0</ele><time>2026-04-06T10:05:36.082Z</time></trkpt><trkpt lat="41.1256026" lon="14.2930032"><ele>75.0</ele><time>2026-04-06T10:05:39.118Z</time></trkpt><trkpt lat="41.1256755" lon="14.2929863"><ele>75.0</ele><time>2026-04-06T10:05:42.078Z</time></trkpt><trkpt lat="41.1257561" lon="14.2929609"><ele>75.0</ele><time>2026-04-06T10:05:45.112Z</time></trkpt><trkpt lat="41.1258419" lon="14.29294"><ele>75.0</ele><time>2026-04-06T10:05:48.087Z</time></trkpt><trkpt lat="41.1259343" lon="14.2929193"><ele>75.0</ele><time>2026-04-06T10:05:51.069Z</time></trkpt><trkpt lat="41.1260121" lon="14.2928923"><ele>72.5</ele><time>2026-04-06T10:05:54.086Z</time></trkpt><trkpt lat="41.1260848" lon="14.2928694"><ele>70.0</ele><time>2026-04-06T10:05:57.002Z</time></trkpt><trkpt lat="41.1261637" lon="14.2928569"><ele>67.5</ele><time>2026-04-06T10:06:00.141Z</time></trkpt><trkpt lat="41.1262427" lon="14.2928552"><ele>65.0</ele><time>2026-04-06T10:06:03.119Z</time></trkpt><trkpt lat="41.1263179" lon="14.2928454"><ele>62.5</ele><time>2026-04-06T10:06:06.041Z</time></trkpt><trkpt lat="41.1264119" lon="14.292824"><ele>60.0</ele><time>2026-04-06T10:06:09.098Z</time></trkpt><trkpt lat="41.1264788" lon="14.2928038"><ele>60.0</ele><time>2026-04-06T10:06:11.095Z</time></trkpt><trkpt lat="41.1265579" lon="14.2927886"><ele>60.0</ele><time>2026-04-06T10:06:13.959Z</time></trkpt><trkpt lat="41.1266218" lon="14.2927764"><ele>60.0</ele><time>2026-04-06T10:06:16.119Z</time></trkpt><trkpt lat="41.1267035" lon="14.2927584"><ele>60.0</ele><time>2026-04-06T10:06:19.075Z</time></trkpt><trkpt lat="41.1267793" lon="14.2927458"><ele>60.0</ele><time>2026-04-06T10:06:22.118Z</time></trkpt><trkpt lat="41.1268548" lon="14.2927411"><ele>60.0</ele><time>2026-04-06T10:06:25.079Z</time></trkpt><trkpt lat="41.1269306" lon="14.2927398"><ele>58.666666666666664</ele><time>2026-04-06T10:06:28.044Z</time></trkpt><trkpt lat="41.1270078" lon="14.2927351"><ele>57.33333333333333</ele><time>2026-04-06T10:06:31.095Z</time></trkpt><trkpt lat="41.1270849" lon="14.2927327"><ele>56.0</ele><time>2026-04-06T10:06:33.984Z</time></trkpt><trkpt lat="41.1271711" lon="14.2927268"><ele>54.666666666666664</ele><time>2026-04-06T10:06:37.041Z</time></trkpt><trkpt lat="41.1272565" lon="14.2927306"><ele>53.33333333333333</ele><time>2026-04-06T10:06:40.083Z</time></trkpt><trkpt lat="41.1273315" lon="14.2927361"><ele>52.0</ele><time>2026-04-06T10:06:43.083Z</time></trkpt><trkpt lat="41.1274074" lon="14.2927332"><ele>51.14285714285714</ele><time>2026-04-06T10:06:46.076Z</time></trkpt><trkpt lat="41.1274743" lon="14.292717"><ele>50.28571428571429</ele><time>2026-04-06T10:06:49.063Z</time></trkpt><trkpt lat="41.1275423" lon="14.2926904"><ele>49.42857142857143</ele><time>2026-04-06T10:06:52.089Z</time></trkpt><trkpt lat="41.1275996" lon="14.2926502"><ele>48.57142857142857</ele><time>2026-04-06T10:06:55.093Z</time></trkpt><trkpt lat="41.1276562" lon="14.2925956"><ele>47.71428571428571</ele><time>2026-04-06T10:06:58.072Z</time></trkpt><trkpt lat="41.1277193" lon="14.2925468"><ele>46.85714285714286</ele><time>2026-04-06T10:07:01.067Z</time></trkpt><trkpt lat="41.1277591" lon="14.2924803"><ele>46.0</ele><time>2026-04-06T10:07:04.061Z</time></trkpt><trkpt lat="41.1278057" lon="14.2924224"><ele>46.0</ele><time>2026-04-06T10:07:07.071Z</time></trkpt><trkpt lat="41.1278551" lon="14.2923558"><ele>46.0</ele><time>2026-04-06T10:07:10.087Z</time></trkpt><trkpt lat="41.1278943" lon="14.2922854"><ele>46.0</ele><time>2026-04-06T10:07:13.119Z</time></trkpt><trkpt lat="41.1279313" lon="14.2922008"><ele>46.0</ele><time>2026-04-06T10:07:16.069Z</time></trkpt><trkpt lat="41.1279682" lon="14.2921087"><ele>46.0</ele><time>2026-04-06T10:07:19.064Z</time></trkpt><trkpt lat="41.1280038" lon="14.2920164"><ele>46.0</ele><time>2026-04-06T10:07:22.098Z</time></trkpt><trkpt lat="41.1280401" lon="14.2919336"><ele>46.0</ele><time>2026-04-06T10:07:25.054Z</time></trkpt><trkpt lat="41.1280757" lon="14.2918468"><ele>46.0</ele><time>2026-04-06T10:07:28.079Z</time></trkpt><trkpt lat="41.1281117" lon="14.2917548"><ele>46.0</ele><time>2026-04-06T10:07:31.065Z</time></trkpt><trkpt lat="41.128145" lon="14.2916738"><ele>46.0</ele><time>2026-04-06T10:07:34.068Z</time></trkpt><trkpt lat="41.1281819" lon="14.2915937"><ele>46.0</ele><time>2026-04-06T10:07:37.099Z</time></trkpt><trkpt lat="41.1282118" lon="14.291513"><ele>46.0</ele><time>2026-04-06T10:07:40.084Z</time></trkpt><trkpt lat="41.1282541" lon="14.2914208"><ele>46.0</ele><time>2026-04-06T10:07:43.085Z</time></trkpt><trkpt lat="41.1282946" lon="14.2913174"><ele>45.16666666666667</ele><time>2026-04-06T10:07:46.084Z</time></trkpt><trkpt lat="41.12833" lon="14.291224"><ele>44.333333333333336</ele><time>2026-04-06T10:07:49.04Z</time></trkpt><trkpt lat="41.1283631" lon="14.2911251"><ele>43.5</ele><time>2026-04-06T10:07:52.081Z</time></trkpt><trkpt lat="41.1284048" lon="14.2910299"><ele>42.666666666666664</ele><time>2026-04-06T10:07:55.061Z</time></trkpt><trkpt lat="41.1284446" lon="14.2909284"><ele>41.83333333333333</ele><time>2026-04-06T10:07:58.077Z</time></trkpt><trkpt lat="41.128484" lon="14.2908361"><ele>41.0</ele><time>2026-04-06T10:08:01.004Z</time></trkpt><trkpt lat="41.1285209" lon="14.290744"><ele>41.0</ele><time>2026-04-06T10:08:04.088Z</time></trkpt><trkpt lat="41.1285554" lon="14.2906478"><ele>41.0</ele><time>2026-04-06T10:08:07.079Z</time></trkpt><trkpt lat="41.128584" lon="14.2905492"><ele>41.0</ele><time>2026-04-06T10:08:10.117Z</time></trkpt><trkpt lat="41.1286101" lon="14.2904411"><ele>41.0</ele><time>2026-04-06T10:08:13.086Z</time></trkpt><trkpt lat="41.1286495" lon="14.2903398"><ele>41.0</ele><time>2026-04-06T10:08:16.103Z</time></trkpt><trkpt lat="41.1286918" lon="14.2902497"><ele>41.0</ele><time>2026-04-06T10:08:19.088Z</time></trkpt><trkpt lat="41.1287333" lon="14.2901619"><ele>40.857142857142854</ele><time>2026-04-06T10:08:22.061Z</time></trkpt><trkpt lat="41.1287734" lon="14.2900699"><ele>40.714285714285715</ele><time>2026-04-06T10:08:25.093Z</time></trkpt><trkpt lat="41.1288017" lon="14.2899811"><ele>40.57142857142857</ele><time>2026-04-06T10:08:28.063Z</time></trkpt><trkpt lat="41.1288336" lon="14.2898992"><ele>40.42857142857143</ele><time>2026-04-06T10:08:31.084Z</time></trkpt><trkpt lat="41.1288661" lon="14.289815"><ele>40.285714285714285</ele><time>2026-04-06T10:08:34.071Z</time></trkpt><trkpt lat="41.1288862" lon="14.2897268"><ele>40.14285714285714</ele><time>2026-04-06T10:08:37.095Z</time></trkpt><trkpt lat="41.1289201" lon="14.2896344"><ele>40.0</ele><time>2026-04-06T10:08:40.066Z</time></trkpt><trkpt lat="41.1289537" lon="14.289538"><ele>39.833333333333336</ele><time>2026-04-06T10:08:43.069Z</time></trkpt><trkpt lat="41.1289859" lon="14.2894449"><ele>39.66666666666667</ele><time>2026-04-06T10:08:46.026Z</time></trkpt><trkpt lat="41.1290151" lon="14.2893469"><ele>39.5</ele><time>2026-04-06T10:08:49.098Z</time></trkpt><trkpt lat="41.1290602" lon="14.2892549"><ele>39.333333333333336</ele><time>2026-04-06T10:08:51.99Z</time></trkpt><trkpt lat="41.1291015" lon="14.289166"><ele>39.166666666666664</ele><time>2026-04-06T10:08:55.104Z</time></trkpt><trkpt lat="41.1291406" lon="14.2890884"><ele>39.0</ele><time>2026-04-06T10:08:57.986Z</time></trkpt><trkpt lat="41.1291892" lon="14.288996"><ele>39.833333333333336</ele><time>2026-04-06T10:09:01.096Z</time></trkpt><trkpt lat="41.1292303" lon="14.2889081"><ele>40.666666666666664</ele><time>2026-04-06T10:09:04.051Z</time></trkpt><trkpt lat="41.1292634" lon="14.2888154"><ele>41.5</ele><time>2026-04-06T10:09:07.081Z</time></trkpt><trkpt lat="41.1292946" lon="14.2887147"><ele>42.33333333333333</ele><time>2026-04-06T10:09:10.084Z</time></trkpt><trkpt lat="41.1293307" lon="14.2886125"><ele>43.166666666666664</ele><time>2026-04-06T10:09:13.087Z</time></trkpt><trkpt lat="41.129362" lon="14.2885228"><ele>44.0</ele><time>2026-04-06T10:09:15.999Z</time></trkpt><trkpt lat="41.1293926" lon="14.2884346"><ele>44.0</ele><time>2026-04-06T10:09:19.081Z</time></trkpt><trkpt lat="41.129416" lon="14.2883562"><ele>44.0</ele><time>2026-04-06T10:09:22.077Z</time></trkpt><trkpt lat="41.1294417" lon="14.2882732"><ele>44.0</ele><time>2026-04-06T10:09:25.017Z</time></trkpt><trkpt lat="41.1294724" lon="14.2881877"><ele>44.0</ele><time>2026-04-06T10:09:28.106Z</time></trkpt><trkpt lat="41.1294952" lon="14.2881055"><ele>44.0</ele><time>2026-04-06T10:09:31.06Z</time></trkpt><trkpt lat="41.1295145" lon="14.2880173"><ele>44.0</ele><time>2026-04-06T10:09:34.077Z</time></trkpt><trkpt lat="41.1295455" lon="14.2879313"><ele>44.0</ele><time>2026-04-06T10:09:37.103Z</time></trkpt><trkpt lat="41.1295792" lon="14.287848"><ele>44.33333333333333</ele><time>2026-04-06T10:09:40.11Z</time></trkpt><trkpt lat="41.1296133" lon="14.2877644"><ele>44.666666666666664</ele><time>2026-04-06T10:09:43.109Z</time></trkpt><trkpt lat="41.1296518" lon="14.2876805"><ele>45.0</ele><time>2026-04-06T10:09:46.086Z</time></trkpt><trkpt lat="41.1296903" lon="14.287567"><ele>45.333333333333336</ele><time>2026-04-06T10:09:49.067Z</time></trkpt><trkpt lat="41.1297169" lon="14.2874803"><ele>45.66666666666667</ele><time>2026-04-06T10:09:53.067Z</time></trkpt><trkpt lat="41.1297715" lon="14.2874198"><ele>46.0</ele><time>2026-04-06T10:09:56.053Z</time></trkpt><trkpt lat="41.1298105" lon="14.2873091"><ele>46.285714285714285</ele><time>2026-04-06T10:10:00.052Z</time></trkpt><trkpt lat="41.1298208" lon="14.2872244"><ele>46.57142857142857</ele><time>2026-04-06T10:10:03.09Z</time></trkpt><trkpt lat="41.1298519" lon="14.2871372"><ele>46.857142857142854</ele><time>2026-04-06T10:10:06.068Z</time></trkpt><trkpt lat="41.1298945" lon="14.287058"><ele>47.14285714285714</ele><time>2026-04-06T10:10:09.07Z</time></trkpt><trkpt lat="41.1299344" lon="14.2869766"><ele>47.42857142857143</ele><time>2026-04-06T10:10:12.064Z</time></trkpt><trkpt lat="41.1299632" lon="14.2868927"><ele>47.71428571428571</ele><time>2026-04-06T10:10:15.086Z</time></trkpt><trkpt lat="41.1300272" lon="14.286839"><ele>48.0</ele><time>2026-04-06T10:10:19.086Z</time></trkpt><trkpt lat="41.1300436" lon="14.2867167"><ele>47.857142857142854</ele><time>2026-04-06T10:10:21.05Z</time></trkpt><trkpt lat="41.1300626" lon="14.2866213"><ele>47.714285714285715</ele><time>2026-04-06T10:10:23.078Z</time></trkpt><trkpt lat="41.1300946" lon="14.2865386"><ele>47.57142857142857</ele><time>2026-04-06T10:10:28.102Z</time></trkpt><trkpt lat="41.1301386" lon="14.2864616"><ele>47.42857142857143</ele><time>2026-04-06T10:10:31.068Z</time></trkpt><trkpt lat="41.1301659" lon="14.2863607"><ele>47.285714285714285</ele><time>2026-04-06T10:10:33.071Z</time></trkpt><trkpt lat="41.1302047" lon="14.2862793"><ele>47.14285714285714</ele><time>2026-04-06T10:10:35.047Z</time></trkpt><trkpt lat="41.130258" lon="14.2862106"><ele>47.0</ele><time>2026-04-06T10:10:41.099Z</time></trkpt><trkpt lat="41.1302796" lon="14.2861176"><ele>47.0</ele><time>2026-04-06T10:10:45.065Z</time></trkpt><trkpt lat="41.1303132" lon="14.2860391"><ele>47.0</ele><time>2026-04-06T10:10:47.078Z</time></trkpt><trkpt lat="41.1303482" lon="14.2859399"><ele>47.0</ele><time>2026-04-06T10:10:50.007Z</time></trkpt><trkpt lat="41.1303829" lon="14.2858376"><ele>47.0</ele><time>2026-04-06T10:10:53.1Z</time></trkpt><trkpt lat="41.1304188" lon="14.2857429"><ele>47.0</ele><time>2026-04-06T10:10:55.984Z</time></trkpt><trkpt lat="41.1304492" lon="14.2856611"><ele>47.0</ele><time>2026-04-06T10:10:58.044Z</time></trkpt><trkpt lat="41.1304775" lon="14.2855658"><ele>48.666666666666664</ele><time>2026-04-06T10:11:01.086Z</time></trkpt><trkpt lat="41.1305066" lon="14.2854625"><ele>50.33333333333333</ele><time>2026-04-06T10:11:04.112Z</time></trkpt><trkpt lat="41.1305392" lon="14.2853611"><ele>52.0</ele><time>2026-04-06T10:11:07.076Z</time></trkpt><trkpt lat="41.1305694" lon="14.2852668"><ele>53.666666666666664</ele><time>2026-04-06T10:11:10.079Z</time></trkpt><trkpt lat="41.1306122" lon="14.285167"><ele>55.333333333333336</ele><time>2026-04-06T10:11:13.058Z</time></trkpt><trkpt lat="41.1306511" lon="14.2850718"><ele>57.0</ele><time>2026-04-06T10:11:16.078Z</time></trkpt><trkpt lat="41.1306855" lon="14.2849774"><ele>57.0</ele><time>2026-04-06T10:11:19.084Z</time></trkpt><trkpt lat="41.1307156" lon="14.2848838"><ele>57.0</ele><time>2026-04-06T10:11:22.076Z</time></trkpt><trkpt lat="41.1307494" lon="14.2847889"><ele>57.0</ele><time>2026-04-06T10:11:25.07Z</time></trkpt><trkpt lat="41.1307932" lon="14.2846903"><ele>57.0</ele><time>2026-04-06T10:11:28.067Z</time></trkpt><trkpt lat="41.1308319" lon="14.2845945"><ele>57.0</ele><time>2026-04-06T10:11:31.083Z</time></trkpt><trkpt lat="41.1308664" lon="14.2844993"><ele>57.0</ele><time>2026-04-06T10:11:33.999Z</time></trkpt><trkpt lat="41.1309074" lon="14.2843975"><ele>53.833333333333336</ele><time>2026-04-06T10:11:37.107Z</time></trkpt><trkpt lat="41.1309478" lon="14.2842973"><ele>50.666666666666664</ele><time>2026-04-06T10:11:40.119Z</time></trkpt><trkpt lat="41.1309791" lon="14.2842086"><ele>47.5</ele><time>2026-04-06T10:11:42.927Z</time></trkpt><trkpt lat="41.1310061" lon="14.2841317"><ele>44.33333333333333</ele><time>2026-04-06T10:11:45.088Z</time></trkpt><trkpt lat="41.1310458" lon="14.2840292"><ele>41.166666666666664</ele><time>2026-04-06T10:11:48.088Z</time></trkpt><trkpt lat="41.131085" lon="14.2839247"><ele>38.0</ele><time>2026-04-06T10:11:51.097Z</time></trkpt><trkpt lat="41.1311227" lon="14.2838218"><ele>38.0</ele><time>2026-04-06T10:11:54.082Z</time></trkpt><trkpt lat="41.1311631" lon="14.2837205"><ele>38.0</ele><time>2026-04-06T10:11:57.067Z</time></trkpt><trkpt lat="41.1311958" lon="14.2836194"><ele>38.0</ele><time>2026-04-06T10:12:00.081Z</time></trkpt><trkpt lat="41.1312295" lon="14.2835195"><ele>38.0</ele><time>2026-04-06T10:12:03.023Z</time></trkpt><trkpt lat="41.1312634" lon="14.2834121"><ele>38.0</ele><time>2026-04-06T10:12:06.106Z</time></trkpt><trkpt lat="41.1313058" lon="14.2833047"><ele>38.0</ele><time>2026-04-06T10:12:09.105Z</time></trkpt><trkpt lat="41.1313411" lon="14.2832095"><ele>38.0</ele><time>2026-04-06T10:12:12.045Z</time></trkpt><trkpt lat="41.1313764" lon="14.2831284"><ele>38.0</ele><time>2026-04-06T10:12:15.006Z</time></trkpt><trkpt lat="41.1314089" lon="14.2830495"><ele>38.0</ele><time>2026-04-06T10:12:18.094Z</time></trkpt><trkpt lat="41.131439" lon="14.2829396"><ele>38.0</ele><time>2026-04-06T10:12:22.107Z</time></trkpt><trkpt lat="41.1314519" lon="14.2828478"><ele>38.0</ele><time>2026-04-06T10:12:25.092Z</time></trkpt><trkpt lat="41.1314619" lon="14.2827449"><ele>38.0</ele><time>2026-04-06T10:12:28.044Z</time></trkpt><trkpt lat="41.1314717" lon="14.2826436"><ele>38.0</ele><time>2026-04-06T10:12:31.103Z</time></trkpt><trkpt lat="41.1314869" lon="14.2825435"><ele>38.0</ele><time>2026-04-06T10:12:34.081Z</time></trkpt><trkpt lat="41.1315022" lon="14.2824424"><ele>38.0</ele><time>2026-04-06T10:12:37.089Z</time></trkpt><trkpt lat="41.1315147" lon="14.2823315"><ele>38.0</ele><time>2026-04-06T10:12:40.086Z</time></trkpt><trkpt lat="41.1315267" lon="14.2822227"><ele>38.0</ele><time>2026-04-06T10:12:43.046Z</time></trkpt><trkpt lat="41.1315405" lon="14.2821183"><ele>38.0</ele><time>2026-04-06T10:12:46.059Z</time></trkpt><trkpt lat="41.1315494" lon="14.2820242"><ele>38.0</ele><time>2026-04-06T10:12:48.987Z</time></trkpt><trkpt lat="41.1315572" lon="14.2819215"><ele>38.0</ele><time>2026-04-06T10:12:52.091Z</time></trkpt><trkpt lat="41.1315556" lon="14.2818086"><ele>38.0</ele><time>2026-04-06T10:12:55.077Z</time></trkpt><trkpt lat="41.1315541" lon="14.2817033"><ele>38.0</ele><time>2026-04-06T10:12:58.124Z</time></trkpt><trkpt lat="41.1315583" lon="14.2816154"><ele>38.0</ele><time>2026-04-06T10:13:01.107Z</time></trkpt><trkpt lat="41.1315581" lon="14.2815097"><ele>38.0</ele><time>2026-04-06T10:13:05.087Z</time></trkpt><trkpt lat="41.131559" lon="14.2814063"><ele>38.0</ele><time>2026-04-06T10:13:08.099Z</time></trkpt><trkpt lat="41.1315581" lon="14.2813169"><ele>38.0</ele><time>2026-04-06T10:13:11.107Z</time></trkpt><trkpt lat="41.1315596" lon="14.2812156"><ele>38.0</ele><time>2026-04-06T10:13:14.985Z</time></trkpt><trkpt lat="41.1315638" lon="14.2811291"><ele>38.0</ele><time>2026-04-06T10:13:18.077Z</time></trkpt><trkpt lat="41.1315634" lon="14.2810421"><ele>38.0</ele><time>2026-04-06T10:13:21.082Z</time></trkpt><trkpt lat="41.1315561" lon="14.2809544"><ele>38.0</ele><time>2026-04-06T10:13:24.102Z</time></trkpt><trkpt lat="41.1315511" lon="14.2808612"><ele>38.0</ele><time>2026-04-06T10:13:27.062Z</time></trkpt><trkpt lat="41.13155" lon="14.2807559"><ele>37.166666666666664</ele><time>2026-04-06T10:13:30.098Z</time></trkpt><trkpt lat="41.1315588" lon="14.2806354"><ele>36.33333333333333</ele><time>2026-04-06T10:13:33.068Z</time></trkpt><trkpt lat="41.1315714" lon="14.2805241"><ele>35.5</ele><time>2026-04-06T10:13:36.022Z</time></trkpt><trkpt lat="41.131579" lon="14.2804331"><ele>34.666666666666664</ele><time>2026-04-06T10:13:38.073Z</time></trkpt><trkpt lat="41.1315889" lon="14.2803228"><ele>33.833333333333336</ele><time>2026-04-06T10:13:41.057Z</time></trkpt><trkpt lat="41.1315898" lon="14.2802092"><ele>33.0</ele><time>2026-04-06T10:13:44.088Z</time></trkpt><trkpt lat="41.1315901" lon="14.2801049"><ele>33.0</ele><time>2026-04-06T10:13:47.077Z</time></trkpt><trkpt lat="41.131591" lon="14.2800079"><ele>33.0</ele><time>2026-04-06T10:13:50.067Z</time></trkpt><trkpt lat="41.1315957" lon="14.2799"><ele>33.0</ele><time>2026-04-06T10:13:53.075Z</time></trkpt><trkpt lat="41.131594" lon="14.2797807"><ele>33.0</ele><time>2026-04-06T10:13:56.049Z</time></trkpt><trkpt lat="41.1315935" lon="14.2796672"><ele>33.0</ele><time>2026-04-06T10:13:59.07Z</time></trkpt><trkpt lat="41.1315957" lon="14.2795752"><ele>33.0</ele><time>2026-04-06T10:14:02.004Z</time></trkpt><trkpt lat="41.1315937" lon="14.2794769"><ele>33.0</ele><time>2026-04-06T10:14:05.065Z</time></trkpt><trkpt lat="41.1315825" lon="14.2793725"><ele>33.0</ele><time>2026-04-06T10:14:08Z</time></trkpt><trkpt lat="41.1315507" lon="14.2792819"><ele>33.0</ele><time>2026-04-06T10:14:11.089Z</time></trkpt><trkpt lat="41.131508" lon="14.2792168"><ele>33.0</ele><time>2026-04-06T10:14:14.102Z</time></trkpt><trkpt lat="41.1314472" lon="14.2791675"><ele>33.0</ele><time>2026-04-06T10:14:17.091Z</time></trkpt><trkpt lat="41.1313917" lon="14.2791267"><ele>33.0</ele><time>2026-04-06T10:14:20.13Z</time></trkpt><trkpt lat="41.1313485" lon="14.2790625"><ele>33.0</ele><time>2026-04-06T10:14:23.081Z</time></trkpt><trkpt lat="41.1313085" lon="14.2789747"><ele>34.833333333333336</ele><time>2026-04-06T10:14:26.12Z</time></trkpt><trkpt lat="41.1312692" lon="14.2788824"><ele>36.666666666666664</ele><time>2026-04-06T10:14:29.107Z</time></trkpt><trkpt lat="41.1312325" lon="14.2787891"><ele>38.5</ele><time>2026-04-06T10:14:32.086Z</time></trkpt><trkpt lat="41.1311891" lon="14.2786896"><ele>40.33333333333333</ele><time>2026-04-06T10:14:36.115Z</time></trkpt><trkpt lat="41.1311702" lon="14.278601"><ele>42.166666666666664</ele><time>2026-04-06T10:14:39.063Z</time></trkpt><trkpt lat="41.1311571" lon="14.2785062"><ele>44.0</ele><time>2026-04-06T10:14:42.093Z</time></trkpt><trkpt lat="41.1311647" lon="14.2784066"><ele>44.0</ele><time>2026-04-06T10:14:45.07Z</time></trkpt><trkpt lat="41.1311934" lon="14.2783016"><ele>44.0</ele><time>2026-04-06T10:14:48.087Z</time></trkpt><trkpt lat="41.1312269" lon="14.2782106"><ele>44.0</ele><time>2026-04-06T10:14:51.096Z</time></trkpt><trkpt lat="41.13127" lon="14.2781213"><ele>44.0</ele><time>2026-04-06T10:14:54.06Z</time></trkpt><trkpt lat="41.1313027" lon="14.2780313"><ele>44.0</ele><time>2026-04-06T10:14:57.04Z</time></trkpt><trkpt lat="41.1313336" lon="14.2779357"><ele>44.0</ele><time>2026-04-06T10:15:00.1Z</time></trkpt><trkpt lat="41.1313623" lon="14.2778492"><ele>44.33333333333333</ele><time>2026-04-06T10:15:03.044Z</time></trkpt><trkpt lat="41.131405" lon="14.2777605"><ele>44.666666666666664</ele><time>2026-04-06T10:15:06.098Z</time></trkpt><trkpt lat="41.1314497" lon="14.2776641"><ele>45.0</ele><time>2026-04-06T10:15:09.056Z</time></trkpt><trkpt lat="41.1314839" lon="14.2775907"><ele>45.333333333333336</ele><time>2026-04-06T10:15:11.069Z</time></trkpt><trkpt lat="41.1315128" lon="14.2775162"><ele>45.66666666666667</ele><time>2026-04-06T10:15:13.096Z</time></trkpt><trkpt lat="41.1315467" lon="14.2774184"><ele>46.0</ele><time>2026-04-06T10:15:16.058Z</time></trkpt><trkpt lat="41.1315824" lon="14.2773188"><ele>43.66666666666667</ele><time>2026-04-06T10:15:19.086Z</time></trkpt><trkpt lat="41.1316093" lon="14.2772231"><ele>41.333333333333336</ele><time>2026-04-06T10:15:22.065Z</time></trkpt><trkpt lat="41.1316314" lon="14.2771266"><ele>39.0</ele><time>2026-04-06T10:15:25.086Z</time></trkpt><trkpt lat="41.1316375" lon="14.2770246"><ele>36.666666666666664</ele><time>2026-04-06T10:15:28.096Z</time></trkpt><trkpt lat="41.1316405" lon="14.276922"><ele>34.33333333333333</ele><time>2026-04-06T10:15:31.098Z</time></trkpt><trkpt lat="41.1316409" lon="14.2768167"><ele>32.0</ele><time>2026-04-06T10:15:34.068Z</time></trkpt><trkpt lat="41.1316478" lon="14.2767221"><ele>32.0</ele><time>2026-04-06T10:15:37.004Z</time></trkpt><trkpt lat="41.1316508" lon="14.2766162"><ele>31.999999999999996</ele><time>2026-04-06T10:15:40.091Z</time></trkpt><trkpt lat="41.1316491" lon="14.2765196"><ele>32.0</ele><time>2026-04-06T10:15:43.098Z</time></trkpt><trkpt lat="41.1316455" lon="14.27643"><ele>32.0</ele><time>2026-04-06T10:15:46.078Z</time></trkpt><trkpt lat="41.1316428" lon="14.2763301"><ele>31.999999999999996</ele><time>2026-04-06T10:15:50.089Z</time></trkpt><trkpt lat="41.1316505" lon="14.2762435"><ele>32.0</ele><time>2026-04-06T10:15:53.1Z</time></trkpt><trkpt lat="41.1316467" lon="14.2761488"><ele>32.0</ele><time>2026-04-06T10:15:56.074Z</time></trkpt><trkpt lat="41.131646" lon="14.2760509"><ele>31.857142857142854</ele><time>2026-04-06T10:15:59.088Z</time></trkpt><trkpt lat="41.1316455" lon="14.2759577"><ele>31.71428571428571</ele><time>2026-04-06T10:16:01.985Z</time></trkpt><trkpt lat="41.1316471" lon="14.2758561"><ele>31.57142857142857</ele><time>2026-04-06T10:16:05.087Z</time></trkpt><trkpt lat="41.1316518" lon="14.2757618"><ele>31.42857142857143</ele><time>2026-04-06T10:16:08.08Z</time></trkpt><trkpt lat="41.1316502" lon="14.2756737"><ele>31.28571428571429</ele><time>2026-04-06T10:16:11.074Z</time></trkpt><trkpt lat="41.131655" lon="14.2755853"><ele>31.142857142857146</ele><time>2026-04-06T10:16:13.979Z</time></trkpt><trkpt lat="41.1316571" lon="14.2754961"><ele>31.0</ele><time>2026-04-06T10:16:17.078Z</time></trkpt><trkpt lat="41.1316612" lon="14.2754001"><ele>31.000000000000004</ele><time>2026-04-06T10:16:20.004Z</time></trkpt><trkpt lat="41.1316671" lon="14.2752836"><ele>31.0</ele><time>2026-04-06T10:16:23.069Z</time></trkpt><trkpt lat="41.1316718" lon="14.2751748"><ele>31.0</ele><time>2026-04-06T10:16:26Z</time></trkpt><trkpt lat="41.1316686" lon="14.2750633"><ele>31.0</ele><time>2026-04-06T10:16:29.086Z</time></trkpt><trkpt lat="41.1316627" lon="14.2749606"><ele>31.000000000000004</ele><time>2026-04-06T10:16:32.029Z</time></trkpt><trkpt lat="41.1316656" lon="14.2748574"><ele>31.0</ele><time>2026-04-06T10:16:35.095Z</time></trkpt><trkpt lat="41.1316705" lon="14.2747699"><ele>31.000000000000004</ele><time>2026-04-06T10:16:37.746Z</time></trkpt><trkpt lat="41.1316684" lon="14.2746594"><ele>31.0</ele><time>2026-04-06T10:16:41.089Z</time></trkpt><trkpt lat="41.1316686" lon="14.2745644"><ele>31.0</ele><time>2026-04-06T10:16:44.087Z</time></trkpt><trkpt lat="41.1316718" lon="14.2744728"><ele>31.0</ele><time>2026-04-06T10:16:47.096Z</time></trkpt><trkpt lat="41.1316755" lon="14.2743776"><ele>31.000000000000004</ele><time>2026-04-06T10:16:50.127Z</time></trkpt><trkpt lat="41.1316728" lon="14.2742678"><ele>31.0</ele><time>2026-04-06T10:16:54.083Z</time></trkpt><trkpt lat="41.1316746" lon="14.2741678"><ele>31.000000000000004</ele><time>2026-04-06T10:16:58.086Z</time></trkpt><trkpt lat="41.1316845" lon="14.2740572"><ele>31.0</ele><time>2026-04-06T10:17:02.105Z</time></trkpt><trkpt lat="41.1316873" lon="14.2739591"><ele>31.0</ele><time>2026-04-06T10:17:05.092Z</time></trkpt><trkpt lat="41.1316897" lon="14.2738658"><ele>31.0</ele><time>2026-04-06T10:17:07.686Z</time></trkpt><trkpt lat="41.1316939" lon="14.2737755"><ele>31.000000000000004</ele><time>2026-04-06T10:17:10.095Z</time></trkpt><trkpt lat="41.1316979" lon="14.2736642"><ele>31.0</ele><time>2026-04-06T10:17:13.072Z</time></trkpt><trkpt lat="41.1316992" lon="14.2735514"><ele>31.0</ele><time>2026-04-06T10:17:16.109Z</time></trkpt><trkpt lat="41.1316965" lon="14.2734466"><ele>31.000000000000004</ele><time>2026-04-06T10:17:19.065Z</time></trkpt><trkpt lat="41.1317012" lon="14.2733506"><ele>31.0</ele><time>2026-04-06T10:17:22.022Z</time></trkpt><trkpt lat="41.1316978" lon="14.2732534"><ele>31.0</ele><time>2026-04-06T10:17:25.099Z</time></trkpt><trkpt lat="41.131696" lon="14.2731586"><ele>31.000000000000004</ele><time>2026-04-06T10:17:28.059Z</time></trkpt><trkpt lat="41.1317012" lon="14.2730625"><ele>31.0</ele><time>2026-04-06T10:17:31.073Z</time></trkpt><trkpt lat="41.1317137" lon="14.272974"><ele>31.0</ele><time>2026-04-06T10:17:34.075Z</time></trkpt><trkpt lat="41.1317164" lon="14.2728864"><ele>31.0</ele><time>2026-04-06T10:17:37.081Z</time></trkpt><trkpt lat="41.1317143" lon="14.2727929"><ele>31.000000000000004</ele><time>2026-04-06T10:17:40.084Z</time></trkpt><trkpt lat="41.1317106" lon="14.272702"><ele>31.0</ele><time>2026-04-06T10:17:43.111Z</time></trkpt><trkpt lat="41.1317041" lon="14.2725943"><ele>31.0</ele><time>2026-04-06T10:17:46.091Z</time></trkpt><trkpt lat="41.1316911" lon="14.2725003"><ele>31.000000000000004</ele><time>2026-04-06T10:17:49.082Z</time></trkpt><trkpt lat="41.1316757" lon="14.2723987"><ele>31.0</ele><time>2026-04-06T10:17:52.062Z</time></trkpt><trkpt lat="41.1316597" lon="14.2723003"><ele>31.0</ele><time>2026-04-06T10:17:55.074Z</time></trkpt><trkpt lat="41.1316377" lon="14.2721902"><ele>30.833333333333336</ele><time>2026-04-06T10:17:58.075Z</time></trkpt><trkpt lat="41.1316235" lon="14.2720889"><ele>30.666666666666668</ele><time>2026-04-06T10:18:01.093Z</time></trkpt><trkpt lat="41.1315969" lon="14.2719824"><ele>30.5</ele><time>2026-04-06T10:18:04.099Z</time></trkpt><trkpt lat="41.1315667" lon="14.271877"><ele>30.333333333333336</ele><time>2026-04-06T10:18:07.083Z</time></trkpt><trkpt lat="41.1315416" lon="14.2717619"><ele>30.166666666666668</ele><time>2026-04-06T10:18:10.08Z</time></trkpt><trkpt lat="41.1315297" lon="14.271667"><ele>30.0</ele><time>2026-04-06T10:18:13.064Z</time></trkpt><trkpt lat="41.1315208" lon="14.2715718"><ele>31.714285714285715</ele><time>2026-04-06T10:18:16.102Z</time></trkpt><trkpt lat="41.1315021" lon="14.27148"><ele>33.42857142857143</ele><time>2026-04-06T10:18:19.067Z</time></trkpt><trkpt lat="41.1314766" lon="14.2713842"><ele>35.14285714285714</ele><time>2026-04-06T10:18:22.088Z</time></trkpt><trkpt lat="41.1314535" lon="14.2712948"><ele>36.85714285714286</ele><time>2026-04-06T10:18:25.086Z</time></trkpt><trkpt lat="41.1314334" lon="14.2712125"><ele>38.57142857142857</ele><time>2026-04-06T10:18:27.924Z</time></trkpt><trkpt lat="41.1314136" lon="14.2711215"><ele>40.285714285714285</ele><time>2026-04-06T10:18:31.11Z</time></trkpt><trkpt lat="41.1313975" lon="14.2710142"><ele>42.0</ele><time>2026-04-06T10:18:35.004Z</time></trkpt><trkpt lat="41.1313874" lon="14.2709274"><ele>42.0</ele><time>2026-04-06T10:18:38.078Z</time></trkpt><trkpt lat="41.1313779" lon="14.2708389"><ele>42.0</ele><time>2026-04-06T10:18:41.068Z</time></trkpt><trkpt lat="41.1313679" lon="14.2707328"><ele>42.0</ele><time>2026-04-06T10:18:45.002Z</time></trkpt><trkpt lat="41.1313554" lon="14.2706482"><ele>42.0</ele><time>2026-04-06T10:18:48.098Z</time></trkpt><trkpt lat="41.1313447" lon="14.2705592"><ele>42.0</ele><time>2026-04-06T10:18:51.058Z</time></trkpt><trkpt lat="41.1313335" lon="14.2704697"><ele>42.0</ele><time>2026-04-06T10:18:54.105Z</time></trkpt><trkpt lat="41.1313271" lon="14.2703551"><ele>42.0</ele><time>2026-04-06T10:18:58.104Z</time></trkpt><trkpt lat="41.1313178" lon="14.270261"><ele>41.714285714285715</ele><time>2026-04-06T10:19:01.099Z</time></trkpt><trkpt lat="41.1313079" lon="14.2701643"><ele>41.42857142857143</ele><time>2026-04-06T10:19:04.117Z</time></trkpt><trkpt lat="41.1312953" lon="14.2700709"><ele>41.14285714285714</ele><time>2026-04-06T10:19:07.089Z</time></trkpt><trkpt lat="41.1312783" lon="14.2699747"><ele>40.85714285714286</ele><time>2026-04-06T10:19:10.089Z</time></trkpt><trkpt lat="41.1312591" lon="14.2698831"><ele>40.57142857142857</ele><time>2026-04-06T10:19:13.083Z</time></trkpt><trkpt lat="41.1312489" lon="14.2697947"><ele>40.285714285714285</ele><time>2026-04-06T10:19:16.112Z</time></trkpt><trkpt lat="41.1312437" lon="14.2697087"><ele>40.0</ele><time>2026-04-06T10:19:19.074Z</time></trkpt><trkpt lat="41.1312383" lon="14.2696005"><ele>40.0</ele><time>2026-04-06T10:19:23.09Z</time></trkpt><trkpt lat="41.1312321" lon="14.2694975"><ele>40.0</ele><time>2026-04-06T10:19:27.094Z</time></trkpt><trkpt lat="41.1312268" lon="14.2693974"><ele>40.0</ele><time>2026-04-06T10:19:31.082Z</time></trkpt><trkpt lat="41.1312011" lon="14.2693099"><ele>40.0</ele><time>2026-04-06T10:19:35.105Z</time></trkpt><trkpt lat="41.131171" lon="14.2692334"><ele>40.0</ele><time>2026-04-06T10:19:39.087Z</time></trkpt><trkpt lat="41.1311379" lon="14.2691243"><ele>40.0</ele><time>2026-04-06T10:19:43.091Z</time></trkpt><trkpt lat="41.1311232" lon="14.2690328"><ele>40.0</ele><time>2026-04-06T10:19:46.069Z</time></trkpt><trkpt lat="41.1311204" lon="14.2689381"><ele>39.285714285714285</ele><time>2026-04-06T10:19:49.073Z</time></trkpt><trkpt lat="41.1311177" lon="14.2688465"><ele>38.57142857142857</ele><time>2026-04-06T10:19:52.093Z</time></trkpt><trkpt lat="41.1311097" lon="14.2687605"><ele>37.85714285714286</ele><time>2026-04-06T10:19:55.038Z</time></trkpt><trkpt lat="41.1311008" lon="14.2686677"><ele>37.14285714285714</ele><time>2026-04-06T10:19:58.088Z</time></trkpt><trkpt lat="41.131087" lon="14.2685785"><ele>36.42857142857143</ele><time>2026-04-06T10:20:01.022Z</time></trkpt><trkpt lat="41.1310668" lon="14.2684902"><ele>35.714285714285715</ele><time>2026-04-06T10:20:04.093Z</time></trkpt><trkpt lat="41.1310509" lon="14.2684055"><ele>35.0</ele><time>2026-04-06T10:20:07.086Z</time></trkpt><trkpt lat="41.1310337" lon="14.2683142"><ele>35.0</ele><time>2026-04-06T10:20:10.075Z</time></trkpt><trkpt lat="41.131018" lon="14.2682145"><ele>35.0</ele><time>2026-04-06T10:20:13.106Z</time></trkpt><trkpt lat="41.131012" lon="14.2681113"><ele>35.0</ele><time>2026-04-06T10:20:16.109Z</time></trkpt><trkpt lat="41.1310083" lon="14.2680194"><ele>35.0</ele><time>2026-04-06T10:20:19.12Z</time></trkpt><trkpt lat="41.1310028" lon="14.2679225"><ele>35.0</ele><time>2026-04-06T10:20:22.08Z</time></trkpt><trkpt lat="41.1309973" lon="14.267819"><ele>35.0</ele><time>2026-04-06T10:20:25.061Z</time></trkpt><trkpt lat="41.130989" lon="14.2677249"><ele>35.0</ele><time>2026-04-06T10:20:28.064Z</time></trkpt><trkpt lat="41.1309833" lon="14.2676364"><ele>34.57142857142857</ele><time>2026-04-06T10:20:31.104Z</time></trkpt><trkpt lat="41.1309658" lon="14.2675561"><ele>34.14285714285714</ele><time>2026-04-06T10:20:34.075Z</time></trkpt><trkpt lat="41.130951" lon="14.2674498"><ele>33.714285714285715</ele><time>2026-04-06T10:20:38.108Z</time></trkpt><trkpt lat="41.130944" lon="14.2673628"><ele>33.285714285714285</ele><time>2026-04-06T10:20:41.022Z</time></trkpt><trkpt lat="41.1309426" lon="14.2672636"><ele>32.857142857142854</ele><time>2026-04-06T10:20:44.087Z</time></trkpt><trkpt lat="41.1309356" lon="14.2671699"><ele>32.42857142857143</ele><time>2026-04-06T10:20:47.019Z</time></trkpt><trkpt lat="41.130926" lon="14.2670768"><ele>32.0</ele><time>2026-04-06T10:20:50.021Z</time></trkpt><trkpt lat="41.1309156" lon="14.2669692"><ele>31.999999999999996</ele><time>2026-04-06T10:20:53.081Z</time></trkpt><trkpt lat="41.1309053" lon="14.2668567"><ele>32.0</ele><time>2026-04-06T10:20:56.092Z</time></trkpt><trkpt lat="41.1308902" lon="14.2667471"><ele>32.0</ele><time>2026-04-06T10:20:59.109Z</time></trkpt><trkpt lat="41.1308807" lon="14.2666477"><ele>32.0</ele><time>2026-04-06T10:21:02.063Z</time></trkpt><trkpt lat="41.1308744" lon="14.2665507"><ele>31.999999999999996</ele><time>2026-04-06T10:21:05.099Z</time></trkpt><trkpt lat="41.1308693" lon="14.2664443"><ele>32.0</ele><time>2026-04-06T10:21:08.096Z</time></trkpt><trkpt lat="41.130863" lon="14.2663428"><ele>31.833333333333332</ele><time>2026-04-06T10:21:11.087Z</time></trkpt><trkpt lat="41.1308588" lon="14.2662394"><ele>31.666666666666664</ele><time>2026-04-06T10:21:14.052Z</time></trkpt><trkpt lat="41.1308612" lon="14.266137"><ele>31.5</ele><time>2026-04-06T10:21:17.131Z</time></trkpt><trkpt lat="41.1308686" lon="14.2660442"><ele>31.333333333333336</ele><time>2026-04-06T10:21:20.08Z</time></trkpt><trkpt lat="41.1308765" lon="14.2659508"><ele>31.166666666666668</ele><time>2026-04-06T10:21:23.054Z</time></trkpt><trkpt lat="41.1308782" lon="14.2658513"><ele>31.0</ele><time>2026-04-06T10:21:25.969Z</time></trkpt><trkpt lat="41.1308924" lon="14.265741"><ele>31.000000000000004</ele><time>2026-04-06T10:21:29.097Z</time></trkpt><trkpt lat="41.1308965" lon="14.2656398"><ele>31.0</ele><time>2026-04-06T10:21:32.025Z</time></trkpt><trkpt lat="41.1308953" lon="14.2655408"><ele>31.0</ele><time>2026-04-06T10:21:35.1Z</time></trkpt><trkpt lat="41.1308917" lon="14.2654452"><ele>31.0</ele><time>2026-04-06T10:21:38.004Z</time></trkpt><trkpt lat="41.1308928" lon="14.2653321"><ele>31.000000000000004</ele><time>2026-04-06T10:21:41.1Z</time></trkpt><trkpt lat="41.1308953" lon="14.2652316"><ele>31.0</ele><time>2026-04-06T10:21:44.077Z</time></trkpt><trkpt lat="41.1308933" lon="14.2651299"><ele>30.857142857142858</ele><time>2026-04-06T10:21:47.095Z</time></trkpt><trkpt lat="41.1308844" lon="14.2650285"><ele>30.714285714285715</ele><time>2026-04-06T10:21:50.097Z</time></trkpt><trkpt lat="41.1308893" lon="14.2649284"><ele>30.571428571428573</ele><time>2026-04-06T10:21:53.093Z</time></trkpt><trkpt lat="41.1308931" lon="14.2648272"><ele>30.42857142857143</ele><time>2026-04-06T10:21:56.092Z</time></trkpt><trkpt lat="41.1308962" lon="14.2647311"><ele>30.285714285714285</ele><time>2026-04-06T10:21:59.074Z</time></trkpt><trkpt lat="41.1309037" lon="14.2646339"><ele>30.142857142857146</ele><time>2026-04-06T10:22:02.089Z</time></trkpt><trkpt lat="41.1309012" lon="14.2645379"><ele>30.0</ele><time>2026-04-06T10:22:05.024Z</time></trkpt><trkpt lat="41.1308922" lon="14.2644433"><ele>29.714285714285715</ele><time>2026-04-06T10:22:08.08Z</time></trkpt><trkpt lat="41.1308844" lon="14.2643496"><ele>29.428571428571427</ele><time>2026-04-06T10:22:11.089Z</time></trkpt><trkpt lat="41.1308697" lon="14.2642635"><ele>29.142857142857142</ele><time>2026-04-06T10:22:14.074Z</time></trkpt><trkpt lat="41.1308519" lon="14.2641796"><ele>28.857142857142858</ele><time>2026-04-06T10:22:16.983Z</time></trkpt><trkpt lat="41.1308288" lon="14.2640923"><ele>28.57142857142857</ele><time>2026-04-06T10:22:20.095Z</time></trkpt><trkpt lat="41.1307973" lon="14.2639943"><ele>28.285714285714285</ele><time>2026-04-06T10:22:24.1Z</time></trkpt><trkpt lat="41.130774" lon="14.2639128"><ele>28.0</ele><time>2026-04-06T10:22:27.082Z</time></trkpt><trkpt lat="41.1307414" lon="14.263827"><ele>28.714285714285715</ele><time>2026-04-06T10:22:30.084Z</time></trkpt><trkpt lat="41.1307027" lon="14.263742"><ele>29.42857142857143</ele><time>2026-04-06T10:22:33.109Z</time></trkpt><trkpt lat="41.1306634" lon="14.2636596"><ele>30.142857142857142</ele><time>2026-04-06T10:22:36.078Z</time></trkpt><trkpt lat="41.1306319" lon="14.2635846"><ele>30.857142857142858</ele><time>2026-04-06T10:22:39.07Z</time></trkpt><trkpt lat="41.1305977" lon="14.2635084"><ele>31.571428571428573</ele><time>2026-04-06T10:22:42.06Z</time></trkpt><trkpt lat="41.1305537" lon="14.2634412"><ele>32.285714285714285</ele><time>2026-04-06T10:22:45.084Z</time></trkpt><trkpt lat="41.1305127" lon="14.2633758"><ele>33.0</ele><time>2026-04-06T10:22:48.126Z</time></trkpt><trkpt lat="41.1304603" lon="14.263279"><ele>33.0</ele><time>2026-04-06T10:22:52.025Z</time></trkpt><trkpt lat="41.1304105" lon="14.2631913"><ele>33.0</ele><time>2026-04-06T10:22:56.096Z</time></trkpt><trkpt lat="41.1303576" lon="14.2631073"><ele>33.0</ele><time>2026-04-06T10:23:00.094Z</time></trkpt><trkpt lat="41.1303142" lon="14.2630434"><ele>33.0</ele><time>2026-04-06T10:23:03.079Z</time></trkpt><trkpt lat="41.1302599" lon="14.2629476"><ele>33.0</ele><time>2026-04-06T10:23:07.039Z</time></trkpt><trkpt lat="41.1302204" lon="14.2628631"><ele>33.0</ele><time>2026-04-06T10:23:11.09Z</time></trkpt><trkpt lat="41.1301823" lon="14.2627909"><ele>33.0</ele><time>2026-04-06T10:23:14.092Z</time></trkpt><trkpt lat="41.1301345" lon="14.2627066"><ele>33.0</ele><time>2026-04-06T10:23:18.121Z</time></trkpt><trkpt lat="41.1300998" lon="14.2626069"><ele>33.0</ele><time>2026-04-06T10:23:22.025Z</time></trkpt><trkpt lat="41.1300689" lon="14.2625195"><ele>33.0</ele><time>2026-04-06T10:23:25.099Z</time></trkpt><trkpt lat="41.1300435" lon="14.2624369"><ele>33.0</ele><time>2026-04-06T10:23:28.108Z</time></trkpt><trkpt lat="41.1300188" lon="14.2623533"><ele>33.0</ele><time>2026-04-06T10:23:31.09Z</time></trkpt><trkpt lat="41.1300045" lon="14.2622698"><ele>33.0</ele><time>2026-04-06T10:23:41.097Z</time></trkpt><trkpt lat="41.1300031" lon="14.2621418"><ele>33.0</ele><time>2026-04-06T10:23:54.075Z</time></trkpt><trkpt lat="41.1299759" lon="14.2620482"><ele>33.0</ele><time>2026-04-06T10:23:58.103Z</time></trkpt><trkpt lat="41.1299595" lon="14.2619551"><ele>33.0</ele><time>2026-04-06T10:24:01.043Z</time></trkpt><trkpt lat="41.1299453" lon="14.2618657"><ele>33.0</ele><time>2026-04-06T10:24:04.086Z</time></trkpt><trkpt lat="41.129933" lon="14.2617587"><ele>33.0</ele><time>2026-04-06T10:24:08.071Z</time></trkpt><trkpt lat="41.1299225" lon="14.2616515"><ele>33.0</ele><time>2026-04-06T10:24:12.079Z</time></trkpt><trkpt lat="41.1299155" lon="14.2615524"><ele>33.0</ele><time>2026-04-06T10:24:16.086Z</time></trkpt><trkpt lat="41.1299144" lon="14.2614523"><ele>33.0</ele><time>2026-04-06T10:24:20.101Z</time></trkpt><trkpt lat="41.1299068" lon="14.2613439"><ele>33.0</ele><time>2026-04-06T10:24:24.116Z</time></trkpt><trkpt lat="41.1299189" lon="14.2612601"><ele>33.0</ele><time>2026-04-06T10:24:27.086Z</time></trkpt><trkpt lat="41.1299175" lon="14.2611633"><ele>33.0</ele><time>2026-04-06T10:24:30.133Z</time></trkpt><trkpt lat="41.1298909" lon="14.2610684"><ele>33.0</ele><time>2026-04-06T10:24:33.088Z</time></trkpt><trkpt lat="41.1298717" lon="14.2609637"><ele>34.0</ele><time>2026-04-06T10:24:37.082Z</time></trkpt><trkpt lat="41.1298621" lon="14.2608535"><ele>35.0</ele><time>2026-04-06T10:24:41.384Z</time></trkpt><trkpt lat="41.1298571" lon="14.2607685"><ele>36.0</ele><time>2026-04-06T10:24:44.566Z</time></trkpt><trkpt lat="41.1298563" lon="14.2606815"><ele>37.0</ele><time>2026-04-06T10:24:47.712Z</time></trkpt><trkpt lat="41.1298714" lon="14.2605952"><ele>38.0</ele><time>2026-04-06T10:24:50.904Z</time></trkpt><trkpt lat="41.1298833" lon="14.2605106"><ele>39.0</ele><time>2026-04-06T10:24:54.128Z</time></trkpt><trkpt lat="41.1298825" lon="14.2604246"><ele>40.0</ele><time>2026-04-06T10:24:57.079Z</time></trkpt><trkpt lat="41.1298791" lon="14.2603203"><ele>40.0</ele><time>2026-04-06T10:25:01.095Z</time></trkpt><trkpt lat="41.1298788" lon="14.2602303"><ele>40.0</ele><time>2026-04-06T10:25:05.085Z</time></trkpt><trkpt lat="41.1298859" lon="14.2601353"><ele>40.0</ele><time>2026-04-06T10:25:09.083Z</time></trkpt><trkpt lat="41.1299252" lon="14.2600486"><ele>40.0</ele><time>2026-04-06T10:25:13.077Z</time></trkpt><trkpt lat="41.1299986" lon="14.2600232"><ele>40.0</ele><time>2026-04-06T10:25:17.073Z</time></trkpt><trkpt lat="41.1300657" lon="14.2600315"><ele>40.0</ele><time>2026-04-06T10:25:20.004Z</time></trkpt><trkpt lat="41.1301309" lon="14.2600382"><ele>40.0</ele><time>2026-04-06T10:25:23.091Z</time></trkpt><trkpt lat="41.1301958" lon="14.260036"><ele>39.285714285714285</ele><time>2026-04-06T10:25:26.023Z</time></trkpt><trkpt lat="41.1302648" lon="14.2600307"><ele>38.57142857142857</ele><time>2026-04-06T10:25:29.09Z</time></trkpt><trkpt lat="41.130337" lon="14.2600335"><ele>37.85714285714286</ele><time>2026-04-06T10:25:32.041Z</time></trkpt><trkpt lat="41.1304127" lon="14.2600339"><ele>37.14285714285714</ele><time>2026-04-06T10:25:35.098Z</time></trkpt><trkpt lat="41.1304856" lon="14.2600393"><ele>36.42857142857143</ele><time>2026-04-06T10:25:38.023Z</time></trkpt><trkpt lat="41.1305489" lon="14.260048"><ele>35.714285714285715</ele><time>2026-04-06T10:25:41.007Z</time></trkpt><trkpt lat="41.1306119" lon="14.2600547"><ele>35.0</ele><time>2026-04-06T10:25:44.044Z</time></trkpt><trkpt lat="41.1306768" lon="14.2600288"><ele>34.142857142857146</ele><time>2026-04-06T10:25:47.097Z</time></trkpt><trkpt lat="41.1307415" lon="14.2600088"><ele>33.285714285714285</ele><time>2026-04-06T10:25:50.024Z</time></trkpt><trkpt lat="41.1308064" lon="14.2600204"><ele>32.42857142857143</ele><time>2026-04-06T10:25:53.11Z</time></trkpt><trkpt lat="41.1308856" lon="14.2600392"><ele>31.571428571428573</ele><time>2026-04-06T10:25:57.118Z</time></trkpt><trkpt lat="41.1309607" lon="14.2600516"><ele>30.714285714285715</ele><time>2026-04-06T10:26:01.03Z</time></trkpt><trkpt lat="41.1310341" lon="14.2600733"><ele>29.85714285714286</ele><time>2026-04-06T10:26:05.106Z</time></trkpt><trkpt lat="41.1310982" lon="14.2600843"><ele>29.000000000000004</ele><time>2026-04-06T10:26:08.079Z</time></trkpt><trkpt lat="41.1311731" lon="14.2600882"><ele>29.000000000000004</ele><time>2026-04-06T10:26:12.029Z</time></trkpt><trkpt lat="41.1312372" lon="14.2600945"><ele>29.0</ele><time>2026-04-06T10:26:15.071Z</time></trkpt><trkpt lat="41.1313018" lon="14.2601216"><ele>29.000000000000004</ele><time>2026-04-06T10:26:18.1Z</time></trkpt><trkpt lat="41.1313694" lon="14.2601459"><ele>29.000000000000004</ele><time>2026-04-06T10:26:21.103Z</time></trkpt><trkpt lat="41.1314362" lon="14.2601591"><ele>29.0</ele><time>2026-04-06T10:26:24.124Z</time></trkpt><trkpt lat="41.1315043" lon="14.2601648"><ele>29.000000000000004</ele><time>2026-04-06T10:26:27.073Z</time></trkpt><trkpt lat="41.1315743" lon="14.2601704"><ele>29.000000000000004</ele><time>2026-04-06T10:26:30.084Z</time></trkpt><trkpt lat="41.1316459" lon="14.2601892"><ele>28.166666666666664</ele><time>2026-04-06T10:26:33.004Z</time></trkpt><trkpt lat="41.1317277" lon="14.2602163"><ele>27.333333333333332</ele><time>2026-04-06T10:26:36.144Z</time></trkpt><trkpt lat="41.1318056" lon="14.2602331"><ele>26.5</ele><time>2026-04-06T10:26:38.984Z</time></trkpt><trkpt lat="41.1318908" lon="14.2602494"><ele>25.666666666666664</ele><time>2026-04-06T10:26:42.154Z</time></trkpt><trkpt lat="41.1319565" lon="14.2602594"><ele>24.833333333333332</ele><time>2026-04-06T10:26:45.011Z</time></trkpt><trkpt lat="41.1320395" lon="14.260278"><ele>24.0</ele><time>2026-04-06T10:26:49.087Z</time></trkpt><trkpt lat="41.1321086" lon="14.2603001"><ele>24.0</ele><time>2026-04-06T10:26:52.107Z</time></trkpt><trkpt lat="41.1321814" lon="14.2603259"><ele>24.0</ele><time>2026-04-06T10:26:55.107Z</time></trkpt><trkpt lat="41.1322572" lon="14.2603449"><ele>24.0</ele><time>2026-04-06T10:26:58.087Z</time></trkpt><trkpt lat="41.1323351" lon="14.2603614"><ele>24.0</ele><time>2026-04-06T10:27:01.11Z</time></trkpt><trkpt lat="41.1324049" lon="14.2603825"><ele>24.0</ele><time>2026-04-06T10:27:04.048Z</time></trkpt><trkpt lat="41.1324746" lon="14.2604027"><ele>24.0</ele><time>2026-04-06T10:27:07.096Z</time></trkpt><trkpt lat="41.1325531" lon="14.2604208"><ele>25.0</ele><time>2026-04-06T10:27:11.076Z</time></trkpt><trkpt lat="41.1326238" lon="14.2604173"><ele>26.0</ele><time>2026-04-06T10:27:15.079Z</time></trkpt><trkpt lat="41.1326894" lon="14.260374"><ele>27.0</ele><time>2026-04-06T10:27:20.08Z</time></trkpt><trkpt lat="41.1327355" lon="14.2603077"><ele>28.0</ele><time>2026-04-06T10:27:24.083Z</time></trkpt><trkpt lat="41.1327627" lon="14.2602225"><ele>29.000000000000004</ele><time>2026-04-06T10:27:28.077Z</time></trkpt><trkpt lat="41.1327851" lon="14.2601431"><ele>30.0</ele><time>2026-04-06T10:27:31.094Z</time></trkpt><trkpt lat="41.1328172" lon="14.260037"><ele>31.0</ele><time>2026-04-06T10:27:35.1Z</time></trkpt><trkpt lat="41.1328519" lon="14.2599369"><ele>31.000000000000004</ele><time>2026-04-06T10:27:39.022Z</time></trkpt><trkpt lat="41.1328768" lon="14.2598333"><ele>31.0</ele><time>2026-04-06T10:27:43.085Z</time></trkpt><trkpt lat="41.1329056" lon="14.2597438"><ele>31.0</ele><time>2026-04-06T10:27:47.076Z</time></trkpt><trkpt lat="41.1329429" lon="14.2596581"><ele>31.0</ele><time>2026-04-06T10:27:49.99Z</time></trkpt><trkpt lat="41.132982" lon="14.2595473"><ele>31.000000000000004</ele><time>2026-04-06T10:27:53.063Z</time></trkpt><trkpt lat="41.1330108" lon="14.2594406"><ele>31.0</ele><time>2026-04-06T10:27:55.943Z</time></trkpt><trkpt lat="41.1330375" lon="14.2593232"><ele>30.833333333333336</ele><time>2026-04-06T10:27:59.066Z</time></trkpt><trkpt lat="41.1330716" lon="14.2592187"><ele>30.666666666666668</ele><time>2026-04-06T10:28:02.094Z</time></trkpt><trkpt lat="41.1331092" lon="14.2591276"><ele>30.5</ele><time>2026-04-06T10:28:05.033Z</time></trkpt><trkpt lat="41.1331477" lon="14.2590331"><ele>30.333333333333336</ele><time>2026-04-06T10:28:08.108Z</time></trkpt><trkpt lat="41.1331882" lon="14.2589489"><ele>30.166666666666668</ele><time>2026-04-06T10:28:11.087Z</time></trkpt><trkpt lat="41.1332138" lon="14.2588633"><ele>30.0</ele><time>2026-04-06T10:28:14.111Z</time></trkpt><trkpt lat="41.1332374" lon="14.2587795"><ele>30.42857142857143</ele><time>2026-04-06T10:28:16.984Z</time></trkpt><trkpt lat="41.1332702" lon="14.2586978"><ele>30.857142857142854</ele><time>2026-04-06T10:28:20.092Z</time></trkpt><trkpt lat="41.1333034" lon="14.2586213"><ele>31.285714285714285</ele><time>2026-04-06T10:28:23.003Z</time></trkpt><trkpt lat="41.1333347" lon="14.2585459"><ele>31.714285714285715</ele><time>2026-04-06T10:28:26.079Z</time></trkpt><trkpt lat="41.1333696" lon="14.2584493"><ele>32.142857142857146</ele><time>2026-04-06T10:28:30.082Z</time></trkpt><trkpt lat="41.1334026" lon="14.2583778"><ele>32.57142857142857</ele><time>2026-04-06T10:28:33.076Z</time></trkpt><trkpt lat="41.133442" lon="14.2583093"><ele>33.0</ele><time>2026-04-06T10:28:36.065Z</time></trkpt><trkpt lat="41.1334791" lon="14.2582403"><ele>33.0</ele><time>2026-04-06T10:28:38.983Z</time></trkpt><trkpt lat="41.1335217" lon="14.2581655"><ele>33.0</ele><time>2026-04-06T10:28:42.099Z</time></trkpt><trkpt lat="41.1335668" lon="14.2580731"><ele>33.0</ele><time>2026-04-06T10:28:46.065Z</time></trkpt><trkpt lat="41.1336028" lon="14.2579989"><ele>33.0</ele><time>2026-04-06T10:28:49.086Z</time></trkpt><trkpt lat="41.1336467" lon="14.2579281"><ele>33.0</ele><time>2026-04-06T10:28:52.107Z</time></trkpt><trkpt lat="41.1336858" lon="14.257849"><ele>33.0</ele><time>2026-04-06T10:28:55.085Z</time></trkpt><trkpt lat="41.1337277" lon="14.2577672"><ele>33.0</ele><time>2026-04-06T10:28:58.123Z</time></trkpt><trkpt lat="41.1337667" lon="14.2576839"><ele>32.714285714285715</ele><time>2026-04-06T10:29:01.032Z</time></trkpt><trkpt lat="41.1338134" lon="14.2576035"><ele>32.42857142857143</ele><time>2026-04-06T10:29:04.101Z</time></trkpt><trkpt lat="41.1338589" lon="14.2575234"><ele>32.142857142857146</ele><time>2026-04-06T10:29:07.028Z</time></trkpt><trkpt lat="41.1339153" lon="14.2574454"><ele>31.857142857142858</ele><time>2026-04-06T10:29:10.103Z</time></trkpt><trkpt lat="41.1339694" lon="14.2573753"><ele>31.571428571428577</ele><time>2026-04-06T10:29:13.088Z</time></trkpt><trkpt lat="41.1340132" lon="14.2573045"><ele>31.28571428571429</ele><time>2026-04-06T10:29:16.056Z</time></trkpt><trkpt lat="41.1340486" lon="14.2572307"><ele>31.0</ele><time>2026-04-06T10:29:19.092Z</time></trkpt><trkpt lat="41.134088" lon="14.2571381"><ele>31.000000000000004</ele><time>2026-04-06T10:29:23.062Z</time></trkpt><trkpt lat="41.1341513" lon="14.2570527"><ele>31.0</ele><time>2026-04-06T10:29:28.06Z</time></trkpt><trkpt lat="41.1342073" lon="14.2569956"><ele>31.0</ele><time>2026-04-06T10:29:31.066Z</time></trkpt><trkpt lat="41.1342683" lon="14.2569587"><ele>31.0</ele><time>2026-04-06T10:29:34.05Z</time></trkpt><trkpt lat="41.1343284" lon="14.2569103"><ele>31.000000000000004</ele><time>2026-04-06T10:29:36.981Z</time></trkpt><trkpt lat="41.1343885" lon="14.2568396"><ele>31.0</ele><time>2026-04-06T10:29:40.08Z</time></trkpt><trkpt lat="41.1344549" lon="14.2567686"><ele>31.000000000000004</ele><time>2026-04-06T10:29:43.054Z</time></trkpt><trkpt lat="41.1345033" lon="14.2566956"><ele>31.0</ele><time>2026-04-06T10:29:46.05Z</time></trkpt><trkpt lat="41.1345635" lon="14.2566598"><ele>31.0</ele><time>2026-04-06T10:29:51.091Z</time></trkpt><trkpt lat="41.1345988" lon="14.2565585"><ele>31.0</ele><time>2026-04-06T10:29:55.047Z</time></trkpt><trkpt lat="41.1346442" lon="14.2564954"><ele>31.000000000000004</ele><time>2026-04-06T10:29:57.106Z</time></trkpt><trkpt lat="41.1347215" lon="14.2564528"><ele>31.0</ele><time>2026-04-06T10:30:00.113Z</time></trkpt><trkpt lat="41.1347982" lon="14.2564439"><ele>30.857142857142858</ele><time>2026-04-06T10:30:03.063Z</time></trkpt><trkpt lat="41.1348662" lon="14.2563762"><ele>30.714285714285715</ele><time>2026-04-06T10:30:06.064Z</time></trkpt><trkpt lat="41.1349194" lon="14.2563145"><ele>30.571428571428573</ele><time>2026-04-06T10:30:09.078Z</time></trkpt><trkpt lat="41.1349125" lon="14.2562225"><ele>30.42857142857143</ele><time>2026-04-06T10:30:12.082Z</time></trkpt><trkpt lat="41.1349589" lon="14.2561582"><ele>30.285714285714285</ele><time>2026-04-06T10:30:15.17Z</time></trkpt><trkpt lat="41.1350079" lon="14.2560702"><ele>30.142857142857146</ele><time>2026-04-06T10:30:19.051Z</time></trkpt><trkpt lat="41.135056" lon="14.2560073"><ele>30.0</ele><time>2026-04-06T10:30:21.979Z</time></trkpt><trkpt lat="41.1351094" lon="14.2559427"><ele>30.0</ele><time>2026-04-06T10:30:25.064Z</time></trkpt><trkpt lat="41.1351681" lon="14.2558803"><ele>30.0</ele><time>2026-04-06T10:30:28.083Z</time></trkpt><trkpt lat="41.1352127" lon="14.2558126"><ele>30.0</ele><time>2026-04-06T10:30:30.984Z</time></trkpt><trkpt lat="41.1352646" lon="14.2557409"><ele>30.0</ele><time>2026-04-06T10:30:34.073Z</time></trkpt><trkpt lat="41.1353126" lon="14.2556785"><ele>30.0</ele><time>2026-04-06T10:30:36.986Z</time></trkpt><trkpt lat="41.1353754" lon="14.2556145"><ele>30.0</ele><time>2026-04-06T10:30:40.121Z</time></trkpt><trkpt lat="41.1354415" lon="14.2555489"><ele>30.0</ele><time>2026-04-06T10:30:42.99Z</time></trkpt><trkpt lat="41.1355234" lon="14.2554924"><ele>30.0</ele><time>2026-04-06T10:30:46.077Z</time></trkpt><trkpt lat="41.1355923" lon="14.2554457"><ele>30.0</ele><time>2026-04-06T10:30:49.004Z</time></trkpt><trkpt lat="41.1356575" lon="14.2553861"><ele>30.0</ele><time>2026-04-06T10:30:52.095Z</time></trkpt><trkpt lat="41.1357062" lon="14.2553218"><ele>30.0</ele><time>2026-04-06T10:30:54.985Z</time></trkpt><trkpt lat="41.1357534" lon="14.2552493"><ele>30.0</ele><time>2026-04-06T10:30:58.122Z</time></trkpt><trkpt lat="41.1358032" lon="14.2551959"><ele>30.0</ele><time>2026-04-06T10:31:01.071Z</time></trkpt><trkpt lat="41.1358579" lon="14.25514"><ele>30.0</ele><time>2026-04-06T10:31:04.025Z</time></trkpt><trkpt lat="41.1359122" lon="14.2550838"><ele>29.857142857142858</ele><time>2026-04-06T10:31:07.089Z</time></trkpt><trkpt lat="41.1359653" lon="14.2550296"><ele>29.714285714285715</ele><time>2026-04-06T10:31:10.093Z</time></trkpt><trkpt lat="41.1360246" lon="14.2549825"><ele>29.571428571428573</ele><time>2026-04-06T10:31:13.126Z</time></trkpt><trkpt lat="41.1360878" lon="14.2549304"><ele>29.42857142857143</ele><time>2026-04-06T10:31:16.093Z</time></trkpt><trkpt lat="41.1361424" lon="14.2548527"><ele>29.285714285714285</ele><time>2026-04-06T10:31:19.086Z</time></trkpt><trkpt lat="41.1361953" lon="14.2547845"><ele>29.142857142857146</ele><time>2026-04-06T10:31:22.09Z</time></trkpt><trkpt lat="41.1362436" lon="14.2547222"><ele>29.000000000000004</ele><time>2026-04-06T10:31:25.106Z</time></trkpt><trkpt lat="41.1363073" lon="14.2546527"><ele>28.833333333333332</ele><time>2026-04-06T10:31:29Z</time></trkpt><trkpt lat="41.1363658" lon="14.2545842"><ele>28.666666666666664</ele><time>2026-04-06T10:31:33.113Z</time></trkpt><trkpt lat="41.1364245" lon="14.2545175"><ele>28.5</ele><time>2026-04-06T10:31:37.084Z</time></trkpt><trkpt lat="41.1364773" lon="14.2544345"><ele>28.333333333333336</ele><time>2026-04-06T10:31:41.076Z</time></trkpt><trkpt lat="41.1365458" lon="14.2543774"><ele>28.166666666666668</ele><time>2026-04-06T10:31:45.064Z</time></trkpt><trkpt lat="41.1366047" lon="14.2543277"><ele>28.0</ele><time>2026-04-06T10:31:48.045Z</time></trkpt><trkpt lat="41.1366669" lon="14.254273"><ele>28.142857142857142</ele><time>2026-04-06T10:31:51.078Z</time></trkpt><trkpt lat="41.1367307" lon="14.2542264"><ele>28.285714285714285</ele><time>2026-04-06T10:31:54.085Z</time></trkpt><trkpt lat="41.1367797" lon="14.2541738"><ele>28.42857142857143</ele><time>2026-04-06T10:31:57.098Z</time></trkpt><trkpt lat="41.1368216" lon="14.2541072"><ele>28.571428571428573</ele><time>2026-04-06T10:32:00.071Z</time></trkpt><trkpt lat="41.1368672" lon="14.2540451"><ele>28.714285714285715</ele><time>2026-04-06T10:32:03.104Z</time></trkpt><trkpt lat="41.1369179" lon="14.2539589"><ele>28.85714285714286</ele><time>2026-04-06T10:32:07.05Z</time></trkpt><trkpt lat="41.1369678" lon="14.253874"><ele>29.000000000000004</ele><time>2026-04-06T10:32:11.086Z</time></trkpt><trkpt lat="41.137016" lon="14.2537884"><ele>29.000000000000004</ele><time>2026-04-06T10:32:15.101Z</time></trkpt><trkpt lat="41.137042" lon="14.25369"><ele>29.0</ele><time>2026-04-06T10:32:19.101Z</time></trkpt><trkpt lat="41.1370472" lon="14.2536039"><ele>29.000000000000004</ele><time>2026-04-06T10:32:22.136Z</time></trkpt><trkpt lat="41.1370599" lon="14.253506"><ele>29.000000000000004</ele><time>2026-04-06T10:32:27.075Z</time></trkpt><trkpt lat="41.1370732" lon="14.2534202"><ele>29.0</ele><time>2026-04-06T10:32:31.097Z</time></trkpt><trkpt lat="41.1370443" lon="14.2533442"><ele>29.000000000000004</ele><time>2026-04-06T10:32:35.043Z</time></trkpt><trkpt lat="41.1370368" lon="14.2532591"><ele>29.000000000000004</ele><time>2026-04-06T10:32:39.079Z</time></trkpt><trkpt lat="41.1370544" lon="14.253173"><ele>30.285714285714292</ele><time>2026-04-06T10:32:44.087Z</time></trkpt><trkpt lat="41.1370649" lon="14.2530793"><ele>31.571428571428573</ele><time>2026-04-06T10:32:48.126Z</time></trkpt><trkpt lat="41.1370736" lon="14.2529951"><ele>32.85714285714286</ele><time>2026-04-06T10:32:52.098Z</time></trkpt><trkpt lat="41.1370663" lon="14.2528883"><ele>34.142857142857146</ele><time>2026-04-06T10:32:57.058Z</time></trkpt><trkpt lat="41.137069" lon="14.2527946"><ele>35.42857142857143</ele><time>2026-04-06T10:33:01.002Z</time></trkpt><trkpt lat="41.1370806" lon="14.2527021"><ele>36.714285714285715</ele><time>2026-04-06T10:33:05.099Z</time></trkpt><trkpt lat="41.1370654" lon="14.2526044"><ele>38.0</ele><time>2026-04-06T10:33:09.107Z</time></trkpt><trkpt lat="41.1370299" lon="14.2525146"><ele>38.0</ele><time>2026-04-06T10:33:13.108Z</time></trkpt><trkpt lat="41.1370119" lon="14.2524146"><ele>38.0</ele><time>2026-04-06T10:33:16.999Z</time></trkpt><trkpt lat="41.1369953" lon="14.2523104"><ele>38.0</ele><time>2026-04-06T10:33:20.96Z</time></trkpt><trkpt lat="41.1369888" lon="14.2522114"><ele>38.0</ele><time>2026-04-06T10:33:25.073Z</time></trkpt><trkpt lat="41.1369952" lon="14.2521132"><ele>38.0</ele><time>2026-04-06T10:33:29.068Z</time></trkpt><trkpt lat="41.1370019" lon="14.2520105"><ele>38.0</ele><time>2026-04-06T10:33:33.045Z</time></trkpt><trkpt lat="41.1370151" lon="14.2519122"><ele>38.857142857142854</ele><time>2026-04-06T10:33:36.985Z</time></trkpt><trkpt lat="41.1370369" lon="14.2518024"><ele>39.714285714285715</ele><time>2026-04-06T10:33:41.095Z</time></trkpt><trkpt lat="41.1370663" lon="14.2517196"><ele>40.57142857142857</ele><time>2026-04-06T10:33:44.105Z</time></trkpt><trkpt lat="41.1371118" lon="14.2516565"><ele>41.42857142857143</ele><time>2026-04-06T10:33:47.07Z</time></trkpt><trkpt lat="41.1371669" lon="14.2516033"><ele>42.285714285714285</ele><time>2026-04-06T10:33:50.154Z</time></trkpt><trkpt lat="41.1372359" lon="14.2515381"><ele>43.142857142857146</ele><time>2026-04-06T10:33:54.066Z</time></trkpt><trkpt lat="41.1372865" lon="14.2514853"><ele>44.0</ele><time>2026-04-06T10:33:57.068Z</time></trkpt><trkpt lat="41.1373427" lon="14.2514118"><ele>44.714285714285715</ele><time>2026-04-06T10:34:01.086Z</time></trkpt><trkpt lat="41.1373982" lon="14.2513698"><ele>45.42857142857143</ele><time>2026-04-06T10:34:05.09Z</time></trkpt><trkpt lat="41.1374509" lon="14.2512962"><ele>46.14285714285714</ele><time>2026-04-06T10:34:10.066Z</time></trkpt><trkpt lat="41.1374876" lon="14.2512137"><ele>46.85714285714286</ele><time>2026-04-06T10:34:13.989Z</time></trkpt><trkpt lat="41.1375276" lon="14.2511445"><ele>47.57142857142857</ele><time>2026-04-06T10:34:18.026Z</time></trkpt><trkpt lat="41.1375705" lon="14.2510762"><ele>48.285714285714285</ele><time>2026-04-06T10:34:21.983Z</time></trkpt><trkpt lat="41.137609" lon="14.2509994"><ele>49.0</ele><time>2026-04-06T10:34:25.986Z</time></trkpt><trkpt lat="41.1376604" lon="14.2509384"><ele>49.0</ele><time>2026-04-06T10:34:30.068Z</time></trkpt><trkpt lat="41.1377206" lon="14.2508901"><ele>49.0</ele><time>2026-04-06T10:34:33.981Z</time></trkpt><trkpt lat="41.1377813" lon="14.2508519"><ele>49.0</ele><time>2026-04-06T10:34:38.005Z</time></trkpt><trkpt lat="41.1378436" lon="14.2508098"><ele>49.0</ele><time>2026-04-06T10:34:42.077Z</time></trkpt><trkpt lat="41.1378956" lon="14.2507529"><ele>49.0</ele><time>2026-04-06T10:34:46.122Z</time></trkpt><trkpt lat="41.1379493" lon="14.2506966"><ele>49.0</ele><time>2026-04-06T10:34:51.088Z</time></trkpt><trkpt lat="41.1380156" lon="14.250649"><ele>49.0</ele><time>2026-04-06T10:34:56.076Z</time></trkpt><trkpt lat="41.1380736" lon="14.2506074"><ele>48.49999999999999</ele><time>2026-04-06T10:35:00.087Z</time></trkpt><trkpt lat="41.1381332" lon="14.250545"><ele>48.0</ele><time>2026-04-06T10:35:05.093Z</time></trkpt><trkpt lat="41.1382029" lon="14.2504966"><ele>47.5</ele><time>2026-04-06T10:35:10.077Z</time></trkpt><trkpt lat="41.1382651" lon="14.2504669"><ele>47.0</ele><time>2026-04-06T10:35:14.073Z</time></trkpt><trkpt lat="41.1383324" lon="14.2504351"><ele>46.5</ele><time>2026-04-06T10:35:17.868Z</time></trkpt><trkpt lat="41.1384159" lon="14.2504227"><ele>46.0</ele><time>2026-04-06T10:35:21.088Z</time></trkpt><trkpt lat="41.1384956" lon="14.250407"><ele>46.0</ele><time>2026-04-06T10:35:24.081Z</time></trkpt><trkpt lat="41.1385723" lon="14.2503854"><ele>46.0</ele><time>2026-04-06T10:35:27.091Z</time></trkpt><trkpt lat="41.1386488" lon="14.2503685"><ele>46.0</ele><time>2026-04-06T10:35:30.12Z</time></trkpt><trkpt lat="41.1387265" lon="14.2503623"><ele>46.0</ele><time>2026-04-06T10:35:33.073Z</time></trkpt><trkpt lat="41.1388128" lon="14.2503496"><ele>46.0</ele><time>2026-04-06T10:35:36.077Z</time></trkpt><trkpt lat="41.1388912" lon="14.2503255"><ele>46.0</ele><time>2026-04-06T10:35:39.009Z</time></trkpt><trkpt lat="41.1389754" lon="14.250308"><ele>46.0</ele><time>2026-04-06T10:35:42.086Z</time></trkpt><trkpt lat="41.1390503" lon="14.2502789"><ele>46.0</ele><time>2026-04-06T10:35:45.107Z</time></trkpt><trkpt lat="41.1391298" lon="14.2502241"><ele>46.0</ele><time>2026-04-06T10:35:48.07Z</time></trkpt><trkpt lat="41.1392152" lon="14.2501739"><ele>46.0</ele><time>2026-04-06T10:35:51.152Z</time></trkpt><trkpt lat="41.139282" lon="14.2501434"><ele>46.0</ele><time>2026-04-06T10:35:53.109Z</time></trkpt><trkpt lat="41.139341" lon="14.2501135"><ele>46.0</ele><time>2026-04-06T10:35:55.072Z</time></trkpt><trkpt lat="41.1394023" lon="14.2500912"><ele>46.0</ele><time>2026-04-06T10:35:57.054Z</time></trkpt><trkpt lat="41.1394652" lon="14.2500742"><ele>46.0</ele><time>2026-04-06T10:35:59.092Z</time></trkpt><trkpt lat="41.1395448" lon="14.2500447"><ele>46.0</ele><time>2026-04-06T10:36:02.093Z</time></trkpt><trkpt lat="41.1396196" lon="14.2500094"><ele>46.0</ele><time>2026-04-06T10:36:05.07Z</time></trkpt><trkpt lat="41.139674" lon="14.2499598"><ele>46.0</ele><time>2026-04-06T10:36:08.098Z</time></trkpt><trkpt lat="41.1397303" lon="14.2498994"><ele>46.0</ele><time>2026-04-06T10:36:11.082Z</time></trkpt><trkpt lat="41.1397917" lon="14.2498403"><ele>46.0</ele><time>2026-04-06T10:36:14.066Z</time></trkpt><trkpt lat="41.139843" lon="14.2497891"><ele>45.333333333333336</ele><time>2026-04-06T10:36:17.088Z</time></trkpt><trkpt lat="41.1399013" lon="14.2497131"><ele>44.66666666666667</ele><time>2026-04-06T10:36:21.094Z</time></trkpt><trkpt lat="41.1399626" lon="14.2496408"><ele>44.0</ele><time>2026-04-06T10:36:25.077Z</time></trkpt><trkpt lat="41.1400203" lon="14.2495794"><ele>43.333333333333336</ele><time>2026-04-06T10:36:28.072Z</time></trkpt><trkpt lat="41.1400802" lon="14.2495245"><ele>42.666666666666664</ele><time>2026-04-06T10:36:31.076Z</time></trkpt><trkpt lat="41.140135" lon="14.2494636"><ele>42.0</ele><time>2026-04-06T10:36:34.046Z</time></trkpt><trkpt lat="41.1401987" lon="14.2494073"><ele>42.0</ele><time>2026-04-06T10:36:37.119Z</time></trkpt><trkpt lat="41.1402521" lon="14.2493598"><ele>42.0</ele><time>2026-04-06T10:36:40.108Z</time></trkpt><trkpt lat="41.1403244" lon="14.2493054"><ele>42.0</ele><time>2026-04-06T10:36:44.044Z</time></trkpt><trkpt lat="41.1403845" lon="14.2492747"><ele>42.0</ele><time>2026-04-06T10:36:47.082Z</time></trkpt><trkpt lat="41.140454" lon="14.249231"><ele>42.0</ele><time>2026-04-06T10:36:50.089Z</time></trkpt><trkpt lat="41.1405239" lon="14.2491851"><ele>42.0</ele><time>2026-04-06T10:36:53.091Z</time></trkpt><trkpt lat="41.1405898" lon="14.2491427"><ele>42.0</ele><time>2026-04-06T10:36:56.106Z</time></trkpt><trkpt lat="41.1406581" lon="14.2490955"><ele>42.0</ele><time>2026-04-06T10:36:59.081Z</time></trkpt><trkpt lat="41.1407264" lon="14.2490583"><ele>42.0</ele><time>2026-04-06T10:37:02.062Z</time></trkpt><trkpt lat="41.1407912" lon="14.2490263"><ele>42.0</ele><time>2026-04-06T10:37:05.078Z</time></trkpt><trkpt lat="41.1408547" lon="14.2489921"><ele>42.0</ele><time>2026-04-06T10:37:08.09Z</time></trkpt><trkpt lat="41.1409205" lon="14.248956"><ele>42.0</ele><time>2026-04-06T10:37:11.076Z</time></trkpt><trkpt lat="41.1409926" lon="14.248918"><ele>42.0</ele><time>2026-04-06T10:37:14.087Z</time></trkpt><trkpt lat="41.1410658" lon="14.2488826"><ele>42.0</ele><time>2026-04-06T10:37:17.096Z</time></trkpt><trkpt lat="41.1411416" lon="14.2488516"><ele>42.0</ele><time>2026-04-06T10:37:20.048Z</time></trkpt><trkpt lat="41.1412218" lon="14.248813"><ele>42.0</ele><time>2026-04-06T10:37:23.058Z</time></trkpt><trkpt lat="41.1412981" lon="14.2487769"><ele>42.0</ele><time>2026-04-06T10:37:26.025Z</time></trkpt><trkpt lat="41.141381" lon="14.2487379"><ele>42.0</ele><time>2026-04-06T10:37:29.103Z</time></trkpt><trkpt lat="41.1414522" lon="14.2486967"><ele>42.0</ele><time>2026-04-06T10:37:32.027Z</time></trkpt><trkpt lat="41.1415199" lon="14.2486605"><ele>42.0</ele><time>2026-04-06T10:37:35.045Z</time></trkpt><trkpt lat="41.1415898" lon="14.2486282"><ele>42.0</ele><time>2026-04-06T10:37:38.07Z</time></trkpt><trkpt lat="41.1416595" lon="14.2485904"><ele>42.0</ele><time>2026-04-06T10:37:41.09Z</time></trkpt><trkpt lat="41.1417314" lon="14.2485498"><ele>42.0</ele><time>2026-04-06T10:37:44.076Z</time></trkpt><trkpt lat="41.1417993" lon="14.2485009"><ele>42.0</ele><time>2026-04-06T10:37:47.078Z</time></trkpt><trkpt lat="41.1418648" lon="14.2484585"><ele>42.0</ele><time>2026-04-06T10:37:50.117Z</time></trkpt><trkpt lat="41.1419249" lon="14.2484256"><ele>42.0</ele><time>2026-04-06T10:37:53.092Z</time></trkpt><trkpt lat="41.141988" lon="14.2483941"><ele>42.0</ele><time>2026-04-06T10:37:56.109Z</time></trkpt><trkpt lat="41.1420532" lon="14.2483535"><ele>42.0</ele><time>2026-04-06T10:37:59.082Z</time></trkpt><trkpt lat="41.1421283" lon="14.2483167"><ele>42.0</ele><time>2026-04-06T10:38:02.988Z</time></trkpt><trkpt lat="41.142194" lon="14.2482665"><ele>42.0</ele><time>2026-04-06T10:38:07.095Z</time></trkpt><trkpt lat="41.1422646" lon="14.2482186"><ele>42.0</ele><time>2026-04-06T10:38:11.093Z</time></trkpt><trkpt lat="41.1423282" lon="14.2481926"><ele>42.0</ele><time>2026-04-06T10:38:14.077Z</time></trkpt><trkpt lat="41.1423952" lon="14.2481548"><ele>42.0</ele><time>2026-04-06T10:38:17.093Z</time></trkpt><trkpt lat="41.1424643" lon="14.2481186"><ele>42.0</ele><time>2026-04-06T10:38:20.101Z</time></trkpt><trkpt lat="41.1425397" lon="14.248088"><ele>41.714285714285715</ele><time>2026-04-06T10:38:23.138Z</time></trkpt><trkpt lat="41.1426047" lon="14.2480614"><ele>41.42857142857143</ele><time>2026-04-06T10:38:26.078Z</time></trkpt><trkpt lat="41.1426668" lon="14.2480335"><ele>41.14285714285714</ele><time>2026-04-06T10:38:29.076Z</time></trkpt><trkpt lat="41.1427302" lon="14.2480117"><ele>40.85714285714286</ele><time>2026-04-06T10:38:32.078Z</time></trkpt><trkpt lat="41.1427883" lon="14.2479781"><ele>40.57142857142857</ele><time>2026-04-06T10:38:35.078Z</time></trkpt><trkpt lat="41.1428596" lon="14.247947"><ele>40.285714285714285</ele><time>2026-04-06T10:38:38.048Z</time></trkpt><trkpt lat="41.1429331" lon="14.2479175"><ele>40.0</ele><time>2026-04-06T10:38:41.091Z</time></trkpt><trkpt lat="41.1429921" lon="14.2478844"><ele>40.0</ele><time>2026-04-06T10:38:43.98Z</time></trkpt><trkpt lat="41.143055" lon="14.2478474"><ele>40.0</ele><time>2026-04-06T10:38:47.088Z</time></trkpt><trkpt lat="41.1431177" lon="14.2478097"><ele>40.0</ele><time>2026-04-06T10:38:50.027Z</time></trkpt><trkpt lat="41.1431703" lon="14.2477629"><ele>40.0</ele><time>2026-04-06T10:38:52.114Z</time></trkpt><trkpt lat="41.1432441" lon="14.2477246"><ele>40.0</ele><time>2026-04-06T10:38:55.074Z</time></trkpt><trkpt lat="41.1433111" lon="14.2476888"><ele>40.0</ele><time>2026-04-06T10:38:58.095Z</time></trkpt><trkpt lat="41.1433746" lon="14.2476545"><ele>40.0</ele><time>2026-04-06T10:39:01.046Z</time></trkpt><trkpt lat="41.1434341" lon="14.2476265"><ele>40.285714285714285</ele><time>2026-04-06T10:39:04.08Z</time></trkpt><trkpt lat="41.1434975" lon="14.2475942"><ele>40.57142857142857</ele><time>2026-04-06T10:39:07.107Z</time></trkpt><trkpt lat="41.143569" lon="14.2475504"><ele>40.85714285714286</ele><time>2026-04-06T10:39:10.985Z</time></trkpt><trkpt lat="41.1436357" lon="14.2475068"><ele>41.14285714285714</ele><time>2026-04-06T10:39:15.082Z</time></trkpt><trkpt lat="41.143708" lon="14.2474602"><ele>41.42857142857143</ele><time>2026-04-06T10:39:19.068Z</time></trkpt><trkpt lat="41.1437696" lon="14.2474226"><ele>41.714285714285715</ele><time>2026-04-06T10:39:22.081Z</time></trkpt><trkpt lat="41.1438382" lon="14.247387"><ele>42.0</ele><time>2026-04-06T10:39:25.073Z</time></trkpt><trkpt lat="41.1439092" lon="14.2473547"><ele>42.0</ele><time>2026-04-06T10:39:28.061Z</time></trkpt><trkpt lat="41.1439841" lon="14.2473183"><ele>42.0</ele><time>2026-04-06T10:39:31.079Z</time></trkpt><trkpt lat="41.1440622" lon="14.2472802"><ele>42.0</ele><time>2026-04-06T10:39:34.101Z</time></trkpt><trkpt lat="41.1441355" lon="14.2472504"><ele>42.0</ele><time>2026-04-06T10:39:37.008Z</time></trkpt><trkpt lat="41.1442103" lon="14.2472109"><ele>42.0</ele><time>2026-04-06T10:39:40.064Z</time></trkpt><trkpt lat="41.144283" lon="14.2471686"><ele>42.0</ele><time>2026-04-06T10:39:43.046Z</time></trkpt><trkpt lat="41.1443567" lon="14.2471276"><ele>42.0</ele><time>2026-04-06T10:39:46.069Z</time></trkpt><trkpt lat="41.1444299" lon="14.2470857"><ele>42.0</ele><time>2026-04-06T10:39:49.075Z</time></trkpt><trkpt lat="41.1444976" lon="14.2470465"><ele>42.0</ele><time>2026-04-06T10:39:52.081Z</time></trkpt><trkpt lat="41.1445569" lon="14.2470129"><ele>42.0</ele><time>2026-04-06T10:39:54.74Z</time></trkpt><trkpt lat="41.1446295" lon="14.246971"><ele>42.0</ele><time>2026-04-06T10:39:58.069Z</time></trkpt><trkpt lat="41.1446914" lon="14.2469312"><ele>42.0</ele><time>2026-04-06T10:40:01.064Z</time></trkpt><trkpt lat="41.1447707" lon="14.2468854"><ele>42.0</ele><time>2026-04-06T10:40:05.056Z</time></trkpt><trkpt lat="41.1448399" lon="14.2468466"><ele>42.0</ele><time>2026-04-06T10:40:08.091Z</time></trkpt><trkpt lat="41.1448986" lon="14.2468135"><ele>42.0</ele><time>2026-04-06T10:40:11.079Z</time></trkpt><trkpt lat="41.144963" lon="14.2467767"><ele>42.0</ele><time>2026-04-06T10:40:14.029Z</time></trkpt><trkpt lat="41.1450247" lon="14.2467438"><ele>42.0</ele><time>2026-04-06T10:40:17.089Z</time></trkpt><trkpt lat="41.1450828" lon="14.2467035"><ele>42.0</ele><time>2026-04-06T10:40:20.126Z</time></trkpt><trkpt lat="41.1451571" lon="14.2466676"><ele>42.0</ele><time>2026-04-06T10:40:24.099Z</time></trkpt><trkpt lat="41.145226" lon="14.246629"><ele>41.833333333333336</ele><time>2026-04-06T10:40:28.059Z</time></trkpt><trkpt lat="41.1453031" lon="14.2465825"><ele>41.666666666666664</ele><time>2026-04-06T10:40:32.007Z</time></trkpt><trkpt lat="41.1453721" lon="14.2465404"><ele>41.5</ele><time>2026-04-06T10:40:35.073Z</time></trkpt><trkpt lat="41.1454389" lon="14.2464946"><ele>41.33333333333333</ele><time>2026-04-06T10:40:38.091Z</time></trkpt><trkpt lat="41.1455078" lon="14.246452"><ele>41.166666666666664</ele><time>2026-04-06T10:40:41.092Z</time></trkpt><trkpt lat="41.1455774" lon="14.2464139"><ele>41.0</ele><time>2026-04-06T10:40:44.084Z</time></trkpt><trkpt lat="41.1456548" lon="14.2463743"><ele>41.33333333333333</ele><time>2026-04-06T10:40:47.084Z</time></trkpt><trkpt lat="41.1457276" lon="14.2463301"><ele>41.666666666666664</ele><time>2026-04-06T10:40:50.095Z</time></trkpt><trkpt lat="41.1457986" lon="14.2462863"><ele>42.0</ele><time>2026-04-06T10:40:52.923Z</time></trkpt><trkpt lat="41.1458737" lon="14.2462476"><ele>42.333333333333336</ele><time>2026-04-06T10:40:56.107Z</time></trkpt><trkpt lat="41.1459435" lon="14.2462041"><ele>42.66666666666667</ele><time>2026-04-06T10:40:59.098Z</time></trkpt><trkpt lat="41.1460063" lon="14.2461579"><ele>43.0</ele><time>2026-04-06T10:41:02.127Z</time></trkpt><trkpt lat="41.1460769" lon="14.2461036"><ele>43.00000000000001</ele><time>2026-04-06T10:41:05.987Z</time></trkpt><trkpt lat="41.146137" lon="14.2460598"><ele>43.0</ele><time>2026-04-06T10:41:09.081Z</time></trkpt><trkpt lat="41.1461979" lon="14.2460206"><ele>43.0</ele><time>2026-04-06T10:41:12.075Z</time></trkpt><trkpt lat="41.1462609" lon="14.2459956"><ele>43.0</ele><time>2026-04-06T10:41:15.095Z</time></trkpt><trkpt lat="41.1463211" lon="14.2459703"><ele>43.0</ele><time>2026-04-06T10:41:18.007Z</time></trkpt><trkpt lat="41.1463828" lon="14.2459135"><ele>43.00000000000001</ele><time>2026-04-06T10:41:22.067Z</time></trkpt><trkpt lat="41.1464423" lon="14.2458598"><ele>43.0</ele><time>2026-04-06T10:41:26.083Z</time></trkpt><trkpt lat="41.1465151" lon="14.2458182"><ele>43.142857142857146</ele><time>2026-04-06T10:41:30.046Z</time></trkpt><trkpt lat="41.1465835" lon="14.2457762"><ele>43.285714285714285</ele><time>2026-04-06T10:41:33.086Z</time></trkpt><trkpt lat="41.1466562" lon="14.2457357"><ele>43.42857142857143</ele><time>2026-04-06T10:41:36.103Z</time></trkpt><trkpt lat="41.1467231" lon="14.2457001"><ele>43.57142857142857</ele><time>2026-04-06T10:41:39.097Z</time></trkpt><trkpt lat="41.1467844" lon="14.2456602"><ele>43.714285714285715</ele><time>2026-04-06T10:41:42.08Z</time></trkpt><trkpt lat="41.1468483" lon="14.245617"><ele>43.85714285714286</ele><time>2026-04-06T10:41:45.048Z</time></trkpt><trkpt lat="41.1469138" lon="14.245578"><ele>44.0</ele><time>2026-04-06T10:41:48.086Z</time></trkpt><trkpt lat="41.1469863" lon="14.2455216"><ele>44.0</ele><time>2026-04-06T10:41:52.104Z</time></trkpt><trkpt lat="41.1470441" lon="14.2454782"><ele>44.0</ele><time>2026-04-06T10:41:55.093Z</time></trkpt><trkpt lat="41.1470985" lon="14.2454272"><ele>44.0</ele><time>2026-04-06T10:41:58.119Z</time></trkpt><trkpt lat="41.14715" lon="14.2453759"><ele>44.0</ele><time>2026-04-06T10:42:01.076Z</time></trkpt><trkpt lat="41.147204" lon="14.2453202"><ele>44.0</ele><time>2026-04-06T10:42:04.078Z</time></trkpt><trkpt lat="41.1472571" lon="14.24527"><ele>44.0</ele><time>2026-04-06T10:42:07.039Z</time></trkpt><trkpt lat="41.1473127" lon="14.2452085"><ele>44.0</ele><time>2026-04-06T10:42:10.095Z</time></trkpt><trkpt lat="41.147369" lon="14.2451519"><ele>44.142857142857146</ele><time>2026-04-06T10:42:13.092Z</time></trkpt><trkpt lat="41.1474325" lon="14.2451098"><ele>44.285714285714285</ele><time>2026-04-06T10:42:16.076Z</time></trkpt><trkpt lat="41.14749" lon="14.2450606"><ele>44.42857142857143</ele><time>2026-04-06T10:42:19.044Z</time></trkpt><trkpt lat="41.1475449" lon="14.2450123"><ele>44.57142857142857</ele><time>2026-04-06T10:42:22.022Z</time></trkpt><trkpt lat="41.1476113" lon="14.2449456"><ele>44.714285714285715</ele><time>2026-04-06T10:42:26.095Z</time></trkpt><trkpt lat="41.1476715" lon="14.2448796"><ele>44.857142857142854</ele><time>2026-04-06T10:42:30.104Z</time></trkpt><trkpt lat="41.1477192" lon="14.2448233"><ele>45.0</ele><time>2026-04-06T10:42:33.066Z</time></trkpt><trkpt lat="41.1477772" lon="14.2447516"><ele>44.666666666666664</ele><time>2026-04-06T10:42:37.004Z</time></trkpt><trkpt lat="41.147843" lon="14.2446825"><ele>44.333333333333336</ele><time>2026-04-06T10:42:41.071Z</time></trkpt><trkpt lat="41.1479266" lon="14.2446231"><ele>44.0</ele><time>2026-04-06T10:42:45.048Z</time></trkpt><trkpt lat="41.1479927" lon="14.2445313"><ele>43.66666666666667</ele><time>2026-04-06T10:42:49.05Z</time></trkpt><trkpt lat="41.1480593" lon="14.2444631"><ele>43.333333333333336</ele><time>2026-04-06T10:42:53.058Z</time></trkpt><trkpt lat="41.1480935" lon="14.2443921"><ele>43.0</ele><time>2026-04-06T10:42:55.863Z</time></trkpt><trkpt lat="41.1481486" lon="14.244312"><ele>43.00000000000001</ele><time>2026-04-06T10:43:00.048Z</time></trkpt><trkpt lat="41.1482005" lon="14.2442437"><ele>43.0</ele><time>2026-04-06T10:43:04.054Z</time></trkpt><trkpt lat="41.1482443" lon="14.2441765"><ele>43.0</ele><time>2026-04-06T10:43:08.067Z</time></trkpt><trkpt lat="41.1482727" lon="14.2440977"><ele>43.0</ele><time>2026-04-06T10:43:12.048Z</time></trkpt><trkpt lat="41.1483449" lon="14.2440566"><ele>43.0</ele><time>2026-04-06T10:43:16.081Z</time></trkpt><trkpt lat="41.1483906" lon="14.2439978"><ele>43.00000000000001</ele><time>2026-04-06T10:43:19.103Z</time></trkpt><trkpt lat="41.1484396" lon="14.2439377"><ele>43.0</ele><time>2026-04-06T10:43:22.099Z</time></trkpt><trkpt lat="41.1484836" lon="14.2438467"><ele>43.00000000000001</ele><time>2026-04-06T10:43:26.046Z</time></trkpt><trkpt lat="41.1485187" lon="14.2437733"><ele>43.0</ele><time>2026-04-06T10:43:29.05Z</time></trkpt><trkpt lat="41.148566" lon="14.2437145"><ele>43.0</ele><time>2026-04-06T10:43:32Z</time></trkpt><trkpt lat="41.1486088" lon="14.2436492"><ele>43.0</ele><time>2026-04-06T10:43:36.087Z</time></trkpt><trkpt lat="41.1486278" lon="14.243558"><ele>43.0</ele><time>2026-04-06T10:43:40.023Z</time></trkpt><trkpt lat="41.1486603" lon="14.2434837"><ele>43.00000000000001</ele><time>2026-04-06T10:43:44.083Z</time></trkpt><trkpt lat="41.1487061" lon="14.2434057"><ele>43.0</ele><time>2026-04-06T10:43:48.086Z</time></trkpt><trkpt lat="41.1487523" lon="14.2433281"><ele>43.0</ele><time>2026-04-06T10:43:52.075Z</time></trkpt><trkpt lat="41.148805" lon="14.2432423"><ele>43.0</ele><time>2026-04-06T10:43:56.063Z</time></trkpt><trkpt lat="41.148852" lon="14.2431509"><ele>43.0</ele><time>2026-04-06T10:44:00.075Z</time></trkpt><trkpt lat="41.1488905" lon="14.2430668"><ele>43.0</ele><time>2026-04-06T10:44:03.013Z</time></trkpt><trkpt lat="41.1489363" lon="14.24299"><ele>43.0</ele><time>2026-04-06T10:44:05.825Z</time></trkpt><trkpt lat="41.1489917" lon="14.2429036"><ele>43.0</ele><time>2026-04-06T10:44:09.082Z</time></trkpt><trkpt lat="41.1490377" lon="14.242829"><ele>43.42857142857143</ele><time>2026-04-06T10:44:12.119Z</time></trkpt><trkpt lat="41.1490793" lon="14.2427492"><ele>43.85714285714286</ele><time>2026-04-06T10:44:15.088Z</time></trkpt><trkpt lat="41.1491231" lon="14.2426797"><ele>44.28571428571429</ele><time>2026-04-06T10:44:18.086Z</time></trkpt><trkpt lat="41.1491642" lon="14.2425837"><ele>44.714285714285715</ele><time>2026-04-06T10:44:22.069Z</time></trkpt><trkpt lat="41.1491981" lon="14.2425031"><ele>45.14285714285714</ele><time>2026-04-06T10:44:25.078Z</time></trkpt><trkpt lat="41.1492459" lon="14.2424185"><ele>45.57142857142858</ele><time>2026-04-06T10:44:27.978Z</time></trkpt><trkpt lat="41.149295" lon="14.2423417"><ele>46.0</ele><time>2026-04-06T10:44:31.139Z</time></trkpt><trkpt lat="41.1493449" lon="14.2422532"><ele>46.142857142857146</ele><time>2026-04-06T10:44:35.024Z</time></trkpt><trkpt lat="41.1493859" lon="14.2421773"><ele>46.285714285714285</ele><time>2026-04-06T10:44:38.099Z</time></trkpt><trkpt lat="41.1494304" lon="14.2421077"><ele>46.42857142857143</ele><time>2026-04-06T10:44:41.034Z</time></trkpt><trkpt lat="41.149481" lon="14.2420433"><ele>46.57142857142857</ele><time>2026-04-06T10:44:44.076Z</time></trkpt><trkpt lat="41.1495245" lon="14.2419779"><ele>46.71428571428571</ele><time>2026-04-06T10:44:47.018Z</time></trkpt><trkpt lat="41.1495757" lon="14.2418957"><ele>46.857142857142854</ele><time>2026-04-06T10:44:50.066Z</time></trkpt><trkpt lat="41.1496186" lon="14.2418214"><ele>47.0</ele><time>2026-04-06T10:44:53.005Z</time></trkpt><trkpt lat="41.1496743" lon="14.2417447"><ele>47.0</ele><time>2026-04-06T10:44:57.081Z</time></trkpt><trkpt lat="41.1497375" lon="14.24167"><ele>47.0</ele><time>2026-04-06T10:45:01.08Z</time></trkpt><trkpt lat="41.1497883" lon="14.2416039"><ele>47.0</ele><time>2026-04-06T10:45:04.082Z</time></trkpt><trkpt lat="41.1498444" lon="14.241531"><ele>47.0</ele><time>2026-04-06T10:45:07.098Z</time></trkpt><trkpt lat="41.1498947" lon="14.2414594"><ele>47.0</ele><time>2026-04-06T10:45:10.093Z</time></trkpt><trkpt lat="41.1499539" lon="14.2413867"><ele>47.0</ele><time>2026-04-06T10:45:13.057Z</time></trkpt><trkpt lat="41.1500096" lon="14.2413191"><ele>46.857142857142854</ele><time>2026-04-06T10:45:16.096Z</time></trkpt><trkpt lat="41.1500596" lon="14.2412428"><ele>46.71428571428571</ele><time>2026-04-06T10:45:19.068Z</time></trkpt><trkpt lat="41.1501067" lon="14.2411554"><ele>46.57142857142857</ele><time>2026-04-06T10:45:23.095Z</time></trkpt><trkpt lat="41.1501544" lon="14.2410903"><ele>46.42857142857143</ele><time>2026-04-06T10:45:26.056Z</time></trkpt><trkpt lat="41.1501994" lon="14.2410182"><ele>46.285714285714285</ele><time>2026-04-06T10:45:29.081Z</time></trkpt><trkpt lat="41.1502558" lon="14.2409488"><ele>46.142857142857146</ele><time>2026-04-06T10:45:32.042Z</time></trkpt><trkpt lat="41.1503067" lon="14.240883"><ele>46.0</ele><time>2026-04-06T10:45:35.079Z</time></trkpt><trkpt lat="41.1503513" lon="14.2408188"><ele>46.0</ele><time>2026-04-06T10:45:38.096Z</time></trkpt><trkpt lat="41.150396" lon="14.2407494"><ele>46.0</ele><time>2026-04-06T10:45:41.095Z</time></trkpt><trkpt lat="41.1504547" lon="14.2406598"><ele>46.0</ele><time>2026-04-06T10:45:45.086Z</time></trkpt><trkpt lat="41.1504993" lon="14.2405933"><ele>46.0</ele><time>2026-04-06T10:45:47.993Z</time></trkpt><trkpt lat="41.1505401" lon="14.2405224"><ele>46.0</ele><time>2026-04-06T10:45:51.06Z</time></trkpt><trkpt lat="41.1505793" lon="14.2404567"><ele>46.0</ele><time>2026-04-06T10:45:54.103Z</time></trkpt><trkpt lat="41.150632" lon="14.2403737"><ele>46.0</ele><time>2026-04-06T10:45:58.082Z</time></trkpt><trkpt lat="41.1506785" lon="14.2402982"><ele>46.142857142857146</ele><time>2026-04-06T10:46:02.092Z</time></trkpt><trkpt lat="41.1507168" lon="14.2402198"><ele>46.285714285714285</ele><time>2026-04-06T10:46:06.087Z</time></trkpt><trkpt lat="41.1507649" lon="14.2401536"><ele>46.42857142857143</ele><time>2026-04-06T10:46:09.042Z</time></trkpt><trkpt lat="41.150826" lon="14.2401016"><ele>46.57142857142857</ele><time>2026-04-06T10:46:12.101Z</time></trkpt><trkpt lat="41.1508819" lon="14.2400441"><ele>46.71428571428571</ele><time>2026-04-06T10:46:15.09Z</time></trkpt><trkpt lat="41.1509374" lon="14.2399879"><ele>46.857142857142854</ele><time>2026-04-06T10:46:18.072Z</time></trkpt><trkpt lat="41.1509913" lon="14.2399282"><ele>47.0</ele><time>2026-04-06T10:46:21.104Z</time></trkpt><trkpt lat="41.1510438" lon="14.2398706"><ele>47.0</ele><time>2026-04-06T10:46:24.005Z</time></trkpt><trkpt lat="41.1510921" lon="14.2398028"><ele>47.0</ele><time>2026-04-06T10:46:27.068Z</time></trkpt><trkpt lat="41.1511345" lon="14.2397292"><ele>47.0</ele><time>2026-04-06T10:46:30.114Z</time></trkpt><trkpt lat="41.1511853" lon="14.239663"><ele>47.0</ele><time>2026-04-06T10:46:33.068Z</time></trkpt><trkpt lat="41.1512326" lon="14.2395982"><ele>47.0</ele><time>2026-04-06T10:46:36.086Z</time></trkpt><trkpt lat="41.1512767" lon="14.2395305"><ele>47.0</ele><time>2026-04-06T10:46:39.053Z</time></trkpt><trkpt lat="41.1513164" lon="14.2394624"><ele>47.0</ele><time>2026-04-06T10:46:42.103Z</time></trkpt><trkpt lat="41.1513585" lon="14.2393954"><ele>47.14285714285714</ele><time>2026-04-06T10:46:45.058Z</time></trkpt><trkpt lat="41.1514114" lon="14.2393147"><ele>47.285714285714285</ele><time>2026-04-06T10:46:48.081Z</time></trkpt><trkpt lat="41.1514654" lon="14.2392402"><ele>47.42857142857143</ele><time>2026-04-06T10:46:51.075Z</time></trkpt><trkpt lat="41.1515202" lon="14.2391748"><ele>47.57142857142857</ele><time>2026-04-06T10:46:54.086Z</time></trkpt><trkpt lat="41.1515752" lon="14.2391121"><ele>47.714285714285715</ele><time>2026-04-06T10:46:57.098Z</time></trkpt><trkpt lat="41.1516249" lon="14.2390588"><ele>47.857142857142854</ele><time>2026-04-06T10:47:00.042Z</time></trkpt><trkpt lat="41.1516849" lon="14.2389932"><ele>48.0</ele><time>2026-04-06T10:47:04.082Z</time></trkpt><trkpt lat="41.1517397" lon="14.2389127"><ele>48.14285714285714</ele><time>2026-04-06T10:47:08.098Z</time></trkpt><trkpt lat="41.1517834" lon="14.2388462"><ele>48.285714285714285</ele><time>2026-04-06T10:47:11.116Z</time></trkpt><trkpt lat="41.151836" lon="14.2387568"><ele>48.42857142857143</ele><time>2026-04-06T10:47:15.392Z</time></trkpt><trkpt lat="41.1518742" lon="14.2386802"><ele>48.57142857142857</ele><time>2026-04-06T10:47:18.588Z</time></trkpt><trkpt lat="41.1519159" lon="14.2386053"><ele>48.714285714285715</ele><time>2026-04-06T10:47:21.809Z</time></trkpt><trkpt lat="41.1519663" lon="14.2385357"><ele>48.857142857142854</ele><time>2026-04-06T10:47:24.984Z</time></trkpt><trkpt lat="41.1520153" lon="14.2384516"><ele>49.0</ele><time>2026-04-06T10:47:29.069Z</time></trkpt><trkpt lat="41.1520641" lon="14.2383745"><ele>48.99999999999999</ele><time>2026-04-06T10:47:33.092Z</time></trkpt><trkpt lat="41.1521237" lon="14.2382902"><ele>49.0</ele><time>2026-04-06T10:47:37.108Z</time></trkpt><trkpt lat="41.1521788" lon="14.2382149"><ele>49.0</ele><time>2026-04-06T10:47:41.09Z</time></trkpt><trkpt lat="41.1522356" lon="14.2381399"><ele>49.0</ele><time>2026-04-06T10:47:45.045Z</time></trkpt><trkpt lat="41.1522805" lon="14.2380736"><ele>48.99999999999999</ele><time>2026-04-06T10:47:48.078Z</time></trkpt><trkpt lat="41.1523203" lon="14.2380083"><ele>49.0</ele><time>2026-04-06T10:47:51.089Z</time></trkpt><trkpt lat="41.152365" lon="14.237924"><ele>49.142857142857146</ele><time>2026-04-06T10:47:55.066Z</time></trkpt><trkpt lat="41.1524167" lon="14.237848"><ele>49.285714285714285</ele><time>2026-04-06T10:47:59.071Z</time></trkpt><trkpt lat="41.1524766" lon="14.2378026"><ele>49.42857142857143</ele><time>2026-04-06T10:48:02.094Z</time></trkpt><trkpt lat="41.152531" lon="14.2377529"><ele>49.57142857142857</ele><time>2026-04-06T10:48:05.106Z</time></trkpt><trkpt lat="41.1525863" lon="14.2376871"><ele>49.714285714285715</ele><time>2026-04-06T10:48:08.67Z</time></trkpt><trkpt lat="41.1526355" lon="14.2376218"><ele>49.85714285714286</ele><time>2026-04-06T10:48:12.074Z</time></trkpt><trkpt lat="41.1526929" lon="14.2375498"><ele>50.0</ele><time>2026-04-06T10:48:16.085Z</time></trkpt><trkpt lat="41.1527547" lon="14.2374836"><ele>50.00000000000001</ele><time>2026-04-06T10:48:20.086Z</time></trkpt><trkpt lat="41.1528088" lon="14.2374062"><ele>50.0</ele><time>2026-04-06T10:48:24.125Z</time></trkpt><trkpt lat="41.1528612" lon="14.2373283"><ele>50.0</ele><time>2026-04-06T10:48:28.03Z</time></trkpt><trkpt lat="41.1529108" lon="14.237266"><ele>50.0</ele><time>2026-04-06T10:48:31.108Z</time></trkpt><trkpt lat="41.1529687" lon="14.2372004"><ele>50.0</ele><time>2026-04-06T10:48:34.066Z</time></trkpt><trkpt lat="41.1530193" lon="14.2371327"><ele>50.00000000000001</ele><time>2026-04-06T10:48:37.071Z</time></trkpt><trkpt lat="41.1530688" lon="14.2370601"><ele>50.0</ele><time>2026-04-06T10:48:40.073Z</time></trkpt><trkpt lat="41.1531208" lon="14.2369843"><ele>50.00000000000001</ele><time>2026-04-06T10:48:43.097Z</time></trkpt><trkpt lat="41.1531738" lon="14.2369158"><ele>50.0</ele><time>2026-04-06T10:48:46.109Z</time></trkpt><trkpt lat="41.1532246" lon="14.2368484"><ele>50.0</ele><time>2026-04-06T10:48:49.068Z</time></trkpt><trkpt lat="41.1532692" lon="14.236775"><ele>50.0</ele><time>2026-04-06T10:48:52.101Z</time></trkpt><trkpt lat="41.1533126" lon="14.2367117"><ele>50.0</ele><time>2026-04-06T10:48:55.107Z</time></trkpt><trkpt lat="41.1533562" lon="14.23665"><ele>50.00000000000001</ele><time>2026-04-06T10:48:58.057Z</time></trkpt><trkpt lat="41.1533998" lon="14.2365887"><ele>50.0</ele><time>2026-04-06T10:49:00.972Z</time></trkpt><trkpt lat="41.1534425" lon="14.2365091"><ele>50.42857142857143</ele><time>2026-04-06T10:49:05.053Z</time></trkpt><trkpt lat="41.1534919" lon="14.2364285"><ele>50.85714285714286</ele><time>2026-04-06T10:49:09.085Z</time></trkpt><trkpt lat="41.1535397" lon="14.236352"><ele>51.28571428571429</ele><time>2026-04-06T10:49:13.067Z</time></trkpt><trkpt lat="41.153585" lon="14.2362822"><ele>51.714285714285715</ele><time>2026-04-06T10:49:15.995Z</time></trkpt><trkpt lat="41.1536362" lon="14.2362036"><ele>52.14285714285714</ele><time>2026-04-06T10:49:20.066Z</time></trkpt><trkpt lat="41.1536861" lon="14.2361367"><ele>52.57142857142858</ele><time>2026-04-06T10:49:24.078Z</time></trkpt><trkpt lat="41.1537406" lon="14.2360639"><ele>53.0</ele><time>2026-04-06T10:49:28.072Z</time></trkpt><trkpt lat="41.1538023" lon="14.2359966"><ele>53.00000000000001</ele><time>2026-04-06T10:49:32.118Z</time></trkpt><trkpt lat="41.1538482" lon="14.2359222"><ele>53.0</ele><time>2026-04-06T10:49:36.086Z</time></trkpt><trkpt lat="41.153911" lon="14.2358552"><ele>53.0</ele><time>2026-04-06T10:49:40.032Z</time></trkpt><trkpt lat="41.1539621" lon="14.235778"><ele>53.0</ele><time>2026-04-06T10:49:43.986Z</time></trkpt><trkpt lat="41.1540121" lon="14.2356928"><ele>53.00000000000001</ele><time>2026-04-06T10:49:48.065Z</time></trkpt><trkpt lat="41.1540586" lon="14.2356165"><ele>53.0</ele><time>2026-04-06T10:49:52.063Z</time></trkpt><trkpt lat="41.1541113" lon="14.2355621"><ele>53.285714285714285</ele><time>2026-04-06T10:49:56.049Z</time></trkpt><trkpt lat="41.154164" lon="14.2354962"><ele>53.57142857142857</ele><time>2026-04-06T10:50:00.08Z</time></trkpt><trkpt lat="41.1542153" lon="14.2354359"><ele>53.857142857142854</ele><time>2026-04-06T10:50:04.07Z</time></trkpt><trkpt lat="41.1542568" lon="14.2353535"><ele>54.14285714285714</ele><time>2026-04-06T10:50:08.1Z</time></trkpt><trkpt lat="41.1543069" lon="14.2352792"><ele>54.42857142857143</ele><time>2026-04-06T10:50:12.094Z</time></trkpt><trkpt lat="41.154346" lon="14.235193"><ele>54.71428571428571</ele><time>2026-04-06T10:50:16.088Z</time></trkpt><trkpt lat="41.1544082" lon="14.2351243"><ele>55.0</ele><time>2026-04-06T10:50:20.106Z</time></trkpt><trkpt lat="41.1544671" lon="14.2350664"><ele>54.99999999999999</ele><time>2026-04-06T10:50:23.991Z</time></trkpt><trkpt lat="41.1545129" lon="14.2350077"><ele>55.0</ele><time>2026-04-06T10:50:27.091Z</time></trkpt><trkpt lat="41.1545581" lon="14.2349472"><ele>55.0</ele><time>2026-04-06T10:50:29.986Z</time></trkpt><trkpt lat="41.1546021" lon="14.2348805"><ele>55.0</ele><time>2026-04-06T10:50:33.085Z</time></trkpt><trkpt lat="41.1546473" lon="14.2348165"><ele>55.0</ele><time>2026-04-06T10:50:36.07Z</time></trkpt><trkpt lat="41.154699" lon="14.2347459"><ele>54.99999999999999</ele><time>2026-04-06T10:50:39.984Z</time></trkpt><trkpt lat="41.1547446" lon="14.2346773"><ele>55.0</ele><time>2026-04-06T10:50:43.08Z</time></trkpt><trkpt lat="41.1547929" lon="14.2346052"><ele>54.99999999999999</ele><time>2026-04-06T10:50:46.086Z</time></trkpt><trkpt lat="41.154844" lon="14.2345306"><ele>55.0</ele><time>2026-04-06T10:50:49.07Z</time></trkpt><trkpt lat="41.1548935" lon="14.2344633"><ele>55.0</ele><time>2026-04-06T10:50:52.124Z</time></trkpt><trkpt lat="41.1549486" lon="14.234385"><ele>55.0</ele><time>2026-04-06T10:50:56.094Z</time></trkpt><trkpt lat="41.1549965" lon="14.2342999"><ele>54.99999999999999</ele><time>2026-04-06T10:50:59.977Z</time></trkpt><trkpt lat="41.1550312" lon="14.2342228"><ele>55.0</ele><time>2026-04-06T10:51:03.095Z</time></trkpt><trkpt lat="41.1550747" lon="14.2341281"><ele>55.14285714285714</ele><time>2026-04-06T10:51:07.102Z</time></trkpt><trkpt lat="41.1551122" lon="14.2340526"><ele>55.285714285714285</ele><time>2026-04-06T10:51:10.112Z</time></trkpt><trkpt lat="41.1551399" lon="14.2339774"><ele>55.42857142857143</ele><time>2026-04-06T10:51:12.987Z</time></trkpt><trkpt lat="41.155168" lon="14.2338854"><ele>55.57142857142857</ele><time>2026-04-06T10:51:17.094Z</time></trkpt><trkpt lat="41.1551939" lon="14.2337917"><ele>55.714285714285715</ele><time>2026-04-06T10:51:21.095Z</time></trkpt><trkpt lat="41.1552285" lon="14.2336873"><ele>55.857142857142854</ele><time>2026-04-06T10:51:25.069Z</time></trkpt><trkpt lat="41.1552625" lon="14.2335907"><ele>56.0</ele><time>2026-04-06T10:51:29.084Z</time></trkpt><trkpt lat="41.1552934" lon="14.2335125"><ele>56.00000000000001</ele><time>2026-04-06T10:51:32.07Z</time></trkpt><trkpt lat="41.1553328" lon="14.2334245"><ele>56.0</ele><time>2026-04-06T10:51:35.086Z</time></trkpt><trkpt lat="41.1553788" lon="14.2333308"><ele>56.0</ele><time>2026-04-06T10:51:38.105Z</time></trkpt><trkpt lat="41.1554145" lon="14.233238"><ele>56.0</ele><time>2026-04-06T10:51:41.09Z</time></trkpt><trkpt lat="41.1554512" lon="14.2331461"><ele>56.00000000000001</ele><time>2026-04-06T10:51:44.083Z</time></trkpt><trkpt lat="41.1554953" lon="14.2330664"><ele>56.0</ele><time>2026-04-06T10:51:47.026Z</time></trkpt><trkpt lat="41.1555357" lon="14.2329899"><ele>55.857142857142854</ele><time>2026-04-06T10:51:50.095Z</time></trkpt><trkpt lat="41.1555682" lon="14.2329168"><ele>55.714285714285715</ele><time>2026-04-06T10:51:53.075Z</time></trkpt><trkpt lat="41.1556032" lon="14.2328462"><ele>55.57142857142857</ele><time>2026-04-06T10:51:56.029Z</time></trkpt><trkpt lat="41.1556327" lon="14.2327699"><ele>55.42857142857143</ele><time>2026-04-06T10:51:59.092Z</time></trkpt><trkpt lat="41.155674" lon="14.2326744"><ele>55.285714285714285</ele><time>2026-04-06T10:52:03.097Z</time></trkpt><trkpt lat="41.1557202" lon="14.2325901"><ele>55.14285714285714</ele><time>2026-04-06T10:52:06.062Z</time></trkpt><trkpt lat="41.1557714" lon="14.2325015"><ele>55.0</ele><time>2026-04-06T10:52:10.085Z</time></trkpt><trkpt lat="41.1558032" lon="14.2324185"><ele>55.28571428571428</ele><time>2026-04-06T10:52:13.076Z</time></trkpt><trkpt lat="41.1558386" lon="14.2323224"><ele>55.57142857142857</ele><time>2026-04-06T10:52:17.125Z</time></trkpt><trkpt lat="41.1558633" lon="14.2322396"><ele>55.857142857142854</ele><time>2026-04-06T10:52:21.051Z</time></trkpt><trkpt lat="41.1558959" lon="14.2321495"><ele>56.14285714285714</ele><time>2026-04-06T10:52:25.006Z</time></trkpt><trkpt lat="41.1559323" lon="14.232073"><ele>56.42857142857142</ele><time>2026-04-06T10:52:28.08Z</time></trkpt><trkpt lat="41.155963" lon="14.2319989"><ele>56.71428571428571</ele><time>2026-04-06T10:52:31.029Z</time></trkpt><trkpt lat="41.1559939" lon="14.231903"><ele>57.0</ele><time>2026-04-06T10:52:35.082Z</time></trkpt><trkpt lat="41.15603" lon="14.2318327"><ele>57.0</ele><time>2026-04-06T10:52:39.076Z</time></trkpt><trkpt lat="41.1560782" lon="14.2317536"><ele>56.99999999999999</ele><time>2026-04-06T10:52:43.111Z</time></trkpt><trkpt lat="41.156119" lon="14.2316796"><ele>57.0</ele><time>2026-04-06T10:52:47.129Z</time></trkpt><trkpt lat="41.1561642" lon="14.2316157"><ele>57.0</ele><time>2026-04-06T10:52:51.044Z</time></trkpt><trkpt lat="41.1562067" lon="14.2315323"><ele>56.99999999999999</ele><time>2026-04-06T10:52:55.083Z</time></trkpt><trkpt lat="41.156248" lon="14.231439"><ele>57.0</ele><time>2026-04-06T10:52:59.08Z</time></trkpt><trkpt lat="41.1562859" lon="14.2313671"><ele>57.0</ele><time>2026-04-06T10:53:02.092Z</time></trkpt><trkpt lat="41.1563321" lon="14.2312723"><ele>56.71428571428571</ele><time>2026-04-06T10:53:06.086Z</time></trkpt><trkpt lat="41.1563696" lon="14.2311749"><ele>56.42857142857142</ele><time>2026-04-06T10:53:10.001Z</time></trkpt><trkpt lat="41.1563597" lon="14.2310814"><ele>56.14285714285714</ele><time>2026-04-06T10:53:14.097Z</time></trkpt><trkpt lat="41.1562987" lon="14.2310452"><ele>55.857142857142854</ele><time>2026-04-06T10:53:18.095Z</time></trkpt><trkpt lat="41.1562349" lon="14.231028"><ele>55.57142857142857</ele><time>2026-04-06T10:53:21.064Z</time></trkpt><trkpt lat="41.1561645" lon="14.2309951"><ele>55.28571428571428</ele><time>2026-04-06T10:53:24.028Z</time></trkpt><trkpt lat="41.1560965" lon="14.2309564"><ele>55.0</ele><time>2026-04-06T10:53:27.106Z</time></trkpt><trkpt lat="41.1560298" lon="14.2309248"><ele>54.99999999999999</ele><time>2026-04-06T10:53:29.988Z</time></trkpt><trkpt lat="41.1559571" lon="14.2308736"><ele>55.0</ele><time>2026-04-06T10:53:33.108Z</time></trkpt><trkpt lat="41.1558938" lon="14.2308305"><ele>55.0</ele><time>2026-04-06T10:53:36.053Z</time></trkpt><trkpt lat="41.1558243" lon="14.2307984"><ele>55.0</ele><time>2026-04-06T10:53:39.09Z</time></trkpt><trkpt lat="41.1557549" lon="14.230768"><ele>54.99999999999999</ele><time>2026-04-06T10:53:42.046Z</time></trkpt><trkpt lat="41.155693" lon="14.2307328"><ele>55.0</ele><time>2026-04-06T10:53:45.09Z</time></trkpt><trkpt lat="41.1556147" lon="14.2306927"><ele>54.666666666666664</ele><time>2026-04-06T10:53:49.129Z</time></trkpt><trkpt lat="41.1555359" lon="14.2306569"><ele>54.33333333333333</ele><time>2026-04-06T10:53:53.029Z</time></trkpt><trkpt lat="41.1554696" lon="14.2306234"><ele>54.0</ele><time>2026-04-06T10:53:56.14Z</time></trkpt><trkpt lat="41.1553887" lon="14.2305938"><ele>53.66666666666667</ele><time>2026-04-06T10:54:00.13Z</time></trkpt><trkpt lat="41.1553117" lon="14.2305601"><ele>53.333333333333336</ele><time>2026-04-06T10:54:04.025Z</time></trkpt><trkpt lat="41.1552538" lon="14.2305233"><ele>53.0</ele><time>2026-04-06T10:54:07.059Z</time></trkpt><trkpt lat="41.1551814" lon="14.2304687"><ele>53.00000000000001</ele><time>2026-04-06T10:54:11.14Z</time></trkpt><trkpt lat="41.1551084" lon="14.2304201"><ele>53.0</ele><time>2026-04-06T10:54:15.094Z</time></trkpt><trkpt lat="41.1550469" lon="14.2303908"><ele>53.0</ele><time>2026-04-06T10:54:17.975Z</time></trkpt><trkpt lat="41.154976" lon="14.230355"><ele>53.0</ele><time>2026-04-06T10:54:21.086Z</time></trkpt><trkpt lat="41.1548949" lon="14.2303135"><ele>53.00000000000001</ele><time>2026-04-06T10:54:23.99Z</time></trkpt><trkpt lat="41.1548371" lon="14.2302792"><ele>53.0</ele><time>2026-04-06T10:54:26.087Z</time></trkpt><trkpt lat="41.154761" lon="14.2302393"><ele>52.833333333333336</ele><time>2026-04-06T10:54:29.111Z</time></trkpt><trkpt lat="41.1546873" lon="14.2302086"><ele>52.66666666666667</ele><time>2026-04-06T10:54:32.072Z</time></trkpt><trkpt lat="41.1546105" lon="14.2301687"><ele>52.5</ele><time>2026-04-06T10:54:35.061Z</time></trkpt><trkpt lat="41.1545405" lon="14.2301417"><ele>52.33333333333333</ele><time>2026-04-06T10:54:38.091Z</time></trkpt><trkpt lat="41.1544685" lon="14.2301247"><ele>52.166666666666664</ele><time>2026-04-06T10:54:41.074Z</time></trkpt><trkpt lat="41.1543995" lon="14.2300958"><ele>52.0</ele><time>2026-04-06T10:54:44.116Z</time></trkpt><trkpt lat="41.1543244" lon="14.2300523"><ele>51.99999999999999</ele><time>2026-04-06T10:54:47.093Z</time></trkpt><trkpt lat="41.1542442" lon="14.2300039"><ele>52.0</ele><time>2026-04-06T10:54:50.076Z</time></trkpt><trkpt lat="41.1541715" lon="14.2299616"><ele>52.0</ele><time>2026-04-06T10:54:53.117Z</time></trkpt><trkpt lat="41.1541119" lon="14.2299313"><ele>52.0</ele><time>2026-04-06T10:54:56.062Z</time></trkpt><trkpt lat="41.1540361" lon="14.2299028"><ele>51.99999999999999</ele><time>2026-04-06T10:54:59.109Z</time></trkpt><trkpt lat="41.153963" lon="14.2298744"><ele>52.0</ele><time>2026-04-06T10:55:02.077Z</time></trkpt><trkpt lat="41.1538935" lon="14.2298486"><ele>52.0</ele><time>2026-04-06T10:55:05.103Z</time></trkpt><trkpt lat="41.1538281" lon="14.2298207"><ele>52.0</ele><time>2026-04-06T10:55:08.076Z</time></trkpt><trkpt lat="41.1537623" lon="14.2297861"><ele>52.0</ele><time>2026-04-06T10:55:11.089Z</time></trkpt><trkpt lat="41.1536892" lon="14.2297574"><ele>52.0</ele><time>2026-04-06T10:55:14.013Z</time></trkpt><trkpt lat="41.1536179" lon="14.2297238"><ele>52.0</ele><time>2026-04-06T10:55:17.107Z</time></trkpt><trkpt lat="41.1535535" lon="14.2297021"><ele>52.0</ele><time>2026-04-06T10:55:20.031Z</time></trkpt><trkpt lat="41.1534721" lon="14.229675"><ele>52.0</ele><time>2026-04-06T10:55:24.086Z</time></trkpt><trkpt lat="41.1534051" lon="14.2296485"><ele>51.99999999999999</ele><time>2026-04-06T10:55:27.08Z</time></trkpt><trkpt lat="41.1533352" lon="14.229617"><ele>52.0</ele><time>2026-04-06T10:55:29.991Z</time></trkpt><trkpt lat="41.1532699" lon="14.2295747"><ele>52.0</ele><time>2026-04-06T10:55:33.074Z</time></trkpt><trkpt lat="41.1532035" lon="14.2295348"><ele>52.0</ele><time>2026-04-06T10:55:36.006Z</time></trkpt><trkpt lat="41.1531335" lon="14.2294896"><ele>51.99999999999999</ele><time>2026-04-06T10:55:39.112Z</time></trkpt><trkpt lat="41.1530675" lon="14.2294507"><ele>52.0</ele><time>2026-04-06T10:55:42.013Z</time></trkpt><trkpt lat="41.1529943" lon="14.2294043"><ele>51.49999999999999</ele><time>2026-04-06T10:55:45.097Z</time></trkpt><trkpt lat="41.1529157" lon="14.2293569"><ele>51.0</ele><time>2026-04-06T10:55:48.072Z</time></trkpt><trkpt lat="41.1528389" lon="14.2293261"><ele>50.5</ele><time>2026-04-06T10:55:51.081Z</time></trkpt><trkpt lat="41.1527663" lon="14.2292909"><ele>50.0</ele><time>2026-04-06T10:55:53.993Z</time></trkpt><trkpt lat="41.1526921" lon="14.2292496"><ele>49.49999999999999</ele><time>2026-04-06T10:55:57.094Z</time></trkpt><trkpt lat="41.1526243" lon="14.2292187"><ele>49.0</ele><time>2026-04-06T10:55:59.983Z</time></trkpt><trkpt lat="41.1525541" lon="14.2291807"><ele>48.99999999999999</ele><time>2026-04-06T10:56:03.083Z</time></trkpt><trkpt lat="41.1524923" lon="14.2291589"><ele>49.0</ele><time>2026-04-06T10:56:06.065Z</time></trkpt><trkpt lat="41.1524111" lon="14.2291304"><ele>49.0</ele><time>2026-04-06T10:56:10.092Z</time></trkpt><trkpt lat="41.1523397" lon="14.2290858"><ele>49.0</ele><time>2026-04-06T10:56:13.1Z</time></trkpt><trkpt lat="41.1522657" lon="14.2290452"><ele>48.99999999999999</ele><time>2026-04-06T10:56:16.007Z</time></trkpt><trkpt lat="41.1521888" lon="14.2290054"><ele>49.0</ele><time>2026-04-06T10:56:19.101Z</time></trkpt><trkpt lat="41.1521161" lon="14.2289767"><ele>49.142857142857146</ele><time>2026-04-06T10:56:22.077Z</time></trkpt><trkpt lat="41.1520453" lon="14.2289463"><ele>49.285714285714285</ele><time>2026-04-06T10:56:25.09Z</time></trkpt><trkpt lat="41.1519723" lon="14.2289235"><ele>49.42857142857143</ele><time>2026-04-06T10:56:28.104Z</time></trkpt><trkpt lat="41.1519038" lon="14.2288904"><ele>49.57142857142857</ele><time>2026-04-06T10:56:31.089Z</time></trkpt><trkpt lat="41.151833" lon="14.228863"><ele>49.714285714285715</ele><time>2026-04-06T10:56:34.126Z</time></trkpt><trkpt lat="41.1517674" lon="14.2288338"><ele>49.85714285714286</ele><time>2026-04-06T10:56:36.988Z</time></trkpt><trkpt lat="41.1516918" lon="14.2287975"><ele>50.0</ele><time>2026-04-06T10:56:40.104Z</time></trkpt><trkpt lat="41.1516178" lon="14.2287505"><ele>50.00000000000001</ele><time>2026-04-06T10:56:43.01Z</time></trkpt><trkpt lat="41.1515386" lon="14.2287034"><ele>50.0</ele><time>2026-04-06T10:56:46.092Z</time></trkpt><trkpt lat="41.1514679" lon="14.2286634"><ele>50.0</ele><time>2026-04-06T10:56:49.007Z</time></trkpt><trkpt lat="41.1513981" lon="14.2286227"><ele>50.0</ele><time>2026-04-06T10:56:52.095Z</time></trkpt><trkpt lat="41.1513289" lon="14.2285895"><ele>50.00000000000001</ele><time>2026-04-06T10:56:55.115Z</time></trkpt><trkpt lat="41.1512543" lon="14.2285694"><ele>50.0</ele><time>2026-04-06T10:56:58.085Z</time></trkpt><trkpt lat="41.1511749" lon="14.2285348"><ele>50.00000000000001</ele><time>2026-04-06T10:57:01.145Z</time></trkpt><trkpt lat="41.1510981" lon="14.2284942"><ele>50.0</ele><time>2026-04-06T10:57:03.99Z</time></trkpt><trkpt lat="41.1510115" lon="14.2284559"><ele>50.0</ele><time>2026-04-06T10:57:07.095Z</time></trkpt><trkpt lat="41.150937" lon="14.2284146"><ele>50.0</ele><time>2026-04-06T10:57:09.998Z</time></trkpt><trkpt lat="41.1508651" lon="14.2283743"><ele>50.00000000000001</ele><time>2026-04-06T10:57:13.127Z</time></trkpt><trkpt lat="41.1507909" lon="14.2283309"><ele>50.0</ele><time>2026-04-06T10:57:16.086Z</time></trkpt><trkpt lat="41.1507154" lon="14.2282887"><ele>49.66666666666667</ele><time>2026-04-06T10:57:19.077Z</time></trkpt><trkpt lat="41.150641" lon="14.2282558"><ele>49.333333333333336</ele><time>2026-04-06T10:57:22.034Z</time></trkpt><trkpt lat="41.1505554" lon="14.2282183"><ele>49.0</ele><time>2026-04-06T10:57:25.081Z</time></trkpt><trkpt lat="41.1504804" lon="14.2281733"><ele>48.66666666666667</ele><time>2026-04-06T10:57:28.065Z</time></trkpt><trkpt lat="41.1504076" lon="14.2281273"><ele>48.333333333333336</ele><time>2026-04-06T10:57:31.098Z</time></trkpt><trkpt lat="41.1503271" lon="14.2280875"><ele>48.0</ele><time>2026-04-06T10:57:34.108Z</time></trkpt><trkpt lat="41.1502536" lon="14.2280484"><ele>47.99999999999999</ele><time>2026-04-06T10:57:37.083Z</time></trkpt><trkpt lat="41.1501869" lon="14.2280014"><ele>48.0</ele><time>2026-04-06T10:57:40.098Z</time></trkpt><trkpt lat="41.1501189" lon="14.2279581"><ele>48.0</ele><time>2026-04-06T10:57:43.074Z</time></trkpt><trkpt lat="41.1500501" lon="14.2279316"><ele>48.0</ele><time>2026-04-06T10:57:46.084Z</time></trkpt><trkpt lat="41.1499862" lon="14.2278985"><ele>48.0</ele><time>2026-04-06T10:57:49.046Z</time></trkpt><trkpt lat="41.1499208" lon="14.2278625"><ele>47.99999999999999</ele><time>2026-04-06T10:57:52.08Z</time></trkpt><trkpt lat="41.1498536" lon="14.2278268"><ele>48.0</ele><time>2026-04-06T10:57:55.075Z</time></trkpt><trkpt lat="41.1497904" lon="14.2277947"><ele>47.857142857142854</ele><time>2026-04-06T10:57:57.99Z</time></trkpt><trkpt lat="41.1497271" lon="14.227759"><ele>47.714285714285715</ele><time>2026-04-06T10:58:01.093Z</time></trkpt><trkpt lat="41.1496608" lon="14.2277187"><ele>47.57142857142857</ele><time>2026-04-06T10:58:04.083Z</time></trkpt><trkpt lat="41.1495927" lon="14.2276712"><ele>47.42857142857143</ele><time>2026-04-06T10:58:07.058Z</time></trkpt><trkpt lat="41.1495279" lon="14.2276234"><ele>47.285714285714285</ele><time>2026-04-06T10:58:10.083Z</time></trkpt><trkpt lat="41.1494637" lon="14.2276006"><ele>47.14285714285714</ele><time>2026-04-06T10:58:13.072Z</time></trkpt><trkpt lat="41.1493984" lon="14.22758"><ele>47.0</ele><time>2026-04-06T10:58:16.07Z</time></trkpt><trkpt lat="41.1493381" lon="14.2275487"><ele>47.0</ele><time>2026-04-06T10:58:19.006Z</time></trkpt><trkpt lat="41.1492768" lon="14.2275165"><ele>47.0</ele><time>2026-04-06T10:58:22.08Z</time></trkpt><trkpt lat="41.1492172" lon="14.2274882"><ele>47.0</ele><time>2026-04-06T10:58:25.055Z</time></trkpt><trkpt lat="41.14915" lon="14.2274624"><ele>47.0</ele><time>2026-04-06T10:58:28.09Z</time></trkpt><trkpt lat="41.1490811" lon="14.2274258"><ele>47.0</ele><time>2026-04-06T10:58:31.078Z</time></trkpt><trkpt lat="41.1490248" lon="14.2273668"><ele>47.0</ele><time>2026-04-06T10:58:34.089Z</time></trkpt><trkpt lat="41.1489559" lon="14.2273161"><ele>47.0</ele><time>2026-04-06T10:58:37.076Z</time></trkpt><trkpt lat="41.1489021" lon="14.2272709"><ele>45.0</ele><time>2026-04-06T10:58:40.074Z</time></trkpt><trkpt lat="41.1488381" lon="14.2272075"><ele>45.0</ele><time>2026-04-06T10:58:46.051Z</time></trkpt></trkseg></trk></gpx>